<?xml version="1.0" encoding="UTF-8" standalone="no" ?>
<gpx xmlns="http://www.topografix.com/GPX/1/1" xmlns:xsi="http://www.w3.org/2001/XMLSchema-instance" xsi:schemaLocation="http://www.topografix.com/GPX/1/1 http://www.topografix.com/GPX/1/1/gpx.xsd" version="1.1" creator="VisuGPX - https://www.visugpx.com">
  <metadata>
    <name>Explo Saint Florent - Montjean - Ancenis</name>
    <desc><![CDATA[Rando VTT roulante en partie sur la Loire à vélo.

]]></desc>
  </metadata>
  <trk>
    <name><![CDATA[Explo Saint Florent - Montjean - Ancenis_1]]></name>
    <trkseg>
      <trkpt lat="47.36094" lon="-1.01562">
        <ele>74.738</ele>
        <time>2020-07-19T07:31:34Z</time>
      </trkpt>
      <trkpt lat="47.36095" lon="-1.01562">
        <ele>74.186</ele>
        <time>2020-07-19T07:31:35Z</time>
      </trkpt>
      <trkpt lat="47.36095" lon="-1.01562">
        <ele>73.389</ele>
        <time>2020-07-19T07:31:36Z</time>
      </trkpt>
      <trkpt lat="47.36096" lon="-1.0156">
        <ele>72.96</ele>
        <time>2020-07-19T07:31:37Z</time>
      </trkpt>
      <trkpt lat="47.36098" lon="-1.01558">
        <ele>70.805</ele>
        <time>2020-07-19T07:31:38Z</time>
      </trkpt>
      <trkpt lat="47.36099" lon="-1.01558">
        <ele>69.801</ele>
        <time>2020-07-19T07:31:39Z</time>
      </trkpt>
      <trkpt lat="47.361" lon="-1.01558">
        <ele>69.381</ele>
        <time>2020-07-19T07:31:40Z</time>
      </trkpt>
      <trkpt lat="47.36101" lon="-1.01559">
        <ele>68.72</ele>
        <time>2020-07-19T07:31:41Z</time>
      </trkpt>
      <trkpt lat="47.36103" lon="-1.0156">
        <ele>68.467</ele>
        <time>2020-07-19T07:31:42Z</time>
      </trkpt>
      <trkpt lat="47.36105" lon="-1.01562">
        <ele>69.788</ele>
        <time>2020-07-19T07:31:43Z</time>
      </trkpt>
      <trkpt lat="47.36108" lon="-1.01561">
        <ele>67.914</ele>
        <time>2020-07-19T07:31:44Z</time>
      </trkpt>
      <trkpt lat="47.36113" lon="-1.0156">
        <ele>69.502</ele>
        <time>2020-07-19T07:31:45Z</time>
      </trkpt>
      <trkpt lat="47.36119" lon="-1.01557">
        <ele>68.184</ele>
        <time>2020-07-19T07:31:46Z</time>
      </trkpt>
      <trkpt lat="47.3613" lon="-1.01544">
        <ele>63.81</ele>
        <time>2020-07-19T07:31:47Z</time>
      </trkpt>
      <trkpt lat="47.36136" lon="-1.01539">
        <ele>61.497</ele>
        <time>2020-07-19T07:31:48Z</time>
      </trkpt>
      <trkpt lat="47.36142" lon="-1.01535">
        <ele>58.402</ele>
        <time>2020-07-19T07:31:49Z</time>
      </trkpt>
      <trkpt lat="47.36148" lon="-1.01534">
        <ele>58.183</ele>
        <time>2020-07-19T07:31:50Z</time>
      </trkpt>
      <trkpt lat="47.36155" lon="-1.01532">
        <ele>67.23</ele>
        <time>2020-07-19T07:31:51Z</time>
      </trkpt>
      <trkpt lat="47.3616" lon="-1.01529">
        <ele>64.914</ele>
        <time>2020-07-19T07:31:52Z</time>
      </trkpt>
      <trkpt lat="47.36167" lon="-1.01525">
        <ele>63.275</ele>
        <time>2020-07-19T07:31:53Z</time>
      </trkpt>
      <trkpt lat="47.36175" lon="-1.01522">
        <ele>62.489</ele>
        <time>2020-07-19T07:31:54Z</time>
      </trkpt>
      <trkpt lat="47.36181" lon="-1.01519">
        <ele>58.97</ele>
        <time>2020-07-19T07:31:55Z</time>
      </trkpt>
      <trkpt lat="47.3619" lon="-1.01517">
        <ele>54.151</ele>
        <time>2020-07-19T07:31:56Z</time>
      </trkpt>
      <trkpt lat="47.36198" lon="-1.01514">
        <ele>52.031</ele>
        <time>2020-07-19T07:31:57Z</time>
      </trkpt>
      <trkpt lat="47.36214" lon="-1.01512">
        <ele>55.993</ele>
        <time>2020-07-19T07:31:58Z</time>
      </trkpt>
      <trkpt lat="47.36228" lon="-1.01509">
        <ele>62.26</ele>
        <time>2020-07-19T07:31:59Z</time>
      </trkpt>
      <trkpt lat="47.3624" lon="-1.01506">
        <ele>59.965</ele>
        <time>2020-07-19T07:32:00Z</time>
      </trkpt>
      <trkpt lat="47.36248" lon="-1.01504">
        <ele>58.415</ele>
        <time>2020-07-19T07:32:01Z</time>
      </trkpt>
      <trkpt lat="47.36257" lon="-1.01497">
        <ele>56.897</ele>
        <time>2020-07-19T07:32:02Z</time>
      </trkpt>
      <trkpt lat="47.36267" lon="-1.01497">
        <ele>59.326</ele>
        <time>2020-07-19T07:32:03Z</time>
      </trkpt>
      <trkpt lat="47.36275" lon="-1.01497">
        <ele>59.64</ele>
        <time>2020-07-19T07:32:04Z</time>
      </trkpt>
      <trkpt lat="47.36284" lon="-1.01492">
        <ele>59.739</ele>
        <time>2020-07-19T07:32:05Z</time>
      </trkpt>
      <trkpt lat="47.36292" lon="-1.01491">
        <ele>60.431</ele>
        <time>2020-07-19T07:32:06Z</time>
      </trkpt>
      <trkpt lat="47.36304" lon="-1.01489">
        <ele>65.137</ele>
        <time>2020-07-19T07:32:07Z</time>
      </trkpt>
      <trkpt lat="47.36312" lon="-1.01487">
        <ele>65.685</ele>
        <time>2020-07-19T07:32:08Z</time>
      </trkpt>
      <trkpt lat="47.36319" lon="-1.01484">
        <ele>64.648</ele>
        <time>2020-07-19T07:32:09Z</time>
      </trkpt>
      <trkpt lat="47.36327" lon="-1.01479">
        <ele>65.017</ele>
        <time>2020-07-19T07:32:10Z</time>
      </trkpt>
      <trkpt lat="47.36335" lon="-1.01476">
        <ele>65.034</ele>
        <time>2020-07-19T07:32:11Z</time>
      </trkpt>
      <trkpt lat="47.36343" lon="-1.01474">
        <ele>64.938</ele>
        <time>2020-07-19T07:32:12Z</time>
      </trkpt>
      <trkpt lat="47.36351" lon="-1.01472">
        <ele>65.198</ele>
        <time>2020-07-19T07:32:13Z</time>
      </trkpt>
      <trkpt lat="47.36357" lon="-1.0147">
        <ele>66.115</ele>
        <time>2020-07-19T07:32:14Z</time>
      </trkpt>
      <trkpt lat="47.36363" lon="-1.01467">
        <ele>67.07</ele>
        <time>2020-07-19T07:32:15Z</time>
      </trkpt>
      <trkpt lat="47.36369" lon="-1.01462">
        <ele>67.113</ele>
        <time>2020-07-19T07:32:16Z</time>
      </trkpt>
      <trkpt lat="47.36374" lon="-1.01456">
        <ele>68.684</ele>
        <time>2020-07-19T07:32:17Z</time>
      </trkpt>
      <trkpt lat="47.3638" lon="-1.01452">
        <ele>73.175</ele>
        <time>2020-07-19T07:32:18Z</time>
      </trkpt>
      <trkpt lat="47.36383" lon="-1.01446">
        <ele>73.974</ele>
        <time>2020-07-19T07:32:19Z</time>
      </trkpt>
      <trkpt lat="47.36385" lon="-1.01439">
        <ele>75.251</ele>
        <time>2020-07-19T07:32:20Z</time>
      </trkpt>
      <trkpt lat="47.36385" lon="-1.01434">
        <ele>71.632</ele>
        <time>2020-07-19T07:32:21Z</time>
      </trkpt>
      <trkpt lat="47.36386" lon="-1.01429">
        <ele>72.809</ele>
        <time>2020-07-19T07:32:22Z</time>
      </trkpt>
      <trkpt lat="47.36389" lon="-1.01423">
        <ele>75.012</ele>
        <time>2020-07-19T07:32:23Z</time>
      </trkpt>
      <trkpt lat="47.3639" lon="-1.01418">
        <ele>74.013</ele>
        <time>2020-07-19T07:32:24Z</time>
      </trkpt>
      <trkpt lat="47.36393" lon="-1.01413">
        <ele>72.755</ele>
        <time>2020-07-19T07:32:25Z</time>
      </trkpt>
      <trkpt lat="47.36394" lon="-1.01409">
        <ele>72.046</ele>
        <time>2020-07-19T07:32:26Z</time>
      </trkpt>
      <trkpt lat="47.36398" lon="-1.01405">
        <ele>71.511</ele>
        <time>2020-07-19T07:32:27Z</time>
      </trkpt>
      <trkpt lat="47.364" lon="-1.01402">
        <ele>70.697</ele>
        <time>2020-07-19T07:32:28Z</time>
      </trkpt>
      <trkpt lat="47.36401" lon="-1.01398">
        <ele>71.881</ele>
        <time>2020-07-19T07:32:29Z</time>
      </trkpt>
      <trkpt lat="47.36402" lon="-1.01393">
        <ele>130.714</ele>
        <time>2020-07-19T07:32:30Z</time>
      </trkpt>
      <trkpt lat="47.36403" lon="-1.01389">
        <ele>112.732</ele>
        <time>2020-07-19T07:32:31Z</time>
      </trkpt>
      <trkpt lat="47.36403" lon="-1.01384">
        <ele>64.263</ele>
        <time>2020-07-19T07:32:32Z</time>
      </trkpt>
      <trkpt lat="47.36403" lon="-1.01379">
        <ele>65.601</ele>
        <time>2020-07-19T07:32:33Z</time>
      </trkpt>
      <trkpt lat="47.36403" lon="-1.01374">
        <ele>66.625</ele>
        <time>2020-07-19T07:32:34Z</time>
      </trkpt>
      <trkpt lat="47.36403" lon="-1.0137">
        <ele>65.605</ele>
        <time>2020-07-19T07:32:35Z</time>
      </trkpt>
      <trkpt lat="47.36403" lon="-1.01365">
        <ele>66.152</ele>
        <time>2020-07-19T07:32:36Z</time>
      </trkpt>
      <trkpt lat="47.36403" lon="-1.01361">
        <ele>65.613</ele>
        <time>2020-07-19T07:32:37Z</time>
      </trkpt>
      <trkpt lat="47.36402" lon="-1.01356">
        <ele>65.963</ele>
        <time>2020-07-19T07:32:38Z</time>
      </trkpt>
      <trkpt lat="47.36401" lon="-1.01352">
        <ele>67.232</ele>
        <time>2020-07-19T07:32:39Z</time>
      </trkpt>
      <trkpt lat="47.36401" lon="-1.01348">
        <ele>67.203</ele>
        <time>2020-07-19T07:32:40Z</time>
      </trkpt>
      <trkpt lat="47.364" lon="-1.01344">
        <ele>67.346</ele>
        <time>2020-07-19T07:32:41Z</time>
      </trkpt>
      <trkpt lat="47.36399" lon="-1.0134">
        <ele>66.872</ele>
        <time>2020-07-19T07:32:42Z</time>
      </trkpt>
      <trkpt lat="47.36398" lon="-1.01335">
        <ele>66.623</ele>
        <time>2020-07-19T07:32:43Z</time>
      </trkpt>
      <trkpt lat="47.36398" lon="-1.01331">
        <ele>66.774</ele>
        <time>2020-07-19T07:32:44Z</time>
      </trkpt>
      <trkpt lat="47.36397" lon="-1.01326">
        <ele>67.115</ele>
        <time>2020-07-19T07:32:45Z</time>
      </trkpt>
      <trkpt lat="47.36397" lon="-1.01323">
        <ele>66.126</ele>
        <time>2020-07-19T07:32:46Z</time>
      </trkpt>
      <trkpt lat="47.36396" lon="-1.01319">
        <ele>65.892</ele>
        <time>2020-07-19T07:32:47Z</time>
      </trkpt>
      <trkpt lat="47.36397" lon="-1.01315">
        <ele>65.727</ele>
        <time>2020-07-19T07:32:48Z</time>
      </trkpt>
      <trkpt lat="47.36397" lon="-1.01312">
        <ele>64.931</ele>
        <time>2020-07-19T07:32:49Z</time>
      </trkpt>
      <trkpt lat="47.36398" lon="-1.01309">
        <ele>66.08</ele>
        <time>2020-07-19T07:32:50Z</time>
      </trkpt>
      <trkpt lat="47.364" lon="-1.01305">
        <ele>66.875</ele>
        <time>2020-07-19T07:32:51Z</time>
      </trkpt>
      <trkpt lat="47.36401" lon="-1.01302">
        <ele>62.424</ele>
        <time>2020-07-19T07:32:52Z</time>
      </trkpt>
      <trkpt lat="47.36403" lon="-1.01298">
        <ele>63.035</ele>
        <time>2020-07-19T07:32:53Z</time>
      </trkpt>
      <trkpt lat="47.36404" lon="-1.01294">
        <ele>63.106</ele>
        <time>2020-07-19T07:32:54Z</time>
      </trkpt>
      <trkpt lat="47.36405" lon="-1.01289">
        <ele>62.616</ele>
        <time>2020-07-19T07:32:55Z</time>
      </trkpt>
      <trkpt lat="47.36405" lon="-1.01285">
        <ele>62.356</ele>
        <time>2020-07-19T07:32:56Z</time>
      </trkpt>
      <trkpt lat="47.36405" lon="-1.0128">
        <ele>62.172</ele>
        <time>2020-07-19T07:32:57Z</time>
      </trkpt>
      <trkpt lat="47.36405" lon="-1.01275">
        <ele>61.804</ele>
        <time>2020-07-19T07:32:58Z</time>
      </trkpt>
      <trkpt lat="47.36405" lon="-1.01271">
        <ele>61.97</ele>
        <time>2020-07-19T07:32:59Z</time>
      </trkpt>
      <trkpt lat="47.36404" lon="-1.01266">
        <ele>60.88</ele>
        <time>2020-07-19T07:33:00Z</time>
      </trkpt>
      <trkpt lat="47.36403" lon="-1.01261">
        <ele>61.161</ele>
        <time>2020-07-19T07:33:01Z</time>
      </trkpt>
      <trkpt lat="47.36403" lon="-1.01255">
        <ele>61.728</ele>
        <time>2020-07-19T07:33:02Z</time>
      </trkpt>
      <trkpt lat="47.36403" lon="-1.0125">
        <ele>61.251</ele>
        <time>2020-07-19T07:33:03Z</time>
      </trkpt>
      <trkpt lat="47.36402" lon="-1.01245">
        <ele>60.728</ele>
        <time>2020-07-19T07:33:04Z</time>
      </trkpt>
      <trkpt lat="47.36402" lon="-1.0124">
        <ele>60.52</ele>
        <time>2020-07-19T07:33:05Z</time>
      </trkpt>
      <trkpt lat="47.36402" lon="-1.01235">
        <ele>60.583</ele>
        <time>2020-07-19T07:33:06Z</time>
      </trkpt>
      <trkpt lat="47.36402" lon="-1.01231">
        <ele>60.351</ele>
        <time>2020-07-19T07:33:07Z</time>
      </trkpt>
      <trkpt lat="47.36403" lon="-1.01228">
        <ele>59.338</ele>
        <time>2020-07-19T07:33:08Z</time>
      </trkpt>
      <trkpt lat="47.36405" lon="-1.01226">
        <ele>59.518</ele>
        <time>2020-07-19T07:33:09Z</time>
      </trkpt>
      <trkpt lat="47.36408" lon="-1.01224">
        <ele>59.599</ele>
        <time>2020-07-19T07:33:10Z</time>
      </trkpt>
      <trkpt lat="47.36411" lon="-1.01223">
        <ele>59.645</ele>
        <time>2020-07-19T07:33:11Z</time>
      </trkpt>
      <trkpt lat="47.36414" lon="-1.01221">
        <ele>59.595</ele>
        <time>2020-07-19T07:33:12Z</time>
      </trkpt>
      <trkpt lat="47.36417" lon="-1.0122">
        <ele>58.856</ele>
        <time>2020-07-19T07:33:13Z</time>
      </trkpt>
      <trkpt lat="47.3642" lon="-1.0122">
        <ele>56.345</ele>
        <time>2020-07-19T07:33:14Z</time>
      </trkpt>
      <trkpt lat="47.36422" lon="-1.0122">
        <ele>57.05</ele>
        <time>2020-07-19T07:33:15Z</time>
      </trkpt>
      <trkpt lat="47.36423" lon="-1.0122">
        <ele>56.638</ele>
        <time>2020-07-19T07:33:16Z</time>
      </trkpt>
      <trkpt lat="47.36424" lon="-1.0122">
        <ele>57.618</ele>
        <time>2020-07-19T07:33:17Z</time>
      </trkpt>
      <trkpt lat="47.36425" lon="-1.01221">
        <ele>56.888</ele>
        <time>2020-07-19T07:33:18Z</time>
      </trkpt>
      <trkpt lat="47.36424" lon="-1.01221">
        <ele>56.344</ele>
        <time>2020-07-19T07:33:20Z</time>
      </trkpt>
      <trkpt lat="47.36424" lon="-1.01222">
        <ele>59.296</ele>
        <time>2020-07-19T07:33:21Z</time>
      </trkpt>
      <trkpt lat="47.36424" lon="-1.01222">
        <ele>58.657</ele>
        <time>2020-07-19T07:33:22Z</time>
      </trkpt>
      <trkpt lat="47.36424" lon="-1.01222">
        <ele>58.14</ele>
        <time>2020-07-19T07:33:23Z</time>
      </trkpt>
      <trkpt lat="47.36424" lon="-1.01222">
        <ele>57.708</ele>
        <time>2020-07-19T07:33:24Z</time>
      </trkpt>
      <trkpt lat="47.36424" lon="-1.01223">
        <ele>57.51</ele>
        <time>2020-07-19T07:33:25Z</time>
      </trkpt>
      <trkpt lat="47.36424" lon="-1.01223">
        <ele>57.161</ele>
        <time>2020-07-19T07:33:26Z</time>
      </trkpt>
      <trkpt lat="47.36424" lon="-1.01224">
        <ele>57.59</ele>
        <time>2020-07-19T07:33:27Z</time>
      </trkpt>
      <trkpt lat="47.36424" lon="-1.01224">
        <ele>57.381</ele>
        <time>2020-07-19T07:33:28Z</time>
      </trkpt>
      <trkpt lat="47.36423" lon="-1.01224">
        <ele>57.467</ele>
        <time>2020-07-19T07:33:29Z</time>
      </trkpt>
      <trkpt lat="47.36423" lon="-1.01224">
        <ele>57.698</ele>
        <time>2020-07-19T07:33:30Z</time>
      </trkpt>
      <trkpt lat="47.36423" lon="-1.01225">
        <ele>57.773</ele>
        <time>2020-07-19T07:33:31Z</time>
      </trkpt>
      <trkpt lat="47.36423" lon="-1.01225">
        <ele>57.856</ele>
        <time>2020-07-19T07:33:32Z</time>
      </trkpt>
      <trkpt lat="47.36423" lon="-1.01225">
        <ele>57.82</ele>
        <time>2020-07-19T07:33:33Z</time>
      </trkpt>
      <trkpt lat="47.36423" lon="-1.01225">
        <ele>57.892</ele>
        <time>2020-07-19T07:33:34Z</time>
      </trkpt>
      <trkpt lat="47.36423" lon="-1.01225">
        <ele>57.892</ele>
        <time>2020-07-19T07:33:35Z</time>
      </trkpt>
      <trkpt lat="47.36423" lon="-1.01225">
        <ele>57.867</ele>
        <time>2020-07-19T07:33:36Z</time>
      </trkpt>
      <trkpt lat="47.36423" lon="-1.01225">
        <ele>57.835</ele>
        <time>2020-07-19T07:33:37Z</time>
      </trkpt>
      <trkpt lat="47.36423" lon="-1.01225">
        <ele>57.798</ele>
        <time>2020-07-19T07:33:38Z</time>
      </trkpt>
      <trkpt lat="47.36423" lon="-1.01225">
        <ele>57.76</ele>
        <time>2020-07-19T07:33:39Z</time>
      </trkpt>
      <trkpt lat="47.36423" lon="-1.01225">
        <ele>57.733</ele>
        <time>2020-07-19T07:33:40Z</time>
      </trkpt>
      <trkpt lat="47.36423" lon="-1.01225">
        <ele>57.711</ele>
        <time>2020-07-19T07:33:41Z</time>
      </trkpt>
      <trkpt lat="47.36423" lon="-1.01225">
        <ele>57.702</ele>
        <time>2020-07-19T07:33:42Z</time>
      </trkpt>
      <trkpt lat="47.36423" lon="-1.01225">
        <ele>57.674</ele>
        <time>2020-07-19T07:33:43Z</time>
      </trkpt>
      <trkpt lat="47.36423" lon="-1.01225">
        <ele>57.676</ele>
        <time>2020-07-19T07:33:44Z</time>
      </trkpt>
      <trkpt lat="47.36423" lon="-1.01225">
        <ele>57.649</ele>
        <time>2020-07-19T07:33:45Z</time>
      </trkpt>
      <trkpt lat="47.36423" lon="-1.01225">
        <ele>57.658</ele>
        <time>2020-07-19T07:33:46Z</time>
      </trkpt>
      <trkpt lat="47.36423" lon="-1.01225">
        <ele>57.653</ele>
        <time>2020-07-19T07:33:47Z</time>
      </trkpt>
      <trkpt lat="47.36423" lon="-1.01225">
        <ele>57.654</ele>
        <time>2020-07-19T07:33:48Z</time>
      </trkpt>
      <trkpt lat="47.36423" lon="-1.01225">
        <ele>57.654</ele>
        <time>2020-07-19T07:33:49Z</time>
      </trkpt>
      <trkpt lat="47.36423" lon="-1.01225">
        <ele>57.658</ele>
        <time>2020-07-19T07:33:50Z</time>
      </trkpt>
      <trkpt lat="47.36423" lon="-1.01225">
        <ele>57.657</ele>
        <time>2020-07-19T07:33:51Z</time>
      </trkpt>
      <trkpt lat="47.36423" lon="-1.01225">
        <ele>57.65</ele>
        <time>2020-07-19T07:33:52Z</time>
      </trkpt>
      <trkpt lat="47.36423" lon="-1.01225">
        <ele>57.649</ele>
        <time>2020-07-19T07:33:53Z</time>
      </trkpt>
      <trkpt lat="47.36423" lon="-1.01225">
        <ele>57.646</ele>
        <time>2020-07-19T07:33:54Z</time>
      </trkpt>
      <trkpt lat="47.36423" lon="-1.01225">
        <ele>57.644</ele>
        <time>2020-07-19T07:33:55Z</time>
      </trkpt>
      <trkpt lat="47.36423" lon="-1.01225">
        <ele>57.636</ele>
        <time>2020-07-19T07:33:56Z</time>
      </trkpt>
      <trkpt lat="47.36423" lon="-1.01225">
        <ele>57.636</ele>
        <time>2020-07-19T07:33:57Z</time>
      </trkpt>
      <trkpt lat="47.36423" lon="-1.01225">
        <ele>57.628</ele>
        <time>2020-07-19T07:33:58Z</time>
      </trkpt>
      <trkpt lat="47.36423" lon="-1.01225">
        <ele>57.62</ele>
        <time>2020-07-19T07:33:59Z</time>
      </trkpt>
      <trkpt lat="47.36423" lon="-1.01225">
        <ele>57.609</ele>
        <time>2020-07-19T07:34:00Z</time>
      </trkpt>
      <trkpt lat="47.36423" lon="-1.01225">
        <ele>57.603</ele>
        <time>2020-07-19T07:34:01Z</time>
      </trkpt>
      <trkpt lat="47.36423" lon="-1.01225">
        <ele>57.62</ele>
        <time>2020-07-19T07:34:02Z</time>
      </trkpt>
      <trkpt lat="47.36423" lon="-1.01225">
        <ele>57.612</ele>
        <time>2020-07-19T07:34:03Z</time>
      </trkpt>
      <trkpt lat="47.36423" lon="-1.01225">
        <ele>57.611</ele>
        <time>2020-07-19T07:34:04Z</time>
      </trkpt>
      <trkpt lat="47.36423" lon="-1.01225">
        <ele>57.616</ele>
        <time>2020-07-19T07:34:05Z</time>
      </trkpt>
      <trkpt lat="47.36423" lon="-1.01225">
        <ele>57.615</ele>
        <time>2020-07-19T07:34:06Z</time>
      </trkpt>
      <trkpt lat="47.36423" lon="-1.01225">
        <ele>57.605</ele>
        <time>2020-07-19T07:34:07Z</time>
      </trkpt>
      <trkpt lat="47.36423" lon="-1.01225">
        <ele>57.596</ele>
        <time>2020-07-19T07:34:08Z</time>
      </trkpt>
      <trkpt lat="47.36423" lon="-1.01225">
        <ele>57.595</ele>
        <time>2020-07-19T07:34:09Z</time>
      </trkpt>
      <trkpt lat="47.36423" lon="-1.01225">
        <ele>57.589</ele>
        <time>2020-07-19T07:34:10Z</time>
      </trkpt>
      <trkpt lat="47.36423" lon="-1.01225">
        <ele>57.594</ele>
        <time>2020-07-19T07:34:11Z</time>
      </trkpt>
      <trkpt lat="47.36423" lon="-1.01225">
        <ele>57.592</ele>
        <time>2020-07-19T07:34:12Z</time>
      </trkpt>
      <trkpt lat="47.36423" lon="-1.01225">
        <ele>57.604</ele>
        <time>2020-07-19T07:34:13Z</time>
      </trkpt>
      <trkpt lat="47.36423" lon="-1.01225">
        <ele>57.604</ele>
        <time>2020-07-19T07:34:14Z</time>
      </trkpt>
      <trkpt lat="47.36423" lon="-1.01225">
        <ele>57.601</ele>
        <time>2020-07-19T07:34:15Z</time>
      </trkpt>
      <trkpt lat="47.36423" lon="-1.01225">
        <ele>57.605</ele>
        <time>2020-07-19T07:34:16Z</time>
      </trkpt>
      <trkpt lat="47.36423" lon="-1.01225">
        <ele>57.606</ele>
        <time>2020-07-19T07:34:17Z</time>
      </trkpt>
      <trkpt lat="47.36423" lon="-1.01225">
        <ele>57.607</ele>
        <time>2020-07-19T07:34:18Z</time>
      </trkpt>
      <trkpt lat="47.36423" lon="-1.01225">
        <ele>57.615</ele>
        <time>2020-07-19T07:34:19Z</time>
      </trkpt>
      <trkpt lat="47.36423" lon="-1.01225">
        <ele>57.602</ele>
        <time>2020-07-19T07:34:20Z</time>
      </trkpt>
      <trkpt lat="47.36423" lon="-1.01225">
        <ele>57.601</ele>
        <time>2020-07-19T07:34:21Z</time>
      </trkpt>
      <trkpt lat="47.36423" lon="-1.01225">
        <ele>57.602</ele>
        <time>2020-07-19T07:34:22Z</time>
      </trkpt>
      <trkpt lat="47.36396" lon="-1.01212">
        <ele>42.369</ele>
        <time>2020-07-19T07:35:40Z</time>
      </trkpt>
      <trkpt lat="47.36393" lon="-1.01205">
        <ele>42.461</ele>
        <time>2020-07-19T07:35:41Z</time>
      </trkpt>
      <trkpt lat="47.36391" lon="-1.01199">
        <ele>41.99</ele>
        <time>2020-07-19T07:35:42Z</time>
      </trkpt>
      <trkpt lat="47.3639" lon="-1.01194">
        <ele>41.356</ele>
        <time>2020-07-19T07:35:43Z</time>
      </trkpt>
      <trkpt lat="47.36389" lon="-1.01189">
        <ele>42.721</ele>
        <time>2020-07-19T07:35:44Z</time>
      </trkpt>
      <trkpt lat="47.36388" lon="-1.01183">
        <ele>44.092</ele>
        <time>2020-07-19T07:35:45Z</time>
      </trkpt>
      <trkpt lat="47.36386" lon="-1.01178">
        <ele>46.495</ele>
        <time>2020-07-19T07:35:46Z</time>
      </trkpt>
      <trkpt lat="47.36385" lon="-1.01172">
        <ele>47.368</ele>
        <time>2020-07-19T07:35:47Z</time>
      </trkpt>
      <trkpt lat="47.36384" lon="-1.01166">
        <ele>47.778</ele>
        <time>2020-07-19T07:35:48Z</time>
      </trkpt>
      <trkpt lat="47.36383" lon="-1.0116">
        <ele>48.895</ele>
        <time>2020-07-19T07:35:49Z</time>
      </trkpt>
      <trkpt lat="47.36381" lon="-1.01153">
        <ele>52.165</ele>
        <time>2020-07-19T07:35:50Z</time>
      </trkpt>
      <trkpt lat="47.3638" lon="-1.01146">
        <ele>51.3</ele>
        <time>2020-07-19T07:35:51Z</time>
      </trkpt>
      <trkpt lat="47.36379" lon="-1.01138">
        <ele>52.898</ele>
        <time>2020-07-19T07:35:52Z</time>
      </trkpt>
      <trkpt lat="47.36379" lon="-1.01132">
        <ele>53.142</ele>
        <time>2020-07-19T07:35:53Z</time>
      </trkpt>
      <trkpt lat="47.36377" lon="-1.01125">
        <ele>52.792</ele>
        <time>2020-07-19T07:35:54Z</time>
      </trkpt>
      <trkpt lat="47.36376" lon="-1.01118">
        <ele>53.472</ele>
        <time>2020-07-19T07:35:55Z</time>
      </trkpt>
      <trkpt lat="47.36375" lon="-1.01111">
        <ele>55.173</ele>
        <time>2020-07-19T07:35:56Z</time>
      </trkpt>
      <trkpt lat="47.36375" lon="-1.01104">
        <ele>55.345</ele>
        <time>2020-07-19T07:35:57Z</time>
      </trkpt>
      <trkpt lat="47.36374" lon="-1.01098">
        <ele>55.346</ele>
        <time>2020-07-19T07:35:58Z</time>
      </trkpt>
      <trkpt lat="47.36373" lon="-1.01091">
        <ele>55.315</ele>
        <time>2020-07-19T07:35:59Z</time>
      </trkpt>
      <trkpt lat="47.36373" lon="-1.01084">
        <ele>55.718</ele>
        <time>2020-07-19T07:36:00Z</time>
      </trkpt>
      <trkpt lat="47.36372" lon="-1.01078">
        <ele>54.854</ele>
        <time>2020-07-19T07:36:01Z</time>
      </trkpt>
      <trkpt lat="47.36371" lon="-1.01071">
        <ele>55.084</ele>
        <time>2020-07-19T07:36:02Z</time>
      </trkpt>
      <trkpt lat="47.36371" lon="-1.01065">
        <ele>55.11</ele>
        <time>2020-07-19T07:36:03Z</time>
      </trkpt>
      <trkpt lat="47.3637" lon="-1.0106">
        <ele>56.319</ele>
        <time>2020-07-19T07:36:04Z</time>
      </trkpt>
      <trkpt lat="47.3637" lon="-1.01053">
        <ele>108.949</ele>
        <time>2020-07-19T07:36:05Z</time>
      </trkpt>
      <trkpt lat="47.36369" lon="-1.01047">
        <ele>90.221</ele>
        <time>2020-07-19T07:36:06Z</time>
      </trkpt>
      <trkpt lat="47.36369" lon="-1.01041">
        <ele>81.694</ele>
        <time>2020-07-19T07:36:07Z</time>
      </trkpt>
      <trkpt lat="47.36368" lon="-1.01034">
        <ele>78.902</ele>
        <time>2020-07-19T07:36:08Z</time>
      </trkpt>
      <trkpt lat="47.36368" lon="-1.01028">
        <ele>77.429</ele>
        <time>2020-07-19T07:36:09Z</time>
      </trkpt>
      <trkpt lat="47.36367" lon="-1.01022">
        <ele>73.775</ele>
        <time>2020-07-19T07:36:10Z</time>
      </trkpt>
      <trkpt lat="47.36367" lon="-1.01015">
        <ele>72.881</ele>
        <time>2020-07-19T07:36:11Z</time>
      </trkpt>
      <trkpt lat="47.36367" lon="-1.01008">
        <ele>70.031</ele>
        <time>2020-07-19T07:36:12Z</time>
      </trkpt>
      <trkpt lat="47.36367" lon="-1.01002">
        <ele>67.54</ele>
        <time>2020-07-19T07:36:13Z</time>
      </trkpt>
      <trkpt lat="47.36367" lon="-1.00995">
        <ele>66.086</ele>
        <time>2020-07-19T07:36:14Z</time>
      </trkpt>
      <trkpt lat="47.36367" lon="-1.00988">
        <ele>65.301</ele>
        <time>2020-07-19T07:36:15Z</time>
      </trkpt>
      <trkpt lat="47.36367" lon="-1.00982">
        <ele>63.031</ele>
        <time>2020-07-19T07:36:16Z</time>
      </trkpt>
      <trkpt lat="47.36366" lon="-1.00976">
        <ele>63.085</ele>
        <time>2020-07-19T07:36:17Z</time>
      </trkpt>
      <trkpt lat="47.36365" lon="-1.0097">
        <ele>63.323</ele>
        <time>2020-07-19T07:36:18Z</time>
      </trkpt>
      <trkpt lat="47.36365" lon="-1.00964">
        <ele>62.844</ele>
        <time>2020-07-19T07:36:19Z</time>
      </trkpt>
      <trkpt lat="47.36364" lon="-1.00958">
        <ele>63.312</ele>
        <time>2020-07-19T07:36:20Z</time>
      </trkpt>
      <trkpt lat="47.36364" lon="-1.00953">
        <ele>63.02</ele>
        <time>2020-07-19T07:36:21Z</time>
      </trkpt>
      <trkpt lat="47.36363" lon="-1.00947">
        <ele>62.899</ele>
        <time>2020-07-19T07:36:22Z</time>
      </trkpt>
      <trkpt lat="47.36362" lon="-1.00941">
        <ele>62.653</ele>
        <time>2020-07-19T07:36:23Z</time>
      </trkpt>
      <trkpt lat="47.36362" lon="-1.00936">
        <ele>62.018</ele>
        <time>2020-07-19T07:36:24Z</time>
      </trkpt>
      <trkpt lat="47.36361" lon="-1.0093">
        <ele>63.074</ele>
        <time>2020-07-19T07:36:25Z</time>
      </trkpt>
      <trkpt lat="47.36361" lon="-1.00925">
        <ele>62.089</ele>
        <time>2020-07-19T07:36:26Z</time>
      </trkpt>
      <trkpt lat="47.3636" lon="-1.00919">
        <ele>61.318</ele>
        <time>2020-07-19T07:36:27Z</time>
      </trkpt>
      <trkpt lat="47.3636" lon="-1.00914">
        <ele>59.879</ele>
        <time>2020-07-19T07:36:28Z</time>
      </trkpt>
      <trkpt lat="47.36359" lon="-1.00908">
        <ele>59.161</ele>
        <time>2020-07-19T07:36:29Z</time>
      </trkpt>
      <trkpt lat="47.36359" lon="-1.00902">
        <ele>58.466</ele>
        <time>2020-07-19T07:36:30Z</time>
      </trkpt>
      <trkpt lat="47.36358" lon="-1.00895">
        <ele>59.177</ele>
        <time>2020-07-19T07:36:31Z</time>
      </trkpt>
      <trkpt lat="47.36358" lon="-1.00889">
        <ele>59.358</ele>
        <time>2020-07-19T07:36:32Z</time>
      </trkpt>
      <trkpt lat="47.36358" lon="-1.00882">
        <ele>59.414</ele>
        <time>2020-07-19T07:36:33Z</time>
      </trkpt>
      <trkpt lat="47.36358" lon="-1.00875">
        <ele>59.372</ele>
        <time>2020-07-19T07:36:34Z</time>
      </trkpt>
      <trkpt lat="47.36357" lon="-1.00868">
        <ele>58.232</ele>
        <time>2020-07-19T07:36:35Z</time>
      </trkpt>
      <trkpt lat="47.36356" lon="-1.00861">
        <ele>58.606</ele>
        <time>2020-07-19T07:36:36Z</time>
      </trkpt>
      <trkpt lat="47.36355" lon="-1.00854">
        <ele>58.778</ele>
        <time>2020-07-19T07:36:37Z</time>
      </trkpt>
      <trkpt lat="47.36354" lon="-1.00846">
        <ele>60.041</ele>
        <time>2020-07-19T07:36:38Z</time>
      </trkpt>
      <trkpt lat="47.36353" lon="-1.0084">
        <ele>60.273</ele>
        <time>2020-07-19T07:36:39Z</time>
      </trkpt>
      <trkpt lat="47.36351" lon="-1.00833">
        <ele>59.653</ele>
        <time>2020-07-19T07:36:40Z</time>
      </trkpt>
      <trkpt lat="47.3635" lon="-1.00825">
        <ele>59.766</ele>
        <time>2020-07-19T07:36:41Z</time>
      </trkpt>
      <trkpt lat="47.36348" lon="-1.00818">
        <ele>59.699</ele>
        <time>2020-07-19T07:36:42Z</time>
      </trkpt>
      <trkpt lat="47.36347" lon="-1.0081">
        <ele>60.806</ele>
        <time>2020-07-19T07:36:43Z</time>
      </trkpt>
      <trkpt lat="47.36345" lon="-1.00801">
        <ele>61.435</ele>
        <time>2020-07-19T07:36:44Z</time>
      </trkpt>
      <trkpt lat="47.36344" lon="-1.00793">
        <ele>61.176</ele>
        <time>2020-07-19T07:36:45Z</time>
      </trkpt>
      <trkpt lat="47.36341" lon="-1.00785">
        <ele>60.807</ele>
        <time>2020-07-19T07:36:46Z</time>
      </trkpt>
      <trkpt lat="47.36338" lon="-1.00779">
        <ele>61.751</ele>
        <time>2020-07-19T07:36:47Z</time>
      </trkpt>
      <trkpt lat="47.36335" lon="-1.00773">
        <ele>61.856</ele>
        <time>2020-07-19T07:36:48Z</time>
      </trkpt>
      <trkpt lat="47.36333" lon="-1.00771">
        <ele>61.424</ele>
        <time>2020-07-19T07:36:49Z</time>
      </trkpt>
      <trkpt lat="47.36332" lon="-1.00766">
        <ele>61.136</ele>
        <time>2020-07-19T07:36:50Z</time>
      </trkpt>
      <trkpt lat="47.3633" lon="-1.00763">
        <ele>60.461</ele>
        <time>2020-07-19T07:36:51Z</time>
      </trkpt>
      <trkpt lat="47.36328" lon="-1.00759">
        <ele>60.748</ele>
        <time>2020-07-19T07:36:52Z</time>
      </trkpt>
      <trkpt lat="47.36327" lon="-1.00753">
        <ele>60.045</ele>
        <time>2020-07-19T07:36:53Z</time>
      </trkpt>
      <trkpt lat="47.36327" lon="-1.00747">
        <ele>61.174</ele>
        <time>2020-07-19T07:36:54Z</time>
      </trkpt>
      <trkpt lat="47.36325" lon="-1.00741">
        <ele>60.888</ele>
        <time>2020-07-19T07:36:55Z</time>
      </trkpt>
      <trkpt lat="47.36324" lon="-1.00737">
        <ele>60.828</ele>
        <time>2020-07-19T07:36:56Z</time>
      </trkpt>
      <trkpt lat="47.36324" lon="-1.00731">
        <ele>60.901</ele>
        <time>2020-07-19T07:36:57Z</time>
      </trkpt>
      <trkpt lat="47.36322" lon="-1.00725">
        <ele>61.767</ele>
        <time>2020-07-19T07:36:58Z</time>
      </trkpt>
      <trkpt lat="47.36321" lon="-1.00721">
        <ele>61.735</ele>
        <time>2020-07-19T07:36:59Z</time>
      </trkpt>
      <trkpt lat="47.3632" lon="-1.00716">
        <ele>62.212</ele>
        <time>2020-07-19T07:37:00Z</time>
      </trkpt>
      <trkpt lat="47.3632" lon="-1.00712">
        <ele>61.579</ele>
        <time>2020-07-19T07:37:01Z</time>
      </trkpt>
      <trkpt lat="47.36319" lon="-1.00708">
        <ele>62.518</ele>
        <time>2020-07-19T07:37:02Z</time>
      </trkpt>
      <trkpt lat="47.36318" lon="-1.00703">
        <ele>62.715</ele>
        <time>2020-07-19T07:37:03Z</time>
      </trkpt>
      <trkpt lat="47.36317" lon="-1.00699">
        <ele>62.635</ele>
        <time>2020-07-19T07:37:04Z</time>
      </trkpt>
      <trkpt lat="47.36317" lon="-1.00694">
        <ele>84.302</ele>
        <time>2020-07-19T07:37:05Z</time>
      </trkpt>
      <trkpt lat="47.36316" lon="-1.00689">
        <ele>76.211</ele>
        <time>2020-07-19T07:37:06Z</time>
      </trkpt>
      <trkpt lat="47.36315" lon="-1.00684">
        <ele>72.487</ele>
        <time>2020-07-19T07:37:07Z</time>
      </trkpt>
      <trkpt lat="47.36314" lon="-1.00678">
        <ele>69.924</ele>
        <time>2020-07-19T07:37:08Z</time>
      </trkpt>
      <trkpt lat="47.36313" lon="-1.00673">
        <ele>68.896</ele>
        <time>2020-07-19T07:37:09Z</time>
      </trkpt>
      <trkpt lat="47.36312" lon="-1.00668">
        <ele>67.365</ele>
        <time>2020-07-19T07:37:10Z</time>
      </trkpt>
      <trkpt lat="47.36311" lon="-1.00663">
        <ele>67.648</ele>
        <time>2020-07-19T07:37:11Z</time>
      </trkpt>
      <trkpt lat="47.3631" lon="-1.00658">
        <ele>65.661</ele>
        <time>2020-07-19T07:37:12Z</time>
      </trkpt>
      <trkpt lat="47.36309" lon="-1.00652">
        <ele>64.286</ele>
        <time>2020-07-19T07:37:13Z</time>
      </trkpt>
      <trkpt lat="47.36308" lon="-1.00647">
        <ele>63.285</ele>
        <time>2020-07-19T07:37:14Z</time>
      </trkpt>
      <trkpt lat="47.36308" lon="-1.00641">
        <ele>62.657</ele>
        <time>2020-07-19T07:37:15Z</time>
      </trkpt>
      <trkpt lat="47.36307" lon="-1.00636">
        <ele>62.369</ele>
        <time>2020-07-19T07:37:16Z</time>
      </trkpt>
      <trkpt lat="47.36306" lon="-1.00631">
        <ele>61.968</ele>
        <time>2020-07-19T07:37:17Z</time>
      </trkpt>
      <trkpt lat="47.36306" lon="-1.00626">
        <ele>61.017</ele>
        <time>2020-07-19T07:37:18Z</time>
      </trkpt>
      <trkpt lat="47.36305" lon="-1.0062">
        <ele>60.049</ele>
        <time>2020-07-19T07:37:19Z</time>
      </trkpt>
      <trkpt lat="47.36305" lon="-1.00615">
        <ele>59.55</ele>
        <time>2020-07-19T07:37:20Z</time>
      </trkpt>
      <trkpt lat="47.36304" lon="-1.00609">
        <ele>59.002</ele>
        <time>2020-07-19T07:37:21Z</time>
      </trkpt>
      <trkpt lat="47.36304" lon="-1.00603">
        <ele>59.301</ele>
        <time>2020-07-19T07:37:22Z</time>
      </trkpt>
      <trkpt lat="47.36303" lon="-1.00597">
        <ele>58.624</ele>
        <time>2020-07-19T07:37:23Z</time>
      </trkpt>
      <trkpt lat="47.36303" lon="-1.0059">
        <ele>59.14</ele>
        <time>2020-07-19T07:37:24Z</time>
      </trkpt>
      <trkpt lat="47.36302" lon="-1.00582">
        <ele>59.039</ele>
        <time>2020-07-19T07:37:25Z</time>
      </trkpt>
      <trkpt lat="47.36302" lon="-1.00574">
        <ele>59.069</ele>
        <time>2020-07-19T07:37:26Z</time>
      </trkpt>
      <trkpt lat="47.36302" lon="-1.00568">
        <ele>58.581</ele>
        <time>2020-07-19T07:37:27Z</time>
      </trkpt>
      <trkpt lat="47.36302" lon="-1.0056">
        <ele>58.809</ele>
        <time>2020-07-19T07:37:28Z</time>
      </trkpt>
      <trkpt lat="47.36302" lon="-1.00551">
        <ele>58.557</ele>
        <time>2020-07-19T07:37:29Z</time>
      </trkpt>
      <trkpt lat="47.36302" lon="-1.00543">
        <ele>58.416</ele>
        <time>2020-07-19T07:37:30Z</time>
      </trkpt>
      <trkpt lat="47.36301" lon="-1.00535">
        <ele>57.315</ele>
        <time>2020-07-19T07:37:31Z</time>
      </trkpt>
      <trkpt lat="47.363" lon="-1.00527">
        <ele>56.528</ele>
        <time>2020-07-19T07:37:32Z</time>
      </trkpt>
      <trkpt lat="47.36299" lon="-1.00522">
        <ele>56.815</ele>
        <time>2020-07-19T07:37:33Z</time>
      </trkpt>
      <trkpt lat="47.36298" lon="-1.00515">
        <ele>57.071</ele>
        <time>2020-07-19T07:37:34Z</time>
      </trkpt>
      <trkpt lat="47.36296" lon="-1.00508">
        <ele>125.272</ele>
        <time>2020-07-19T07:37:35Z</time>
      </trkpt>
      <trkpt lat="47.36295" lon="-1.00502">
        <ele>101.345</ele>
        <time>2020-07-19T07:37:36Z</time>
      </trkpt>
      <trkpt lat="47.36294" lon="-1.00496">
        <ele>87.092</ele>
        <time>2020-07-19T07:37:37Z</time>
      </trkpt>
      <trkpt lat="47.36293" lon="-1.00491">
        <ele>81.555</ele>
        <time>2020-07-19T07:37:38Z</time>
      </trkpt>
      <trkpt lat="47.36292" lon="-1.00486">
        <ele>78.32</ele>
        <time>2020-07-19T07:37:39Z</time>
      </trkpt>
      <trkpt lat="47.36291" lon="-1.00482">
        <ele>75.018</ele>
        <time>2020-07-19T07:37:40Z</time>
      </trkpt>
      <trkpt lat="47.3629" lon="-1.00478">
        <ele>71.386</ele>
        <time>2020-07-19T07:37:41Z</time>
      </trkpt>
      <trkpt lat="47.36289" lon="-1.00473">
        <ele>69.986</ele>
        <time>2020-07-19T07:37:42Z</time>
      </trkpt>
      <trkpt lat="47.36288" lon="-1.0047">
        <ele>68.303</ele>
        <time>2020-07-19T07:37:43Z</time>
      </trkpt>
      <trkpt lat="47.36288" lon="-1.00466">
        <ele>66.337</ele>
        <time>2020-07-19T07:37:44Z</time>
      </trkpt>
      <trkpt lat="47.36288" lon="-1.00461">
        <ele>65.746</ele>
        <time>2020-07-19T07:37:45Z</time>
      </trkpt>
      <trkpt lat="47.36288" lon="-1.00456">
        <ele>66.478</ele>
        <time>2020-07-19T07:37:46Z</time>
      </trkpt>
      <trkpt lat="47.36287" lon="-1.0045">
        <ele>66.215</ele>
        <time>2020-07-19T07:37:47Z</time>
      </trkpt>
      <trkpt lat="47.36288" lon="-1.00445">
        <ele>65.459</ele>
        <time>2020-07-19T07:37:48Z</time>
      </trkpt>
      <trkpt lat="47.36288" lon="-1.00439">
        <ele>66.666</ele>
        <time>2020-07-19T07:37:49Z</time>
      </trkpt>
      <trkpt lat="47.3629" lon="-1.00433">
        <ele>68.424</ele>
        <time>2020-07-19T07:37:50Z</time>
      </trkpt>
      <trkpt lat="47.36291" lon="-1.00428">
        <ele>67.998</ele>
        <time>2020-07-19T07:37:51Z</time>
      </trkpt>
      <trkpt lat="47.36293" lon="-1.00422">
        <ele>66.286</ele>
        <time>2020-07-19T07:37:52Z</time>
      </trkpt>
      <trkpt lat="47.36298" lon="-1.00417">
        <ele>65.664</ele>
        <time>2020-07-19T07:37:53Z</time>
      </trkpt>
      <trkpt lat="47.36299" lon="-1.00411">
        <ele>64.238</ele>
        <time>2020-07-19T07:37:54Z</time>
      </trkpt>
      <trkpt lat="47.36301" lon="-1.00406">
        <ele>127.979</ele>
        <time>2020-07-19T07:37:55Z</time>
      </trkpt>
      <trkpt lat="47.36304" lon="-1.004">
        <ele>110.354</ele>
        <time>2020-07-19T07:37:56Z</time>
      </trkpt>
      <trkpt lat="47.36306" lon="-1.00394">
        <ele>96.259</ele>
        <time>2020-07-19T07:37:57Z</time>
      </trkpt>
      <trkpt lat="47.36308" lon="-1.00389">
        <ele>96.579</ele>
        <time>2020-07-19T07:37:58Z</time>
      </trkpt>
      <trkpt lat="47.3631" lon="-1.00383">
        <ele>86.369</ele>
        <time>2020-07-19T07:37:59Z</time>
      </trkpt>
      <trkpt lat="47.36313" lon="-1.00377">
        <ele>80.299</ele>
        <time>2020-07-19T07:38:00Z</time>
      </trkpt>
      <trkpt lat="47.36316" lon="-1.0037">
        <ele>75.563</ele>
        <time>2020-07-19T07:38:01Z</time>
      </trkpt>
      <trkpt lat="47.36318" lon="-1.00364">
        <ele>73.469</ele>
        <time>2020-07-19T07:38:02Z</time>
      </trkpt>
      <trkpt lat="47.36321" lon="-1.00358">
        <ele>71.273</ele>
        <time>2020-07-19T07:38:03Z</time>
      </trkpt>
      <trkpt lat="47.36322" lon="-1.00352">
        <ele>69.634</ele>
        <time>2020-07-19T07:38:04Z</time>
      </trkpt>
      <trkpt lat="47.36324" lon="-1.00347">
        <ele>67.248</ele>
        <time>2020-07-19T07:38:05Z</time>
      </trkpt>
      <trkpt lat="47.36327" lon="-1.00342">
        <ele>66.237</ele>
        <time>2020-07-19T07:38:06Z</time>
      </trkpt>
      <trkpt lat="47.3633" lon="-1.00336">
        <ele>64.657</ele>
        <time>2020-07-19T07:38:07Z</time>
      </trkpt>
      <trkpt lat="47.36332" lon="-1.00329">
        <ele>63.61</ele>
        <time>2020-07-19T07:38:08Z</time>
      </trkpt>
      <trkpt lat="47.36334" lon="-1.00323">
        <ele>63.44</ele>
        <time>2020-07-19T07:38:09Z</time>
      </trkpt>
      <trkpt lat="47.36337" lon="-1.00317">
        <ele>61.449</ele>
        <time>2020-07-19T07:38:10Z</time>
      </trkpt>
      <trkpt lat="47.3634" lon="-1.00311">
        <ele>61.569</ele>
        <time>2020-07-19T07:38:11Z</time>
      </trkpt>
      <trkpt lat="47.36343" lon="-1.00305">
        <ele>60.048</ele>
        <time>2020-07-19T07:38:12Z</time>
      </trkpt>
      <trkpt lat="47.36345" lon="-1.00298">
        <ele>60.909</ele>
        <time>2020-07-19T07:38:13Z</time>
      </trkpt>
      <trkpt lat="47.36348" lon="-1.00291">
        <ele>61.661</ele>
        <time>2020-07-19T07:38:14Z</time>
      </trkpt>
      <trkpt lat="47.3635" lon="-1.00285">
        <ele>61.706</ele>
        <time>2020-07-19T07:38:15Z</time>
      </trkpt>
      <trkpt lat="47.36353" lon="-1.00279">
        <ele>62.364</ele>
        <time>2020-07-19T07:38:16Z</time>
      </trkpt>
      <trkpt lat="47.36357" lon="-1.00271">
        <ele>60.928</ele>
        <time>2020-07-19T07:38:17Z</time>
      </trkpt>
      <trkpt lat="47.36359" lon="-1.00264">
        <ele>61.25</ele>
        <time>2020-07-19T07:38:18Z</time>
      </trkpt>
      <trkpt lat="47.36361" lon="-1.00258">
        <ele>61.48</ele>
        <time>2020-07-19T07:38:19Z</time>
      </trkpt>
      <trkpt lat="47.36365" lon="-1.00251">
        <ele>62.807</ele>
        <time>2020-07-19T07:38:20Z</time>
      </trkpt>
      <trkpt lat="47.36368" lon="-1.00243">
        <ele>63.515</ele>
        <time>2020-07-19T07:38:21Z</time>
      </trkpt>
      <trkpt lat="47.36371" lon="-1.00237">
        <ele>64.172</ele>
        <time>2020-07-19T07:38:22Z</time>
      </trkpt>
      <trkpt lat="47.36374" lon="-1.0023">
        <ele>64.947</ele>
        <time>2020-07-19T07:38:23Z</time>
      </trkpt>
      <trkpt lat="47.36379" lon="-1.00223">
        <ele>66.772</ele>
        <time>2020-07-19T07:38:24Z</time>
      </trkpt>
      <trkpt lat="47.3638" lon="-1.00217">
        <ele>65.847</ele>
        <time>2020-07-19T07:38:25Z</time>
      </trkpt>
      <trkpt lat="47.36383" lon="-1.0021">
        <ele>65.521</ele>
        <time>2020-07-19T07:38:26Z</time>
      </trkpt>
      <trkpt lat="47.36385" lon="-1.00203">
        <ele>65.806</ele>
        <time>2020-07-19T07:38:27Z</time>
      </trkpt>
      <trkpt lat="47.36389" lon="-1.00196">
        <ele>65.869</ele>
        <time>2020-07-19T07:38:28Z</time>
      </trkpt>
      <trkpt lat="47.36392" lon="-1.00189">
        <ele>66.315</ele>
        <time>2020-07-19T07:38:29Z</time>
      </trkpt>
      <trkpt lat="47.36395" lon="-1.00182">
        <ele>66.459</ele>
        <time>2020-07-19T07:38:30Z</time>
      </trkpt>
      <trkpt lat="47.36397" lon="-1.00176">
        <ele>66.408</ele>
        <time>2020-07-19T07:38:31Z</time>
      </trkpt>
      <trkpt lat="47.364" lon="-1.00169">
        <ele>65.054</ele>
        <time>2020-07-19T07:38:32Z</time>
      </trkpt>
      <trkpt lat="47.36403" lon="-1.00163">
        <ele>64.649</ele>
        <time>2020-07-19T07:38:33Z</time>
      </trkpt>
      <trkpt lat="47.36406" lon="-1.00156">
        <ele>63.885</ele>
        <time>2020-07-19T07:38:34Z</time>
      </trkpt>
      <trkpt lat="47.36409" lon="-1.0015">
        <ele>62.842</ele>
        <time>2020-07-19T07:38:35Z</time>
      </trkpt>
      <trkpt lat="47.36412" lon="-1.00142">
        <ele>63.106</ele>
        <time>2020-07-19T07:38:36Z</time>
      </trkpt>
      <trkpt lat="47.36415" lon="-1.00135">
        <ele>63.508</ele>
        <time>2020-07-19T07:38:37Z</time>
      </trkpt>
      <trkpt lat="47.36418" lon="-1.00128">
        <ele>64.106</ele>
        <time>2020-07-19T07:38:38Z</time>
      </trkpt>
      <trkpt lat="47.3642" lon="-1.00123">
        <ele>65.151</ele>
        <time>2020-07-19T07:38:39Z</time>
      </trkpt>
      <trkpt lat="47.36423" lon="-1.00118">
        <ele>63.961</ele>
        <time>2020-07-19T07:38:40Z</time>
      </trkpt>
      <trkpt lat="47.36425" lon="-1.00111">
        <ele>64.076</ele>
        <time>2020-07-19T07:38:41Z</time>
      </trkpt>
      <trkpt lat="47.36427" lon="-1.00104">
        <ele>63.904</ele>
        <time>2020-07-19T07:38:42Z</time>
      </trkpt>
      <trkpt lat="47.36429" lon="-1.00099">
        <ele>62.879</ele>
        <time>2020-07-19T07:38:43Z</time>
      </trkpt>
      <trkpt lat="47.36432" lon="-1.00093">
        <ele>62.659</ele>
        <time>2020-07-19T07:38:44Z</time>
      </trkpt>
      <trkpt lat="47.36434" lon="-1.00088">
        <ele>62.286</ele>
        <time>2020-07-19T07:38:45Z</time>
      </trkpt>
      <trkpt lat="47.36436" lon="-1.00082">
        <ele>62.332</ele>
        <time>2020-07-19T07:38:46Z</time>
      </trkpt>
      <trkpt lat="47.36438" lon="-1.00077">
        <ele>61.748</ele>
        <time>2020-07-19T07:38:47Z</time>
      </trkpt>
      <trkpt lat="47.3644" lon="-1.00073">
        <ele>60.887</ele>
        <time>2020-07-19T07:38:48Z</time>
      </trkpt>
      <trkpt lat="47.36442" lon="-1.00068">
        <ele>60.804</ele>
        <time>2020-07-19T07:38:49Z</time>
      </trkpt>
      <trkpt lat="47.36445" lon="-1.00062">
        <ele>60.752</ele>
        <time>2020-07-19T07:38:50Z</time>
      </trkpt>
      <trkpt lat="47.36447" lon="-1.00056">
        <ele>60.714</ele>
        <time>2020-07-19T07:38:51Z</time>
      </trkpt>
      <trkpt lat="47.3645" lon="-1.00051">
        <ele>60.421</ele>
        <time>2020-07-19T07:38:52Z</time>
      </trkpt>
      <trkpt lat="47.36452" lon="-1.00045">
        <ele>59.81</ele>
        <time>2020-07-19T07:38:53Z</time>
      </trkpt>
      <trkpt lat="47.36455" lon="-1.00038">
        <ele>59.522</ele>
        <time>2020-07-19T07:38:54Z</time>
      </trkpt>
      <trkpt lat="47.36458" lon="-1.00032">
        <ele>58.36</ele>
        <time>2020-07-19T07:38:55Z</time>
      </trkpt>
      <trkpt lat="47.3646" lon="-1.00025">
        <ele>58.46</ele>
        <time>2020-07-19T07:38:56Z</time>
      </trkpt>
      <trkpt lat="47.36461" lon="-1.00018">
        <ele>57.985</ele>
        <time>2020-07-19T07:38:57Z</time>
      </trkpt>
      <trkpt lat="47.36464" lon="-1.00012">
        <ele>58.415</ele>
        <time>2020-07-19T07:38:58Z</time>
      </trkpt>
      <trkpt lat="47.36467" lon="-1.00005">
        <ele>59.402</ele>
        <time>2020-07-19T07:38:59Z</time>
      </trkpt>
      <trkpt lat="47.36469" lon="-0.99999">
        <ele>59.509</ele>
        <time>2020-07-19T07:39:00Z</time>
      </trkpt>
      <trkpt lat="47.36472" lon="-0.99993">
        <ele>59.512</ele>
        <time>2020-07-19T07:39:01Z</time>
      </trkpt>
      <trkpt lat="47.36475" lon="-0.99986">
        <ele>59.484</ele>
        <time>2020-07-19T07:39:02Z</time>
      </trkpt>
      <trkpt lat="47.36478" lon="-0.9998">
        <ele>59.238</ele>
        <time>2020-07-19T07:39:03Z</time>
      </trkpt>
      <trkpt lat="47.36481" lon="-0.99973">
        <ele>59.384</ele>
        <time>2020-07-19T07:39:04Z</time>
      </trkpt>
      <trkpt lat="47.36484" lon="-0.99967">
        <ele>59.812</ele>
        <time>2020-07-19T07:39:05Z</time>
      </trkpt>
      <trkpt lat="47.36485" lon="-0.99961">
        <ele>59.452</ele>
        <time>2020-07-19T07:39:06Z</time>
      </trkpt>
      <trkpt lat="47.36487" lon="-0.99955">
        <ele>60.029</ele>
        <time>2020-07-19T07:39:07Z</time>
      </trkpt>
      <trkpt lat="47.3649" lon="-0.99947">
        <ele>60.079</ele>
        <time>2020-07-19T07:39:08Z</time>
      </trkpt>
      <trkpt lat="47.36492" lon="-0.99941">
        <ele>61.101</ele>
        <time>2020-07-19T07:39:09Z</time>
      </trkpt>
      <trkpt lat="47.36495" lon="-0.99934">
        <ele>60.029</ele>
        <time>2020-07-19T07:39:10Z</time>
      </trkpt>
      <trkpt lat="47.36497" lon="-0.99927">
        <ele>59.76</ele>
        <time>2020-07-19T07:39:11Z</time>
      </trkpt>
      <trkpt lat="47.365" lon="-0.9992">
        <ele>59.654</ele>
        <time>2020-07-19T07:39:12Z</time>
      </trkpt>
      <trkpt lat="47.36503" lon="-0.99913">
        <ele>60.415</ele>
        <time>2020-07-19T07:39:13Z</time>
      </trkpt>
      <trkpt lat="47.36505" lon="-0.99906">
        <ele>60.969</ele>
        <time>2020-07-19T07:39:14Z</time>
      </trkpt>
      <trkpt lat="47.36508" lon="-0.99899">
        <ele>60.475</ele>
        <time>2020-07-19T07:39:15Z</time>
      </trkpt>
      <trkpt lat="47.36511" lon="-0.99892">
        <ele>60.277</ele>
        <time>2020-07-19T07:39:16Z</time>
      </trkpt>
      <trkpt lat="47.36515" lon="-0.99884">
        <ele>61.432</ele>
        <time>2020-07-19T07:39:17Z</time>
      </trkpt>
      <trkpt lat="47.36517" lon="-0.99877">
        <ele>60.375</ele>
        <time>2020-07-19T07:39:18Z</time>
      </trkpt>
      <trkpt lat="47.36519" lon="-0.9987">
        <ele>59.65</ele>
        <time>2020-07-19T07:39:19Z</time>
      </trkpt>
      <trkpt lat="47.36521" lon="-0.99862">
        <ele>60.102</ele>
        <time>2020-07-19T07:39:20Z</time>
      </trkpt>
      <trkpt lat="47.36524" lon="-0.99855">
        <ele>60.804</ele>
        <time>2020-07-19T07:39:21Z</time>
      </trkpt>
      <trkpt lat="47.36526" lon="-0.99848">
        <ele>61.875</ele>
        <time>2020-07-19T07:39:22Z</time>
      </trkpt>
      <trkpt lat="47.36529" lon="-0.99842">
        <ele>60.586</ele>
        <time>2020-07-19T07:39:23Z</time>
      </trkpt>
      <trkpt lat="47.36531" lon="-0.99834">
        <ele>61.184</ele>
        <time>2020-07-19T07:39:24Z</time>
      </trkpt>
      <trkpt lat="47.36534" lon="-0.99827">
        <ele>61.851</ele>
        <time>2020-07-19T07:39:25Z</time>
      </trkpt>
      <trkpt lat="47.36537" lon="-0.9982">
        <ele>62.33</ele>
        <time>2020-07-19T07:39:26Z</time>
      </trkpt>
      <trkpt lat="47.36539" lon="-0.99811">
        <ele>63.093</ele>
        <time>2020-07-19T07:39:27Z</time>
      </trkpt>
      <trkpt lat="47.36542" lon="-0.99804">
        <ele>63.863</ele>
        <time>2020-07-19T07:39:28Z</time>
      </trkpt>
      <trkpt lat="47.36545" lon="-0.99797">
        <ele>62.549</ele>
        <time>2020-07-19T07:39:29Z</time>
      </trkpt>
      <trkpt lat="47.36548" lon="-0.9979">
        <ele>63.087</ele>
        <time>2020-07-19T07:39:30Z</time>
      </trkpt>
      <trkpt lat="47.36551" lon="-0.99782">
        <ele>63.639</ele>
        <time>2020-07-19T07:39:31Z</time>
      </trkpt>
      <trkpt lat="47.36553" lon="-0.99775">
        <ele>63.87</ele>
        <time>2020-07-19T07:39:32Z</time>
      </trkpt>
      <trkpt lat="47.36555" lon="-0.99768">
        <ele>63.784</ele>
        <time>2020-07-19T07:39:33Z</time>
      </trkpt>
      <trkpt lat="47.36556" lon="-0.99761">
        <ele>64.806</ele>
        <time>2020-07-19T07:39:34Z</time>
      </trkpt>
      <trkpt lat="47.36559" lon="-0.99753">
        <ele>65.457</ele>
        <time>2020-07-19T07:39:35Z</time>
      </trkpt>
      <trkpt lat="47.3656" lon="-0.99745">
        <ele>65.346</ele>
        <time>2020-07-19T07:39:36Z</time>
      </trkpt>
      <trkpt lat="47.36561" lon="-0.99737">
        <ele>65.909</ele>
        <time>2020-07-19T07:39:37Z</time>
      </trkpt>
      <trkpt lat="47.36564" lon="-0.99729">
        <ele>66.462</ele>
        <time>2020-07-19T07:39:38Z</time>
      </trkpt>
      <trkpt lat="47.36566" lon="-0.99722">
        <ele>67.559</ele>
        <time>2020-07-19T07:39:39Z</time>
      </trkpt>
      <trkpt lat="47.36568" lon="-0.99715">
        <ele>67.548</ele>
        <time>2020-07-19T07:39:40Z</time>
      </trkpt>
      <trkpt lat="47.3657" lon="-0.99707">
        <ele>67.775</ele>
        <time>2020-07-19T07:39:41Z</time>
      </trkpt>
      <trkpt lat="47.3657" lon="-0.997">
        <ele>67.556</ele>
        <time>2020-07-19T07:39:42Z</time>
      </trkpt>
      <trkpt lat="47.36573" lon="-0.99692">
        <ele>68.026</ele>
        <time>2020-07-19T07:39:43Z</time>
      </trkpt>
      <trkpt lat="47.36576" lon="-0.99684">
        <ele>68.736</ele>
        <time>2020-07-19T07:39:44Z</time>
      </trkpt>
      <trkpt lat="47.36579" lon="-0.99677">
        <ele>68.144</ele>
        <time>2020-07-19T07:39:45Z</time>
      </trkpt>
      <trkpt lat="47.36579" lon="-0.9967">
        <ele>67.346</ele>
        <time>2020-07-19T07:39:46Z</time>
      </trkpt>
      <trkpt lat="47.36582" lon="-0.99663">
        <ele>67.992</ele>
        <time>2020-07-19T07:39:47Z</time>
      </trkpt>
      <trkpt lat="47.36584" lon="-0.99654">
        <ele>67.252</ele>
        <time>2020-07-19T07:39:48Z</time>
      </trkpt>
      <trkpt lat="47.36586" lon="-0.99646">
        <ele>67.422</ele>
        <time>2020-07-19T07:39:49Z</time>
      </trkpt>
      <trkpt lat="47.36589" lon="-0.99641">
        <ele>63.995</ele>
        <time>2020-07-19T07:39:50Z</time>
      </trkpt>
      <trkpt lat="47.36592" lon="-0.99633">
        <ele>63.715</ele>
        <time>2020-07-19T07:39:51Z</time>
      </trkpt>
      <trkpt lat="47.36593" lon="-0.99626">
        <ele>63.951</ele>
        <time>2020-07-19T07:39:52Z</time>
      </trkpt>
      <trkpt lat="47.36596" lon="-0.99617">
        <ele>64.672</ele>
        <time>2020-07-19T07:39:53Z</time>
      </trkpt>
      <trkpt lat="47.36598" lon="-0.99609">
        <ele>124.527</ele>
        <time>2020-07-19T07:39:54Z</time>
      </trkpt>
      <trkpt lat="47.366" lon="-0.99601">
        <ele>106.932</ele>
        <time>2020-07-19T07:39:55Z</time>
      </trkpt>
      <trkpt lat="47.36601" lon="-0.99593">
        <ele>95.805</ele>
        <time>2020-07-19T07:39:56Z</time>
      </trkpt>
      <trkpt lat="47.36603" lon="-0.99586">
        <ele>84.38</ele>
        <time>2020-07-19T07:39:57Z</time>
      </trkpt>
      <trkpt lat="47.36605" lon="-0.99579">
        <ele>77.166</ele>
        <time>2020-07-19T07:39:58Z</time>
      </trkpt>
      <trkpt lat="47.36607" lon="-0.99571">
        <ele>76.086</ele>
        <time>2020-07-19T07:39:59Z</time>
      </trkpt>
      <trkpt lat="47.36611" lon="-0.99563">
        <ele>72.74</ele>
        <time>2020-07-19T07:40:00Z</time>
      </trkpt>
      <trkpt lat="47.36613" lon="-0.99556">
        <ele>71.647</ele>
        <time>2020-07-19T07:40:01Z</time>
      </trkpt>
      <trkpt lat="47.36614" lon="-0.99548">
        <ele>69.544</ele>
        <time>2020-07-19T07:40:02Z</time>
      </trkpt>
      <trkpt lat="47.36615" lon="-0.9954">
        <ele>67.521</ele>
        <time>2020-07-19T07:40:03Z</time>
      </trkpt>
      <trkpt lat="47.36618" lon="-0.99532">
        <ele>68.29</ele>
        <time>2020-07-19T07:40:04Z</time>
      </trkpt>
      <trkpt lat="47.3662" lon="-0.99526">
        <ele>67.34</ele>
        <time>2020-07-19T07:40:05Z</time>
      </trkpt>
      <trkpt lat="47.36623" lon="-0.99518">
        <ele>67.225</ele>
        <time>2020-07-19T07:40:06Z</time>
      </trkpt>
      <trkpt lat="47.36623" lon="-0.99512">
        <ele>68.071</ele>
        <time>2020-07-19T07:40:07Z</time>
      </trkpt>
      <trkpt lat="47.36626" lon="-0.99504">
        <ele>68.234</ele>
        <time>2020-07-19T07:40:08Z</time>
      </trkpt>
      <trkpt lat="47.36628" lon="-0.99498">
        <ele>66.975</ele>
        <time>2020-07-19T07:40:09Z</time>
      </trkpt>
      <trkpt lat="47.36629" lon="-0.9949">
        <ele>66.689</ele>
        <time>2020-07-19T07:40:10Z</time>
      </trkpt>
      <trkpt lat="47.36631" lon="-0.99483">
        <ele>66.478</ele>
        <time>2020-07-19T07:40:11Z</time>
      </trkpt>
      <trkpt lat="47.36634" lon="-0.99475">
        <ele>66.746</ele>
        <time>2020-07-19T07:40:12Z</time>
      </trkpt>
      <trkpt lat="47.36637" lon="-0.99468">
        <ele>64.972</ele>
        <time>2020-07-19T07:40:13Z</time>
      </trkpt>
      <trkpt lat="47.36639" lon="-0.99461">
        <ele>65.039</ele>
        <time>2020-07-19T07:40:14Z</time>
      </trkpt>
      <trkpt lat="47.36642" lon="-0.99452">
        <ele>66.593</ele>
        <time>2020-07-19T07:40:15Z</time>
      </trkpt>
      <trkpt lat="47.36646" lon="-0.99444">
        <ele>67.987</ele>
        <time>2020-07-19T07:40:16Z</time>
      </trkpt>
      <trkpt lat="47.3665" lon="-0.99436">
        <ele>66.878</ele>
        <time>2020-07-19T07:40:17Z</time>
      </trkpt>
      <trkpt lat="47.36652" lon="-0.99429">
        <ele>65.196</ele>
        <time>2020-07-19T07:40:18Z</time>
      </trkpt>
      <trkpt lat="47.36652" lon="-0.99422">
        <ele>67.292</ele>
        <time>2020-07-19T07:40:19Z</time>
      </trkpt>
      <trkpt lat="47.36653" lon="-0.99415">
        <ele>67.882</ele>
        <time>2020-07-19T07:40:20Z</time>
      </trkpt>
      <trkpt lat="47.36656" lon="-0.99407">
        <ele>67.191</ele>
        <time>2020-07-19T07:40:21Z</time>
      </trkpt>
      <trkpt lat="47.36659" lon="-0.99398">
        <ele>66.877</ele>
        <time>2020-07-19T07:40:22Z</time>
      </trkpt>
      <trkpt lat="47.36661" lon="-0.9939">
        <ele>67.402</ele>
        <time>2020-07-19T07:40:23Z</time>
      </trkpt>
      <trkpt lat="47.36663" lon="-0.99381">
        <ele>66.175</ele>
        <time>2020-07-19T07:40:24Z</time>
      </trkpt>
      <trkpt lat="47.36666" lon="-0.99373">
        <ele>65.531</ele>
        <time>2020-07-19T07:40:25Z</time>
      </trkpt>
      <trkpt lat="47.3667" lon="-0.99364">
        <ele>66.152</ele>
        <time>2020-07-19T07:40:26Z</time>
      </trkpt>
      <trkpt lat="47.36671" lon="-0.99357">
        <ele>66.546</ele>
        <time>2020-07-19T07:40:27Z</time>
      </trkpt>
      <trkpt lat="47.36674" lon="-0.9935">
        <ele>66.05</ele>
        <time>2020-07-19T07:40:28Z</time>
      </trkpt>
      <trkpt lat="47.36676" lon="-0.99341">
        <ele>66.677</ele>
        <time>2020-07-19T07:40:29Z</time>
      </trkpt>
      <trkpt lat="47.36677" lon="-0.99334">
        <ele>66.351</ele>
        <time>2020-07-19T07:40:30Z</time>
      </trkpt>
      <trkpt lat="47.36682" lon="-0.99327">
        <ele>68.099</ele>
        <time>2020-07-19T07:40:31Z</time>
      </trkpt>
      <trkpt lat="47.36685" lon="-0.99318">
        <ele>68.042</ele>
        <time>2020-07-19T07:40:32Z</time>
      </trkpt>
      <trkpt lat="47.36687" lon="-0.9931">
        <ele>68.783</ele>
        <time>2020-07-19T07:40:33Z</time>
      </trkpt>
      <trkpt lat="47.3669" lon="-0.99302">
        <ele>69.05</ele>
        <time>2020-07-19T07:40:34Z</time>
      </trkpt>
      <trkpt lat="47.36692" lon="-0.99293">
        <ele>69.376</ele>
        <time>2020-07-19T07:40:35Z</time>
      </trkpt>
      <trkpt lat="47.36693" lon="-0.99286">
        <ele>69.862</ele>
        <time>2020-07-19T07:40:36Z</time>
      </trkpt>
      <trkpt lat="47.36695" lon="-0.99277">
        <ele>68.657</ele>
        <time>2020-07-19T07:40:37Z</time>
      </trkpt>
      <trkpt lat="47.36697" lon="-0.99268">
        <ele>69.258</ele>
        <time>2020-07-19T07:40:38Z</time>
      </trkpt>
      <trkpt lat="47.36699" lon="-0.9926">
        <ele>69.597</ele>
        <time>2020-07-19T07:40:39Z</time>
      </trkpt>
      <trkpt lat="47.36701" lon="-0.99252">
        <ele>69.132</ele>
        <time>2020-07-19T07:40:40Z</time>
      </trkpt>
      <trkpt lat="47.36704" lon="-0.99244">
        <ele>69.536</ele>
        <time>2020-07-19T07:40:41Z</time>
      </trkpt>
      <trkpt lat="47.36706" lon="-0.99236">
        <ele>68.783</ele>
        <time>2020-07-19T07:40:42Z</time>
      </trkpt>
      <trkpt lat="47.36706" lon="-0.99227">
        <ele>66.993</ele>
        <time>2020-07-19T07:40:43Z</time>
      </trkpt>
      <trkpt lat="47.36708" lon="-0.99218">
        <ele>67.461</ele>
        <time>2020-07-19T07:40:44Z</time>
      </trkpt>
      <trkpt lat="47.36711" lon="-0.99211">
        <ele>67.766</ele>
        <time>2020-07-19T07:40:45Z</time>
      </trkpt>
      <trkpt lat="47.36714" lon="-0.99202">
        <ele>68.282</ele>
        <time>2020-07-19T07:40:46Z</time>
      </trkpt>
      <trkpt lat="47.36716" lon="-0.99194">
        <ele>69.112</ele>
        <time>2020-07-19T07:40:47Z</time>
      </trkpt>
      <trkpt lat="47.3672" lon="-0.99188">
        <ele>68.148</ele>
        <time>2020-07-19T07:40:48Z</time>
      </trkpt>
      <trkpt lat="47.36719" lon="-0.9918">
        <ele>68.184</ele>
        <time>2020-07-19T07:40:49Z</time>
      </trkpt>
      <trkpt lat="47.36723" lon="-0.99172">
        <ele>68.664</ele>
        <time>2020-07-19T07:40:50Z</time>
      </trkpt>
      <trkpt lat="47.36726" lon="-0.99164">
        <ele>68.96</ele>
        <time>2020-07-19T07:40:51Z</time>
      </trkpt>
      <trkpt lat="47.3673" lon="-0.99156">
        <ele>69.848</ele>
        <time>2020-07-19T07:40:52Z</time>
      </trkpt>
      <trkpt lat="47.36732" lon="-0.99148">
        <ele>69.456</ele>
        <time>2020-07-19T07:40:53Z</time>
      </trkpt>
      <trkpt lat="47.36733" lon="-0.9914">
        <ele>68.619</ele>
        <time>2020-07-19T07:40:54Z</time>
      </trkpt>
      <trkpt lat="47.36734" lon="-0.99133">
        <ele>68.324</ele>
        <time>2020-07-19T07:40:55Z</time>
      </trkpt>
      <trkpt lat="47.36737" lon="-0.99125">
        <ele>66.159</ele>
        <time>2020-07-19T07:40:56Z</time>
      </trkpt>
      <trkpt lat="47.36739" lon="-0.99118">
        <ele>67.118</ele>
        <time>2020-07-19T07:40:57Z</time>
      </trkpt>
      <trkpt lat="47.36742" lon="-0.99109">
        <ele>67.224</ele>
        <time>2020-07-19T07:40:58Z</time>
      </trkpt>
      <trkpt lat="47.36746" lon="-0.99102">
        <ele>65.007</ele>
        <time>2020-07-19T07:40:59Z</time>
      </trkpt>
      <trkpt lat="47.36748" lon="-0.99094">
        <ele>63.954</ele>
        <time>2020-07-19T07:41:00Z</time>
      </trkpt>
      <trkpt lat="47.36751" lon="-0.99087">
        <ele>63.684</ele>
        <time>2020-07-19T07:41:01Z</time>
      </trkpt>
      <trkpt lat="47.36753" lon="-0.99078">
        <ele>64.033</ele>
        <time>2020-07-19T07:41:02Z</time>
      </trkpt>
      <trkpt lat="47.36753" lon="-0.9907">
        <ele>63.981</ele>
        <time>2020-07-19T07:41:03Z</time>
      </trkpt>
      <trkpt lat="47.36756" lon="-0.99062">
        <ele>64.718</ele>
        <time>2020-07-19T07:41:04Z</time>
      </trkpt>
      <trkpt lat="47.36759" lon="-0.99053">
        <ele>65.725</ele>
        <time>2020-07-19T07:41:05Z</time>
      </trkpt>
      <trkpt lat="47.36762" lon="-0.99045">
        <ele>66.119</ele>
        <time>2020-07-19T07:41:06Z</time>
      </trkpt>
      <trkpt lat="47.36763" lon="-0.99037">
        <ele>65.598</ele>
        <time>2020-07-19T07:41:07Z</time>
      </trkpt>
      <trkpt lat="47.36766" lon="-0.99029">
        <ele>65.985</ele>
        <time>2020-07-19T07:41:08Z</time>
      </trkpt>
      <trkpt lat="47.36765" lon="-0.99021">
        <ele>66.739</ele>
        <time>2020-07-19T07:41:09Z</time>
      </trkpt>
      <trkpt lat="47.3677" lon="-0.99013">
        <ele>66.759</ele>
        <time>2020-07-19T07:41:10Z</time>
      </trkpt>
      <trkpt lat="47.3677" lon="-0.99005">
        <ele>67.292</ele>
        <time>2020-07-19T07:41:11Z</time>
      </trkpt>
      <trkpt lat="47.36771" lon="-0.98998">
        <ele>67.179</ele>
        <time>2020-07-19T07:41:12Z</time>
      </trkpt>
      <trkpt lat="47.36774" lon="-0.98988">
        <ele>67.723</ele>
        <time>2020-07-19T07:41:13Z</time>
      </trkpt>
      <trkpt lat="47.36776" lon="-0.98981">
        <ele>68.116</ele>
        <time>2020-07-19T07:41:14Z</time>
      </trkpt>
      <trkpt lat="47.36779" lon="-0.98976">
        <ele>66.21</ele>
        <time>2020-07-19T07:41:15Z</time>
      </trkpt>
      <trkpt lat="47.36781" lon="-0.98969">
        <ele>66.014</ele>
        <time>2020-07-19T07:41:16Z</time>
      </trkpt>
      <trkpt lat="47.36784" lon="-0.98961">
        <ele>67.064</ele>
        <time>2020-07-19T07:41:17Z</time>
      </trkpt>
      <trkpt lat="47.36785" lon="-0.98953">
        <ele>65.744</ele>
        <time>2020-07-19T07:41:18Z</time>
      </trkpt>
      <trkpt lat="47.36787" lon="-0.98945">
        <ele>65.701</ele>
        <time>2020-07-19T07:41:19Z</time>
      </trkpt>
      <trkpt lat="47.36791" lon="-0.98937">
        <ele>64.705</ele>
        <time>2020-07-19T07:41:20Z</time>
      </trkpt>
      <trkpt lat="47.36794" lon="-0.98928">
        <ele>65.847</ele>
        <time>2020-07-19T07:41:21Z</time>
      </trkpt>
      <trkpt lat="47.36798" lon="-0.98918">
        <ele>67.241</ele>
        <time>2020-07-19T07:41:22Z</time>
      </trkpt>
      <trkpt lat="47.368" lon="-0.98909">
        <ele>67.653</ele>
        <time>2020-07-19T07:41:23Z</time>
      </trkpt>
      <trkpt lat="47.36802" lon="-0.98903">
        <ele>64.789</ele>
        <time>2020-07-19T07:41:24Z</time>
      </trkpt>
      <trkpt lat="47.36806" lon="-0.98895">
        <ele>65.257</ele>
        <time>2020-07-19T07:41:25Z</time>
      </trkpt>
      <trkpt lat="47.36808" lon="-0.98887">
        <ele>66.011</ele>
        <time>2020-07-19T07:41:26Z</time>
      </trkpt>
      <trkpt lat="47.36811" lon="-0.98878">
        <ele>65.214</ele>
        <time>2020-07-19T07:41:27Z</time>
      </trkpt>
      <trkpt lat="47.36813" lon="-0.9887">
        <ele>65.274</ele>
        <time>2020-07-19T07:41:28Z</time>
      </trkpt>
      <trkpt lat="47.36817" lon="-0.98861">
        <ele>63.826</ele>
        <time>2020-07-19T07:41:29Z</time>
      </trkpt>
      <trkpt lat="47.3682" lon="-0.98853">
        <ele>61.908</ele>
        <time>2020-07-19T07:41:30Z</time>
      </trkpt>
      <trkpt lat="47.36822" lon="-0.98844">
        <ele>61.235</ele>
        <time>2020-07-19T07:41:31Z</time>
      </trkpt>
      <trkpt lat="47.36823" lon="-0.98836">
        <ele>61.538</ele>
        <time>2020-07-19T07:41:32Z</time>
      </trkpt>
      <trkpt lat="47.36826" lon="-0.98827">
        <ele>61.492</ele>
        <time>2020-07-19T07:41:33Z</time>
      </trkpt>
      <trkpt lat="47.36827" lon="-0.98818">
        <ele>61.689</ele>
        <time>2020-07-19T07:41:34Z</time>
      </trkpt>
      <trkpt lat="47.3683" lon="-0.9881">
        <ele>61.487</ele>
        <time>2020-07-19T07:41:35Z</time>
      </trkpt>
      <trkpt lat="47.36833" lon="-0.98802">
        <ele>62.016</ele>
        <time>2020-07-19T07:41:36Z</time>
      </trkpt>
      <trkpt lat="47.36835" lon="-0.98794">
        <ele>61.16</ele>
        <time>2020-07-19T07:41:37Z</time>
      </trkpt>
      <trkpt lat="47.36837" lon="-0.98785">
        <ele>60.636</ele>
        <time>2020-07-19T07:41:38Z</time>
      </trkpt>
      <trkpt lat="47.36838" lon="-0.98776">
        <ele>59.923</ele>
        <time>2020-07-19T07:41:39Z</time>
      </trkpt>
      <trkpt lat="47.36841" lon="-0.98769">
        <ele>59.826</ele>
        <time>2020-07-19T07:41:40Z</time>
      </trkpt>
      <trkpt lat="47.36842" lon="-0.9876">
        <ele>59.054</ele>
        <time>2020-07-19T07:41:41Z</time>
      </trkpt>
      <trkpt lat="47.36846" lon="-0.98751">
        <ele>60.098</ele>
        <time>2020-07-19T07:41:42Z</time>
      </trkpt>
      <trkpt lat="47.36848" lon="-0.98743">
        <ele>60.205</ele>
        <time>2020-07-19T07:41:43Z</time>
      </trkpt>
      <trkpt lat="47.3685" lon="-0.98736">
        <ele>60.3</ele>
        <time>2020-07-19T07:41:44Z</time>
      </trkpt>
      <trkpt lat="47.36852" lon="-0.98728">
        <ele>60.583</ele>
        <time>2020-07-19T07:41:45Z</time>
      </trkpt>
      <trkpt lat="47.36856" lon="-0.98719">
        <ele>61.011</ele>
        <time>2020-07-19T07:41:46Z</time>
      </trkpt>
      <trkpt lat="47.36857" lon="-0.98712">
        <ele>59.698</ele>
        <time>2020-07-19T07:41:47Z</time>
      </trkpt>
      <trkpt lat="47.36859" lon="-0.98703">
        <ele>59.714</ele>
        <time>2020-07-19T07:41:48Z</time>
      </trkpt>
      <trkpt lat="47.36863" lon="-0.98694">
        <ele>58.146</ele>
        <time>2020-07-19T07:41:49Z</time>
      </trkpt>
      <trkpt lat="47.36865" lon="-0.98686">
        <ele>59.282</ele>
        <time>2020-07-19T07:41:50Z</time>
      </trkpt>
      <trkpt lat="47.36868" lon="-0.98681">
        <ele>56.419</ele>
        <time>2020-07-19T07:41:51Z</time>
      </trkpt>
      <trkpt lat="47.36869" lon="-0.98673">
        <ele>57.481</ele>
        <time>2020-07-19T07:41:52Z</time>
      </trkpt>
      <trkpt lat="47.36872" lon="-0.98664">
        <ele>57.52</ele>
        <time>2020-07-19T07:41:53Z</time>
      </trkpt>
      <trkpt lat="47.36876" lon="-0.98654">
        <ele>57.862</ele>
        <time>2020-07-19T07:41:54Z</time>
      </trkpt>
      <trkpt lat="47.3688" lon="-0.98645">
        <ele>56.785</ele>
        <time>2020-07-19T07:41:55Z</time>
      </trkpt>
      <trkpt lat="47.36882" lon="-0.98638">
        <ele>57.059</ele>
        <time>2020-07-19T07:41:56Z</time>
      </trkpt>
      <trkpt lat="47.36883" lon="-0.98631">
        <ele>57.823</ele>
        <time>2020-07-19T07:41:57Z</time>
      </trkpt>
      <trkpt lat="47.36885" lon="-0.98622">
        <ele>57.349</ele>
        <time>2020-07-19T07:41:58Z</time>
      </trkpt>
      <trkpt lat="47.36887" lon="-0.98614">
        <ele>58.656</ele>
        <time>2020-07-19T07:41:59Z</time>
      </trkpt>
      <trkpt lat="47.3689" lon="-0.98606">
        <ele>58.131</ele>
        <time>2020-07-19T07:42:00Z</time>
      </trkpt>
      <trkpt lat="47.36892" lon="-0.98598">
        <ele>59.237</ele>
        <time>2020-07-19T07:42:01Z</time>
      </trkpt>
      <trkpt lat="47.36894" lon="-0.98591">
        <ele>57.678</ele>
        <time>2020-07-19T07:42:02Z</time>
      </trkpt>
      <trkpt lat="47.36897" lon="-0.98582">
        <ele>58.011</ele>
        <time>2020-07-19T07:42:03Z</time>
      </trkpt>
      <trkpt lat="47.36899" lon="-0.98574">
        <ele>55.638</ele>
        <time>2020-07-19T07:42:04Z</time>
      </trkpt>
      <trkpt lat="47.36901" lon="-0.98565">
        <ele>56.757</ele>
        <time>2020-07-19T07:42:05Z</time>
      </trkpt>
      <trkpt lat="47.36904" lon="-0.98556">
        <ele>58.079</ele>
        <time>2020-07-19T07:42:06Z</time>
      </trkpt>
      <trkpt lat="47.36905" lon="-0.98547">
        <ele>59.657</ele>
        <time>2020-07-19T07:42:07Z</time>
      </trkpt>
      <trkpt lat="47.36908" lon="-0.98538">
        <ele>61.25</ele>
        <time>2020-07-19T07:42:08Z</time>
      </trkpt>
      <trkpt lat="47.36911" lon="-0.98529">
        <ele>60.892</ele>
        <time>2020-07-19T07:42:09Z</time>
      </trkpt>
      <trkpt lat="47.36914" lon="-0.9852">
        <ele>60.904</ele>
        <time>2020-07-19T07:42:10Z</time>
      </trkpt>
      <trkpt lat="47.36916" lon="-0.98512">
        <ele>61.422</ele>
        <time>2020-07-19T07:42:11Z</time>
      </trkpt>
      <trkpt lat="47.36918" lon="-0.98503">
        <ele>60.792</ele>
        <time>2020-07-19T07:42:12Z</time>
      </trkpt>
      <trkpt lat="47.3692" lon="-0.98493">
        <ele>62.89</ele>
        <time>2020-07-19T07:42:13Z</time>
      </trkpt>
      <trkpt lat="47.36923" lon="-0.98484">
        <ele>63.545</ele>
        <time>2020-07-19T07:42:14Z</time>
      </trkpt>
      <trkpt lat="47.36921" lon="-0.98475">
        <ele>66.38</ele>
        <time>2020-07-19T07:42:15Z</time>
      </trkpt>
      <trkpt lat="47.36924" lon="-0.98465">
        <ele>66.754</ele>
        <time>2020-07-19T07:42:16Z</time>
      </trkpt>
      <trkpt lat="47.36925" lon="-0.98455">
        <ele>65.895</ele>
        <time>2020-07-19T07:42:17Z</time>
      </trkpt>
      <trkpt lat="47.36927" lon="-0.98448">
        <ele>66.139</ele>
        <time>2020-07-19T07:42:18Z</time>
      </trkpt>
      <trkpt lat="47.36923" lon="-0.9844">
        <ele>67.034</ele>
        <time>2020-07-19T07:42:19Z</time>
      </trkpt>
      <trkpt lat="47.36924" lon="-0.9843">
        <ele>68.913</ele>
        <time>2020-07-19T07:42:20Z</time>
      </trkpt>
      <trkpt lat="47.36929" lon="-0.9842">
        <ele>72.889</ele>
        <time>2020-07-19T07:42:21Z</time>
      </trkpt>
      <trkpt lat="47.36931" lon="-0.98412">
        <ele>72.872</ele>
        <time>2020-07-19T07:42:22Z</time>
      </trkpt>
      <trkpt lat="47.36933" lon="-0.98404">
        <ele>71.819</ele>
        <time>2020-07-19T07:42:23Z</time>
      </trkpt>
      <trkpt lat="47.36933" lon="-0.98398">
        <ele>69.128</ele>
        <time>2020-07-19T07:42:24Z</time>
      </trkpt>
      <trkpt lat="47.36934" lon="-0.98389">
        <ele>68.604</ele>
        <time>2020-07-19T07:42:25Z</time>
      </trkpt>
      <trkpt lat="47.36938" lon="-0.98379">
        <ele>70.692</ele>
        <time>2020-07-19T07:42:26Z</time>
      </trkpt>
      <trkpt lat="47.36938" lon="-0.98372">
        <ele>66.724</ele>
        <time>2020-07-19T07:42:27Z</time>
      </trkpt>
      <trkpt lat="47.36937" lon="-0.98364">
        <ele>65.775</ele>
        <time>2020-07-19T07:42:28Z</time>
      </trkpt>
      <trkpt lat="47.36939" lon="-0.98355">
        <ele>64.963</ele>
        <time>2020-07-19T07:42:29Z</time>
      </trkpt>
      <trkpt lat="47.36942" lon="-0.98346">
        <ele>65.255</ele>
        <time>2020-07-19T07:42:30Z</time>
      </trkpt>
      <trkpt lat="47.36943" lon="-0.98337">
        <ele>66.025</ele>
        <time>2020-07-19T07:42:31Z</time>
      </trkpt>
      <trkpt lat="47.36945" lon="-0.98329">
        <ele>66.746</ele>
        <time>2020-07-19T07:42:32Z</time>
      </trkpt>
      <trkpt lat="47.36946" lon="-0.9832">
        <ele>66.579</ele>
        <time>2020-07-19T07:42:33Z</time>
      </trkpt>
      <trkpt lat="47.36946" lon="-0.98311">
        <ele>66.273</ele>
        <time>2020-07-19T07:42:34Z</time>
      </trkpt>
      <trkpt lat="47.36948" lon="-0.98302">
        <ele>67.454</ele>
        <time>2020-07-19T07:42:35Z</time>
      </trkpt>
      <trkpt lat="47.36948" lon="-0.98294">
        <ele>67.083</ele>
        <time>2020-07-19T07:42:36Z</time>
      </trkpt>
      <trkpt lat="47.3695" lon="-0.98286">
        <ele>68.456</ele>
        <time>2020-07-19T07:42:37Z</time>
      </trkpt>
      <trkpt lat="47.36951" lon="-0.98276">
        <ele>68.179</ele>
        <time>2020-07-19T07:42:38Z</time>
      </trkpt>
      <trkpt lat="47.36952" lon="-0.98267">
        <ele>68.417</ele>
        <time>2020-07-19T07:42:39Z</time>
      </trkpt>
      <trkpt lat="47.36954" lon="-0.98258">
        <ele>69.882</ele>
        <time>2020-07-19T07:42:40Z</time>
      </trkpt>
      <trkpt lat="47.36956" lon="-0.98249">
        <ele>69.375</ele>
        <time>2020-07-19T07:42:41Z</time>
      </trkpt>
      <trkpt lat="47.36957" lon="-0.98241">
        <ele>68.851</ele>
        <time>2020-07-19T07:42:42Z</time>
      </trkpt>
      <trkpt lat="47.36959" lon="-0.98233">
        <ele>69.081</ele>
        <time>2020-07-19T07:42:43Z</time>
      </trkpt>
      <trkpt lat="47.3696" lon="-0.98225">
        <ele>68.484</ele>
        <time>2020-07-19T07:42:44Z</time>
      </trkpt>
      <trkpt lat="47.36959" lon="-0.98216">
        <ele>68.727</ele>
        <time>2020-07-19T07:42:45Z</time>
      </trkpt>
      <trkpt lat="47.3696" lon="-0.98207">
        <ele>68.373</ele>
        <time>2020-07-19T07:42:46Z</time>
      </trkpt>
      <trkpt lat="47.36961" lon="-0.98199">
        <ele>68.527</ele>
        <time>2020-07-19T07:42:47Z</time>
      </trkpt>
      <trkpt lat="47.36963" lon="-0.9819">
        <ele>68.508</ele>
        <time>2020-07-19T07:42:48Z</time>
      </trkpt>
      <trkpt lat="47.36964" lon="-0.98181">
        <ele>68.726</ele>
        <time>2020-07-19T07:42:49Z</time>
      </trkpt>
      <trkpt lat="47.36965" lon="-0.98174">
        <ele>67.424</ele>
        <time>2020-07-19T07:42:50Z</time>
      </trkpt>
      <trkpt lat="47.36967" lon="-0.98165">
        <ele>67.454</ele>
        <time>2020-07-19T07:42:51Z</time>
      </trkpt>
      <trkpt lat="47.36968" lon="-0.98157">
        <ele>67.286</ele>
        <time>2020-07-19T07:42:52Z</time>
      </trkpt>
      <trkpt lat="47.36969" lon="-0.98149">
        <ele>67.64</ele>
        <time>2020-07-19T07:42:53Z</time>
      </trkpt>
      <trkpt lat="47.36969" lon="-0.98141">
        <ele>67.607</ele>
        <time>2020-07-19T07:42:54Z</time>
      </trkpt>
      <trkpt lat="47.36971" lon="-0.98132">
        <ele>67.761</ele>
        <time>2020-07-19T07:42:55Z</time>
      </trkpt>
      <trkpt lat="47.36971" lon="-0.98124">
        <ele>67.792</ele>
        <time>2020-07-19T07:42:56Z</time>
      </trkpt>
      <trkpt lat="47.36972" lon="-0.98116">
        <ele>67.425</ele>
        <time>2020-07-19T07:42:57Z</time>
      </trkpt>
      <trkpt lat="47.36974" lon="-0.98107">
        <ele>66.851</ele>
        <time>2020-07-19T07:42:58Z</time>
      </trkpt>
      <trkpt lat="47.36975" lon="-0.98098">
        <ele>65.969</ele>
        <time>2020-07-19T07:42:59Z</time>
      </trkpt>
      <trkpt lat="47.36977" lon="-0.98089">
        <ele>66.184</ele>
        <time>2020-07-19T07:43:00Z</time>
      </trkpt>
      <trkpt lat="47.36976" lon="-0.98081">
        <ele>65.657</ele>
        <time>2020-07-19T07:43:01Z</time>
      </trkpt>
      <trkpt lat="47.36977" lon="-0.98073">
        <ele>65.348</ele>
        <time>2020-07-19T07:43:02Z</time>
      </trkpt>
      <trkpt lat="47.36978" lon="-0.98064">
        <ele>65.428</ele>
        <time>2020-07-19T07:43:03Z</time>
      </trkpt>
      <trkpt lat="47.3698" lon="-0.98055">
        <ele>65.071</ele>
        <time>2020-07-19T07:43:04Z</time>
      </trkpt>
      <trkpt lat="47.36982" lon="-0.98047">
        <ele>65.69</ele>
        <time>2020-07-19T07:43:05Z</time>
      </trkpt>
      <trkpt lat="47.36984" lon="-0.98038">
        <ele>64.795</ele>
        <time>2020-07-19T07:43:06Z</time>
      </trkpt>
      <trkpt lat="47.36985" lon="-0.98031">
        <ele>64.736</ele>
        <time>2020-07-19T07:43:07Z</time>
      </trkpt>
      <trkpt lat="47.36987" lon="-0.98022">
        <ele>63.985</ele>
        <time>2020-07-19T07:43:08Z</time>
      </trkpt>
      <trkpt lat="47.36988" lon="-0.98013">
        <ele>64.018</ele>
        <time>2020-07-19T07:43:09Z</time>
      </trkpt>
      <trkpt lat="47.36989" lon="-0.98005">
        <ele>63.016</ele>
        <time>2020-07-19T07:43:10Z</time>
      </trkpt>
      <trkpt lat="47.36991" lon="-0.97996">
        <ele>62.627</ele>
        <time>2020-07-19T07:43:11Z</time>
      </trkpt>
      <trkpt lat="47.36991" lon="-0.97988">
        <ele>62.544</ele>
        <time>2020-07-19T07:43:12Z</time>
      </trkpt>
      <trkpt lat="47.36991" lon="-0.97979">
        <ele>62.969</ele>
        <time>2020-07-19T07:43:13Z</time>
      </trkpt>
      <trkpt lat="47.36993" lon="-0.9797">
        <ele>63.334</ele>
        <time>2020-07-19T07:43:14Z</time>
      </trkpt>
      <trkpt lat="47.36994" lon="-0.97962">
        <ele>63.551</ele>
        <time>2020-07-19T07:43:15Z</time>
      </trkpt>
      <trkpt lat="47.36995" lon="-0.97954">
        <ele>63.644</ele>
        <time>2020-07-19T07:43:16Z</time>
      </trkpt>
      <trkpt lat="47.36996" lon="-0.97945">
        <ele>65.235</ele>
        <time>2020-07-19T07:43:17Z</time>
      </trkpt>
      <trkpt lat="47.36998" lon="-0.97936">
        <ele>66.049</ele>
        <time>2020-07-19T07:43:18Z</time>
      </trkpt>
      <trkpt lat="47.37" lon="-0.97927">
        <ele>65.627</ele>
        <time>2020-07-19T07:43:19Z</time>
      </trkpt>
      <trkpt lat="47.37002" lon="-0.97918">
        <ele>65.232</ele>
        <time>2020-07-19T07:43:20Z</time>
      </trkpt>
      <trkpt lat="47.37003" lon="-0.97909">
        <ele>64.962</ele>
        <time>2020-07-19T07:43:21Z</time>
      </trkpt>
      <trkpt lat="47.37005" lon="-0.97899">
        <ele>64.831</ele>
        <time>2020-07-19T07:43:22Z</time>
      </trkpt>
      <trkpt lat="47.37005" lon="-0.9789">
        <ele>64.585</ele>
        <time>2020-07-19T07:43:23Z</time>
      </trkpt>
      <trkpt lat="47.37007" lon="-0.97882">
        <ele>64.996</ele>
        <time>2020-07-19T07:43:24Z</time>
      </trkpt>
      <trkpt lat="47.37009" lon="-0.97873">
        <ele>65.642</ele>
        <time>2020-07-19T07:43:25Z</time>
      </trkpt>
      <trkpt lat="47.3701" lon="-0.97864">
        <ele>65.736</ele>
        <time>2020-07-19T07:43:26Z</time>
      </trkpt>
      <trkpt lat="47.37012" lon="-0.97857">
        <ele>64.959</ele>
        <time>2020-07-19T07:43:27Z</time>
      </trkpt>
      <trkpt lat="47.37012" lon="-0.97848">
        <ele>65.382</ele>
        <time>2020-07-19T07:43:28Z</time>
      </trkpt>
      <trkpt lat="47.37013" lon="-0.9784">
        <ele>65.733</ele>
        <time>2020-07-19T07:43:29Z</time>
      </trkpt>
      <trkpt lat="47.37014" lon="-0.97833">
        <ele>64.476</ele>
        <time>2020-07-19T07:43:30Z</time>
      </trkpt>
      <trkpt lat="47.37016" lon="-0.97825">
        <ele>65.117</ele>
        <time>2020-07-19T07:43:31Z</time>
      </trkpt>
      <trkpt lat="47.37017" lon="-0.97817">
        <ele>65.495</ele>
        <time>2020-07-19T07:43:32Z</time>
      </trkpt>
      <trkpt lat="47.37018" lon="-0.97809">
        <ele>64.163</ele>
        <time>2020-07-19T07:43:33Z</time>
      </trkpt>
      <trkpt lat="47.37019" lon="-0.97801">
        <ele>64.531</ele>
        <time>2020-07-19T07:43:34Z</time>
      </trkpt>
      <trkpt lat="47.37021" lon="-0.97792">
        <ele>63.593</ele>
        <time>2020-07-19T07:43:35Z</time>
      </trkpt>
      <trkpt lat="47.37021" lon="-0.97783">
        <ele>64.758</ele>
        <time>2020-07-19T07:43:36Z</time>
      </trkpt>
      <trkpt lat="47.37023" lon="-0.97774">
        <ele>64.43</ele>
        <time>2020-07-19T07:43:37Z</time>
      </trkpt>
      <trkpt lat="47.37025" lon="-0.97766">
        <ele>106.341</ele>
        <time>2020-07-19T07:43:38Z</time>
      </trkpt>
      <trkpt lat="47.37027" lon="-0.97757">
        <ele>95.167</ele>
        <time>2020-07-19T07:43:39Z</time>
      </trkpt>
      <trkpt lat="47.37029" lon="-0.97748">
        <ele>85.769</ele>
        <time>2020-07-19T07:43:40Z</time>
      </trkpt>
      <trkpt lat="47.37031" lon="-0.9774">
        <ele>77.22</ele>
        <time>2020-07-19T07:43:41Z</time>
      </trkpt>
      <trkpt lat="47.37033" lon="-0.97732">
        <ele>72.281</ele>
        <time>2020-07-19T07:43:42Z</time>
      </trkpt>
      <trkpt lat="47.37032" lon="-0.97723">
        <ele>69.896</ele>
        <time>2020-07-19T07:43:43Z</time>
      </trkpt>
      <trkpt lat="47.37033" lon="-0.97715">
        <ele>66.921</ele>
        <time>2020-07-19T07:43:44Z</time>
      </trkpt>
      <trkpt lat="47.37035" lon="-0.97707">
        <ele>65.115</ele>
        <time>2020-07-19T07:43:45Z</time>
      </trkpt>
      <trkpt lat="47.37036" lon="-0.97699">
        <ele>64.065</ele>
        <time>2020-07-19T07:43:46Z</time>
      </trkpt>
      <trkpt lat="47.37037" lon="-0.9769">
        <ele>64.426</ele>
        <time>2020-07-19T07:43:47Z</time>
      </trkpt>
      <trkpt lat="47.37037" lon="-0.97682">
        <ele>62.696</ele>
        <time>2020-07-19T07:43:48Z</time>
      </trkpt>
      <trkpt lat="47.37038" lon="-0.97672">
        <ele>62.508</ele>
        <time>2020-07-19T07:43:49Z</time>
      </trkpt>
      <trkpt lat="47.3704" lon="-0.97663">
        <ele>62.201</ele>
        <time>2020-07-19T07:43:50Z</time>
      </trkpt>
      <trkpt lat="47.3704" lon="-0.97654">
        <ele>59.936</ele>
        <time>2020-07-19T07:43:51Z</time>
      </trkpt>
      <trkpt lat="47.37041" lon="-0.97645">
        <ele>59.848</ele>
        <time>2020-07-19T07:43:52Z</time>
      </trkpt>
      <trkpt lat="47.37038" lon="-0.97636">
        <ele>59.57</ele>
        <time>2020-07-19T07:43:53Z</time>
      </trkpt>
      <trkpt lat="47.37039" lon="-0.97627">
        <ele>58.517</ele>
        <time>2020-07-19T07:43:54Z</time>
      </trkpt>
      <trkpt lat="47.37042" lon="-0.97618">
        <ele>57.67</ele>
        <time>2020-07-19T07:43:55Z</time>
      </trkpt>
      <trkpt lat="47.37044" lon="-0.97608">
        <ele>56.279</ele>
        <time>2020-07-19T07:43:56Z</time>
      </trkpt>
      <trkpt lat="47.37046" lon="-0.97599">
        <ele>56.619</ele>
        <time>2020-07-19T07:43:57Z</time>
      </trkpt>
      <trkpt lat="47.37049" lon="-0.9759">
        <ele>57.579</ele>
        <time>2020-07-19T07:43:58Z</time>
      </trkpt>
      <trkpt lat="47.37051" lon="-0.97581">
        <ele>58.067</ele>
        <time>2020-07-19T07:43:59Z</time>
      </trkpt>
      <trkpt lat="47.37055" lon="-0.97572">
        <ele>58.915</ele>
        <time>2020-07-19T07:44:00Z</time>
      </trkpt>
      <trkpt lat="47.37055" lon="-0.97564">
        <ele>59.418</ele>
        <time>2020-07-19T07:44:01Z</time>
      </trkpt>
      <trkpt lat="47.37054" lon="-0.97557">
        <ele>61.198</ele>
        <time>2020-07-19T07:44:02Z</time>
      </trkpt>
      <trkpt lat="47.37056" lon="-0.97549">
        <ele>61.899</ele>
        <time>2020-07-19T07:44:03Z</time>
      </trkpt>
      <trkpt lat="47.37057" lon="-0.97541">
        <ele>61.989</ele>
        <time>2020-07-19T07:44:04Z</time>
      </trkpt>
      <trkpt lat="47.37056" lon="-0.97533">
        <ele>64.136</ele>
        <time>2020-07-19T07:44:05Z</time>
      </trkpt>
      <trkpt lat="47.37058" lon="-0.97525">
        <ele>62.867</ele>
        <time>2020-07-19T07:44:06Z</time>
      </trkpt>
      <trkpt lat="47.37061" lon="-0.97516">
        <ele>61.198</ele>
        <time>2020-07-19T07:44:07Z</time>
      </trkpt>
      <trkpt lat="47.37062" lon="-0.97508">
        <ele>60.79</ele>
        <time>2020-07-19T07:44:08Z</time>
      </trkpt>
      <trkpt lat="47.37064" lon="-0.975">
        <ele>60.193</ele>
        <time>2020-07-19T07:44:09Z</time>
      </trkpt>
      <trkpt lat="47.37066" lon="-0.97493">
        <ele>60.185</ele>
        <time>2020-07-19T07:44:10Z</time>
      </trkpt>
      <trkpt lat="47.37068" lon="-0.97484">
        <ele>60.38</ele>
        <time>2020-07-19T07:44:11Z</time>
      </trkpt>
      <trkpt lat="47.3707" lon="-0.97476">
        <ele>60.466</ele>
        <time>2020-07-19T07:44:12Z</time>
      </trkpt>
      <trkpt lat="47.37072" lon="-0.97467">
        <ele>60.432</ele>
        <time>2020-07-19T07:44:13Z</time>
      </trkpt>
      <trkpt lat="47.37073" lon="-0.97458">
        <ele>61.507</ele>
        <time>2020-07-19T07:44:14Z</time>
      </trkpt>
      <trkpt lat="47.37074" lon="-0.97449">
        <ele>61.092</ele>
        <time>2020-07-19T07:44:15Z</time>
      </trkpt>
      <trkpt lat="47.37076" lon="-0.97443">
        <ele>59.107</ele>
        <time>2020-07-19T07:44:16Z</time>
      </trkpt>
      <trkpt lat="47.37077" lon="-0.97435">
        <ele>58.799</ele>
        <time>2020-07-19T07:44:17Z</time>
      </trkpt>
      <trkpt lat="47.37078" lon="-0.97427">
        <ele>59.414</ele>
        <time>2020-07-19T07:44:18Z</time>
      </trkpt>
      <trkpt lat="47.37078" lon="-0.97419">
        <ele>60.316</ele>
        <time>2020-07-19T07:44:19Z</time>
      </trkpt>
      <trkpt lat="47.3708" lon="-0.9741">
        <ele>61.598</ele>
        <time>2020-07-19T07:44:20Z</time>
      </trkpt>
      <trkpt lat="47.37081" lon="-0.97402">
        <ele>61.643</ele>
        <time>2020-07-19T07:44:21Z</time>
      </trkpt>
      <trkpt lat="47.37083" lon="-0.97394">
        <ele>61.47</ele>
        <time>2020-07-19T07:44:22Z</time>
      </trkpt>
      <trkpt lat="47.37085" lon="-0.97385">
        <ele>62.103</ele>
        <time>2020-07-19T07:44:23Z</time>
      </trkpt>
      <trkpt lat="47.37085" lon="-0.97376">
        <ele>61.73</ele>
        <time>2020-07-19T07:44:24Z</time>
      </trkpt>
      <trkpt lat="47.37086" lon="-0.97367">
        <ele>61.96</ele>
        <time>2020-07-19T07:44:25Z</time>
      </trkpt>
      <trkpt lat="47.37087" lon="-0.97359">
        <ele>62.483</ele>
        <time>2020-07-19T07:44:26Z</time>
      </trkpt>
      <trkpt lat="47.37087" lon="-0.97351">
        <ele>62.78</ele>
        <time>2020-07-19T07:44:27Z</time>
      </trkpt>
      <trkpt lat="47.37089" lon="-0.97342">
        <ele>62.792</ele>
        <time>2020-07-19T07:44:28Z</time>
      </trkpt>
      <trkpt lat="47.37091" lon="-0.97333">
        <ele>62.582</ele>
        <time>2020-07-19T07:44:29Z</time>
      </trkpt>
      <trkpt lat="47.37093" lon="-0.97325">
        <ele>61.713</ele>
        <time>2020-07-19T07:44:30Z</time>
      </trkpt>
      <trkpt lat="47.37095" lon="-0.97316">
        <ele>61.408</ele>
        <time>2020-07-19T07:44:31Z</time>
      </trkpt>
      <trkpt lat="47.37097" lon="-0.9731">
        <ele>59.295</ele>
        <time>2020-07-19T07:44:32Z</time>
      </trkpt>
      <trkpt lat="47.37095" lon="-0.97302">
        <ele>60.647</ele>
        <time>2020-07-19T07:44:33Z</time>
      </trkpt>
      <trkpt lat="47.37095" lon="-0.97293">
        <ele>61.523</ele>
        <time>2020-07-19T07:44:34Z</time>
      </trkpt>
      <trkpt lat="47.37096" lon="-0.97284">
        <ele>61.173</ele>
        <time>2020-07-19T07:44:35Z</time>
      </trkpt>
      <trkpt lat="47.37097" lon="-0.97276">
        <ele>61.726</ele>
        <time>2020-07-19T07:44:36Z</time>
      </trkpt>
      <trkpt lat="47.37098" lon="-0.97268">
        <ele>61.977</ele>
        <time>2020-07-19T07:44:37Z</time>
      </trkpt>
      <trkpt lat="47.371" lon="-0.9726">
        <ele>62.231</ele>
        <time>2020-07-19T07:44:38Z</time>
      </trkpt>
      <trkpt lat="47.37103" lon="-0.97251">
        <ele>60.258</ele>
        <time>2020-07-19T07:44:39Z</time>
      </trkpt>
      <trkpt lat="47.37104" lon="-0.97242">
        <ele>61.052</ele>
        <time>2020-07-19T07:44:40Z</time>
      </trkpt>
      <trkpt lat="47.37105" lon="-0.97235">
        <ele>61.497</ele>
        <time>2020-07-19T07:44:41Z</time>
      </trkpt>
      <trkpt lat="47.37107" lon="-0.97227">
        <ele>61.721</ele>
        <time>2020-07-19T07:44:42Z</time>
      </trkpt>
      <trkpt lat="47.37107" lon="-0.97219">
        <ele>61.739</ele>
        <time>2020-07-19T07:44:43Z</time>
      </trkpt>
      <trkpt lat="47.37109" lon="-0.97211">
        <ele>62.619</ele>
        <time>2020-07-19T07:44:44Z</time>
      </trkpt>
      <trkpt lat="47.3711" lon="-0.97203">
        <ele>62.829</ele>
        <time>2020-07-19T07:44:45Z</time>
      </trkpt>
      <trkpt lat="47.3711" lon="-0.97194">
        <ele>62.606</ele>
        <time>2020-07-19T07:44:46Z</time>
      </trkpt>
      <trkpt lat="47.37111" lon="-0.97187">
        <ele>62.438</ele>
        <time>2020-07-19T07:44:47Z</time>
      </trkpt>
      <trkpt lat="47.3711" lon="-0.97178">
        <ele>63.825</ele>
        <time>2020-07-19T07:44:48Z</time>
      </trkpt>
      <trkpt lat="47.37111" lon="-0.97171">
        <ele>63.361</ele>
        <time>2020-07-19T07:44:49Z</time>
      </trkpt>
      <trkpt lat="47.37111" lon="-0.97163">
        <ele>63.693</ele>
        <time>2020-07-19T07:44:50Z</time>
      </trkpt>
      <trkpt lat="47.37113" lon="-0.97157">
        <ele>62.6</ele>
        <time>2020-07-19T07:44:51Z</time>
      </trkpt>
      <trkpt lat="47.37115" lon="-0.97149">
        <ele>61.984</ele>
        <time>2020-07-19T07:44:52Z</time>
      </trkpt>
      <trkpt lat="47.37117" lon="-0.97141">
        <ele>63.476</ele>
        <time>2020-07-19T07:44:53Z</time>
      </trkpt>
      <trkpt lat="47.37118" lon="-0.97134">
        <ele>63.777</ele>
        <time>2020-07-19T07:44:54Z</time>
      </trkpt>
      <trkpt lat="47.37119" lon="-0.97126">
        <ele>64.459</ele>
        <time>2020-07-19T07:44:55Z</time>
      </trkpt>
      <trkpt lat="47.3712" lon="-0.97118">
        <ele>63.968</ele>
        <time>2020-07-19T07:44:56Z</time>
      </trkpt>
      <trkpt lat="47.37122" lon="-0.97111">
        <ele>63.604</ele>
        <time>2020-07-19T07:44:57Z</time>
      </trkpt>
      <trkpt lat="47.37124" lon="-0.97103">
        <ele>62.583</ele>
        <time>2020-07-19T07:44:58Z</time>
      </trkpt>
      <trkpt lat="47.37126" lon="-0.97094">
        <ele>62.729</ele>
        <time>2020-07-19T07:44:59Z</time>
      </trkpt>
      <trkpt lat="47.37129" lon="-0.97086">
        <ele>63.473</ele>
        <time>2020-07-19T07:45:00Z</time>
      </trkpt>
      <trkpt lat="47.37131" lon="-0.97077">
        <ele>62.391</ele>
        <time>2020-07-19T07:45:01Z</time>
      </trkpt>
      <trkpt lat="47.37131" lon="-0.9707">
        <ele>60.966</ele>
        <time>2020-07-19T07:45:02Z</time>
      </trkpt>
      <trkpt lat="47.37132" lon="-0.97061">
        <ele>60.651</ele>
        <time>2020-07-19T07:45:03Z</time>
      </trkpt>
      <trkpt lat="47.3713" lon="-0.97052">
        <ele>59.68</ele>
        <time>2020-07-19T07:45:04Z</time>
      </trkpt>
      <trkpt lat="47.37132" lon="-0.97044">
        <ele>59.451</ele>
        <time>2020-07-19T07:45:05Z</time>
      </trkpt>
      <trkpt lat="47.37133" lon="-0.97036">
        <ele>59.813</ele>
        <time>2020-07-19T07:45:06Z</time>
      </trkpt>
      <trkpt lat="47.37136" lon="-0.97028">
        <ele>59.815</ele>
        <time>2020-07-19T07:45:07Z</time>
      </trkpt>
      <trkpt lat="47.37138" lon="-0.97019">
        <ele>59.178</ele>
        <time>2020-07-19T07:45:08Z</time>
      </trkpt>
      <trkpt lat="47.37138" lon="-0.97012">
        <ele>58.458</ele>
        <time>2020-07-19T07:45:09Z</time>
      </trkpt>
      <trkpt lat="47.37139" lon="-0.97003">
        <ele>57.771</ele>
        <time>2020-07-19T07:45:10Z</time>
      </trkpt>
      <trkpt lat="47.3714" lon="-0.96995">
        <ele>57.973</ele>
        <time>2020-07-19T07:45:11Z</time>
      </trkpt>
      <trkpt lat="47.37142" lon="-0.96987">
        <ele>58.296</ele>
        <time>2020-07-19T07:45:12Z</time>
      </trkpt>
      <trkpt lat="47.37144" lon="-0.96978">
        <ele>59.126</ele>
        <time>2020-07-19T07:45:13Z</time>
      </trkpt>
      <trkpt lat="47.37145" lon="-0.9697">
        <ele>59.462</ele>
        <time>2020-07-19T07:45:14Z</time>
      </trkpt>
      <trkpt lat="47.37146" lon="-0.96962">
        <ele>59.668</ele>
        <time>2020-07-19T07:45:15Z</time>
      </trkpt>
      <trkpt lat="47.37147" lon="-0.96953">
        <ele>59.507</ele>
        <time>2020-07-19T07:45:16Z</time>
      </trkpt>
      <trkpt lat="47.37149" lon="-0.96945">
        <ele>60.032</ele>
        <time>2020-07-19T07:45:17Z</time>
      </trkpt>
      <trkpt lat="47.37151" lon="-0.96936">
        <ele>60.352</ele>
        <time>2020-07-19T07:45:18Z</time>
      </trkpt>
      <trkpt lat="47.37152" lon="-0.96929">
        <ele>59.47</ele>
        <time>2020-07-19T07:45:19Z</time>
      </trkpt>
      <trkpt lat="47.37154" lon="-0.9692">
        <ele>60.343</ele>
        <time>2020-07-19T07:45:20Z</time>
      </trkpt>
      <trkpt lat="47.37155" lon="-0.96911">
        <ele>60.691</ele>
        <time>2020-07-19T07:45:21Z</time>
      </trkpt>
      <trkpt lat="47.37157" lon="-0.96903">
        <ele>60.724</ele>
        <time>2020-07-19T07:45:22Z</time>
      </trkpt>
      <trkpt lat="47.37158" lon="-0.96894">
        <ele>60.777</ele>
        <time>2020-07-19T07:45:23Z</time>
      </trkpt>
      <trkpt lat="47.3716" lon="-0.96886">
        <ele>76.142</ele>
        <time>2020-07-19T07:45:24Z</time>
      </trkpt>
      <trkpt lat="47.37162" lon="-0.96876">
        <ele>72.088</ele>
        <time>2020-07-19T07:45:25Z</time>
      </trkpt>
      <trkpt lat="47.37163" lon="-0.96868">
        <ele>69.603</ele>
        <time>2020-07-19T07:45:26Z</time>
      </trkpt>
      <trkpt lat="47.37165" lon="-0.96859">
        <ele>67.778</ele>
        <time>2020-07-19T07:45:27Z</time>
      </trkpt>
      <trkpt lat="47.37166" lon="-0.9685">
        <ele>66.37</ele>
        <time>2020-07-19T07:45:28Z</time>
      </trkpt>
      <trkpt lat="47.37168" lon="-0.96841">
        <ele>65.702</ele>
        <time>2020-07-19T07:45:29Z</time>
      </trkpt>
      <trkpt lat="47.3717" lon="-0.96832">
        <ele>66.33</ele>
        <time>2020-07-19T07:45:30Z</time>
      </trkpt>
      <trkpt lat="47.37169" lon="-0.96824">
        <ele>67.368</ele>
        <time>2020-07-19T07:45:31Z</time>
      </trkpt>
      <trkpt lat="47.37169" lon="-0.96816">
        <ele>65.854</ele>
        <time>2020-07-19T07:45:32Z</time>
      </trkpt>
      <trkpt lat="47.37171" lon="-0.96806">
        <ele>65.071</ele>
        <time>2020-07-19T07:45:33Z</time>
      </trkpt>
      <trkpt lat="47.37172" lon="-0.96799">
        <ele>63.326</ele>
        <time>2020-07-19T07:45:34Z</time>
      </trkpt>
      <trkpt lat="47.37175" lon="-0.96789">
        <ele>64.095</ele>
        <time>2020-07-19T07:45:35Z</time>
      </trkpt>
      <trkpt lat="47.37177" lon="-0.9678">
        <ele>62.677</ele>
        <time>2020-07-19T07:45:36Z</time>
      </trkpt>
      <trkpt lat="47.37179" lon="-0.96772">
        <ele>63.892</ele>
        <time>2020-07-19T07:45:37Z</time>
      </trkpt>
      <trkpt lat="47.3718" lon="-0.96763">
        <ele>63.457</ele>
        <time>2020-07-19T07:45:38Z</time>
      </trkpt>
      <trkpt lat="47.37181" lon="-0.96754">
        <ele>63.692</ele>
        <time>2020-07-19T07:45:39Z</time>
      </trkpt>
      <trkpt lat="47.37183" lon="-0.96745">
        <ele>64.512</ele>
        <time>2020-07-19T07:45:40Z</time>
      </trkpt>
      <trkpt lat="47.37184" lon="-0.96735">
        <ele>64.633</ele>
        <time>2020-07-19T07:45:41Z</time>
      </trkpt>
      <trkpt lat="47.37185" lon="-0.96725">
        <ele>65.168</ele>
        <time>2020-07-19T07:45:42Z</time>
      </trkpt>
      <trkpt lat="47.37186" lon="-0.96717">
        <ele>64.51</ele>
        <time>2020-07-19T07:45:43Z</time>
      </trkpt>
      <trkpt lat="47.37187" lon="-0.96709">
        <ele>63.608</ele>
        <time>2020-07-19T07:45:44Z</time>
      </trkpt>
      <trkpt lat="47.37189" lon="-0.967">
        <ele>64.031</ele>
        <time>2020-07-19T07:45:45Z</time>
      </trkpt>
      <trkpt lat="47.37189" lon="-0.96692">
        <ele>63.388</ele>
        <time>2020-07-19T07:45:46Z</time>
      </trkpt>
      <trkpt lat="47.37191" lon="-0.96683">
        <ele>63.754</ele>
        <time>2020-07-19T07:45:47Z</time>
      </trkpt>
      <trkpt lat="47.37193" lon="-0.96674">
        <ele>64.221</ele>
        <time>2020-07-19T07:45:48Z</time>
      </trkpt>
      <trkpt lat="47.37192" lon="-0.96664">
        <ele>65.397</ele>
        <time>2020-07-19T07:45:49Z</time>
      </trkpt>
      <trkpt lat="47.37194" lon="-0.96655">
        <ele>64.423</ele>
        <time>2020-07-19T07:45:50Z</time>
      </trkpt>
      <trkpt lat="47.37196" lon="-0.96645">
        <ele>63.591</ele>
        <time>2020-07-19T07:45:51Z</time>
      </trkpt>
      <trkpt lat="47.37196" lon="-0.96636">
        <ele>63.191</ele>
        <time>2020-07-19T07:45:52Z</time>
      </trkpt>
      <trkpt lat="47.37198" lon="-0.96627">
        <ele>61.992</ele>
        <time>2020-07-19T07:45:53Z</time>
      </trkpt>
      <trkpt lat="47.372" lon="-0.96618">
        <ele>61.424</ele>
        <time>2020-07-19T07:45:54Z</time>
      </trkpt>
      <trkpt lat="47.37202" lon="-0.96609">
        <ele>61.896</ele>
        <time>2020-07-19T07:45:55Z</time>
      </trkpt>
      <trkpt lat="47.37202" lon="-0.966">
        <ele>61.647</ele>
        <time>2020-07-19T07:45:56Z</time>
      </trkpt>
      <trkpt lat="47.37204" lon="-0.9659">
        <ele>62.141</ele>
        <time>2020-07-19T07:45:57Z</time>
      </trkpt>
      <trkpt lat="47.37205" lon="-0.96581">
        <ele>63.219</ele>
        <time>2020-07-19T07:45:58Z</time>
      </trkpt>
      <trkpt lat="47.37207" lon="-0.96572">
        <ele>62.869</ele>
        <time>2020-07-19T07:45:59Z</time>
      </trkpt>
      <trkpt lat="47.37209" lon="-0.96563">
        <ele>63.192</ele>
        <time>2020-07-19T07:46:00Z</time>
      </trkpt>
      <trkpt lat="47.3721" lon="-0.96554">
        <ele>63.593</ele>
        <time>2020-07-19T07:46:01Z</time>
      </trkpt>
      <trkpt lat="47.37211" lon="-0.96545">
        <ele>63.206</ele>
        <time>2020-07-19T07:46:02Z</time>
      </trkpt>
      <trkpt lat="47.37213" lon="-0.96536">
        <ele>63.187</ele>
        <time>2020-07-19T07:46:03Z</time>
      </trkpt>
      <trkpt lat="47.37214" lon="-0.96526">
        <ele>63.087</ele>
        <time>2020-07-19T07:46:04Z</time>
      </trkpt>
      <trkpt lat="47.37216" lon="-0.96517">
        <ele>62.559</ele>
        <time>2020-07-19T07:46:05Z</time>
      </trkpt>
      <trkpt lat="47.37218" lon="-0.96508">
        <ele>62.271</ele>
        <time>2020-07-19T07:46:06Z</time>
      </trkpt>
      <trkpt lat="47.37219" lon="-0.96499">
        <ele>62.402</ele>
        <time>2020-07-19T07:46:07Z</time>
      </trkpt>
      <trkpt lat="47.3722" lon="-0.9649">
        <ele>61.805</ele>
        <time>2020-07-19T07:46:08Z</time>
      </trkpt>
      <trkpt lat="47.37222" lon="-0.9648">
        <ele>62.241</ele>
        <time>2020-07-19T07:46:09Z</time>
      </trkpt>
      <trkpt lat="47.37224" lon="-0.96471">
        <ele>62.397</ele>
        <time>2020-07-19T07:46:10Z</time>
      </trkpt>
      <trkpt lat="47.37224" lon="-0.96463">
        <ele>62.388</ele>
        <time>2020-07-19T07:46:11Z</time>
      </trkpt>
      <trkpt lat="47.37226" lon="-0.96454">
        <ele>61.992</ele>
        <time>2020-07-19T07:46:12Z</time>
      </trkpt>
      <trkpt lat="47.37228" lon="-0.96445">
        <ele>62.395</ele>
        <time>2020-07-19T07:46:13Z</time>
      </trkpt>
      <trkpt lat="47.37229" lon="-0.96436">
        <ele>62.404</ele>
        <time>2020-07-19T07:46:14Z</time>
      </trkpt>
      <trkpt lat="47.37229" lon="-0.96426">
        <ele>62.541</ele>
        <time>2020-07-19T07:46:15Z</time>
      </trkpt>
      <trkpt lat="47.37231" lon="-0.96416">
        <ele>61.896</ele>
        <time>2020-07-19T07:46:16Z</time>
      </trkpt>
      <trkpt lat="47.37232" lon="-0.96407">
        <ele>62.551</ele>
        <time>2020-07-19T07:46:17Z</time>
      </trkpt>
      <trkpt lat="47.37233" lon="-0.96398">
        <ele>63.389</ele>
        <time>2020-07-19T07:46:18Z</time>
      </trkpt>
      <trkpt lat="47.37234" lon="-0.96389">
        <ele>63.947</ele>
        <time>2020-07-19T07:46:19Z</time>
      </trkpt>
      <trkpt lat="47.37236" lon="-0.9638">
        <ele>64.253</ele>
        <time>2020-07-19T07:46:20Z</time>
      </trkpt>
      <trkpt lat="47.37237" lon="-0.96371">
        <ele>64.637</ele>
        <time>2020-07-19T07:46:21Z</time>
      </trkpt>
      <trkpt lat="47.37238" lon="-0.96362">
        <ele>65.589</ele>
        <time>2020-07-19T07:46:22Z</time>
      </trkpt>
      <trkpt lat="47.3724" lon="-0.96353">
        <ele>64.441</ele>
        <time>2020-07-19T07:46:23Z</time>
      </trkpt>
      <trkpt lat="47.37242" lon="-0.96343">
        <ele>65.006</ele>
        <time>2020-07-19T07:46:24Z</time>
      </trkpt>
      <trkpt lat="47.37244" lon="-0.96334">
        <ele>65.004</ele>
        <time>2020-07-19T07:46:25Z</time>
      </trkpt>
      <trkpt lat="47.37245" lon="-0.96325">
        <ele>65.021</ele>
        <time>2020-07-19T07:46:26Z</time>
      </trkpt>
      <trkpt lat="47.37247" lon="-0.96316">
        <ele>65.466</ele>
        <time>2020-07-19T07:46:27Z</time>
      </trkpt>
      <trkpt lat="47.37248" lon="-0.96308">
        <ele>65.533</ele>
        <time>2020-07-19T07:46:28Z</time>
      </trkpt>
      <trkpt lat="47.37249" lon="-0.96299">
        <ele>65.581</ele>
        <time>2020-07-19T07:46:29Z</time>
      </trkpt>
      <trkpt lat="47.3725" lon="-0.9629">
        <ele>66.188</ele>
        <time>2020-07-19T07:46:30Z</time>
      </trkpt>
      <trkpt lat="47.3725" lon="-0.96281">
        <ele>64.745</ele>
        <time>2020-07-19T07:46:31Z</time>
      </trkpt>
      <trkpt lat="47.37252" lon="-0.96271">
        <ele>65.632</ele>
        <time>2020-07-19T07:46:32Z</time>
      </trkpt>
      <trkpt lat="47.37254" lon="-0.96262">
        <ele>65.757</ele>
        <time>2020-07-19T07:46:33Z</time>
      </trkpt>
      <trkpt lat="47.37257" lon="-0.96253">
        <ele>66.822</ele>
        <time>2020-07-19T07:46:34Z</time>
      </trkpt>
      <trkpt lat="47.37259" lon="-0.96244">
        <ele>67.026</ele>
        <time>2020-07-19T07:46:35Z</time>
      </trkpt>
      <trkpt lat="47.3726" lon="-0.96234">
        <ele>68.203</ele>
        <time>2020-07-19T07:46:36Z</time>
      </trkpt>
      <trkpt lat="47.37262" lon="-0.96226">
        <ele>67.647</ele>
        <time>2020-07-19T07:46:37Z</time>
      </trkpt>
      <trkpt lat="47.37264" lon="-0.96217">
        <ele>68.237</ele>
        <time>2020-07-19T07:46:38Z</time>
      </trkpt>
      <trkpt lat="47.37263" lon="-0.96208">
        <ele>68.137</ele>
        <time>2020-07-19T07:46:39Z</time>
      </trkpt>
      <trkpt lat="47.37265" lon="-0.96199">
        <ele>68.374</ele>
        <time>2020-07-19T07:46:40Z</time>
      </trkpt>
      <trkpt lat="47.37267" lon="-0.9619">
        <ele>68.46</ele>
        <time>2020-07-19T07:46:41Z</time>
      </trkpt>
      <trkpt lat="47.37265" lon="-0.96183">
        <ele>69.194</ele>
        <time>2020-07-19T07:46:42Z</time>
      </trkpt>
      <trkpt lat="47.37268" lon="-0.96174">
        <ele>69.543</ele>
        <time>2020-07-19T07:46:43Z</time>
      </trkpt>
      <trkpt lat="47.37269" lon="-0.96165">
        <ele>70.781</ele>
        <time>2020-07-19T07:46:44Z</time>
      </trkpt>
      <trkpt lat="47.37272" lon="-0.96156">
        <ele>71.551</ele>
        <time>2020-07-19T07:46:45Z</time>
      </trkpt>
      <trkpt lat="47.37275" lon="-0.96147">
        <ele>71.359</ele>
        <time>2020-07-19T07:46:46Z</time>
      </trkpt>
      <trkpt lat="47.37278" lon="-0.96137">
        <ele>71.772</ele>
        <time>2020-07-19T07:46:47Z</time>
      </trkpt>
      <trkpt lat="47.37273" lon="-0.96132">
        <ele>73.677</ele>
        <time>2020-07-19T07:46:48Z</time>
      </trkpt>
      <trkpt lat="47.37273" lon="-0.96125">
        <ele>75.418</ele>
        <time>2020-07-19T07:46:49Z</time>
      </trkpt>
      <trkpt lat="47.37275" lon="-0.96116">
        <ele>77.092</ele>
        <time>2020-07-19T07:46:50Z</time>
      </trkpt>
      <trkpt lat="47.37285" lon="-0.96102">
        <ele>72.74</ele>
        <time>2020-07-19T07:46:51Z</time>
      </trkpt>
      <trkpt lat="47.3729" lon="-0.96092">
        <ele>71.62</ele>
        <time>2020-07-19T07:46:52Z</time>
      </trkpt>
      <trkpt lat="47.37293" lon="-0.96084">
        <ele>71.564</ele>
        <time>2020-07-19T07:46:53Z</time>
      </trkpt>
      <trkpt lat="47.37296" lon="-0.96076">
        <ele>71.591</ele>
        <time>2020-07-19T07:46:54Z</time>
      </trkpt>
      <trkpt lat="47.37301" lon="-0.96068">
        <ele>71.585</ele>
        <time>2020-07-19T07:46:55Z</time>
      </trkpt>
      <trkpt lat="47.37301" lon="-0.96062">
        <ele>72.883</ele>
        <time>2020-07-19T07:46:56Z</time>
      </trkpt>
      <trkpt lat="47.37305" lon="-0.96054">
        <ele>72.94</ele>
        <time>2020-07-19T07:46:57Z</time>
      </trkpt>
      <trkpt lat="47.3731" lon="-0.96044">
        <ele>74.667</ele>
        <time>2020-07-19T07:46:58Z</time>
      </trkpt>
      <trkpt lat="47.37314" lon="-0.96037">
        <ele>73.99</ele>
        <time>2020-07-19T07:46:59Z</time>
      </trkpt>
      <trkpt lat="47.37317" lon="-0.96031">
        <ele>73.567</ele>
        <time>2020-07-19T07:47:00Z</time>
      </trkpt>
      <trkpt lat="47.37321" lon="-0.96022">
        <ele>74.224</ele>
        <time>2020-07-19T07:47:01Z</time>
      </trkpt>
      <trkpt lat="47.37323" lon="-0.96014">
        <ele>74.413</ele>
        <time>2020-07-19T07:47:02Z</time>
      </trkpt>
      <trkpt lat="47.37327" lon="-0.96005">
        <ele>72.963</ele>
        <time>2020-07-19T07:47:03Z</time>
      </trkpt>
      <trkpt lat="47.37331" lon="-0.95997">
        <ele>73.564</ele>
        <time>2020-07-19T07:47:04Z</time>
      </trkpt>
      <trkpt lat="47.37335" lon="-0.95988">
        <ele>72.966</ele>
        <time>2020-07-19T07:47:05Z</time>
      </trkpt>
      <trkpt lat="47.37339" lon="-0.95979">
        <ele>72.983</ele>
        <time>2020-07-19T07:47:06Z</time>
      </trkpt>
      <trkpt lat="47.37343" lon="-0.95971">
        <ele>71.525</ele>
        <time>2020-07-19T07:47:07Z</time>
      </trkpt>
      <trkpt lat="47.37346" lon="-0.95962">
        <ele>72.027</ele>
        <time>2020-07-19T07:47:08Z</time>
      </trkpt>
      <trkpt lat="47.3735" lon="-0.95953">
        <ele>71.632</ele>
        <time>2020-07-19T07:47:09Z</time>
      </trkpt>
      <trkpt lat="47.37352" lon="-0.95948">
        <ele>68.465</ele>
        <time>2020-07-19T07:47:10Z</time>
      </trkpt>
      <trkpt lat="47.37354" lon="-0.95939">
        <ele>68.576</ele>
        <time>2020-07-19T07:47:11Z</time>
      </trkpt>
      <trkpt lat="47.37358" lon="-0.95932">
        <ele>66.932</ele>
        <time>2020-07-19T07:47:12Z</time>
      </trkpt>
      <trkpt lat="47.37361" lon="-0.95924">
        <ele>66.203</ele>
        <time>2020-07-19T07:47:13Z</time>
      </trkpt>
      <trkpt lat="47.37364" lon="-0.95915">
        <ele>66.264</ele>
        <time>2020-07-19T07:47:14Z</time>
      </trkpt>
      <trkpt lat="47.37367" lon="-0.95905">
        <ele>66.902</ele>
        <time>2020-07-19T07:47:15Z</time>
      </trkpt>
      <trkpt lat="47.37371" lon="-0.95895">
        <ele>67.546</ele>
        <time>2020-07-19T07:47:16Z</time>
      </trkpt>
      <trkpt lat="47.37374" lon="-0.95887">
        <ele>68.047</ele>
        <time>2020-07-19T07:47:17Z</time>
      </trkpt>
      <trkpt lat="47.37378" lon="-0.9588">
        <ele>67.64</ele>
        <time>2020-07-19T07:47:18Z</time>
      </trkpt>
      <trkpt lat="47.37381" lon="-0.95873">
        <ele>66.997</ele>
        <time>2020-07-19T07:47:19Z</time>
      </trkpt>
      <trkpt lat="47.37385" lon="-0.95864">
        <ele>67.77</ele>
        <time>2020-07-19T07:47:20Z</time>
      </trkpt>
      <trkpt lat="47.37388" lon="-0.95855">
        <ele>68.188</ele>
        <time>2020-07-19T07:47:21Z</time>
      </trkpt>
      <trkpt lat="47.37391" lon="-0.95847">
        <ele>68.637</ele>
        <time>2020-07-19T07:47:22Z</time>
      </trkpt>
      <trkpt lat="47.37394" lon="-0.95838">
        <ele>68.877</ele>
        <time>2020-07-19T07:47:23Z</time>
      </trkpt>
      <trkpt lat="47.37397" lon="-0.95829">
        <ele>69.133</ele>
        <time>2020-07-19T07:47:24Z</time>
      </trkpt>
      <trkpt lat="47.374" lon="-0.95821">
        <ele>68.389</ele>
        <time>2020-07-19T07:47:25Z</time>
      </trkpt>
      <trkpt lat="47.37404" lon="-0.95812">
        <ele>68.077</ele>
        <time>2020-07-19T07:47:26Z</time>
      </trkpt>
      <trkpt lat="47.37406" lon="-0.95803">
        <ele>67.66</ele>
        <time>2020-07-19T07:47:27Z</time>
      </trkpt>
      <trkpt lat="47.37409" lon="-0.95795">
        <ele>68.451</ele>
        <time>2020-07-19T07:47:28Z</time>
      </trkpt>
      <trkpt lat="47.37412" lon="-0.95786">
        <ele>69.328</ele>
        <time>2020-07-19T07:47:29Z</time>
      </trkpt>
      <trkpt lat="47.37415" lon="-0.95777">
        <ele>69.529</ele>
        <time>2020-07-19T07:47:30Z</time>
      </trkpt>
      <trkpt lat="47.37419" lon="-0.95768">
        <ele>71.535</ele>
        <time>2020-07-19T07:47:31Z</time>
      </trkpt>
      <trkpt lat="47.37421" lon="-0.95759">
        <ele>71.504</ele>
        <time>2020-07-19T07:47:32Z</time>
      </trkpt>
      <trkpt lat="47.37425" lon="-0.9575">
        <ele>72.087</ele>
        <time>2020-07-19T07:47:33Z</time>
      </trkpt>
      <trkpt lat="47.37428" lon="-0.95743">
        <ele>71.3</ele>
        <time>2020-07-19T07:47:34Z</time>
      </trkpt>
      <trkpt lat="47.37431" lon="-0.95734">
        <ele>71.071</ele>
        <time>2020-07-19T07:47:35Z</time>
      </trkpt>
      <trkpt lat="47.37433" lon="-0.95725">
        <ele>70.175</ele>
        <time>2020-07-19T07:47:36Z</time>
      </trkpt>
      <trkpt lat="47.37437" lon="-0.95716">
        <ele>69.243</ele>
        <time>2020-07-19T07:47:37Z</time>
      </trkpt>
      <trkpt lat="47.37442" lon="-0.95707">
        <ele>69.75</ele>
        <time>2020-07-19T07:47:38Z</time>
      </trkpt>
      <trkpt lat="47.37445" lon="-0.95699">
        <ele>68.771</ele>
        <time>2020-07-19T07:47:39Z</time>
      </trkpt>
      <trkpt lat="47.37449" lon="-0.95691">
        <ele>69.235</ele>
        <time>2020-07-19T07:47:40Z</time>
      </trkpt>
      <trkpt lat="47.37451" lon="-0.95682">
        <ele>69.249</ele>
        <time>2020-07-19T07:47:41Z</time>
      </trkpt>
      <trkpt lat="47.37452" lon="-0.95674">
        <ele>69.166</ele>
        <time>2020-07-19T07:47:42Z</time>
      </trkpt>
      <trkpt lat="47.37455" lon="-0.95665">
        <ele>68.94</ele>
        <time>2020-07-19T07:47:43Z</time>
      </trkpt>
      <trkpt lat="47.37459" lon="-0.95656">
        <ele>69.494</ele>
        <time>2020-07-19T07:47:44Z</time>
      </trkpt>
      <trkpt lat="47.37461" lon="-0.95647">
        <ele>70.917</ele>
        <time>2020-07-19T07:47:45Z</time>
      </trkpt>
      <trkpt lat="47.37464" lon="-0.95639">
        <ele>69.387</ele>
        <time>2020-07-19T07:47:46Z</time>
      </trkpt>
      <trkpt lat="47.37467" lon="-0.9563">
        <ele>70.14</ele>
        <time>2020-07-19T07:47:47Z</time>
      </trkpt>
      <trkpt lat="47.3747" lon="-0.95622">
        <ele>70.508</ele>
        <time>2020-07-19T07:47:48Z</time>
      </trkpt>
      <trkpt lat="47.37473" lon="-0.95613">
        <ele>69.527</ele>
        <time>2020-07-19T07:47:49Z</time>
      </trkpt>
      <trkpt lat="47.37476" lon="-0.95604">
        <ele>69.372</ele>
        <time>2020-07-19T07:47:50Z</time>
      </trkpt>
      <trkpt lat="47.37479" lon="-0.95595">
        <ele>69.52</ele>
        <time>2020-07-19T07:47:51Z</time>
      </trkpt>
      <trkpt lat="47.37483" lon="-0.95586">
        <ele>71.413</ele>
        <time>2020-07-19T07:47:52Z</time>
      </trkpt>
      <trkpt lat="47.37486" lon="-0.95578">
        <ele>71.438</ele>
        <time>2020-07-19T07:47:53Z</time>
      </trkpt>
      <trkpt lat="47.3749" lon="-0.95569">
        <ele>70.539</ele>
        <time>2020-07-19T07:47:54Z</time>
      </trkpt>
      <trkpt lat="47.37492" lon="-0.95561">
        <ele>69.663</ele>
        <time>2020-07-19T07:47:55Z</time>
      </trkpt>
      <trkpt lat="47.37497" lon="-0.95552">
        <ele>71.682</ele>
        <time>2020-07-19T07:47:56Z</time>
      </trkpt>
      <trkpt lat="47.375" lon="-0.95543">
        <ele>71.369</ele>
        <time>2020-07-19T07:47:57Z</time>
      </trkpt>
      <trkpt lat="47.37502" lon="-0.95536">
        <ele>70.96</ele>
        <time>2020-07-19T07:47:58Z</time>
      </trkpt>
      <trkpt lat="47.37506" lon="-0.95528">
        <ele>71.011</ele>
        <time>2020-07-19T07:47:59Z</time>
      </trkpt>
      <trkpt lat="47.37509" lon="-0.9552">
        <ele>71.783</ele>
        <time>2020-07-19T07:48:00Z</time>
      </trkpt>
      <trkpt lat="47.37512" lon="-0.9551">
        <ele>73.378</ele>
        <time>2020-07-19T07:48:01Z</time>
      </trkpt>
      <trkpt lat="47.37515" lon="-0.95502">
        <ele>73.793</ele>
        <time>2020-07-19T07:48:02Z</time>
      </trkpt>
      <trkpt lat="47.37517" lon="-0.95493">
        <ele>73.062</ele>
        <time>2020-07-19T07:48:03Z</time>
      </trkpt>
      <trkpt lat="47.37521" lon="-0.95484">
        <ele>74.036</ele>
        <time>2020-07-19T07:48:04Z</time>
      </trkpt>
      <trkpt lat="47.37526" lon="-0.95475">
        <ele>74.14</ele>
        <time>2020-07-19T07:48:05Z</time>
      </trkpt>
      <trkpt lat="47.37528" lon="-0.95468">
        <ele>72.78</ele>
        <time>2020-07-19T07:48:06Z</time>
      </trkpt>
      <trkpt lat="47.37531" lon="-0.9546">
        <ele>72.946</ele>
        <time>2020-07-19T07:48:07Z</time>
      </trkpt>
      <trkpt lat="47.37533" lon="-0.95453">
        <ele>71.381</ele>
        <time>2020-07-19T07:48:08Z</time>
      </trkpt>
      <trkpt lat="47.37536" lon="-0.95445">
        <ele>70.307</ele>
        <time>2020-07-19T07:48:09Z</time>
      </trkpt>
      <trkpt lat="47.37539" lon="-0.95436">
        <ele>70.194</ele>
        <time>2020-07-19T07:48:10Z</time>
      </trkpt>
      <trkpt lat="47.37541" lon="-0.95427">
        <ele>69.528</ele>
        <time>2020-07-19T07:48:11Z</time>
      </trkpt>
      <trkpt lat="47.37544" lon="-0.95419">
        <ele>69.839</ele>
        <time>2020-07-19T07:48:12Z</time>
      </trkpt>
      <trkpt lat="47.37548" lon="-0.95411">
        <ele>69.288</ele>
        <time>2020-07-19T07:48:13Z</time>
      </trkpt>
      <trkpt lat="47.37549" lon="-0.95403">
        <ele>67.39</ele>
        <time>2020-07-19T07:48:14Z</time>
      </trkpt>
      <trkpt lat="47.37552" lon="-0.95395">
        <ele>68.015</ele>
        <time>2020-07-19T07:48:15Z</time>
      </trkpt>
      <trkpt lat="47.37553" lon="-0.95386">
        <ele>69.538</ele>
        <time>2020-07-19T07:48:16Z</time>
      </trkpt>
      <trkpt lat="47.37556" lon="-0.95378">
        <ele>69.116</ele>
        <time>2020-07-19T07:48:17Z</time>
      </trkpt>
      <trkpt lat="47.3756" lon="-0.9537">
        <ele>69.723</ele>
        <time>2020-07-19T07:48:18Z</time>
      </trkpt>
      <trkpt lat="47.37563" lon="-0.95361">
        <ele>70.425</ele>
        <time>2020-07-19T07:48:19Z</time>
      </trkpt>
      <trkpt lat="47.37567" lon="-0.95353">
        <ele>70.829</ele>
        <time>2020-07-19T07:48:20Z</time>
      </trkpt>
      <trkpt lat="47.3757" lon="-0.95344">
        <ele>70.887</ele>
        <time>2020-07-19T07:48:21Z</time>
      </trkpt>
      <trkpt lat="47.37574" lon="-0.95337">
        <ele>70.265</ele>
        <time>2020-07-19T07:48:22Z</time>
      </trkpt>
      <trkpt lat="47.37577" lon="-0.9533">
        <ele>68.669</ele>
        <time>2020-07-19T07:48:23Z</time>
      </trkpt>
      <trkpt lat="47.3758" lon="-0.95322">
        <ele>68.218</ele>
        <time>2020-07-19T07:48:24Z</time>
      </trkpt>
      <trkpt lat="47.37584" lon="-0.95315">
        <ele>67.818</ele>
        <time>2020-07-19T07:48:25Z</time>
      </trkpt>
      <trkpt lat="47.37587" lon="-0.95308">
        <ele>67.281</ele>
        <time>2020-07-19T07:48:26Z</time>
      </trkpt>
      <trkpt lat="47.37589" lon="-0.953">
        <ele>67.036</ele>
        <time>2020-07-19T07:48:27Z</time>
      </trkpt>
      <trkpt lat="47.37592" lon="-0.95294">
        <ele>66.966</ele>
        <time>2020-07-19T07:48:28Z</time>
      </trkpt>
      <trkpt lat="47.37594" lon="-0.95288">
        <ele>66.868</ele>
        <time>2020-07-19T07:48:29Z</time>
      </trkpt>
      <trkpt lat="47.37597" lon="-0.95283">
        <ele>66.5</ele>
        <time>2020-07-19T07:48:30Z</time>
      </trkpt>
      <trkpt lat="47.37599" lon="-0.95279">
        <ele>66.096</ele>
        <time>2020-07-19T07:48:31Z</time>
      </trkpt>
      <trkpt lat="47.37598" lon="-0.95275">
        <ele>66.518</ele>
        <time>2020-07-19T07:48:32Z</time>
      </trkpt>
      <trkpt lat="47.37599" lon="-0.95273">
        <ele>65.918</ele>
        <time>2020-07-19T07:48:33Z</time>
      </trkpt>
      <trkpt lat="47.37601" lon="-0.95271">
        <ele>65.948</ele>
        <time>2020-07-19T07:48:34Z</time>
      </trkpt>
      <trkpt lat="47.37603" lon="-0.95271">
        <ele>65.541</ele>
        <time>2020-07-19T07:48:35Z</time>
      </trkpt>
      <trkpt lat="47.37606" lon="-0.95271">
        <ele>66.094</ele>
        <time>2020-07-19T07:48:36Z</time>
      </trkpt>
      <trkpt lat="47.37605" lon="-0.95273">
        <ele>66.413</ele>
        <time>2020-07-19T07:48:37Z</time>
      </trkpt>
      <trkpt lat="47.37607" lon="-0.95275">
        <ele>65.857</ele>
        <time>2020-07-19T07:48:38Z</time>
      </trkpt>
      <trkpt lat="47.37609" lon="-0.95274">
        <ele>67.278</ele>
        <time>2020-07-19T07:48:39Z</time>
      </trkpt>
      <trkpt lat="47.37612" lon="-0.95273">
        <ele>65.141</ele>
        <time>2020-07-19T07:48:40Z</time>
      </trkpt>
      <trkpt lat="47.37614" lon="-0.95271">
        <ele>65.394</ele>
        <time>2020-07-19T07:48:41Z</time>
      </trkpt>
      <trkpt lat="47.37616" lon="-0.95269">
        <ele>65.35</ele>
        <time>2020-07-19T07:48:42Z</time>
      </trkpt>
      <trkpt lat="47.37619" lon="-0.95265">
        <ele>65.299</ele>
        <time>2020-07-19T07:48:43Z</time>
      </trkpt>
      <trkpt lat="47.37622" lon="-0.95261">
        <ele>64.137</ele>
        <time>2020-07-19T07:48:44Z</time>
      </trkpt>
      <trkpt lat="47.37625" lon="-0.95256">
        <ele>63.313</ele>
        <time>2020-07-19T07:48:45Z</time>
      </trkpt>
      <trkpt lat="47.37627" lon="-0.95251">
        <ele>63.626</ele>
        <time>2020-07-19T07:48:46Z</time>
      </trkpt>
      <trkpt lat="47.37629" lon="-0.95246">
        <ele>64.275</ele>
        <time>2020-07-19T07:48:47Z</time>
      </trkpt>
      <trkpt lat="47.37632" lon="-0.95242">
        <ele>64.667</ele>
        <time>2020-07-19T07:48:48Z</time>
      </trkpt>
      <trkpt lat="47.37635" lon="-0.95238">
        <ele>64.781</ele>
        <time>2020-07-19T07:48:49Z</time>
      </trkpt>
      <trkpt lat="47.37637" lon="-0.95234">
        <ele>64.368</ele>
        <time>2020-07-19T07:48:50Z</time>
      </trkpt>
      <trkpt lat="47.3764" lon="-0.95231">
        <ele>65.096</ele>
        <time>2020-07-19T07:48:51Z</time>
      </trkpt>
      <trkpt lat="47.37642" lon="-0.95229">
        <ele>65.708</ele>
        <time>2020-07-19T07:48:52Z</time>
      </trkpt>
      <trkpt lat="47.37646" lon="-0.95227">
        <ele>67.422</ele>
        <time>2020-07-19T07:48:53Z</time>
      </trkpt>
      <trkpt lat="47.3765" lon="-0.95226">
        <ele>68.093</ele>
        <time>2020-07-19T07:48:54Z</time>
      </trkpt>
      <trkpt lat="47.37654" lon="-0.95226">
        <ele>67.452</ele>
        <time>2020-07-19T07:48:55Z</time>
      </trkpt>
      <trkpt lat="47.37658" lon="-0.95227">
        <ele>65.761</ele>
        <time>2020-07-19T07:48:56Z</time>
      </trkpt>
      <trkpt lat="47.37662" lon="-0.95227">
        <ele>64.953</ele>
        <time>2020-07-19T07:48:57Z</time>
      </trkpt>
      <trkpt lat="47.37666" lon="-0.95225">
        <ele>65.46</ele>
        <time>2020-07-19T07:48:58Z</time>
      </trkpt>
      <trkpt lat="47.37668" lon="-0.95223">
        <ele>64.815</ele>
        <time>2020-07-19T07:48:59Z</time>
      </trkpt>
      <trkpt lat="47.37671" lon="-0.95221">
        <ele>65.444</ele>
        <time>2020-07-19T07:49:00Z</time>
      </trkpt>
      <trkpt lat="47.37673" lon="-0.95219">
        <ele>64.303</ele>
        <time>2020-07-19T07:49:01Z</time>
      </trkpt>
      <trkpt lat="47.37674" lon="-0.95219">
        <ele>63.327</ele>
        <time>2020-07-19T07:49:02Z</time>
      </trkpt>
      <trkpt lat="47.37674" lon="-0.95221">
        <ele>62.057</ele>
        <time>2020-07-19T07:49:03Z</time>
      </trkpt>
      <trkpt lat="47.37673" lon="-0.95223">
        <ele>62.45</ele>
        <time>2020-07-19T07:49:04Z</time>
      </trkpt>
      <trkpt lat="47.37673" lon="-0.95224">
        <ele>61.868</ele>
        <time>2020-07-19T07:49:05Z</time>
      </trkpt>
      <trkpt lat="47.37673" lon="-0.95225">
        <ele>62.227</ele>
        <time>2020-07-19T07:49:06Z</time>
      </trkpt>
      <trkpt lat="47.37673" lon="-0.95226">
        <ele>61.508</ele>
        <time>2020-07-19T07:49:07Z</time>
      </trkpt>
      <trkpt lat="47.37673" lon="-0.95226">
        <ele>61.162</ele>
        <time>2020-07-19T07:49:08Z</time>
      </trkpt>
      <trkpt lat="47.37672" lon="-0.95226">
        <ele>61.273</ele>
        <time>2020-07-19T07:49:09Z</time>
      </trkpt>
      <trkpt lat="47.37672" lon="-0.95226">
        <ele>60.558</ele>
        <time>2020-07-19T07:49:10Z</time>
      </trkpt>
      <trkpt lat="47.37672" lon="-0.95226">
        <ele>60.421</ele>
        <time>2020-07-19T07:49:11Z</time>
      </trkpt>
      <trkpt lat="47.37672" lon="-0.95226">
        <ele>60.689</ele>
        <time>2020-07-19T07:49:12Z</time>
      </trkpt>
      <trkpt lat="47.37672" lon="-0.95226">
        <ele>60.581</ele>
        <time>2020-07-19T07:49:13Z</time>
      </trkpt>
      <trkpt lat="47.37672" lon="-0.95226">
        <ele>59.399</ele>
        <time>2020-07-19T07:49:14Z</time>
      </trkpt>
      <trkpt lat="47.37674" lon="-0.95225">
        <ele>58.634</ele>
        <time>2020-07-19T07:49:15Z</time>
      </trkpt>
      <trkpt lat="47.37676" lon="-0.95225">
        <ele>57.504</ele>
        <time>2020-07-19T07:49:16Z</time>
      </trkpt>
      <trkpt lat="47.37677" lon="-0.95225">
        <ele>54.961</ele>
        <time>2020-07-19T07:49:17Z</time>
      </trkpt>
      <trkpt lat="47.37678" lon="-0.95225">
        <ele>55.532</ele>
        <time>2020-07-19T07:49:18Z</time>
      </trkpt>
      <trkpt lat="47.3768" lon="-0.95225">
        <ele>55.825</ele>
        <time>2020-07-19T07:49:19Z</time>
      </trkpt>
      <trkpt lat="47.37681" lon="-0.95225">
        <ele>79.825</ele>
        <time>2020-07-19T07:49:20Z</time>
      </trkpt>
      <trkpt lat="47.37682" lon="-0.95225">
        <ele>74.55</ele>
        <time>2020-07-19T07:49:21Z</time>
      </trkpt>
      <trkpt lat="47.37683" lon="-0.95225">
        <ele>69.275</ele>
        <time>2020-07-19T07:49:22Z</time>
      </trkpt>
      <trkpt lat="47.37684" lon="-0.95224">
        <ele>65.243</ele>
        <time>2020-07-19T07:49:23Z</time>
      </trkpt>
      <trkpt lat="47.37685" lon="-0.95224">
        <ele>68.457</ele>
        <time>2020-07-19T07:49:24Z</time>
      </trkpt>
      <trkpt lat="47.37686" lon="-0.95224">
        <ele>65.163</ele>
        <time>2020-07-19T07:49:25Z</time>
      </trkpt>
      <trkpt lat="47.37687" lon="-0.95223">
        <ele>62.38</ele>
        <time>2020-07-19T07:49:26Z</time>
      </trkpt>
      <trkpt lat="47.37687" lon="-0.95222">
        <ele>59.893</ele>
        <time>2020-07-19T07:49:27Z</time>
      </trkpt>
      <trkpt lat="47.37688" lon="-0.95222">
        <ele>58.607</ele>
        <time>2020-07-19T07:49:28Z</time>
      </trkpt>
      <trkpt lat="47.37688" lon="-0.95221">
        <ele>57.794</ele>
        <time>2020-07-19T07:49:29Z</time>
      </trkpt>
      <trkpt lat="47.37688" lon="-0.9522">
        <ele>56.505</ele>
        <time>2020-07-19T07:49:30Z</time>
      </trkpt>
      <trkpt lat="47.37689" lon="-0.9522">
        <ele>57.477</ele>
        <time>2020-07-19T07:49:31Z</time>
      </trkpt>
      <trkpt lat="47.37689" lon="-0.9522">
        <ele>55.1</ele>
        <time>2020-07-19T07:49:32Z</time>
      </trkpt>
      <trkpt lat="47.37688" lon="-0.95221">
        <ele>55.647</ele>
        <time>2020-07-19T07:49:33Z</time>
      </trkpt>
      <trkpt lat="47.37688" lon="-0.95222">
        <ele>55.942</ele>
        <time>2020-07-19T07:49:34Z</time>
      </trkpt>
      <trkpt lat="47.37687" lon="-0.95222">
        <ele>53.385</ele>
        <time>2020-07-19T07:49:35Z</time>
      </trkpt>
      <trkpt lat="47.37687" lon="-0.95222">
        <ele>53.323</ele>
        <time>2020-07-19T07:49:36Z</time>
      </trkpt>
      <trkpt lat="47.37687" lon="-0.95223">
        <ele>53.184</ele>
        <time>2020-07-19T07:49:37Z</time>
      </trkpt>
      <trkpt lat="47.37686" lon="-0.95224">
        <ele>52.916</ele>
        <time>2020-07-19T07:49:38Z</time>
      </trkpt>
      <trkpt lat="47.37686" lon="-0.95224">
        <ele>53.091</ele>
        <time>2020-07-19T07:49:39Z</time>
      </trkpt>
      <trkpt lat="47.37686" lon="-0.95224">
        <ele>53.031</ele>
        <time>2020-07-19T07:49:40Z</time>
      </trkpt>
      <trkpt lat="47.37686" lon="-0.95224">
        <ele>52.877</ele>
        <time>2020-07-19T07:49:41Z</time>
      </trkpt>
      <trkpt lat="47.37685" lon="-0.95224">
        <ele>52.545</ele>
        <time>2020-07-19T07:49:42Z</time>
      </trkpt>
      <trkpt lat="47.37685" lon="-0.95224">
        <ele>52.705</ele>
        <time>2020-07-19T07:49:43Z</time>
      </trkpt>
      <trkpt lat="47.37685" lon="-0.95225">
        <ele>53.36</ele>
        <time>2020-07-19T07:49:44Z</time>
      </trkpt>
      <trkpt lat="47.37686" lon="-0.95225">
        <ele>53.234</ele>
        <time>2020-07-19T07:49:45Z</time>
      </trkpt>
      <trkpt lat="47.37686" lon="-0.95225">
        <ele>53.65</ele>
        <time>2020-07-19T07:49:46Z</time>
      </trkpt>
      <trkpt lat="47.37686" lon="-0.95226">
        <ele>53.724</ele>
        <time>2020-07-19T07:49:47Z</time>
      </trkpt>
      <trkpt lat="47.37686" lon="-0.95226">
        <ele>53.654</ele>
        <time>2020-07-19T07:49:48Z</time>
      </trkpt>
      <trkpt lat="47.37686" lon="-0.95226">
        <ele>53.665</ele>
        <time>2020-07-19T07:49:49Z</time>
      </trkpt>
      <trkpt lat="47.37686" lon="-0.95226">
        <ele>53.652</ele>
        <time>2020-07-19T07:49:50Z</time>
      </trkpt>
      <trkpt lat="47.37686" lon="-0.95226">
        <ele>53.631</ele>
        <time>2020-07-19T07:49:51Z</time>
      </trkpt>
      <trkpt lat="47.37686" lon="-0.95226">
        <ele>53.61</ele>
        <time>2020-07-19T07:49:52Z</time>
      </trkpt>
      <trkpt lat="47.37686" lon="-0.95226">
        <ele>53.565</ele>
        <time>2020-07-19T07:49:55Z</time>
      </trkpt>
      <trkpt lat="47.37686" lon="-0.95226">
        <ele>53.626</ele>
        <time>2020-07-19T07:49:55Z</time>
      </trkpt>
      <trkpt lat="47.37686" lon="-0.95226">
        <ele>53.637</ele>
        <time>2020-07-19T07:49:55Z</time>
      </trkpt>
      <trkpt lat="47.37686" lon="-0.95226">
        <ele>53.712</ele>
        <time>2020-07-19T07:49:56Z</time>
      </trkpt>
      <trkpt lat="47.37686" lon="-0.95226">
        <ele>53.73</ele>
        <time>2020-07-19T07:49:57Z</time>
      </trkpt>
      <trkpt lat="47.37686" lon="-0.95226">
        <ele>53.726</ele>
        <time>2020-07-19T07:49:58Z</time>
      </trkpt>
      <trkpt lat="47.37686" lon="-0.95226">
        <ele>53.734</ele>
        <time>2020-07-19T07:49:59Z</time>
      </trkpt>
      <trkpt lat="47.37686" lon="-0.95226">
        <ele>53.734</ele>
        <time>2020-07-19T07:50:00Z</time>
      </trkpt>
      <trkpt lat="47.37686" lon="-0.95226">
        <ele>53.721</ele>
        <time>2020-07-19T07:50:01Z</time>
      </trkpt>
      <trkpt lat="47.37686" lon="-0.95226">
        <ele>53.729</ele>
        <time>2020-07-19T07:50:02Z</time>
      </trkpt>
      <trkpt lat="47.37686" lon="-0.95226">
        <ele>53.727</ele>
        <time>2020-07-19T07:50:03Z</time>
      </trkpt>
      <trkpt lat="47.37686" lon="-0.95226">
        <ele>53.738</ele>
        <time>2020-07-19T07:50:04Z</time>
      </trkpt>
      <trkpt lat="47.37686" lon="-0.95226">
        <ele>53.738</ele>
        <time>2020-07-19T07:50:05Z</time>
      </trkpt>
      <trkpt lat="47.37686" lon="-0.95226">
        <ele>53.747</ele>
        <time>2020-07-19T07:50:06Z</time>
      </trkpt>
      <trkpt lat="47.37686" lon="-0.95226">
        <ele>53.79</ele>
        <time>2020-07-19T07:50:07Z</time>
      </trkpt>
      <trkpt lat="47.37686" lon="-0.95226">
        <ele>53.797</ele>
        <time>2020-07-19T07:50:08Z</time>
      </trkpt>
      <trkpt lat="47.37686" lon="-0.95226">
        <ele>53.795</ele>
        <time>2020-07-19T07:50:09Z</time>
      </trkpt>
      <trkpt lat="47.37686" lon="-0.95226">
        <ele>53.806</ele>
        <time>2020-07-19T07:50:10Z</time>
      </trkpt>
      <trkpt lat="47.37686" lon="-0.95226">
        <ele>53.805</ele>
        <time>2020-07-19T07:50:11Z</time>
      </trkpt>
      <trkpt lat="47.37686" lon="-0.95226">
        <ele>53.814</ele>
        <time>2020-07-19T07:50:12Z</time>
      </trkpt>
      <trkpt lat="47.37686" lon="-0.95226">
        <ele>53.817</ele>
        <time>2020-07-19T07:50:13Z</time>
      </trkpt>
      <trkpt lat="47.37686" lon="-0.95226">
        <ele>53.82</ele>
        <time>2020-07-19T07:50:14Z</time>
      </trkpt>
      <trkpt lat="47.37686" lon="-0.95226">
        <ele>53.819</ele>
        <time>2020-07-19T07:50:15Z</time>
      </trkpt>
      <trkpt lat="47.37686" lon="-0.95226">
        <ele>53.816</ele>
        <time>2020-07-19T07:50:16Z</time>
      </trkpt>
      <trkpt lat="47.37686" lon="-0.95226">
        <ele>53.817</ele>
        <time>2020-07-19T07:50:17Z</time>
      </trkpt>
      <trkpt lat="47.37686" lon="-0.95226">
        <ele>53.818</ele>
        <time>2020-07-19T07:50:18Z</time>
      </trkpt>
      <trkpt lat="47.37686" lon="-0.95226">
        <ele>53.815</ele>
        <time>2020-07-19T07:50:19Z</time>
      </trkpt>
      <trkpt lat="47.37686" lon="-0.95226">
        <ele>53.809</ele>
        <time>2020-07-19T07:50:20Z</time>
      </trkpt>
      <trkpt lat="47.37686" lon="-0.95226">
        <ele>53.781</ele>
        <time>2020-07-19T07:50:21Z</time>
      </trkpt>
      <trkpt lat="47.37686" lon="-0.95226">
        <ele>53.781</ele>
        <time>2020-07-19T07:50:22Z</time>
      </trkpt>
      <trkpt lat="47.37686" lon="-0.95226">
        <ele>53.783</ele>
        <time>2020-07-19T07:50:23Z</time>
      </trkpt>
      <trkpt lat="47.37686" lon="-0.95226">
        <ele>53.781</ele>
        <time>2020-07-19T07:50:24Z</time>
      </trkpt>
      <trkpt lat="47.37686" lon="-0.95226">
        <ele>53.786</ele>
        <time>2020-07-19T07:50:25Z</time>
      </trkpt>
      <trkpt lat="47.37686" lon="-0.95226">
        <ele>53.778</ele>
        <time>2020-07-19T07:50:26Z</time>
      </trkpt>
      <trkpt lat="47.37686" lon="-0.95226">
        <ele>53.77</ele>
        <time>2020-07-19T07:50:27Z</time>
      </trkpt>
      <trkpt lat="47.37686" lon="-0.95226">
        <ele>53.769</ele>
        <time>2020-07-19T07:50:28Z</time>
      </trkpt>
      <trkpt lat="47.37686" lon="-0.95226">
        <ele>53.774</ele>
        <time>2020-07-19T07:50:29Z</time>
      </trkpt>
      <trkpt lat="47.37686" lon="-0.95226">
        <ele>53.726</ele>
        <time>2020-07-19T07:50:30Z</time>
      </trkpt>
      <trkpt lat="47.37686" lon="-0.95226">
        <ele>53.728</ele>
        <time>2020-07-19T07:50:31Z</time>
      </trkpt>
      <trkpt lat="47.37686" lon="-0.95226">
        <ele>53.693</ele>
        <time>2020-07-19T07:50:32Z</time>
      </trkpt>
      <trkpt lat="47.37686" lon="-0.95226">
        <ele>53.689</ele>
        <time>2020-07-19T07:50:33Z</time>
      </trkpt>
      <trkpt lat="47.37686" lon="-0.95226">
        <ele>53.69</ele>
        <time>2020-07-19T07:50:34Z</time>
      </trkpt>
      <trkpt lat="47.37686" lon="-0.95226">
        <ele>53.716</ele>
        <time>2020-07-19T07:50:35Z</time>
      </trkpt>
      <trkpt lat="47.37686" lon="-0.95226">
        <ele>53.752</ele>
        <time>2020-07-19T07:50:36Z</time>
      </trkpt>
      <trkpt lat="47.37686" lon="-0.95226">
        <ele>53.762</ele>
        <time>2020-07-19T07:50:37Z</time>
      </trkpt>
      <trkpt lat="47.37686" lon="-0.95226">
        <ele>53.765</ele>
        <time>2020-07-19T07:50:38Z</time>
      </trkpt>
      <trkpt lat="47.37686" lon="-0.95226">
        <ele>53.763</ele>
        <time>2020-07-19T07:50:39Z</time>
      </trkpt>
      <trkpt lat="47.37686" lon="-0.95226">
        <ele>53.765</ele>
        <time>2020-07-19T07:50:40Z</time>
      </trkpt>
      <trkpt lat="47.37686" lon="-0.95226">
        <ele>53.769</ele>
        <time>2020-07-19T07:50:41Z</time>
      </trkpt>
      <trkpt lat="47.37686" lon="-0.95226">
        <ele>53.753</ele>
        <time>2020-07-19T07:50:42Z</time>
      </trkpt>
      <trkpt lat="47.37686" lon="-0.95226">
        <ele>53.751</ele>
        <time>2020-07-19T07:50:43Z</time>
      </trkpt>
      <trkpt lat="47.37686" lon="-0.95226">
        <ele>53.707</ele>
        <time>2020-07-19T07:50:44Z</time>
      </trkpt>
      <trkpt lat="47.37686" lon="-0.95226">
        <ele>53.732</ele>
        <time>2020-07-19T07:50:45Z</time>
      </trkpt>
      <trkpt lat="47.37686" lon="-0.95226">
        <ele>53.732</ele>
        <time>2020-07-19T07:50:46Z</time>
      </trkpt>
      <trkpt lat="47.37686" lon="-0.95226">
        <ele>53.74</ele>
        <time>2020-07-19T07:50:47Z</time>
      </trkpt>
      <trkpt lat="47.37686" lon="-0.95226">
        <ele>53.744</ele>
        <time>2020-07-19T07:50:48Z</time>
      </trkpt>
      <trkpt lat="47.37686" lon="-0.95226">
        <ele>53.749</ele>
        <time>2020-07-19T07:50:49Z</time>
      </trkpt>
      <trkpt lat="47.37686" lon="-0.95226">
        <ele>53.749</ele>
        <time>2020-07-19T07:50:50Z</time>
      </trkpt>
      <trkpt lat="47.37686" lon="-0.95226">
        <ele>53.759</ele>
        <time>2020-07-19T07:50:51Z</time>
      </trkpt>
      <trkpt lat="47.37686" lon="-0.95226">
        <ele>53.766</ele>
        <time>2020-07-19T07:50:52Z</time>
      </trkpt>
      <trkpt lat="47.37686" lon="-0.95226">
        <ele>53.773</ele>
        <time>2020-07-19T07:50:53Z</time>
      </trkpt>
      <trkpt lat="47.37686" lon="-0.95226">
        <ele>53.766</ele>
        <time>2020-07-19T07:50:54Z</time>
      </trkpt>
      <trkpt lat="47.37686" lon="-0.95226">
        <ele>53.763</ele>
        <time>2020-07-19T07:50:55Z</time>
      </trkpt>
      <trkpt lat="47.37686" lon="-0.95226">
        <ele>53.765</ele>
        <time>2020-07-19T07:50:56Z</time>
      </trkpt>
      <trkpt lat="47.37686" lon="-0.95226">
        <ele>53.761</ele>
        <time>2020-07-19T07:50:57Z</time>
      </trkpt>
      <trkpt lat="47.37686" lon="-0.95226">
        <ele>53.77</ele>
        <time>2020-07-19T07:50:58Z</time>
      </trkpt>
      <trkpt lat="47.37686" lon="-0.95226">
        <ele>53.779</ele>
        <time>2020-07-19T07:50:59Z</time>
      </trkpt>
      <trkpt lat="47.37686" lon="-0.95226">
        <ele>53.777</ele>
        <time>2020-07-19T07:51:00Z</time>
      </trkpt>
      <trkpt lat="47.37686" lon="-0.95226">
        <ele>53.779</ele>
        <time>2020-07-19T07:51:01Z</time>
      </trkpt>
      <trkpt lat="47.37686" lon="-0.95226">
        <ele>53.78</ele>
        <time>2020-07-19T07:51:02Z</time>
      </trkpt>
      <trkpt lat="47.37686" lon="-0.95226">
        <ele>53.781</ele>
        <time>2020-07-19T07:51:03Z</time>
      </trkpt>
      <trkpt lat="47.37686" lon="-0.95226">
        <ele>53.781</ele>
        <time>2020-07-19T07:51:04Z</time>
      </trkpt>
      <trkpt lat="47.37686" lon="-0.95226">
        <ele>53.784</ele>
        <time>2020-07-19T07:51:05Z</time>
      </trkpt>
      <trkpt lat="47.37686" lon="-0.95226">
        <ele>53.786</ele>
        <time>2020-07-19T07:51:06Z</time>
      </trkpt>
      <trkpt lat="47.37686" lon="-0.95226">
        <ele>53.791</ele>
        <time>2020-07-19T07:51:07Z</time>
      </trkpt>
      <trkpt lat="47.37686" lon="-0.95226">
        <ele>53.793</ele>
        <time>2020-07-19T07:51:08Z</time>
      </trkpt>
      <trkpt lat="47.37686" lon="-0.95226">
        <ele>53.791</ele>
        <time>2020-07-19T07:51:09Z</time>
      </trkpt>
      <trkpt lat="47.37686" lon="-0.95226">
        <ele>53.795</ele>
        <time>2020-07-19T07:51:10Z</time>
      </trkpt>
      <trkpt lat="47.37686" lon="-0.95226">
        <ele>53.799</ele>
        <time>2020-07-19T07:51:11Z</time>
      </trkpt>
      <trkpt lat="47.37686" lon="-0.95226">
        <ele>53.799</ele>
        <time>2020-07-19T07:51:12Z</time>
      </trkpt>
      <trkpt lat="47.37686" lon="-0.95226">
        <ele>53.792</ele>
        <time>2020-07-19T07:51:13Z</time>
      </trkpt>
      <trkpt lat="47.37686" lon="-0.95226">
        <ele>53.788</ele>
        <time>2020-07-19T07:51:14Z</time>
      </trkpt>
      <trkpt lat="47.37686" lon="-0.95226">
        <ele>53.8</ele>
        <time>2020-07-19T07:51:15Z</time>
      </trkpt>
      <trkpt lat="47.37686" lon="-0.95226">
        <ele>53.803</ele>
        <time>2020-07-19T07:51:16Z</time>
      </trkpt>
      <trkpt lat="47.37686" lon="-0.95226">
        <ele>53.808</ele>
        <time>2020-07-19T07:51:17Z</time>
      </trkpt>
      <trkpt lat="47.37686" lon="-0.95226">
        <ele>53.816</ele>
        <time>2020-07-19T07:51:18Z</time>
      </trkpt>
      <trkpt lat="47.37686" lon="-0.95226">
        <ele>53.817</ele>
        <time>2020-07-19T07:51:19Z</time>
      </trkpt>
      <trkpt lat="47.37686" lon="-0.95226">
        <ele>53.822</ele>
        <time>2020-07-19T07:51:20Z</time>
      </trkpt>
      <trkpt lat="47.37686" lon="-0.95226">
        <ele>53.827</ele>
        <time>2020-07-19T07:51:21Z</time>
      </trkpt>
      <trkpt lat="47.37686" lon="-0.95226">
        <ele>53.826</ele>
        <time>2020-07-19T07:51:22Z</time>
      </trkpt>
      <trkpt lat="47.37686" lon="-0.95226">
        <ele>53.829</ele>
        <time>2020-07-19T07:51:23Z</time>
      </trkpt>
      <trkpt lat="47.37686" lon="-0.95226">
        <ele>53.826</ele>
        <time>2020-07-19T07:51:24Z</time>
      </trkpt>
      <trkpt lat="47.37686" lon="-0.95226">
        <ele>53.821</ele>
        <time>2020-07-19T07:51:25Z</time>
      </trkpt>
      <trkpt lat="47.37686" lon="-0.95226">
        <ele>53.829</ele>
        <time>2020-07-19T07:51:26Z</time>
      </trkpt>
      <trkpt lat="47.37686" lon="-0.95226">
        <ele>53.826</ele>
        <time>2020-07-19T07:51:27Z</time>
      </trkpt>
      <trkpt lat="47.37686" lon="-0.95226">
        <ele>53.824</ele>
        <time>2020-07-19T07:51:28Z</time>
      </trkpt>
      <trkpt lat="47.37686" lon="-0.95226">
        <ele>53.822</ele>
        <time>2020-07-19T07:51:29Z</time>
      </trkpt>
      <trkpt lat="47.37686" lon="-0.95226">
        <ele>53.814</ele>
        <time>2020-07-19T07:51:30Z</time>
      </trkpt>
      <trkpt lat="47.37686" lon="-0.95226">
        <ele>53.819</ele>
        <time>2020-07-19T07:51:31Z</time>
      </trkpt>
      <trkpt lat="47.37686" lon="-0.95226">
        <ele>53.822</ele>
        <time>2020-07-19T07:51:32Z</time>
      </trkpt>
      <trkpt lat="47.37686" lon="-0.95226">
        <ele>53.829</ele>
        <time>2020-07-19T07:51:33Z</time>
      </trkpt>
      <trkpt lat="47.37686" lon="-0.95226">
        <ele>53.837</ele>
        <time>2020-07-19T07:51:34Z</time>
      </trkpt>
      <trkpt lat="47.37686" lon="-0.95226">
        <ele>53.835</ele>
        <time>2020-07-19T07:51:35Z</time>
      </trkpt>
      <trkpt lat="47.37686" lon="-0.95226">
        <ele>53.831</ele>
        <time>2020-07-19T07:51:36Z</time>
      </trkpt>
      <trkpt lat="47.37686" lon="-0.95226">
        <ele>53.832</ele>
        <time>2020-07-19T07:51:38Z</time>
      </trkpt>
      <trkpt lat="47.37686" lon="-0.95226">
        <ele>53.828</ele>
        <time>2020-07-19T07:51:39Z</time>
      </trkpt>
      <trkpt lat="47.37686" lon="-0.95226">
        <ele>53.887</ele>
        <time>2020-07-19T07:51:40Z</time>
      </trkpt>
      <trkpt lat="47.37686" lon="-0.95226">
        <ele>53.891</ele>
        <time>2020-07-19T07:51:41Z</time>
      </trkpt>
      <trkpt lat="47.37686" lon="-0.95226">
        <ele>53.888</ele>
        <time>2020-07-19T07:51:42Z</time>
      </trkpt>
      <trkpt lat="47.37686" lon="-0.95226">
        <ele>53.88</ele>
        <time>2020-07-19T07:51:43Z</time>
      </trkpt>
      <trkpt lat="47.37686" lon="-0.95226">
        <ele>53.878</ele>
        <time>2020-07-19T07:51:44Z</time>
      </trkpt>
      <trkpt lat="47.37686" lon="-0.95226">
        <ele>53.877</ele>
        <time>2020-07-19T07:51:45Z</time>
      </trkpt>
      <trkpt lat="47.37686" lon="-0.95226">
        <ele>53.881</ele>
        <time>2020-07-19T07:51:46Z</time>
      </trkpt>
      <trkpt lat="47.37686" lon="-0.95226">
        <ele>53.885</ele>
        <time>2020-07-19T07:51:47Z</time>
      </trkpt>
      <trkpt lat="47.37686" lon="-0.95226">
        <ele>53.88</ele>
        <time>2020-07-19T07:51:48Z</time>
      </trkpt>
      <trkpt lat="47.37686" lon="-0.95226">
        <ele>53.888</ele>
        <time>2020-07-19T07:51:49Z</time>
      </trkpt>
      <trkpt lat="47.37686" lon="-0.95226">
        <ele>53.892</ele>
        <time>2020-07-19T07:51:50Z</time>
      </trkpt>
      <trkpt lat="47.37686" lon="-0.95226">
        <ele>53.888</ele>
        <time>2020-07-19T07:51:51Z</time>
      </trkpt>
      <trkpt lat="47.37686" lon="-0.95226">
        <ele>53.886</ele>
        <time>2020-07-19T07:51:52Z</time>
      </trkpt>
      <trkpt lat="47.37686" lon="-0.95226">
        <ele>53.887</ele>
        <time>2020-07-19T07:51:53Z</time>
      </trkpt>
      <trkpt lat="47.37686" lon="-0.95226">
        <ele>53.888</ele>
        <time>2020-07-19T07:51:54Z</time>
      </trkpt>
      <trkpt lat="47.37686" lon="-0.95226">
        <ele>53.889</ele>
        <time>2020-07-19T07:51:55Z</time>
      </trkpt>
      <trkpt lat="47.37686" lon="-0.95226">
        <ele>53.889</ele>
        <time>2020-07-19T07:51:57Z</time>
      </trkpt>
      <trkpt lat="47.37686" lon="-0.95226">
        <ele>53.888</ele>
        <time>2020-07-19T07:51:57Z</time>
      </trkpt>
      <trkpt lat="47.37686" lon="-0.95226">
        <ele>53.886</ele>
        <time>2020-07-19T07:51:58Z</time>
      </trkpt>
      <trkpt lat="47.37686" lon="-0.95226">
        <ele>53.888</ele>
        <time>2020-07-19T07:51:59Z</time>
      </trkpt>
      <trkpt lat="47.37686" lon="-0.95226">
        <ele>53.891</ele>
        <time>2020-07-19T07:52:00Z</time>
      </trkpt>
      <trkpt lat="47.37686" lon="-0.95226">
        <ele>53.892</ele>
        <time>2020-07-19T07:52:01Z</time>
      </trkpt>
      <trkpt lat="47.37686" lon="-0.95226">
        <ele>53.893</ele>
        <time>2020-07-19T07:52:02Z</time>
      </trkpt>
      <trkpt lat="47.37686" lon="-0.95226">
        <ele>53.894</ele>
        <time>2020-07-19T07:52:03Z</time>
      </trkpt>
      <trkpt lat="47.37686" lon="-0.95226">
        <ele>53.895</ele>
        <time>2020-07-19T07:52:04Z</time>
      </trkpt>
      <trkpt lat="47.37686" lon="-0.95226">
        <ele>53.896</ele>
        <time>2020-07-19T07:52:05Z</time>
      </trkpt>
      <trkpt lat="47.37686" lon="-0.95226">
        <ele>53.898</ele>
        <time>2020-07-19T07:52:06Z</time>
      </trkpt>
      <trkpt lat="47.37686" lon="-0.95226">
        <ele>53.903</ele>
        <time>2020-07-19T07:52:07Z</time>
      </trkpt>
      <trkpt lat="47.37686" lon="-0.95226">
        <ele>53.905</ele>
        <time>2020-07-19T07:52:08Z</time>
      </trkpt>
      <trkpt lat="47.37686" lon="-0.95226">
        <ele>53.905</ele>
        <time>2020-07-19T07:52:09Z</time>
      </trkpt>
      <trkpt lat="47.37686" lon="-0.95226">
        <ele>53.906</ele>
        <time>2020-07-19T07:52:10Z</time>
      </trkpt>
      <trkpt lat="47.37686" lon="-0.95226">
        <ele>53.907</ele>
        <time>2020-07-19T07:52:11Z</time>
      </trkpt>
      <trkpt lat="47.37686" lon="-0.95226">
        <ele>53.903</ele>
        <time>2020-07-19T07:52:12Z</time>
      </trkpt>
      <trkpt lat="47.37686" lon="-0.95226">
        <ele>53.907</ele>
        <time>2020-07-19T07:52:13Z</time>
      </trkpt>
      <trkpt lat="47.37686" lon="-0.95226">
        <ele>53.908</ele>
        <time>2020-07-19T07:52:14Z</time>
      </trkpt>
      <trkpt lat="47.37686" lon="-0.95226">
        <ele>53.909</ele>
        <time>2020-07-19T07:52:15Z</time>
      </trkpt>
      <trkpt lat="47.37686" lon="-0.95226">
        <ele>53.914</ele>
        <time>2020-07-19T07:52:16Z</time>
      </trkpt>
      <trkpt lat="47.37686" lon="-0.95226">
        <ele>53.924</ele>
        <time>2020-07-19T07:52:17Z</time>
      </trkpt>
      <trkpt lat="47.37686" lon="-0.95226">
        <ele>53.923</ele>
        <time>2020-07-19T07:52:18Z</time>
      </trkpt>
      <trkpt lat="47.37686" lon="-0.95226">
        <ele>53.927</ele>
        <time>2020-07-19T07:52:19Z</time>
      </trkpt>
      <trkpt lat="47.37686" lon="-0.95226">
        <ele>53.93</ele>
        <time>2020-07-19T07:52:20Z</time>
      </trkpt>
      <trkpt lat="47.37686" lon="-0.95226">
        <ele>53.93</ele>
        <time>2020-07-19T07:52:21Z</time>
      </trkpt>
      <trkpt lat="47.37686" lon="-0.95226">
        <ele>53.936</ele>
        <time>2020-07-19T07:52:22Z</time>
      </trkpt>
      <trkpt lat="47.37686" lon="-0.95226">
        <ele>53.937</ele>
        <time>2020-07-19T07:52:23Z</time>
      </trkpt>
      <trkpt lat="47.37686" lon="-0.95226">
        <ele>53.937</ele>
        <time>2020-07-19T07:52:24Z</time>
      </trkpt>
      <trkpt lat="47.37686" lon="-0.95226">
        <ele>53.936</ele>
        <time>2020-07-19T07:52:25Z</time>
      </trkpt>
      <trkpt lat="47.37686" lon="-0.95226">
        <ele>53.935</ele>
        <time>2020-07-19T07:52:26Z</time>
      </trkpt>
      <trkpt lat="47.37686" lon="-0.95226">
        <ele>53.941</ele>
        <time>2020-07-19T07:52:27Z</time>
      </trkpt>
      <trkpt lat="47.37686" lon="-0.95226">
        <ele>53.944</ele>
        <time>2020-07-19T07:52:28Z</time>
      </trkpt>
      <trkpt lat="47.37686" lon="-0.95226">
        <ele>53.944</ele>
        <time>2020-07-19T07:52:29Z</time>
      </trkpt>
      <trkpt lat="47.37686" lon="-0.95226">
        <ele>53.95</ele>
        <time>2020-07-19T07:52:30Z</time>
      </trkpt>
      <trkpt lat="47.37686" lon="-0.95226">
        <ele>53.95</ele>
        <time>2020-07-19T07:52:31Z</time>
      </trkpt>
      <trkpt lat="47.37686" lon="-0.95226">
        <ele>53.953</ele>
        <time>2020-07-19T07:52:32Z</time>
      </trkpt>
      <trkpt lat="47.37686" lon="-0.95226">
        <ele>53.955</ele>
        <time>2020-07-19T07:52:33Z</time>
      </trkpt>
      <trkpt lat="47.37686" lon="-0.95226">
        <ele>53.958</ele>
        <time>2020-07-19T07:52:34Z</time>
      </trkpt>
      <trkpt lat="47.37686" lon="-0.95226">
        <ele>53.961</ele>
        <time>2020-07-19T07:52:35Z</time>
      </trkpt>
      <trkpt lat="47.37686" lon="-0.95226">
        <ele>53.963</ele>
        <time>2020-07-19T07:52:36Z</time>
      </trkpt>
      <trkpt lat="47.37686" lon="-0.95226">
        <ele>53.967</ele>
        <time>2020-07-19T07:52:37Z</time>
      </trkpt>
      <trkpt lat="47.37686" lon="-0.95226">
        <ele>53.968</ele>
        <time>2020-07-19T07:52:38Z</time>
      </trkpt>
      <trkpt lat="47.37686" lon="-0.95226">
        <ele>53.971</ele>
        <time>2020-07-19T07:52:39Z</time>
      </trkpt>
      <trkpt lat="47.37686" lon="-0.95226">
        <ele>53.968</ele>
        <time>2020-07-19T07:52:40Z</time>
      </trkpt>
      <trkpt lat="47.37686" lon="-0.95226">
        <ele>53.969</ele>
        <time>2020-07-19T07:52:41Z</time>
      </trkpt>
      <trkpt lat="47.37691" lon="-0.95226">
        <ele>55.182</ele>
        <time>2020-07-19T08:04:12Z</time>
      </trkpt>
      <trkpt lat="47.37691" lon="-0.95225">
        <ele>56.201</ele>
        <time>2020-07-19T08:04:13Z</time>
      </trkpt>
      <trkpt lat="47.3769" lon="-0.95225">
        <ele>55.869</ele>
        <time>2020-07-19T08:04:14Z</time>
      </trkpt>
      <trkpt lat="47.3769" lon="-0.95225">
        <ele>55.669</ele>
        <time>2020-07-19T08:04:15Z</time>
      </trkpt>
      <trkpt lat="47.3769" lon="-0.95224">
        <ele>55.386</ele>
        <time>2020-07-19T08:04:16Z</time>
      </trkpt>
      <trkpt lat="47.37691" lon="-0.95224">
        <ele>56.11</ele>
        <time>2020-07-19T08:04:17Z</time>
      </trkpt>
      <trkpt lat="47.37691" lon="-0.95223">
        <ele>54.4</ele>
        <time>2020-07-19T08:04:18Z</time>
      </trkpt>
      <trkpt lat="47.37691" lon="-0.95222">
        <ele>53.561</ele>
        <time>2020-07-19T08:04:19Z</time>
      </trkpt>
      <trkpt lat="47.37691" lon="-0.95222">
        <ele>53.277</ele>
        <time>2020-07-19T08:04:20Z</time>
      </trkpt>
      <trkpt lat="47.37691" lon="-0.95222">
        <ele>53.091</ele>
        <time>2020-07-19T08:04:21Z</time>
      </trkpt>
      <trkpt lat="47.37692" lon="-0.95222">
        <ele>53.466</ele>
        <time>2020-07-19T08:04:22Z</time>
      </trkpt>
      <trkpt lat="47.37692" lon="-0.95222">
        <ele>53.424</ele>
        <time>2020-07-19T08:04:23Z</time>
      </trkpt>
      <trkpt lat="47.37692" lon="-0.95222">
        <ele>53.302</ele>
        <time>2020-07-19T08:04:24Z</time>
      </trkpt>
      <trkpt lat="47.37692" lon="-0.95222">
        <ele>52.758</ele>
        <time>2020-07-19T08:04:25Z</time>
      </trkpt>
      <trkpt lat="47.37692" lon="-0.95222">
        <ele>52.462</ele>
        <time>2020-07-19T08:04:26Z</time>
      </trkpt>
      <trkpt lat="47.37692" lon="-0.95222">
        <ele>52.632</ele>
        <time>2020-07-19T08:04:27Z</time>
      </trkpt>
      <trkpt lat="47.37692" lon="-0.95222">
        <ele>52.585</ele>
        <time>2020-07-19T08:04:28Z</time>
      </trkpt>
      <trkpt lat="47.37692" lon="-0.95222">
        <ele>52.543</ele>
        <time>2020-07-19T08:04:29Z</time>
      </trkpt>
      <trkpt lat="47.37692" lon="-0.95222">
        <ele>52.507</ele>
        <time>2020-07-19T08:04:30Z</time>
      </trkpt>
      <trkpt lat="47.37692" lon="-0.95222">
        <ele>52.522</ele>
        <time>2020-07-19T08:04:31Z</time>
      </trkpt>
      <trkpt lat="47.37692" lon="-0.95222">
        <ele>52.53</ele>
        <time>2020-07-19T08:04:32Z</time>
      </trkpt>
      <trkpt lat="47.37692" lon="-0.95222">
        <ele>52.519</ele>
        <time>2020-07-19T08:04:33Z</time>
      </trkpt>
      <trkpt lat="47.37692" lon="-0.95222">
        <ele>52.524</ele>
        <time>2020-07-19T08:04:34Z</time>
      </trkpt>
      <trkpt lat="47.37692" lon="-0.95222">
        <ele>52.517</ele>
        <time>2020-07-19T08:04:35Z</time>
      </trkpt>
      <trkpt lat="47.37692" lon="-0.95222">
        <ele>52.512</ele>
        <time>2020-07-19T08:04:36Z</time>
      </trkpt>
      <trkpt lat="47.37692" lon="-0.95222">
        <ele>52.499</ele>
        <time>2020-07-19T08:04:37Z</time>
      </trkpt>
      <trkpt lat="47.37692" lon="-0.95222">
        <ele>52.518</ele>
        <time>2020-07-19T08:04:38Z</time>
      </trkpt>
      <trkpt lat="47.37692" lon="-0.95222">
        <ele>52.495</ele>
        <time>2020-07-19T08:04:39Z</time>
      </trkpt>
      <trkpt lat="47.37692" lon="-0.95222">
        <ele>52.487</ele>
        <time>2020-07-19T08:04:40Z</time>
      </trkpt>
      <trkpt lat="47.37692" lon="-0.95222">
        <ele>52.719</ele>
        <time>2020-07-19T08:04:41Z</time>
      </trkpt>
      <trkpt lat="47.37692" lon="-0.95222">
        <ele>52.637</ele>
        <time>2020-07-19T08:04:42Z</time>
      </trkpt>
      <trkpt lat="47.37692" lon="-0.95222">
        <ele>52.584</ele>
        <time>2020-07-19T08:04:43Z</time>
      </trkpt>
      <trkpt lat="47.37692" lon="-0.95222">
        <ele>52.571</ele>
        <time>2020-07-19T08:04:44Z</time>
      </trkpt>
      <trkpt lat="47.37692" lon="-0.95222">
        <ele>52.553</ele>
        <time>2020-07-19T08:04:45Z</time>
      </trkpt>
      <trkpt lat="47.37692" lon="-0.95222">
        <ele>52.536</ele>
        <time>2020-07-19T08:04:46Z</time>
      </trkpt>
      <trkpt lat="47.37692" lon="-0.95222">
        <ele>52.539</ele>
        <time>2020-07-19T08:04:47Z</time>
      </trkpt>
      <trkpt lat="47.37692" lon="-0.95222">
        <ele>52.53</ele>
        <time>2020-07-19T08:04:48Z</time>
      </trkpt>
      <trkpt lat="47.37692" lon="-0.95222">
        <ele>52.524</ele>
        <time>2020-07-19T08:04:49Z</time>
      </trkpt>
      <trkpt lat="47.37692" lon="-0.95222">
        <ele>52.537</ele>
        <time>2020-07-19T08:04:50Z</time>
      </trkpt>
      <trkpt lat="47.37692" lon="-0.95222">
        <ele>52.569</ele>
        <time>2020-07-19T08:04:51Z</time>
      </trkpt>
      <trkpt lat="47.37692" lon="-0.95222">
        <ele>52.601</ele>
        <time>2020-07-19T08:04:52Z</time>
      </trkpt>
      <trkpt lat="47.37692" lon="-0.95223">
        <ele>52.611</ele>
        <time>2020-07-19T08:04:53Z</time>
      </trkpt>
      <trkpt lat="47.37692" lon="-0.95223">
        <ele>52.615</ele>
        <time>2020-07-19T08:04:54Z</time>
      </trkpt>
      <trkpt lat="47.37692" lon="-0.95223">
        <ele>52.632</ele>
        <time>2020-07-19T08:04:55Z</time>
      </trkpt>
      <trkpt lat="47.37692" lon="-0.95223">
        <ele>52.655</ele>
        <time>2020-07-19T08:04:56Z</time>
      </trkpt>
      <trkpt lat="47.37692" lon="-0.95223">
        <ele>52.663</ele>
        <time>2020-07-19T08:04:57Z</time>
      </trkpt>
      <trkpt lat="47.37692" lon="-0.95223">
        <ele>52.652</ele>
        <time>2020-07-19T08:04:58Z</time>
      </trkpt>
      <trkpt lat="47.37692" lon="-0.95223">
        <ele>52.666</ele>
        <time>2020-07-19T08:04:59Z</time>
      </trkpt>
      <trkpt lat="47.37692" lon="-0.95223">
        <ele>52.651</ele>
        <time>2020-07-19T08:05:00Z</time>
      </trkpt>
      <trkpt lat="47.37692" lon="-0.95223">
        <ele>52.667</ele>
        <time>2020-07-19T08:05:01Z</time>
      </trkpt>
      <trkpt lat="47.37692" lon="-0.95223">
        <ele>52.653</ele>
        <time>2020-07-19T08:05:02Z</time>
      </trkpt>
      <trkpt lat="47.37692" lon="-0.95223">
        <ele>52.652</ele>
        <time>2020-07-19T08:05:03Z</time>
      </trkpt>
      <trkpt lat="47.37692" lon="-0.95223">
        <ele>52.644</ele>
        <time>2020-07-19T08:05:04Z</time>
      </trkpt>
      <trkpt lat="47.37692" lon="-0.95223">
        <ele>52.659</ele>
        <time>2020-07-19T08:05:05Z</time>
      </trkpt>
      <trkpt lat="47.37692" lon="-0.95223">
        <ele>52.67</ele>
        <time>2020-07-19T08:05:06Z</time>
      </trkpt>
      <trkpt lat="47.37692" lon="-0.95223">
        <ele>52.669</ele>
        <time>2020-07-19T08:05:07Z</time>
      </trkpt>
      <trkpt lat="47.37692" lon="-0.95223">
        <ele>52.677</ele>
        <time>2020-07-19T08:05:08Z</time>
      </trkpt>
      <trkpt lat="47.37692" lon="-0.95223">
        <ele>52.714</ele>
        <time>2020-07-19T08:05:09Z</time>
      </trkpt>
      <trkpt lat="47.37692" lon="-0.95224">
        <ele>53.277</ele>
        <time>2020-07-19T08:05:10Z</time>
      </trkpt>
      <trkpt lat="47.37692" lon="-0.95224">
        <ele>53.07</ele>
        <time>2020-07-19T08:05:11Z</time>
      </trkpt>
      <trkpt lat="47.37691" lon="-0.95225">
        <ele>53.117</ele>
        <time>2020-07-19T08:05:12Z</time>
      </trkpt>
      <trkpt lat="47.37691" lon="-0.95225">
        <ele>53.451</ele>
        <time>2020-07-19T08:05:13Z</time>
      </trkpt>
      <trkpt lat="47.37691" lon="-0.95227">
        <ele>53.527</ele>
        <time>2020-07-19T08:05:14Z</time>
      </trkpt>
      <trkpt lat="47.37691" lon="-0.95228">
        <ele>54.334</ele>
        <time>2020-07-19T08:05:16Z</time>
      </trkpt>
      <trkpt lat="47.37691" lon="-0.95228">
        <ele>54.278</ele>
        <time>2020-07-19T08:05:17Z</time>
      </trkpt>
      <trkpt lat="47.37691" lon="-0.95229">
        <ele>54.394</ele>
        <time>2020-07-19T08:05:18Z</time>
      </trkpt>
      <trkpt lat="47.37691" lon="-0.95231">
        <ele>54.303</ele>
        <time>2020-07-19T08:05:19Z</time>
      </trkpt>
      <trkpt lat="47.3769" lon="-0.95232">
        <ele>54.452</ele>
        <time>2020-07-19T08:05:20Z</time>
      </trkpt>
      <trkpt lat="47.3769" lon="-0.95233">
        <ele>54.461</ele>
        <time>2020-07-19T08:05:21Z</time>
      </trkpt>
      <trkpt lat="47.37689" lon="-0.95234">
        <ele>54.367</ele>
        <time>2020-07-19T08:05:22Z</time>
      </trkpt>
      <trkpt lat="47.37688" lon="-0.95234">
        <ele>54.084</ele>
        <time>2020-07-19T08:05:23Z</time>
      </trkpt>
      <trkpt lat="47.37687" lon="-0.95234">
        <ele>54.675</ele>
        <time>2020-07-19T08:05:24Z</time>
      </trkpt>
      <trkpt lat="47.37686" lon="-0.95234">
        <ele>54.886</ele>
        <time>2020-07-19T08:05:25Z</time>
      </trkpt>
      <trkpt lat="47.37685" lon="-0.95233">
        <ele>54.888</ele>
        <time>2020-07-19T08:05:26Z</time>
      </trkpt>
      <trkpt lat="47.37683" lon="-0.95231">
        <ele>55.029</ele>
        <time>2020-07-19T08:05:27Z</time>
      </trkpt>
      <trkpt lat="47.37682" lon="-0.9523">
        <ele>55.112</ele>
        <time>2020-07-19T08:05:28Z</time>
      </trkpt>
      <trkpt lat="47.3768" lon="-0.95228">
        <ele>55.067</ele>
        <time>2020-07-19T08:05:29Z</time>
      </trkpt>
      <trkpt lat="47.37677" lon="-0.95227">
        <ele>55.722</ele>
        <time>2020-07-19T08:05:30Z</time>
      </trkpt>
      <trkpt lat="47.37675" lon="-0.95227">
        <ele>55.846</ele>
        <time>2020-07-19T08:05:31Z</time>
      </trkpt>
      <trkpt lat="47.37673" lon="-0.95227">
        <ele>55.64</ele>
        <time>2020-07-19T08:05:32Z</time>
      </trkpt>
      <trkpt lat="47.37671" lon="-0.95227">
        <ele>55.794</ele>
        <time>2020-07-19T08:05:33Z</time>
      </trkpt>
      <trkpt lat="47.37669" lon="-0.95227">
        <ele>55.278</ele>
        <time>2020-07-19T08:05:34Z</time>
      </trkpt>
      <trkpt lat="47.37667" lon="-0.95227">
        <ele>54.827</ele>
        <time>2020-07-19T08:05:35Z</time>
      </trkpt>
      <trkpt lat="47.37665" lon="-0.95228">
        <ele>54.769</ele>
        <time>2020-07-19T08:05:36Z</time>
      </trkpt>
      <trkpt lat="47.37663" lon="-0.95229">
        <ele>55.005</ele>
        <time>2020-07-19T08:05:37Z</time>
      </trkpt>
      <trkpt lat="47.3766" lon="-0.95232">
        <ele>54.612</ele>
        <time>2020-07-19T08:05:38Z</time>
      </trkpt>
      <trkpt lat="47.37658" lon="-0.95234">
        <ele>55.112</ele>
        <time>2020-07-19T08:05:39Z</time>
      </trkpt>
      <trkpt lat="47.37656" lon="-0.95236">
        <ele>54.514</ele>
        <time>2020-07-19T08:05:40Z</time>
      </trkpt>
      <trkpt lat="47.37654" lon="-0.95238">
        <ele>55.815</ele>
        <time>2020-07-19T08:05:41Z</time>
      </trkpt>
      <trkpt lat="47.37652" lon="-0.95239">
        <ele>55.489</ele>
        <time>2020-07-19T08:05:42Z</time>
      </trkpt>
      <trkpt lat="47.37651" lon="-0.9524">
        <ele>54.778</ele>
        <time>2020-07-19T08:05:43Z</time>
      </trkpt>
      <trkpt lat="47.37649" lon="-0.9524">
        <ele>54.94</ele>
        <time>2020-07-19T08:05:44Z</time>
      </trkpt>
      <trkpt lat="47.37647" lon="-0.9524">
        <ele>55.393</ele>
        <time>2020-07-19T08:05:45Z</time>
      </trkpt>
      <trkpt lat="47.37645" lon="-0.95241">
        <ele>55.529</ele>
        <time>2020-07-19T08:05:46Z</time>
      </trkpt>
      <trkpt lat="47.37643" lon="-0.95242">
        <ele>55.69</ele>
        <time>2020-07-19T08:05:47Z</time>
      </trkpt>
      <trkpt lat="47.37641" lon="-0.95243">
        <ele>56.084</ele>
        <time>2020-07-19T08:05:48Z</time>
      </trkpt>
      <trkpt lat="47.37639" lon="-0.95245">
        <ele>56.063</ele>
        <time>2020-07-19T08:05:49Z</time>
      </trkpt>
      <trkpt lat="47.37637" lon="-0.95247">
        <ele>57.004</ele>
        <time>2020-07-19T08:05:50Z</time>
      </trkpt>
      <trkpt lat="47.37635" lon="-0.9525">
        <ele>57.948</ele>
        <time>2020-07-19T08:05:51Z</time>
      </trkpt>
      <trkpt lat="47.37633" lon="-0.95253">
        <ele>58.55</ele>
        <time>2020-07-19T08:05:52Z</time>
      </trkpt>
      <trkpt lat="47.37632" lon="-0.95256">
        <ele>58.046</ele>
        <time>2020-07-19T08:05:53Z</time>
      </trkpt>
      <trkpt lat="47.37631" lon="-0.95259">
        <ele>58.111</ele>
        <time>2020-07-19T08:05:54Z</time>
      </trkpt>
      <trkpt lat="47.37629" lon="-0.95262">
        <ele>58.469</ele>
        <time>2020-07-19T08:05:55Z</time>
      </trkpt>
      <trkpt lat="47.37627" lon="-0.95265">
        <ele>56.375</ele>
        <time>2020-07-19T08:05:56Z</time>
      </trkpt>
      <trkpt lat="47.37626" lon="-0.95268">
        <ele>57.245</ele>
        <time>2020-07-19T08:05:57Z</time>
      </trkpt>
      <trkpt lat="47.37624" lon="-0.95271">
        <ele>58.039</ele>
        <time>2020-07-19T08:05:58Z</time>
      </trkpt>
      <trkpt lat="47.37622" lon="-0.95273">
        <ele>59.296</ele>
        <time>2020-07-19T08:05:59Z</time>
      </trkpt>
      <trkpt lat="47.37621" lon="-0.95275">
        <ele>59.457</ele>
        <time>2020-07-19T08:06:00Z</time>
      </trkpt>
      <trkpt lat="47.3762" lon="-0.95277">
        <ele>59.401</ele>
        <time>2020-07-19T08:06:01Z</time>
      </trkpt>
      <trkpt lat="47.37618" lon="-0.9528">
        <ele>59.711</ele>
        <time>2020-07-19T08:06:02Z</time>
      </trkpt>
      <trkpt lat="47.37616" lon="-0.95281">
        <ele>60.567</ele>
        <time>2020-07-19T08:06:03Z</time>
      </trkpt>
      <trkpt lat="47.37615" lon="-0.95283">
        <ele>61.561</ele>
        <time>2020-07-19T08:06:04Z</time>
      </trkpt>
      <trkpt lat="47.37613" lon="-0.95284">
        <ele>61.751</ele>
        <time>2020-07-19T08:06:05Z</time>
      </trkpt>
      <trkpt lat="47.37611" lon="-0.95285">
        <ele>61.922</ele>
        <time>2020-07-19T08:06:06Z</time>
      </trkpt>
      <trkpt lat="47.37609" lon="-0.95286">
        <ele>62.191</ele>
        <time>2020-07-19T08:06:07Z</time>
      </trkpt>
      <trkpt lat="47.37607" lon="-0.95287">
        <ele>62.33</ele>
        <time>2020-07-19T08:06:08Z</time>
      </trkpt>
      <trkpt lat="47.37607" lon="-0.95288">
        <ele>61.677</ele>
        <time>2020-07-19T08:06:09Z</time>
      </trkpt>
      <trkpt lat="47.37606" lon="-0.95289">
        <ele>62.412</ele>
        <time>2020-07-19T08:06:10Z</time>
      </trkpt>
      <trkpt lat="47.37604" lon="-0.9529">
        <ele>62.475</ele>
        <time>2020-07-19T08:06:11Z</time>
      </trkpt>
      <trkpt lat="47.37603" lon="-0.95289">
        <ele>62.029</ele>
        <time>2020-07-19T08:06:12Z</time>
      </trkpt>
      <trkpt lat="47.37602" lon="-0.95286">
        <ele>62.426</ele>
        <time>2020-07-19T08:06:13Z</time>
      </trkpt>
      <trkpt lat="47.37602" lon="-0.95281">
        <ele>62.684</ele>
        <time>2020-07-19T08:06:14Z</time>
      </trkpt>
      <trkpt lat="47.37604" lon="-0.95276">
        <ele>62.13</ele>
        <time>2020-07-19T08:06:15Z</time>
      </trkpt>
      <trkpt lat="47.37606" lon="-0.95271">
        <ele>61.774</ele>
        <time>2020-07-19T08:06:16Z</time>
      </trkpt>
      <trkpt lat="47.37608" lon="-0.95266">
        <ele>62.76</ele>
        <time>2020-07-19T08:06:17Z</time>
      </trkpt>
      <trkpt lat="47.37611" lon="-0.95261">
        <ele>62.69</ele>
        <time>2020-07-19T08:06:18Z</time>
      </trkpt>
      <trkpt lat="47.37613" lon="-0.95256">
        <ele>62.644</ele>
        <time>2020-07-19T08:06:19Z</time>
      </trkpt>
      <trkpt lat="47.37617" lon="-0.95248">
        <ele>63.392</ele>
        <time>2020-07-19T08:06:20Z</time>
      </trkpt>
      <trkpt lat="47.37619" lon="-0.95241">
        <ele>62.337</ele>
        <time>2020-07-19T08:06:21Z</time>
      </trkpt>
      <trkpt lat="47.37623" lon="-0.95236">
        <ele>63.352</ele>
        <time>2020-07-19T08:06:22Z</time>
      </trkpt>
      <trkpt lat="47.37626" lon="-0.9523">
        <ele>62.678</ele>
        <time>2020-07-19T08:06:23Z</time>
      </trkpt>
      <trkpt lat="47.37629" lon="-0.95224">
        <ele>62.937</ele>
        <time>2020-07-19T08:06:24Z</time>
      </trkpt>
      <trkpt lat="47.37632" lon="-0.95217">
        <ele>63.236</ele>
        <time>2020-07-19T08:06:25Z</time>
      </trkpt>
      <trkpt lat="47.37633" lon="-0.9521">
        <ele>63.081</ele>
        <time>2020-07-19T08:06:26Z</time>
      </trkpt>
      <trkpt lat="47.37638" lon="-0.95202">
        <ele>64.445</ele>
        <time>2020-07-19T08:06:27Z</time>
      </trkpt>
      <trkpt lat="47.37641" lon="-0.95197">
        <ele>65.268</ele>
        <time>2020-07-19T08:06:28Z</time>
      </trkpt>
      <trkpt lat="47.37642" lon="-0.9519">
        <ele>64.872</ele>
        <time>2020-07-19T08:06:29Z</time>
      </trkpt>
      <trkpt lat="47.37646" lon="-0.95185">
        <ele>63.992</ele>
        <time>2020-07-19T08:06:30Z</time>
      </trkpt>
      <trkpt lat="47.3765" lon="-0.95178">
        <ele>63.972</ele>
        <time>2020-07-19T08:06:31Z</time>
      </trkpt>
      <trkpt lat="47.37653" lon="-0.95173">
        <ele>64.05</ele>
        <time>2020-07-19T08:06:32Z</time>
      </trkpt>
      <trkpt lat="47.37656" lon="-0.95165">
        <ele>64.214</ele>
        <time>2020-07-19T08:06:33Z</time>
      </trkpt>
      <trkpt lat="47.37659" lon="-0.95159">
        <ele>64.311</ele>
        <time>2020-07-19T08:06:34Z</time>
      </trkpt>
      <trkpt lat="47.37662" lon="-0.95153">
        <ele>63.469</ele>
        <time>2020-07-19T08:06:35Z</time>
      </trkpt>
      <trkpt lat="47.37664" lon="-0.95149">
        <ele>61.925</ele>
        <time>2020-07-19T08:06:36Z</time>
      </trkpt>
      <trkpt lat="47.37668" lon="-0.95142">
        <ele>62.21</ele>
        <time>2020-07-19T08:06:37Z</time>
      </trkpt>
      <trkpt lat="47.37669" lon="-0.95135">
        <ele>61.019</ele>
        <time>2020-07-19T08:06:38Z</time>
      </trkpt>
      <trkpt lat="47.37674" lon="-0.95129">
        <ele>62.179</ele>
        <time>2020-07-19T08:06:39Z</time>
      </trkpt>
      <trkpt lat="47.37677" lon="-0.95123">
        <ele>61.731</ele>
        <time>2020-07-19T08:06:40Z</time>
      </trkpt>
      <trkpt lat="47.3768" lon="-0.95115">
        <ele>61.356</ele>
        <time>2020-07-19T08:06:41Z</time>
      </trkpt>
      <trkpt lat="47.37683" lon="-0.95108">
        <ele>61.267</ele>
        <time>2020-07-19T08:06:42Z</time>
      </trkpt>
      <trkpt lat="47.37687" lon="-0.951">
        <ele>61.232</ele>
        <time>2020-07-19T08:06:43Z</time>
      </trkpt>
      <trkpt lat="47.37691" lon="-0.95093">
        <ele>61.596</ele>
        <time>2020-07-19T08:06:44Z</time>
      </trkpt>
      <trkpt lat="47.37695" lon="-0.95086">
        <ele>61.749</ele>
        <time>2020-07-19T08:06:45Z</time>
      </trkpt>
      <trkpt lat="47.37698" lon="-0.95078">
        <ele>61.564</ele>
        <time>2020-07-19T08:06:46Z</time>
      </trkpt>
      <trkpt lat="47.37701" lon="-0.9507">
        <ele>61.584</ele>
        <time>2020-07-19T08:06:47Z</time>
      </trkpt>
      <trkpt lat="47.37705" lon="-0.95062">
        <ele>62.029</ele>
        <time>2020-07-19T08:06:48Z</time>
      </trkpt>
      <trkpt lat="47.37708" lon="-0.95055">
        <ele>61.63</ele>
        <time>2020-07-19T08:06:49Z</time>
      </trkpt>
      <trkpt lat="47.37712" lon="-0.95047">
        <ele>61.679</ele>
        <time>2020-07-19T08:06:50Z</time>
      </trkpt>
      <trkpt lat="47.37716" lon="-0.95039">
        <ele>61.753</ele>
        <time>2020-07-19T08:06:51Z</time>
      </trkpt>
      <trkpt lat="47.3772" lon="-0.95032">
        <ele>61.815</ele>
        <time>2020-07-19T08:06:52Z</time>
      </trkpt>
      <trkpt lat="47.37724" lon="-0.95024">
        <ele>62.014</ele>
        <time>2020-07-19T08:06:53Z</time>
      </trkpt>
      <trkpt lat="47.37728" lon="-0.95016">
        <ele>62.125</ele>
        <time>2020-07-19T08:06:54Z</time>
      </trkpt>
      <trkpt lat="47.37732" lon="-0.95008">
        <ele>62.445</ele>
        <time>2020-07-19T08:06:55Z</time>
      </trkpt>
      <trkpt lat="47.37736" lon="-0.95">
        <ele>62.657</ele>
        <time>2020-07-19T08:06:56Z</time>
      </trkpt>
      <trkpt lat="47.3774" lon="-0.94992">
        <ele>62.555</ele>
        <time>2020-07-19T08:06:57Z</time>
      </trkpt>
      <trkpt lat="47.37744" lon="-0.94985">
        <ele>62.008</ele>
        <time>2020-07-19T08:06:58Z</time>
      </trkpt>
      <trkpt lat="47.37748" lon="-0.94977">
        <ele>61.949</ele>
        <time>2020-07-19T08:06:59Z</time>
      </trkpt>
      <trkpt lat="47.37752" lon="-0.94969">
        <ele>61.504</ele>
        <time>2020-07-19T08:07:00Z</time>
      </trkpt>
      <trkpt lat="47.37756" lon="-0.94961">
        <ele>62.088</ele>
        <time>2020-07-19T08:07:01Z</time>
      </trkpt>
      <trkpt lat="47.37759" lon="-0.94952">
        <ele>62.201</ele>
        <time>2020-07-19T08:07:02Z</time>
      </trkpt>
      <trkpt lat="47.37764" lon="-0.94945">
        <ele>62.06</ele>
        <time>2020-07-19T08:07:03Z</time>
      </trkpt>
      <trkpt lat="47.37767" lon="-0.94937">
        <ele>62.213</ele>
        <time>2020-07-19T08:07:04Z</time>
      </trkpt>
      <trkpt lat="47.37771" lon="-0.94929">
        <ele>62.378</ele>
        <time>2020-07-19T08:07:05Z</time>
      </trkpt>
      <trkpt lat="47.37775" lon="-0.94922">
        <ele>62.09</ele>
        <time>2020-07-19T08:07:06Z</time>
      </trkpt>
      <trkpt lat="47.3778" lon="-0.94914">
        <ele>62.037</ele>
        <time>2020-07-19T08:07:07Z</time>
      </trkpt>
      <trkpt lat="47.37784" lon="-0.94906">
        <ele>62.165</ele>
        <time>2020-07-19T08:07:08Z</time>
      </trkpt>
      <trkpt lat="47.37788" lon="-0.94898">
        <ele>62.023</ele>
        <time>2020-07-19T08:07:09Z</time>
      </trkpt>
      <trkpt lat="47.37792" lon="-0.9489">
        <ele>62.042</ele>
        <time>2020-07-19T08:07:10Z</time>
      </trkpt>
      <trkpt lat="47.37796" lon="-0.94881">
        <ele>62.093</ele>
        <time>2020-07-19T08:07:11Z</time>
      </trkpt>
      <trkpt lat="47.378" lon="-0.94874">
        <ele>62.206</ele>
        <time>2020-07-19T08:07:12Z</time>
      </trkpt>
      <trkpt lat="47.37804" lon="-0.94866">
        <ele>62.051</ele>
        <time>2020-07-19T08:07:13Z</time>
      </trkpt>
      <trkpt lat="47.37807" lon="-0.94858">
        <ele>61.741</ele>
        <time>2020-07-19T08:07:14Z</time>
      </trkpt>
      <trkpt lat="47.37811" lon="-0.9485">
        <ele>61.695</ele>
        <time>2020-07-19T08:07:15Z</time>
      </trkpt>
      <trkpt lat="47.37814" lon="-0.94842">
        <ele>61.679</ele>
        <time>2020-07-19T08:07:16Z</time>
      </trkpt>
      <trkpt lat="47.37817" lon="-0.94834">
        <ele>61.618</ele>
        <time>2020-07-19T08:07:17Z</time>
      </trkpt>
      <trkpt lat="47.37821" lon="-0.94826">
        <ele>61.791</ele>
        <time>2020-07-19T08:07:18Z</time>
      </trkpt>
      <trkpt lat="47.37825" lon="-0.94819">
        <ele>61.594</ele>
        <time>2020-07-19T08:07:19Z</time>
      </trkpt>
      <trkpt lat="47.37829" lon="-0.94811">
        <ele>61.797</ele>
        <time>2020-07-19T08:07:20Z</time>
      </trkpt>
      <trkpt lat="47.37832" lon="-0.94804">
        <ele>61.801</ele>
        <time>2020-07-19T08:07:21Z</time>
      </trkpt>
      <trkpt lat="47.37836" lon="-0.94796">
        <ele>61.993</ele>
        <time>2020-07-19T08:07:22Z</time>
      </trkpt>
      <trkpt lat="47.37839" lon="-0.94789">
        <ele>62.078</ele>
        <time>2020-07-19T08:07:23Z</time>
      </trkpt>
      <trkpt lat="47.37843" lon="-0.94782">
        <ele>61.876</ele>
        <time>2020-07-19T08:07:24Z</time>
      </trkpt>
      <trkpt lat="47.37846" lon="-0.94774">
        <ele>61.718</ele>
        <time>2020-07-19T08:07:25Z</time>
      </trkpt>
      <trkpt lat="47.37849" lon="-0.94767">
        <ele>61.376</ele>
        <time>2020-07-19T08:07:26Z</time>
      </trkpt>
      <trkpt lat="47.37856" lon="-0.9476">
        <ele>63.162</ele>
        <time>2020-07-19T08:07:27Z</time>
      </trkpt>
      <trkpt lat="47.3786" lon="-0.94753">
        <ele>63.547</ele>
        <time>2020-07-19T08:07:28Z</time>
      </trkpt>
      <trkpt lat="47.37864" lon="-0.94746">
        <ele>63.882</ele>
        <time>2020-07-19T08:07:29Z</time>
      </trkpt>
      <trkpt lat="47.37867" lon="-0.94739">
        <ele>63.719</ele>
        <time>2020-07-19T08:07:30Z</time>
      </trkpt>
      <trkpt lat="47.3787" lon="-0.94731">
        <ele>63.435</ele>
        <time>2020-07-19T08:07:31Z</time>
      </trkpt>
      <trkpt lat="47.37874" lon="-0.94724">
        <ele>63.836</ele>
        <time>2020-07-19T08:07:32Z</time>
      </trkpt>
      <trkpt lat="47.37877" lon="-0.94717">
        <ele>63.133</ele>
        <time>2020-07-19T08:07:33Z</time>
      </trkpt>
      <trkpt lat="47.3788" lon="-0.94708">
        <ele>62.974</ele>
        <time>2020-07-19T08:07:34Z</time>
      </trkpt>
      <trkpt lat="47.37883" lon="-0.94701">
        <ele>62.613</ele>
        <time>2020-07-19T08:07:35Z</time>
      </trkpt>
      <trkpt lat="47.37887" lon="-0.94693">
        <ele>62.387</ele>
        <time>2020-07-19T08:07:36Z</time>
      </trkpt>
      <trkpt lat="47.3789" lon="-0.94685">
        <ele>62.907</ele>
        <time>2020-07-19T08:07:37Z</time>
      </trkpt>
      <trkpt lat="47.37895" lon="-0.94678">
        <ele>62.513</ele>
        <time>2020-07-19T08:07:38Z</time>
      </trkpt>
      <trkpt lat="47.37898" lon="-0.94671">
        <ele>63.558</ele>
        <time>2020-07-19T08:07:39Z</time>
      </trkpt>
      <trkpt lat="47.37902" lon="-0.94663">
        <ele>63.885</ele>
        <time>2020-07-19T08:07:40Z</time>
      </trkpt>
      <trkpt lat="47.37905" lon="-0.94656">
        <ele>64.076</ele>
        <time>2020-07-19T08:07:41Z</time>
      </trkpt>
      <trkpt lat="47.37909" lon="-0.94648">
        <ele>64.621</ele>
        <time>2020-07-19T08:07:42Z</time>
      </trkpt>
      <trkpt lat="47.37912" lon="-0.9464">
        <ele>64.268</ele>
        <time>2020-07-19T08:07:43Z</time>
      </trkpt>
      <trkpt lat="47.37916" lon="-0.94633">
        <ele>64.688</ele>
        <time>2020-07-19T08:07:44Z</time>
      </trkpt>
      <trkpt lat="47.3792" lon="-0.94625">
        <ele>65.109</ele>
        <time>2020-07-19T08:07:45Z</time>
      </trkpt>
      <trkpt lat="47.37925" lon="-0.94618">
        <ele>64.785</ele>
        <time>2020-07-19T08:07:46Z</time>
      </trkpt>
      <trkpt lat="47.37928" lon="-0.94612">
        <ele>65.022</ele>
        <time>2020-07-19T08:07:47Z</time>
      </trkpt>
      <trkpt lat="47.37931" lon="-0.94605">
        <ele>65.122</ele>
        <time>2020-07-19T08:07:48Z</time>
      </trkpt>
      <trkpt lat="47.37934" lon="-0.94598">
        <ele>64.43</ele>
        <time>2020-07-19T08:07:49Z</time>
      </trkpt>
      <trkpt lat="47.37939" lon="-0.94591">
        <ele>64.935</ele>
        <time>2020-07-19T08:07:50Z</time>
      </trkpt>
      <trkpt lat="47.37943" lon="-0.94584">
        <ele>64.96</ele>
        <time>2020-07-19T08:07:51Z</time>
      </trkpt>
      <trkpt lat="47.3795" lon="-0.94578">
        <ele>66.339</ele>
        <time>2020-07-19T08:07:52Z</time>
      </trkpt>
      <trkpt lat="47.37952" lon="-0.9457">
        <ele>66.223</ele>
        <time>2020-07-19T08:07:53Z</time>
      </trkpt>
      <trkpt lat="47.37956" lon="-0.94563">
        <ele>66.487</ele>
        <time>2020-07-19T08:07:54Z</time>
      </trkpt>
      <trkpt lat="47.37956" lon="-0.94556">
        <ele>64.206</ele>
        <time>2020-07-19T08:07:55Z</time>
      </trkpt>
      <trkpt lat="47.37959" lon="-0.9455">
        <ele>62.587</ele>
        <time>2020-07-19T08:07:56Z</time>
      </trkpt>
      <trkpt lat="47.37962" lon="-0.94543">
        <ele>62.598</ele>
        <time>2020-07-19T08:07:57Z</time>
      </trkpt>
      <trkpt lat="47.37965" lon="-0.94535">
        <ele>62.751</ele>
        <time>2020-07-19T08:07:58Z</time>
      </trkpt>
      <trkpt lat="47.37969" lon="-0.94527">
        <ele>63.109</ele>
        <time>2020-07-19T08:07:59Z</time>
      </trkpt>
      <trkpt lat="47.37973" lon="-0.9452">
        <ele>63.319</ele>
        <time>2020-07-19T08:08:00Z</time>
      </trkpt>
      <trkpt lat="47.37977" lon="-0.94513">
        <ele>63.367</ele>
        <time>2020-07-19T08:08:01Z</time>
      </trkpt>
      <trkpt lat="47.3798" lon="-0.94505">
        <ele>63.694</ele>
        <time>2020-07-19T08:08:02Z</time>
      </trkpt>
      <trkpt lat="47.37984" lon="-0.94497">
        <ele>77.396</ele>
        <time>2020-07-19T08:08:03Z</time>
      </trkpt>
      <trkpt lat="47.37988" lon="-0.94489">
        <ele>72.633</ele>
        <time>2020-07-19T08:08:04Z</time>
      </trkpt>
      <trkpt lat="47.37992" lon="-0.94481">
        <ele>70.313</ele>
        <time>2020-07-19T08:08:05Z</time>
      </trkpt>
      <trkpt lat="47.37995" lon="-0.94473">
        <ele>68.862</ele>
        <time>2020-07-19T08:08:06Z</time>
      </trkpt>
      <trkpt lat="47.37999" lon="-0.94465">
        <ele>68.332</ele>
        <time>2020-07-19T08:08:07Z</time>
      </trkpt>
      <trkpt lat="47.38003" lon="-0.94457">
        <ele>68.121</ele>
        <time>2020-07-19T08:08:08Z</time>
      </trkpt>
      <trkpt lat="47.38008" lon="-0.9445">
        <ele>68.492</ele>
        <time>2020-07-19T08:08:09Z</time>
      </trkpt>
      <trkpt lat="47.38012" lon="-0.94443">
        <ele>67.729</ele>
        <time>2020-07-19T08:08:10Z</time>
      </trkpt>
      <trkpt lat="47.38017" lon="-0.94435">
        <ele>68.209</ele>
        <time>2020-07-19T08:08:11Z</time>
      </trkpt>
      <trkpt lat="47.38021" lon="-0.94428">
        <ele>68.11</ele>
        <time>2020-07-19T08:08:12Z</time>
      </trkpt>
      <trkpt lat="47.38024" lon="-0.9442">
        <ele>68.107</ele>
        <time>2020-07-19T08:08:13Z</time>
      </trkpt>
      <trkpt lat="47.38027" lon="-0.94413">
        <ele>68.036</ele>
        <time>2020-07-19T08:08:14Z</time>
      </trkpt>
      <trkpt lat="47.38031" lon="-0.94406">
        <ele>68.67</ele>
        <time>2020-07-19T08:08:15Z</time>
      </trkpt>
      <trkpt lat="47.38035" lon="-0.94398">
        <ele>68.441</ele>
        <time>2020-07-19T08:08:16Z</time>
      </trkpt>
      <trkpt lat="47.38033" lon="-0.94391">
        <ele>65.472</ele>
        <time>2020-07-19T08:08:17Z</time>
      </trkpt>
      <trkpt lat="47.38036" lon="-0.94383">
        <ele>64.43</ele>
        <time>2020-07-19T08:08:18Z</time>
      </trkpt>
      <trkpt lat="47.38039" lon="-0.94376">
        <ele>64.392</ele>
        <time>2020-07-19T08:08:19Z</time>
      </trkpt>
      <trkpt lat="47.38043" lon="-0.94368">
        <ele>64.011</ele>
        <time>2020-07-19T08:08:20Z</time>
      </trkpt>
      <trkpt lat="47.38046" lon="-0.94361">
        <ele>64.54</ele>
        <time>2020-07-19T08:08:21Z</time>
      </trkpt>
      <trkpt lat="47.38051" lon="-0.94354">
        <ele>64.063</ele>
        <time>2020-07-19T08:08:22Z</time>
      </trkpt>
      <trkpt lat="47.38054" lon="-0.94346">
        <ele>64.229</ele>
        <time>2020-07-19T08:08:23Z</time>
      </trkpt>
      <trkpt lat="47.38058" lon="-0.94339">
        <ele>65.11</ele>
        <time>2020-07-19T08:08:24Z</time>
      </trkpt>
      <trkpt lat="47.38062" lon="-0.94332">
        <ele>80.438</ele>
        <time>2020-07-19T08:08:25Z</time>
      </trkpt>
      <trkpt lat="47.38065" lon="-0.94324">
        <ele>76.144</ele>
        <time>2020-07-19T08:08:26Z</time>
      </trkpt>
      <trkpt lat="47.3807" lon="-0.94316">
        <ele>74.718</ele>
        <time>2020-07-19T08:08:27Z</time>
      </trkpt>
      <trkpt lat="47.38071" lon="-0.94308">
        <ele>68.904</ele>
        <time>2020-07-19T08:08:28Z</time>
      </trkpt>
      <trkpt lat="47.38074" lon="-0.94301">
        <ele>67.722</ele>
        <time>2020-07-19T08:08:29Z</time>
      </trkpt>
      <trkpt lat="47.38078" lon="-0.94293">
        <ele>66.593</ele>
        <time>2020-07-19T08:08:30Z</time>
      </trkpt>
      <trkpt lat="47.38082" lon="-0.94286">
        <ele>66.104</ele>
        <time>2020-07-19T08:08:31Z</time>
      </trkpt>
      <trkpt lat="47.38085" lon="-0.94279">
        <ele>65.141</ele>
        <time>2020-07-19T08:08:32Z</time>
      </trkpt>
      <trkpt lat="47.38088" lon="-0.94272">
        <ele>65.327</ele>
        <time>2020-07-19T08:08:33Z</time>
      </trkpt>
      <trkpt lat="47.38093" lon="-0.94264">
        <ele>64.959</ele>
        <time>2020-07-19T08:08:34Z</time>
      </trkpt>
      <trkpt lat="47.38096" lon="-0.94256">
        <ele>65.223</ele>
        <time>2020-07-19T08:08:35Z</time>
      </trkpt>
      <trkpt lat="47.38099" lon="-0.94249">
        <ele>64.788</ele>
        <time>2020-07-19T08:08:36Z</time>
      </trkpt>
      <trkpt lat="47.38103" lon="-0.94242">
        <ele>64.035</ele>
        <time>2020-07-19T08:08:37Z</time>
      </trkpt>
      <trkpt lat="47.38106" lon="-0.94235">
        <ele>63.092</ele>
        <time>2020-07-19T08:08:38Z</time>
      </trkpt>
      <trkpt lat="47.3811" lon="-0.94227">
        <ele>63.178</ele>
        <time>2020-07-19T08:08:39Z</time>
      </trkpt>
      <trkpt lat="47.38114" lon="-0.94219">
        <ele>63.627</ele>
        <time>2020-07-19T08:08:40Z</time>
      </trkpt>
      <trkpt lat="47.3812" lon="-0.94213">
        <ele>64.334</ele>
        <time>2020-07-19T08:08:41Z</time>
      </trkpt>
      <trkpt lat="47.38124" lon="-0.94205">
        <ele>64.468</ele>
        <time>2020-07-19T08:08:42Z</time>
      </trkpt>
      <trkpt lat="47.38128" lon="-0.94198">
        <ele>64.527</ele>
        <time>2020-07-19T08:08:43Z</time>
      </trkpt>
      <trkpt lat="47.3813" lon="-0.9419">
        <ele>64.907</ele>
        <time>2020-07-19T08:08:44Z</time>
      </trkpt>
      <trkpt lat="47.38133" lon="-0.94183">
        <ele>64.177</ele>
        <time>2020-07-19T08:08:45Z</time>
      </trkpt>
      <trkpt lat="47.38137" lon="-0.94175">
        <ele>64.432</ele>
        <time>2020-07-19T08:08:46Z</time>
      </trkpt>
      <trkpt lat="47.3814" lon="-0.94166">
        <ele>64.264</ele>
        <time>2020-07-19T08:08:47Z</time>
      </trkpt>
      <trkpt lat="47.38145" lon="-0.9416">
        <ele>64.648</ele>
        <time>2020-07-19T08:08:48Z</time>
      </trkpt>
      <trkpt lat="47.38148" lon="-0.94153">
        <ele>64.198</ele>
        <time>2020-07-19T08:08:49Z</time>
      </trkpt>
      <trkpt lat="47.38151" lon="-0.94145">
        <ele>64.61</ele>
        <time>2020-07-19T08:08:50Z</time>
      </trkpt>
      <trkpt lat="47.38155" lon="-0.94138">
        <ele>64.453</ele>
        <time>2020-07-19T08:08:51Z</time>
      </trkpt>
      <trkpt lat="47.38161" lon="-0.94131">
        <ele>63.773</ele>
        <time>2020-07-19T08:08:52Z</time>
      </trkpt>
      <trkpt lat="47.38164" lon="-0.94123">
        <ele>63.484</ele>
        <time>2020-07-19T08:08:53Z</time>
      </trkpt>
      <trkpt lat="47.38169" lon="-0.94117">
        <ele>63.186</ele>
        <time>2020-07-19T08:08:54Z</time>
      </trkpt>
      <trkpt lat="47.38173" lon="-0.9411">
        <ele>63.597</ele>
        <time>2020-07-19T08:08:55Z</time>
      </trkpt>
      <trkpt lat="47.38177" lon="-0.94102">
        <ele>63.347</ele>
        <time>2020-07-19T08:08:56Z</time>
      </trkpt>
      <trkpt lat="47.3818" lon="-0.94094">
        <ele>63.253</ele>
        <time>2020-07-19T08:08:57Z</time>
      </trkpt>
      <trkpt lat="47.38185" lon="-0.94086">
        <ele>64.374</ele>
        <time>2020-07-19T08:08:58Z</time>
      </trkpt>
      <trkpt lat="47.38188" lon="-0.94079">
        <ele>63.695</ele>
        <time>2020-07-19T08:08:59Z</time>
      </trkpt>
      <trkpt lat="47.3819" lon="-0.94071">
        <ele>63.061</ele>
        <time>2020-07-19T08:09:00Z</time>
      </trkpt>
      <trkpt lat="47.38193" lon="-0.94063">
        <ele>62.694</ele>
        <time>2020-07-19T08:09:01Z</time>
      </trkpt>
      <trkpt lat="47.38196" lon="-0.94055">
        <ele>62.703</ele>
        <time>2020-07-19T08:09:02Z</time>
      </trkpt>
      <trkpt lat="47.382" lon="-0.94048">
        <ele>62.548</ele>
        <time>2020-07-19T08:09:03Z</time>
      </trkpt>
      <trkpt lat="47.38202" lon="-0.94041">
        <ele>61.639</ele>
        <time>2020-07-19T08:09:04Z</time>
      </trkpt>
      <trkpt lat="47.38207" lon="-0.94033">
        <ele>61.969</ele>
        <time>2020-07-19T08:09:05Z</time>
      </trkpt>
      <trkpt lat="47.3821" lon="-0.94027">
        <ele>61.46</ele>
        <time>2020-07-19T08:09:06Z</time>
      </trkpt>
      <trkpt lat="47.38214" lon="-0.9402">
        <ele>62.105</ele>
        <time>2020-07-19T08:09:07Z</time>
      </trkpt>
      <trkpt lat="47.38216" lon="-0.94013">
        <ele>61.383</ele>
        <time>2020-07-19T08:09:08Z</time>
      </trkpt>
      <trkpt lat="47.38218" lon="-0.94004">
        <ele>60.953</ele>
        <time>2020-07-19T08:09:09Z</time>
      </trkpt>
      <trkpt lat="47.38221" lon="-0.93996">
        <ele>61.285</ele>
        <time>2020-07-19T08:09:10Z</time>
      </trkpt>
      <trkpt lat="47.38224" lon="-0.93988">
        <ele>61.453</ele>
        <time>2020-07-19T08:09:11Z</time>
      </trkpt>
      <trkpt lat="47.38227" lon="-0.9398">
        <ele>61.409</ele>
        <time>2020-07-19T08:09:12Z</time>
      </trkpt>
      <trkpt lat="47.38233" lon="-0.93974">
        <ele>61.615</ele>
        <time>2020-07-19T08:09:13Z</time>
      </trkpt>
      <trkpt lat="47.38237" lon="-0.93967">
        <ele>62.367</ele>
        <time>2020-07-19T08:09:14Z</time>
      </trkpt>
      <trkpt lat="47.38241" lon="-0.93961">
        <ele>62.534</ele>
        <time>2020-07-19T08:09:15Z</time>
      </trkpt>
      <trkpt lat="47.38245" lon="-0.93953">
        <ele>62.207</ele>
        <time>2020-07-19T08:09:16Z</time>
      </trkpt>
      <trkpt lat="47.38248" lon="-0.93946">
        <ele>61.822</ele>
        <time>2020-07-19T08:09:17Z</time>
      </trkpt>
      <trkpt lat="47.38251" lon="-0.93938">
        <ele>61.771</ele>
        <time>2020-07-19T08:09:18Z</time>
      </trkpt>
      <trkpt lat="47.38256" lon="-0.93932">
        <ele>61.868</ele>
        <time>2020-07-19T08:09:19Z</time>
      </trkpt>
      <trkpt lat="47.3826" lon="-0.93924">
        <ele>62.118</ele>
        <time>2020-07-19T08:09:20Z</time>
      </trkpt>
      <trkpt lat="47.38266" lon="-0.93916">
        <ele>61.634</ele>
        <time>2020-07-19T08:09:21Z</time>
      </trkpt>
      <trkpt lat="47.3827" lon="-0.93909">
        <ele>61.869</ele>
        <time>2020-07-19T08:09:22Z</time>
      </trkpt>
      <trkpt lat="47.38273" lon="-0.93901">
        <ele>61.571</ele>
        <time>2020-07-19T08:09:23Z</time>
      </trkpt>
      <trkpt lat="47.38276" lon="-0.93894">
        <ele>61.406</ele>
        <time>2020-07-19T08:09:24Z</time>
      </trkpt>
      <trkpt lat="47.38279" lon="-0.93886">
        <ele>61.648</ele>
        <time>2020-07-19T08:09:25Z</time>
      </trkpt>
      <trkpt lat="47.38283" lon="-0.93878">
        <ele>62.809</ele>
        <time>2020-07-19T08:09:26Z</time>
      </trkpt>
      <trkpt lat="47.38291" lon="-0.93873">
        <ele>62.666</ele>
        <time>2020-07-19T08:09:27Z</time>
      </trkpt>
      <trkpt lat="47.38295" lon="-0.93866">
        <ele>63.06</ele>
        <time>2020-07-19T08:09:28Z</time>
      </trkpt>
      <trkpt lat="47.38297" lon="-0.93858">
        <ele>62.405</ele>
        <time>2020-07-19T08:09:29Z</time>
      </trkpt>
      <trkpt lat="47.38301" lon="-0.9385">
        <ele>62.79</ele>
        <time>2020-07-19T08:09:30Z</time>
      </trkpt>
      <trkpt lat="47.38304" lon="-0.93842">
        <ele>62.167</ele>
        <time>2020-07-19T08:09:31Z</time>
      </trkpt>
      <trkpt lat="47.38305" lon="-0.93834">
        <ele>60.499</ele>
        <time>2020-07-19T08:09:32Z</time>
      </trkpt>
      <trkpt lat="47.38311" lon="-0.93827">
        <ele>61.519</ele>
        <time>2020-07-19T08:09:33Z</time>
      </trkpt>
      <trkpt lat="47.38316" lon="-0.93821">
        <ele>61.498</ele>
        <time>2020-07-19T08:09:34Z</time>
      </trkpt>
      <trkpt lat="47.3832" lon="-0.93813">
        <ele>62.742</ele>
        <time>2020-07-19T08:09:35Z</time>
      </trkpt>
      <trkpt lat="47.38323" lon="-0.93805">
        <ele>62.949</ele>
        <time>2020-07-19T08:09:36Z</time>
      </trkpt>
      <trkpt lat="47.38327" lon="-0.93797">
        <ele>62.704</ele>
        <time>2020-07-19T08:09:37Z</time>
      </trkpt>
      <trkpt lat="47.38331" lon="-0.93789">
        <ele>63.223</ele>
        <time>2020-07-19T08:09:38Z</time>
      </trkpt>
      <trkpt lat="47.38334" lon="-0.93782">
        <ele>62.435</ele>
        <time>2020-07-19T08:09:39Z</time>
      </trkpt>
      <trkpt lat="47.38337" lon="-0.93775">
        <ele>62.394</ele>
        <time>2020-07-19T08:09:40Z</time>
      </trkpt>
      <trkpt lat="47.38341" lon="-0.93768">
        <ele>62.403</ele>
        <time>2020-07-19T08:09:41Z</time>
      </trkpt>
      <trkpt lat="47.38345" lon="-0.9376">
        <ele>62.424</ele>
        <time>2020-07-19T08:09:42Z</time>
      </trkpt>
      <trkpt lat="47.38348" lon="-0.93751">
        <ele>62.771</ele>
        <time>2020-07-19T08:09:43Z</time>
      </trkpt>
      <trkpt lat="47.38352" lon="-0.93744">
        <ele>62.009</ele>
        <time>2020-07-19T08:09:44Z</time>
      </trkpt>
      <trkpt lat="47.38355" lon="-0.93737">
        <ele>62.543</ele>
        <time>2020-07-19T08:09:45Z</time>
      </trkpt>
      <trkpt lat="47.3836" lon="-0.93728">
        <ele>63.373</ele>
        <time>2020-07-19T08:09:46Z</time>
      </trkpt>
      <trkpt lat="47.3836" lon="-0.9372">
        <ele>64.659</ele>
        <time>2020-07-19T08:09:47Z</time>
      </trkpt>
      <trkpt lat="47.38363" lon="-0.93713">
        <ele>64.73</ele>
        <time>2020-07-19T08:09:48Z</time>
      </trkpt>
      <trkpt lat="47.38367" lon="-0.93704">
        <ele>64.721</ele>
        <time>2020-07-19T08:09:49Z</time>
      </trkpt>
      <trkpt lat="47.3837" lon="-0.93696">
        <ele>64.544</ele>
        <time>2020-07-19T08:09:50Z</time>
      </trkpt>
      <trkpt lat="47.38373" lon="-0.93688">
        <ele>64.115</ele>
        <time>2020-07-19T08:09:51Z</time>
      </trkpt>
      <trkpt lat="47.38384" lon="-0.93684">
        <ele>63.637</ele>
        <time>2020-07-19T08:09:52Z</time>
      </trkpt>
      <trkpt lat="47.38389" lon="-0.93676">
        <ele>64.273</ele>
        <time>2020-07-19T08:09:53Z</time>
      </trkpt>
      <trkpt lat="47.38393" lon="-0.93668">
        <ele>64.704</ele>
        <time>2020-07-19T08:09:54Z</time>
      </trkpt>
      <trkpt lat="47.38395" lon="-0.9366">
        <ele>63.261</ele>
        <time>2020-07-19T08:09:55Z</time>
      </trkpt>
      <trkpt lat="47.38399" lon="-0.93653">
        <ele>64.002</ele>
        <time>2020-07-19T08:09:56Z</time>
      </trkpt>
      <trkpt lat="47.38401" lon="-0.93644">
        <ele>63.371</ele>
        <time>2020-07-19T08:09:57Z</time>
      </trkpt>
      <trkpt lat="47.38403" lon="-0.93635">
        <ele>63.337</ele>
        <time>2020-07-19T08:09:58Z</time>
      </trkpt>
      <trkpt lat="47.38407" lon="-0.93625">
        <ele>64.382</ele>
        <time>2020-07-19T08:09:59Z</time>
      </trkpt>
      <trkpt lat="47.38412" lon="-0.93617">
        <ele>64.997</ele>
        <time>2020-07-19T08:10:00Z</time>
      </trkpt>
      <trkpt lat="47.38416" lon="-0.9361">
        <ele>66.223</ele>
        <time>2020-07-19T08:10:01Z</time>
      </trkpt>
      <trkpt lat="47.38422" lon="-0.93602">
        <ele>67.998</ele>
        <time>2020-07-19T08:10:02Z</time>
      </trkpt>
      <trkpt lat="47.38424" lon="-0.93592">
        <ele>67.508</ele>
        <time>2020-07-19T08:10:03Z</time>
      </trkpt>
      <trkpt lat="47.38421" lon="-0.93583">
        <ele>64.184</ele>
        <time>2020-07-19T08:10:04Z</time>
      </trkpt>
      <trkpt lat="47.38424" lon="-0.93574">
        <ele>63.242</ele>
        <time>2020-07-19T08:10:05Z</time>
      </trkpt>
      <trkpt lat="47.38429" lon="-0.93568">
        <ele>63.543</ele>
        <time>2020-07-19T08:10:06Z</time>
      </trkpt>
      <trkpt lat="47.38433" lon="-0.9356">
        <ele>64.045</ele>
        <time>2020-07-19T08:10:07Z</time>
      </trkpt>
      <trkpt lat="47.38438" lon="-0.93553">
        <ele>65.312</ele>
        <time>2020-07-19T08:10:08Z</time>
      </trkpt>
      <trkpt lat="47.38444" lon="-0.93546">
        <ele>65.111</ele>
        <time>2020-07-19T08:10:09Z</time>
      </trkpt>
      <trkpt lat="47.3845" lon="-0.93539">
        <ele>64.827</ele>
        <time>2020-07-19T08:10:10Z</time>
      </trkpt>
      <trkpt lat="47.38453" lon="-0.93532">
        <ele>64.828</ele>
        <time>2020-07-19T08:10:11Z</time>
      </trkpt>
      <trkpt lat="47.38458" lon="-0.93525">
        <ele>65.664</ele>
        <time>2020-07-19T08:10:12Z</time>
      </trkpt>
      <trkpt lat="47.38463" lon="-0.93519">
        <ele>66.449</ele>
        <time>2020-07-19T08:10:13Z</time>
      </trkpt>
      <trkpt lat="47.38468" lon="-0.93513">
        <ele>67.102</ele>
        <time>2020-07-19T08:10:14Z</time>
      </trkpt>
      <trkpt lat="47.38476" lon="-0.93508">
        <ele>66.525</ele>
        <time>2020-07-19T08:10:15Z</time>
      </trkpt>
      <trkpt lat="47.38481" lon="-0.93501">
        <ele>66.884</ele>
        <time>2020-07-19T08:10:16Z</time>
      </trkpt>
      <trkpt lat="47.38485" lon="-0.93494">
        <ele>66.873</ele>
        <time>2020-07-19T08:10:17Z</time>
      </trkpt>
      <trkpt lat="47.38492" lon="-0.93489">
        <ele>65.751</ele>
        <time>2020-07-19T08:10:18Z</time>
      </trkpt>
      <trkpt lat="47.38497" lon="-0.93482">
        <ele>65.81</ele>
        <time>2020-07-19T08:10:19Z</time>
      </trkpt>
      <trkpt lat="47.38502" lon="-0.93476">
        <ele>65.929</ele>
        <time>2020-07-19T08:10:20Z</time>
      </trkpt>
      <trkpt lat="47.38507" lon="-0.9347">
        <ele>66.263</ele>
        <time>2020-07-19T08:10:21Z</time>
      </trkpt>
      <trkpt lat="47.38512" lon="-0.93464">
        <ele>66.514</ele>
        <time>2020-07-19T08:10:22Z</time>
      </trkpt>
      <trkpt lat="47.38517" lon="-0.93458">
        <ele>66.996</ele>
        <time>2020-07-19T08:10:23Z</time>
      </trkpt>
      <trkpt lat="47.38523" lon="-0.93452">
        <ele>66.575</ele>
        <time>2020-07-19T08:10:24Z</time>
      </trkpt>
      <trkpt lat="47.38529" lon="-0.93447">
        <ele>66.147</ele>
        <time>2020-07-19T08:10:25Z</time>
      </trkpt>
      <trkpt lat="47.38536" lon="-0.93441">
        <ele>66.251</ele>
        <time>2020-07-19T08:10:26Z</time>
      </trkpt>
      <trkpt lat="47.38543" lon="-0.93437">
        <ele>65.443</ele>
        <time>2020-07-19T08:10:27Z</time>
      </trkpt>
      <trkpt lat="47.38549" lon="-0.93431">
        <ele>65.02</ele>
        <time>2020-07-19T08:10:28Z</time>
      </trkpt>
      <trkpt lat="47.38555" lon="-0.93426">
        <ele>65.905</ele>
        <time>2020-07-19T08:10:29Z</time>
      </trkpt>
      <trkpt lat="47.38562" lon="-0.93421">
        <ele>66.517</ele>
        <time>2020-07-19T08:10:30Z</time>
      </trkpt>
      <trkpt lat="47.38569" lon="-0.93417">
        <ele>67.376</ele>
        <time>2020-07-19T08:10:31Z</time>
      </trkpt>
      <trkpt lat="47.38576" lon="-0.93413">
        <ele>68.13</ele>
        <time>2020-07-19T08:10:32Z</time>
      </trkpt>
      <trkpt lat="47.38584" lon="-0.93408">
        <ele>69.171</ele>
        <time>2020-07-19T08:10:33Z</time>
      </trkpt>
      <trkpt lat="47.38591" lon="-0.93403">
        <ele>69.199</ele>
        <time>2020-07-19T08:10:34Z</time>
      </trkpt>
      <trkpt lat="47.38597" lon="-0.93399">
        <ele>69.245</ele>
        <time>2020-07-19T08:10:35Z</time>
      </trkpt>
      <trkpt lat="47.38603" lon="-0.93393">
        <ele>70.223</ele>
        <time>2020-07-19T08:10:36Z</time>
      </trkpt>
      <trkpt lat="47.38609" lon="-0.93388">
        <ele>69.705</ele>
        <time>2020-07-19T08:10:37Z</time>
      </trkpt>
      <trkpt lat="47.38608" lon="-0.93384">
        <ele>65.616</ele>
        <time>2020-07-19T08:10:38Z</time>
      </trkpt>
      <trkpt lat="47.38614" lon="-0.9338">
        <ele>64.374</ele>
        <time>2020-07-19T08:10:39Z</time>
      </trkpt>
      <trkpt lat="47.38619" lon="-0.93376">
        <ele>65.433</ele>
        <time>2020-07-19T08:10:40Z</time>
      </trkpt>
      <trkpt lat="47.38626" lon="-0.93372">
        <ele>66.608</ele>
        <time>2020-07-19T08:10:41Z</time>
      </trkpt>
      <trkpt lat="47.38633" lon="-0.93367">
        <ele>67.661</ele>
        <time>2020-07-19T08:10:42Z</time>
      </trkpt>
      <trkpt lat="47.3864" lon="-0.93364">
        <ele>66.047</ele>
        <time>2020-07-19T08:10:43Z</time>
      </trkpt>
      <trkpt lat="47.38646" lon="-0.93362">
        <ele>64.864</ele>
        <time>2020-07-19T08:10:44Z</time>
      </trkpt>
      <trkpt lat="47.38652" lon="-0.93358">
        <ele>64.874</ele>
        <time>2020-07-19T08:10:45Z</time>
      </trkpt>
      <trkpt lat="47.38659" lon="-0.93355">
        <ele>64.724</ele>
        <time>2020-07-19T08:10:46Z</time>
      </trkpt>
      <trkpt lat="47.38664" lon="-0.93351">
        <ele>63.264</ele>
        <time>2020-07-19T08:10:47Z</time>
      </trkpt>
      <trkpt lat="47.3867" lon="-0.93348">
        <ele>60.952</ele>
        <time>2020-07-19T08:10:48Z</time>
      </trkpt>
      <trkpt lat="47.38675" lon="-0.93344">
        <ele>60.639</ele>
        <time>2020-07-19T08:10:49Z</time>
      </trkpt>
      <trkpt lat="47.38682" lon="-0.9334">
        <ele>60.805</ele>
        <time>2020-07-19T08:10:50Z</time>
      </trkpt>
      <trkpt lat="47.38688" lon="-0.93336">
        <ele>61.046</ele>
        <time>2020-07-19T08:10:51Z</time>
      </trkpt>
      <trkpt lat="47.38694" lon="-0.93332">
        <ele>61.205</ele>
        <time>2020-07-19T08:10:52Z</time>
      </trkpt>
      <trkpt lat="47.38702" lon="-0.9333">
        <ele>61.847</ele>
        <time>2020-07-19T08:10:53Z</time>
      </trkpt>
      <trkpt lat="47.38707" lon="-0.93327">
        <ele>61.36</ele>
        <time>2020-07-19T08:10:54Z</time>
      </trkpt>
      <trkpt lat="47.38713" lon="-0.93322">
        <ele>61.161</ele>
        <time>2020-07-19T08:10:55Z</time>
      </trkpt>
      <trkpt lat="47.38719" lon="-0.93319">
        <ele>62.651</ele>
        <time>2020-07-19T08:10:56Z</time>
      </trkpt>
      <trkpt lat="47.38725" lon="-0.93314">
        <ele>63.014</ele>
        <time>2020-07-19T08:10:57Z</time>
      </trkpt>
      <trkpt lat="47.38731" lon="-0.9331">
        <ele>62.457</ele>
        <time>2020-07-19T08:10:58Z</time>
      </trkpt>
      <trkpt lat="47.38737" lon="-0.93305">
        <ele>62.157</ele>
        <time>2020-07-19T08:10:59Z</time>
      </trkpt>
      <trkpt lat="47.38744" lon="-0.93299">
        <ele>62.353</ele>
        <time>2020-07-19T08:11:00Z</time>
      </trkpt>
      <trkpt lat="47.38751" lon="-0.93295">
        <ele>62.904</ele>
        <time>2020-07-19T08:11:01Z</time>
      </trkpt>
      <trkpt lat="47.38757" lon="-0.9329">
        <ele>62.177</ele>
        <time>2020-07-19T08:11:02Z</time>
      </trkpt>
      <trkpt lat="47.38762" lon="-0.93285">
        <ele>62.03</ele>
        <time>2020-07-19T08:11:03Z</time>
      </trkpt>
      <trkpt lat="47.38769" lon="-0.93279">
        <ele>63.457</ele>
        <time>2020-07-19T08:11:04Z</time>
      </trkpt>
      <trkpt lat="47.38775" lon="-0.93273">
        <ele>63.979</ele>
        <time>2020-07-19T08:11:05Z</time>
      </trkpt>
      <trkpt lat="47.3878" lon="-0.93266">
        <ele>63.996</ele>
        <time>2020-07-19T08:11:06Z</time>
      </trkpt>
      <trkpt lat="47.38786" lon="-0.9326">
        <ele>64.061</ele>
        <time>2020-07-19T08:11:07Z</time>
      </trkpt>
      <trkpt lat="47.38792" lon="-0.93255">
        <ele>63.411</ele>
        <time>2020-07-19T08:11:08Z</time>
      </trkpt>
      <trkpt lat="47.38797" lon="-0.93249">
        <ele>63.268</ele>
        <time>2020-07-19T08:11:09Z</time>
      </trkpt>
      <trkpt lat="47.38803" lon="-0.93244">
        <ele>63.116</ele>
        <time>2020-07-19T08:11:10Z</time>
      </trkpt>
      <trkpt lat="47.3881" lon="-0.93239">
        <ele>63.416</ele>
        <time>2020-07-19T08:11:11Z</time>
      </trkpt>
      <trkpt lat="47.38816" lon="-0.93233">
        <ele>63.364</ele>
        <time>2020-07-19T08:11:12Z</time>
      </trkpt>
      <trkpt lat="47.38822" lon="-0.93226">
        <ele>63.466</ele>
        <time>2020-07-19T08:11:13Z</time>
      </trkpt>
      <trkpt lat="47.38829" lon="-0.9322">
        <ele>63.443</ele>
        <time>2020-07-19T08:11:14Z</time>
      </trkpt>
      <trkpt lat="47.38836" lon="-0.93215">
        <ele>62.641</ele>
        <time>2020-07-19T08:11:15Z</time>
      </trkpt>
      <trkpt lat="47.38842" lon="-0.93209">
        <ele>62.703</ele>
        <time>2020-07-19T08:11:16Z</time>
      </trkpt>
      <trkpt lat="47.38847" lon="-0.93201">
        <ele>63.24</ele>
        <time>2020-07-19T08:11:17Z</time>
      </trkpt>
      <trkpt lat="47.38854" lon="-0.93195">
        <ele>63.732</ele>
        <time>2020-07-19T08:11:18Z</time>
      </trkpt>
      <trkpt lat="47.38858" lon="-0.93187">
        <ele>63.71</ele>
        <time>2020-07-19T08:11:19Z</time>
      </trkpt>
      <trkpt lat="47.38865" lon="-0.93182">
        <ele>63.606</ele>
        <time>2020-07-19T08:11:20Z</time>
      </trkpt>
      <trkpt lat="47.38872" lon="-0.93176">
        <ele>63.122</ele>
        <time>2020-07-19T08:11:21Z</time>
      </trkpt>
      <trkpt lat="47.38877" lon="-0.9317">
        <ele>62.684</ele>
        <time>2020-07-19T08:11:22Z</time>
      </trkpt>
      <trkpt lat="47.38883" lon="-0.93163">
        <ele>63.294</ele>
        <time>2020-07-19T08:11:23Z</time>
      </trkpt>
      <trkpt lat="47.38889" lon="-0.93157">
        <ele>64.176</ele>
        <time>2020-07-19T08:11:24Z</time>
      </trkpt>
      <trkpt lat="47.38894" lon="-0.9315">
        <ele>64.6</ele>
        <time>2020-07-19T08:11:25Z</time>
      </trkpt>
      <trkpt lat="47.38899" lon="-0.93146">
        <ele>63.075</ele>
        <time>2020-07-19T08:11:26Z</time>
      </trkpt>
      <trkpt lat="47.38905" lon="-0.93139">
        <ele>62.67</ele>
        <time>2020-07-19T08:11:27Z</time>
      </trkpt>
      <trkpt lat="47.3891" lon="-0.93132">
        <ele>63.875</ele>
        <time>2020-07-19T08:11:28Z</time>
      </trkpt>
      <trkpt lat="47.38915" lon="-0.93125">
        <ele>63.502</ele>
        <time>2020-07-19T08:11:29Z</time>
      </trkpt>
      <trkpt lat="47.3892" lon="-0.93119">
        <ele>80.445</ele>
        <time>2020-07-19T08:11:30Z</time>
      </trkpt>
      <trkpt lat="47.38925" lon="-0.93112">
        <ele>75.075</ele>
        <time>2020-07-19T08:11:31Z</time>
      </trkpt>
      <trkpt lat="47.3893" lon="-0.93104">
        <ele>70.992</ele>
        <time>2020-07-19T08:11:32Z</time>
      </trkpt>
      <trkpt lat="47.38935" lon="-0.93098">
        <ele>67.695</ele>
        <time>2020-07-19T08:11:33Z</time>
      </trkpt>
      <trkpt lat="47.3894" lon="-0.93091">
        <ele>65.473</ele>
        <time>2020-07-19T08:11:34Z</time>
      </trkpt>
      <trkpt lat="47.38946" lon="-0.93085">
        <ele>64.808</ele>
        <time>2020-07-19T08:11:35Z</time>
      </trkpt>
      <trkpt lat="47.3895" lon="-0.93079">
        <ele>63.541</ele>
        <time>2020-07-19T08:11:36Z</time>
      </trkpt>
      <trkpt lat="47.38957" lon="-0.93074">
        <ele>63.813</ele>
        <time>2020-07-19T08:11:37Z</time>
      </trkpt>
      <trkpt lat="47.38962" lon="-0.93066">
        <ele>64.225</ele>
        <time>2020-07-19T08:11:38Z</time>
      </trkpt>
      <trkpt lat="47.38968" lon="-0.9306">
        <ele>64.992</ele>
        <time>2020-07-19T08:11:39Z</time>
      </trkpt>
      <trkpt lat="47.38973" lon="-0.93054">
        <ele>64.362</ele>
        <time>2020-07-19T08:11:40Z</time>
      </trkpt>
      <trkpt lat="47.38978" lon="-0.93047">
        <ele>64.09</ele>
        <time>2020-07-19T08:11:41Z</time>
      </trkpt>
      <trkpt lat="47.38984" lon="-0.93042">
        <ele>63.347</ele>
        <time>2020-07-19T08:11:42Z</time>
      </trkpt>
      <trkpt lat="47.38989" lon="-0.93035">
        <ele>63.478</ele>
        <time>2020-07-19T08:11:43Z</time>
      </trkpt>
      <trkpt lat="47.38996" lon="-0.93029">
        <ele>62.923</ele>
        <time>2020-07-19T08:11:44Z</time>
      </trkpt>
      <trkpt lat="47.39" lon="-0.93022">
        <ele>62.975</ele>
        <time>2020-07-19T08:11:45Z</time>
      </trkpt>
      <trkpt lat="47.39005" lon="-0.93015">
        <ele>63.311</ele>
        <time>2020-07-19T08:11:46Z</time>
      </trkpt>
      <trkpt lat="47.3901" lon="-0.93007">
        <ele>64.505</ele>
        <time>2020-07-19T08:11:47Z</time>
      </trkpt>
      <trkpt lat="47.39016" lon="-0.93001">
        <ele>65.254</ele>
        <time>2020-07-19T08:11:48Z</time>
      </trkpt>
      <trkpt lat="47.39021" lon="-0.92995">
        <ele>65.346</ele>
        <time>2020-07-19T08:11:49Z</time>
      </trkpt>
      <trkpt lat="47.39027" lon="-0.92989">
        <ele>66.819</ele>
        <time>2020-07-19T08:11:50Z</time>
      </trkpt>
      <trkpt lat="47.39033" lon="-0.92981">
        <ele>67.662</ele>
        <time>2020-07-19T08:11:51Z</time>
      </trkpt>
      <trkpt lat="47.3904" lon="-0.92976">
        <ele>68.826</ele>
        <time>2020-07-19T08:11:52Z</time>
      </trkpt>
      <trkpt lat="47.39046" lon="-0.92972">
        <ele>67.83</ele>
        <time>2020-07-19T08:11:53Z</time>
      </trkpt>
      <trkpt lat="47.39048" lon="-0.92965">
        <ele>65.521</ele>
        <time>2020-07-19T08:11:54Z</time>
      </trkpt>
      <trkpt lat="47.39052" lon="-0.92958">
        <ele>64.186</ele>
        <time>2020-07-19T08:11:55Z</time>
      </trkpt>
      <trkpt lat="47.39057" lon="-0.92953">
        <ele>62.897</ele>
        <time>2020-07-19T08:11:56Z</time>
      </trkpt>
      <trkpt lat="47.39061" lon="-0.92945">
        <ele>64.004</ele>
        <time>2020-07-19T08:11:57Z</time>
      </trkpt>
      <trkpt lat="47.39066" lon="-0.92938">
        <ele>62.219</ele>
        <time>2020-07-19T08:11:58Z</time>
      </trkpt>
      <trkpt lat="47.39073" lon="-0.92933">
        <ele>61.838</ele>
        <time>2020-07-19T08:11:59Z</time>
      </trkpt>
      <trkpt lat="47.39078" lon="-0.92926">
        <ele>61.458</ele>
        <time>2020-07-19T08:12:00Z</time>
      </trkpt>
      <trkpt lat="47.39082" lon="-0.9292">
        <ele>60.388</ele>
        <time>2020-07-19T08:12:01Z</time>
      </trkpt>
      <trkpt lat="47.39088" lon="-0.92913">
        <ele>60.749</ele>
        <time>2020-07-19T08:12:02Z</time>
      </trkpt>
      <trkpt lat="47.39094" lon="-0.92906">
        <ele>59.483</ele>
        <time>2020-07-19T08:12:03Z</time>
      </trkpt>
      <trkpt lat="47.39099" lon="-0.92901">
        <ele>58.879</ele>
        <time>2020-07-19T08:12:04Z</time>
      </trkpt>
      <trkpt lat="47.39104" lon="-0.92894">
        <ele>58.587</ele>
        <time>2020-07-19T08:12:05Z</time>
      </trkpt>
      <trkpt lat="47.39109" lon="-0.92888">
        <ele>58.556</ele>
        <time>2020-07-19T08:12:06Z</time>
      </trkpt>
      <trkpt lat="47.39114" lon="-0.92882">
        <ele>60.163</ele>
        <time>2020-07-19T08:12:07Z</time>
      </trkpt>
      <trkpt lat="47.39119" lon="-0.92879">
        <ele>59.315</ele>
        <time>2020-07-19T08:12:08Z</time>
      </trkpt>
      <trkpt lat="47.39123" lon="-0.92872">
        <ele>59.754</ele>
        <time>2020-07-19T08:12:09Z</time>
      </trkpt>
      <trkpt lat="47.39127" lon="-0.92867">
        <ele>81.922</ele>
        <time>2020-07-19T08:12:10Z</time>
      </trkpt>
      <trkpt lat="47.39129" lon="-0.92862">
        <ele>75.984</ele>
        <time>2020-07-19T08:12:11Z</time>
      </trkpt>
      <trkpt lat="47.39133" lon="-0.92857">
        <ele>70.8</ele>
        <time>2020-07-19T08:12:12Z</time>
      </trkpt>
      <trkpt lat="47.39137" lon="-0.92852">
        <ele>67.337</ele>
        <time>2020-07-19T08:12:13Z</time>
      </trkpt>
      <trkpt lat="47.39141" lon="-0.92848">
        <ele>65.524</ele>
        <time>2020-07-19T08:12:14Z</time>
      </trkpt>
      <trkpt lat="47.39146" lon="-0.92844">
        <ele>65.349</ele>
        <time>2020-07-19T08:12:15Z</time>
      </trkpt>
      <trkpt lat="47.3915" lon="-0.92841">
        <ele>65.844</ele>
        <time>2020-07-19T08:12:16Z</time>
      </trkpt>
      <trkpt lat="47.39154" lon="-0.9284">
        <ele>63.793</ele>
        <time>2020-07-19T08:12:17Z</time>
      </trkpt>
      <trkpt lat="47.39158" lon="-0.9284">
        <ele>63.055</ele>
        <time>2020-07-19T08:12:18Z</time>
      </trkpt>
      <trkpt lat="47.39164" lon="-0.92838">
        <ele>63.244</ele>
        <time>2020-07-19T08:12:19Z</time>
      </trkpt>
      <trkpt lat="47.39169" lon="-0.92835">
        <ele>62.255</ele>
        <time>2020-07-19T08:12:20Z</time>
      </trkpt>
      <trkpt lat="47.39174" lon="-0.92832">
        <ele>60.985</ele>
        <time>2020-07-19T08:12:21Z</time>
      </trkpt>
      <trkpt lat="47.3918" lon="-0.92827">
        <ele>61.228</ele>
        <time>2020-07-19T08:12:22Z</time>
      </trkpt>
      <trkpt lat="47.39185" lon="-0.92821">
        <ele>61.788</ele>
        <time>2020-07-19T08:12:23Z</time>
      </trkpt>
      <trkpt lat="47.39191" lon="-0.92818">
        <ele>60.54</ele>
        <time>2020-07-19T08:12:24Z</time>
      </trkpt>
      <trkpt lat="47.39195" lon="-0.92815">
        <ele>62.387</ele>
        <time>2020-07-19T08:12:25Z</time>
      </trkpt>
      <trkpt lat="47.39198" lon="-0.9281">
        <ele>63.984</ele>
        <time>2020-07-19T08:12:26Z</time>
      </trkpt>
      <trkpt lat="47.39201" lon="-0.92809">
        <ele>63.383</ele>
        <time>2020-07-19T08:12:27Z</time>
      </trkpt>
      <trkpt lat="47.39204" lon="-0.92809">
        <ele>63.479</ele>
        <time>2020-07-19T08:12:28Z</time>
      </trkpt>
      <trkpt lat="47.39204" lon="-0.92809">
        <ele>63.386</ele>
        <time>2020-07-19T08:12:29Z</time>
      </trkpt>
      <trkpt lat="47.39204" lon="-0.92814">
        <ele>65.453</ele>
        <time>2020-07-19T08:12:30Z</time>
      </trkpt>
      <trkpt lat="47.39204" lon="-0.92819">
        <ele>65.197</ele>
        <time>2020-07-19T08:12:31Z</time>
      </trkpt>
      <trkpt lat="47.39205" lon="-0.92824">
        <ele>65.148</ele>
        <time>2020-07-19T08:12:32Z</time>
      </trkpt>
      <trkpt lat="47.39206" lon="-0.92827">
        <ele>63.45</ele>
        <time>2020-07-19T08:12:33Z</time>
      </trkpt>
      <trkpt lat="47.39206" lon="-0.92827">
        <ele>63.106</ele>
        <time>2020-07-19T08:12:34Z</time>
      </trkpt>
      <trkpt lat="47.39204" lon="-0.92828">
        <ele>61.44</ele>
        <time>2020-07-19T08:12:35Z</time>
      </trkpt>
      <trkpt lat="47.39204" lon="-0.92829">
        <ele>60.794</ele>
        <time>2020-07-19T08:12:36Z</time>
      </trkpt>
      <trkpt lat="47.39203" lon="-0.9283">
        <ele>59.847</ele>
        <time>2020-07-19T08:12:37Z</time>
      </trkpt>
      <trkpt lat="47.39203" lon="-0.92831">
        <ele>59.918</ele>
        <time>2020-07-19T08:12:38Z</time>
      </trkpt>
      <trkpt lat="47.39203" lon="-0.92831">
        <ele>59.662</ele>
        <time>2020-07-19T08:12:39Z</time>
      </trkpt>
      <trkpt lat="47.39203" lon="-0.92831">
        <ele>59.17</ele>
        <time>2020-07-19T08:12:40Z</time>
      </trkpt>
      <trkpt lat="47.39202" lon="-0.92831">
        <ele>58.996</ele>
        <time>2020-07-19T08:12:41Z</time>
      </trkpt>
      <trkpt lat="47.39203" lon="-0.92831">
        <ele>59.315</ele>
        <time>2020-07-19T08:12:42Z</time>
      </trkpt>
      <trkpt lat="47.39203" lon="-0.92831">
        <ele>59.443</ele>
        <time>2020-07-19T08:12:43Z</time>
      </trkpt>
      <trkpt lat="47.39203" lon="-0.92831">
        <ele>59.917</ele>
        <time>2020-07-19T08:12:44Z</time>
      </trkpt>
      <trkpt lat="47.39204" lon="-0.92832">
        <ele>60.84</ele>
        <time>2020-07-19T08:12:45Z</time>
      </trkpt>
      <trkpt lat="47.39205" lon="-0.92833">
        <ele>61.794</ele>
        <time>2020-07-19T08:12:46Z</time>
      </trkpt>
      <trkpt lat="47.39205" lon="-0.92834">
        <ele>62.182</ele>
        <time>2020-07-19T08:12:47Z</time>
      </trkpt>
      <trkpt lat="47.39205" lon="-0.92834">
        <ele>62.026</ele>
        <time>2020-07-19T08:12:48Z</time>
      </trkpt>
      <trkpt lat="47.39204" lon="-0.92834">
        <ele>62.247</ele>
        <time>2020-07-19T08:12:49Z</time>
      </trkpt>
      <trkpt lat="47.39205" lon="-0.92834">
        <ele>62.573</ele>
        <time>2020-07-19T08:12:50Z</time>
      </trkpt>
      <trkpt lat="47.39206" lon="-0.92835">
        <ele>61.813</ele>
        <time>2020-07-19T08:12:52Z</time>
      </trkpt>
      <trkpt lat="47.39208" lon="-0.92833">
        <ele>60.978</ele>
        <time>2020-07-19T08:12:53Z</time>
      </trkpt>
      <trkpt lat="47.39209" lon="-0.92832">
        <ele>60.906</ele>
        <time>2020-07-19T08:12:54Z</time>
      </trkpt>
      <trkpt lat="47.39211" lon="-0.92829">
        <ele>60.164</ele>
        <time>2020-07-19T08:12:55Z</time>
      </trkpt>
      <trkpt lat="47.39213" lon="-0.92826">
        <ele>59.978</ele>
        <time>2020-07-19T08:12:56Z</time>
      </trkpt>
      <trkpt lat="47.39214" lon="-0.92823">
        <ele>59.488</ele>
        <time>2020-07-19T08:12:57Z</time>
      </trkpt>
      <trkpt lat="47.39215" lon="-0.9282">
        <ele>58.764</ele>
        <time>2020-07-19T08:12:58Z</time>
      </trkpt>
      <trkpt lat="47.39217" lon="-0.92818">
        <ele>58.495</ele>
        <time>2020-07-19T08:12:59Z</time>
      </trkpt>
      <trkpt lat="47.39219" lon="-0.92815">
        <ele>58.47</ele>
        <time>2020-07-19T08:13:00Z</time>
      </trkpt>
      <trkpt lat="47.3922" lon="-0.92813">
        <ele>58.167</ele>
        <time>2020-07-19T08:13:01Z</time>
      </trkpt>
      <trkpt lat="47.39223" lon="-0.9281">
        <ele>59.031</ele>
        <time>2020-07-19T08:13:02Z</time>
      </trkpt>
      <trkpt lat="47.39226" lon="-0.92809">
        <ele>59.168</ele>
        <time>2020-07-19T08:13:03Z</time>
      </trkpt>
      <trkpt lat="47.39229" lon="-0.92809">
        <ele>59.298</ele>
        <time>2020-07-19T08:13:04Z</time>
      </trkpt>
      <trkpt lat="47.39233" lon="-0.9281">
        <ele>59.659</ele>
        <time>2020-07-19T08:13:05Z</time>
      </trkpt>
      <trkpt lat="47.39236" lon="-0.92812">
        <ele>60.22</ele>
        <time>2020-07-19T08:13:06Z</time>
      </trkpt>
      <trkpt lat="47.39239" lon="-0.92814">
        <ele>60.002</ele>
        <time>2020-07-19T08:13:07Z</time>
      </trkpt>
      <trkpt lat="47.39243" lon="-0.92815">
        <ele>59.678</ele>
        <time>2020-07-19T08:13:08Z</time>
      </trkpt>
      <trkpt lat="47.39246" lon="-0.92815">
        <ele>59.597</ele>
        <time>2020-07-19T08:13:09Z</time>
      </trkpt>
      <trkpt lat="47.39249" lon="-0.92814">
        <ele>59.047</ele>
        <time>2020-07-19T08:13:10Z</time>
      </trkpt>
      <trkpt lat="47.39251" lon="-0.9281">
        <ele>59.379</ele>
        <time>2020-07-19T08:13:11Z</time>
      </trkpt>
      <trkpt lat="47.39252" lon="-0.92806">
        <ele>59.244</ele>
        <time>2020-07-19T08:13:12Z</time>
      </trkpt>
      <trkpt lat="47.39253" lon="-0.92801">
        <ele>58.955</ele>
        <time>2020-07-19T08:13:13Z</time>
      </trkpt>
      <trkpt lat="47.39253" lon="-0.92796">
        <ele>59.002</ele>
        <time>2020-07-19T08:13:14Z</time>
      </trkpt>
      <trkpt lat="47.39253" lon="-0.92793">
        <ele>58.73</ele>
        <time>2020-07-19T08:13:15Z</time>
      </trkpt>
      <trkpt lat="47.39252" lon="-0.92791">
        <ele>58.814</ele>
        <time>2020-07-19T08:13:16Z</time>
      </trkpt>
      <trkpt lat="47.39252" lon="-0.92789">
        <ele>58.72</ele>
        <time>2020-07-19T08:13:17Z</time>
      </trkpt>
      <trkpt lat="47.39253" lon="-0.92788">
        <ele>59.903</ele>
        <time>2020-07-19T08:13:18Z</time>
      </trkpt>
      <trkpt lat="47.39255" lon="-0.92787">
        <ele>59.696</ele>
        <time>2020-07-19T08:13:19Z</time>
      </trkpt>
      <trkpt lat="47.39256" lon="-0.92787">
        <ele>58.929</ele>
        <time>2020-07-19T08:13:20Z</time>
      </trkpt>
      <trkpt lat="47.39259" lon="-0.92788">
        <ele>59.434</ele>
        <time>2020-07-19T08:13:21Z</time>
      </trkpt>
      <trkpt lat="47.3926" lon="-0.9279">
        <ele>59.58</ele>
        <time>2020-07-19T08:13:22Z</time>
      </trkpt>
      <trkpt lat="47.39261" lon="-0.92793">
        <ele>59.452</ele>
        <time>2020-07-19T08:13:23Z</time>
      </trkpt>
      <trkpt lat="47.39261" lon="-0.92796">
        <ele>60.454</ele>
        <time>2020-07-19T08:13:24Z</time>
      </trkpt>
      <trkpt lat="47.3926" lon="-0.928">
        <ele>61.542</ele>
        <time>2020-07-19T08:13:25Z</time>
      </trkpt>
      <trkpt lat="47.39258" lon="-0.92804">
        <ele>60.93</ele>
        <time>2020-07-19T08:13:26Z</time>
      </trkpt>
      <trkpt lat="47.39255" lon="-0.92807">
        <ele>61.043</ele>
        <time>2020-07-19T08:13:27Z</time>
      </trkpt>
      <trkpt lat="47.39253" lon="-0.9281">
        <ele>60.905</ele>
        <time>2020-07-19T08:13:28Z</time>
      </trkpt>
      <trkpt lat="47.3925" lon="-0.92812">
        <ele>60.579</ele>
        <time>2020-07-19T08:13:29Z</time>
      </trkpt>
      <trkpt lat="47.39248" lon="-0.92815">
        <ele>60.192</ele>
        <time>2020-07-19T08:13:30Z</time>
      </trkpt>
      <trkpt lat="47.39245" lon="-0.92817">
        <ele>60.115</ele>
        <time>2020-07-19T08:13:31Z</time>
      </trkpt>
      <trkpt lat="47.39242" lon="-0.92819">
        <ele>59.219</ele>
        <time>2020-07-19T08:13:32Z</time>
      </trkpt>
      <trkpt lat="47.39239" lon="-0.92819">
        <ele>59.319</ele>
        <time>2020-07-19T08:13:33Z</time>
      </trkpt>
      <trkpt lat="47.39236" lon="-0.92819">
        <ele>60.327</ele>
        <time>2020-07-19T08:13:34Z</time>
      </trkpt>
      <trkpt lat="47.39233" lon="-0.92818">
        <ele>59.682</ele>
        <time>2020-07-19T08:13:35Z</time>
      </trkpt>
      <trkpt lat="47.39231" lon="-0.92817">
        <ele>59.77</ele>
        <time>2020-07-19T08:13:36Z</time>
      </trkpt>
      <trkpt lat="47.39228" lon="-0.92816">
        <ele>58.34</ele>
        <time>2020-07-19T08:13:37Z</time>
      </trkpt>
      <trkpt lat="47.39225" lon="-0.92816">
        <ele>58.7</ele>
        <time>2020-07-19T08:13:38Z</time>
      </trkpt>
      <trkpt lat="47.39221" lon="-0.92816">
        <ele>57.349</ele>
        <time>2020-07-19T08:13:39Z</time>
      </trkpt>
      <trkpt lat="47.39218" lon="-0.92817">
        <ele>57.338</ele>
        <time>2020-07-19T08:13:40Z</time>
      </trkpt>
      <trkpt lat="47.39215" lon="-0.92819">
        <ele>57.614</ele>
        <time>2020-07-19T08:13:41Z</time>
      </trkpt>
      <trkpt lat="47.39213" lon="-0.92822">
        <ele>57.832</ele>
        <time>2020-07-19T08:13:42Z</time>
      </trkpt>
      <trkpt lat="47.3921" lon="-0.92824">
        <ele>57.284</ele>
        <time>2020-07-19T08:13:43Z</time>
      </trkpt>
      <trkpt lat="47.39208" lon="-0.92826">
        <ele>56.435</ele>
        <time>2020-07-19T08:13:44Z</time>
      </trkpt>
      <trkpt lat="47.39206" lon="-0.92827">
        <ele>56.148</ele>
        <time>2020-07-19T08:13:45Z</time>
      </trkpt>
      <trkpt lat="47.39204" lon="-0.92827">
        <ele>56.239</ele>
        <time>2020-07-19T08:13:46Z</time>
      </trkpt>
      <trkpt lat="47.39202" lon="-0.92825">
        <ele>57.683</ele>
        <time>2020-07-19T08:13:47Z</time>
      </trkpt>
      <trkpt lat="47.392" lon="-0.92822">
        <ele>57.641</ele>
        <time>2020-07-19T08:13:48Z</time>
      </trkpt>
      <trkpt lat="47.39199" lon="-0.92817">
        <ele>57.619</ele>
        <time>2020-07-19T08:13:49Z</time>
      </trkpt>
      <trkpt lat="47.39197" lon="-0.92813">
        <ele>57.485</ele>
        <time>2020-07-19T08:13:50Z</time>
      </trkpt>
      <trkpt lat="47.39194" lon="-0.92811">
        <ele>57.071</ele>
        <time>2020-07-19T08:13:51Z</time>
      </trkpt>
      <trkpt lat="47.39191" lon="-0.9281">
        <ele>57.21</ele>
        <time>2020-07-19T08:13:52Z</time>
      </trkpt>
      <trkpt lat="47.39189" lon="-0.92811">
        <ele>56.997</ele>
        <time>2020-07-19T08:13:53Z</time>
      </trkpt>
      <trkpt lat="47.39186" lon="-0.92813">
        <ele>56.716</ele>
        <time>2020-07-19T08:13:54Z</time>
      </trkpt>
      <trkpt lat="47.39183" lon="-0.92815">
        <ele>57.464</ele>
        <time>2020-07-19T08:13:55Z</time>
      </trkpt>
      <trkpt lat="47.39181" lon="-0.92818">
        <ele>57.882</ele>
        <time>2020-07-19T08:13:56Z</time>
      </trkpt>
      <trkpt lat="47.39178" lon="-0.9282">
        <ele>57.432</ele>
        <time>2020-07-19T08:13:57Z</time>
      </trkpt>
      <trkpt lat="47.39176" lon="-0.92823">
        <ele>58.3</ele>
        <time>2020-07-19T08:13:58Z</time>
      </trkpt>
      <trkpt lat="47.39174" lon="-0.92826">
        <ele>59.45</ele>
        <time>2020-07-19T08:13:59Z</time>
      </trkpt>
      <trkpt lat="47.39172" lon="-0.92829">
        <ele>60.338</ele>
        <time>2020-07-19T08:14:00Z</time>
      </trkpt>
      <trkpt lat="47.39169" lon="-0.92832">
        <ele>61.684</ele>
        <time>2020-07-19T08:14:01Z</time>
      </trkpt>
      <trkpt lat="47.39167" lon="-0.92835">
        <ele>62.733</ele>
        <time>2020-07-19T08:14:02Z</time>
      </trkpt>
      <trkpt lat="47.39164" lon="-0.92837">
        <ele>62.702</ele>
        <time>2020-07-19T08:14:03Z</time>
      </trkpt>
      <trkpt lat="47.39161" lon="-0.92838">
        <ele>63.037</ele>
        <time>2020-07-19T08:14:04Z</time>
      </trkpt>
      <trkpt lat="47.39159" lon="-0.92839">
        <ele>63.174</ele>
        <time>2020-07-19T08:14:05Z</time>
      </trkpt>
      <trkpt lat="47.39157" lon="-0.9284">
        <ele>65.239</ele>
        <time>2020-07-19T08:14:06Z</time>
      </trkpt>
      <trkpt lat="47.39156" lon="-0.92839">
        <ele>66.191</ele>
        <time>2020-07-19T08:14:07Z</time>
      </trkpt>
      <trkpt lat="47.39155" lon="-0.92836">
        <ele>65.854</ele>
        <time>2020-07-19T08:14:08Z</time>
      </trkpt>
      <trkpt lat="47.39155" lon="-0.92832">
        <ele>65.486</ele>
        <time>2020-07-19T08:14:09Z</time>
      </trkpt>
      <trkpt lat="47.39157" lon="-0.92827">
        <ele>65.77</ele>
        <time>2020-07-19T08:14:10Z</time>
      </trkpt>
      <trkpt lat="47.3916" lon="-0.92824">
        <ele>65.204</ele>
        <time>2020-07-19T08:14:11Z</time>
      </trkpt>
      <trkpt lat="47.39163" lon="-0.92821">
        <ele>65.708</ele>
        <time>2020-07-19T08:14:12Z</time>
      </trkpt>
      <trkpt lat="47.39166" lon="-0.92817">
        <ele>65.597</ele>
        <time>2020-07-19T08:14:13Z</time>
      </trkpt>
      <trkpt lat="47.39169" lon="-0.92814">
        <ele>64.972</ele>
        <time>2020-07-19T08:14:14Z</time>
      </trkpt>
      <trkpt lat="47.39172" lon="-0.9281">
        <ele>64.533</ele>
        <time>2020-07-19T08:14:15Z</time>
      </trkpt>
      <trkpt lat="47.39175" lon="-0.92806">
        <ele>63.909</ele>
        <time>2020-07-19T08:14:16Z</time>
      </trkpt>
      <trkpt lat="47.3918" lon="-0.92802">
        <ele>64.12</ele>
        <time>2020-07-19T08:14:17Z</time>
      </trkpt>
      <trkpt lat="47.39183" lon="-0.92797">
        <ele>64.797</ele>
        <time>2020-07-19T08:14:18Z</time>
      </trkpt>
      <trkpt lat="47.39187" lon="-0.92793">
        <ele>65.249</ele>
        <time>2020-07-19T08:14:19Z</time>
      </trkpt>
      <trkpt lat="47.39191" lon="-0.92788">
        <ele>65.247</ele>
        <time>2020-07-19T08:14:20Z</time>
      </trkpt>
      <trkpt lat="47.39194" lon="-0.92783">
        <ele>65.228</ele>
        <time>2020-07-19T08:14:21Z</time>
      </trkpt>
      <trkpt lat="47.39198" lon="-0.92779">
        <ele>65.371</ele>
        <time>2020-07-19T08:14:22Z</time>
      </trkpt>
      <trkpt lat="47.39201" lon="-0.92774">
        <ele>66.013</ele>
        <time>2020-07-19T08:14:23Z</time>
      </trkpt>
      <trkpt lat="47.39206" lon="-0.92768">
        <ele>66.462</ele>
        <time>2020-07-19T08:14:24Z</time>
      </trkpt>
      <trkpt lat="47.39211" lon="-0.92763">
        <ele>67.261</ele>
        <time>2020-07-19T08:14:25Z</time>
      </trkpt>
      <trkpt lat="47.39216" lon="-0.92757">
        <ele>67.671</ele>
        <time>2020-07-19T08:14:26Z</time>
      </trkpt>
      <trkpt lat="47.39219" lon="-0.92752">
        <ele>67.706</ele>
        <time>2020-07-19T08:14:27Z</time>
      </trkpt>
      <trkpt lat="47.39222" lon="-0.92746">
        <ele>69.304</ele>
        <time>2020-07-19T08:14:28Z</time>
      </trkpt>
      <trkpt lat="47.39228" lon="-0.92741">
        <ele>68.853</ele>
        <time>2020-07-19T08:14:29Z</time>
      </trkpt>
      <trkpt lat="47.39234" lon="-0.92735">
        <ele>68.716</ele>
        <time>2020-07-19T08:14:30Z</time>
      </trkpt>
      <trkpt lat="47.3924" lon="-0.9273">
        <ele>68.18</ele>
        <time>2020-07-19T08:14:31Z</time>
      </trkpt>
      <trkpt lat="47.39245" lon="-0.92724">
        <ele>67.666</ele>
        <time>2020-07-19T08:14:32Z</time>
      </trkpt>
      <trkpt lat="47.39249" lon="-0.92719">
        <ele>67.664</ele>
        <time>2020-07-19T08:14:33Z</time>
      </trkpt>
      <trkpt lat="47.39255" lon="-0.92714">
        <ele>67.048</ele>
        <time>2020-07-19T08:14:34Z</time>
      </trkpt>
      <trkpt lat="47.39261" lon="-0.92708">
        <ele>67.62</ele>
        <time>2020-07-19T08:14:35Z</time>
      </trkpt>
      <trkpt lat="47.39265" lon="-0.92703">
        <ele>67.251</ele>
        <time>2020-07-19T08:14:36Z</time>
      </trkpt>
      <trkpt lat="47.3927" lon="-0.92697">
        <ele>67.702</ele>
        <time>2020-07-19T08:14:37Z</time>
      </trkpt>
      <trkpt lat="47.39275" lon="-0.92691">
        <ele>68.082</ele>
        <time>2020-07-19T08:14:38Z</time>
      </trkpt>
      <trkpt lat="47.39279" lon="-0.92684">
        <ele>68.898</ele>
        <time>2020-07-19T08:14:39Z</time>
      </trkpt>
      <trkpt lat="47.39285" lon="-0.92678">
        <ele>69.402</ele>
        <time>2020-07-19T08:14:40Z</time>
      </trkpt>
      <trkpt lat="47.3929" lon="-0.92673">
        <ele>68.786</ele>
        <time>2020-07-19T08:14:41Z</time>
      </trkpt>
      <trkpt lat="47.39295" lon="-0.92667">
        <ele>67.77</ele>
        <time>2020-07-19T08:14:42Z</time>
      </trkpt>
      <trkpt lat="47.393" lon="-0.92662">
        <ele>67.56</ele>
        <time>2020-07-19T08:14:43Z</time>
      </trkpt>
      <trkpt lat="47.39305" lon="-0.92657">
        <ele>66.941</ele>
        <time>2020-07-19T08:14:44Z</time>
      </trkpt>
      <trkpt lat="47.39309" lon="-0.92652">
        <ele>65.913</ele>
        <time>2020-07-19T08:14:45Z</time>
      </trkpt>
      <trkpt lat="47.39314" lon="-0.92646">
        <ele>66.051</ele>
        <time>2020-07-19T08:14:46Z</time>
      </trkpt>
      <trkpt lat="47.39318" lon="-0.9264">
        <ele>66.001</ele>
        <time>2020-07-19T08:14:47Z</time>
      </trkpt>
      <trkpt lat="47.39323" lon="-0.92634">
        <ele>65.957</ele>
        <time>2020-07-19T08:14:48Z</time>
      </trkpt>
      <trkpt lat="47.3933" lon="-0.92627">
        <ele>66.809</ele>
        <time>2020-07-19T08:14:49Z</time>
      </trkpt>
      <trkpt lat="47.39335" lon="-0.92621">
        <ele>67.478</ele>
        <time>2020-07-19T08:14:50Z</time>
      </trkpt>
      <trkpt lat="47.39338" lon="-0.92615">
        <ele>67.202</ele>
        <time>2020-07-19T08:14:51Z</time>
      </trkpt>
      <trkpt lat="47.39342" lon="-0.92608">
        <ele>66.617</ele>
        <time>2020-07-19T08:14:52Z</time>
      </trkpt>
      <trkpt lat="47.39347" lon="-0.92601">
        <ele>67.043</ele>
        <time>2020-07-19T08:14:53Z</time>
      </trkpt>
      <trkpt lat="47.39352" lon="-0.92595">
        <ele>66.969</ele>
        <time>2020-07-19T08:14:54Z</time>
      </trkpt>
      <trkpt lat="47.39358" lon="-0.92589">
        <ele>66.98</ele>
        <time>2020-07-19T08:14:55Z</time>
      </trkpt>
      <trkpt lat="47.39364" lon="-0.92584">
        <ele>67.089</ele>
        <time>2020-07-19T08:14:56Z</time>
      </trkpt>
      <trkpt lat="47.3937" lon="-0.92579">
        <ele>66.566</ele>
        <time>2020-07-19T08:14:57Z</time>
      </trkpt>
      <trkpt lat="47.39373" lon="-0.92572">
        <ele>66.029</ele>
        <time>2020-07-19T08:14:58Z</time>
      </trkpt>
      <trkpt lat="47.39378" lon="-0.92566">
        <ele>65.429</ele>
        <time>2020-07-19T08:14:59Z</time>
      </trkpt>
      <trkpt lat="47.39384" lon="-0.9256">
        <ele>65.363</ele>
        <time>2020-07-19T08:15:00Z</time>
      </trkpt>
      <trkpt lat="47.39389" lon="-0.92553">
        <ele>65.917</ele>
        <time>2020-07-19T08:15:01Z</time>
      </trkpt>
      <trkpt lat="47.39395" lon="-0.92547">
        <ele>65.374</ele>
        <time>2020-07-19T08:15:02Z</time>
      </trkpt>
      <trkpt lat="47.394" lon="-0.92541">
        <ele>64.343</ele>
        <time>2020-07-19T08:15:03Z</time>
      </trkpt>
      <trkpt lat="47.39405" lon="-0.92535">
        <ele>63.896</ele>
        <time>2020-07-19T08:15:04Z</time>
      </trkpt>
      <trkpt lat="47.39411" lon="-0.92529">
        <ele>63.237</ele>
        <time>2020-07-19T08:15:05Z</time>
      </trkpt>
      <trkpt lat="47.39415" lon="-0.92524">
        <ele>62.099</ele>
        <time>2020-07-19T08:15:06Z</time>
      </trkpt>
      <trkpt lat="47.39421" lon="-0.92519">
        <ele>61.64</ele>
        <time>2020-07-19T08:15:07Z</time>
      </trkpt>
      <trkpt lat="47.39428" lon="-0.92512">
        <ele>63.149</ele>
        <time>2020-07-19T08:15:08Z</time>
      </trkpt>
      <trkpt lat="47.39433" lon="-0.92504">
        <ele>63.568</ele>
        <time>2020-07-19T08:15:09Z</time>
      </trkpt>
      <trkpt lat="47.39437" lon="-0.92497">
        <ele>64.298</ele>
        <time>2020-07-19T08:15:10Z</time>
      </trkpt>
      <trkpt lat="47.39443" lon="-0.92491">
        <ele>63.384</ele>
        <time>2020-07-19T08:15:11Z</time>
      </trkpt>
      <trkpt lat="47.39447" lon="-0.92484">
        <ele>62.468</ele>
        <time>2020-07-19T08:15:12Z</time>
      </trkpt>
      <trkpt lat="47.39452" lon="-0.92478">
        <ele>62.083</ele>
        <time>2020-07-19T08:15:13Z</time>
      </trkpt>
      <trkpt lat="47.39456" lon="-0.92471">
        <ele>61.852</ele>
        <time>2020-07-19T08:15:14Z</time>
      </trkpt>
      <trkpt lat="47.39461" lon="-0.92464">
        <ele>62.758</ele>
        <time>2020-07-19T08:15:15Z</time>
      </trkpt>
      <trkpt lat="47.39465" lon="-0.92458">
        <ele>62.262</ele>
        <time>2020-07-19T08:15:16Z</time>
      </trkpt>
      <trkpt lat="47.39471" lon="-0.92452">
        <ele>62.864</ele>
        <time>2020-07-19T08:15:17Z</time>
      </trkpt>
      <trkpt lat="47.39476" lon="-0.92444">
        <ele>63.723</ele>
        <time>2020-07-19T08:15:18Z</time>
      </trkpt>
      <trkpt lat="47.39481" lon="-0.92438">
        <ele>63.443</ele>
        <time>2020-07-19T08:15:19Z</time>
      </trkpt>
      <trkpt lat="47.39488" lon="-0.92431">
        <ele>63.389</ele>
        <time>2020-07-19T08:15:20Z</time>
      </trkpt>
      <trkpt lat="47.39493" lon="-0.92425">
        <ele>63.314</ele>
        <time>2020-07-19T08:15:21Z</time>
      </trkpt>
      <trkpt lat="47.39498" lon="-0.92417">
        <ele>63.121</ele>
        <time>2020-07-19T08:15:22Z</time>
      </trkpt>
      <trkpt lat="47.39503" lon="-0.92411">
        <ele>62.788</ele>
        <time>2020-07-19T08:15:23Z</time>
      </trkpt>
      <trkpt lat="47.39508" lon="-0.92404">
        <ele>62.432</ele>
        <time>2020-07-19T08:15:24Z</time>
      </trkpt>
      <trkpt lat="47.39512" lon="-0.92399">
        <ele>60.326</ele>
        <time>2020-07-19T08:15:25Z</time>
      </trkpt>
      <trkpt lat="47.39517" lon="-0.92393">
        <ele>60.77</ele>
        <time>2020-07-19T08:15:26Z</time>
      </trkpt>
      <trkpt lat="47.39523" lon="-0.92386">
        <ele>60.889</ele>
        <time>2020-07-19T08:15:27Z</time>
      </trkpt>
      <trkpt lat="47.39529" lon="-0.92379">
        <ele>62.329</ele>
        <time>2020-07-19T08:15:28Z</time>
      </trkpt>
      <trkpt lat="47.39535" lon="-0.92373">
        <ele>62.381</ele>
        <time>2020-07-19T08:15:29Z</time>
      </trkpt>
      <trkpt lat="47.39539" lon="-0.92366">
        <ele>57.278</ele>
        <time>2020-07-19T08:15:30Z</time>
      </trkpt>
      <trkpt lat="47.39545" lon="-0.92359">
        <ele>58.657</ele>
        <time>2020-07-19T08:15:31Z</time>
      </trkpt>
      <trkpt lat="47.39551" lon="-0.92353">
        <ele>59.237</ele>
        <time>2020-07-19T08:15:32Z</time>
      </trkpt>
      <trkpt lat="47.39556" lon="-0.92346">
        <ele>59.576</ele>
        <time>2020-07-19T08:15:33Z</time>
      </trkpt>
      <trkpt lat="47.39561" lon="-0.92339">
        <ele>59.342</ele>
        <time>2020-07-19T08:15:34Z</time>
      </trkpt>
      <trkpt lat="47.39566" lon="-0.92331">
        <ele>59.923</ele>
        <time>2020-07-19T08:15:35Z</time>
      </trkpt>
      <trkpt lat="47.3957" lon="-0.92324">
        <ele>61.334</ele>
        <time>2020-07-19T08:15:36Z</time>
      </trkpt>
      <trkpt lat="47.39575" lon="-0.92317">
        <ele>61.402</ele>
        <time>2020-07-19T08:15:37Z</time>
      </trkpt>
      <trkpt lat="47.39581" lon="-0.92309">
        <ele>62.24</ele>
        <time>2020-07-19T08:15:38Z</time>
      </trkpt>
      <trkpt lat="47.39586" lon="-0.92301">
        <ele>61.907</ele>
        <time>2020-07-19T08:15:39Z</time>
      </trkpt>
      <trkpt lat="47.39591" lon="-0.92293">
        <ele>62.207</ele>
        <time>2020-07-19T08:15:40Z</time>
      </trkpt>
      <trkpt lat="47.39596" lon="-0.92285">
        <ele>61.995</ele>
        <time>2020-07-19T08:15:41Z</time>
      </trkpt>
      <trkpt lat="47.39601" lon="-0.92278">
        <ele>62.544</ele>
        <time>2020-07-19T08:15:42Z</time>
      </trkpt>
      <trkpt lat="47.39606" lon="-0.9227">
        <ele>62.578</ele>
        <time>2020-07-19T08:15:43Z</time>
      </trkpt>
      <trkpt lat="47.39611" lon="-0.92263">
        <ele>62.69</ele>
        <time>2020-07-19T08:15:44Z</time>
      </trkpt>
      <trkpt lat="47.39616" lon="-0.92253">
        <ele>63.682</ele>
        <time>2020-07-19T08:15:45Z</time>
      </trkpt>
      <trkpt lat="47.3962" lon="-0.92245">
        <ele>64.906</ele>
        <time>2020-07-19T08:15:46Z</time>
      </trkpt>
      <trkpt lat="47.39625" lon="-0.92237">
        <ele>65.351</ele>
        <time>2020-07-19T08:15:47Z</time>
      </trkpt>
      <trkpt lat="47.3963" lon="-0.92229">
        <ele>64.544</ele>
        <time>2020-07-19T08:15:48Z</time>
      </trkpt>
      <trkpt lat="47.39635" lon="-0.92221">
        <ele>65.853</ele>
        <time>2020-07-19T08:15:49Z</time>
      </trkpt>
      <trkpt lat="47.39639" lon="-0.92212">
        <ele>66.073</ele>
        <time>2020-07-19T08:15:50Z</time>
      </trkpt>
      <trkpt lat="47.39643" lon="-0.92204">
        <ele>65.29</ele>
        <time>2020-07-19T08:15:51Z</time>
      </trkpt>
      <trkpt lat="47.39646" lon="-0.92193">
        <ele>68.005</ele>
        <time>2020-07-19T08:15:52Z</time>
      </trkpt>
      <trkpt lat="47.3965" lon="-0.92185">
        <ele>67.381</ele>
        <time>2020-07-19T08:15:53Z</time>
      </trkpt>
      <trkpt lat="47.39653" lon="-0.92176">
        <ele>66.264</ele>
        <time>2020-07-19T08:15:54Z</time>
      </trkpt>
      <trkpt lat="47.39658" lon="-0.92168">
        <ele>65.922</ele>
        <time>2020-07-19T08:15:55Z</time>
      </trkpt>
      <trkpt lat="47.39661" lon="-0.92159">
        <ele>65.917</ele>
        <time>2020-07-19T08:15:56Z</time>
      </trkpt>
      <trkpt lat="47.39665" lon="-0.92151">
        <ele>65.774</ele>
        <time>2020-07-19T08:15:57Z</time>
      </trkpt>
      <trkpt lat="47.39669" lon="-0.92141">
        <ele>66.201</ele>
        <time>2020-07-19T08:15:58Z</time>
      </trkpt>
      <trkpt lat="47.39672" lon="-0.92132">
        <ele>64.565</ele>
        <time>2020-07-19T08:15:59Z</time>
      </trkpt>
      <trkpt lat="47.39675" lon="-0.92124">
        <ele>64.582</ele>
        <time>2020-07-19T08:16:00Z</time>
      </trkpt>
      <trkpt lat="47.3968" lon="-0.92114">
        <ele>64.798</ele>
        <time>2020-07-19T08:16:01Z</time>
      </trkpt>
      <trkpt lat="47.39683" lon="-0.92106">
        <ele>64.853</ele>
        <time>2020-07-19T08:16:02Z</time>
      </trkpt>
      <trkpt lat="47.3969" lon="-0.92098">
        <ele>66.206</ele>
        <time>2020-07-19T08:16:03Z</time>
      </trkpt>
      <trkpt lat="47.39694" lon="-0.9209">
        <ele>66.704</ele>
        <time>2020-07-19T08:16:04Z</time>
      </trkpt>
      <trkpt lat="47.39698" lon="-0.92081">
        <ele>67.432</ele>
        <time>2020-07-19T08:16:05Z</time>
      </trkpt>
      <trkpt lat="47.39701" lon="-0.92072">
        <ele>67.112</ele>
        <time>2020-07-19T08:16:06Z</time>
      </trkpt>
      <trkpt lat="47.39702" lon="-0.92063">
        <ele>66.596</ele>
        <time>2020-07-19T08:16:07Z</time>
      </trkpt>
      <trkpt lat="47.39705" lon="-0.92055">
        <ele>66.66</ele>
        <time>2020-07-19T08:16:08Z</time>
      </trkpt>
      <trkpt lat="47.39709" lon="-0.92047">
        <ele>66.846</ele>
        <time>2020-07-19T08:16:09Z</time>
      </trkpt>
      <trkpt lat="47.39711" lon="-0.9204">
        <ele>66.309</ele>
        <time>2020-07-19T08:16:10Z</time>
      </trkpt>
      <trkpt lat="47.39714" lon="-0.92033">
        <ele>65.803</ele>
        <time>2020-07-19T08:16:11Z</time>
      </trkpt>
      <trkpt lat="47.39717" lon="-0.92026">
        <ele>65.489</ele>
        <time>2020-07-19T08:16:12Z</time>
      </trkpt>
      <trkpt lat="47.39715" lon="-0.92018">
        <ele>63.458</ele>
        <time>2020-07-19T08:16:13Z</time>
      </trkpt>
      <trkpt lat="47.39719" lon="-0.92011">
        <ele>63.938</ele>
        <time>2020-07-19T08:16:14Z</time>
      </trkpt>
      <trkpt lat="47.39721" lon="-0.92004">
        <ele>64.49</ele>
        <time>2020-07-19T08:16:15Z</time>
      </trkpt>
      <trkpt lat="47.39725" lon="-0.91997">
        <ele>63.643</ele>
        <time>2020-07-19T08:16:16Z</time>
      </trkpt>
      <trkpt lat="47.39728" lon="-0.9199">
        <ele>63.024</ele>
        <time>2020-07-19T08:16:17Z</time>
      </trkpt>
      <trkpt lat="47.39729" lon="-0.91983">
        <ele>62.537</ele>
        <time>2020-07-19T08:16:18Z</time>
      </trkpt>
      <trkpt lat="47.39732" lon="-0.91975">
        <ele>62.164</ele>
        <time>2020-07-19T08:16:19Z</time>
      </trkpt>
      <trkpt lat="47.39736" lon="-0.91967">
        <ele>62.294</ele>
        <time>2020-07-19T08:16:20Z</time>
      </trkpt>
      <trkpt lat="47.39742" lon="-0.91958">
        <ele>63.359</ele>
        <time>2020-07-19T08:16:21Z</time>
      </trkpt>
      <trkpt lat="47.39745" lon="-0.91949">
        <ele>63.072</ele>
        <time>2020-07-19T08:16:22Z</time>
      </trkpt>
      <trkpt lat="47.39749" lon="-0.9194">
        <ele>63.577</ele>
        <time>2020-07-19T08:16:23Z</time>
      </trkpt>
      <trkpt lat="47.39754" lon="-0.91932">
        <ele>64.214</ele>
        <time>2020-07-19T08:16:24Z</time>
      </trkpt>
      <trkpt lat="47.39757" lon="-0.91923">
        <ele>64.144</ele>
        <time>2020-07-19T08:16:25Z</time>
      </trkpt>
      <trkpt lat="47.3976" lon="-0.91914">
        <ele>63.514</ele>
        <time>2020-07-19T08:16:26Z</time>
      </trkpt>
      <trkpt lat="47.39766" lon="-0.91906">
        <ele>63.284</ele>
        <time>2020-07-19T08:16:27Z</time>
      </trkpt>
      <trkpt lat="47.3977" lon="-0.91897">
        <ele>62.411</ele>
        <time>2020-07-19T08:16:28Z</time>
      </trkpt>
      <trkpt lat="47.39773" lon="-0.91887">
        <ele>62.449</ele>
        <time>2020-07-19T08:16:29Z</time>
      </trkpt>
      <trkpt lat="47.39777" lon="-0.91879">
        <ele>63.406</ele>
        <time>2020-07-19T08:16:30Z</time>
      </trkpt>
      <trkpt lat="47.39779" lon="-0.91869">
        <ele>63.377</ele>
        <time>2020-07-19T08:16:31Z</time>
      </trkpt>
      <trkpt lat="47.39782" lon="-0.9186">
        <ele>63.16</ele>
        <time>2020-07-19T08:16:32Z</time>
      </trkpt>
      <trkpt lat="47.39785" lon="-0.9185">
        <ele>62.724</ele>
        <time>2020-07-19T08:16:33Z</time>
      </trkpt>
      <trkpt lat="47.3979" lon="-0.91842">
        <ele>65.477</ele>
        <time>2020-07-19T08:16:34Z</time>
      </trkpt>
      <trkpt lat="47.39791" lon="-0.91833">
        <ele>63.439</ele>
        <time>2020-07-19T08:16:35Z</time>
      </trkpt>
      <trkpt lat="47.39795" lon="-0.91823">
        <ele>63.533</ele>
        <time>2020-07-19T08:16:36Z</time>
      </trkpt>
      <trkpt lat="47.39797" lon="-0.91815">
        <ele>62.358</ele>
        <time>2020-07-19T08:16:37Z</time>
      </trkpt>
      <trkpt lat="47.39801" lon="-0.91806">
        <ele>61.969</ele>
        <time>2020-07-19T08:16:38Z</time>
      </trkpt>
      <trkpt lat="47.39804" lon="-0.91798">
        <ele>62.525</ele>
        <time>2020-07-19T08:16:39Z</time>
      </trkpt>
      <trkpt lat="47.39807" lon="-0.9179">
        <ele>62.379</ele>
        <time>2020-07-19T08:16:40Z</time>
      </trkpt>
      <trkpt lat="47.39812" lon="-0.91788">
        <ele>62.726</ele>
        <time>2020-07-19T08:16:41Z</time>
      </trkpt>
      <trkpt lat="47.39816" lon="-0.9179">
        <ele>62.633</ele>
        <time>2020-07-19T08:16:42Z</time>
      </trkpt>
      <trkpt lat="47.39816" lon="-0.91797">
        <ele>62.43</ele>
        <time>2020-07-19T08:16:43Z</time>
      </trkpt>
      <trkpt lat="47.39814" lon="-0.91803">
        <ele>60.788</ele>
        <time>2020-07-19T08:16:44Z</time>
      </trkpt>
      <trkpt lat="47.39812" lon="-0.91811">
        <ele>60.377</ele>
        <time>2020-07-19T08:16:45Z</time>
      </trkpt>
      <trkpt lat="47.39809" lon="-0.91819">
        <ele>69.819</ele>
        <time>2020-07-19T08:16:46Z</time>
      </trkpt>
      <trkpt lat="47.39807" lon="-0.91828">
        <ele>65.561</ele>
        <time>2020-07-19T08:16:47Z</time>
      </trkpt>
      <trkpt lat="47.39805" lon="-0.91835">
        <ele>62.763</ele>
        <time>2020-07-19T08:16:48Z</time>
      </trkpt>
      <trkpt lat="47.39807" lon="-0.91843">
        <ele>61.578</ele>
        <time>2020-07-19T08:16:49Z</time>
      </trkpt>
      <trkpt lat="47.39808" lon="-0.91848">
        <ele>60.496</ele>
        <time>2020-07-19T08:16:50Z</time>
      </trkpt>
      <trkpt lat="47.3981" lon="-0.91853">
        <ele>59.102</ele>
        <time>2020-07-19T08:16:51Z</time>
      </trkpt>
      <trkpt lat="47.39812" lon="-0.91855">
        <ele>59.122</ele>
        <time>2020-07-19T08:16:52Z</time>
      </trkpt>
      <trkpt lat="47.39814" lon="-0.91856">
        <ele>58.354</ele>
        <time>2020-07-19T08:16:53Z</time>
      </trkpt>
      <trkpt lat="47.39817" lon="-0.91857">
        <ele>58.179</ele>
        <time>2020-07-19T08:16:54Z</time>
      </trkpt>
      <trkpt lat="47.3982" lon="-0.91856">
        <ele>57.945</ele>
        <time>2020-07-19T08:16:55Z</time>
      </trkpt>
      <trkpt lat="47.39823" lon="-0.91852">
        <ele>57.386</ele>
        <time>2020-07-19T08:16:56Z</time>
      </trkpt>
      <trkpt lat="47.39825" lon="-0.9185">
        <ele>57.536</ele>
        <time>2020-07-19T08:16:57Z</time>
      </trkpt>
      <trkpt lat="47.39827" lon="-0.91847">
        <ele>73.093</ele>
        <time>2020-07-19T08:16:58Z</time>
      </trkpt>
      <trkpt lat="47.3983" lon="-0.91844">
        <ele>66.756</ele>
        <time>2020-07-19T08:16:59Z</time>
      </trkpt>
      <trkpt lat="47.39832" lon="-0.9184">
        <ele>67.139</ele>
        <time>2020-07-19T08:17:00Z</time>
      </trkpt>
      <trkpt lat="47.39835" lon="-0.91836">
        <ele>64.784</ele>
        <time>2020-07-19T08:17:01Z</time>
      </trkpt>
      <trkpt lat="47.39837" lon="-0.91833">
        <ele>63.215</ele>
        <time>2020-07-19T08:17:02Z</time>
      </trkpt>
      <trkpt lat="47.39839" lon="-0.91829">
        <ele>63.987</ele>
        <time>2020-07-19T08:17:03Z</time>
      </trkpt>
      <trkpt lat="47.3984" lon="-0.91825">
        <ele>62.832</ele>
        <time>2020-07-19T08:17:04Z</time>
      </trkpt>
      <trkpt lat="47.39841" lon="-0.91821">
        <ele>60.949</ele>
        <time>2020-07-19T08:17:05Z</time>
      </trkpt>
      <trkpt lat="47.39842" lon="-0.91817">
        <ele>59.273</ele>
        <time>2020-07-19T08:17:06Z</time>
      </trkpt>
      <trkpt lat="47.39843" lon="-0.91813">
        <ele>60.51</ele>
        <time>2020-07-19T08:17:07Z</time>
      </trkpt>
      <trkpt lat="47.39843" lon="-0.9181">
        <ele>60.358</ele>
        <time>2020-07-19T08:17:08Z</time>
      </trkpt>
      <trkpt lat="47.39844" lon="-0.91805">
        <ele>60.132</ele>
        <time>2020-07-19T08:17:09Z</time>
      </trkpt>
      <trkpt lat="47.39845" lon="-0.91801">
        <ele>60.181</ele>
        <time>2020-07-19T08:17:10Z</time>
      </trkpt>
      <trkpt lat="47.39846" lon="-0.91798">
        <ele>59.639</ele>
        <time>2020-07-19T08:17:11Z</time>
      </trkpt>
      <trkpt lat="47.39848" lon="-0.91795">
        <ele>58.552</ele>
        <time>2020-07-19T08:17:12Z</time>
      </trkpt>
      <trkpt lat="47.3985" lon="-0.91793">
        <ele>58.523</ele>
        <time>2020-07-19T08:17:13Z</time>
      </trkpt>
      <trkpt lat="47.39852" lon="-0.9179">
        <ele>57.721</ele>
        <time>2020-07-19T08:17:14Z</time>
      </trkpt>
      <trkpt lat="47.39854" lon="-0.91788">
        <ele>57.96</ele>
        <time>2020-07-19T08:17:15Z</time>
      </trkpt>
      <trkpt lat="47.39855" lon="-0.91784">
        <ele>57.479</ele>
        <time>2020-07-19T08:17:16Z</time>
      </trkpt>
      <trkpt lat="47.39857" lon="-0.9178">
        <ele>57.784</ele>
        <time>2020-07-19T08:17:17Z</time>
      </trkpt>
      <trkpt lat="47.39858" lon="-0.91775">
        <ele>58.098</ele>
        <time>2020-07-19T08:17:18Z</time>
      </trkpt>
      <trkpt lat="47.3986" lon="-0.9177">
        <ele>57.778</ele>
        <time>2020-07-19T08:17:19Z</time>
      </trkpt>
      <trkpt lat="47.39861" lon="-0.91766">
        <ele>57.722</ele>
        <time>2020-07-19T08:17:20Z</time>
      </trkpt>
      <trkpt lat="47.39862" lon="-0.91762">
        <ele>57.23</ele>
        <time>2020-07-19T08:17:21Z</time>
      </trkpt>
      <trkpt lat="47.39864" lon="-0.91758">
        <ele>57.518</ele>
        <time>2020-07-19T08:17:22Z</time>
      </trkpt>
      <trkpt lat="47.39867" lon="-0.91754">
        <ele>65.796</ele>
        <time>2020-07-19T08:17:23Z</time>
      </trkpt>
      <trkpt lat="47.3987" lon="-0.91751">
        <ele>63.501</ele>
        <time>2020-07-19T08:17:24Z</time>
      </trkpt>
      <trkpt lat="47.39873" lon="-0.91747">
        <ele>61.226</ele>
        <time>2020-07-19T08:17:25Z</time>
      </trkpt>
      <trkpt lat="47.39875" lon="-0.91744">
        <ele>59.019</ele>
        <time>2020-07-19T08:17:26Z</time>
      </trkpt>
      <trkpt lat="47.39877" lon="-0.91741">
        <ele>56.823</ele>
        <time>2020-07-19T08:17:27Z</time>
      </trkpt>
      <trkpt lat="47.3988" lon="-0.91737">
        <ele>58.725</ele>
        <time>2020-07-19T08:17:28Z</time>
      </trkpt>
      <trkpt lat="47.39883" lon="-0.91734">
        <ele>58.456</ele>
        <time>2020-07-19T08:17:29Z</time>
      </trkpt>
      <trkpt lat="47.39885" lon="-0.9173">
        <ele>59.124</ele>
        <time>2020-07-19T08:17:30Z</time>
      </trkpt>
      <trkpt lat="47.39887" lon="-0.91726">
        <ele>58.813</ele>
        <time>2020-07-19T08:17:31Z</time>
      </trkpt>
      <trkpt lat="47.39888" lon="-0.91722">
        <ele>59.139</ele>
        <time>2020-07-19T08:17:32Z</time>
      </trkpt>
      <trkpt lat="47.39888" lon="-0.91719">
        <ele>59.311</ele>
        <time>2020-07-19T08:17:33Z</time>
      </trkpt>
      <trkpt lat="47.39889" lon="-0.91715">
        <ele>59.412</ele>
        <time>2020-07-19T08:17:34Z</time>
      </trkpt>
      <trkpt lat="47.3989" lon="-0.91711">
        <ele>59.974</ele>
        <time>2020-07-19T08:17:35Z</time>
      </trkpt>
      <trkpt lat="47.3989" lon="-0.91707">
        <ele>59.079</ele>
        <time>2020-07-19T08:17:36Z</time>
      </trkpt>
      <trkpt lat="47.39891" lon="-0.91703">
        <ele>58.62</ele>
        <time>2020-07-19T08:17:37Z</time>
      </trkpt>
      <trkpt lat="47.39893" lon="-0.91699">
        <ele>58.939</ele>
        <time>2020-07-19T08:17:38Z</time>
      </trkpt>
      <trkpt lat="47.39894" lon="-0.91695">
        <ele>58.831</ele>
        <time>2020-07-19T08:17:39Z</time>
      </trkpt>
      <trkpt lat="47.39896" lon="-0.91692">
        <ele>57.672</ele>
        <time>2020-07-19T08:17:40Z</time>
      </trkpt>
      <trkpt lat="47.39898" lon="-0.91688">
        <ele>58.269</ele>
        <time>2020-07-19T08:17:41Z</time>
      </trkpt>
      <trkpt lat="47.399" lon="-0.91683">
        <ele>58.229</ele>
        <time>2020-07-19T08:17:42Z</time>
      </trkpt>
      <trkpt lat="47.39902" lon="-0.91679">
        <ele>58.288</ele>
        <time>2020-07-19T08:17:43Z</time>
      </trkpt>
      <trkpt lat="47.39903" lon="-0.91675">
        <ele>58.325</ele>
        <time>2020-07-19T08:17:44Z</time>
      </trkpt>
      <trkpt lat="47.39904" lon="-0.91671">
        <ele>57.079</ele>
        <time>2020-07-19T08:17:45Z</time>
      </trkpt>
      <trkpt lat="47.39905" lon="-0.91666">
        <ele>56.921</ele>
        <time>2020-07-19T08:17:46Z</time>
      </trkpt>
      <trkpt lat="47.39905" lon="-0.91662">
        <ele>57.176</ele>
        <time>2020-07-19T08:17:47Z</time>
      </trkpt>
      <trkpt lat="47.39905" lon="-0.91658">
        <ele>56.903</ele>
        <time>2020-07-19T08:17:48Z</time>
      </trkpt>
      <trkpt lat="47.39905" lon="-0.91655">
        <ele>57.055</ele>
        <time>2020-07-19T08:17:49Z</time>
      </trkpt>
      <trkpt lat="47.39904" lon="-0.91652">
        <ele>56.718</ele>
        <time>2020-07-19T08:17:50Z</time>
      </trkpt>
      <trkpt lat="47.39904" lon="-0.91649">
        <ele>56.665</ele>
        <time>2020-07-19T08:17:51Z</time>
      </trkpt>
      <trkpt lat="47.39904" lon="-0.91647">
        <ele>56.991</ele>
        <time>2020-07-19T08:17:52Z</time>
      </trkpt>
      <trkpt lat="47.39903" lon="-0.91645">
        <ele>57.229</ele>
        <time>2020-07-19T08:17:53Z</time>
      </trkpt>
      <trkpt lat="47.39902" lon="-0.91643">
        <ele>58.199</ele>
        <time>2020-07-19T08:17:54Z</time>
      </trkpt>
      <trkpt lat="47.39901" lon="-0.91642">
        <ele>58.253</ele>
        <time>2020-07-19T08:17:55Z</time>
      </trkpt>
      <trkpt lat="47.39901" lon="-0.9164">
        <ele>58.246</ele>
        <time>2020-07-19T08:17:56Z</time>
      </trkpt>
      <trkpt lat="47.39901" lon="-0.91638">
        <ele>58.389</ele>
        <time>2020-07-19T08:17:57Z</time>
      </trkpt>
      <trkpt lat="47.39901" lon="-0.91635">
        <ele>58.831</ele>
        <time>2020-07-19T08:17:58Z</time>
      </trkpt>
      <trkpt lat="47.399" lon="-0.91633">
        <ele>59.098</ele>
        <time>2020-07-19T08:17:59Z</time>
      </trkpt>
      <trkpt lat="47.399" lon="-0.91631">
        <ele>58.455</ele>
        <time>2020-07-19T08:18:00Z</time>
      </trkpt>
      <trkpt lat="47.39899" lon="-0.91629">
        <ele>57.988</ele>
        <time>2020-07-19T08:18:01Z</time>
      </trkpt>
      <trkpt lat="47.39899" lon="-0.91627">
        <ele>57.177</ele>
        <time>2020-07-19T08:18:02Z</time>
      </trkpt>
      <trkpt lat="47.39899" lon="-0.91625">
        <ele>56.664</ele>
        <time>2020-07-19T08:18:03Z</time>
      </trkpt>
      <trkpt lat="47.399" lon="-0.91623">
        <ele>56.161</ele>
        <time>2020-07-19T08:18:04Z</time>
      </trkpt>
      <trkpt lat="47.399" lon="-0.91621">
        <ele>54.685</ele>
        <time>2020-07-19T08:18:05Z</time>
      </trkpt>
      <trkpt lat="47.399" lon="-0.91619">
        <ele>56.242</ele>
        <time>2020-07-19T08:18:06Z</time>
      </trkpt>
      <trkpt lat="47.399" lon="-0.91617">
        <ele>57.081</ele>
        <time>2020-07-19T08:18:07Z</time>
      </trkpt>
      <trkpt lat="47.39901" lon="-0.91615">
        <ele>57.287</ele>
        <time>2020-07-19T08:18:08Z</time>
      </trkpt>
      <trkpt lat="47.39901" lon="-0.91612">
        <ele>57.202</ele>
        <time>2020-07-19T08:18:09Z</time>
      </trkpt>
      <trkpt lat="47.39901" lon="-0.9161">
        <ele>57.075</ele>
        <time>2020-07-19T08:18:10Z</time>
      </trkpt>
      <trkpt lat="47.39901" lon="-0.91608">
        <ele>58.722</ele>
        <time>2020-07-19T08:18:11Z</time>
      </trkpt>
      <trkpt lat="47.39901" lon="-0.91605">
        <ele>60.355</ele>
        <time>2020-07-19T08:18:12Z</time>
      </trkpt>
      <trkpt lat="47.39901" lon="-0.91603">
        <ele>60.038</ele>
        <time>2020-07-19T08:18:13Z</time>
      </trkpt>
      <trkpt lat="47.39901" lon="-0.916">
        <ele>59.332</ele>
        <time>2020-07-19T08:18:14Z</time>
      </trkpt>
      <trkpt lat="47.39901" lon="-0.91597">
        <ele>61.784</ele>
        <time>2020-07-19T08:18:15Z</time>
      </trkpt>
      <trkpt lat="47.39901" lon="-0.91594">
        <ele>61.034</ele>
        <time>2020-07-19T08:18:16Z</time>
      </trkpt>
      <trkpt lat="47.39902" lon="-0.91592">
        <ele>60.217</ele>
        <time>2020-07-19T08:18:17Z</time>
      </trkpt>
      <trkpt lat="47.39902" lon="-0.9159">
        <ele>59.383</ele>
        <time>2020-07-19T08:18:18Z</time>
      </trkpt>
      <trkpt lat="47.39903" lon="-0.91587">
        <ele>58.925</ele>
        <time>2020-07-19T08:18:19Z</time>
      </trkpt>
      <trkpt lat="47.39905" lon="-0.91582">
        <ele>58.7</ele>
        <time>2020-07-19T08:18:20Z</time>
      </trkpt>
      <trkpt lat="47.39906" lon="-0.91577">
        <ele>58.629</ele>
        <time>2020-07-19T08:18:21Z</time>
      </trkpt>
      <trkpt lat="47.39909" lon="-0.91573">
        <ele>58.557</ele>
        <time>2020-07-19T08:18:22Z</time>
      </trkpt>
      <trkpt lat="47.39912" lon="-0.91568">
        <ele>58.09</ele>
        <time>2020-07-19T08:18:23Z</time>
      </trkpt>
      <trkpt lat="47.39914" lon="-0.91563">
        <ele>57.38</ele>
        <time>2020-07-19T08:18:24Z</time>
      </trkpt>
      <trkpt lat="47.39916" lon="-0.91558">
        <ele>57.125</ele>
        <time>2020-07-19T08:18:25Z</time>
      </trkpt>
      <trkpt lat="47.39918" lon="-0.91552">
        <ele>54.994</ele>
        <time>2020-07-19T08:18:26Z</time>
      </trkpt>
      <trkpt lat="47.3992" lon="-0.91547">
        <ele>54.943</ele>
        <time>2020-07-19T08:18:27Z</time>
      </trkpt>
      <trkpt lat="47.39921" lon="-0.91542">
        <ele>54.445</ele>
        <time>2020-07-19T08:18:28Z</time>
      </trkpt>
      <trkpt lat="47.39922" lon="-0.91538">
        <ele>55.714</ele>
        <time>2020-07-19T08:18:29Z</time>
      </trkpt>
      <trkpt lat="47.39924" lon="-0.91533">
        <ele>57.881</ele>
        <time>2020-07-19T08:18:30Z</time>
      </trkpt>
      <trkpt lat="47.39925" lon="-0.91528">
        <ele>58.368</ele>
        <time>2020-07-19T08:18:31Z</time>
      </trkpt>
      <trkpt lat="47.39927" lon="-0.91523">
        <ele>57.766</ele>
        <time>2020-07-19T08:18:32Z</time>
      </trkpt>
      <trkpt lat="47.39929" lon="-0.91517">
        <ele>57.219</ele>
        <time>2020-07-19T08:18:33Z</time>
      </trkpt>
      <trkpt lat="47.39932" lon="-0.91513">
        <ele>57.777</ele>
        <time>2020-07-19T08:18:34Z</time>
      </trkpt>
      <trkpt lat="47.39936" lon="-0.91509">
        <ele>55.774</ele>
        <time>2020-07-19T08:18:35Z</time>
      </trkpt>
      <trkpt lat="47.3994" lon="-0.91506">
        <ele>54.818</ele>
        <time>2020-07-19T08:18:36Z</time>
      </trkpt>
      <trkpt lat="47.39943" lon="-0.91503">
        <ele>55.453</ele>
        <time>2020-07-19T08:18:37Z</time>
      </trkpt>
      <trkpt lat="47.39946" lon="-0.91498">
        <ele>53.471</ele>
        <time>2020-07-19T08:18:38Z</time>
      </trkpt>
      <trkpt lat="47.39948" lon="-0.91494">
        <ele>55.14</ele>
        <time>2020-07-19T08:18:39Z</time>
      </trkpt>
      <trkpt lat="47.39949" lon="-0.91489">
        <ele>55.65</ele>
        <time>2020-07-19T08:18:40Z</time>
      </trkpt>
      <trkpt lat="47.39951" lon="-0.91484">
        <ele>55.585</ele>
        <time>2020-07-19T08:18:41Z</time>
      </trkpt>
      <trkpt lat="47.39952" lon="-0.91479">
        <ele>57.158</ele>
        <time>2020-07-19T08:18:42Z</time>
      </trkpt>
      <trkpt lat="47.39954" lon="-0.91473">
        <ele>56.946</ele>
        <time>2020-07-19T08:18:43Z</time>
      </trkpt>
      <trkpt lat="47.39955" lon="-0.91468">
        <ele>57.593</ele>
        <time>2020-07-19T08:18:44Z</time>
      </trkpt>
      <trkpt lat="47.39958" lon="-0.91463">
        <ele>57.411</ele>
        <time>2020-07-19T08:18:45Z</time>
      </trkpt>
      <trkpt lat="47.3996" lon="-0.91458">
        <ele>56.651</ele>
        <time>2020-07-19T08:18:46Z</time>
      </trkpt>
      <trkpt lat="47.39963" lon="-0.91453">
        <ele>57.561</ele>
        <time>2020-07-19T08:18:47Z</time>
      </trkpt>
      <trkpt lat="47.39965" lon="-0.91447">
        <ele>56.166</ele>
        <time>2020-07-19T08:18:48Z</time>
      </trkpt>
      <trkpt lat="47.39966" lon="-0.91442">
        <ele>55.909</ele>
        <time>2020-07-19T08:18:49Z</time>
      </trkpt>
      <trkpt lat="47.39968" lon="-0.91436">
        <ele>55.895</ele>
        <time>2020-07-19T08:18:50Z</time>
      </trkpt>
      <trkpt lat="47.39969" lon="-0.9143">
        <ele>55.514</ele>
        <time>2020-07-19T08:18:51Z</time>
      </trkpt>
      <trkpt lat="47.3997" lon="-0.91425">
        <ele>56.071</ele>
        <time>2020-07-19T08:18:52Z</time>
      </trkpt>
      <trkpt lat="47.39971" lon="-0.9142">
        <ele>55.417</ele>
        <time>2020-07-19T08:18:53Z</time>
      </trkpt>
      <trkpt lat="47.39972" lon="-0.91414">
        <ele>57.041</ele>
        <time>2020-07-19T08:18:54Z</time>
      </trkpt>
      <trkpt lat="47.39973" lon="-0.91409">
        <ele>82.451</ele>
        <time>2020-07-19T08:18:55Z</time>
      </trkpt>
      <trkpt lat="47.39975" lon="-0.91403">
        <ele>62.07</ele>
        <time>2020-07-19T08:18:56Z</time>
      </trkpt>
      <trkpt lat="47.39976" lon="-0.91398">
        <ele>62.372</ele>
        <time>2020-07-19T08:18:57Z</time>
      </trkpt>
      <trkpt lat="47.39977" lon="-0.91392">
        <ele>62.159</ele>
        <time>2020-07-19T08:18:58Z</time>
      </trkpt>
      <trkpt lat="47.39979" lon="-0.91387">
        <ele>61.816</ele>
        <time>2020-07-19T08:18:59Z</time>
      </trkpt>
      <trkpt lat="47.3998" lon="-0.91381">
        <ele>55.91</ele>
        <time>2020-07-19T08:19:00Z</time>
      </trkpt>
      <trkpt lat="47.39981" lon="-0.91376">
        <ele>56.477</ele>
        <time>2020-07-19T08:19:01Z</time>
      </trkpt>
      <trkpt lat="47.39983" lon="-0.9137">
        <ele>55.925</ele>
        <time>2020-07-19T08:19:02Z</time>
      </trkpt>
      <trkpt lat="47.39984" lon="-0.91366">
        <ele>56.216</ele>
        <time>2020-07-19T08:19:03Z</time>
      </trkpt>
      <trkpt lat="47.39985" lon="-0.91361">
        <ele>55.715</ele>
        <time>2020-07-19T08:19:04Z</time>
      </trkpt>
      <trkpt lat="47.39986" lon="-0.91355">
        <ele>55.254</ele>
        <time>2020-07-19T08:19:05Z</time>
      </trkpt>
      <trkpt lat="47.39987" lon="-0.9135">
        <ele>54.109</ele>
        <time>2020-07-19T08:19:06Z</time>
      </trkpt>
      <trkpt lat="47.39987" lon="-0.91346">
        <ele>53.967</ele>
        <time>2020-07-19T08:19:07Z</time>
      </trkpt>
      <trkpt lat="47.39988" lon="-0.91342">
        <ele>55.198</ele>
        <time>2020-07-19T08:19:08Z</time>
      </trkpt>
      <trkpt lat="47.39988" lon="-0.91339">
        <ele>55.751</ele>
        <time>2020-07-19T08:19:09Z</time>
      </trkpt>
      <trkpt lat="47.39988" lon="-0.91336">
        <ele>56.853</ele>
        <time>2020-07-19T08:19:10Z</time>
      </trkpt>
      <trkpt lat="47.39989" lon="-0.91334">
        <ele>60.353</ele>
        <time>2020-07-19T08:19:11Z</time>
      </trkpt>
      <trkpt lat="47.3999" lon="-0.91333">
        <ele>60.272</ele>
        <time>2020-07-19T08:19:12Z</time>
      </trkpt>
      <trkpt lat="47.39991" lon="-0.91333">
        <ele>60.67</ele>
        <time>2020-07-19T08:19:13Z</time>
      </trkpt>
      <trkpt lat="47.39991" lon="-0.91334">
        <ele>62.027</ele>
        <time>2020-07-19T08:19:14Z</time>
      </trkpt>
      <trkpt lat="47.39992" lon="-0.91334">
        <ele>62.333</ele>
        <time>2020-07-19T08:19:15Z</time>
      </trkpt>
      <trkpt lat="47.39993" lon="-0.91334">
        <ele>62.504</ele>
        <time>2020-07-19T08:19:16Z</time>
      </trkpt>
      <trkpt lat="47.39993" lon="-0.91334">
        <ele>62.536</ele>
        <time>2020-07-19T08:19:17Z</time>
      </trkpt>
      <trkpt lat="47.39993" lon="-0.91334">
        <ele>63.054</ele>
        <time>2020-07-19T08:19:18Z</time>
      </trkpt>
      <trkpt lat="47.39993" lon="-0.91334">
        <ele>62.752</ele>
        <time>2020-07-19T08:19:19Z</time>
      </trkpt>
      <trkpt lat="47.39993" lon="-0.91334">
        <ele>63.008</ele>
        <time>2020-07-19T08:19:20Z</time>
      </trkpt>
      <trkpt lat="47.39993" lon="-0.91334">
        <ele>63.034</ele>
        <time>2020-07-19T08:19:21Z</time>
      </trkpt>
      <trkpt lat="47.39993" lon="-0.91334">
        <ele>62.192</ele>
        <time>2020-07-19T08:19:22Z</time>
      </trkpt>
      <trkpt lat="47.39993" lon="-0.91334">
        <ele>62.392</ele>
        <time>2020-07-19T08:19:23Z</time>
      </trkpt>
      <trkpt lat="47.39994" lon="-0.91334">
        <ele>63.383</ele>
        <time>2020-07-19T08:19:24Z</time>
      </trkpt>
      <trkpt lat="47.39994" lon="-0.91333">
        <ele>63.057</ele>
        <time>2020-07-19T08:19:25Z</time>
      </trkpt>
      <trkpt lat="47.39994" lon="-0.91333">
        <ele>62.693</ele>
        <time>2020-07-19T08:19:26Z</time>
      </trkpt>
      <trkpt lat="47.39994" lon="-0.91333">
        <ele>60.32</ele>
        <time>2020-07-19T08:19:27Z</time>
      </trkpt>
      <trkpt lat="47.39994" lon="-0.91334">
        <ele>59.126</ele>
        <time>2020-07-19T08:19:28Z</time>
      </trkpt>
      <trkpt lat="47.39992" lon="-0.91338">
        <ele>59.541</ele>
        <time>2020-07-19T08:19:29Z</time>
      </trkpt>
      <trkpt lat="47.39991" lon="-0.91344">
        <ele>59.39</ele>
        <time>2020-07-19T08:19:30Z</time>
      </trkpt>
      <trkpt lat="47.39989" lon="-0.9135">
        <ele>59.329</ele>
        <time>2020-07-19T08:19:31Z</time>
      </trkpt>
      <trkpt lat="47.39987" lon="-0.91356">
        <ele>59.774</ele>
        <time>2020-07-19T08:19:32Z</time>
      </trkpt>
      <trkpt lat="47.39986" lon="-0.91362">
        <ele>60.425</ele>
        <time>2020-07-19T08:19:33Z</time>
      </trkpt>
      <trkpt lat="47.39985" lon="-0.91367">
        <ele>59.567</ele>
        <time>2020-07-19T08:19:34Z</time>
      </trkpt>
      <trkpt lat="47.39984" lon="-0.91372">
        <ele>60.004</ele>
        <time>2020-07-19T08:19:35Z</time>
      </trkpt>
      <trkpt lat="47.39983" lon="-0.91377">
        <ele>59.341</ele>
        <time>2020-07-19T08:19:36Z</time>
      </trkpt>
      <trkpt lat="47.39982" lon="-0.91382">
        <ele>59.252</ele>
        <time>2020-07-19T08:19:37Z</time>
      </trkpt>
      <trkpt lat="47.39981" lon="-0.91387">
        <ele>58.912</ele>
        <time>2020-07-19T08:19:38Z</time>
      </trkpt>
      <trkpt lat="47.3998" lon="-0.91393">
        <ele>58.672</ele>
        <time>2020-07-19T08:19:39Z</time>
      </trkpt>
      <trkpt lat="47.39979" lon="-0.91399">
        <ele>58.897</ele>
        <time>2020-07-19T08:19:40Z</time>
      </trkpt>
      <trkpt lat="47.39978" lon="-0.91405">
        <ele>58.742</ele>
        <time>2020-07-19T08:19:41Z</time>
      </trkpt>
      <trkpt lat="47.39977" lon="-0.91411">
        <ele>58.081</ele>
        <time>2020-07-19T08:19:42Z</time>
      </trkpt>
      <trkpt lat="47.39976" lon="-0.91417">
        <ele>58.143</ele>
        <time>2020-07-19T08:19:43Z</time>
      </trkpt>
      <trkpt lat="47.39976" lon="-0.91424">
        <ele>57.11</ele>
        <time>2020-07-19T08:19:44Z</time>
      </trkpt>
      <trkpt lat="47.39975" lon="-0.91431">
        <ele>57.311</ele>
        <time>2020-07-19T08:19:45Z</time>
      </trkpt>
      <trkpt lat="47.39975" lon="-0.91436">
        <ele>55.865</ele>
        <time>2020-07-19T08:19:46Z</time>
      </trkpt>
      <trkpt lat="47.39973" lon="-0.91442">
        <ele>56.531</ele>
        <time>2020-07-19T08:19:47Z</time>
      </trkpt>
      <trkpt lat="47.3997" lon="-0.91448">
        <ele>56.769</ele>
        <time>2020-07-19T08:19:48Z</time>
      </trkpt>
      <trkpt lat="47.39968" lon="-0.91455">
        <ele>57.555</ele>
        <time>2020-07-19T08:19:49Z</time>
      </trkpt>
      <trkpt lat="47.39965" lon="-0.91461">
        <ele>57.567</ele>
        <time>2020-07-19T08:19:50Z</time>
      </trkpt>
      <trkpt lat="47.39963" lon="-0.91468">
        <ele>58.698</ele>
        <time>2020-07-19T08:19:51Z</time>
      </trkpt>
      <trkpt lat="47.3996" lon="-0.91473">
        <ele>59.176</ele>
        <time>2020-07-19T08:19:52Z</time>
      </trkpt>
      <trkpt lat="47.39959" lon="-0.91479">
        <ele>58.001</ele>
        <time>2020-07-19T08:19:53Z</time>
      </trkpt>
      <trkpt lat="47.39957" lon="-0.91485">
        <ele>58.39</ele>
        <time>2020-07-19T08:19:54Z</time>
      </trkpt>
      <trkpt lat="47.39954" lon="-0.9149">
        <ele>58.98</ele>
        <time>2020-07-19T08:19:55Z</time>
      </trkpt>
      <trkpt lat="47.39953" lon="-0.91497">
        <ele>59.501</ele>
        <time>2020-07-19T08:19:56Z</time>
      </trkpt>
      <trkpt lat="47.39951" lon="-0.91504">
        <ele>59.344</ele>
        <time>2020-07-19T08:19:57Z</time>
      </trkpt>
      <trkpt lat="47.39951" lon="-0.9151">
        <ele>58.296</ele>
        <time>2020-07-19T08:19:58Z</time>
      </trkpt>
      <trkpt lat="47.39951" lon="-0.91518">
        <ele>57.715</ele>
        <time>2020-07-19T08:19:59Z</time>
      </trkpt>
      <trkpt lat="47.3995" lon="-0.9152">
        <ele>56.904</ele>
        <time>2020-07-19T08:20:00Z</time>
      </trkpt>
      <trkpt lat="47.39948" lon="-0.91523">
        <ele>55.983</ele>
        <time>2020-07-19T08:20:01Z</time>
      </trkpt>
      <trkpt lat="47.39946" lon="-0.91527">
        <ele>56.037</ele>
        <time>2020-07-19T08:20:02Z</time>
      </trkpt>
      <trkpt lat="47.39942" lon="-0.91524">
        <ele>54.694</ele>
        <time>2020-07-19T08:20:03Z</time>
      </trkpt>
      <trkpt lat="47.39938" lon="-0.91525">
        <ele>55.056</ele>
        <time>2020-07-19T08:20:04Z</time>
      </trkpt>
      <trkpt lat="47.39934" lon="-0.91529">
        <ele>54.559</ele>
        <time>2020-07-19T08:20:05Z</time>
      </trkpt>
      <trkpt lat="47.39932" lon="-0.91534">
        <ele>54.066</ele>
        <time>2020-07-19T08:20:06Z</time>
      </trkpt>
      <trkpt lat="47.39929" lon="-0.91538">
        <ele>53.533</ele>
        <time>2020-07-19T08:20:07Z</time>
      </trkpt>
      <trkpt lat="47.39926" lon="-0.91542">
        <ele>52.103</ele>
        <time>2020-07-19T08:20:08Z</time>
      </trkpt>
      <trkpt lat="47.39923" lon="-0.91546">
        <ele>52.553</ele>
        <time>2020-07-19T08:20:09Z</time>
      </trkpt>
      <trkpt lat="47.3992" lon="-0.91552">
        <ele>52.866</ele>
        <time>2020-07-19T08:20:10Z</time>
      </trkpt>
      <trkpt lat="47.39918" lon="-0.91558">
        <ele>52.784</ele>
        <time>2020-07-19T08:20:11Z</time>
      </trkpt>
      <trkpt lat="47.39915" lon="-0.91564">
        <ele>53.9</ele>
        <time>2020-07-19T08:20:12Z</time>
      </trkpt>
      <trkpt lat="47.39912" lon="-0.9157">
        <ele>54.41</ele>
        <time>2020-07-19T08:20:13Z</time>
      </trkpt>
      <trkpt lat="47.3991" lon="-0.91576">
        <ele>54.975</ele>
        <time>2020-07-19T08:20:14Z</time>
      </trkpt>
      <trkpt lat="47.39908" lon="-0.91582">
        <ele>55.436</ele>
        <time>2020-07-19T08:20:15Z</time>
      </trkpt>
      <trkpt lat="47.39906" lon="-0.91588">
        <ele>54.999</ele>
        <time>2020-07-19T08:20:16Z</time>
      </trkpt>
      <trkpt lat="47.39906" lon="-0.91595">
        <ele>56.019</ele>
        <time>2020-07-19T08:20:17Z</time>
      </trkpt>
      <trkpt lat="47.39904" lon="-0.916">
        <ele>55.52</ele>
        <time>2020-07-19T08:20:18Z</time>
      </trkpt>
      <trkpt lat="47.39903" lon="-0.91605">
        <ele>55.302</ele>
        <time>2020-07-19T08:20:19Z</time>
      </trkpt>
      <trkpt lat="47.39902" lon="-0.9161">
        <ele>54.4</ele>
        <time>2020-07-19T08:20:20Z</time>
      </trkpt>
      <trkpt lat="47.39901" lon="-0.91615">
        <ele>54.049</ele>
        <time>2020-07-19T08:20:21Z</time>
      </trkpt>
      <trkpt lat="47.39899" lon="-0.9162">
        <ele>54.744</ele>
        <time>2020-07-19T08:20:22Z</time>
      </trkpt>
      <trkpt lat="47.39897" lon="-0.91624">
        <ele>54.347</ele>
        <time>2020-07-19T08:20:23Z</time>
      </trkpt>
      <trkpt lat="47.39896" lon="-0.91625">
        <ele>54.553</ele>
        <time>2020-07-19T08:20:24Z</time>
      </trkpt>
      <trkpt lat="47.39895" lon="-0.91627">
        <ele>55.361</ele>
        <time>2020-07-19T08:20:25Z</time>
      </trkpt>
      <trkpt lat="47.39893" lon="-0.9163">
        <ele>54.824</ele>
        <time>2020-07-19T08:20:26Z</time>
      </trkpt>
      <trkpt lat="47.39891" lon="-0.91634">
        <ele>55.877</ele>
        <time>2020-07-19T08:20:27Z</time>
      </trkpt>
      <trkpt lat="47.39888" lon="-0.91638">
        <ele>56.646</ele>
        <time>2020-07-19T08:20:28Z</time>
      </trkpt>
      <trkpt lat="47.39886" lon="-0.91643">
        <ele>57.077</ele>
        <time>2020-07-19T08:20:29Z</time>
      </trkpt>
      <trkpt lat="47.39884" lon="-0.91647">
        <ele>57.006</ele>
        <time>2020-07-19T08:20:30Z</time>
      </trkpt>
      <trkpt lat="47.39882" lon="-0.9165">
        <ele>58.623</ele>
        <time>2020-07-19T08:20:31Z</time>
      </trkpt>
      <trkpt lat="47.3988" lon="-0.91654">
        <ele>60.323</ele>
        <time>2020-07-19T08:20:32Z</time>
      </trkpt>
      <trkpt lat="47.39878" lon="-0.91656">
        <ele>60.769</ele>
        <time>2020-07-19T08:20:33Z</time>
      </trkpt>
      <trkpt lat="47.39876" lon="-0.91658">
        <ele>60.956</ele>
        <time>2020-07-19T08:20:34Z</time>
      </trkpt>
      <trkpt lat="47.39874" lon="-0.9166">
        <ele>61.845</ele>
        <time>2020-07-19T08:20:35Z</time>
      </trkpt>
      <trkpt lat="47.39872" lon="-0.91661">
        <ele>60.879</ele>
        <time>2020-07-19T08:20:36Z</time>
      </trkpt>
      <trkpt lat="47.39871" lon="-0.91661">
        <ele>59.882</ele>
        <time>2020-07-19T08:20:37Z</time>
      </trkpt>
      <trkpt lat="47.39869" lon="-0.9166">
        <ele>58.42</ele>
        <time>2020-07-19T08:20:38Z</time>
      </trkpt>
      <trkpt lat="47.39868" lon="-0.91658">
        <ele>58.542</ele>
        <time>2020-07-19T08:20:39Z</time>
      </trkpt>
      <trkpt lat="47.39867" lon="-0.91655">
        <ele>59.129</ele>
        <time>2020-07-19T08:20:40Z</time>
      </trkpt>
      <trkpt lat="47.39866" lon="-0.9165">
        <ele>60.918</ele>
        <time>2020-07-19T08:20:41Z</time>
      </trkpt>
      <trkpt lat="47.39867" lon="-0.91645">
        <ele>61.829</ele>
        <time>2020-07-19T08:20:42Z</time>
      </trkpt>
      <trkpt lat="47.39868" lon="-0.9164">
        <ele>63.345</ele>
        <time>2020-07-19T08:20:43Z</time>
      </trkpt>
      <trkpt lat="47.39869" lon="-0.91635">
        <ele>63.208</ele>
        <time>2020-07-19T08:20:44Z</time>
      </trkpt>
      <trkpt lat="47.39871" lon="-0.9163">
        <ele>63.888</ele>
        <time>2020-07-19T08:20:45Z</time>
      </trkpt>
      <trkpt lat="47.39873" lon="-0.91625">
        <ele>63.54</ele>
        <time>2020-07-19T08:20:46Z</time>
      </trkpt>
      <trkpt lat="47.39875" lon="-0.9162">
        <ele>63.753</ele>
        <time>2020-07-19T08:20:47Z</time>
      </trkpt>
      <trkpt lat="47.39876" lon="-0.91615">
        <ele>63.81</ele>
        <time>2020-07-19T08:20:48Z</time>
      </trkpt>
      <trkpt lat="47.39879" lon="-0.9161">
        <ele>63.918</ele>
        <time>2020-07-19T08:20:49Z</time>
      </trkpt>
      <trkpt lat="47.39881" lon="-0.91605">
        <ele>63.676</ele>
        <time>2020-07-19T08:20:50Z</time>
      </trkpt>
      <trkpt lat="47.39883" lon="-0.916">
        <ele>62.842</ele>
        <time>2020-07-19T08:20:51Z</time>
      </trkpt>
      <trkpt lat="47.39886" lon="-0.91594">
        <ele>61.993</ele>
        <time>2020-07-19T08:20:52Z</time>
      </trkpt>
      <trkpt lat="47.39889" lon="-0.91589">
        <ele>63.674</ele>
        <time>2020-07-19T08:20:53Z</time>
      </trkpt>
      <trkpt lat="47.39891" lon="-0.91582">
        <ele>64.754</ele>
        <time>2020-07-19T08:20:54Z</time>
      </trkpt>
      <trkpt lat="47.39895" lon="-0.91578">
        <ele>64.553</ele>
        <time>2020-07-19T08:20:55Z</time>
      </trkpt>
      <trkpt lat="47.39898" lon="-0.91572">
        <ele>64.24</ele>
        <time>2020-07-19T08:20:56Z</time>
      </trkpt>
      <trkpt lat="47.39901" lon="-0.91567">
        <ele>64.574</ele>
        <time>2020-07-19T08:20:57Z</time>
      </trkpt>
      <trkpt lat="47.39904" lon="-0.9156">
        <ele>64.282</ele>
        <time>2020-07-19T08:20:58Z</time>
      </trkpt>
      <trkpt lat="47.39907" lon="-0.91555">
        <ele>64.521</ele>
        <time>2020-07-19T08:20:59Z</time>
      </trkpt>
      <trkpt lat="47.3991" lon="-0.91548">
        <ele>64.306</ele>
        <time>2020-07-19T08:21:00Z</time>
      </trkpt>
      <trkpt lat="47.39914" lon="-0.91543">
        <ele>80.651</ele>
        <time>2020-07-19T08:21:01Z</time>
      </trkpt>
      <trkpt lat="47.39917" lon="-0.91536">
        <ele>77.224</ele>
        <time>2020-07-19T08:21:02Z</time>
      </trkpt>
      <trkpt lat="47.3992" lon="-0.9153">
        <ele>74.145</ele>
        <time>2020-07-19T08:21:03Z</time>
      </trkpt>
      <trkpt lat="47.39922" lon="-0.91523">
        <ele>72.588</ele>
        <time>2020-07-19T08:21:04Z</time>
      </trkpt>
      <trkpt lat="47.39925" lon="-0.91516">
        <ele>71.573</ele>
        <time>2020-07-19T08:21:05Z</time>
      </trkpt>
      <trkpt lat="47.39928" lon="-0.91509">
        <ele>70.409</ele>
        <time>2020-07-19T08:21:06Z</time>
      </trkpt>
      <trkpt lat="47.3993" lon="-0.91502">
        <ele>69.66</ele>
        <time>2020-07-19T08:21:07Z</time>
      </trkpt>
      <trkpt lat="47.39933" lon="-0.91497">
        <ele>68.171</ele>
        <time>2020-07-19T08:21:08Z</time>
      </trkpt>
      <trkpt lat="47.39935" lon="-0.9149">
        <ele>68.058</ele>
        <time>2020-07-19T08:21:09Z</time>
      </trkpt>
      <trkpt lat="47.39937" lon="-0.91484">
        <ele>67.021</ele>
        <time>2020-07-19T08:21:10Z</time>
      </trkpt>
      <trkpt lat="47.39938" lon="-0.91476">
        <ele>66.318</ele>
        <time>2020-07-19T08:21:11Z</time>
      </trkpt>
      <trkpt lat="47.3994" lon="-0.91468">
        <ele>65.484</ele>
        <time>2020-07-19T08:21:12Z</time>
      </trkpt>
      <trkpt lat="47.39943" lon="-0.91461">
        <ele>64.919</ele>
        <time>2020-07-19T08:21:13Z</time>
      </trkpt>
      <trkpt lat="47.39946" lon="-0.91454">
        <ele>64.861</ele>
        <time>2020-07-19T08:21:14Z</time>
      </trkpt>
      <trkpt lat="47.39948" lon="-0.91447">
        <ele>64.295</ele>
        <time>2020-07-19T08:21:15Z</time>
      </trkpt>
      <trkpt lat="47.3995" lon="-0.9144">
        <ele>63.541</ele>
        <time>2020-07-19T08:21:16Z</time>
      </trkpt>
      <trkpt lat="47.39952" lon="-0.91433">
        <ele>64.122</ele>
        <time>2020-07-19T08:21:17Z</time>
      </trkpt>
      <trkpt lat="47.39954" lon="-0.91426">
        <ele>62.739</ele>
        <time>2020-07-19T08:21:18Z</time>
      </trkpt>
      <trkpt lat="47.39957" lon="-0.91419">
        <ele>62.683</ele>
        <time>2020-07-19T08:21:19Z</time>
      </trkpt>
      <trkpt lat="47.39959" lon="-0.91411">
        <ele>62.829</ele>
        <time>2020-07-19T08:21:20Z</time>
      </trkpt>
      <trkpt lat="47.39963" lon="-0.91404">
        <ele>62.967</ele>
        <time>2020-07-19T08:21:21Z</time>
      </trkpt>
      <trkpt lat="47.39965" lon="-0.91397">
        <ele>63.564</ele>
        <time>2020-07-19T08:21:22Z</time>
      </trkpt>
      <trkpt lat="47.39968" lon="-0.91389">
        <ele>63.844</ele>
        <time>2020-07-19T08:21:23Z</time>
      </trkpt>
      <trkpt lat="47.39971" lon="-0.91381">
        <ele>64.21</ele>
        <time>2020-07-19T08:21:24Z</time>
      </trkpt>
      <trkpt lat="47.39973" lon="-0.91372">
        <ele>63.098</ele>
        <time>2020-07-19T08:21:25Z</time>
      </trkpt>
      <trkpt lat="47.39975" lon="-0.91364">
        <ele>63.509</ele>
        <time>2020-07-19T08:21:26Z</time>
      </trkpt>
      <trkpt lat="47.39977" lon="-0.91356">
        <ele>63.573</ele>
        <time>2020-07-19T08:21:27Z</time>
      </trkpt>
      <trkpt lat="47.39979" lon="-0.91347">
        <ele>63.858</ele>
        <time>2020-07-19T08:21:28Z</time>
      </trkpt>
      <trkpt lat="47.39981" lon="-0.91339">
        <ele>63.963</ele>
        <time>2020-07-19T08:21:29Z</time>
      </trkpt>
      <trkpt lat="47.39982" lon="-0.9133">
        <ele>64.207</ele>
        <time>2020-07-19T08:21:30Z</time>
      </trkpt>
      <trkpt lat="47.39982" lon="-0.91322">
        <ele>62.425</ele>
        <time>2020-07-19T08:21:31Z</time>
      </trkpt>
      <trkpt lat="47.39983" lon="-0.91313">
        <ele>63.256</ele>
        <time>2020-07-19T08:21:32Z</time>
      </trkpt>
      <trkpt lat="47.39985" lon="-0.91304">
        <ele>62.942</ele>
        <time>2020-07-19T08:21:33Z</time>
      </trkpt>
      <trkpt lat="47.39988" lon="-0.91297">
        <ele>61.299</ele>
        <time>2020-07-19T08:21:34Z</time>
      </trkpt>
      <trkpt lat="47.39989" lon="-0.91289">
        <ele>60.518</ele>
        <time>2020-07-19T08:21:35Z</time>
      </trkpt>
      <trkpt lat="47.39992" lon="-0.91282">
        <ele>59.536</ele>
        <time>2020-07-19T08:21:36Z</time>
      </trkpt>
      <trkpt lat="47.39995" lon="-0.91272">
        <ele>60.019</ele>
        <time>2020-07-19T08:21:37Z</time>
      </trkpt>
      <trkpt lat="47.39995" lon="-0.91263">
        <ele>58.989</ele>
        <time>2020-07-19T08:21:38Z</time>
      </trkpt>
      <trkpt lat="47.39995" lon="-0.91254">
        <ele>58.443</ele>
        <time>2020-07-19T08:21:39Z</time>
      </trkpt>
      <trkpt lat="47.39996" lon="-0.91246">
        <ele>57.244</ele>
        <time>2020-07-19T08:21:40Z</time>
      </trkpt>
      <trkpt lat="47.39998" lon="-0.91238">
        <ele>58.233</ele>
        <time>2020-07-19T08:21:41Z</time>
      </trkpt>
      <trkpt lat="47.39997" lon="-0.91228">
        <ele>58.159</ele>
        <time>2020-07-19T08:21:42Z</time>
      </trkpt>
      <trkpt lat="47.39999" lon="-0.9122">
        <ele>58.842</ele>
        <time>2020-07-19T08:21:43Z</time>
      </trkpt>
      <trkpt lat="47.4" lon="-0.91211">
        <ele>59.317</ele>
        <time>2020-07-19T08:21:44Z</time>
      </trkpt>
      <trkpt lat="47.40002" lon="-0.91201">
        <ele>59.838</ele>
        <time>2020-07-19T08:21:45Z</time>
      </trkpt>
      <trkpt lat="47.40004" lon="-0.91193">
        <ele>60.473</ele>
        <time>2020-07-19T08:21:46Z</time>
      </trkpt>
      <trkpt lat="47.40004" lon="-0.91184">
        <ele>60.79</ele>
        <time>2020-07-19T08:21:47Z</time>
      </trkpt>
      <trkpt lat="47.40005" lon="-0.91177">
        <ele>59.072</ele>
        <time>2020-07-19T08:21:48Z</time>
      </trkpt>
      <trkpt lat="47.40005" lon="-0.91168">
        <ele>71.38</ele>
        <time>2020-07-19T08:21:49Z</time>
      </trkpt>
      <trkpt lat="47.40006" lon="-0.91159">
        <ele>67.513</ele>
        <time>2020-07-19T08:21:50Z</time>
      </trkpt>
      <trkpt lat="47.40006" lon="-0.91151">
        <ele>63.991</ele>
        <time>2020-07-19T08:21:51Z</time>
      </trkpt>
      <trkpt lat="47.40006" lon="-0.91141">
        <ele>63.212</ele>
        <time>2020-07-19T08:21:52Z</time>
      </trkpt>
      <trkpt lat="47.40006" lon="-0.91131">
        <ele>62.436</ele>
        <time>2020-07-19T08:21:53Z</time>
      </trkpt>
      <trkpt lat="47.40007" lon="-0.91122">
        <ele>62.368</ele>
        <time>2020-07-19T08:21:54Z</time>
      </trkpt>
      <trkpt lat="47.40006" lon="-0.91113">
        <ele>62.286</ele>
        <time>2020-07-19T08:21:55Z</time>
      </trkpt>
      <trkpt lat="47.40007" lon="-0.91103">
        <ele>62.095</ele>
        <time>2020-07-19T08:21:56Z</time>
      </trkpt>
      <trkpt lat="47.40007" lon="-0.91094">
        <ele>73.847</ele>
        <time>2020-07-19T08:21:57Z</time>
      </trkpt>
      <trkpt lat="47.40008" lon="-0.91085">
        <ele>69.443</ele>
        <time>2020-07-19T08:21:58Z</time>
      </trkpt>
      <trkpt lat="47.40008" lon="-0.91076">
        <ele>65.732</ele>
        <time>2020-07-19T08:21:59Z</time>
      </trkpt>
      <trkpt lat="47.40008" lon="-0.91067">
        <ele>65.865</ele>
        <time>2020-07-19T08:22:00Z</time>
      </trkpt>
      <trkpt lat="47.40009" lon="-0.91057">
        <ele>64.908</ele>
        <time>2020-07-19T08:22:01Z</time>
      </trkpt>
      <trkpt lat="47.40012" lon="-0.91046">
        <ele>65.873</ele>
        <time>2020-07-19T08:22:02Z</time>
      </trkpt>
      <trkpt lat="47.40012" lon="-0.91036">
        <ele>64.468</ele>
        <time>2020-07-19T08:22:03Z</time>
      </trkpt>
      <trkpt lat="47.40012" lon="-0.91027">
        <ele>64.174</ele>
        <time>2020-07-19T08:22:04Z</time>
      </trkpt>
      <trkpt lat="47.40013" lon="-0.91018">
        <ele>63.559</ele>
        <time>2020-07-19T08:22:05Z</time>
      </trkpt>
      <trkpt lat="47.40014" lon="-0.91009">
        <ele>63.515</ele>
        <time>2020-07-19T08:22:06Z</time>
      </trkpt>
      <trkpt lat="47.40014" lon="-0.90999">
        <ele>62.89</ele>
        <time>2020-07-19T08:22:07Z</time>
      </trkpt>
      <trkpt lat="47.40014" lon="-0.90988">
        <ele>61.292</ele>
        <time>2020-07-19T08:22:08Z</time>
      </trkpt>
      <trkpt lat="47.40014" lon="-0.90979">
        <ele>63.047</ele>
        <time>2020-07-19T08:22:09Z</time>
      </trkpt>
      <trkpt lat="47.40013" lon="-0.9097">
        <ele>62.35</ele>
        <time>2020-07-19T08:22:10Z</time>
      </trkpt>
      <trkpt lat="47.40014" lon="-0.90962">
        <ele>62.968</ele>
        <time>2020-07-19T08:22:11Z</time>
      </trkpt>
      <trkpt lat="47.40013" lon="-0.90953">
        <ele>62.657</ele>
        <time>2020-07-19T08:22:12Z</time>
      </trkpt>
      <trkpt lat="47.40013" lon="-0.90944">
        <ele>63.865</ele>
        <time>2020-07-19T08:22:13Z</time>
      </trkpt>
      <trkpt lat="47.40014" lon="-0.90935">
        <ele>63.859</ele>
        <time>2020-07-19T08:22:14Z</time>
      </trkpt>
      <trkpt lat="47.40013" lon="-0.90926">
        <ele>62.812</ele>
        <time>2020-07-19T08:22:15Z</time>
      </trkpt>
      <trkpt lat="47.40013" lon="-0.90919">
        <ele>62.947</ele>
        <time>2020-07-19T08:22:16Z</time>
      </trkpt>
      <trkpt lat="47.40014" lon="-0.90911">
        <ele>62.766</ele>
        <time>2020-07-19T08:22:17Z</time>
      </trkpt>
      <trkpt lat="47.40014" lon="-0.90905">
        <ele>62.567</ele>
        <time>2020-07-19T08:22:18Z</time>
      </trkpt>
      <trkpt lat="47.40014" lon="-0.90897">
        <ele>62.433</ele>
        <time>2020-07-19T08:22:19Z</time>
      </trkpt>
      <trkpt lat="47.40014" lon="-0.90891">
        <ele>62.517</ele>
        <time>2020-07-19T08:22:20Z</time>
      </trkpt>
      <trkpt lat="47.40016" lon="-0.90884">
        <ele>61.289</ele>
        <time>2020-07-19T08:22:21Z</time>
      </trkpt>
      <trkpt lat="47.40016" lon="-0.90876">
        <ele>62.023</ele>
        <time>2020-07-19T08:22:22Z</time>
      </trkpt>
      <trkpt lat="47.40015" lon="-0.90869">
        <ele>64.965</ele>
        <time>2020-07-19T08:22:23Z</time>
      </trkpt>
      <trkpt lat="47.40013" lon="-0.9086">
        <ele>64.777</ele>
        <time>2020-07-19T08:22:24Z</time>
      </trkpt>
      <trkpt lat="47.40014" lon="-0.90852">
        <ele>64.178</ele>
        <time>2020-07-19T08:22:25Z</time>
      </trkpt>
      <trkpt lat="47.40015" lon="-0.90843">
        <ele>63.845</ele>
        <time>2020-07-19T08:22:26Z</time>
      </trkpt>
      <trkpt lat="47.40015" lon="-0.90834">
        <ele>64.077</ele>
        <time>2020-07-19T08:22:27Z</time>
      </trkpt>
      <trkpt lat="47.40018" lon="-0.90824">
        <ele>64.07</ele>
        <time>2020-07-19T08:22:28Z</time>
      </trkpt>
      <trkpt lat="47.40019" lon="-0.90817">
        <ele>65.287</ele>
        <time>2020-07-19T08:22:29Z</time>
      </trkpt>
      <trkpt lat="47.40019" lon="-0.90808">
        <ele>65.312</ele>
        <time>2020-07-19T08:22:30Z</time>
      </trkpt>
      <trkpt lat="47.40018" lon="-0.90799">
        <ele>64.184</ele>
        <time>2020-07-19T08:22:31Z</time>
      </trkpt>
      <trkpt lat="47.40017" lon="-0.90791">
        <ele>63.92</ele>
        <time>2020-07-19T08:22:32Z</time>
      </trkpt>
      <trkpt lat="47.40016" lon="-0.90783">
        <ele>64.474</ele>
        <time>2020-07-19T08:22:33Z</time>
      </trkpt>
      <trkpt lat="47.40016" lon="-0.90774">
        <ele>64.132</ele>
        <time>2020-07-19T08:22:34Z</time>
      </trkpt>
      <trkpt lat="47.40017" lon="-0.90767">
        <ele>63.632</ele>
        <time>2020-07-19T08:22:35Z</time>
      </trkpt>
      <trkpt lat="47.40017" lon="-0.90758">
        <ele>62.926</ele>
        <time>2020-07-19T08:22:36Z</time>
      </trkpt>
      <trkpt lat="47.40018" lon="-0.90749">
        <ele>62.429</ele>
        <time>2020-07-19T08:22:37Z</time>
      </trkpt>
      <trkpt lat="47.40019" lon="-0.90741">
        <ele>61.879</ele>
        <time>2020-07-19T08:22:38Z</time>
      </trkpt>
      <trkpt lat="47.40018" lon="-0.90731">
        <ele>62.572</ele>
        <time>2020-07-19T08:22:39Z</time>
      </trkpt>
      <trkpt lat="47.40018" lon="-0.90723">
        <ele>64.381</ele>
        <time>2020-07-19T08:22:40Z</time>
      </trkpt>
      <trkpt lat="47.40018" lon="-0.90714">
        <ele>63.418</ele>
        <time>2020-07-19T08:22:41Z</time>
      </trkpt>
      <trkpt lat="47.40018" lon="-0.90705">
        <ele>62.906</ele>
        <time>2020-07-19T08:22:42Z</time>
      </trkpt>
      <trkpt lat="47.40018" lon="-0.90697">
        <ele>62.479</ele>
        <time>2020-07-19T08:22:43Z</time>
      </trkpt>
      <trkpt lat="47.40018" lon="-0.90688">
        <ele>62.426</ele>
        <time>2020-07-19T08:22:44Z</time>
      </trkpt>
      <trkpt lat="47.40019" lon="-0.90681">
        <ele>61.824</ele>
        <time>2020-07-19T08:22:45Z</time>
      </trkpt>
      <trkpt lat="47.40017" lon="-0.90672">
        <ele>61.026</ele>
        <time>2020-07-19T08:22:46Z</time>
      </trkpt>
      <trkpt lat="47.40017" lon="-0.90663">
        <ele>62.466</ele>
        <time>2020-07-19T08:22:47Z</time>
      </trkpt>
      <trkpt lat="47.40018" lon="-0.90655">
        <ele>62.563</ele>
        <time>2020-07-19T08:22:48Z</time>
      </trkpt>
      <trkpt lat="47.40018" lon="-0.90647">
        <ele>64.333</ele>
        <time>2020-07-19T08:22:49Z</time>
      </trkpt>
      <trkpt lat="47.40017" lon="-0.90639">
        <ele>63.313</ele>
        <time>2020-07-19T08:22:50Z</time>
      </trkpt>
      <trkpt lat="47.40013" lon="-0.9063">
        <ele>62.854</ele>
        <time>2020-07-19T08:22:51Z</time>
      </trkpt>
      <trkpt lat="47.40014" lon="-0.90621">
        <ele>63.165</ele>
        <time>2020-07-19T08:22:52Z</time>
      </trkpt>
      <trkpt lat="47.40015" lon="-0.90613">
        <ele>63.746</ele>
        <time>2020-07-19T08:22:53Z</time>
      </trkpt>
      <trkpt lat="47.40012" lon="-0.90606">
        <ele>62.908</ele>
        <time>2020-07-19T08:22:54Z</time>
      </trkpt>
      <trkpt lat="47.40013" lon="-0.90597">
        <ele>63.176</ele>
        <time>2020-07-19T08:22:55Z</time>
      </trkpt>
      <trkpt lat="47.40014" lon="-0.90589">
        <ele>63.408</ele>
        <time>2020-07-19T08:22:56Z</time>
      </trkpt>
      <trkpt lat="47.40014" lon="-0.9058">
        <ele>64.695</ele>
        <time>2020-07-19T08:22:57Z</time>
      </trkpt>
      <trkpt lat="47.40013" lon="-0.90572">
        <ele>65.427</ele>
        <time>2020-07-19T08:22:58Z</time>
      </trkpt>
      <trkpt lat="47.40013" lon="-0.90565">
        <ele>65.662</ele>
        <time>2020-07-19T08:22:59Z</time>
      </trkpt>
      <trkpt lat="47.40012" lon="-0.90557">
        <ele>65.279</ele>
        <time>2020-07-19T08:23:00Z</time>
      </trkpt>
      <trkpt lat="47.40009" lon="-0.90548">
        <ele>63.541</ele>
        <time>2020-07-19T08:23:01Z</time>
      </trkpt>
      <trkpt lat="47.40009" lon="-0.9054">
        <ele>63.793</ele>
        <time>2020-07-19T08:23:02Z</time>
      </trkpt>
      <trkpt lat="47.40009" lon="-0.90532">
        <ele>64.785</ele>
        <time>2020-07-19T08:23:03Z</time>
      </trkpt>
      <trkpt lat="47.40009" lon="-0.90525">
        <ele>64.8</ele>
        <time>2020-07-19T08:23:04Z</time>
      </trkpt>
      <trkpt lat="47.40009" lon="-0.90516">
        <ele>55.832</ele>
        <time>2020-07-19T08:23:05Z</time>
      </trkpt>
      <trkpt lat="47.40009" lon="-0.90507">
        <ele>58.215</ele>
        <time>2020-07-19T08:23:06Z</time>
      </trkpt>
      <trkpt lat="47.40008" lon="-0.90498">
        <ele>60.346</ele>
        <time>2020-07-19T08:23:07Z</time>
      </trkpt>
      <trkpt lat="47.40007" lon="-0.9049">
        <ele>61.55</ele>
        <time>2020-07-19T08:23:08Z</time>
      </trkpt>
      <trkpt lat="47.40007" lon="-0.90481">
        <ele>62.55</ele>
        <time>2020-07-19T08:23:09Z</time>
      </trkpt>
      <trkpt lat="47.40005" lon="-0.90472">
        <ele>63.175</ele>
        <time>2020-07-19T08:23:10Z</time>
      </trkpt>
      <trkpt lat="47.40004" lon="-0.90464">
        <ele>63.744</ele>
        <time>2020-07-19T08:23:11Z</time>
      </trkpt>
      <trkpt lat="47.40003" lon="-0.90456">
        <ele>62.398</ele>
        <time>2020-07-19T08:23:12Z</time>
      </trkpt>
      <trkpt lat="47.40002" lon="-0.90447">
        <ele>63.154</ele>
        <time>2020-07-19T08:23:13Z</time>
      </trkpt>
      <trkpt lat="47.40001" lon="-0.90438">
        <ele>63.044</ele>
        <time>2020-07-19T08:23:14Z</time>
      </trkpt>
      <trkpt lat="47.39999" lon="-0.9043">
        <ele>63.83</ele>
        <time>2020-07-19T08:23:15Z</time>
      </trkpt>
      <trkpt lat="47.39998" lon="-0.90423">
        <ele>62.289</ele>
        <time>2020-07-19T08:23:16Z</time>
      </trkpt>
      <trkpt lat="47.39996" lon="-0.90415">
        <ele>62.998</ele>
        <time>2020-07-19T08:23:17Z</time>
      </trkpt>
      <trkpt lat="47.39994" lon="-0.90406">
        <ele>64.273</ele>
        <time>2020-07-19T08:23:18Z</time>
      </trkpt>
      <trkpt lat="47.39992" lon="-0.90399">
        <ele>64.1</ele>
        <time>2020-07-19T08:23:19Z</time>
      </trkpt>
      <trkpt lat="47.3999" lon="-0.90392">
        <ele>62.744</ele>
        <time>2020-07-19T08:23:20Z</time>
      </trkpt>
      <trkpt lat="47.39988" lon="-0.90384">
        <ele>63.848</ele>
        <time>2020-07-19T08:23:21Z</time>
      </trkpt>
      <trkpt lat="47.39987" lon="-0.90376">
        <ele>63.839</ele>
        <time>2020-07-19T08:23:22Z</time>
      </trkpt>
      <trkpt lat="47.39984" lon="-0.90368">
        <ele>63.527</ele>
        <time>2020-07-19T08:23:23Z</time>
      </trkpt>
      <trkpt lat="47.39982" lon="-0.9036">
        <ele>63.87</ele>
        <time>2020-07-19T08:23:24Z</time>
      </trkpt>
      <trkpt lat="47.3998" lon="-0.90354">
        <ele>63.142</ele>
        <time>2020-07-19T08:23:25Z</time>
      </trkpt>
      <trkpt lat="47.39979" lon="-0.90345">
        <ele>62.959</ele>
        <time>2020-07-19T08:23:26Z</time>
      </trkpt>
      <trkpt lat="47.39975" lon="-0.90337">
        <ele>63.709</ele>
        <time>2020-07-19T08:23:27Z</time>
      </trkpt>
      <trkpt lat="47.39973" lon="-0.90329">
        <ele>64.064</ele>
        <time>2020-07-19T08:23:28Z</time>
      </trkpt>
      <trkpt lat="47.3997" lon="-0.90322">
        <ele>64.88</ele>
        <time>2020-07-19T08:23:29Z</time>
      </trkpt>
      <trkpt lat="47.39967" lon="-0.90313">
        <ele>65.751</ele>
        <time>2020-07-19T08:23:30Z</time>
      </trkpt>
      <trkpt lat="47.39964" lon="-0.90305">
        <ele>65.137</ele>
        <time>2020-07-19T08:23:31Z</time>
      </trkpt>
      <trkpt lat="47.39962" lon="-0.903">
        <ele>63.138</ele>
        <time>2020-07-19T08:23:32Z</time>
      </trkpt>
      <trkpt lat="47.3996" lon="-0.90292">
        <ele>63.408</ele>
        <time>2020-07-19T08:23:33Z</time>
      </trkpt>
      <trkpt lat="47.39958" lon="-0.90288">
        <ele>64.774</ele>
        <time>2020-07-19T08:23:34Z</time>
      </trkpt>
      <trkpt lat="47.39955" lon="-0.9028">
        <ele>64.587</ele>
        <time>2020-07-19T08:23:35Z</time>
      </trkpt>
      <trkpt lat="47.39951" lon="-0.90272">
        <ele>64.448</ele>
        <time>2020-07-19T08:23:36Z</time>
      </trkpt>
      <trkpt lat="47.39949" lon="-0.90264">
        <ele>64.473</ele>
        <time>2020-07-19T08:23:37Z</time>
      </trkpt>
      <trkpt lat="47.39947" lon="-0.90258">
        <ele>63.202</ele>
        <time>2020-07-19T08:23:38Z</time>
      </trkpt>
      <trkpt lat="47.39945" lon="-0.9025">
        <ele>62.084</ele>
        <time>2020-07-19T08:23:39Z</time>
      </trkpt>
      <trkpt lat="47.39942" lon="-0.90242">
        <ele>62.209</ele>
        <time>2020-07-19T08:23:40Z</time>
      </trkpt>
      <trkpt lat="47.3994" lon="-0.90232">
        <ele>62.908</ele>
        <time>2020-07-19T08:23:41Z</time>
      </trkpt>
      <trkpt lat="47.39938" lon="-0.90225">
        <ele>62.449</ele>
        <time>2020-07-19T08:23:42Z</time>
      </trkpt>
      <trkpt lat="47.39934" lon="-0.90217">
        <ele>62.954</ele>
        <time>2020-07-19T08:23:43Z</time>
      </trkpt>
      <trkpt lat="47.39932" lon="-0.90208">
        <ele>62.164</ele>
        <time>2020-07-19T08:23:44Z</time>
      </trkpt>
      <trkpt lat="47.39929" lon="-0.902">
        <ele>61.765</ele>
        <time>2020-07-19T08:23:45Z</time>
      </trkpt>
      <trkpt lat="47.39927" lon="-0.90193">
        <ele>61.009</ele>
        <time>2020-07-19T08:23:46Z</time>
      </trkpt>
      <trkpt lat="47.39925" lon="-0.90186">
        <ele>59.845</ele>
        <time>2020-07-19T08:23:47Z</time>
      </trkpt>
      <trkpt lat="47.39922" lon="-0.90177">
        <ele>60.675</ele>
        <time>2020-07-19T08:23:48Z</time>
      </trkpt>
      <trkpt lat="47.39919" lon="-0.90169">
        <ele>60.646</ele>
        <time>2020-07-19T08:23:49Z</time>
      </trkpt>
      <trkpt lat="47.39917" lon="-0.90161">
        <ele>60.549</ele>
        <time>2020-07-19T08:23:50Z</time>
      </trkpt>
      <trkpt lat="47.39914" lon="-0.90154">
        <ele>61.318</ele>
        <time>2020-07-19T08:23:51Z</time>
      </trkpt>
      <trkpt lat="47.39912" lon="-0.90146">
        <ele>60.343</ele>
        <time>2020-07-19T08:23:52Z</time>
      </trkpt>
      <trkpt lat="47.39909" lon="-0.90138">
        <ele>60.562</ele>
        <time>2020-07-19T08:23:53Z</time>
      </trkpt>
      <trkpt lat="47.39907" lon="-0.9013">
        <ele>60.624</ele>
        <time>2020-07-19T08:23:54Z</time>
      </trkpt>
      <trkpt lat="47.39904" lon="-0.90122">
        <ele>61.075</ele>
        <time>2020-07-19T08:23:55Z</time>
      </trkpt>
      <trkpt lat="47.39902" lon="-0.90114">
        <ele>61.011</ele>
        <time>2020-07-19T08:23:56Z</time>
      </trkpt>
      <trkpt lat="47.39899" lon="-0.90106">
        <ele>62.723</ele>
        <time>2020-07-19T08:23:57Z</time>
      </trkpt>
      <trkpt lat="47.39896" lon="-0.90098">
        <ele>62.728</ele>
        <time>2020-07-19T08:23:58Z</time>
      </trkpt>
      <trkpt lat="47.39894" lon="-0.9009">
        <ele>62.462</ele>
        <time>2020-07-19T08:23:59Z</time>
      </trkpt>
      <trkpt lat="47.39891" lon="-0.90083">
        <ele>61.04</ele>
        <time>2020-07-19T08:24:00Z</time>
      </trkpt>
      <trkpt lat="47.39889" lon="-0.90075">
        <ele>61.136</ele>
        <time>2020-07-19T08:24:01Z</time>
      </trkpt>
      <trkpt lat="47.39886" lon="-0.90067">
        <ele>61.423</ele>
        <time>2020-07-19T08:24:02Z</time>
      </trkpt>
      <trkpt lat="47.39883" lon="-0.90058">
        <ele>61.64</ele>
        <time>2020-07-19T08:24:03Z</time>
      </trkpt>
      <trkpt lat="47.39879" lon="-0.9005">
        <ele>56.968</ele>
        <time>2020-07-19T08:24:04Z</time>
      </trkpt>
      <trkpt lat="47.39876" lon="-0.90041">
        <ele>65.096</ele>
        <time>2020-07-19T08:24:05Z</time>
      </trkpt>
      <trkpt lat="47.39873" lon="-0.90032">
        <ele>64.758</ele>
        <time>2020-07-19T08:24:06Z</time>
      </trkpt>
      <trkpt lat="47.39871" lon="-0.90023">
        <ele>65.304</ele>
        <time>2020-07-19T08:24:07Z</time>
      </trkpt>
      <trkpt lat="47.39868" lon="-0.90015">
        <ele>65.439</ele>
        <time>2020-07-19T08:24:08Z</time>
      </trkpt>
      <trkpt lat="47.39865" lon="-0.90007">
        <ele>65.92</ele>
        <time>2020-07-19T08:24:09Z</time>
      </trkpt>
      <trkpt lat="47.39862" lon="-0.89999">
        <ele>65.124</ele>
        <time>2020-07-19T08:24:10Z</time>
      </trkpt>
      <trkpt lat="47.39861" lon="-0.8999">
        <ele>65.675</ele>
        <time>2020-07-19T08:24:11Z</time>
      </trkpt>
      <trkpt lat="47.39859" lon="-0.89981">
        <ele>65.828</ele>
        <time>2020-07-19T08:24:12Z</time>
      </trkpt>
      <trkpt lat="47.39856" lon="-0.89972">
        <ele>65.848</ele>
        <time>2020-07-19T08:24:13Z</time>
      </trkpt>
      <trkpt lat="47.39854" lon="-0.89964">
        <ele>66.008</ele>
        <time>2020-07-19T08:24:14Z</time>
      </trkpt>
      <trkpt lat="47.3985" lon="-0.89955">
        <ele>66.375</ele>
        <time>2020-07-19T08:24:15Z</time>
      </trkpt>
      <trkpt lat="47.39848" lon="-0.89949">
        <ele>61.628</ele>
        <time>2020-07-19T08:24:16Z</time>
      </trkpt>
      <trkpt lat="47.39845" lon="-0.8994">
        <ele>63.233</ele>
        <time>2020-07-19T08:24:17Z</time>
      </trkpt>
      <trkpt lat="47.39842" lon="-0.89932">
        <ele>63.76</ele>
        <time>2020-07-19T08:24:18Z</time>
      </trkpt>
      <trkpt lat="47.3984" lon="-0.89924">
        <ele>63.693</ele>
        <time>2020-07-19T08:24:19Z</time>
      </trkpt>
      <trkpt lat="47.39837" lon="-0.89916">
        <ele>63.479</ele>
        <time>2020-07-19T08:24:20Z</time>
      </trkpt>
      <trkpt lat="47.39835" lon="-0.89909">
        <ele>59.516</ele>
        <time>2020-07-19T08:24:21Z</time>
      </trkpt>
      <trkpt lat="47.39833" lon="-0.899">
        <ele>60.453</ele>
        <time>2020-07-19T08:24:22Z</time>
      </trkpt>
      <trkpt lat="47.39832" lon="-0.89893">
        <ele>57.203</ele>
        <time>2020-07-19T08:24:23Z</time>
      </trkpt>
      <trkpt lat="47.39828" lon="-0.89886">
        <ele>57.899</ele>
        <time>2020-07-19T08:24:24Z</time>
      </trkpt>
      <trkpt lat="47.39825" lon="-0.89878">
        <ele>59.311</ele>
        <time>2020-07-19T08:24:25Z</time>
      </trkpt>
      <trkpt lat="47.39822" lon="-0.89871">
        <ele>60.598</ele>
        <time>2020-07-19T08:24:26Z</time>
      </trkpt>
      <trkpt lat="47.39818" lon="-0.89863">
        <ele>60.727</ele>
        <time>2020-07-19T08:24:27Z</time>
      </trkpt>
      <trkpt lat="47.39816" lon="-0.89855">
        <ele>61.977</ele>
        <time>2020-07-19T08:24:28Z</time>
      </trkpt>
      <trkpt lat="47.39814" lon="-0.89847">
        <ele>62.133</ele>
        <time>2020-07-19T08:24:29Z</time>
      </trkpt>
      <trkpt lat="47.39811" lon="-0.89839">
        <ele>60.569</ele>
        <time>2020-07-19T08:24:30Z</time>
      </trkpt>
      <trkpt lat="47.39808" lon="-0.89831">
        <ele>61.491</ele>
        <time>2020-07-19T08:24:31Z</time>
      </trkpt>
      <trkpt lat="47.39805" lon="-0.89823">
        <ele>62.092</ele>
        <time>2020-07-19T08:24:32Z</time>
      </trkpt>
      <trkpt lat="47.39803" lon="-0.89816">
        <ele>61.536</ele>
        <time>2020-07-19T08:24:33Z</time>
      </trkpt>
      <trkpt lat="47.398" lon="-0.89809">
        <ele>60.784</ele>
        <time>2020-07-19T08:24:34Z</time>
      </trkpt>
      <trkpt lat="47.39798" lon="-0.898">
        <ele>55.968</ele>
        <time>2020-07-19T08:24:35Z</time>
      </trkpt>
      <trkpt lat="47.39796" lon="-0.89796">
        <ele>56.368</ele>
        <time>2020-07-19T08:24:36Z</time>
      </trkpt>
      <trkpt lat="47.39793" lon="-0.89787">
        <ele>57.28</ele>
        <time>2020-07-19T08:24:37Z</time>
      </trkpt>
      <trkpt lat="47.3979" lon="-0.89778">
        <ele>58.083</ele>
        <time>2020-07-19T08:24:38Z</time>
      </trkpt>
      <trkpt lat="47.39788" lon="-0.8977">
        <ele>58.53</ele>
        <time>2020-07-19T08:24:39Z</time>
      </trkpt>
      <trkpt lat="47.39785" lon="-0.89761">
        <ele>59.157</ele>
        <time>2020-07-19T08:24:40Z</time>
      </trkpt>
      <trkpt lat="47.39782" lon="-0.89754">
        <ele>60.302</ele>
        <time>2020-07-19T08:24:41Z</time>
      </trkpt>
      <trkpt lat="47.39779" lon="-0.89745">
        <ele>60.832</ele>
        <time>2020-07-19T08:24:42Z</time>
      </trkpt>
      <trkpt lat="47.39777" lon="-0.89739">
        <ele>59.708</ele>
        <time>2020-07-19T08:24:43Z</time>
      </trkpt>
      <trkpt lat="47.39775" lon="-0.8973">
        <ele>59.653</ele>
        <time>2020-07-19T08:24:44Z</time>
      </trkpt>
      <trkpt lat="47.39771" lon="-0.89721">
        <ele>61.55</ele>
        <time>2020-07-19T08:24:45Z</time>
      </trkpt>
      <trkpt lat="47.39768" lon="-0.89714">
        <ele>61.899</ele>
        <time>2020-07-19T08:24:46Z</time>
      </trkpt>
      <trkpt lat="47.39764" lon="-0.89707">
        <ele>61.558</ele>
        <time>2020-07-19T08:24:47Z</time>
      </trkpt>
      <trkpt lat="47.39761" lon="-0.89699">
        <ele>62.074</ele>
        <time>2020-07-19T08:24:48Z</time>
      </trkpt>
      <trkpt lat="47.39758" lon="-0.89691">
        <ele>63.304</ele>
        <time>2020-07-19T08:24:49Z</time>
      </trkpt>
      <trkpt lat="47.39756" lon="-0.89683">
        <ele>63.659</ele>
        <time>2020-07-19T08:24:50Z</time>
      </trkpt>
      <trkpt lat="47.39753" lon="-0.89675">
        <ele>64.209</ele>
        <time>2020-07-19T08:24:51Z</time>
      </trkpt>
      <trkpt lat="47.39749" lon="-0.89666">
        <ele>64.42</ele>
        <time>2020-07-19T08:24:52Z</time>
      </trkpt>
      <trkpt lat="47.39746" lon="-0.89658">
        <ele>64.825</ele>
        <time>2020-07-19T08:24:53Z</time>
      </trkpt>
      <trkpt lat="47.39744" lon="-0.89649">
        <ele>65.387</ele>
        <time>2020-07-19T08:24:54Z</time>
      </trkpt>
      <trkpt lat="47.39742" lon="-0.89643">
        <ele>64.36</ele>
        <time>2020-07-19T08:24:55Z</time>
      </trkpt>
      <trkpt lat="47.39738" lon="-0.89634">
        <ele>64.612</ele>
        <time>2020-07-19T08:24:56Z</time>
      </trkpt>
      <trkpt lat="47.39735" lon="-0.89626">
        <ele>65.143</ele>
        <time>2020-07-19T08:24:57Z</time>
      </trkpt>
      <trkpt lat="47.39733" lon="-0.89617">
        <ele>65.672</ele>
        <time>2020-07-19T08:24:58Z</time>
      </trkpt>
      <trkpt lat="47.39731" lon="-0.89609">
        <ele>66.034</ele>
        <time>2020-07-19T08:24:59Z</time>
      </trkpt>
      <trkpt lat="47.39729" lon="-0.89603">
        <ele>63.917</ele>
        <time>2020-07-19T08:25:00Z</time>
      </trkpt>
      <trkpt lat="47.39726" lon="-0.89595">
        <ele>63.576</ele>
        <time>2020-07-19T08:25:01Z</time>
      </trkpt>
      <trkpt lat="47.39723" lon="-0.89587">
        <ele>63.865</ele>
        <time>2020-07-19T08:25:02Z</time>
      </trkpt>
      <trkpt lat="47.39722" lon="-0.89582">
        <ele>60.867</ele>
        <time>2020-07-19T08:25:03Z</time>
      </trkpt>
      <trkpt lat="47.39718" lon="-0.89574">
        <ele>59.656</ele>
        <time>2020-07-19T08:25:04Z</time>
      </trkpt>
      <trkpt lat="47.39715" lon="-0.89566">
        <ele>59.949</ele>
        <time>2020-07-19T08:25:05Z</time>
      </trkpt>
      <trkpt lat="47.39712" lon="-0.89558">
        <ele>60.011</ele>
        <time>2020-07-19T08:25:06Z</time>
      </trkpt>
      <trkpt lat="47.3971" lon="-0.8955">
        <ele>59.561</ele>
        <time>2020-07-19T08:25:07Z</time>
      </trkpt>
      <trkpt lat="47.39707" lon="-0.89542">
        <ele>60.068</ele>
        <time>2020-07-19T08:25:08Z</time>
      </trkpt>
      <trkpt lat="47.39703" lon="-0.89533">
        <ele>60.836</ele>
        <time>2020-07-19T08:25:09Z</time>
      </trkpt>
      <trkpt lat="47.397" lon="-0.89524">
        <ele>61.424</ele>
        <time>2020-07-19T08:25:10Z</time>
      </trkpt>
      <trkpt lat="47.39698" lon="-0.89515">
        <ele>60.774</ele>
        <time>2020-07-19T08:25:11Z</time>
      </trkpt>
      <trkpt lat="47.39696" lon="-0.89506">
        <ele>61.198</ele>
        <time>2020-07-19T08:25:12Z</time>
      </trkpt>
      <trkpt lat="47.39694" lon="-0.89499">
        <ele>59.637</ele>
        <time>2020-07-19T08:25:13Z</time>
      </trkpt>
      <trkpt lat="47.39691" lon="-0.89491">
        <ele>59.563</ele>
        <time>2020-07-19T08:25:14Z</time>
      </trkpt>
      <trkpt lat="47.39688" lon="-0.89483">
        <ele>59.818</ele>
        <time>2020-07-19T08:25:15Z</time>
      </trkpt>
      <trkpt lat="47.39685" lon="-0.89475">
        <ele>60.121</ele>
        <time>2020-07-19T08:25:16Z</time>
      </trkpt>
      <trkpt lat="47.39681" lon="-0.89467">
        <ele>60.498</ele>
        <time>2020-07-19T08:25:17Z</time>
      </trkpt>
      <trkpt lat="47.39677" lon="-0.8946">
        <ele>61.684</ele>
        <time>2020-07-19T08:25:18Z</time>
      </trkpt>
      <trkpt lat="47.39674" lon="-0.89452">
        <ele>62.141</ele>
        <time>2020-07-19T08:25:19Z</time>
      </trkpt>
      <trkpt lat="47.39671" lon="-0.89443">
        <ele>63.471</ele>
        <time>2020-07-19T08:25:20Z</time>
      </trkpt>
      <trkpt lat="47.39669" lon="-0.89435">
        <ele>62.874</ele>
        <time>2020-07-19T08:25:21Z</time>
      </trkpt>
      <trkpt lat="47.39667" lon="-0.89426">
        <ele>63.566</ele>
        <time>2020-07-19T08:25:22Z</time>
      </trkpt>
      <trkpt lat="47.39664" lon="-0.89418">
        <ele>63.673</ele>
        <time>2020-07-19T08:25:23Z</time>
      </trkpt>
      <trkpt lat="47.39662" lon="-0.89409">
        <ele>64.006</ele>
        <time>2020-07-19T08:25:24Z</time>
      </trkpt>
      <trkpt lat="47.3966" lon="-0.89402">
        <ele>62.012</ele>
        <time>2020-07-19T08:25:25Z</time>
      </trkpt>
      <trkpt lat="47.39658" lon="-0.89393">
        <ele>61.884</ele>
        <time>2020-07-19T08:25:26Z</time>
      </trkpt>
      <trkpt lat="47.39656" lon="-0.89384">
        <ele>57.849</ele>
        <time>2020-07-19T08:25:27Z</time>
      </trkpt>
      <trkpt lat="47.39653" lon="-0.89375">
        <ele>59.794</ele>
        <time>2020-07-19T08:25:28Z</time>
      </trkpt>
      <trkpt lat="47.39649" lon="-0.89367">
        <ele>60.822</ele>
        <time>2020-07-19T08:25:29Z</time>
      </trkpt>
      <trkpt lat="47.39647" lon="-0.89359">
        <ele>61.399</ele>
        <time>2020-07-19T08:25:30Z</time>
      </trkpt>
      <trkpt lat="47.39645" lon="-0.89349">
        <ele>61.769</ele>
        <time>2020-07-19T08:25:31Z</time>
      </trkpt>
      <trkpt lat="47.39643" lon="-0.8934">
        <ele>62.78</ele>
        <time>2020-07-19T08:25:32Z</time>
      </trkpt>
      <trkpt lat="47.3964" lon="-0.8933">
        <ele>64.453</ele>
        <time>2020-07-19T08:25:33Z</time>
      </trkpt>
      <trkpt lat="47.39636" lon="-0.89321">
        <ele>65.33</ele>
        <time>2020-07-19T08:25:34Z</time>
      </trkpt>
      <trkpt lat="47.39636" lon="-0.89311">
        <ele>64.975</ele>
        <time>2020-07-19T08:25:35Z</time>
      </trkpt>
      <trkpt lat="47.39636" lon="-0.89302">
        <ele>64.855</ele>
        <time>2020-07-19T08:25:36Z</time>
      </trkpt>
      <trkpt lat="47.39633" lon="-0.89293">
        <ele>65.185</ele>
        <time>2020-07-19T08:25:37Z</time>
      </trkpt>
      <trkpt lat="47.39632" lon="-0.89284">
        <ele>64.921</ele>
        <time>2020-07-19T08:25:38Z</time>
      </trkpt>
      <trkpt lat="47.3963" lon="-0.89275">
        <ele>65.755</ele>
        <time>2020-07-19T08:25:39Z</time>
      </trkpt>
      <trkpt lat="47.39628" lon="-0.89266">
        <ele>66.579</ele>
        <time>2020-07-19T08:25:40Z</time>
      </trkpt>
      <trkpt lat="47.39626" lon="-0.89256">
        <ele>66.524</ele>
        <time>2020-07-19T08:25:41Z</time>
      </trkpt>
      <trkpt lat="47.39626" lon="-0.89246">
        <ele>66.142</ele>
        <time>2020-07-19T08:25:42Z</time>
      </trkpt>
      <trkpt lat="47.39626" lon="-0.89238">
        <ele>65.179</ele>
        <time>2020-07-19T08:25:43Z</time>
      </trkpt>
      <trkpt lat="47.39623" lon="-0.89229">
        <ele>65.378</ele>
        <time>2020-07-19T08:25:44Z</time>
      </trkpt>
      <trkpt lat="47.39623" lon="-0.89219">
        <ele>66.7</ele>
        <time>2020-07-19T08:25:45Z</time>
      </trkpt>
      <trkpt lat="47.39622" lon="-0.8921">
        <ele>66.867</ele>
        <time>2020-07-19T08:25:46Z</time>
      </trkpt>
      <trkpt lat="47.39623" lon="-0.892">
        <ele>66.56</ele>
        <time>2020-07-19T08:25:47Z</time>
      </trkpt>
      <trkpt lat="47.39624" lon="-0.8919">
        <ele>66.057</ele>
        <time>2020-07-19T08:25:48Z</time>
      </trkpt>
      <trkpt lat="47.39623" lon="-0.89181">
        <ele>65.958</ele>
        <time>2020-07-19T08:25:49Z</time>
      </trkpt>
      <trkpt lat="47.39623" lon="-0.8917">
        <ele>66.081</ele>
        <time>2020-07-19T08:25:50Z</time>
      </trkpt>
      <trkpt lat="47.39623" lon="-0.89161">
        <ele>66.011</ele>
        <time>2020-07-19T08:25:51Z</time>
      </trkpt>
      <trkpt lat="47.39622" lon="-0.89152">
        <ele>66.22</ele>
        <time>2020-07-19T08:25:52Z</time>
      </trkpt>
      <trkpt lat="47.39621" lon="-0.89143">
        <ele>65.825</ele>
        <time>2020-07-19T08:25:53Z</time>
      </trkpt>
      <trkpt lat="47.3962" lon="-0.89134">
        <ele>66.679</ele>
        <time>2020-07-19T08:25:54Z</time>
      </trkpt>
      <trkpt lat="47.39615" lon="-0.89126">
        <ele>62.781</ele>
        <time>2020-07-19T08:25:55Z</time>
      </trkpt>
      <trkpt lat="47.39616" lon="-0.89117">
        <ele>62.532</ele>
        <time>2020-07-19T08:25:56Z</time>
      </trkpt>
      <trkpt lat="47.39617" lon="-0.89108">
        <ele>62.569</ele>
        <time>2020-07-19T08:25:57Z</time>
      </trkpt>
      <trkpt lat="47.39616" lon="-0.89098">
        <ele>63.903</ele>
        <time>2020-07-19T08:25:58Z</time>
      </trkpt>
      <trkpt lat="47.39615" lon="-0.8909">
        <ele>63.582</ele>
        <time>2020-07-19T08:25:59Z</time>
      </trkpt>
      <trkpt lat="47.39615" lon="-0.89081">
        <ele>63.484</ele>
        <time>2020-07-19T08:26:00Z</time>
      </trkpt>
      <trkpt lat="47.39615" lon="-0.89072">
        <ele>64.404</ele>
        <time>2020-07-19T08:26:01Z</time>
      </trkpt>
      <trkpt lat="47.39614" lon="-0.89062">
        <ele>63.952</ele>
        <time>2020-07-19T08:26:02Z</time>
      </trkpt>
      <trkpt lat="47.39614" lon="-0.89053">
        <ele>63.848</ele>
        <time>2020-07-19T08:26:03Z</time>
      </trkpt>
      <trkpt lat="47.39613" lon="-0.89044">
        <ele>63.095</ele>
        <time>2020-07-19T08:26:04Z</time>
      </trkpt>
      <trkpt lat="47.39613" lon="-0.89036">
        <ele>62.763</ele>
        <time>2020-07-19T08:26:05Z</time>
      </trkpt>
      <trkpt lat="47.39612" lon="-0.89026">
        <ele>63.131</ele>
        <time>2020-07-19T08:26:06Z</time>
      </trkpt>
      <trkpt lat="47.39612" lon="-0.89016">
        <ele>63.03</ele>
        <time>2020-07-19T08:26:07Z</time>
      </trkpt>
      <trkpt lat="47.3961" lon="-0.89007">
        <ele>62.894</ele>
        <time>2020-07-19T08:26:08Z</time>
      </trkpt>
      <trkpt lat="47.39609" lon="-0.88998">
        <ele>60.76</ele>
        <time>2020-07-19T08:26:09Z</time>
      </trkpt>
      <trkpt lat="47.39608" lon="-0.8899">
        <ele>59.306</ele>
        <time>2020-07-19T08:26:10Z</time>
      </trkpt>
      <trkpt lat="47.39608" lon="-0.88981">
        <ele>59.051</ele>
        <time>2020-07-19T08:26:11Z</time>
      </trkpt>
      <trkpt lat="47.39608" lon="-0.88971">
        <ele>59.435</ele>
        <time>2020-07-19T08:26:12Z</time>
      </trkpt>
      <trkpt lat="47.39607" lon="-0.88963">
        <ele>59.823</ele>
        <time>2020-07-19T08:26:13Z</time>
      </trkpt>
      <trkpt lat="47.39607" lon="-0.88954">
        <ele>59.121</ele>
        <time>2020-07-19T08:26:14Z</time>
      </trkpt>
      <trkpt lat="47.39607" lon="-0.88945">
        <ele>59.878</ele>
        <time>2020-07-19T08:26:15Z</time>
      </trkpt>
      <trkpt lat="47.39606" lon="-0.88935">
        <ele>61.039</ele>
        <time>2020-07-19T08:26:16Z</time>
      </trkpt>
      <trkpt lat="47.39604" lon="-0.88927">
        <ele>59.772</ele>
        <time>2020-07-19T08:26:17Z</time>
      </trkpt>
      <trkpt lat="47.39604" lon="-0.88919">
        <ele>60.403</ele>
        <time>2020-07-19T08:26:18Z</time>
      </trkpt>
      <trkpt lat="47.39603" lon="-0.88911">
        <ele>60.298</ele>
        <time>2020-07-19T08:26:19Z</time>
      </trkpt>
      <trkpt lat="47.39603" lon="-0.88903">
        <ele>61.04</ele>
        <time>2020-07-19T08:26:20Z</time>
      </trkpt>
      <trkpt lat="47.396" lon="-0.88895">
        <ele>62.012</ele>
        <time>2020-07-19T08:26:21Z</time>
      </trkpt>
      <trkpt lat="47.39599" lon="-0.88886">
        <ele>62.089</ele>
        <time>2020-07-19T08:26:22Z</time>
      </trkpt>
      <trkpt lat="47.39598" lon="-0.88878">
        <ele>62.495</ele>
        <time>2020-07-19T08:26:23Z</time>
      </trkpt>
      <trkpt lat="47.39597" lon="-0.88869">
        <ele>63.147</ele>
        <time>2020-07-19T08:26:24Z</time>
      </trkpt>
      <trkpt lat="47.39596" lon="-0.88861">
        <ele>64.359</ele>
        <time>2020-07-19T08:26:25Z</time>
      </trkpt>
      <trkpt lat="47.39595" lon="-0.88853">
        <ele>64.94</ele>
        <time>2020-07-19T08:26:26Z</time>
      </trkpt>
      <trkpt lat="47.39593" lon="-0.88844">
        <ele>65.015</ele>
        <time>2020-07-19T08:26:27Z</time>
      </trkpt>
      <trkpt lat="47.39592" lon="-0.88837">
        <ele>60.547</ele>
        <time>2020-07-19T08:26:28Z</time>
      </trkpt>
      <trkpt lat="47.3959" lon="-0.8883">
        <ele>62.371</ele>
        <time>2020-07-19T08:26:29Z</time>
      </trkpt>
      <trkpt lat="47.39588" lon="-0.88822">
        <ele>63.968</ele>
        <time>2020-07-19T08:26:30Z</time>
      </trkpt>
      <trkpt lat="47.39585" lon="-0.88815">
        <ele>65.174</ele>
        <time>2020-07-19T08:26:31Z</time>
      </trkpt>
      <trkpt lat="47.39583" lon="-0.88806">
        <ele>65.54</ele>
        <time>2020-07-19T08:26:32Z</time>
      </trkpt>
      <trkpt lat="47.3958" lon="-0.88798">
        <ele>65.572</ele>
        <time>2020-07-19T08:26:33Z</time>
      </trkpt>
      <trkpt lat="47.39577" lon="-0.8879">
        <ele>66.114</ele>
        <time>2020-07-19T08:26:34Z</time>
      </trkpt>
      <trkpt lat="47.39575" lon="-0.88781">
        <ele>65.934</ele>
        <time>2020-07-19T08:26:35Z</time>
      </trkpt>
      <trkpt lat="47.39572" lon="-0.88773">
        <ele>65.931</ele>
        <time>2020-07-19T08:26:36Z</time>
      </trkpt>
      <trkpt lat="47.3957" lon="-0.88766">
        <ele>66.347</ele>
        <time>2020-07-19T08:26:37Z</time>
      </trkpt>
      <trkpt lat="47.39567" lon="-0.88759">
        <ele>66.057</ele>
        <time>2020-07-19T08:26:38Z</time>
      </trkpt>
      <trkpt lat="47.39564" lon="-0.88751">
        <ele>66.474</ele>
        <time>2020-07-19T08:26:39Z</time>
      </trkpt>
      <trkpt lat="47.39561" lon="-0.88745">
        <ele>65.924</ele>
        <time>2020-07-19T08:26:40Z</time>
      </trkpt>
      <trkpt lat="47.39559" lon="-0.88739">
        <ele>64.939</ele>
        <time>2020-07-19T08:26:41Z</time>
      </trkpt>
      <trkpt lat="47.39556" lon="-0.88731">
        <ele>64.674</ele>
        <time>2020-07-19T08:26:42Z</time>
      </trkpt>
      <trkpt lat="47.39554" lon="-0.88724">
        <ele>65.784</ele>
        <time>2020-07-19T08:26:43Z</time>
      </trkpt>
      <trkpt lat="47.39552" lon="-0.88716">
        <ele>65.446</ele>
        <time>2020-07-19T08:26:44Z</time>
      </trkpt>
      <trkpt lat="47.39548" lon="-0.88709">
        <ele>65.163</ele>
        <time>2020-07-19T08:26:45Z</time>
      </trkpt>
      <trkpt lat="47.39546" lon="-0.88705">
        <ele>63.166</ele>
        <time>2020-07-19T08:26:46Z</time>
      </trkpt>
      <trkpt lat="47.39543" lon="-0.88697">
        <ele>63.168</ele>
        <time>2020-07-19T08:26:47Z</time>
      </trkpt>
      <trkpt lat="47.39541" lon="-0.8869">
        <ele>63.397</ele>
        <time>2020-07-19T08:26:48Z</time>
      </trkpt>
      <trkpt lat="47.39538" lon="-0.88682">
        <ele>63.463</ele>
        <time>2020-07-19T08:26:49Z</time>
      </trkpt>
      <trkpt lat="47.39535" lon="-0.88673">
        <ele>64.147</ele>
        <time>2020-07-19T08:26:50Z</time>
      </trkpt>
      <trkpt lat="47.39532" lon="-0.88665">
        <ele>64.357</ele>
        <time>2020-07-19T08:26:51Z</time>
      </trkpt>
      <trkpt lat="47.39529" lon="-0.88656">
        <ele>64.433</ele>
        <time>2020-07-19T08:26:52Z</time>
      </trkpt>
      <trkpt lat="47.39526" lon="-0.88649">
        <ele>63.037</ele>
        <time>2020-07-19T08:26:53Z</time>
      </trkpt>
      <trkpt lat="47.39523" lon="-0.8864">
        <ele>63.125</ele>
        <time>2020-07-19T08:26:54Z</time>
      </trkpt>
      <trkpt lat="47.3952" lon="-0.88632">
        <ele>62.794</ele>
        <time>2020-07-19T08:26:55Z</time>
      </trkpt>
      <trkpt lat="47.39517" lon="-0.88626">
        <ele>62.47</ele>
        <time>2020-07-19T08:26:56Z</time>
      </trkpt>
      <trkpt lat="47.39514" lon="-0.88616">
        <ele>63.157</ele>
        <time>2020-07-19T08:26:57Z</time>
      </trkpt>
      <trkpt lat="47.39511" lon="-0.88609">
        <ele>58.495</ele>
        <time>2020-07-19T08:26:58Z</time>
      </trkpt>
      <trkpt lat="47.39508" lon="-0.88601">
        <ele>60.358</ele>
        <time>2020-07-19T08:26:59Z</time>
      </trkpt>
      <trkpt lat="47.39504" lon="-0.88594">
        <ele>60.681</ele>
        <time>2020-07-19T08:27:00Z</time>
      </trkpt>
      <trkpt lat="47.39501" lon="-0.88585">
        <ele>60.913</ele>
        <time>2020-07-19T08:27:01Z</time>
      </trkpt>
      <trkpt lat="47.39498" lon="-0.88579">
        <ele>59.95</ele>
        <time>2020-07-19T08:27:02Z</time>
      </trkpt>
      <trkpt lat="47.39495" lon="-0.8857">
        <ele>60.38</ele>
        <time>2020-07-19T08:27:03Z</time>
      </trkpt>
      <trkpt lat="47.39492" lon="-0.88561">
        <ele>60.983</ele>
        <time>2020-07-19T08:27:04Z</time>
      </trkpt>
      <trkpt lat="47.3949" lon="-0.88552">
        <ele>60.813</ele>
        <time>2020-07-19T08:27:05Z</time>
      </trkpt>
      <trkpt lat="47.39486" lon="-0.88543">
        <ele>61.111</ele>
        <time>2020-07-19T08:27:06Z</time>
      </trkpt>
      <trkpt lat="47.39484" lon="-0.88534">
        <ele>60.677</ele>
        <time>2020-07-19T08:27:07Z</time>
      </trkpt>
      <trkpt lat="47.3948" lon="-0.88524">
        <ele>61.384</ele>
        <time>2020-07-19T08:27:08Z</time>
      </trkpt>
      <trkpt lat="47.39477" lon="-0.88515">
        <ele>60.89</ele>
        <time>2020-07-19T08:27:09Z</time>
      </trkpt>
      <trkpt lat="47.39474" lon="-0.88506">
        <ele>60.77</ele>
        <time>2020-07-19T08:27:10Z</time>
      </trkpt>
      <trkpt lat="47.39471" lon="-0.88499">
        <ele>60.874</ele>
        <time>2020-07-19T08:27:11Z</time>
      </trkpt>
      <trkpt lat="47.39467" lon="-0.88489">
        <ele>61.663</ele>
        <time>2020-07-19T08:27:12Z</time>
      </trkpt>
      <trkpt lat="47.39464" lon="-0.88479">
        <ele>62.429</ele>
        <time>2020-07-19T08:27:13Z</time>
      </trkpt>
      <trkpt lat="47.39462" lon="-0.88472">
        <ele>62.766</ele>
        <time>2020-07-19T08:27:14Z</time>
      </trkpt>
      <trkpt lat="47.3946" lon="-0.88463">
        <ele>62.53</ele>
        <time>2020-07-19T08:27:15Z</time>
      </trkpt>
      <trkpt lat="47.3946" lon="-0.88462">
        <ele>58.253</ele>
        <time>2020-07-19T08:27:16Z</time>
      </trkpt>
      <trkpt lat="47.39457" lon="-0.88453">
        <ele>59.063</ele>
        <time>2020-07-19T08:27:17Z</time>
      </trkpt>
      <trkpt lat="47.39455" lon="-0.88442">
        <ele>59.493</ele>
        <time>2020-07-19T08:27:18Z</time>
      </trkpt>
      <trkpt lat="47.39453" lon="-0.88432">
        <ele>59.621</ele>
        <time>2020-07-19T08:27:19Z</time>
      </trkpt>
      <trkpt lat="47.39453" lon="-0.88421">
        <ele>59.282</ele>
        <time>2020-07-19T08:27:20Z</time>
      </trkpt>
      <trkpt lat="47.3945" lon="-0.88411">
        <ele>59.819</ele>
        <time>2020-07-19T08:27:21Z</time>
      </trkpt>
      <trkpt lat="47.39446" lon="-0.884">
        <ele>60.827</ele>
        <time>2020-07-19T08:27:22Z</time>
      </trkpt>
      <trkpt lat="47.39445" lon="-0.8839">
        <ele>61.578</ele>
        <time>2020-07-19T08:27:23Z</time>
      </trkpt>
      <trkpt lat="47.39445" lon="-0.88379">
        <ele>61.562</ele>
        <time>2020-07-19T08:27:24Z</time>
      </trkpt>
      <trkpt lat="47.39443" lon="-0.8837">
        <ele>61.441</ele>
        <time>2020-07-19T08:27:25Z</time>
      </trkpt>
      <trkpt lat="47.39442" lon="-0.8836">
        <ele>60.871</ele>
        <time>2020-07-19T08:27:26Z</time>
      </trkpt>
      <trkpt lat="47.39443" lon="-0.88349">
        <ele>61.401</ele>
        <time>2020-07-19T08:27:27Z</time>
      </trkpt>
      <trkpt lat="47.39441" lon="-0.8834">
        <ele>60.684</ele>
        <time>2020-07-19T08:27:28Z</time>
      </trkpt>
      <trkpt lat="47.3944" lon="-0.88331">
        <ele>60.344</ele>
        <time>2020-07-19T08:27:29Z</time>
      </trkpt>
      <trkpt lat="47.39436" lon="-0.88321">
        <ele>59.508</ele>
        <time>2020-07-19T08:27:30Z</time>
      </trkpt>
      <trkpt lat="47.39435" lon="-0.88312">
        <ele>59.917</ele>
        <time>2020-07-19T08:27:31Z</time>
      </trkpt>
      <trkpt lat="47.39434" lon="-0.88303">
        <ele>60.45</ele>
        <time>2020-07-19T08:27:32Z</time>
      </trkpt>
      <trkpt lat="47.39433" lon="-0.88293">
        <ele>60.004</ele>
        <time>2020-07-19T08:27:33Z</time>
      </trkpt>
      <trkpt lat="47.39431" lon="-0.88283">
        <ele>59.641</ele>
        <time>2020-07-19T08:27:34Z</time>
      </trkpt>
      <trkpt lat="47.39429" lon="-0.88274">
        <ele>60.482</ele>
        <time>2020-07-19T08:27:35Z</time>
      </trkpt>
      <trkpt lat="47.39428" lon="-0.88264">
        <ele>60.717</ele>
        <time>2020-07-19T08:27:36Z</time>
      </trkpt>
      <trkpt lat="47.3943" lon="-0.88256">
        <ele>58.831</ele>
        <time>2020-07-19T08:27:37Z</time>
      </trkpt>
      <trkpt lat="47.39428" lon="-0.88246">
        <ele>59.773</ele>
        <time>2020-07-19T08:27:38Z</time>
      </trkpt>
      <trkpt lat="47.39428" lon="-0.88237">
        <ele>61.278</ele>
        <time>2020-07-19T08:27:39Z</time>
      </trkpt>
      <trkpt lat="47.39427" lon="-0.88228">
        <ele>62.335</ele>
        <time>2020-07-19T08:27:40Z</time>
      </trkpt>
      <trkpt lat="47.39425" lon="-0.88219">
        <ele>62.448</ele>
        <time>2020-07-19T08:27:41Z</time>
      </trkpt>
      <trkpt lat="47.39423" lon="-0.8821">
        <ele>62.829</ele>
        <time>2020-07-19T08:27:42Z</time>
      </trkpt>
      <trkpt lat="47.39423" lon="-0.882">
        <ele>62.441</ele>
        <time>2020-07-19T08:27:43Z</time>
      </trkpt>
      <trkpt lat="47.39422" lon="-0.88191">
        <ele>62.457</ele>
        <time>2020-07-19T08:27:44Z</time>
      </trkpt>
      <trkpt lat="47.3942" lon="-0.88182">
        <ele>63.754</ele>
        <time>2020-07-19T08:27:45Z</time>
      </trkpt>
      <trkpt lat="47.39418" lon="-0.88172">
        <ele>62.728</ele>
        <time>2020-07-19T08:27:46Z</time>
      </trkpt>
      <trkpt lat="47.39419" lon="-0.88161">
        <ele>62.911</ele>
        <time>2020-07-19T08:27:47Z</time>
      </trkpt>
      <trkpt lat="47.39416" lon="-0.88152">
        <ele>62.144</ele>
        <time>2020-07-19T08:27:48Z</time>
      </trkpt>
      <trkpt lat="47.39412" lon="-0.88144">
        <ele>61.949</ele>
        <time>2020-07-19T08:27:49Z</time>
      </trkpt>
      <trkpt lat="47.39411" lon="-0.88135">
        <ele>62.482</ele>
        <time>2020-07-19T08:27:50Z</time>
      </trkpt>
      <trkpt lat="47.3941" lon="-0.88125">
        <ele>62.583</ele>
        <time>2020-07-19T08:27:51Z</time>
      </trkpt>
      <trkpt lat="47.39408" lon="-0.88115">
        <ele>62.744</ele>
        <time>2020-07-19T08:27:52Z</time>
      </trkpt>
      <trkpt lat="47.39406" lon="-0.88106">
        <ele>63.086</ele>
        <time>2020-07-19T08:27:53Z</time>
      </trkpt>
      <trkpt lat="47.39402" lon="-0.88097">
        <ele>62.326</ele>
        <time>2020-07-19T08:27:54Z</time>
      </trkpt>
      <trkpt lat="47.394" lon="-0.88088">
        <ele>62.01</ele>
        <time>2020-07-19T08:27:55Z</time>
      </trkpt>
      <trkpt lat="47.39398" lon="-0.8808">
        <ele>61.903</ele>
        <time>2020-07-19T08:27:56Z</time>
      </trkpt>
      <trkpt lat="47.39395" lon="-0.88071">
        <ele>62.586</ele>
        <time>2020-07-19T08:27:57Z</time>
      </trkpt>
      <trkpt lat="47.39392" lon="-0.88062">
        <ele>58.854</ele>
        <time>2020-07-19T08:27:58Z</time>
      </trkpt>
      <trkpt lat="47.3939" lon="-0.88053">
        <ele>59.519</ele>
        <time>2020-07-19T08:27:59Z</time>
      </trkpt>
      <trkpt lat="47.39387" lon="-0.88044">
        <ele>60.721</ele>
        <time>2020-07-19T08:28:00Z</time>
      </trkpt>
      <trkpt lat="47.39383" lon="-0.88037">
        <ele>59.607</ele>
        <time>2020-07-19T08:28:01Z</time>
      </trkpt>
      <trkpt lat="47.39382" lon="-0.88026">
        <ele>58.872</ele>
        <time>2020-07-19T08:28:02Z</time>
      </trkpt>
      <trkpt lat="47.3938" lon="-0.88016">
        <ele>59.161</ele>
        <time>2020-07-19T08:28:03Z</time>
      </trkpt>
      <trkpt lat="47.39377" lon="-0.88007">
        <ele>62.295</ele>
        <time>2020-07-19T08:28:04Z</time>
      </trkpt>
      <trkpt lat="47.39375" lon="-0.87998">
        <ele>61.468</ele>
        <time>2020-07-19T08:28:05Z</time>
      </trkpt>
      <trkpt lat="47.39372" lon="-0.87988">
        <ele>61.536</ele>
        <time>2020-07-19T08:28:06Z</time>
      </trkpt>
      <trkpt lat="47.39369" lon="-0.87979">
        <ele>61.838</ele>
        <time>2020-07-19T08:28:07Z</time>
      </trkpt>
      <trkpt lat="47.39366" lon="-0.87969">
        <ele>61.363</ele>
        <time>2020-07-19T08:28:08Z</time>
      </trkpt>
      <trkpt lat="47.39364" lon="-0.87959">
        <ele>62.032</ele>
        <time>2020-07-19T08:28:09Z</time>
      </trkpt>
      <trkpt lat="47.39361" lon="-0.87949">
        <ele>62.976</ele>
        <time>2020-07-19T08:28:10Z</time>
      </trkpt>
      <trkpt lat="47.39359" lon="-0.87939">
        <ele>62.934</ele>
        <time>2020-07-19T08:28:11Z</time>
      </trkpt>
      <trkpt lat="47.39356" lon="-0.87929">
        <ele>62.19</ele>
        <time>2020-07-19T08:28:12Z</time>
      </trkpt>
      <trkpt lat="47.39353" lon="-0.87919">
        <ele>62.199</ele>
        <time>2020-07-19T08:28:13Z</time>
      </trkpt>
      <trkpt lat="47.39351" lon="-0.8791">
        <ele>62.819</ele>
        <time>2020-07-19T08:28:14Z</time>
      </trkpt>
      <trkpt lat="47.39349" lon="-0.879">
        <ele>62.504</ele>
        <time>2020-07-19T08:28:15Z</time>
      </trkpt>
      <trkpt lat="47.39347" lon="-0.87892">
        <ele>62.135</ele>
        <time>2020-07-19T08:28:16Z</time>
      </trkpt>
      <trkpt lat="47.39344" lon="-0.87882">
        <ele>62.73</ele>
        <time>2020-07-19T08:28:17Z</time>
      </trkpt>
      <trkpt lat="47.39341" lon="-0.87872">
        <ele>61.936</ele>
        <time>2020-07-19T08:28:18Z</time>
      </trkpt>
      <trkpt lat="47.3934" lon="-0.87865">
        <ele>60.407</ele>
        <time>2020-07-19T08:28:19Z</time>
      </trkpt>
      <trkpt lat="47.39337" lon="-0.87855">
        <ele>60.926</ele>
        <time>2020-07-19T08:28:20Z</time>
      </trkpt>
      <trkpt lat="47.39334" lon="-0.87846">
        <ele>61.179</ele>
        <time>2020-07-19T08:28:21Z</time>
      </trkpt>
      <trkpt lat="47.39331" lon="-0.87837">
        <ele>60.259</ele>
        <time>2020-07-19T08:28:22Z</time>
      </trkpt>
      <trkpt lat="47.39329" lon="-0.87827">
        <ele>60.374</ele>
        <time>2020-07-19T08:28:23Z</time>
      </trkpt>
      <trkpt lat="47.39326" lon="-0.87818">
        <ele>60.102</ele>
        <time>2020-07-19T08:28:24Z</time>
      </trkpt>
      <trkpt lat="47.39324" lon="-0.87807">
        <ele>60.416</ele>
        <time>2020-07-19T08:28:25Z</time>
      </trkpt>
      <trkpt lat="47.39321" lon="-0.87798">
        <ele>63.614</ele>
        <time>2020-07-19T08:28:26Z</time>
      </trkpt>
      <trkpt lat="47.39318" lon="-0.87787">
        <ele>63.35</ele>
        <time>2020-07-19T08:28:27Z</time>
      </trkpt>
      <trkpt lat="47.39316" lon="-0.87778">
        <ele>62.919</ele>
        <time>2020-07-19T08:28:28Z</time>
      </trkpt>
      <trkpt lat="47.39315" lon="-0.87771">
        <ele>61.152</ele>
        <time>2020-07-19T08:28:29Z</time>
      </trkpt>
      <trkpt lat="47.39313" lon="-0.87761">
        <ele>60.491</ele>
        <time>2020-07-19T08:28:30Z</time>
      </trkpt>
      <trkpt lat="47.3931" lon="-0.87752">
        <ele>60.884</ele>
        <time>2020-07-19T08:28:31Z</time>
      </trkpt>
      <trkpt lat="47.39308" lon="-0.87743">
        <ele>59.393</ele>
        <time>2020-07-19T08:28:32Z</time>
      </trkpt>
      <trkpt lat="47.39305" lon="-0.87734">
        <ele>59.22</ele>
        <time>2020-07-19T08:28:33Z</time>
      </trkpt>
      <trkpt lat="47.39303" lon="-0.87724">
        <ele>58.328</ele>
        <time>2020-07-19T08:28:34Z</time>
      </trkpt>
      <trkpt lat="47.393" lon="-0.87715">
        <ele>58.211</ele>
        <time>2020-07-19T08:28:35Z</time>
      </trkpt>
      <trkpt lat="47.39298" lon="-0.87706">
        <ele>57.382</ele>
        <time>2020-07-19T08:28:36Z</time>
      </trkpt>
      <trkpt lat="47.39294" lon="-0.87698">
        <ele>57.969</ele>
        <time>2020-07-19T08:28:37Z</time>
      </trkpt>
      <trkpt lat="47.39291" lon="-0.87689">
        <ele>58.216</ele>
        <time>2020-07-19T08:28:38Z</time>
      </trkpt>
      <trkpt lat="47.39288" lon="-0.8768">
        <ele>57.849</ele>
        <time>2020-07-19T08:28:39Z</time>
      </trkpt>
      <trkpt lat="47.39285" lon="-0.87671">
        <ele>58.869</ele>
        <time>2020-07-19T08:28:40Z</time>
      </trkpt>
      <trkpt lat="47.39283" lon="-0.87662">
        <ele>58.318</ele>
        <time>2020-07-19T08:28:41Z</time>
      </trkpt>
      <trkpt lat="47.39281" lon="-0.87652">
        <ele>57.749</ele>
        <time>2020-07-19T08:28:42Z</time>
      </trkpt>
      <trkpt lat="47.39279" lon="-0.87642">
        <ele>58.764</ele>
        <time>2020-07-19T08:28:43Z</time>
      </trkpt>
      <trkpt lat="47.39276" lon="-0.87633">
        <ele>59.529</ele>
        <time>2020-07-19T08:28:44Z</time>
      </trkpt>
      <trkpt lat="47.39273" lon="-0.87623">
        <ele>59.612</ele>
        <time>2020-07-19T08:28:45Z</time>
      </trkpt>
      <trkpt lat="47.39271" lon="-0.87614">
        <ele>59.982</ele>
        <time>2020-07-19T08:28:46Z</time>
      </trkpt>
      <trkpt lat="47.39268" lon="-0.87604">
        <ele>60.385</ele>
        <time>2020-07-19T08:28:47Z</time>
      </trkpt>
      <trkpt lat="47.39266" lon="-0.87595">
        <ele>60.098</ele>
        <time>2020-07-19T08:28:48Z</time>
      </trkpt>
      <trkpt lat="47.39265" lon="-0.87585">
        <ele>60.028</ele>
        <time>2020-07-19T08:28:49Z</time>
      </trkpt>
      <trkpt lat="47.39263" lon="-0.87577">
        <ele>59.569</ele>
        <time>2020-07-19T08:28:50Z</time>
      </trkpt>
      <trkpt lat="47.39261" lon="-0.87567">
        <ele>59.288</ele>
        <time>2020-07-19T08:28:51Z</time>
      </trkpt>
      <trkpt lat="47.39259" lon="-0.87558">
        <ele>59.535</ele>
        <time>2020-07-19T08:28:52Z</time>
      </trkpt>
      <trkpt lat="47.39256" lon="-0.87548">
        <ele>59.352</ele>
        <time>2020-07-19T08:28:53Z</time>
      </trkpt>
      <trkpt lat="47.39253" lon="-0.87539">
        <ele>60.3</ele>
        <time>2020-07-19T08:28:54Z</time>
      </trkpt>
      <trkpt lat="47.39251" lon="-0.87531">
        <ele>59.298</ele>
        <time>2020-07-19T08:28:55Z</time>
      </trkpt>
      <trkpt lat="47.39248" lon="-0.87522">
        <ele>59.558</ele>
        <time>2020-07-19T08:28:56Z</time>
      </trkpt>
      <trkpt lat="47.39246" lon="-0.87513">
        <ele>60.394</ele>
        <time>2020-07-19T08:28:57Z</time>
      </trkpt>
      <trkpt lat="47.39244" lon="-0.87504">
        <ele>60.858</ele>
        <time>2020-07-19T08:28:58Z</time>
      </trkpt>
      <trkpt lat="47.39241" lon="-0.87494">
        <ele>60.683</ele>
        <time>2020-07-19T08:28:59Z</time>
      </trkpt>
      <trkpt lat="47.39239" lon="-0.87484">
        <ele>61.37</ele>
        <time>2020-07-19T08:29:00Z</time>
      </trkpt>
      <trkpt lat="47.39239" lon="-0.87474">
        <ele>63.29</ele>
        <time>2020-07-19T08:29:01Z</time>
      </trkpt>
      <trkpt lat="47.39237" lon="-0.87464">
        <ele>63.387</ele>
        <time>2020-07-19T08:29:02Z</time>
      </trkpt>
      <trkpt lat="47.39236" lon="-0.87455">
        <ele>64.207</ele>
        <time>2020-07-19T08:29:03Z</time>
      </trkpt>
      <trkpt lat="47.39235" lon="-0.87446">
        <ele>64.162</ele>
        <time>2020-07-19T08:29:04Z</time>
      </trkpt>
      <trkpt lat="47.39235" lon="-0.87436">
        <ele>64.695</ele>
        <time>2020-07-19T08:29:05Z</time>
      </trkpt>
      <trkpt lat="47.39234" lon="-0.87426">
        <ele>65.447</ele>
        <time>2020-07-19T08:29:06Z</time>
      </trkpt>
      <trkpt lat="47.39233" lon="-0.87417">
        <ele>64.863</ele>
        <time>2020-07-19T08:29:07Z</time>
      </trkpt>
      <trkpt lat="47.39232" lon="-0.87407">
        <ele>64.326</ele>
        <time>2020-07-19T08:29:08Z</time>
      </trkpt>
      <trkpt lat="47.39232" lon="-0.87398">
        <ele>65.56</ele>
        <time>2020-07-19T08:29:09Z</time>
      </trkpt>
      <trkpt lat="47.39231" lon="-0.87388">
        <ele>64.898</ele>
        <time>2020-07-19T08:29:10Z</time>
      </trkpt>
      <trkpt lat="47.3923" lon="-0.87377">
        <ele>64.506</ele>
        <time>2020-07-19T08:29:11Z</time>
      </trkpt>
      <trkpt lat="47.3923" lon="-0.87367">
        <ele>64.898</ele>
        <time>2020-07-19T08:29:12Z</time>
      </trkpt>
      <trkpt lat="47.3923" lon="-0.87357">
        <ele>64.931</ele>
        <time>2020-07-19T08:29:13Z</time>
      </trkpt>
      <trkpt lat="47.39229" lon="-0.87348">
        <ele>64.286</ele>
        <time>2020-07-19T08:29:14Z</time>
      </trkpt>
      <trkpt lat="47.39228" lon="-0.87338">
        <ele>63.698</ele>
        <time>2020-07-19T08:29:15Z</time>
      </trkpt>
      <trkpt lat="47.39228" lon="-0.87328">
        <ele>65.13</ele>
        <time>2020-07-19T08:29:16Z</time>
      </trkpt>
      <trkpt lat="47.39227" lon="-0.87317">
        <ele>65.049</ele>
        <time>2020-07-19T08:29:17Z</time>
      </trkpt>
      <trkpt lat="47.39227" lon="-0.87308">
        <ele>64.874</ele>
        <time>2020-07-19T08:29:18Z</time>
      </trkpt>
      <trkpt lat="47.39227" lon="-0.87298">
        <ele>64.869</ele>
        <time>2020-07-19T08:29:19Z</time>
      </trkpt>
      <trkpt lat="47.39227" lon="-0.87289">
        <ele>65.457</ele>
        <time>2020-07-19T08:29:20Z</time>
      </trkpt>
      <trkpt lat="47.39227" lon="-0.87279">
        <ele>65.797</ele>
        <time>2020-07-19T08:29:21Z</time>
      </trkpt>
      <trkpt lat="47.39227" lon="-0.87269">
        <ele>65.075</ele>
        <time>2020-07-19T08:29:22Z</time>
      </trkpt>
      <trkpt lat="47.39227" lon="-0.87259">
        <ele>64.065</ele>
        <time>2020-07-19T08:29:23Z</time>
      </trkpt>
      <trkpt lat="47.39226" lon="-0.8725">
        <ele>65.235</ele>
        <time>2020-07-19T08:29:24Z</time>
      </trkpt>
      <trkpt lat="47.39226" lon="-0.8724">
        <ele>65.712</ele>
        <time>2020-07-19T08:29:25Z</time>
      </trkpt>
      <trkpt lat="47.39225" lon="-0.87231">
        <ele>64.965</ele>
        <time>2020-07-19T08:29:26Z</time>
      </trkpt>
      <trkpt lat="47.39226" lon="-0.87222">
        <ele>63.754</ele>
        <time>2020-07-19T08:29:27Z</time>
      </trkpt>
      <trkpt lat="47.39226" lon="-0.87212">
        <ele>64.527</ele>
        <time>2020-07-19T08:29:28Z</time>
      </trkpt>
      <trkpt lat="47.39225" lon="-0.87202">
        <ele>64.493</ele>
        <time>2020-07-19T08:29:29Z</time>
      </trkpt>
      <trkpt lat="47.39225" lon="-0.87192">
        <ele>64.416</ele>
        <time>2020-07-19T08:29:30Z</time>
      </trkpt>
      <trkpt lat="47.39224" lon="-0.87182">
        <ele>64.664</ele>
        <time>2020-07-19T08:29:31Z</time>
      </trkpt>
      <trkpt lat="47.39223" lon="-0.87172">
        <ele>61.211</ele>
        <time>2020-07-19T08:29:32Z</time>
      </trkpt>
      <trkpt lat="47.39223" lon="-0.87163">
        <ele>63.588</ele>
        <time>2020-07-19T08:29:33Z</time>
      </trkpt>
      <trkpt lat="47.39222" lon="-0.87153">
        <ele>66.097</ele>
        <time>2020-07-19T08:29:34Z</time>
      </trkpt>
      <trkpt lat="47.39221" lon="-0.87143">
        <ele>67.864</ele>
        <time>2020-07-19T08:29:35Z</time>
      </trkpt>
      <trkpt lat="47.3922" lon="-0.87132">
        <ele>66.569</ele>
        <time>2020-07-19T08:29:36Z</time>
      </trkpt>
      <trkpt lat="47.39221" lon="-0.87122">
        <ele>67.604</ele>
        <time>2020-07-19T08:29:37Z</time>
      </trkpt>
      <trkpt lat="47.39223" lon="-0.87112">
        <ele>67.983</ele>
        <time>2020-07-19T08:29:38Z</time>
      </trkpt>
      <trkpt lat="47.39223" lon="-0.87102">
        <ele>61.582</ele>
        <time>2020-07-19T08:29:39Z</time>
      </trkpt>
      <trkpt lat="47.39223" lon="-0.87092">
        <ele>64.381</ele>
        <time>2020-07-19T08:29:40Z</time>
      </trkpt>
      <trkpt lat="47.39223" lon="-0.87081">
        <ele>65.687</ele>
        <time>2020-07-19T08:29:41Z</time>
      </trkpt>
      <trkpt lat="47.39222" lon="-0.87073">
        <ele>66.568</ele>
        <time>2020-07-19T08:29:42Z</time>
      </trkpt>
      <trkpt lat="47.39221" lon="-0.87062">
        <ele>65.536</ele>
        <time>2020-07-19T08:29:43Z</time>
      </trkpt>
      <trkpt lat="47.39219" lon="-0.87053">
        <ele>66.408</ele>
        <time>2020-07-19T08:29:44Z</time>
      </trkpt>
      <trkpt lat="47.39221" lon="-0.87043">
        <ele>65.404</ele>
        <time>2020-07-19T08:29:45Z</time>
      </trkpt>
      <trkpt lat="47.3922" lon="-0.87034">
        <ele>64.648</ele>
        <time>2020-07-19T08:29:46Z</time>
      </trkpt>
      <trkpt lat="47.3922" lon="-0.87023">
        <ele>64.563</ele>
        <time>2020-07-19T08:29:47Z</time>
      </trkpt>
      <trkpt lat="47.3922" lon="-0.87014">
        <ele>64.306</ele>
        <time>2020-07-19T08:29:48Z</time>
      </trkpt>
      <trkpt lat="47.39221" lon="-0.87005">
        <ele>64.715</ele>
        <time>2020-07-19T08:29:49Z</time>
      </trkpt>
      <trkpt lat="47.39219" lon="-0.86997">
        <ele>64.419</ele>
        <time>2020-07-19T08:29:50Z</time>
      </trkpt>
      <trkpt lat="47.39219" lon="-0.86987">
        <ele>64.523</ele>
        <time>2020-07-19T08:29:51Z</time>
      </trkpt>
      <trkpt lat="47.39217" lon="-0.86978">
        <ele>64.055</ele>
        <time>2020-07-19T08:29:52Z</time>
      </trkpt>
      <trkpt lat="47.39217" lon="-0.86969">
        <ele>64.466</ele>
        <time>2020-07-19T08:29:53Z</time>
      </trkpt>
      <trkpt lat="47.39217" lon="-0.8696">
        <ele>63.388</ele>
        <time>2020-07-19T08:29:54Z</time>
      </trkpt>
      <trkpt lat="47.39216" lon="-0.86951">
        <ele>63.499</ele>
        <time>2020-07-19T08:29:55Z</time>
      </trkpt>
      <trkpt lat="47.39216" lon="-0.86941">
        <ele>62.824</ele>
        <time>2020-07-19T08:29:56Z</time>
      </trkpt>
      <trkpt lat="47.39215" lon="-0.86932">
        <ele>63.946</ele>
        <time>2020-07-19T08:29:57Z</time>
      </trkpt>
      <trkpt lat="47.39215" lon="-0.86923">
        <ele>63.544</ele>
        <time>2020-07-19T08:29:58Z</time>
      </trkpt>
      <trkpt lat="47.39214" lon="-0.86914">
        <ele>64.229</ele>
        <time>2020-07-19T08:29:59Z</time>
      </trkpt>
      <trkpt lat="47.39214" lon="-0.86904">
        <ele>63.638</ele>
        <time>2020-07-19T08:30:00Z</time>
      </trkpt>
      <trkpt lat="47.39214" lon="-0.86894">
        <ele>63.137</ele>
        <time>2020-07-19T08:30:01Z</time>
      </trkpt>
      <trkpt lat="47.39214" lon="-0.86885">
        <ele>63.788</ele>
        <time>2020-07-19T08:30:02Z</time>
      </trkpt>
      <trkpt lat="47.39214" lon="-0.86875">
        <ele>64.162</ele>
        <time>2020-07-19T08:30:03Z</time>
      </trkpt>
      <trkpt lat="47.39215" lon="-0.86865">
        <ele>64.704</ele>
        <time>2020-07-19T08:30:04Z</time>
      </trkpt>
      <trkpt lat="47.39215" lon="-0.86855">
        <ele>65.231</ele>
        <time>2020-07-19T08:30:05Z</time>
      </trkpt>
      <trkpt lat="47.39215" lon="-0.86846">
        <ele>65.805</ele>
        <time>2020-07-19T08:30:06Z</time>
      </trkpt>
      <trkpt lat="47.39215" lon="-0.86836">
        <ele>65.756</ele>
        <time>2020-07-19T08:30:07Z</time>
      </trkpt>
      <trkpt lat="47.39214" lon="-0.86827">
        <ele>65.139</ele>
        <time>2020-07-19T08:30:08Z</time>
      </trkpt>
      <trkpt lat="47.39213" lon="-0.86817">
        <ele>64.797</ele>
        <time>2020-07-19T08:30:09Z</time>
      </trkpt>
      <trkpt lat="47.39213" lon="-0.86809">
        <ele>64.831</ele>
        <time>2020-07-19T08:30:10Z</time>
      </trkpt>
      <trkpt lat="47.39212" lon="-0.86799">
        <ele>65.464</ele>
        <time>2020-07-19T08:30:11Z</time>
      </trkpt>
      <trkpt lat="47.39212" lon="-0.8679">
        <ele>65.567</ele>
        <time>2020-07-19T08:30:12Z</time>
      </trkpt>
      <trkpt lat="47.39212" lon="-0.8678">
        <ele>64.99</ele>
        <time>2020-07-19T08:30:13Z</time>
      </trkpt>
      <trkpt lat="47.39211" lon="-0.86771">
        <ele>64.877</ele>
        <time>2020-07-19T08:30:14Z</time>
      </trkpt>
      <trkpt lat="47.39211" lon="-0.86763">
        <ele>64.305</ele>
        <time>2020-07-19T08:30:15Z</time>
      </trkpt>
      <trkpt lat="47.3921" lon="-0.86754">
        <ele>63.188</ele>
        <time>2020-07-19T08:30:16Z</time>
      </trkpt>
      <trkpt lat="47.39209" lon="-0.86745">
        <ele>64.605</ele>
        <time>2020-07-19T08:30:17Z</time>
      </trkpt>
      <trkpt lat="47.39209" lon="-0.86736">
        <ele>65.362</ele>
        <time>2020-07-19T08:30:18Z</time>
      </trkpt>
      <trkpt lat="47.39209" lon="-0.86725">
        <ele>65.222</ele>
        <time>2020-07-19T08:30:19Z</time>
      </trkpt>
      <trkpt lat="47.3921" lon="-0.86716">
        <ele>65.115</ele>
        <time>2020-07-19T08:30:20Z</time>
      </trkpt>
      <trkpt lat="47.3921" lon="-0.86706">
        <ele>65.621</ele>
        <time>2020-07-19T08:30:21Z</time>
      </trkpt>
      <trkpt lat="47.3921" lon="-0.86696">
        <ele>65.681</ele>
        <time>2020-07-19T08:30:22Z</time>
      </trkpt>
      <trkpt lat="47.39208" lon="-0.86686">
        <ele>64.083</ele>
        <time>2020-07-19T08:30:23Z</time>
      </trkpt>
      <trkpt lat="47.39208" lon="-0.86677">
        <ele>63.773</ele>
        <time>2020-07-19T08:30:24Z</time>
      </trkpt>
      <trkpt lat="47.39207" lon="-0.86669">
        <ele>61.989</ele>
        <time>2020-07-19T08:30:25Z</time>
      </trkpt>
      <trkpt lat="47.39207" lon="-0.8666">
        <ele>63.121</ele>
        <time>2020-07-19T08:30:26Z</time>
      </trkpt>
      <trkpt lat="47.39208" lon="-0.8665">
        <ele>63.444</ele>
        <time>2020-07-19T08:30:27Z</time>
      </trkpt>
      <trkpt lat="47.39209" lon="-0.8664">
        <ele>63.999</ele>
        <time>2020-07-19T08:30:28Z</time>
      </trkpt>
      <trkpt lat="47.3921" lon="-0.86629">
        <ele>64.101</ele>
        <time>2020-07-19T08:30:29Z</time>
      </trkpt>
      <trkpt lat="47.3921" lon="-0.86619">
        <ele>64.278</ele>
        <time>2020-07-19T08:30:30Z</time>
      </trkpt>
      <trkpt lat="47.3921" lon="-0.86609">
        <ele>63.514</ele>
        <time>2020-07-19T08:30:31Z</time>
      </trkpt>
      <trkpt lat="47.3921" lon="-0.866">
        <ele>63.951</ele>
        <time>2020-07-19T08:30:32Z</time>
      </trkpt>
      <trkpt lat="47.39211" lon="-0.8659">
        <ele>64.49</ele>
        <time>2020-07-19T08:30:33Z</time>
      </trkpt>
      <trkpt lat="47.39212" lon="-0.86582">
        <ele>63.776</ele>
        <time>2020-07-19T08:30:34Z</time>
      </trkpt>
      <trkpt lat="47.39213" lon="-0.86573">
        <ele>63.254</ele>
        <time>2020-07-19T08:30:35Z</time>
      </trkpt>
      <trkpt lat="47.39213" lon="-0.86564">
        <ele>63.638</ele>
        <time>2020-07-19T08:30:36Z</time>
      </trkpt>
      <trkpt lat="47.39212" lon="-0.86554">
        <ele>64.255</ele>
        <time>2020-07-19T08:30:37Z</time>
      </trkpt>
      <trkpt lat="47.39213" lon="-0.86544">
        <ele>63.44</ele>
        <time>2020-07-19T08:30:38Z</time>
      </trkpt>
      <trkpt lat="47.39214" lon="-0.86535">
        <ele>64.81</ele>
        <time>2020-07-19T08:30:39Z</time>
      </trkpt>
      <trkpt lat="47.39215" lon="-0.86525">
        <ele>64.611</ele>
        <time>2020-07-19T08:30:40Z</time>
      </trkpt>
      <trkpt lat="47.39215" lon="-0.86516">
        <ele>64.336</ele>
        <time>2020-07-19T08:30:41Z</time>
      </trkpt>
      <trkpt lat="47.39215" lon="-0.86508">
        <ele>63.316</ele>
        <time>2020-07-19T08:30:42Z</time>
      </trkpt>
      <trkpt lat="47.39216" lon="-0.86499">
        <ele>63.448</ele>
        <time>2020-07-19T08:30:43Z</time>
      </trkpt>
      <trkpt lat="47.39217" lon="-0.86489">
        <ele>60.205</ele>
        <time>2020-07-19T08:30:44Z</time>
      </trkpt>
      <trkpt lat="47.39217" lon="-0.86479">
        <ele>61.682</ele>
        <time>2020-07-19T08:30:45Z</time>
      </trkpt>
      <trkpt lat="47.39218" lon="-0.8647">
        <ele>62.437</ele>
        <time>2020-07-19T08:30:46Z</time>
      </trkpt>
      <trkpt lat="47.39218" lon="-0.86461">
        <ele>62.388</ele>
        <time>2020-07-19T08:30:47Z</time>
      </trkpt>
      <trkpt lat="47.39218" lon="-0.86453">
        <ele>61.61</ele>
        <time>2020-07-19T08:30:48Z</time>
      </trkpt>
      <trkpt lat="47.39219" lon="-0.86443">
        <ele>61.317</ele>
        <time>2020-07-19T08:30:49Z</time>
      </trkpt>
      <trkpt lat="47.39221" lon="-0.86435">
        <ele>61.413</ele>
        <time>2020-07-19T08:30:50Z</time>
      </trkpt>
      <trkpt lat="47.39221" lon="-0.86425">
        <ele>61.001</ele>
        <time>2020-07-19T08:30:51Z</time>
      </trkpt>
      <trkpt lat="47.39219" lon="-0.86417">
        <ele>59.818</ele>
        <time>2020-07-19T08:30:52Z</time>
      </trkpt>
      <trkpt lat="47.39219" lon="-0.86409">
        <ele>59.299</ele>
        <time>2020-07-19T08:30:53Z</time>
      </trkpt>
      <trkpt lat="47.3922" lon="-0.864">
        <ele>59.742</ele>
        <time>2020-07-19T08:30:54Z</time>
      </trkpt>
      <trkpt lat="47.3922" lon="-0.86392">
        <ele>60.26</ele>
        <time>2020-07-19T08:30:55Z</time>
      </trkpt>
      <trkpt lat="47.39221" lon="-0.86385">
        <ele>61.053</ele>
        <time>2020-07-19T08:30:56Z</time>
      </trkpt>
      <trkpt lat="47.39222" lon="-0.86377">
        <ele>62.252</ele>
        <time>2020-07-19T08:30:57Z</time>
      </trkpt>
      <trkpt lat="47.39223" lon="-0.8637">
        <ele>62.991</ele>
        <time>2020-07-19T08:30:58Z</time>
      </trkpt>
      <trkpt lat="47.39223" lon="-0.86364">
        <ele>62.711</ele>
        <time>2020-07-19T08:30:59Z</time>
      </trkpt>
      <trkpt lat="47.39222" lon="-0.86356">
        <ele>61.683</ele>
        <time>2020-07-19T08:31:00Z</time>
      </trkpt>
      <trkpt lat="47.39222" lon="-0.86348">
        <ele>61.637</ele>
        <time>2020-07-19T08:31:01Z</time>
      </trkpt>
      <trkpt lat="47.39224" lon="-0.8634">
        <ele>61.348</ele>
        <time>2020-07-19T08:31:02Z</time>
      </trkpt>
      <trkpt lat="47.39221" lon="-0.86334">
        <ele>62.225</ele>
        <time>2020-07-19T08:31:03Z</time>
      </trkpt>
      <trkpt lat="47.39222" lon="-0.86324">
        <ele>61.218</ele>
        <time>2020-07-19T08:31:04Z</time>
      </trkpt>
      <trkpt lat="47.39221" lon="-0.86316">
        <ele>61.906</ele>
        <time>2020-07-19T08:31:05Z</time>
      </trkpt>
      <trkpt lat="47.39223" lon="-0.86309">
        <ele>63.657</ele>
        <time>2020-07-19T08:31:06Z</time>
      </trkpt>
      <trkpt lat="47.39225" lon="-0.86301">
        <ele>63.778</ele>
        <time>2020-07-19T08:31:07Z</time>
      </trkpt>
      <trkpt lat="47.39226" lon="-0.86293">
        <ele>62.692</ele>
        <time>2020-07-19T08:31:08Z</time>
      </trkpt>
      <trkpt lat="47.39229" lon="-0.86285">
        <ele>61.499</ele>
        <time>2020-07-19T08:31:09Z</time>
      </trkpt>
      <trkpt lat="47.39229" lon="-0.86278">
        <ele>64.608</ele>
        <time>2020-07-19T08:31:10Z</time>
      </trkpt>
      <trkpt lat="47.39229" lon="-0.8627">
        <ele>66.397</ele>
        <time>2020-07-19T08:31:11Z</time>
      </trkpt>
      <trkpt lat="47.3923" lon="-0.86263">
        <ele>66.482</ele>
        <time>2020-07-19T08:31:12Z</time>
      </trkpt>
      <trkpt lat="47.3923" lon="-0.86256">
        <ele>66.979</ele>
        <time>2020-07-19T08:31:13Z</time>
      </trkpt>
      <trkpt lat="47.3923" lon="-0.86248">
        <ele>68.357</ele>
        <time>2020-07-19T08:31:14Z</time>
      </trkpt>
      <trkpt lat="47.3923" lon="-0.86241">
        <ele>66.952</ele>
        <time>2020-07-19T08:31:15Z</time>
      </trkpt>
      <trkpt lat="47.39229" lon="-0.86234">
        <ele>66.355</ele>
        <time>2020-07-19T08:31:16Z</time>
      </trkpt>
      <trkpt lat="47.3923" lon="-0.86227">
        <ele>64.305</ele>
        <time>2020-07-19T08:31:17Z</time>
      </trkpt>
      <trkpt lat="47.39228" lon="-0.86219">
        <ele>64.999</ele>
        <time>2020-07-19T08:31:18Z</time>
      </trkpt>
      <trkpt lat="47.39227" lon="-0.86212">
        <ele>65.654</ele>
        <time>2020-07-19T08:31:19Z</time>
      </trkpt>
      <trkpt lat="47.39227" lon="-0.86203">
        <ele>66.628</ele>
        <time>2020-07-19T08:31:20Z</time>
      </trkpt>
      <trkpt lat="47.39224" lon="-0.86195">
        <ele>66.167</ele>
        <time>2020-07-19T08:31:21Z</time>
      </trkpt>
      <trkpt lat="47.39222" lon="-0.86188">
        <ele>66.554</ele>
        <time>2020-07-19T08:31:22Z</time>
      </trkpt>
      <trkpt lat="47.3922" lon="-0.86183">
        <ele>66.528</ele>
        <time>2020-07-19T08:31:23Z</time>
      </trkpt>
      <trkpt lat="47.39217" lon="-0.86177">
        <ele>65.686</ele>
        <time>2020-07-19T08:31:24Z</time>
      </trkpt>
      <trkpt lat="47.39214" lon="-0.8617">
        <ele>65.872</ele>
        <time>2020-07-19T08:31:25Z</time>
      </trkpt>
      <trkpt lat="47.39213" lon="-0.86164">
        <ele>66.819</ele>
        <time>2020-07-19T08:31:26Z</time>
      </trkpt>
      <trkpt lat="47.39212" lon="-0.86158">
        <ele>67.719</ele>
        <time>2020-07-19T08:31:27Z</time>
      </trkpt>
      <trkpt lat="47.39209" lon="-0.86154">
        <ele>67.955</ele>
        <time>2020-07-19T08:31:28Z</time>
      </trkpt>
      <trkpt lat="47.39207" lon="-0.86148">
        <ele>68.965</ele>
        <time>2020-07-19T08:31:29Z</time>
      </trkpt>
      <trkpt lat="47.39205" lon="-0.86142">
        <ele>69.134</ele>
        <time>2020-07-19T08:31:30Z</time>
      </trkpt>
      <trkpt lat="47.39203" lon="-0.86136">
        <ele>69.327</ele>
        <time>2020-07-19T08:31:31Z</time>
      </trkpt>
      <trkpt lat="47.39201" lon="-0.8613">
        <ele>69.383</ele>
        <time>2020-07-19T08:31:32Z</time>
      </trkpt>
      <trkpt lat="47.392" lon="-0.86125">
        <ele>69.047</ele>
        <time>2020-07-19T08:31:33Z</time>
      </trkpt>
      <trkpt lat="47.39199" lon="-0.86122">
        <ele>69.916</ele>
        <time>2020-07-19T08:31:34Z</time>
      </trkpt>
      <trkpt lat="47.39198" lon="-0.86118">
        <ele>70.365</ele>
        <time>2020-07-19T08:31:35Z</time>
      </trkpt>
      <trkpt lat="47.39198" lon="-0.86117">
        <ele>71.654</ele>
        <time>2020-07-19T08:31:36Z</time>
      </trkpt>
      <trkpt lat="47.39199" lon="-0.86117">
        <ele>71.913</ele>
        <time>2020-07-19T08:31:37Z</time>
      </trkpt>
      <trkpt lat="47.39199" lon="-0.86118">
        <ele>71.508</ele>
        <time>2020-07-19T08:31:38Z</time>
      </trkpt>
      <trkpt lat="47.39199" lon="-0.86118">
        <ele>69.747</ele>
        <time>2020-07-19T08:31:39Z</time>
      </trkpt>
      <trkpt lat="47.39199" lon="-0.86118">
        <ele>70.141</ele>
        <time>2020-07-19T08:31:40Z</time>
      </trkpt>
      <trkpt lat="47.39199" lon="-0.86118">
        <ele>70.78</ele>
        <time>2020-07-19T08:31:41Z</time>
      </trkpt>
      <trkpt lat="47.39199" lon="-0.86118">
        <ele>71.389</ele>
        <time>2020-07-19T08:31:42Z</time>
      </trkpt>
      <trkpt lat="47.39199" lon="-0.86118">
        <ele>71.318</ele>
        <time>2020-07-19T08:31:43Z</time>
      </trkpt>
      <trkpt lat="47.39199" lon="-0.86119">
        <ele>71.814</ele>
        <time>2020-07-19T08:31:44Z</time>
      </trkpt>
      <trkpt lat="47.39199" lon="-0.86119">
        <ele>72.308</ele>
        <time>2020-07-19T08:31:45Z</time>
      </trkpt>
      <trkpt lat="47.39199" lon="-0.86119">
        <ele>72.154</ele>
        <time>2020-07-19T08:31:46Z</time>
      </trkpt>
      <trkpt lat="47.39198" lon="-0.8612">
        <ele>72.089</ele>
        <time>2020-07-19T08:31:47Z</time>
      </trkpt>
      <trkpt lat="47.39198" lon="-0.8612">
        <ele>72.051</ele>
        <time>2020-07-19T08:31:48Z</time>
      </trkpt>
      <trkpt lat="47.39198" lon="-0.8612">
        <ele>72.108</ele>
        <time>2020-07-19T08:31:49Z</time>
      </trkpt>
      <trkpt lat="47.39198" lon="-0.8612">
        <ele>72.145</ele>
        <time>2020-07-19T08:31:50Z</time>
      </trkpt>
      <trkpt lat="47.39198" lon="-0.8612">
        <ele>72.209</ele>
        <time>2020-07-19T08:31:51Z</time>
      </trkpt>
      <trkpt lat="47.39198" lon="-0.86119">
        <ele>72.243</ele>
        <time>2020-07-19T08:31:52Z</time>
      </trkpt>
      <trkpt lat="47.39198" lon="-0.86119">
        <ele>72.831</ele>
        <time>2020-07-19T08:31:53Z</time>
      </trkpt>
      <trkpt lat="47.39198" lon="-0.86118">
        <ele>72.969</ele>
        <time>2020-07-19T08:31:54Z</time>
      </trkpt>
      <trkpt lat="47.39198" lon="-0.86117">
        <ele>73.389</ele>
        <time>2020-07-19T08:31:55Z</time>
      </trkpt>
      <trkpt lat="47.39198" lon="-0.86117">
        <ele>73.524</ele>
        <time>2020-07-19T08:31:56Z</time>
      </trkpt>
      <trkpt lat="47.39198" lon="-0.86117">
        <ele>73.09</ele>
        <time>2020-07-19T08:31:57Z</time>
      </trkpt>
      <trkpt lat="47.39198" lon="-0.86117">
        <ele>69.103</ele>
        <time>2020-07-19T08:31:58Z</time>
      </trkpt>
      <trkpt lat="47.39198" lon="-0.86117">
        <ele>70.612</ele>
        <time>2020-07-19T08:31:59Z</time>
      </trkpt>
      <trkpt lat="47.39198" lon="-0.86117">
        <ele>71.785</ele>
        <time>2020-07-19T08:32:00Z</time>
      </trkpt>
      <trkpt lat="47.39197" lon="-0.86117">
        <ele>72.568</ele>
        <time>2020-07-19T08:32:01Z</time>
      </trkpt>
      <trkpt lat="47.39197" lon="-0.86117">
        <ele>73.405</ele>
        <time>2020-07-19T08:32:02Z</time>
      </trkpt>
      <trkpt lat="47.39198" lon="-0.86117">
        <ele>72.886</ele>
        <time>2020-07-19T08:32:03Z</time>
      </trkpt>
      <trkpt lat="47.39197" lon="-0.86116">
        <ele>72.867</ele>
        <time>2020-07-19T08:32:04Z</time>
      </trkpt>
      <trkpt lat="47.39197" lon="-0.86116">
        <ele>72.969</ele>
        <time>2020-07-19T08:32:05Z</time>
      </trkpt>
      <trkpt lat="47.39197" lon="-0.86116">
        <ele>73.03</ele>
        <time>2020-07-19T08:32:06Z</time>
      </trkpt>
      <trkpt lat="47.39198" lon="-0.86115">
        <ele>73.112</ele>
        <time>2020-07-19T08:32:07Z</time>
      </trkpt>
      <trkpt lat="47.39198" lon="-0.86113">
        <ele>73.432</ele>
        <time>2020-07-19T08:32:08Z</time>
      </trkpt>
      <trkpt lat="47.392" lon="-0.8611">
        <ele>73.278</ele>
        <time>2020-07-19T08:32:09Z</time>
      </trkpt>
      <trkpt lat="47.39202" lon="-0.86107">
        <ele>73.047</ele>
        <time>2020-07-19T08:32:10Z</time>
      </trkpt>
      <trkpt lat="47.39204" lon="-0.86105">
        <ele>72.765</ele>
        <time>2020-07-19T08:32:11Z</time>
      </trkpt>
      <trkpt lat="47.39207" lon="-0.86103">
        <ele>72.206</ele>
        <time>2020-07-19T08:32:12Z</time>
      </trkpt>
      <trkpt lat="47.39211" lon="-0.86101">
        <ele>71.476</ele>
        <time>2020-07-19T08:32:13Z</time>
      </trkpt>
      <trkpt lat="47.39214" lon="-0.86099">
        <ele>71.531</ele>
        <time>2020-07-19T08:32:14Z</time>
      </trkpt>
      <trkpt lat="47.39218" lon="-0.86096">
        <ele>71.123</ele>
        <time>2020-07-19T08:32:15Z</time>
      </trkpt>
      <trkpt lat="47.39222" lon="-0.86093">
        <ele>71.055</ele>
        <time>2020-07-19T08:32:16Z</time>
      </trkpt>
      <trkpt lat="47.39225" lon="-0.86091">
        <ele>70.834</ele>
        <time>2020-07-19T08:32:17Z</time>
      </trkpt>
      <trkpt lat="47.39229" lon="-0.86088">
        <ele>68.722</ele>
        <time>2020-07-19T08:32:18Z</time>
      </trkpt>
      <trkpt lat="47.39233" lon="-0.86085">
        <ele>68.982</ele>
        <time>2020-07-19T08:32:19Z</time>
      </trkpt>
      <trkpt lat="47.39237" lon="-0.86082">
        <ele>69.195</ele>
        <time>2020-07-19T08:32:20Z</time>
      </trkpt>
      <trkpt lat="47.39241" lon="-0.86079">
        <ele>69.566</ele>
        <time>2020-07-19T08:32:21Z</time>
      </trkpt>
      <trkpt lat="47.39245" lon="-0.86076">
        <ele>70.039</ele>
        <time>2020-07-19T08:32:22Z</time>
      </trkpt>
      <trkpt lat="47.3925" lon="-0.86072">
        <ele>70.167</ele>
        <time>2020-07-19T08:32:23Z</time>
      </trkpt>
      <trkpt lat="47.39254" lon="-0.86069">
        <ele>69.667</ele>
        <time>2020-07-19T08:32:24Z</time>
      </trkpt>
      <trkpt lat="47.39259" lon="-0.86067">
        <ele>69.432</ele>
        <time>2020-07-19T08:32:25Z</time>
      </trkpt>
      <trkpt lat="47.39263" lon="-0.86064">
        <ele>69.04</ele>
        <time>2020-07-19T08:32:26Z</time>
      </trkpt>
      <trkpt lat="47.39267" lon="-0.86061">
        <ele>69.716</ele>
        <time>2020-07-19T08:32:27Z</time>
      </trkpt>
      <trkpt lat="47.39272" lon="-0.86057">
        <ele>69.462</ele>
        <time>2020-07-19T08:32:28Z</time>
      </trkpt>
      <trkpt lat="47.39276" lon="-0.86053">
        <ele>68.452</ele>
        <time>2020-07-19T08:32:29Z</time>
      </trkpt>
      <trkpt lat="47.39279" lon="-0.8605">
        <ele>68.695</ele>
        <time>2020-07-19T08:32:30Z</time>
      </trkpt>
      <trkpt lat="47.39283" lon="-0.86048">
        <ele>68.835</ele>
        <time>2020-07-19T08:32:31Z</time>
      </trkpt>
      <trkpt lat="47.39287" lon="-0.86046">
        <ele>68.637</ele>
        <time>2020-07-19T08:32:32Z</time>
      </trkpt>
      <trkpt lat="47.39291" lon="-0.86044">
        <ele>68.052</ele>
        <time>2020-07-19T08:32:33Z</time>
      </trkpt>
      <trkpt lat="47.39295" lon="-0.86042">
        <ele>67.976</ele>
        <time>2020-07-19T08:32:34Z</time>
      </trkpt>
      <trkpt lat="47.39299" lon="-0.8604">
        <ele>68.546</ele>
        <time>2020-07-19T08:32:35Z</time>
      </trkpt>
      <trkpt lat="47.39303" lon="-0.86037">
        <ele>69.345</ele>
        <time>2020-07-19T08:32:36Z</time>
      </trkpt>
      <trkpt lat="47.39306" lon="-0.86034">
        <ele>68.608</ele>
        <time>2020-07-19T08:32:37Z</time>
      </trkpt>
      <trkpt lat="47.3931" lon="-0.86032">
        <ele>68.449</ele>
        <time>2020-07-19T08:32:38Z</time>
      </trkpt>
      <trkpt lat="47.39314" lon="-0.86029">
        <ele>67.866</ele>
        <time>2020-07-19T08:32:39Z</time>
      </trkpt>
      <trkpt lat="47.39319" lon="-0.86027">
        <ele>67.08</ele>
        <time>2020-07-19T08:32:40Z</time>
      </trkpt>
      <trkpt lat="47.39322" lon="-0.86024">
        <ele>67.681</ele>
        <time>2020-07-19T08:32:41Z</time>
      </trkpt>
      <trkpt lat="47.39326" lon="-0.86021">
        <ele>68.493</ele>
        <time>2020-07-19T08:32:42Z</time>
      </trkpt>
      <trkpt lat="47.3933" lon="-0.86017">
        <ele>67.966</ele>
        <time>2020-07-19T08:32:43Z</time>
      </trkpt>
      <trkpt lat="47.39334" lon="-0.86014">
        <ele>67.797</ele>
        <time>2020-07-19T08:32:44Z</time>
      </trkpt>
      <trkpt lat="47.39339" lon="-0.86012">
        <ele>68.223</ele>
        <time>2020-07-19T08:32:45Z</time>
      </trkpt>
      <trkpt lat="47.39343" lon="-0.86009">
        <ele>68.124</ele>
        <time>2020-07-19T08:32:46Z</time>
      </trkpt>
      <trkpt lat="47.39348" lon="-0.86006">
        <ele>67.548</ele>
        <time>2020-07-19T08:32:47Z</time>
      </trkpt>
      <trkpt lat="47.39352" lon="-0.86003">
        <ele>68.878</ele>
        <time>2020-07-19T08:32:48Z</time>
      </trkpt>
      <trkpt lat="47.39356" lon="-0.86">
        <ele>68.923</ele>
        <time>2020-07-19T08:32:49Z</time>
      </trkpt>
      <trkpt lat="47.39361" lon="-0.85998">
        <ele>68.601</ele>
        <time>2020-07-19T08:32:50Z</time>
      </trkpt>
      <trkpt lat="47.39365" lon="-0.85994">
        <ele>68.107</ele>
        <time>2020-07-19T08:32:51Z</time>
      </trkpt>
      <trkpt lat="47.39369" lon="-0.85993">
        <ele>67.645</ele>
        <time>2020-07-19T08:32:52Z</time>
      </trkpt>
      <trkpt lat="47.39373" lon="-0.85989">
        <ele>67.238</ele>
        <time>2020-07-19T08:32:53Z</time>
      </trkpt>
      <trkpt lat="47.39377" lon="-0.85985">
        <ele>67.08</ele>
        <time>2020-07-19T08:32:54Z</time>
      </trkpt>
      <trkpt lat="47.39382" lon="-0.85981">
        <ele>66.878</ele>
        <time>2020-07-19T08:32:55Z</time>
      </trkpt>
      <trkpt lat="47.39387" lon="-0.85977">
        <ele>67.236</ele>
        <time>2020-07-19T08:32:56Z</time>
      </trkpt>
      <trkpt lat="47.39391" lon="-0.85974">
        <ele>66.013</ele>
        <time>2020-07-19T08:32:57Z</time>
      </trkpt>
      <trkpt lat="47.39394" lon="-0.85971">
        <ele>64.179</ele>
        <time>2020-07-19T08:32:58Z</time>
      </trkpt>
      <trkpt lat="47.39397" lon="-0.85968">
        <ele>64.686</ele>
        <time>2020-07-19T08:32:59Z</time>
      </trkpt>
      <trkpt lat="47.39401" lon="-0.85964">
        <ele>65.41</ele>
        <time>2020-07-19T08:33:00Z</time>
      </trkpt>
      <trkpt lat="47.39406" lon="-0.8596">
        <ele>65.148</ele>
        <time>2020-07-19T08:33:01Z</time>
      </trkpt>
      <trkpt lat="47.3941" lon="-0.85958">
        <ele>65.871</ele>
        <time>2020-07-19T08:33:02Z</time>
      </trkpt>
      <trkpt lat="47.39416" lon="-0.85954">
        <ele>66.237</ele>
        <time>2020-07-19T08:33:03Z</time>
      </trkpt>
      <trkpt lat="47.3942" lon="-0.8595">
        <ele>66.436</ele>
        <time>2020-07-19T08:33:04Z</time>
      </trkpt>
      <trkpt lat="47.39424" lon="-0.85948">
        <ele>66.11</ele>
        <time>2020-07-19T08:33:05Z</time>
      </trkpt>
      <trkpt lat="47.39429" lon="-0.85945">
        <ele>66.396</ele>
        <time>2020-07-19T08:33:06Z</time>
      </trkpt>
      <trkpt lat="47.39433" lon="-0.85942">
        <ele>65.699</ele>
        <time>2020-07-19T08:33:07Z</time>
      </trkpt>
      <trkpt lat="47.39439" lon="-0.8594">
        <ele>65.943</ele>
        <time>2020-07-19T08:33:08Z</time>
      </trkpt>
      <trkpt lat="47.39444" lon="-0.85938">
        <ele>67.837</ele>
        <time>2020-07-19T08:33:09Z</time>
      </trkpt>
      <trkpt lat="47.3945" lon="-0.85936">
        <ele>68.122</ele>
        <time>2020-07-19T08:33:10Z</time>
      </trkpt>
      <trkpt lat="47.39455" lon="-0.85934">
        <ele>68.303</ele>
        <time>2020-07-19T08:33:11Z</time>
      </trkpt>
      <trkpt lat="47.3946" lon="-0.85931">
        <ele>68.749</ele>
        <time>2020-07-19T08:33:12Z</time>
      </trkpt>
      <trkpt lat="47.39465" lon="-0.85927">
        <ele>67.838</ele>
        <time>2020-07-19T08:33:13Z</time>
      </trkpt>
      <trkpt lat="47.39469" lon="-0.85924">
        <ele>67.517</ele>
        <time>2020-07-19T08:33:14Z</time>
      </trkpt>
      <trkpt lat="47.39475" lon="-0.85921">
        <ele>67.671</ele>
        <time>2020-07-19T08:33:15Z</time>
      </trkpt>
      <trkpt lat="47.39479" lon="-0.85917">
        <ele>67.226</ele>
        <time>2020-07-19T08:33:16Z</time>
      </trkpt>
      <trkpt lat="47.39484" lon="-0.85913">
        <ele>66.892</ele>
        <time>2020-07-19T08:33:17Z</time>
      </trkpt>
      <trkpt lat="47.3949" lon="-0.85909">
        <ele>67.114</ele>
        <time>2020-07-19T08:33:18Z</time>
      </trkpt>
      <trkpt lat="47.39495" lon="-0.85906">
        <ele>63.68</ele>
        <time>2020-07-19T08:33:19Z</time>
      </trkpt>
      <trkpt lat="47.39498" lon="-0.85902">
        <ele>63.967</ele>
        <time>2020-07-19T08:33:20Z</time>
      </trkpt>
      <trkpt lat="47.39503" lon="-0.85899">
        <ele>64.444</ele>
        <time>2020-07-19T08:33:21Z</time>
      </trkpt>
      <trkpt lat="47.39509" lon="-0.85896">
        <ele>64.977</ele>
        <time>2020-07-19T08:33:22Z</time>
      </trkpt>
      <trkpt lat="47.39513" lon="-0.85892">
        <ele>66.276</ele>
        <time>2020-07-19T08:33:23Z</time>
      </trkpt>
      <trkpt lat="47.39519" lon="-0.85887">
        <ele>66.887</ele>
        <time>2020-07-19T08:33:24Z</time>
      </trkpt>
      <trkpt lat="47.39524" lon="-0.85884">
        <ele>67.058</ele>
        <time>2020-07-19T08:33:25Z</time>
      </trkpt>
      <trkpt lat="47.39528" lon="-0.85879">
        <ele>67.693</ele>
        <time>2020-07-19T08:33:26Z</time>
      </trkpt>
      <trkpt lat="47.39533" lon="-0.85876">
        <ele>67.664</ele>
        <time>2020-07-19T08:33:27Z</time>
      </trkpt>
      <trkpt lat="47.39538" lon="-0.85873">
        <ele>67.658</ele>
        <time>2020-07-19T08:33:28Z</time>
      </trkpt>
      <trkpt lat="47.39544" lon="-0.85868">
        <ele>68.232</ele>
        <time>2020-07-19T08:33:29Z</time>
      </trkpt>
      <trkpt lat="47.3955" lon="-0.85866">
        <ele>69.156</ele>
        <time>2020-07-19T08:33:30Z</time>
      </trkpt>
      <trkpt lat="47.39554" lon="-0.85862">
        <ele>67.95</ele>
        <time>2020-07-19T08:33:31Z</time>
      </trkpt>
      <trkpt lat="47.39559" lon="-0.85858">
        <ele>67.792</ele>
        <time>2020-07-19T08:33:32Z</time>
      </trkpt>
      <trkpt lat="47.39564" lon="-0.85854">
        <ele>68.862</ele>
        <time>2020-07-19T08:33:33Z</time>
      </trkpt>
      <trkpt lat="47.3957" lon="-0.85852">
        <ele>70.572</ele>
        <time>2020-07-19T08:33:34Z</time>
      </trkpt>
      <trkpt lat="47.39576" lon="-0.85848">
        <ele>70.125</ele>
        <time>2020-07-19T08:33:35Z</time>
      </trkpt>
      <trkpt lat="47.39581" lon="-0.85844">
        <ele>69.498</ele>
        <time>2020-07-19T08:33:36Z</time>
      </trkpt>
      <trkpt lat="47.39585" lon="-0.8584">
        <ele>68.961</ele>
        <time>2020-07-19T08:33:37Z</time>
      </trkpt>
      <trkpt lat="47.3959" lon="-0.85837">
        <ele>68.933</ele>
        <time>2020-07-19T08:33:38Z</time>
      </trkpt>
      <trkpt lat="47.39595" lon="-0.85832">
        <ele>68.993</ele>
        <time>2020-07-19T08:33:39Z</time>
      </trkpt>
      <trkpt lat="47.396" lon="-0.85829">
        <ele>69.135</ele>
        <time>2020-07-19T08:33:40Z</time>
      </trkpt>
      <trkpt lat="47.39604" lon="-0.85825">
        <ele>69.656</ele>
        <time>2020-07-19T08:33:41Z</time>
      </trkpt>
      <trkpt lat="47.39609" lon="-0.85822">
        <ele>69.607</ele>
        <time>2020-07-19T08:33:42Z</time>
      </trkpt>
      <trkpt lat="47.39614" lon="-0.85818">
        <ele>69.35</ele>
        <time>2020-07-19T08:33:43Z</time>
      </trkpt>
      <trkpt lat="47.39618" lon="-0.85816">
        <ele>70.538</ele>
        <time>2020-07-19T08:33:44Z</time>
      </trkpt>
      <trkpt lat="47.39622" lon="-0.85813">
        <ele>71.19</ele>
        <time>2020-07-19T08:33:45Z</time>
      </trkpt>
      <trkpt lat="47.39625" lon="-0.85811">
        <ele>70.075</ele>
        <time>2020-07-19T08:33:46Z</time>
      </trkpt>
      <trkpt lat="47.39628" lon="-0.85809">
        <ele>70.492</ele>
        <time>2020-07-19T08:33:47Z</time>
      </trkpt>
      <trkpt lat="47.3963" lon="-0.85807">
        <ele>69.781</ele>
        <time>2020-07-19T08:33:48Z</time>
      </trkpt>
      <trkpt lat="47.39632" lon="-0.85806">
        <ele>69.111</ele>
        <time>2020-07-19T08:33:49Z</time>
      </trkpt>
      <trkpt lat="47.39633" lon="-0.85806">
        <ele>68.287</ele>
        <time>2020-07-19T08:33:50Z</time>
      </trkpt>
      <trkpt lat="47.39634" lon="-0.85806">
        <ele>68.227</ele>
        <time>2020-07-19T08:33:51Z</time>
      </trkpt>
      <trkpt lat="47.39636" lon="-0.8581">
        <ele>68.235</ele>
        <time>2020-07-19T08:33:52Z</time>
      </trkpt>
      <trkpt lat="47.39636" lon="-0.85812">
        <ele>67.171</ele>
        <time>2020-07-19T08:33:53Z</time>
      </trkpt>
      <trkpt lat="47.39636" lon="-0.85817">
        <ele>67.16</ele>
        <time>2020-07-19T08:33:54Z</time>
      </trkpt>
      <trkpt lat="47.39635" lon="-0.85821">
        <ele>67.329</ele>
        <time>2020-07-19T08:33:55Z</time>
      </trkpt>
      <trkpt lat="47.39633" lon="-0.85825">
        <ele>66.766</ele>
        <time>2020-07-19T08:33:56Z</time>
      </trkpt>
      <trkpt lat="47.39632" lon="-0.85829">
        <ele>65.921</ele>
        <time>2020-07-19T08:33:57Z</time>
      </trkpt>
      <trkpt lat="47.3963" lon="-0.85832">
        <ele>65.773</ele>
        <time>2020-07-19T08:33:58Z</time>
      </trkpt>
      <trkpt lat="47.39628" lon="-0.85835">
        <ele>65.719</ele>
        <time>2020-07-19T08:33:59Z</time>
      </trkpt>
      <trkpt lat="47.39626" lon="-0.85837">
        <ele>65.377</ele>
        <time>2020-07-19T08:34:00Z</time>
      </trkpt>
      <trkpt lat="47.39625" lon="-0.8584">
        <ele>64.826</ele>
        <time>2020-07-19T08:34:01Z</time>
      </trkpt>
      <trkpt lat="47.39623" lon="-0.85843">
        <ele>65.208</ele>
        <time>2020-07-19T08:34:02Z</time>
      </trkpt>
      <trkpt lat="47.3962" lon="-0.85846">
        <ele>65.383</ele>
        <time>2020-07-19T08:34:03Z</time>
      </trkpt>
      <trkpt lat="47.39618" lon="-0.8585">
        <ele>64.488</ele>
        <time>2020-07-19T08:34:04Z</time>
      </trkpt>
      <trkpt lat="47.39617" lon="-0.85854">
        <ele>65.772</ele>
        <time>2020-07-19T08:34:05Z</time>
      </trkpt>
      <trkpt lat="47.39615" lon="-0.85858">
        <ele>64.846</ele>
        <time>2020-07-19T08:34:06Z</time>
      </trkpt>
      <trkpt lat="47.39614" lon="-0.85863">
        <ele>64.792</ele>
        <time>2020-07-19T08:34:07Z</time>
      </trkpt>
      <trkpt lat="47.39613" lon="-0.85868">
        <ele>66.693</ele>
        <time>2020-07-19T08:34:08Z</time>
      </trkpt>
      <trkpt lat="47.39613" lon="-0.85873">
        <ele>65.234</ele>
        <time>2020-07-19T08:34:09Z</time>
      </trkpt>
      <trkpt lat="47.39613" lon="-0.85879">
        <ele>65.013</ele>
        <time>2020-07-19T08:34:10Z</time>
      </trkpt>
      <trkpt lat="47.39613" lon="-0.85885">
        <ele>64.773</ele>
        <time>2020-07-19T08:34:11Z</time>
      </trkpt>
      <trkpt lat="47.39614" lon="-0.85891">
        <ele>62.785</ele>
        <time>2020-07-19T08:34:12Z</time>
      </trkpt>
      <trkpt lat="47.39615" lon="-0.85896">
        <ele>62.046</ele>
        <time>2020-07-19T08:34:13Z</time>
      </trkpt>
      <trkpt lat="47.39617" lon="-0.85906">
        <ele>61.216</ele>
        <time>2020-07-19T08:34:14Z</time>
      </trkpt>
      <trkpt lat="47.39617" lon="-0.85909">
        <ele>61.757</ele>
        <time>2020-07-19T08:34:15Z</time>
      </trkpt>
      <trkpt lat="47.39618" lon="-0.85913">
        <ele>62.639</ele>
        <time>2020-07-19T08:34:16Z</time>
      </trkpt>
      <trkpt lat="47.39621" lon="-0.8592">
        <ele>60.94</ele>
        <time>2020-07-19T08:34:17Z</time>
      </trkpt>
      <trkpt lat="47.39622" lon="-0.85925">
        <ele>57.875</ele>
        <time>2020-07-19T08:34:18Z</time>
      </trkpt>
      <trkpt lat="47.39623" lon="-0.85934">
        <ele>57.919</ele>
        <time>2020-07-19T08:34:19Z</time>
      </trkpt>
      <trkpt lat="47.39624" lon="-0.85943">
        <ele>57.291</ele>
        <time>2020-07-19T08:34:20Z</time>
      </trkpt>
      <trkpt lat="47.39623" lon="-0.85953">
        <ele>58.157</ele>
        <time>2020-07-19T08:34:21Z</time>
      </trkpt>
      <trkpt lat="47.39624" lon="-0.8596">
        <ele>58.693</ele>
        <time>2020-07-19T08:34:22Z</time>
      </trkpt>
      <trkpt lat="47.39625" lon="-0.8597">
        <ele>58.254</ele>
        <time>2020-07-19T08:34:23Z</time>
      </trkpt>
      <trkpt lat="47.39625" lon="-0.85979">
        <ele>59.697</ele>
        <time>2020-07-19T08:34:24Z</time>
      </trkpt>
      <trkpt lat="47.39626" lon="-0.85985">
        <ele>60.226</ele>
        <time>2020-07-19T08:34:25Z</time>
      </trkpt>
      <trkpt lat="47.39627" lon="-0.8599">
        <ele>59.313</ele>
        <time>2020-07-19T08:34:26Z</time>
      </trkpt>
      <trkpt lat="47.39627" lon="-0.86">
        <ele>59.917</ele>
        <time>2020-07-19T08:34:27Z</time>
      </trkpt>
      <trkpt lat="47.39628" lon="-0.86006">
        <ele>59.642</ele>
        <time>2020-07-19T08:34:28Z</time>
      </trkpt>
      <trkpt lat="47.39629" lon="-0.86014">
        <ele>58.881</ele>
        <time>2020-07-19T08:34:29Z</time>
      </trkpt>
      <trkpt lat="47.39628" lon="-0.86021">
        <ele>59.283</ele>
        <time>2020-07-19T08:34:30Z</time>
      </trkpt>
      <trkpt lat="47.39628" lon="-0.86029">
        <ele>58.76</ele>
        <time>2020-07-19T08:34:31Z</time>
      </trkpt>
      <trkpt lat="47.39628" lon="-0.86034">
        <ele>58.892</ele>
        <time>2020-07-19T08:34:32Z</time>
      </trkpt>
      <trkpt lat="47.39628" lon="-0.86035">
        <ele>57.098</ele>
        <time>2020-07-19T08:34:33Z</time>
      </trkpt>
      <trkpt lat="47.3963" lon="-0.86041">
        <ele>55.123</ele>
        <time>2020-07-19T08:34:34Z</time>
      </trkpt>
      <trkpt lat="47.39629" lon="-0.8605">
        <ele>54.886</ele>
        <time>2020-07-19T08:34:35Z</time>
      </trkpt>
      <trkpt lat="47.39629" lon="-0.86058">
        <ele>54.902</ele>
        <time>2020-07-19T08:34:36Z</time>
      </trkpt>
      <trkpt lat="47.39633" lon="-0.86068">
        <ele>52.492</ele>
        <time>2020-07-19T08:34:37Z</time>
      </trkpt>
      <trkpt lat="47.39633" lon="-0.86075">
        <ele>51.77</ele>
        <time>2020-07-19T08:34:38Z</time>
      </trkpt>
      <trkpt lat="47.39634" lon="-0.86079">
        <ele>51.721</ele>
        <time>2020-07-19T08:34:39Z</time>
      </trkpt>
      <trkpt lat="47.39634" lon="-0.86085">
        <ele>62.865</ele>
        <time>2020-07-19T08:34:40Z</time>
      </trkpt>
      <trkpt lat="47.39634" lon="-0.86093">
        <ele>60.927</ele>
        <time>2020-07-19T08:34:41Z</time>
      </trkpt>
      <trkpt lat="47.39635" lon="-0.86102">
        <ele>59.32</ele>
        <time>2020-07-19T08:34:42Z</time>
      </trkpt>
      <trkpt lat="47.39637" lon="-0.8611">
        <ele>57.643</ele>
        <time>2020-07-19T08:34:43Z</time>
      </trkpt>
      <trkpt lat="47.39635" lon="-0.8612">
        <ele>56.846</ele>
        <time>2020-07-19T08:34:44Z</time>
      </trkpt>
      <trkpt lat="47.39636" lon="-0.86127">
        <ele>55.842</ele>
        <time>2020-07-19T08:34:45Z</time>
      </trkpt>
      <trkpt lat="47.39636" lon="-0.86137">
        <ele>55.214</ele>
        <time>2020-07-19T08:34:46Z</time>
      </trkpt>
      <trkpt lat="47.39639" lon="-0.86146">
        <ele>54.527</ele>
        <time>2020-07-19T08:34:47Z</time>
      </trkpt>
      <trkpt lat="47.39641" lon="-0.86151">
        <ele>51.743</ele>
        <time>2020-07-19T08:34:48Z</time>
      </trkpt>
      <trkpt lat="47.39643" lon="-0.8616">
        <ele>51.128</ele>
        <time>2020-07-19T08:34:49Z</time>
      </trkpt>
      <trkpt lat="47.39645" lon="-0.86168">
        <ele>51.012</ele>
        <time>2020-07-19T08:34:50Z</time>
      </trkpt>
      <trkpt lat="47.39645" lon="-0.86171">
        <ele>48.829</ele>
        <time>2020-07-19T08:34:51Z</time>
      </trkpt>
      <trkpt lat="47.39646" lon="-0.86178">
        <ele>47.824</ele>
        <time>2020-07-19T08:34:52Z</time>
      </trkpt>
      <trkpt lat="47.3965" lon="-0.86188">
        <ele>47.364</ele>
        <time>2020-07-19T08:34:53Z</time>
      </trkpt>
      <trkpt lat="47.39651" lon="-0.86199">
        <ele>47.812</ele>
        <time>2020-07-19T08:34:54Z</time>
      </trkpt>
      <trkpt lat="47.39652" lon="-0.86205">
        <ele>45.522</ele>
        <time>2020-07-19T08:34:55Z</time>
      </trkpt>
      <trkpt lat="47.39654" lon="-0.86213">
        <ele>46.279</ele>
        <time>2020-07-19T08:34:56Z</time>
      </trkpt>
      <trkpt lat="47.39655" lon="-0.86224">
        <ele>47.489</ele>
        <time>2020-07-19T08:34:57Z</time>
      </trkpt>
      <trkpt lat="47.39655" lon="-0.86236">
        <ele>46.828</ele>
        <time>2020-07-19T08:34:58Z</time>
      </trkpt>
      <trkpt lat="47.39654" lon="-0.86243">
        <ele>45.327</ele>
        <time>2020-07-19T08:34:59Z</time>
      </trkpt>
      <trkpt lat="47.39654" lon="-0.86253">
        <ele>46.8</ele>
        <time>2020-07-19T08:35:00Z</time>
      </trkpt>
      <trkpt lat="47.39654" lon="-0.86261">
        <ele>48.416</ele>
        <time>2020-07-19T08:35:01Z</time>
      </trkpt>
      <trkpt lat="47.39655" lon="-0.86269">
        <ele>51.033</ele>
        <time>2020-07-19T08:35:02Z</time>
      </trkpt>
      <trkpt lat="47.39655" lon="-0.86278">
        <ele>52.472</ele>
        <time>2020-07-19T08:35:03Z</time>
      </trkpt>
      <trkpt lat="47.39655" lon="-0.86291">
        <ele>54.141</ele>
        <time>2020-07-19T08:35:04Z</time>
      </trkpt>
      <trkpt lat="47.39656" lon="-0.86302">
        <ele>55.423</ele>
        <time>2020-07-19T08:35:05Z</time>
      </trkpt>
      <trkpt lat="47.39657" lon="-0.86313">
        <ele>57.414</ele>
        <time>2020-07-19T08:35:06Z</time>
      </trkpt>
      <trkpt lat="47.39659" lon="-0.86319">
        <ele>55.522</ele>
        <time>2020-07-19T08:35:07Z</time>
      </trkpt>
      <trkpt lat="47.39659" lon="-0.8633">
        <ele>58.092</ele>
        <time>2020-07-19T08:35:08Z</time>
      </trkpt>
      <trkpt lat="47.3966" lon="-0.86338">
        <ele>57.986</ele>
        <time>2020-07-19T08:35:09Z</time>
      </trkpt>
      <trkpt lat="47.39661" lon="-0.86337">
        <ele>54.544</ele>
        <time>2020-07-19T08:35:10Z</time>
      </trkpt>
      <trkpt lat="47.39661" lon="-0.86347">
        <ele>54.334</ele>
        <time>2020-07-19T08:35:11Z</time>
      </trkpt>
      <trkpt lat="47.39661" lon="-0.86356">
        <ele>53.81</ele>
        <time>2020-07-19T08:35:12Z</time>
      </trkpt>
      <trkpt lat="47.39662" lon="-0.86364">
        <ele>54.862</ele>
        <time>2020-07-19T08:35:13Z</time>
      </trkpt>
      <trkpt lat="47.39662" lon="-0.86373">
        <ele>55.76</ele>
        <time>2020-07-19T08:35:14Z</time>
      </trkpt>
      <trkpt lat="47.39666" lon="-0.86379">
        <ele>55.495</ele>
        <time>2020-07-19T08:35:15Z</time>
      </trkpt>
      <trkpt lat="47.39668" lon="-0.86388">
        <ele>56.773</ele>
        <time>2020-07-19T08:35:16Z</time>
      </trkpt>
      <trkpt lat="47.39667" lon="-0.86395">
        <ele>57.459</ele>
        <time>2020-07-19T08:35:17Z</time>
      </trkpt>
      <trkpt lat="47.39667" lon="-0.86406">
        <ele>58.579</ele>
        <time>2020-07-19T08:35:18Z</time>
      </trkpt>
      <trkpt lat="47.39666" lon="-0.86414">
        <ele>58.594</ele>
        <time>2020-07-19T08:35:19Z</time>
      </trkpt>
      <trkpt lat="47.39667" lon="-0.86419">
        <ele>57.752</ele>
        <time>2020-07-19T08:35:20Z</time>
      </trkpt>
      <trkpt lat="47.39667" lon="-0.86426">
        <ele>57.942</ele>
        <time>2020-07-19T08:35:21Z</time>
      </trkpt>
      <trkpt lat="47.39667" lon="-0.86435">
        <ele>57.282</ele>
        <time>2020-07-19T08:35:22Z</time>
      </trkpt>
      <trkpt lat="47.39667" lon="-0.86446">
        <ele>56.664</ele>
        <time>2020-07-19T08:35:23Z</time>
      </trkpt>
      <trkpt lat="47.39666" lon="-0.86457">
        <ele>56.379</ele>
        <time>2020-07-19T08:35:24Z</time>
      </trkpt>
      <trkpt lat="47.39665" lon="-0.86466">
        <ele>56.594</ele>
        <time>2020-07-19T08:35:25Z</time>
      </trkpt>
      <trkpt lat="47.39665" lon="-0.86473">
        <ele>56.983</ele>
        <time>2020-07-19T08:35:26Z</time>
      </trkpt>
      <trkpt lat="47.39666" lon="-0.86482">
        <ele>56.7</ele>
        <time>2020-07-19T08:35:27Z</time>
      </trkpt>
      <trkpt lat="47.39666" lon="-0.8649">
        <ele>57.924</ele>
        <time>2020-07-19T08:35:28Z</time>
      </trkpt>
      <trkpt lat="47.39667" lon="-0.86497">
        <ele>60.434</ele>
        <time>2020-07-19T08:35:29Z</time>
      </trkpt>
      <trkpt lat="47.39668" lon="-0.86502">
        <ele>58.697</ele>
        <time>2020-07-19T08:35:30Z</time>
      </trkpt>
      <trkpt lat="47.39671" lon="-0.86509">
        <ele>58.419</ele>
        <time>2020-07-19T08:35:31Z</time>
      </trkpt>
      <trkpt lat="47.3967" lon="-0.86515">
        <ele>59.702</ele>
        <time>2020-07-19T08:35:32Z</time>
      </trkpt>
      <trkpt lat="47.3967" lon="-0.86523">
        <ele>59.688</ele>
        <time>2020-07-19T08:35:33Z</time>
      </trkpt>
      <trkpt lat="47.39672" lon="-0.86532">
        <ele>58.984</ele>
        <time>2020-07-19T08:35:34Z</time>
      </trkpt>
      <trkpt lat="47.39675" lon="-0.86537">
        <ele>56.294</ele>
        <time>2020-07-19T08:35:35Z</time>
      </trkpt>
      <trkpt lat="47.39674" lon="-0.86544">
        <ele>56.35</ele>
        <time>2020-07-19T08:35:36Z</time>
      </trkpt>
      <trkpt lat="47.39674" lon="-0.86553">
        <ele>56.523</ele>
        <time>2020-07-19T08:35:37Z</time>
      </trkpt>
      <trkpt lat="47.39675" lon="-0.86558">
        <ele>58.083</ele>
        <time>2020-07-19T08:35:38Z</time>
      </trkpt>
      <trkpt lat="47.39673" lon="-0.86567">
        <ele>58.257</ele>
        <time>2020-07-19T08:35:39Z</time>
      </trkpt>
      <trkpt lat="47.39673" lon="-0.86574">
        <ele>57.484</ele>
        <time>2020-07-19T08:35:40Z</time>
      </trkpt>
      <trkpt lat="47.39672" lon="-0.86583">
        <ele>57.513</ele>
        <time>2020-07-19T08:35:41Z</time>
      </trkpt>
      <trkpt lat="47.39673" lon="-0.86589">
        <ele>58.775</ele>
        <time>2020-07-19T08:35:42Z</time>
      </trkpt>
      <trkpt lat="47.39673" lon="-0.86598">
        <ele>58.952</ele>
        <time>2020-07-19T08:35:43Z</time>
      </trkpt>
      <trkpt lat="47.39674" lon="-0.86607">
        <ele>58.032</ele>
        <time>2020-07-19T08:35:44Z</time>
      </trkpt>
      <trkpt lat="47.39674" lon="-0.86615">
        <ele>59.803</ele>
        <time>2020-07-19T08:35:45Z</time>
      </trkpt>
      <trkpt lat="47.39673" lon="-0.86626">
        <ele>59.76</ele>
        <time>2020-07-19T08:35:46Z</time>
      </trkpt>
      <trkpt lat="47.39675" lon="-0.86634">
        <ele>60.194</ele>
        <time>2020-07-19T08:35:47Z</time>
      </trkpt>
      <trkpt lat="47.39675" lon="-0.86643">
        <ele>61.843</ele>
        <time>2020-07-19T08:35:48Z</time>
      </trkpt>
      <trkpt lat="47.39675" lon="-0.86651">
        <ele>62.271</ele>
        <time>2020-07-19T08:35:49Z</time>
      </trkpt>
      <trkpt lat="47.39678" lon="-0.86659">
        <ele>61.143</ele>
        <time>2020-07-19T08:35:50Z</time>
      </trkpt>
      <trkpt lat="47.39678" lon="-0.86666">
        <ele>62.598</ele>
        <time>2020-07-19T08:35:51Z</time>
      </trkpt>
      <trkpt lat="47.3968" lon="-0.86672">
        <ele>62.064</ele>
        <time>2020-07-19T08:35:52Z</time>
      </trkpt>
      <trkpt lat="47.3968" lon="-0.8668">
        <ele>61.654</ele>
        <time>2020-07-19T08:35:53Z</time>
      </trkpt>
      <trkpt lat="47.39679" lon="-0.86688">
        <ele>62.043</ele>
        <time>2020-07-19T08:35:54Z</time>
      </trkpt>
      <trkpt lat="47.39679" lon="-0.86697">
        <ele>62.139</ele>
        <time>2020-07-19T08:35:55Z</time>
      </trkpt>
      <trkpt lat="47.39679" lon="-0.86705">
        <ele>62.634</ele>
        <time>2020-07-19T08:35:56Z</time>
      </trkpt>
      <trkpt lat="47.39681" lon="-0.86714">
        <ele>61.13</ele>
        <time>2020-07-19T08:35:57Z</time>
      </trkpt>
      <trkpt lat="47.39681" lon="-0.86723">
        <ele>60.963</ele>
        <time>2020-07-19T08:35:58Z</time>
      </trkpt>
      <trkpt lat="47.39683" lon="-0.86731">
        <ele>60.77</ele>
        <time>2020-07-19T08:35:59Z</time>
      </trkpt>
      <trkpt lat="47.39683" lon="-0.8674">
        <ele>60.936</ele>
        <time>2020-07-19T08:36:00Z</time>
      </trkpt>
      <trkpt lat="47.39683" lon="-0.86748">
        <ele>61.359</ele>
        <time>2020-07-19T08:36:01Z</time>
      </trkpt>
      <trkpt lat="47.39685" lon="-0.86754">
        <ele>59.706</ele>
        <time>2020-07-19T08:36:02Z</time>
      </trkpt>
      <trkpt lat="47.39686" lon="-0.86761">
        <ele>58.144</ele>
        <time>2020-07-19T08:36:03Z</time>
      </trkpt>
      <trkpt lat="47.39687" lon="-0.86769">
        <ele>58.838</ele>
        <time>2020-07-19T08:36:04Z</time>
      </trkpt>
      <trkpt lat="47.39689" lon="-0.86775">
        <ele>56.871</ele>
        <time>2020-07-19T08:36:05Z</time>
      </trkpt>
      <trkpt lat="47.3969" lon="-0.86782">
        <ele>56.521</ele>
        <time>2020-07-19T08:36:06Z</time>
      </trkpt>
      <trkpt lat="47.39691" lon="-0.86791">
        <ele>56.32</ele>
        <time>2020-07-19T08:36:07Z</time>
      </trkpt>
      <trkpt lat="47.39691" lon="-0.86799">
        <ele>56.945</ele>
        <time>2020-07-19T08:36:08Z</time>
      </trkpt>
      <trkpt lat="47.39691" lon="-0.86807">
        <ele>57.501</ele>
        <time>2020-07-19T08:36:09Z</time>
      </trkpt>
      <trkpt lat="47.39691" lon="-0.86814">
        <ele>57.139</ele>
        <time>2020-07-19T08:36:10Z</time>
      </trkpt>
      <trkpt lat="47.39689" lon="-0.86822">
        <ele>57.477</ele>
        <time>2020-07-19T08:36:11Z</time>
      </trkpt>
      <trkpt lat="47.39689" lon="-0.8683">
        <ele>57.354</ele>
        <time>2020-07-19T08:36:12Z</time>
      </trkpt>
      <trkpt lat="47.39691" lon="-0.86836">
        <ele>56.655</ele>
        <time>2020-07-19T08:36:13Z</time>
      </trkpt>
      <trkpt lat="47.39692" lon="-0.86843">
        <ele>54.671</ele>
        <time>2020-07-19T08:36:14Z</time>
      </trkpt>
      <trkpt lat="47.39691" lon="-0.86849">
        <ele>54.922</ele>
        <time>2020-07-19T08:36:15Z</time>
      </trkpt>
      <trkpt lat="47.39692" lon="-0.86853">
        <ele>54.824</ele>
        <time>2020-07-19T08:36:16Z</time>
      </trkpt>
      <trkpt lat="47.39695" lon="-0.8686">
        <ele>52.077</ele>
        <time>2020-07-19T08:36:17Z</time>
      </trkpt>
      <trkpt lat="47.39697" lon="-0.86868">
        <ele>52.172</ele>
        <time>2020-07-19T08:36:18Z</time>
      </trkpt>
      <trkpt lat="47.39698" lon="-0.86876">
        <ele>51.816</ele>
        <time>2020-07-19T08:36:19Z</time>
      </trkpt>
      <trkpt lat="47.39697" lon="-0.86883">
        <ele>51.943</ele>
        <time>2020-07-19T08:36:20Z</time>
      </trkpt>
      <trkpt lat="47.39698" lon="-0.8689">
        <ele>52.066</ele>
        <time>2020-07-19T08:36:21Z</time>
      </trkpt>
      <trkpt lat="47.39696" lon="-0.86897">
        <ele>51.979</ele>
        <time>2020-07-19T08:36:22Z</time>
      </trkpt>
      <trkpt lat="47.39698" lon="-0.86906">
        <ele>53.009</ele>
        <time>2020-07-19T08:36:23Z</time>
      </trkpt>
      <trkpt lat="47.39699" lon="-0.86915">
        <ele>55.413</ele>
        <time>2020-07-19T08:36:24Z</time>
      </trkpt>
      <trkpt lat="47.397" lon="-0.86921">
        <ele>55.453</ele>
        <time>2020-07-19T08:36:25Z</time>
      </trkpt>
      <trkpt lat="47.397" lon="-0.8693">
        <ele>57.299</ele>
        <time>2020-07-19T08:36:26Z</time>
      </trkpt>
      <trkpt lat="47.39701" lon="-0.86938">
        <ele>57.261</ele>
        <time>2020-07-19T08:36:27Z</time>
      </trkpt>
      <trkpt lat="47.39702" lon="-0.86945">
        <ele>58.584</ele>
        <time>2020-07-19T08:36:28Z</time>
      </trkpt>
      <trkpt lat="47.39703" lon="-0.86954">
        <ele>57.492</ele>
        <time>2020-07-19T08:36:29Z</time>
      </trkpt>
      <trkpt lat="47.39704" lon="-0.8696">
        <ele>58.57</ele>
        <time>2020-07-19T08:36:30Z</time>
      </trkpt>
      <trkpt lat="47.39706" lon="-0.86968">
        <ele>57.941</ele>
        <time>2020-07-19T08:36:31Z</time>
      </trkpt>
      <trkpt lat="47.39708" lon="-0.86976">
        <ele>57.342</ele>
        <time>2020-07-19T08:36:32Z</time>
      </trkpt>
      <trkpt lat="47.3971" lon="-0.86985">
        <ele>58.384</ele>
        <time>2020-07-19T08:36:33Z</time>
      </trkpt>
      <trkpt lat="47.39712" lon="-0.86992">
        <ele>57.43</ele>
        <time>2020-07-19T08:36:34Z</time>
      </trkpt>
      <trkpt lat="47.39714" lon="-0.87">
        <ele>57.568</ele>
        <time>2020-07-19T08:36:35Z</time>
      </trkpt>
      <trkpt lat="47.39716" lon="-0.87007">
        <ele>57.462</ele>
        <time>2020-07-19T08:36:36Z</time>
      </trkpt>
      <trkpt lat="47.3972" lon="-0.87013">
        <ele>54.447</ele>
        <time>2020-07-19T08:36:37Z</time>
      </trkpt>
      <trkpt lat="47.39721" lon="-0.87022">
        <ele>55.877</ele>
        <time>2020-07-19T08:36:38Z</time>
      </trkpt>
      <trkpt lat="47.39721" lon="-0.87028">
        <ele>55.877</ele>
        <time>2020-07-19T08:36:39Z</time>
      </trkpt>
      <trkpt lat="47.39722" lon="-0.87038">
        <ele>56.879</ele>
        <time>2020-07-19T08:36:40Z</time>
      </trkpt>
      <trkpt lat="47.39722" lon="-0.87045">
        <ele>57.272</ele>
        <time>2020-07-19T08:36:41Z</time>
      </trkpt>
      <trkpt lat="47.39724" lon="-0.87051">
        <ele>56.485</ele>
        <time>2020-07-19T08:36:42Z</time>
      </trkpt>
      <trkpt lat="47.39727" lon="-0.87059">
        <ele>56.213</ele>
        <time>2020-07-19T08:36:43Z</time>
      </trkpt>
      <trkpt lat="47.39728" lon="-0.87066">
        <ele>58.11</ele>
        <time>2020-07-19T08:36:44Z</time>
      </trkpt>
      <trkpt lat="47.39728" lon="-0.87071">
        <ele>56.263</ele>
        <time>2020-07-19T08:36:45Z</time>
      </trkpt>
      <trkpt lat="47.39728" lon="-0.87076">
        <ele>54.287</ele>
        <time>2020-07-19T08:36:46Z</time>
      </trkpt>
      <trkpt lat="47.39729" lon="-0.87082">
        <ele>52.813</ele>
        <time>2020-07-19T08:36:47Z</time>
      </trkpt>
      <trkpt lat="47.39729" lon="-0.87088">
        <ele>52.121</ele>
        <time>2020-07-19T08:36:48Z</time>
      </trkpt>
      <trkpt lat="47.39729" lon="-0.87094">
        <ele>52.399</ele>
        <time>2020-07-19T08:36:49Z</time>
      </trkpt>
      <trkpt lat="47.3973" lon="-0.87101">
        <ele>51.256</ele>
        <time>2020-07-19T08:36:50Z</time>
      </trkpt>
      <trkpt lat="47.39732" lon="-0.87111">
        <ele>52.484</ele>
        <time>2020-07-19T08:36:51Z</time>
      </trkpt>
      <trkpt lat="47.39734" lon="-0.8712">
        <ele>54.572</ele>
        <time>2020-07-19T08:36:52Z</time>
      </trkpt>
      <trkpt lat="47.39736" lon="-0.87127">
        <ele>52.432</ele>
        <time>2020-07-19T08:36:53Z</time>
      </trkpt>
      <trkpt lat="47.39736" lon="-0.87135">
        <ele>51.82</ele>
        <time>2020-07-19T08:36:54Z</time>
      </trkpt>
      <trkpt lat="47.39737" lon="-0.87143">
        <ele>52.828</ele>
        <time>2020-07-19T08:36:55Z</time>
      </trkpt>
      <trkpt lat="47.39739" lon="-0.87149">
        <ele>51.841</ele>
        <time>2020-07-19T08:36:56Z</time>
      </trkpt>
      <trkpt lat="47.3974" lon="-0.87157">
        <ele>51.994</ele>
        <time>2020-07-19T08:36:57Z</time>
      </trkpt>
      <trkpt lat="47.39742" lon="-0.87161">
        <ele>48.626</ele>
        <time>2020-07-19T08:36:58Z</time>
      </trkpt>
      <trkpt lat="47.39743" lon="-0.8717">
        <ele>51.074</ele>
        <time>2020-07-19T08:36:59Z</time>
      </trkpt>
      <trkpt lat="47.39744" lon="-0.87178">
        <ele>50.985</ele>
        <time>2020-07-19T08:37:00Z</time>
      </trkpt>
      <trkpt lat="47.39745" lon="-0.87183">
        <ele>51.637</ele>
        <time>2020-07-19T08:37:01Z</time>
      </trkpt>
      <trkpt lat="47.39746" lon="-0.87192">
        <ele>53.009</ele>
        <time>2020-07-19T08:37:02Z</time>
      </trkpt>
      <trkpt lat="47.39746" lon="-0.87199">
        <ele>51.921</ele>
        <time>2020-07-19T08:37:03Z</time>
      </trkpt>
      <trkpt lat="47.39748" lon="-0.87207">
        <ele>51.354</ele>
        <time>2020-07-19T08:37:04Z</time>
      </trkpt>
      <trkpt lat="47.39751" lon="-0.87216">
        <ele>51.452</ele>
        <time>2020-07-19T08:37:05Z</time>
      </trkpt>
      <trkpt lat="47.3975" lon="-0.87223">
        <ele>54.296</ele>
        <time>2020-07-19T08:37:06Z</time>
      </trkpt>
      <trkpt lat="47.3975" lon="-0.8723">
        <ele>54.398</ele>
        <time>2020-07-19T08:37:07Z</time>
      </trkpt>
      <trkpt lat="47.3975" lon="-0.87237">
        <ele>54.455</ele>
        <time>2020-07-19T08:37:08Z</time>
      </trkpt>
      <trkpt lat="47.39751" lon="-0.87244">
        <ele>54.848</ele>
        <time>2020-07-19T08:37:09Z</time>
      </trkpt>
      <trkpt lat="47.39752" lon="-0.87252">
        <ele>54.558</ele>
        <time>2020-07-19T08:37:10Z</time>
      </trkpt>
      <trkpt lat="47.39753" lon="-0.87259">
        <ele>54.135</ele>
        <time>2020-07-19T08:37:11Z</time>
      </trkpt>
      <trkpt lat="47.39754" lon="-0.87265">
        <ele>53.915</ele>
        <time>2020-07-19T08:37:12Z</time>
      </trkpt>
      <trkpt lat="47.39757" lon="-0.87271">
        <ele>52.825</ele>
        <time>2020-07-19T08:37:13Z</time>
      </trkpt>
      <trkpt lat="47.39759" lon="-0.87279">
        <ele>53.307</ele>
        <time>2020-07-19T08:37:14Z</time>
      </trkpt>
      <trkpt lat="47.39761" lon="-0.8729">
        <ele>53.929</ele>
        <time>2020-07-19T08:37:15Z</time>
      </trkpt>
      <trkpt lat="47.39761" lon="-0.87296">
        <ele>56.148</ele>
        <time>2020-07-19T08:37:16Z</time>
      </trkpt>
      <trkpt lat="47.39763" lon="-0.873">
        <ele>54.67</ele>
        <time>2020-07-19T08:37:17Z</time>
      </trkpt>
      <trkpt lat="47.39764" lon="-0.87304">
        <ele>53.894</ele>
        <time>2020-07-19T08:37:18Z</time>
      </trkpt>
      <trkpt lat="47.39764" lon="-0.8731">
        <ele>57.918</ele>
        <time>2020-07-19T08:37:19Z</time>
      </trkpt>
      <trkpt lat="47.39764" lon="-0.87315">
        <ele>57.293</ele>
        <time>2020-07-19T08:37:20Z</time>
      </trkpt>
      <trkpt lat="47.39764" lon="-0.8732">
        <ele>55.361</ele>
        <time>2020-07-19T08:37:21Z</time>
      </trkpt>
      <trkpt lat="47.39763" lon="-0.87327">
        <ele>54.246</ele>
        <time>2020-07-19T08:37:22Z</time>
      </trkpt>
      <trkpt lat="47.39762" lon="-0.87336">
        <ele>52.945</ele>
        <time>2020-07-19T08:37:23Z</time>
      </trkpt>
      <trkpt lat="47.39763" lon="-0.87344">
        <ele>53.189</ele>
        <time>2020-07-19T08:37:24Z</time>
      </trkpt>
      <trkpt lat="47.39764" lon="-0.87354">
        <ele>53.917</ele>
        <time>2020-07-19T08:37:25Z</time>
      </trkpt>
      <trkpt lat="47.39764" lon="-0.87361">
        <ele>53.761</ele>
        <time>2020-07-19T08:37:26Z</time>
      </trkpt>
      <trkpt lat="47.39765" lon="-0.87371">
        <ele>53.019</ele>
        <time>2020-07-19T08:37:27Z</time>
      </trkpt>
      <trkpt lat="47.39765" lon="-0.87382">
        <ele>53.243</ele>
        <time>2020-07-19T08:37:28Z</time>
      </trkpt>
      <trkpt lat="47.39767" lon="-0.87388">
        <ele>53.422</ele>
        <time>2020-07-19T08:37:29Z</time>
      </trkpt>
      <trkpt lat="47.39768" lon="-0.87395">
        <ele>53.753</ele>
        <time>2020-07-19T08:37:30Z</time>
      </trkpt>
      <trkpt lat="47.3977" lon="-0.87404">
        <ele>53.797</ele>
        <time>2020-07-19T08:37:31Z</time>
      </trkpt>
      <trkpt lat="47.39771" lon="-0.87414">
        <ele>53.273</ele>
        <time>2020-07-19T08:37:32Z</time>
      </trkpt>
      <trkpt lat="47.39772" lon="-0.87424">
        <ele>53.346</ele>
        <time>2020-07-19T08:37:33Z</time>
      </trkpt>
      <trkpt lat="47.39772" lon="-0.87435">
        <ele>52.838</ele>
        <time>2020-07-19T08:37:34Z</time>
      </trkpt>
      <trkpt lat="47.39772" lon="-0.87442">
        <ele>53.797</ele>
        <time>2020-07-19T08:37:35Z</time>
      </trkpt>
      <trkpt lat="47.39772" lon="-0.8745">
        <ele>54.239</ele>
        <time>2020-07-19T08:37:36Z</time>
      </trkpt>
      <trkpt lat="47.39772" lon="-0.87458">
        <ele>54.552</ele>
        <time>2020-07-19T08:37:37Z</time>
      </trkpt>
      <trkpt lat="47.39773" lon="-0.87467">
        <ele>57.209</ele>
        <time>2020-07-19T08:37:38Z</time>
      </trkpt>
      <trkpt lat="47.39774" lon="-0.87475">
        <ele>59.172</ele>
        <time>2020-07-19T08:37:39Z</time>
      </trkpt>
      <trkpt lat="47.39775" lon="-0.87485">
        <ele>58.55</ele>
        <time>2020-07-19T08:37:40Z</time>
      </trkpt>
      <trkpt lat="47.39776" lon="-0.87494">
        <ele>58.741</ele>
        <time>2020-07-19T08:37:41Z</time>
      </trkpt>
      <trkpt lat="47.39776" lon="-0.87504">
        <ele>58.487</ele>
        <time>2020-07-19T08:37:42Z</time>
      </trkpt>
      <trkpt lat="47.39776" lon="-0.87512">
        <ele>58.897</ele>
        <time>2020-07-19T08:37:43Z</time>
      </trkpt>
      <trkpt lat="47.39779" lon="-0.87521">
        <ele>58.998</ele>
        <time>2020-07-19T08:37:44Z</time>
      </trkpt>
      <trkpt lat="47.39782" lon="-0.87527">
        <ele>54.785</ele>
        <time>2020-07-19T08:37:45Z</time>
      </trkpt>
      <trkpt lat="47.39781" lon="-0.87536">
        <ele>56.164</ele>
        <time>2020-07-19T08:37:46Z</time>
      </trkpt>
      <trkpt lat="47.39782" lon="-0.87546">
        <ele>57.772</ele>
        <time>2020-07-19T08:37:47Z</time>
      </trkpt>
      <trkpt lat="47.39783" lon="-0.87558">
        <ele>60.036</ele>
        <time>2020-07-19T08:37:48Z</time>
      </trkpt>
      <trkpt lat="47.39785" lon="-0.87564">
        <ele>59.406</ele>
        <time>2020-07-19T08:37:49Z</time>
      </trkpt>
      <trkpt lat="47.39789" lon="-0.87576">
        <ele>58.575</ele>
        <time>2020-07-19T08:37:50Z</time>
      </trkpt>
      <trkpt lat="47.3979" lon="-0.87585">
        <ele>58.003</ele>
        <time>2020-07-19T08:37:51Z</time>
      </trkpt>
      <trkpt lat="47.39793" lon="-0.87594">
        <ele>57.234</ele>
        <time>2020-07-19T08:37:52Z</time>
      </trkpt>
      <trkpt lat="47.39795" lon="-0.876">
        <ele>54.399</ele>
        <time>2020-07-19T08:37:53Z</time>
      </trkpt>
      <trkpt lat="47.39797" lon="-0.87608">
        <ele>52.735</ele>
        <time>2020-07-19T08:37:54Z</time>
      </trkpt>
      <trkpt lat="47.39797" lon="-0.87617">
        <ele>57.529</ele>
        <time>2020-07-19T08:37:55Z</time>
      </trkpt>
      <trkpt lat="47.39799" lon="-0.87625">
        <ele>56.362</ele>
        <time>2020-07-19T08:37:56Z</time>
      </trkpt>
      <trkpt lat="47.398" lon="-0.87633">
        <ele>55.584</ele>
        <time>2020-07-19T08:37:57Z</time>
      </trkpt>
      <trkpt lat="47.398" lon="-0.87642">
        <ele>55.388</ele>
        <time>2020-07-19T08:37:58Z</time>
      </trkpt>
      <trkpt lat="47.39802" lon="-0.8765">
        <ele>55.389</ele>
        <time>2020-07-19T08:37:59Z</time>
      </trkpt>
      <trkpt lat="47.39805" lon="-0.87657">
        <ele>54.896</ele>
        <time>2020-07-19T08:38:00Z</time>
      </trkpt>
      <trkpt lat="47.39806" lon="-0.87663">
        <ele>53.526</ele>
        <time>2020-07-19T08:38:01Z</time>
      </trkpt>
      <trkpt lat="47.39806" lon="-0.87671">
        <ele>52.563</ele>
        <time>2020-07-19T08:38:02Z</time>
      </trkpt>
      <trkpt lat="47.39805" lon="-0.87678">
        <ele>53.132</ele>
        <time>2020-07-19T08:38:03Z</time>
      </trkpt>
      <trkpt lat="47.39803" lon="-0.87686">
        <ele>54.231</ele>
        <time>2020-07-19T08:38:04Z</time>
      </trkpt>
      <trkpt lat="47.39802" lon="-0.87691">
        <ele>53.938</ele>
        <time>2020-07-19T08:38:05Z</time>
      </trkpt>
      <trkpt lat="47.39801" lon="-0.877">
        <ele>54.426</ele>
        <time>2020-07-19T08:38:06Z</time>
      </trkpt>
      <trkpt lat="47.39802" lon="-0.87706">
        <ele>55.605</ele>
        <time>2020-07-19T08:38:07Z</time>
      </trkpt>
      <trkpt lat="47.39804" lon="-0.87716">
        <ele>55.318</ele>
        <time>2020-07-19T08:38:08Z</time>
      </trkpt>
      <trkpt lat="47.39804" lon="-0.87723">
        <ele>54.908</ele>
        <time>2020-07-19T08:38:09Z</time>
      </trkpt>
      <trkpt lat="47.39805" lon="-0.87732">
        <ele>55.087</ele>
        <time>2020-07-19T08:38:10Z</time>
      </trkpt>
      <trkpt lat="47.39806" lon="-0.87742">
        <ele>55.565</ele>
        <time>2020-07-19T08:38:11Z</time>
      </trkpt>
      <trkpt lat="47.39806" lon="-0.87752">
        <ele>55.143</ele>
        <time>2020-07-19T08:38:12Z</time>
      </trkpt>
      <trkpt lat="47.39807" lon="-0.87761">
        <ele>54.666</ele>
        <time>2020-07-19T08:38:13Z</time>
      </trkpt>
      <trkpt lat="47.39809" lon="-0.8777">
        <ele>53.646</ele>
        <time>2020-07-19T08:38:14Z</time>
      </trkpt>
      <trkpt lat="47.3981" lon="-0.87778">
        <ele>54.448</ele>
        <time>2020-07-19T08:38:15Z</time>
      </trkpt>
      <trkpt lat="47.39813" lon="-0.87786">
        <ele>53.82</ele>
        <time>2020-07-19T08:38:16Z</time>
      </trkpt>
      <trkpt lat="47.39814" lon="-0.87796">
        <ele>54.952</ele>
        <time>2020-07-19T08:38:17Z</time>
      </trkpt>
      <trkpt lat="47.39816" lon="-0.87807">
        <ele>54.403</ele>
        <time>2020-07-19T08:38:18Z</time>
      </trkpt>
      <trkpt lat="47.39818" lon="-0.87815">
        <ele>54.682</ele>
        <time>2020-07-19T08:38:19Z</time>
      </trkpt>
      <trkpt lat="47.3982" lon="-0.87824">
        <ele>54.776</ele>
        <time>2020-07-19T08:38:20Z</time>
      </trkpt>
      <trkpt lat="47.3982" lon="-0.8783">
        <ele>57.94</ele>
        <time>2020-07-19T08:38:21Z</time>
      </trkpt>
      <trkpt lat="47.39822" lon="-0.87836">
        <ele>59.34</ele>
        <time>2020-07-19T08:38:22Z</time>
      </trkpt>
      <trkpt lat="47.39822" lon="-0.87842">
        <ele>60.576</ele>
        <time>2020-07-19T08:38:23Z</time>
      </trkpt>
      <trkpt lat="47.39821" lon="-0.87847">
        <ele>60.263</ele>
        <time>2020-07-19T08:38:24Z</time>
      </trkpt>
      <trkpt lat="47.3982" lon="-0.8785">
        <ele>59.559</ele>
        <time>2020-07-19T08:38:25Z</time>
      </trkpt>
      <trkpt lat="47.39818" lon="-0.87855">
        <ele>59.33</ele>
        <time>2020-07-19T08:38:26Z</time>
      </trkpt>
      <trkpt lat="47.3982" lon="-0.87858">
        <ele>59.438</ele>
        <time>2020-07-19T08:38:27Z</time>
      </trkpt>
      <trkpt lat="47.39821" lon="-0.87864">
        <ele>59.21</ele>
        <time>2020-07-19T08:38:28Z</time>
      </trkpt>
      <trkpt lat="47.39818" lon="-0.87873">
        <ele>60.547</ele>
        <time>2020-07-19T08:38:29Z</time>
      </trkpt>
      <trkpt lat="47.39817" lon="-0.87883">
        <ele>59.98</ele>
        <time>2020-07-19T08:38:30Z</time>
      </trkpt>
      <trkpt lat="47.39816" lon="-0.8789">
        <ele>59.876</ele>
        <time>2020-07-19T08:38:31Z</time>
      </trkpt>
      <trkpt lat="47.39816" lon="-0.87897">
        <ele>60.395</ele>
        <time>2020-07-19T08:38:32Z</time>
      </trkpt>
      <trkpt lat="47.39817" lon="-0.87905">
        <ele>61.58</ele>
        <time>2020-07-19T08:38:33Z</time>
      </trkpt>
      <trkpt lat="47.39819" lon="-0.8791">
        <ele>62.095</ele>
        <time>2020-07-19T08:38:34Z</time>
      </trkpt>
      <trkpt lat="47.39819" lon="-0.87916">
        <ele>61.555</ele>
        <time>2020-07-19T08:38:35Z</time>
      </trkpt>
      <trkpt lat="47.39818" lon="-0.8792">
        <ele>59.118</ele>
        <time>2020-07-19T08:38:36Z</time>
      </trkpt>
      <trkpt lat="47.39817" lon="-0.87927">
        <ele>59.305</ele>
        <time>2020-07-19T08:38:37Z</time>
      </trkpt>
      <trkpt lat="47.39817" lon="-0.87932">
        <ele>59.824</ele>
        <time>2020-07-19T08:38:38Z</time>
      </trkpt>
      <trkpt lat="47.39818" lon="-0.87938">
        <ele>57.526</ele>
        <time>2020-07-19T08:38:39Z</time>
      </trkpt>
      <trkpt lat="47.39818" lon="-0.87946">
        <ele>58.314</ele>
        <time>2020-07-19T08:38:40Z</time>
      </trkpt>
      <trkpt lat="47.39818" lon="-0.87952">
        <ele>59.984</ele>
        <time>2020-07-19T08:38:41Z</time>
      </trkpt>
      <trkpt lat="47.39818" lon="-0.87957">
        <ele>60.562</ele>
        <time>2020-07-19T08:38:42Z</time>
      </trkpt>
      <trkpt lat="47.39818" lon="-0.87961">
        <ele>60.396</ele>
        <time>2020-07-19T08:38:43Z</time>
      </trkpt>
      <trkpt lat="47.39819" lon="-0.87966">
        <ele>59.383</ele>
        <time>2020-07-19T08:38:44Z</time>
      </trkpt>
      <trkpt lat="47.39819" lon="-0.87969">
        <ele>59.164</ele>
        <time>2020-07-19T08:38:45Z</time>
      </trkpt>
      <trkpt lat="47.39819" lon="-0.87974">
        <ele>58.898</ele>
        <time>2020-07-19T08:38:46Z</time>
      </trkpt>
      <trkpt lat="47.39818" lon="-0.87978">
        <ele>58.492</ele>
        <time>2020-07-19T08:38:47Z</time>
      </trkpt>
      <trkpt lat="47.39818" lon="-0.87983">
        <ele>57.012</ele>
        <time>2020-07-19T08:38:48Z</time>
      </trkpt>
      <trkpt lat="47.39818" lon="-0.87988">
        <ele>58.672</ele>
        <time>2020-07-19T08:38:49Z</time>
      </trkpt>
      <trkpt lat="47.39818" lon="-0.87994">
        <ele>58.773</ele>
        <time>2020-07-19T08:38:50Z</time>
      </trkpt>
      <trkpt lat="47.39818" lon="-0.88">
        <ele>58.374</ele>
        <time>2020-07-19T08:38:51Z</time>
      </trkpt>
      <trkpt lat="47.39818" lon="-0.88006">
        <ele>58.924</ele>
        <time>2020-07-19T08:38:52Z</time>
      </trkpt>
      <trkpt lat="47.39816" lon="-0.88012">
        <ele>60.543</ele>
        <time>2020-07-19T08:38:53Z</time>
      </trkpt>
      <trkpt lat="47.39815" lon="-0.88017">
        <ele>59.582</ele>
        <time>2020-07-19T08:38:54Z</time>
      </trkpt>
      <trkpt lat="47.39813" lon="-0.88023">
        <ele>58.567</ele>
        <time>2020-07-19T08:38:55Z</time>
      </trkpt>
      <trkpt lat="47.39811" lon="-0.88028">
        <ele>55.307</ele>
        <time>2020-07-19T08:38:56Z</time>
      </trkpt>
      <trkpt lat="47.39809" lon="-0.88033">
        <ele>54.761</ele>
        <time>2020-07-19T08:38:57Z</time>
      </trkpt>
      <trkpt lat="47.39808" lon="-0.88039">
        <ele>54.909</ele>
        <time>2020-07-19T08:38:58Z</time>
      </trkpt>
      <trkpt lat="47.39807" lon="-0.88045">
        <ele>55.471</ele>
        <time>2020-07-19T08:38:59Z</time>
      </trkpt>
      <trkpt lat="47.39807" lon="-0.88051">
        <ele>52.982</ele>
        <time>2020-07-19T08:39:00Z</time>
      </trkpt>
      <trkpt lat="47.39807" lon="-0.88058">
        <ele>53.088</ele>
        <time>2020-07-19T08:39:01Z</time>
      </trkpt>
      <trkpt lat="47.39806" lon="-0.88064">
        <ele>53.631</ele>
        <time>2020-07-19T08:39:02Z</time>
      </trkpt>
      <trkpt lat="47.39803" lon="-0.88074">
        <ele>52.585</ele>
        <time>2020-07-19T08:39:03Z</time>
      </trkpt>
      <trkpt lat="47.39802" lon="-0.88082">
        <ele>53.016</ele>
        <time>2020-07-19T08:39:04Z</time>
      </trkpt>
      <trkpt lat="47.398" lon="-0.8809">
        <ele>53.684</ele>
        <time>2020-07-19T08:39:05Z</time>
      </trkpt>
      <trkpt lat="47.398" lon="-0.88096">
        <ele>52.966</ele>
        <time>2020-07-19T08:39:06Z</time>
      </trkpt>
      <trkpt lat="47.39799" lon="-0.88103">
        <ele>52.858</ele>
        <time>2020-07-19T08:39:07Z</time>
      </trkpt>
      <trkpt lat="47.39799" lon="-0.88109">
        <ele>52.732</ele>
        <time>2020-07-19T08:39:08Z</time>
      </trkpt>
      <trkpt lat="47.398" lon="-0.88117">
        <ele>52.493</ele>
        <time>2020-07-19T08:39:09Z</time>
      </trkpt>
      <trkpt lat="47.39803" lon="-0.88126">
        <ele>48.669</ele>
        <time>2020-07-19T08:39:10Z</time>
      </trkpt>
      <trkpt lat="47.39804" lon="-0.88135">
        <ele>50.16</ele>
        <time>2020-07-19T08:39:11Z</time>
      </trkpt>
      <trkpt lat="47.39806" lon="-0.88139">
        <ele>49.994</ele>
        <time>2020-07-19T08:39:12Z</time>
      </trkpt>
      <trkpt lat="47.39806" lon="-0.88144">
        <ele>50.189</ele>
        <time>2020-07-19T08:39:13Z</time>
      </trkpt>
      <trkpt lat="47.39808" lon="-0.88148">
        <ele>47.957</ele>
        <time>2020-07-19T08:39:14Z</time>
      </trkpt>
      <trkpt lat="47.39811" lon="-0.8815">
        <ele>46.219</ele>
        <time>2020-07-19T08:39:15Z</time>
      </trkpt>
      <trkpt lat="47.39813" lon="-0.88151">
        <ele>45.711</ele>
        <time>2020-07-19T08:39:16Z</time>
      </trkpt>
      <trkpt lat="47.39815" lon="-0.88153">
        <ele>46.546</ele>
        <time>2020-07-19T08:39:17Z</time>
      </trkpt>
      <trkpt lat="47.39816" lon="-0.88157">
        <ele>45.504</ele>
        <time>2020-07-19T08:39:18Z</time>
      </trkpt>
      <trkpt lat="47.39817" lon="-0.88161">
        <ele>46.32</ele>
        <time>2020-07-19T08:39:19Z</time>
      </trkpt>
      <trkpt lat="47.39817" lon="-0.88165">
        <ele>47.085</ele>
        <time>2020-07-19T08:39:20Z</time>
      </trkpt>
      <trkpt lat="47.39819" lon="-0.88169">
        <ele>47.477</ele>
        <time>2020-07-19T08:39:21Z</time>
      </trkpt>
      <trkpt lat="47.39821" lon="-0.88174">
        <ele>47.43</ele>
        <time>2020-07-19T08:39:22Z</time>
      </trkpt>
      <trkpt lat="47.39823" lon="-0.8818">
        <ele>48.598</ele>
        <time>2020-07-19T08:39:23Z</time>
      </trkpt>
      <trkpt lat="47.39825" lon="-0.88186">
        <ele>50.362</ele>
        <time>2020-07-19T08:39:24Z</time>
      </trkpt>
      <trkpt lat="47.39827" lon="-0.88191">
        <ele>49.814</ele>
        <time>2020-07-19T08:39:25Z</time>
      </trkpt>
      <trkpt lat="47.39828" lon="-0.88196">
        <ele>49.669</ele>
        <time>2020-07-19T08:39:26Z</time>
      </trkpt>
      <trkpt lat="47.3983" lon="-0.88201">
        <ele>49.652</ele>
        <time>2020-07-19T08:39:27Z</time>
      </trkpt>
      <trkpt lat="47.39831" lon="-0.88206">
        <ele>49.022</ele>
        <time>2020-07-19T08:39:28Z</time>
      </trkpt>
      <trkpt lat="47.39833" lon="-0.88212">
        <ele>48.459</ele>
        <time>2020-07-19T08:39:29Z</time>
      </trkpt>
      <trkpt lat="47.39834" lon="-0.88218">
        <ele>48.78</ele>
        <time>2020-07-19T08:39:30Z</time>
      </trkpt>
      <trkpt lat="47.39837" lon="-0.88226">
        <ele>48.863</ele>
        <time>2020-07-19T08:39:31Z</time>
      </trkpt>
      <trkpt lat="47.39839" lon="-0.8823">
        <ele>48.563</ele>
        <time>2020-07-19T08:39:32Z</time>
      </trkpt>
      <trkpt lat="47.39842" lon="-0.88235">
        <ele>49.157</ele>
        <time>2020-07-19T08:39:33Z</time>
      </trkpt>
      <trkpt lat="47.39842" lon="-0.88244">
        <ele>49.341</ele>
        <time>2020-07-19T08:39:34Z</time>
      </trkpt>
      <trkpt lat="47.39845" lon="-0.88249">
        <ele>50.28</ele>
        <time>2020-07-19T08:39:35Z</time>
      </trkpt>
      <trkpt lat="47.39846" lon="-0.88257">
        <ele>51.102</ele>
        <time>2020-07-19T08:39:36Z</time>
      </trkpt>
      <trkpt lat="47.39848" lon="-0.88261">
        <ele>50.391</ele>
        <time>2020-07-19T08:39:37Z</time>
      </trkpt>
      <trkpt lat="47.3985" lon="-0.88268">
        <ele>50.327</ele>
        <time>2020-07-19T08:39:38Z</time>
      </trkpt>
      <trkpt lat="47.39851" lon="-0.88272">
        <ele>50.256</ele>
        <time>2020-07-19T08:39:39Z</time>
      </trkpt>
      <trkpt lat="47.39855" lon="-0.88278">
        <ele>51.545</ele>
        <time>2020-07-19T08:39:40Z</time>
      </trkpt>
      <trkpt lat="47.39856" lon="-0.88283">
        <ele>52.012</ele>
        <time>2020-07-19T08:39:41Z</time>
      </trkpt>
      <trkpt lat="47.39857" lon="-0.88287">
        <ele>50.826</ele>
        <time>2020-07-19T08:39:42Z</time>
      </trkpt>
      <trkpt lat="47.39858" lon="-0.88293">
        <ele>50.572</ele>
        <time>2020-07-19T08:39:43Z</time>
      </trkpt>
      <trkpt lat="47.39859" lon="-0.88298">
        <ele>48.554</ele>
        <time>2020-07-19T08:39:44Z</time>
      </trkpt>
      <trkpt lat="47.3986" lon="-0.88304">
        <ele>49.63</ele>
        <time>2020-07-19T08:39:45Z</time>
      </trkpt>
      <trkpt lat="47.39862" lon="-0.88309">
        <ele>49.915</ele>
        <time>2020-07-19T08:39:46Z</time>
      </trkpt>
      <trkpt lat="47.39863" lon="-0.88314">
        <ele>51.078</ele>
        <time>2020-07-19T08:39:47Z</time>
      </trkpt>
      <trkpt lat="47.39865" lon="-0.88318">
        <ele>51.644</ele>
        <time>2020-07-19T08:39:48Z</time>
      </trkpt>
      <trkpt lat="47.39866" lon="-0.88323">
        <ele>49.216</ele>
        <time>2020-07-19T08:39:49Z</time>
      </trkpt>
      <trkpt lat="47.39868" lon="-0.88326">
        <ele>50.255</ele>
        <time>2020-07-19T08:39:50Z</time>
      </trkpt>
      <trkpt lat="47.3987" lon="-0.88331">
        <ele>49.689</ele>
        <time>2020-07-19T08:39:51Z</time>
      </trkpt>
      <trkpt lat="47.39871" lon="-0.88337">
        <ele>49.573</ele>
        <time>2020-07-19T08:39:52Z</time>
      </trkpt>
      <trkpt lat="47.39872" lon="-0.88343">
        <ele>50.745</ele>
        <time>2020-07-19T08:39:53Z</time>
      </trkpt>
      <trkpt lat="47.39873" lon="-0.8835">
        <ele>51.692</ele>
        <time>2020-07-19T08:39:54Z</time>
      </trkpt>
      <trkpt lat="47.39875" lon="-0.88356">
        <ele>51.411</ele>
        <time>2020-07-19T08:39:55Z</time>
      </trkpt>
      <trkpt lat="47.39877" lon="-0.88362">
        <ele>51.139</ele>
        <time>2020-07-19T08:39:56Z</time>
      </trkpt>
      <trkpt lat="47.39879" lon="-0.88368">
        <ele>50.912</ele>
        <time>2020-07-19T08:39:57Z</time>
      </trkpt>
      <trkpt lat="47.3988" lon="-0.88374">
        <ele>51.857</ele>
        <time>2020-07-19T08:39:58Z</time>
      </trkpt>
      <trkpt lat="47.39881" lon="-0.88379">
        <ele>50.875</ele>
        <time>2020-07-19T08:39:59Z</time>
      </trkpt>
      <trkpt lat="47.39883" lon="-0.88384">
        <ele>50.231</ele>
        <time>2020-07-19T08:40:00Z</time>
      </trkpt>
      <trkpt lat="47.39884" lon="-0.88389">
        <ele>50.09</ele>
        <time>2020-07-19T08:40:01Z</time>
      </trkpt>
      <trkpt lat="47.39886" lon="-0.88396">
        <ele>50.994</ele>
        <time>2020-07-19T08:40:02Z</time>
      </trkpt>
      <trkpt lat="47.39887" lon="-0.88403">
        <ele>50.625</ele>
        <time>2020-07-19T08:40:03Z</time>
      </trkpt>
      <trkpt lat="47.39889" lon="-0.88414">
        <ele>49.541</ele>
        <time>2020-07-19T08:40:04Z</time>
      </trkpt>
      <trkpt lat="47.39891" lon="-0.88421">
        <ele>50.724</ele>
        <time>2020-07-19T08:40:05Z</time>
      </trkpt>
      <trkpt lat="47.39891" lon="-0.88428">
        <ele>48.366</ele>
        <time>2020-07-19T08:40:06Z</time>
      </trkpt>
      <trkpt lat="47.39893" lon="-0.88431">
        <ele>48.914</ele>
        <time>2020-07-19T08:40:07Z</time>
      </trkpt>
      <trkpt lat="47.39894" lon="-0.88438">
        <ele>48.154</ele>
        <time>2020-07-19T08:40:08Z</time>
      </trkpt>
      <trkpt lat="47.39895" lon="-0.88444">
        <ele>49.303</ele>
        <time>2020-07-19T08:40:09Z</time>
      </trkpt>
      <trkpt lat="47.39897" lon="-0.8845">
        <ele>48.611</ele>
        <time>2020-07-19T08:40:10Z</time>
      </trkpt>
      <trkpt lat="47.39897" lon="-0.88456">
        <ele>49.277</ele>
        <time>2020-07-19T08:40:11Z</time>
      </trkpt>
      <trkpt lat="47.39899" lon="-0.88462">
        <ele>49.583</ele>
        <time>2020-07-19T08:40:12Z</time>
      </trkpt>
      <trkpt lat="47.39901" lon="-0.8847">
        <ele>49.774</ele>
        <time>2020-07-19T08:40:13Z</time>
      </trkpt>
      <trkpt lat="47.39902" lon="-0.88476">
        <ele>50.579</ele>
        <time>2020-07-19T08:40:14Z</time>
      </trkpt>
      <trkpt lat="47.39901" lon="-0.88482">
        <ele>51.737</ele>
        <time>2020-07-19T08:40:15Z</time>
      </trkpt>
      <trkpt lat="47.39901" lon="-0.8849">
        <ele>51.594</ele>
        <time>2020-07-19T08:40:16Z</time>
      </trkpt>
      <trkpt lat="47.39901" lon="-0.88496">
        <ele>52.975</ele>
        <time>2020-07-19T08:40:17Z</time>
      </trkpt>
      <trkpt lat="47.39902" lon="-0.88505">
        <ele>52.545</ele>
        <time>2020-07-19T08:40:18Z</time>
      </trkpt>
      <trkpt lat="47.39905" lon="-0.88513">
        <ele>54.839</ele>
        <time>2020-07-19T08:40:19Z</time>
      </trkpt>
      <trkpt lat="47.39906" lon="-0.8852">
        <ele>54.94</ele>
        <time>2020-07-19T08:40:20Z</time>
      </trkpt>
      <trkpt lat="47.39907" lon="-0.88526">
        <ele>58.456</ele>
        <time>2020-07-19T08:40:21Z</time>
      </trkpt>
      <trkpt lat="47.39909" lon="-0.8853">
        <ele>57.156</ele>
        <time>2020-07-19T08:40:22Z</time>
      </trkpt>
      <trkpt lat="47.3991" lon="-0.88536">
        <ele>57.259</ele>
        <time>2020-07-19T08:40:23Z</time>
      </trkpt>
      <trkpt lat="47.39912" lon="-0.8854">
        <ele>57.395</ele>
        <time>2020-07-19T08:40:24Z</time>
      </trkpt>
      <trkpt lat="47.39914" lon="-0.88544">
        <ele>54.724</ele>
        <time>2020-07-19T08:40:25Z</time>
      </trkpt>
      <trkpt lat="47.39915" lon="-0.88549">
        <ele>54.286</ele>
        <time>2020-07-19T08:40:26Z</time>
      </trkpt>
      <trkpt lat="47.39917" lon="-0.88555">
        <ele>53.961</ele>
        <time>2020-07-19T08:40:27Z</time>
      </trkpt>
      <trkpt lat="47.3992" lon="-0.88561">
        <ele>55.123</ele>
        <time>2020-07-19T08:40:28Z</time>
      </trkpt>
      <trkpt lat="47.39922" lon="-0.88568">
        <ele>56.073</ele>
        <time>2020-07-19T08:40:29Z</time>
      </trkpt>
      <trkpt lat="47.39923" lon="-0.88574">
        <ele>55.38</ele>
        <time>2020-07-19T08:40:30Z</time>
      </trkpt>
      <trkpt lat="47.39925" lon="-0.8858">
        <ele>55.4</ele>
        <time>2020-07-19T08:40:31Z</time>
      </trkpt>
      <trkpt lat="47.39927" lon="-0.88586">
        <ele>57.607</ele>
        <time>2020-07-19T08:40:32Z</time>
      </trkpt>
      <trkpt lat="47.39929" lon="-0.88592">
        <ele>56.781</ele>
        <time>2020-07-19T08:40:33Z</time>
      </trkpt>
      <trkpt lat="47.39932" lon="-0.88601">
        <ele>58.074</ele>
        <time>2020-07-19T08:40:34Z</time>
      </trkpt>
      <trkpt lat="47.39935" lon="-0.88606">
        <ele>58.601</ele>
        <time>2020-07-19T08:40:35Z</time>
      </trkpt>
      <trkpt lat="47.39937" lon="-0.88611">
        <ele>58.975</ele>
        <time>2020-07-19T08:40:36Z</time>
      </trkpt>
      <trkpt lat="47.39939" lon="-0.88617">
        <ele>60.468</ele>
        <time>2020-07-19T08:40:37Z</time>
      </trkpt>
      <trkpt lat="47.39941" lon="-0.88623">
        <ele>59.762</ele>
        <time>2020-07-19T08:40:38Z</time>
      </trkpt>
      <trkpt lat="47.39946" lon="-0.88626">
        <ele>55.457</ele>
        <time>2020-07-19T08:40:39Z</time>
      </trkpt>
      <trkpt lat="47.39948" lon="-0.88631">
        <ele>54.443</ele>
        <time>2020-07-19T08:40:40Z</time>
      </trkpt>
      <trkpt lat="47.3995" lon="-0.88637">
        <ele>55.672</ele>
        <time>2020-07-19T08:40:41Z</time>
      </trkpt>
      <trkpt lat="47.3995" lon="-0.88641">
        <ele>52.895</ele>
        <time>2020-07-19T08:40:42Z</time>
      </trkpt>
      <trkpt lat="47.39952" lon="-0.88647">
        <ele>52.97</ele>
        <time>2020-07-19T08:40:43Z</time>
      </trkpt>
      <trkpt lat="47.39958" lon="-0.88656">
        <ele>53.417</ele>
        <time>2020-07-19T08:40:46Z</time>
      </trkpt>
      <trkpt lat="47.3996" lon="-0.88662">
        <ele>52.437</ele>
        <time>2020-07-19T08:40:46Z</time>
      </trkpt>
      <trkpt lat="47.39962" lon="-0.88665">
        <ele>50.721</ele>
        <time>2020-07-19T08:40:47Z</time>
      </trkpt>
      <trkpt lat="47.39965" lon="-0.88667">
        <ele>50.39</ele>
        <time>2020-07-19T08:40:48Z</time>
      </trkpt>
      <trkpt lat="47.39969" lon="-0.8867">
        <ele>48.926</ele>
        <time>2020-07-19T08:40:49Z</time>
      </trkpt>
      <trkpt lat="47.39973" lon="-0.88673">
        <ele>48.125</ele>
        <time>2020-07-19T08:40:50Z</time>
      </trkpt>
      <trkpt lat="47.39976" lon="-0.88676">
        <ele>47.206</ele>
        <time>2020-07-19T08:40:51Z</time>
      </trkpt>
      <trkpt lat="47.3998" lon="-0.88679">
        <ele>48.327</ele>
        <time>2020-07-19T08:40:52Z</time>
      </trkpt>
      <trkpt lat="47.39982" lon="-0.88684">
        <ele>48.452</ele>
        <time>2020-07-19T08:40:53Z</time>
      </trkpt>
      <trkpt lat="47.39985" lon="-0.88689">
        <ele>48.417</ele>
        <time>2020-07-19T08:40:54Z</time>
      </trkpt>
      <trkpt lat="47.39987" lon="-0.88694">
        <ele>48.482</ele>
        <time>2020-07-19T08:40:55Z</time>
      </trkpt>
      <trkpt lat="47.39989" lon="-0.887">
        <ele>47.267</ele>
        <time>2020-07-19T08:40:56Z</time>
      </trkpt>
      <trkpt lat="47.39991" lon="-0.88712">
        <ele>48.197</ele>
        <time>2020-07-19T08:40:57Z</time>
      </trkpt>
      <trkpt lat="47.39996" lon="-0.88718">
        <ele>48.188</ele>
        <time>2020-07-19T08:40:58Z</time>
      </trkpt>
      <trkpt lat="47.39996" lon="-0.88724">
        <ele>48.938</ele>
        <time>2020-07-19T08:40:59Z</time>
      </trkpt>
      <trkpt lat="47.39999" lon="-0.88732">
        <ele>50.091</ele>
        <time>2020-07-19T08:41:00Z</time>
      </trkpt>
      <trkpt lat="47.4" lon="-0.88736">
        <ele>49.886</ele>
        <time>2020-07-19T08:41:01Z</time>
      </trkpt>
      <trkpt lat="47.40002" lon="-0.88742">
        <ele>50.093</ele>
        <time>2020-07-19T08:41:02Z</time>
      </trkpt>
      <trkpt lat="47.40004" lon="-0.88747">
        <ele>51.098</ele>
        <time>2020-07-19T08:41:03Z</time>
      </trkpt>
      <trkpt lat="47.40006" lon="-0.88752">
        <ele>54.184</ele>
        <time>2020-07-19T08:41:04Z</time>
      </trkpt>
      <trkpt lat="47.40012" lon="-0.8876">
        <ele>53.346</ele>
        <time>2020-07-19T08:41:05Z</time>
      </trkpt>
      <trkpt lat="47.40013" lon="-0.88767">
        <ele>52.498</ele>
        <time>2020-07-19T08:41:06Z</time>
      </trkpt>
      <trkpt lat="47.40016" lon="-0.88772">
        <ele>51.239</ele>
        <time>2020-07-19T08:41:07Z</time>
      </trkpt>
      <trkpt lat="47.40019" lon="-0.88776">
        <ele>51.071</ele>
        <time>2020-07-19T08:41:08Z</time>
      </trkpt>
      <trkpt lat="47.40022" lon="-0.88782">
        <ele>51.403</ele>
        <time>2020-07-19T08:41:09Z</time>
      </trkpt>
      <trkpt lat="47.40026" lon="-0.88788">
        <ele>52.05</ele>
        <time>2020-07-19T08:41:10Z</time>
      </trkpt>
      <trkpt lat="47.40028" lon="-0.88797">
        <ele>51.191</ele>
        <time>2020-07-19T08:41:11Z</time>
      </trkpt>
      <trkpt lat="47.40031" lon="-0.88807">
        <ele>50.161</ele>
        <time>2020-07-19T08:41:12Z</time>
      </trkpt>
      <trkpt lat="47.40033" lon="-0.88811">
        <ele>50.649</ele>
        <time>2020-07-19T08:41:13Z</time>
      </trkpt>
      <trkpt lat="47.40036" lon="-0.88816">
        <ele>51.055</ele>
        <time>2020-07-19T08:41:14Z</time>
      </trkpt>
      <trkpt lat="47.40037" lon="-0.88821">
        <ele>51.372</ele>
        <time>2020-07-19T08:41:15Z</time>
      </trkpt>
      <trkpt lat="47.40039" lon="-0.88829">
        <ele>51.495</ele>
        <time>2020-07-19T08:41:16Z</time>
      </trkpt>
      <trkpt lat="47.40041" lon="-0.88836">
        <ele>52.336</ele>
        <time>2020-07-19T08:41:17Z</time>
      </trkpt>
      <trkpt lat="47.40042" lon="-0.88844">
        <ele>54.01</ele>
        <time>2020-07-19T08:41:18Z</time>
      </trkpt>
      <trkpt lat="47.40044" lon="-0.88852">
        <ele>54.005</ele>
        <time>2020-07-19T08:41:19Z</time>
      </trkpt>
      <trkpt lat="47.40045" lon="-0.88858">
        <ele>53.643</ele>
        <time>2020-07-19T08:41:20Z</time>
      </trkpt>
      <trkpt lat="47.40047" lon="-0.88867">
        <ele>54.584</ele>
        <time>2020-07-19T08:41:21Z</time>
      </trkpt>
      <trkpt lat="47.4005" lon="-0.88873">
        <ele>54.172</ele>
        <time>2020-07-19T08:41:22Z</time>
      </trkpt>
      <trkpt lat="47.40053" lon="-0.8888">
        <ele>54.083</ele>
        <time>2020-07-19T08:41:23Z</time>
      </trkpt>
      <trkpt lat="47.40055" lon="-0.8888">
        <ele>53.771</ele>
        <time>2020-07-19T08:41:24Z</time>
      </trkpt>
      <trkpt lat="47.40057" lon="-0.88886">
        <ele>54.591</ele>
        <time>2020-07-19T08:41:25Z</time>
      </trkpt>
      <trkpt lat="47.4006" lon="-0.88894">
        <ele>54.593</ele>
        <time>2020-07-19T08:41:26Z</time>
      </trkpt>
      <trkpt lat="47.40063" lon="-0.88901">
        <ele>53.34</ele>
        <time>2020-07-19T08:41:27Z</time>
      </trkpt>
      <trkpt lat="47.40065" lon="-0.88908">
        <ele>53.748</ele>
        <time>2020-07-19T08:41:28Z</time>
      </trkpt>
      <trkpt lat="47.40067" lon="-0.88915">
        <ele>55.395</ele>
        <time>2020-07-19T08:41:29Z</time>
      </trkpt>
      <trkpt lat="47.40071" lon="-0.88916">
        <ele>54.794</ele>
        <time>2020-07-19T08:41:30Z</time>
      </trkpt>
      <trkpt lat="47.40072" lon="-0.8892">
        <ele>54.278</ele>
        <time>2020-07-19T08:41:31Z</time>
      </trkpt>
      <trkpt lat="47.40072" lon="-0.88925">
        <ele>53.584</ele>
        <time>2020-07-19T08:41:32Z</time>
      </trkpt>
      <trkpt lat="47.40074" lon="-0.88932">
        <ele>51.122</ele>
        <time>2020-07-19T08:41:33Z</time>
      </trkpt>
      <trkpt lat="47.40076" lon="-0.88936">
        <ele>49.016</ele>
        <time>2020-07-19T08:41:34Z</time>
      </trkpt>
      <trkpt lat="47.40078" lon="-0.88941">
        <ele>47.237</ele>
        <time>2020-07-19T08:41:35Z</time>
      </trkpt>
      <trkpt lat="47.40081" lon="-0.88945">
        <ele>48.3</ele>
        <time>2020-07-19T08:41:36Z</time>
      </trkpt>
      <trkpt lat="47.40084" lon="-0.88948">
        <ele>46.268</ele>
        <time>2020-07-19T08:41:37Z</time>
      </trkpt>
      <trkpt lat="47.40085" lon="-0.8895">
        <ele>47.242</ele>
        <time>2020-07-19T08:41:38Z</time>
      </trkpt>
      <trkpt lat="47.40087" lon="-0.88952">
        <ele>46.093</ele>
        <time>2020-07-19T08:41:39Z</time>
      </trkpt>
      <trkpt lat="47.40088" lon="-0.88955">
        <ele>46.086</ele>
        <time>2020-07-19T08:41:40Z</time>
      </trkpt>
      <trkpt lat="47.40088" lon="-0.88957">
        <ele>46.658</ele>
        <time>2020-07-19T08:41:41Z</time>
      </trkpt>
      <trkpt lat="47.40088" lon="-0.88958">
        <ele>47.909</ele>
        <time>2020-07-19T08:41:42Z</time>
      </trkpt>
      <trkpt lat="47.40087" lon="-0.8896">
        <ele>49.122</ele>
        <time>2020-07-19T08:41:44Z</time>
      </trkpt>
      <trkpt lat="47.40086" lon="-0.88961">
        <ele>49.61</ele>
        <time>2020-07-19T08:41:45Z</time>
      </trkpt>
      <trkpt lat="47.40086" lon="-0.88961">
        <ele>49.459</ele>
        <time>2020-07-19T08:41:46Z</time>
      </trkpt>
      <trkpt lat="47.40086" lon="-0.88962">
        <ele>49.787</ele>
        <time>2020-07-19T08:41:47Z</time>
      </trkpt>
      <trkpt lat="47.40086" lon="-0.88962">
        <ele>50.187</ele>
        <time>2020-07-19T08:41:48Z</time>
      </trkpt>
      <trkpt lat="47.40086" lon="-0.88962">
        <ele>50.514</ele>
        <time>2020-07-19T08:41:49Z</time>
      </trkpt>
      <trkpt lat="47.40085" lon="-0.88963">
        <ele>51.003</ele>
        <time>2020-07-19T08:41:51Z</time>
      </trkpt>
      <trkpt lat="47.40085" lon="-0.88963">
        <ele>51.002</ele>
        <time>2020-07-19T08:41:52Z</time>
      </trkpt>
      <trkpt lat="47.40085" lon="-0.88963">
        <ele>51.102</ele>
        <time>2020-07-19T08:41:53Z</time>
      </trkpt>
      <trkpt lat="47.40085" lon="-0.88963">
        <ele>50.798</ele>
        <time>2020-07-19T08:41:54Z</time>
      </trkpt>
      <trkpt lat="47.40085" lon="-0.88963">
        <ele>51.117</ele>
        <time>2020-07-19T08:41:55Z</time>
      </trkpt>
      <trkpt lat="47.40085" lon="-0.88963">
        <ele>51.499</ele>
        <time>2020-07-19T08:41:56Z</time>
      </trkpt>
      <trkpt lat="47.40085" lon="-0.88963">
        <ele>51.755</ele>
        <time>2020-07-19T08:41:57Z</time>
      </trkpt>
      <trkpt lat="47.40085" lon="-0.88964">
        <ele>51.983</ele>
        <time>2020-07-19T08:41:58Z</time>
      </trkpt>
      <trkpt lat="47.40085" lon="-0.88964">
        <ele>52.195</ele>
        <time>2020-07-19T08:41:59Z</time>
      </trkpt>
      <trkpt lat="47.40085" lon="-0.88964">
        <ele>52.257</ele>
        <time>2020-07-19T08:42:00Z</time>
      </trkpt>
      <trkpt lat="47.40084" lon="-0.88964">
        <ele>52.302</ele>
        <time>2020-07-19T08:42:01Z</time>
      </trkpt>
      <trkpt lat="47.40085" lon="-0.88967">
        <ele>52.082</ele>
        <time>2020-07-19T08:42:02Z</time>
      </trkpt>
      <trkpt lat="47.40086" lon="-0.88971">
        <ele>51.375</ele>
        <time>2020-07-19T08:42:03Z</time>
      </trkpt>
      <trkpt lat="47.40087" lon="-0.88974">
        <ele>52.367</ele>
        <time>2020-07-19T08:42:04Z</time>
      </trkpt>
      <trkpt lat="47.40088" lon="-0.88978">
        <ele>52.255</ele>
        <time>2020-07-19T08:42:05Z</time>
      </trkpt>
      <trkpt lat="47.40089" lon="-0.88982">
        <ele>51.656</ele>
        <time>2020-07-19T08:42:06Z</time>
      </trkpt>
      <trkpt lat="47.4009" lon="-0.88986">
        <ele>51.479</ele>
        <time>2020-07-19T08:42:07Z</time>
      </trkpt>
      <trkpt lat="47.4009" lon="-0.8899">
        <ele>50.565</ele>
        <time>2020-07-19T08:42:08Z</time>
      </trkpt>
      <trkpt lat="47.40092" lon="-0.88993">
        <ele>51.101</ele>
        <time>2020-07-19T08:42:09Z</time>
      </trkpt>
      <trkpt lat="47.40092" lon="-0.88996">
        <ele>50.566</ele>
        <time>2020-07-19T08:42:10Z</time>
      </trkpt>
      <trkpt lat="47.40093" lon="-0.88999">
        <ele>50.399</ele>
        <time>2020-07-19T08:42:11Z</time>
      </trkpt>
      <trkpt lat="47.40093" lon="-0.89002">
        <ele>50.121</ele>
        <time>2020-07-19T08:42:12Z</time>
      </trkpt>
      <trkpt lat="47.40093" lon="-0.89005">
        <ele>49.955</ele>
        <time>2020-07-19T08:42:13Z</time>
      </trkpt>
      <trkpt lat="47.40093" lon="-0.89008">
        <ele>48.98</ele>
        <time>2020-07-19T08:42:14Z</time>
      </trkpt>
      <trkpt lat="47.40095" lon="-0.89012">
        <ele>50.527</ele>
        <time>2020-07-19T08:42:15Z</time>
      </trkpt>
      <trkpt lat="47.40097" lon="-0.89016">
        <ele>51.099</ele>
        <time>2020-07-19T08:42:16Z</time>
      </trkpt>
      <trkpt lat="47.40098" lon="-0.8902">
        <ele>52.478</ele>
        <time>2020-07-19T08:42:17Z</time>
      </trkpt>
      <trkpt lat="47.401" lon="-0.89024">
        <ele>53</ele>
        <time>2020-07-19T08:42:18Z</time>
      </trkpt>
      <trkpt lat="47.40102" lon="-0.89028">
        <ele>54.711</ele>
        <time>2020-07-19T08:42:19Z</time>
      </trkpt>
      <trkpt lat="47.40103" lon="-0.89033">
        <ele>54.801</ele>
        <time>2020-07-19T08:42:20Z</time>
      </trkpt>
      <trkpt lat="47.40104" lon="-0.89039">
        <ele>56.072</ele>
        <time>2020-07-19T08:42:21Z</time>
      </trkpt>
      <trkpt lat="47.40105" lon="-0.89044">
        <ele>54.691</ele>
        <time>2020-07-19T08:42:22Z</time>
      </trkpt>
      <trkpt lat="47.40105" lon="-0.89049">
        <ele>55.72</ele>
        <time>2020-07-19T08:42:23Z</time>
      </trkpt>
      <trkpt lat="47.40105" lon="-0.89053">
        <ele>55.34</ele>
        <time>2020-07-19T08:42:24Z</time>
      </trkpt>
      <trkpt lat="47.40106" lon="-0.89056">
        <ele>55.4</ele>
        <time>2020-07-19T08:42:25Z</time>
      </trkpt>
      <trkpt lat="47.40107" lon="-0.8906">
        <ele>58.04</ele>
        <time>2020-07-19T08:42:26Z</time>
      </trkpt>
      <trkpt lat="47.40108" lon="-0.89064">
        <ele>58.837</ele>
        <time>2020-07-19T08:42:27Z</time>
      </trkpt>
      <trkpt lat="47.40109" lon="-0.8907">
        <ele>54.09</ele>
        <time>2020-07-19T08:42:28Z</time>
      </trkpt>
      <trkpt lat="47.40111" lon="-0.89076">
        <ele>54.381</ele>
        <time>2020-07-19T08:42:29Z</time>
      </trkpt>
      <trkpt lat="47.40112" lon="-0.89082">
        <ele>56.216</ele>
        <time>2020-07-19T08:42:30Z</time>
      </trkpt>
      <trkpt lat="47.40114" lon="-0.89087">
        <ele>57.67</ele>
        <time>2020-07-19T08:42:31Z</time>
      </trkpt>
      <trkpt lat="47.40115" lon="-0.89092">
        <ele>56.561</ele>
        <time>2020-07-19T08:42:32Z</time>
      </trkpt>
      <trkpt lat="47.40116" lon="-0.89096">
        <ele>55.374</ele>
        <time>2020-07-19T08:42:33Z</time>
      </trkpt>
      <trkpt lat="47.40117" lon="-0.89099">
        <ele>55.533</ele>
        <time>2020-07-19T08:42:34Z</time>
      </trkpt>
      <trkpt lat="47.40118" lon="-0.89103">
        <ele>55.131</ele>
        <time>2020-07-19T08:42:35Z</time>
      </trkpt>
      <trkpt lat="47.40119" lon="-0.89107">
        <ele>55.766</ele>
        <time>2020-07-19T08:42:36Z</time>
      </trkpt>
      <trkpt lat="47.4012" lon="-0.8911">
        <ele>56.467</ele>
        <time>2020-07-19T08:42:37Z</time>
      </trkpt>
      <trkpt lat="47.40121" lon="-0.89113">
        <ele>56.572</ele>
        <time>2020-07-19T08:42:38Z</time>
      </trkpt>
      <trkpt lat="47.40122" lon="-0.89116">
        <ele>56.462</ele>
        <time>2020-07-19T08:42:39Z</time>
      </trkpt>
      <trkpt lat="47.40122" lon="-0.89119">
        <ele>54.58</ele>
        <time>2020-07-19T08:42:40Z</time>
      </trkpt>
      <trkpt lat="47.40123" lon="-0.89124">
        <ele>53.825</ele>
        <time>2020-07-19T08:42:41Z</time>
      </trkpt>
      <trkpt lat="47.40124" lon="-0.89129">
        <ele>54.361</ele>
        <time>2020-07-19T08:42:42Z</time>
      </trkpt>
      <trkpt lat="47.40125" lon="-0.89133">
        <ele>55.102</ele>
        <time>2020-07-19T08:42:43Z</time>
      </trkpt>
      <trkpt lat="47.40126" lon="-0.89136">
        <ele>55.246</ele>
        <time>2020-07-19T08:42:44Z</time>
      </trkpt>
      <trkpt lat="47.40127" lon="-0.8914">
        <ele>51.758</ele>
        <time>2020-07-19T08:42:45Z</time>
      </trkpt>
      <trkpt lat="47.40127" lon="-0.89144">
        <ele>52.936</ele>
        <time>2020-07-19T08:42:46Z</time>
      </trkpt>
      <trkpt lat="47.40127" lon="-0.89147">
        <ele>54.265</ele>
        <time>2020-07-19T08:42:47Z</time>
      </trkpt>
      <trkpt lat="47.40127" lon="-0.8915">
        <ele>54.342</ele>
        <time>2020-07-19T08:42:48Z</time>
      </trkpt>
      <trkpt lat="47.40127" lon="-0.89154">
        <ele>55.061</ele>
        <time>2020-07-19T08:42:49Z</time>
      </trkpt>
      <trkpt lat="47.40127" lon="-0.89159">
        <ele>55.272</ele>
        <time>2020-07-19T08:42:50Z</time>
      </trkpt>
      <trkpt lat="47.40127" lon="-0.89164">
        <ele>55.116</ele>
        <time>2020-07-19T08:42:51Z</time>
      </trkpt>
      <trkpt lat="47.40127" lon="-0.89169">
        <ele>55.975</ele>
        <time>2020-07-19T08:42:52Z</time>
      </trkpt>
      <trkpt lat="47.40128" lon="-0.89173">
        <ele>57.378</ele>
        <time>2020-07-19T08:42:53Z</time>
      </trkpt>
      <trkpt lat="47.40129" lon="-0.89178">
        <ele>57.128</ele>
        <time>2020-07-19T08:42:54Z</time>
      </trkpt>
      <trkpt lat="47.40131" lon="-0.89183">
        <ele>55.04</ele>
        <time>2020-07-19T08:42:55Z</time>
      </trkpt>
      <trkpt lat="47.40133" lon="-0.89188">
        <ele>56.989</ele>
        <time>2020-07-19T08:42:56Z</time>
      </trkpt>
      <trkpt lat="47.40134" lon="-0.89193">
        <ele>58.511</ele>
        <time>2020-07-19T08:42:57Z</time>
      </trkpt>
      <trkpt lat="47.40135" lon="-0.89197">
        <ele>64.612</ele>
        <time>2020-07-19T08:42:58Z</time>
      </trkpt>
      <trkpt lat="47.40136" lon="-0.89199">
        <ele>63.08</ele>
        <time>2020-07-19T08:42:59Z</time>
      </trkpt>
      <trkpt lat="47.40136" lon="-0.89202">
        <ele>62.009</ele>
        <time>2020-07-19T08:43:00Z</time>
      </trkpt>
      <trkpt lat="47.40138" lon="-0.89204">
        <ele>60.667</ele>
        <time>2020-07-19T08:43:01Z</time>
      </trkpt>
      <trkpt lat="47.40138" lon="-0.89205">
        <ele>60.166</ele>
        <time>2020-07-19T08:43:02Z</time>
      </trkpt>
      <trkpt lat="47.40139" lon="-0.89212">
        <ele>58.954</ele>
        <time>2020-07-19T08:43:04Z</time>
      </trkpt>
      <trkpt lat="47.4014" lon="-0.89216">
        <ele>59.001</ele>
        <time>2020-07-19T08:43:05Z</time>
      </trkpt>
      <trkpt lat="47.40141" lon="-0.89219">
        <ele>59.908</ele>
        <time>2020-07-19T08:43:06Z</time>
      </trkpt>
      <trkpt lat="47.40142" lon="-0.89222">
        <ele>59.671</ele>
        <time>2020-07-19T08:43:07Z</time>
      </trkpt>
      <trkpt lat="47.40143" lon="-0.89224">
        <ele>58.309</ele>
        <time>2020-07-19T08:43:08Z</time>
      </trkpt>
      <trkpt lat="47.40144" lon="-0.89227">
        <ele>58.049</ele>
        <time>2020-07-19T08:43:11Z</time>
      </trkpt>
      <trkpt lat="47.40144" lon="-0.89229">
        <ele>58.452</ele>
        <time>2020-07-19T08:43:11Z</time>
      </trkpt>
      <trkpt lat="47.40144" lon="-0.89232">
        <ele>56.689</ele>
        <time>2020-07-19T08:43:12Z</time>
      </trkpt>
      <trkpt lat="47.40143" lon="-0.89236">
        <ele>58.848</ele>
        <time>2020-07-19T08:43:13Z</time>
      </trkpt>
      <trkpt lat="47.40144" lon="-0.89238">
        <ele>56.967</ele>
        <time>2020-07-19T08:43:14Z</time>
      </trkpt>
      <trkpt lat="47.40145" lon="-0.8924">
        <ele>56.617</ele>
        <time>2020-07-19T08:43:15Z</time>
      </trkpt>
      <trkpt lat="47.40146" lon="-0.89241">
        <ele>55.76</ele>
        <time>2020-07-19T08:43:16Z</time>
      </trkpt>
      <trkpt lat="47.40147" lon="-0.89243">
        <ele>55.394</ele>
        <time>2020-07-19T08:43:17Z</time>
      </trkpt>
      <trkpt lat="47.40147" lon="-0.89245">
        <ele>54.487</ele>
        <time>2020-07-19T08:43:18Z</time>
      </trkpt>
      <trkpt lat="47.40147" lon="-0.89248">
        <ele>54.377</ele>
        <time>2020-07-19T08:43:19Z</time>
      </trkpt>
      <trkpt lat="47.40147" lon="-0.89251">
        <ele>54.739</ele>
        <time>2020-07-19T08:43:20Z</time>
      </trkpt>
      <trkpt lat="47.40146" lon="-0.89253">
        <ele>55.362</ele>
        <time>2020-07-19T08:43:21Z</time>
      </trkpt>
      <trkpt lat="47.40145" lon="-0.89261">
        <ele>56.639</ele>
        <time>2020-07-19T08:43:24Z</time>
      </trkpt>
      <trkpt lat="47.40145" lon="-0.89264">
        <ele>56.9</ele>
        <time>2020-07-19T08:43:25Z</time>
      </trkpt>
      <trkpt lat="47.40146" lon="-0.89267">
        <ele>57.304</ele>
        <time>2020-07-19T08:43:26Z</time>
      </trkpt>
      <trkpt lat="47.40146" lon="-0.89269">
        <ele>56.693</ele>
        <time>2020-07-19T08:43:27Z</time>
      </trkpt>
      <trkpt lat="47.40147" lon="-0.89271">
        <ele>57.961</ele>
        <time>2020-07-19T08:43:28Z</time>
      </trkpt>
      <trkpt lat="47.40148" lon="-0.89273">
        <ele>58.885</ele>
        <time>2020-07-19T08:43:29Z</time>
      </trkpt>
      <trkpt lat="47.40149" lon="-0.89275">
        <ele>58.914</ele>
        <time>2020-07-19T08:43:30Z</time>
      </trkpt>
      <trkpt lat="47.4015" lon="-0.89277">
        <ele>58.764</ele>
        <time>2020-07-19T08:43:31Z</time>
      </trkpt>
      <trkpt lat="47.40151" lon="-0.8928">
        <ele>58.991</ele>
        <time>2020-07-19T08:43:32Z</time>
      </trkpt>
      <trkpt lat="47.40152" lon="-0.89283">
        <ele>59.425</ele>
        <time>2020-07-19T08:43:33Z</time>
      </trkpt>
      <trkpt lat="47.40153" lon="-0.89286">
        <ele>59.767</ele>
        <time>2020-07-19T08:43:34Z</time>
      </trkpt>
      <trkpt lat="47.40154" lon="-0.89289">
        <ele>59.956</ele>
        <time>2020-07-19T08:43:35Z</time>
      </trkpt>
      <trkpt lat="47.40155" lon="-0.89292">
        <ele>59.257</ele>
        <time>2020-07-19T08:43:36Z</time>
      </trkpt>
      <trkpt lat="47.40156" lon="-0.89295">
        <ele>59.156</ele>
        <time>2020-07-19T08:43:37Z</time>
      </trkpt>
      <trkpt lat="47.40156" lon="-0.89298">
        <ele>58.848</ele>
        <time>2020-07-19T08:43:38Z</time>
      </trkpt>
      <trkpt lat="47.40157" lon="-0.89302">
        <ele>59.122</ele>
        <time>2020-07-19T08:43:39Z</time>
      </trkpt>
      <trkpt lat="47.40158" lon="-0.89306">
        <ele>58.786</ele>
        <time>2020-07-19T08:43:40Z</time>
      </trkpt>
      <trkpt lat="47.40159" lon="-0.89309">
        <ele>58.557</ele>
        <time>2020-07-19T08:43:41Z</time>
      </trkpt>
      <trkpt lat="47.40159" lon="-0.89313">
        <ele>57.396</ele>
        <time>2020-07-19T08:43:42Z</time>
      </trkpt>
      <trkpt lat="47.4016" lon="-0.89316">
        <ele>56.408</ele>
        <time>2020-07-19T08:43:43Z</time>
      </trkpt>
      <trkpt lat="47.40161" lon="-0.89319">
        <ele>56.262</ele>
        <time>2020-07-19T08:43:44Z</time>
      </trkpt>
      <trkpt lat="47.40162" lon="-0.89322">
        <ele>56.129</ele>
        <time>2020-07-19T08:43:45Z</time>
      </trkpt>
      <trkpt lat="47.40163" lon="-0.89326">
        <ele>55.925</ele>
        <time>2020-07-19T08:43:46Z</time>
      </trkpt>
      <trkpt lat="47.40164" lon="-0.89329">
        <ele>55.88</ele>
        <time>2020-07-19T08:43:47Z</time>
      </trkpt>
      <trkpt lat="47.40166" lon="-0.89332">
        <ele>56.145</ele>
        <time>2020-07-19T08:43:48Z</time>
      </trkpt>
      <trkpt lat="47.40168" lon="-0.89336">
        <ele>56.075</ele>
        <time>2020-07-19T08:43:49Z</time>
      </trkpt>
      <trkpt lat="47.40169" lon="-0.89339">
        <ele>56.61</ele>
        <time>2020-07-19T08:43:50Z</time>
      </trkpt>
      <trkpt lat="47.40171" lon="-0.89341">
        <ele>56.912</ele>
        <time>2020-07-19T08:43:51Z</time>
      </trkpt>
      <trkpt lat="47.40173" lon="-0.89344">
        <ele>56.535</ele>
        <time>2020-07-19T08:43:52Z</time>
      </trkpt>
      <trkpt lat="47.40175" lon="-0.89346">
        <ele>55.908</ele>
        <time>2020-07-19T08:43:53Z</time>
      </trkpt>
      <trkpt lat="47.40177" lon="-0.89348">
        <ele>55.153</ele>
        <time>2020-07-19T08:43:54Z</time>
      </trkpt>
      <trkpt lat="47.40179" lon="-0.89349">
        <ele>55.664</ele>
        <time>2020-07-19T08:43:55Z</time>
      </trkpt>
      <trkpt lat="47.40181" lon="-0.89351">
        <ele>56.281</ele>
        <time>2020-07-19T08:43:56Z</time>
      </trkpt>
      <trkpt lat="47.40183" lon="-0.89353">
        <ele>57.152</ele>
        <time>2020-07-19T08:43:57Z</time>
      </trkpt>
      <trkpt lat="47.40185" lon="-0.89354">
        <ele>58.793</ele>
        <time>2020-07-19T08:43:58Z</time>
      </trkpt>
      <trkpt lat="47.40187" lon="-0.89354">
        <ele>60.943</ele>
        <time>2020-07-19T08:43:59Z</time>
      </trkpt>
      <trkpt lat="47.40189" lon="-0.89354">
        <ele>61.102</ele>
        <time>2020-07-19T08:44:00Z</time>
      </trkpt>
      <trkpt lat="47.4019" lon="-0.89354">
        <ele>61.527</ele>
        <time>2020-07-19T08:44:01Z</time>
      </trkpt>
      <trkpt lat="47.40191" lon="-0.89354">
        <ele>61.126</ele>
        <time>2020-07-19T08:44:02Z</time>
      </trkpt>
      <trkpt lat="47.40192" lon="-0.89356">
        <ele>60.919</ele>
        <time>2020-07-19T08:44:03Z</time>
      </trkpt>
      <trkpt lat="47.40192" lon="-0.8936">
        <ele>62.209</ele>
        <time>2020-07-19T08:44:04Z</time>
      </trkpt>
      <trkpt lat="47.40192" lon="-0.89364">
        <ele>61.518</ele>
        <time>2020-07-19T08:44:05Z</time>
      </trkpt>
      <trkpt lat="47.40193" lon="-0.89367">
        <ele>61.752</ele>
        <time>2020-07-19T08:44:06Z</time>
      </trkpt>
      <trkpt lat="47.40193" lon="-0.89371">
        <ele>61.746</ele>
        <time>2020-07-19T08:44:07Z</time>
      </trkpt>
      <trkpt lat="47.40194" lon="-0.89375">
        <ele>61.136</ele>
        <time>2020-07-19T08:44:08Z</time>
      </trkpt>
      <trkpt lat="47.40194" lon="-0.89378">
        <ele>61.003</ele>
        <time>2020-07-19T08:44:09Z</time>
      </trkpt>
      <trkpt lat="47.40195" lon="-0.89382">
        <ele>60.748</ele>
        <time>2020-07-19T08:44:10Z</time>
      </trkpt>
      <trkpt lat="47.40195" lon="-0.89386">
        <ele>60.769</ele>
        <time>2020-07-19T08:44:11Z</time>
      </trkpt>
      <trkpt lat="47.40196" lon="-0.89391">
        <ele>60.383</ele>
        <time>2020-07-19T08:44:12Z</time>
      </trkpt>
      <trkpt lat="47.40197" lon="-0.89396">
        <ele>59.799</ele>
        <time>2020-07-19T08:44:13Z</time>
      </trkpt>
      <trkpt lat="47.40199" lon="-0.894">
        <ele>60.632</ele>
        <time>2020-07-19T08:44:14Z</time>
      </trkpt>
      <trkpt lat="47.40201" lon="-0.89404">
        <ele>61.393</ele>
        <time>2020-07-19T08:44:15Z</time>
      </trkpt>
      <trkpt lat="47.40202" lon="-0.89407">
        <ele>61.928</ele>
        <time>2020-07-19T08:44:16Z</time>
      </trkpt>
      <trkpt lat="47.40204" lon="-0.8941">
        <ele>62.447</ele>
        <time>2020-07-19T08:44:17Z</time>
      </trkpt>
      <trkpt lat="47.40205" lon="-0.89413">
        <ele>62.41</ele>
        <time>2020-07-19T08:44:18Z</time>
      </trkpt>
      <trkpt lat="47.40207" lon="-0.89416">
        <ele>62.563</ele>
        <time>2020-07-19T08:44:19Z</time>
      </trkpt>
      <trkpt lat="47.40209" lon="-0.89419">
        <ele>63.614</ele>
        <time>2020-07-19T08:44:20Z</time>
      </trkpt>
      <trkpt lat="47.4021" lon="-0.89422">
        <ele>64.282</ele>
        <time>2020-07-19T08:44:21Z</time>
      </trkpt>
      <trkpt lat="47.40212" lon="-0.89425">
        <ele>62.754</ele>
        <time>2020-07-19T08:44:22Z</time>
      </trkpt>
      <trkpt lat="47.40214" lon="-0.89426">
        <ele>63.755</ele>
        <time>2020-07-19T08:44:23Z</time>
      </trkpt>
      <trkpt lat="47.40215" lon="-0.89426">
        <ele>63.976</ele>
        <time>2020-07-19T08:44:24Z</time>
      </trkpt>
      <trkpt lat="47.40215" lon="-0.89425">
        <ele>63.933</ele>
        <time>2020-07-19T08:44:25Z</time>
      </trkpt>
      <trkpt lat="47.40215" lon="-0.89424">
        <ele>63.704</ele>
        <time>2020-07-19T08:44:26Z</time>
      </trkpt>
      <trkpt lat="47.40215" lon="-0.89423">
        <ele>63.746</ele>
        <time>2020-07-19T08:44:27Z</time>
      </trkpt>
      <trkpt lat="47.40214" lon="-0.89423">
        <ele>63.497</ele>
        <time>2020-07-19T08:44:28Z</time>
      </trkpt>
      <trkpt lat="47.40214" lon="-0.89423">
        <ele>63.691</ele>
        <time>2020-07-19T08:44:29Z</time>
      </trkpt>
      <trkpt lat="47.40214" lon="-0.89423">
        <ele>62.955</ele>
        <time>2020-07-19T08:44:30Z</time>
      </trkpt>
      <trkpt lat="47.40214" lon="-0.89423">
        <ele>62.976</ele>
        <time>2020-07-19T08:44:31Z</time>
      </trkpt>
      <trkpt lat="47.40214" lon="-0.89423">
        <ele>62.66</ele>
        <time>2020-07-19T08:44:32Z</time>
      </trkpt>
      <trkpt lat="47.40215" lon="-0.89423">
        <ele>61.444</ele>
        <time>2020-07-19T08:44:35Z</time>
      </trkpt>
      <trkpt lat="47.40215" lon="-0.89423">
        <ele>61.332</ele>
        <time>2020-07-19T08:44:36Z</time>
      </trkpt>
      <trkpt lat="47.40215" lon="-0.89423">
        <ele>61.297</ele>
        <time>2020-07-19T08:44:37Z</time>
      </trkpt>
      <trkpt lat="47.40215" lon="-0.89423">
        <ele>60.802</ele>
        <time>2020-07-19T08:44:38Z</time>
      </trkpt>
      <trkpt lat="47.40215" lon="-0.89424">
        <ele>64.951</ele>
        <time>2020-07-19T08:44:39Z</time>
      </trkpt>
      <trkpt lat="47.40215" lon="-0.89424">
        <ele>64.434</ele>
        <time>2020-07-19T08:44:40Z</time>
      </trkpt>
      <trkpt lat="47.40215" lon="-0.89424">
        <ele>63.872</ele>
        <time>2020-07-19T08:44:41Z</time>
      </trkpt>
      <trkpt lat="47.40215" lon="-0.89424">
        <ele>63.485</ele>
        <time>2020-07-19T08:44:42Z</time>
      </trkpt>
      <trkpt lat="47.40215" lon="-0.89425">
        <ele>62.941</ele>
        <time>2020-07-19T08:44:43Z</time>
      </trkpt>
      <trkpt lat="47.40215" lon="-0.89425">
        <ele>62.755</ele>
        <time>2020-07-19T08:44:44Z</time>
      </trkpt>
      <trkpt lat="47.40215" lon="-0.89425">
        <ele>62.569</ele>
        <time>2020-07-19T08:44:45Z</time>
      </trkpt>
      <trkpt lat="47.40215" lon="-0.89425">
        <ele>62.442</ele>
        <time>2020-07-19T08:44:46Z</time>
      </trkpt>
      <trkpt lat="47.40215" lon="-0.89425">
        <ele>62.25</ele>
        <time>2020-07-19T08:44:47Z</time>
      </trkpt>
      <trkpt lat="47.40215" lon="-0.89424">
        <ele>61.831</ele>
        <time>2020-07-19T08:44:48Z</time>
      </trkpt>
      <trkpt lat="47.40215" lon="-0.89424">
        <ele>61.744</ele>
        <time>2020-07-19T08:44:49Z</time>
      </trkpt>
      <trkpt lat="47.40215" lon="-0.89424">
        <ele>61.73</ele>
        <time>2020-07-19T08:44:50Z</time>
      </trkpt>
      <trkpt lat="47.40215" lon="-0.89424">
        <ele>61.781</ele>
        <time>2020-07-19T08:44:51Z</time>
      </trkpt>
      <trkpt lat="47.40215" lon="-0.89424">
        <ele>61.807</ele>
        <time>2020-07-19T08:44:52Z</time>
      </trkpt>
      <trkpt lat="47.40215" lon="-0.89424">
        <ele>61.699</ele>
        <time>2020-07-19T08:44:53Z</time>
      </trkpt>
      <trkpt lat="47.40215" lon="-0.89424">
        <ele>61.735</ele>
        <time>2020-07-19T08:44:54Z</time>
      </trkpt>
      <trkpt lat="47.40215" lon="-0.89424">
        <ele>61.668</ele>
        <time>2020-07-19T08:44:55Z</time>
      </trkpt>
      <trkpt lat="47.40215" lon="-0.89424">
        <ele>61.597</ele>
        <time>2020-07-19T08:44:56Z</time>
      </trkpt>
      <trkpt lat="47.40215" lon="-0.89425">
        <ele>61.005</ele>
        <time>2020-07-19T08:44:57Z</time>
      </trkpt>
      <trkpt lat="47.40215" lon="-0.89425">
        <ele>62.443</ele>
        <time>2020-07-19T08:44:58Z</time>
      </trkpt>
      <trkpt lat="47.40216" lon="-0.89425">
        <ele>62.706</ele>
        <time>2020-07-19T08:44:59Z</time>
      </trkpt>
      <trkpt lat="47.40216" lon="-0.89425">
        <ele>61.785</ele>
        <time>2020-07-19T08:45:00Z</time>
      </trkpt>
      <trkpt lat="47.40215" lon="-0.89424">
        <ele>60.436</ele>
        <time>2020-07-19T08:45:01Z</time>
      </trkpt>
      <trkpt lat="47.40215" lon="-0.89424">
        <ele>61.273</ele>
        <time>2020-07-19T08:45:02Z</time>
      </trkpt>
      <trkpt lat="47.40215" lon="-0.89424">
        <ele>61.198</ele>
        <time>2020-07-19T08:45:03Z</time>
      </trkpt>
      <trkpt lat="47.40215" lon="-0.89424">
        <ele>63.069</ele>
        <time>2020-07-19T08:45:04Z</time>
      </trkpt>
      <trkpt lat="47.40215" lon="-0.89425">
        <ele>63.203</ele>
        <time>2020-07-19T08:45:05Z</time>
      </trkpt>
      <trkpt lat="47.40215" lon="-0.89425">
        <ele>63.118</ele>
        <time>2020-07-19T08:45:06Z</time>
      </trkpt>
      <trkpt lat="47.40215" lon="-0.89425">
        <ele>63.879</ele>
        <time>2020-07-19T08:45:07Z</time>
      </trkpt>
      <trkpt lat="47.40214" lon="-0.89424">
        <ele>63.502</ele>
        <time>2020-07-19T08:45:08Z</time>
      </trkpt>
      <trkpt lat="47.40214" lon="-0.89423">
        <ele>62.541</ele>
        <time>2020-07-19T08:45:09Z</time>
      </trkpt>
      <trkpt lat="47.40213" lon="-0.89423">
        <ele>63.988</ele>
        <time>2020-07-19T08:45:10Z</time>
      </trkpt>
      <trkpt lat="47.40213" lon="-0.89423">
        <ele>62.583</ele>
        <time>2020-07-19T08:45:11Z</time>
      </trkpt>
      <trkpt lat="47.40212" lon="-0.89422">
        <ele>62.827</ele>
        <time>2020-07-19T08:45:12Z</time>
      </trkpt>
      <trkpt lat="47.40211" lon="-0.8942">
        <ele>62.221</ele>
        <time>2020-07-19T08:45:13Z</time>
      </trkpt>
      <trkpt lat="47.40211" lon="-0.89418">
        <ele>63.507</ele>
        <time>2020-07-19T08:45:14Z</time>
      </trkpt>
      <trkpt lat="47.40211" lon="-0.89416">
        <ele>61.431</ele>
        <time>2020-07-19T08:45:15Z</time>
      </trkpt>
      <trkpt lat="47.4021" lon="-0.89416">
        <ele>60.576</ele>
        <time>2020-07-19T08:45:16Z</time>
      </trkpt>
      <trkpt lat="47.4021" lon="-0.89416">
        <ele>60.79</ele>
        <time>2020-07-19T08:45:17Z</time>
      </trkpt>
      <trkpt lat="47.4021" lon="-0.89415">
        <ele>58.855</ele>
        <time>2020-07-19T08:45:18Z</time>
      </trkpt>
      <trkpt lat="47.4021" lon="-0.89414">
        <ele>58.84</ele>
        <time>2020-07-19T08:45:19Z</time>
      </trkpt>
      <trkpt lat="47.4021" lon="-0.89414">
        <ele>59.092</ele>
        <time>2020-07-19T08:45:20Z</time>
      </trkpt>
      <trkpt lat="47.4021" lon="-0.89414">
        <ele>59.022</ele>
        <time>2020-07-19T08:45:21Z</time>
      </trkpt>
      <trkpt lat="47.4021" lon="-0.89414">
        <ele>59.402</ele>
        <time>2020-07-19T08:45:22Z</time>
      </trkpt>
      <trkpt lat="47.4021" lon="-0.89414">
        <ele>59.074</ele>
        <time>2020-07-19T08:45:23Z</time>
      </trkpt>
      <trkpt lat="47.4021" lon="-0.89414">
        <ele>59.954</ele>
        <time>2020-07-19T08:45:24Z</time>
      </trkpt>
      <trkpt lat="47.4021" lon="-0.89413">
        <ele>59.864</ele>
        <time>2020-07-19T08:45:25Z</time>
      </trkpt>
      <trkpt lat="47.40209" lon="-0.89413">
        <ele>59.912</ele>
        <time>2020-07-19T08:45:26Z</time>
      </trkpt>
      <trkpt lat="47.40209" lon="-0.89413">
        <ele>58.899</ele>
        <time>2020-07-19T08:45:27Z</time>
      </trkpt>
      <trkpt lat="47.40209" lon="-0.89413">
        <ele>62.066</ele>
        <time>2020-07-19T08:45:28Z</time>
      </trkpt>
      <trkpt lat="47.40209" lon="-0.89414">
        <ele>62.365</ele>
        <time>2020-07-19T08:45:29Z</time>
      </trkpt>
      <trkpt lat="47.40209" lon="-0.89415">
        <ele>60.494</ele>
        <time>2020-07-19T08:45:30Z</time>
      </trkpt>
      <trkpt lat="47.40209" lon="-0.89416">
        <ele>58.751</ele>
        <time>2020-07-19T08:45:31Z</time>
      </trkpt>
      <trkpt lat="47.4021" lon="-0.89417">
        <ele>59.554</ele>
        <time>2020-07-19T08:45:32Z</time>
      </trkpt>
      <trkpt lat="47.4021" lon="-0.89417">
        <ele>60.293</ele>
        <time>2020-07-19T08:45:33Z</time>
      </trkpt>
      <trkpt lat="47.4021" lon="-0.89417">
        <ele>61.444</ele>
        <time>2020-07-19T08:45:34Z</time>
      </trkpt>
      <trkpt lat="47.4021" lon="-0.89416">
        <ele>61.232</ele>
        <time>2020-07-19T08:45:35Z</time>
      </trkpt>
      <trkpt lat="47.4021" lon="-0.89416">
        <ele>61.758</ele>
        <time>2020-07-19T08:45:36Z</time>
      </trkpt>
      <trkpt lat="47.40209" lon="-0.89415">
        <ele>61.265</ele>
        <time>2020-07-19T08:45:37Z</time>
      </trkpt>
      <trkpt lat="47.40209" lon="-0.89415">
        <ele>59.969</ele>
        <time>2020-07-19T08:45:38Z</time>
      </trkpt>
      <trkpt lat="47.40209" lon="-0.89415">
        <ele>59.773</ele>
        <time>2020-07-19T08:45:39Z</time>
      </trkpt>
      <trkpt lat="47.40209" lon="-0.89415">
        <ele>60.307</ele>
        <time>2020-07-19T08:45:40Z</time>
      </trkpt>
      <trkpt lat="47.40209" lon="-0.89414">
        <ele>61.334</ele>
        <time>2020-07-19T08:45:41Z</time>
      </trkpt>
      <trkpt lat="47.40209" lon="-0.89413">
        <ele>61.595</ele>
        <time>2020-07-19T08:45:42Z</time>
      </trkpt>
      <trkpt lat="47.40209" lon="-0.89413">
        <ele>61.615</ele>
        <time>2020-07-19T08:45:43Z</time>
      </trkpt>
      <trkpt lat="47.40209" lon="-0.89413">
        <ele>61.954</ele>
        <time>2020-07-19T08:45:44Z</time>
      </trkpt>
      <trkpt lat="47.40209" lon="-0.89413">
        <ele>61.919</ele>
        <time>2020-07-19T08:45:45Z</time>
      </trkpt>
      <trkpt lat="47.40209" lon="-0.89413">
        <ele>62.118</ele>
        <time>2020-07-19T08:45:46Z</time>
      </trkpt>
      <trkpt lat="47.40209" lon="-0.89413">
        <ele>62.215</ele>
        <time>2020-07-19T08:45:47Z</time>
      </trkpt>
      <trkpt lat="47.40208" lon="-0.89413">
        <ele>62.355</ele>
        <time>2020-07-19T08:45:48Z</time>
      </trkpt>
      <trkpt lat="47.40208" lon="-0.89413">
        <ele>62.478</ele>
        <time>2020-07-19T08:45:49Z</time>
      </trkpt>
      <trkpt lat="47.40208" lon="-0.89413">
        <ele>61.944</ele>
        <time>2020-07-19T08:45:50Z</time>
      </trkpt>
      <trkpt lat="47.40209" lon="-0.89413">
        <ele>61.64</ele>
        <time>2020-07-19T08:45:51Z</time>
      </trkpt>
      <trkpt lat="47.40208" lon="-0.89413">
        <ele>61.584</ele>
        <time>2020-07-19T08:45:52Z</time>
      </trkpt>
      <trkpt lat="47.40208" lon="-0.89413">
        <ele>61.617</ele>
        <time>2020-07-19T08:45:53Z</time>
      </trkpt>
      <trkpt lat="47.40208" lon="-0.89413">
        <ele>61.709</ele>
        <time>2020-07-19T08:45:54Z</time>
      </trkpt>
      <trkpt lat="47.40208" lon="-0.89413">
        <ele>61.53</ele>
        <time>2020-07-19T08:45:55Z</time>
      </trkpt>
      <trkpt lat="47.40208" lon="-0.89413">
        <ele>61.531</ele>
        <time>2020-07-19T08:45:56Z</time>
      </trkpt>
      <trkpt lat="47.40208" lon="-0.89413">
        <ele>61.527</ele>
        <time>2020-07-19T08:45:57Z</time>
      </trkpt>
      <trkpt lat="47.40208" lon="-0.89413">
        <ele>61.591</ele>
        <time>2020-07-19T08:45:58Z</time>
      </trkpt>
      <trkpt lat="47.40208" lon="-0.89413">
        <ele>61.715</ele>
        <time>2020-07-19T08:47:35Z</time>
      </trkpt>
      <trkpt lat="47.40208" lon="-0.89414">
        <ele>66.363</ele>
        <time>2020-07-19T08:47:36Z</time>
      </trkpt>
      <trkpt lat="47.40208" lon="-0.89414">
        <ele>65.951</ele>
        <time>2020-07-19T08:47:37Z</time>
      </trkpt>
      <trkpt lat="47.40208" lon="-0.89414">
        <ele>65.021</ele>
        <time>2020-07-19T08:47:38Z</time>
      </trkpt>
      <trkpt lat="47.40208" lon="-0.89414">
        <ele>64.311</ele>
        <time>2020-07-19T08:47:39Z</time>
      </trkpt>
      <trkpt lat="47.40209" lon="-0.89414">
        <ele>64.036</ele>
        <time>2020-07-19T08:47:40Z</time>
      </trkpt>
      <trkpt lat="47.40209" lon="-0.89414">
        <ele>63.405</ele>
        <time>2020-07-19T08:47:41Z</time>
      </trkpt>
      <trkpt lat="47.40209" lon="-0.89414">
        <ele>63.292</ele>
        <time>2020-07-19T08:47:42Z</time>
      </trkpt>
      <trkpt lat="47.40209" lon="-0.89414">
        <ele>63.08</ele>
        <time>2020-07-19T08:47:43Z</time>
      </trkpt>
      <trkpt lat="47.40209" lon="-0.89415">
        <ele>62.928</ele>
        <time>2020-07-19T08:47:44Z</time>
      </trkpt>
      <trkpt lat="47.40209" lon="-0.89415">
        <ele>63.061</ele>
        <time>2020-07-19T08:47:45Z</time>
      </trkpt>
      <trkpt lat="47.40209" lon="-0.89415">
        <ele>62.818</ele>
        <time>2020-07-19T08:47:46Z</time>
      </trkpt>
      <trkpt lat="47.40209" lon="-0.89415">
        <ele>62.814</ele>
        <time>2020-07-19T08:47:47Z</time>
      </trkpt>
      <trkpt lat="47.40209" lon="-0.89415">
        <ele>62.909</ele>
        <time>2020-07-19T08:47:48Z</time>
      </trkpt>
      <trkpt lat="47.40209" lon="-0.89415">
        <ele>62.806</ele>
        <time>2020-07-19T08:47:49Z</time>
      </trkpt>
      <trkpt lat="47.4021" lon="-0.89415">
        <ele>66.512</ele>
        <time>2020-07-19T08:47:50Z</time>
      </trkpt>
      <trkpt lat="47.40212" lon="-0.89416">
        <ele>71.28</ele>
        <time>2020-07-19T08:47:52Z</time>
      </trkpt>
      <trkpt lat="47.40213" lon="-0.89415">
        <ele>72.446</ele>
        <time>2020-07-19T08:47:53Z</time>
      </trkpt>
      <trkpt lat="47.40213" lon="-0.89415">
        <ele>72.066</ele>
        <time>2020-07-19T08:47:54Z</time>
      </trkpt>
      <trkpt lat="47.40214" lon="-0.89415">
        <ele>71.247</ele>
        <time>2020-07-19T08:47:55Z</time>
      </trkpt>
      <trkpt lat="47.40215" lon="-0.89415">
        <ele>71.259</ele>
        <time>2020-07-19T08:47:56Z</time>
      </trkpt>
      <trkpt lat="47.40215" lon="-0.89415">
        <ele>71.08</ele>
        <time>2020-07-19T08:47:57Z</time>
      </trkpt>
      <trkpt lat="47.40215" lon="-0.89415">
        <ele>71.839</ele>
        <time>2020-07-19T08:47:58Z</time>
      </trkpt>
      <trkpt lat="47.40215" lon="-0.89416">
        <ele>71.336</ele>
        <time>2020-07-19T08:47:59Z</time>
      </trkpt>
      <trkpt lat="47.40215" lon="-0.89416">
        <ele>70.681</ele>
        <time>2020-07-19T08:48:00Z</time>
      </trkpt>
      <trkpt lat="47.40215" lon="-0.89416">
        <ele>70.259</ele>
        <time>2020-07-19T08:48:01Z</time>
      </trkpt>
      <trkpt lat="47.40214" lon="-0.89416">
        <ele>70.264</ele>
        <time>2020-07-19T08:48:02Z</time>
      </trkpt>
      <trkpt lat="47.40214" lon="-0.89417">
        <ele>70.106</ele>
        <time>2020-07-19T08:48:03Z</time>
      </trkpt>
      <trkpt lat="47.40214" lon="-0.89417">
        <ele>69.895</ele>
        <time>2020-07-19T08:48:04Z</time>
      </trkpt>
      <trkpt lat="47.40214" lon="-0.89416">
        <ele>70.401</ele>
        <time>2020-07-19T08:48:06Z</time>
      </trkpt>
      <trkpt lat="47.40214" lon="-0.89417">
        <ele>70.93</ele>
        <time>2020-07-19T08:48:07Z</time>
      </trkpt>
      <trkpt lat="47.40214" lon="-0.89417">
        <ele>71.366</ele>
        <time>2020-07-19T08:48:08Z</time>
      </trkpt>
      <trkpt lat="47.40214" lon="-0.89417">
        <ele>71.538</ele>
        <time>2020-07-19T08:48:09Z</time>
      </trkpt>
      <trkpt lat="47.40214" lon="-0.89417">
        <ele>71.836</ele>
        <time>2020-07-19T08:48:10Z</time>
      </trkpt>
      <trkpt lat="47.40214" lon="-0.89417">
        <ele>71.852</ele>
        <time>2020-07-19T08:48:11Z</time>
      </trkpt>
      <trkpt lat="47.40214" lon="-0.89416">
        <ele>71.832</ele>
        <time>2020-07-19T08:48:12Z</time>
      </trkpt>
      <trkpt lat="47.40214" lon="-0.89416">
        <ele>71.821</ele>
        <time>2020-07-19T08:48:13Z</time>
      </trkpt>
      <trkpt lat="47.40214" lon="-0.89417">
        <ele>71.819</ele>
        <time>2020-07-19T08:48:14Z</time>
      </trkpt>
      <trkpt lat="47.40214" lon="-0.89417">
        <ele>71.831</ele>
        <time>2020-07-19T08:48:15Z</time>
      </trkpt>
      <trkpt lat="47.40214" lon="-0.89417">
        <ele>71.838</ele>
        <time>2020-07-19T08:48:16Z</time>
      </trkpt>
      <trkpt lat="47.40214" lon="-0.89417">
        <ele>71.771</ele>
        <time>2020-07-19T08:48:17Z</time>
      </trkpt>
      <trkpt lat="47.40214" lon="-0.89417">
        <ele>71.901</ele>
        <time>2020-07-19T08:48:18Z</time>
      </trkpt>
      <trkpt lat="47.40214" lon="-0.89417">
        <ele>71.983</ele>
        <time>2020-07-19T08:48:19Z</time>
      </trkpt>
      <trkpt lat="47.40214" lon="-0.89417">
        <ele>71.979</ele>
        <time>2020-07-19T08:48:20Z</time>
      </trkpt>
      <trkpt lat="47.40214" lon="-0.89417">
        <ele>71.92</ele>
        <time>2020-07-19T08:48:21Z</time>
      </trkpt>
      <trkpt lat="47.40214" lon="-0.89417">
        <ele>71.921</ele>
        <time>2020-07-19T08:48:22Z</time>
      </trkpt>
      <trkpt lat="47.40214" lon="-0.89417">
        <ele>71.784</ele>
        <time>2020-07-19T08:48:23Z</time>
      </trkpt>
      <trkpt lat="47.40214" lon="-0.89417">
        <ele>71.759</ele>
        <time>2020-07-19T08:48:24Z</time>
      </trkpt>
      <trkpt lat="47.40214" lon="-0.89417">
        <ele>71.73</ele>
        <time>2020-07-19T08:48:25Z</time>
      </trkpt>
      <trkpt lat="47.40214" lon="-0.89417">
        <ele>71.722</ele>
        <time>2020-07-19T08:48:26Z</time>
      </trkpt>
      <trkpt lat="47.40214" lon="-0.89417">
        <ele>71.577</ele>
        <time>2020-07-19T08:48:27Z</time>
      </trkpt>
      <trkpt lat="47.40214" lon="-0.89417">
        <ele>71.571</ele>
        <time>2020-07-19T08:48:28Z</time>
      </trkpt>
      <trkpt lat="47.40214" lon="-0.89417">
        <ele>71.58</ele>
        <time>2020-07-19T08:48:29Z</time>
      </trkpt>
      <trkpt lat="47.40214" lon="-0.89417">
        <ele>71.59</ele>
        <time>2020-07-19T08:48:30Z</time>
      </trkpt>
      <trkpt lat="47.40214" lon="-0.89417">
        <ele>71.59</ele>
        <time>2020-07-19T08:48:31Z</time>
      </trkpt>
      <trkpt lat="47.40214" lon="-0.89417">
        <ele>71.583</ele>
        <time>2020-07-19T08:48:32Z</time>
      </trkpt>
      <trkpt lat="47.40214" lon="-0.89417">
        <ele>71.575</ele>
        <time>2020-07-19T08:48:33Z</time>
      </trkpt>
      <trkpt lat="47.40214" lon="-0.89417">
        <ele>71.575</ele>
        <time>2020-07-19T08:48:34Z</time>
      </trkpt>
      <trkpt lat="47.40214" lon="-0.89417">
        <ele>71.569</ele>
        <time>2020-07-19T08:48:35Z</time>
      </trkpt>
      <trkpt lat="47.40214" lon="-0.89417">
        <ele>71.564</ele>
        <time>2020-07-19T08:48:36Z</time>
      </trkpt>
      <trkpt lat="47.40214" lon="-0.89417">
        <ele>71.546</ele>
        <time>2020-07-19T08:48:37Z</time>
      </trkpt>
      <trkpt lat="47.40214" lon="-0.89417">
        <ele>71.534</ele>
        <time>2020-07-19T08:48:38Z</time>
      </trkpt>
      <trkpt lat="47.40214" lon="-0.89417">
        <ele>71.532</ele>
        <time>2020-07-19T08:48:39Z</time>
      </trkpt>
      <trkpt lat="47.40214" lon="-0.89417">
        <ele>71.461</ele>
        <time>2020-07-19T08:48:40Z</time>
      </trkpt>
      <trkpt lat="47.40214" lon="-0.89417">
        <ele>71.64</ele>
        <time>2020-07-19T08:48:41Z</time>
      </trkpt>
      <trkpt lat="47.40214" lon="-0.89417">
        <ele>71.604</ele>
        <time>2020-07-19T08:48:42Z</time>
      </trkpt>
      <trkpt lat="47.40214" lon="-0.89417">
        <ele>71.602</ele>
        <time>2020-07-19T08:48:43Z</time>
      </trkpt>
      <trkpt lat="47.40214" lon="-0.89417">
        <ele>71.49</ele>
        <time>2020-07-19T08:48:44Z</time>
      </trkpt>
      <trkpt lat="47.40214" lon="-0.89417">
        <ele>71.471</ele>
        <time>2020-07-19T08:48:45Z</time>
      </trkpt>
      <trkpt lat="47.40214" lon="-0.89417">
        <ele>71.477</ele>
        <time>2020-07-19T08:48:46Z</time>
      </trkpt>
      <trkpt lat="47.40214" lon="-0.89417">
        <ele>71.483</ele>
        <time>2020-07-19T08:48:47Z</time>
      </trkpt>
      <trkpt lat="47.40214" lon="-0.89417">
        <ele>71.474</ele>
        <time>2020-07-19T08:48:48Z</time>
      </trkpt>
      <trkpt lat="47.40214" lon="-0.89417">
        <ele>71.476</ele>
        <time>2020-07-19T08:48:49Z</time>
      </trkpt>
      <trkpt lat="47.40214" lon="-0.89417">
        <ele>71.481</ele>
        <time>2020-07-19T08:48:50Z</time>
      </trkpt>
      <trkpt lat="47.40214" lon="-0.89417">
        <ele>71.496</ele>
        <time>2020-07-19T08:48:51Z</time>
      </trkpt>
      <trkpt lat="47.40214" lon="-0.89417">
        <ele>71.408</ele>
        <time>2020-07-19T08:48:52Z</time>
      </trkpt>
      <trkpt lat="47.40214" lon="-0.89417">
        <ele>71.424</ele>
        <time>2020-07-19T08:48:53Z</time>
      </trkpt>
      <trkpt lat="47.40214" lon="-0.89417">
        <ele>71.348</ele>
        <time>2020-07-19T08:48:54Z</time>
      </trkpt>
      <trkpt lat="47.40214" lon="-0.89417">
        <ele>71.34</ele>
        <time>2020-07-19T08:48:55Z</time>
      </trkpt>
      <trkpt lat="47.40214" lon="-0.89417">
        <ele>71.361</ele>
        <time>2020-07-19T08:48:56Z</time>
      </trkpt>
      <trkpt lat="47.40214" lon="-0.89417">
        <ele>71.348</ele>
        <time>2020-07-19T08:48:57Z</time>
      </trkpt>
      <trkpt lat="47.40214" lon="-0.89417">
        <ele>71.357</ele>
        <time>2020-07-19T08:48:58Z</time>
      </trkpt>
      <trkpt lat="47.40214" lon="-0.89417">
        <ele>71.337</ele>
        <time>2020-07-19T08:48:59Z</time>
      </trkpt>
      <trkpt lat="47.40214" lon="-0.89417">
        <ele>71.33</ele>
        <time>2020-07-19T08:49:00Z</time>
      </trkpt>
      <trkpt lat="47.40214" lon="-0.89417">
        <ele>71.331</ele>
        <time>2020-07-19T08:49:01Z</time>
      </trkpt>
      <trkpt lat="47.40214" lon="-0.89417">
        <ele>71.329</ele>
        <time>2020-07-19T08:49:02Z</time>
      </trkpt>
      <trkpt lat="47.40214" lon="-0.89417">
        <ele>71.313</ele>
        <time>2020-07-19T08:49:03Z</time>
      </trkpt>
      <trkpt lat="47.40214" lon="-0.89417">
        <ele>71.297</ele>
        <time>2020-07-19T08:49:04Z</time>
      </trkpt>
      <trkpt lat="47.40214" lon="-0.89417">
        <ele>71.281</ele>
        <time>2020-07-19T08:49:05Z</time>
      </trkpt>
      <trkpt lat="47.40214" lon="-0.89417">
        <ele>71.253</ele>
        <time>2020-07-19T08:49:06Z</time>
      </trkpt>
      <trkpt lat="47.40214" lon="-0.89417">
        <ele>71.242</ele>
        <time>2020-07-19T08:49:07Z</time>
      </trkpt>
      <trkpt lat="47.40214" lon="-0.89417">
        <ele>71.235</ele>
        <time>2020-07-19T08:49:08Z</time>
      </trkpt>
      <trkpt lat="47.40214" lon="-0.89417">
        <ele>71.227</ele>
        <time>2020-07-19T08:49:09Z</time>
      </trkpt>
      <trkpt lat="47.40214" lon="-0.89417">
        <ele>71.225</ele>
        <time>2020-07-19T08:49:10Z</time>
      </trkpt>
      <trkpt lat="47.40214" lon="-0.89417">
        <ele>71.23</ele>
        <time>2020-07-19T08:49:11Z</time>
      </trkpt>
      <trkpt lat="47.40214" lon="-0.89417">
        <ele>71.215</ele>
        <time>2020-07-19T08:49:12Z</time>
      </trkpt>
      <trkpt lat="47.40214" lon="-0.89417">
        <ele>71.201</ele>
        <time>2020-07-19T08:49:13Z</time>
      </trkpt>
      <trkpt lat="47.40214" lon="-0.89417">
        <ele>71.176</ele>
        <time>2020-07-19T08:49:14Z</time>
      </trkpt>
      <trkpt lat="47.40214" lon="-0.89417">
        <ele>71.172</ele>
        <time>2020-07-19T08:49:15Z</time>
      </trkpt>
      <trkpt lat="47.40214" lon="-0.89417">
        <ele>71.164</ele>
        <time>2020-07-19T08:49:16Z</time>
      </trkpt>
      <trkpt lat="47.40214" lon="-0.89417">
        <ele>71.159</ele>
        <time>2020-07-19T08:49:17Z</time>
      </trkpt>
      <trkpt lat="47.40214" lon="-0.89417">
        <ele>71.153</ele>
        <time>2020-07-19T08:49:18Z</time>
      </trkpt>
      <trkpt lat="47.40214" lon="-0.89417">
        <ele>71.153</ele>
        <time>2020-07-19T08:49:19Z</time>
      </trkpt>
      <trkpt lat="47.40214" lon="-0.89417">
        <ele>71.144</ele>
        <time>2020-07-19T08:49:20Z</time>
      </trkpt>
      <trkpt lat="47.40214" lon="-0.89417">
        <ele>71.128</ele>
        <time>2020-07-19T08:49:21Z</time>
      </trkpt>
      <trkpt lat="47.40214" lon="-0.89417">
        <ele>71.107</ele>
        <time>2020-07-19T08:49:22Z</time>
      </trkpt>
      <trkpt lat="47.40214" lon="-0.89417">
        <ele>71.108</ele>
        <time>2020-07-19T08:49:23Z</time>
      </trkpt>
      <trkpt lat="47.40214" lon="-0.89417">
        <ele>71.05</ele>
        <time>2020-07-19T08:49:24Z</time>
      </trkpt>
      <trkpt lat="47.40214" lon="-0.89417">
        <ele>71.045</ele>
        <time>2020-07-19T08:49:25Z</time>
      </trkpt>
      <trkpt lat="47.40214" lon="-0.89417">
        <ele>71.034</ele>
        <time>2020-07-19T08:49:26Z</time>
      </trkpt>
      <trkpt lat="47.40214" lon="-0.89417">
        <ele>71.038</ele>
        <time>2020-07-19T08:49:27Z</time>
      </trkpt>
      <trkpt lat="47.40214" lon="-0.89417">
        <ele>71.029</ele>
        <time>2020-07-19T08:49:28Z</time>
      </trkpt>
      <trkpt lat="47.40214" lon="-0.89417">
        <ele>71.029</ele>
        <time>2020-07-19T08:49:29Z</time>
      </trkpt>
      <trkpt lat="47.40214" lon="-0.89417">
        <ele>71.018</ele>
        <time>2020-07-19T08:49:30Z</time>
      </trkpt>
      <trkpt lat="47.40214" lon="-0.89417">
        <ele>71.016</ele>
        <time>2020-07-19T08:49:31Z</time>
      </trkpt>
      <trkpt lat="47.40214" lon="-0.89418">
        <ele>71.222</ele>
        <time>2020-07-19T08:49:32Z</time>
      </trkpt>
      <trkpt lat="47.40214" lon="-0.8942">
        <ele>70.909</ele>
        <time>2020-07-19T08:49:33Z</time>
      </trkpt>
      <trkpt lat="47.40215" lon="-0.89421">
        <ele>69.886</ele>
        <time>2020-07-19T08:49:34Z</time>
      </trkpt>
      <trkpt lat="47.40216" lon="-0.89423">
        <ele>69.426</ele>
        <time>2020-07-19T08:49:35Z</time>
      </trkpt>
      <trkpt lat="47.40217" lon="-0.89425">
        <ele>69.544</ele>
        <time>2020-07-19T08:49:36Z</time>
      </trkpt>
      <trkpt lat="47.40218" lon="-0.89428">
        <ele>69.563</ele>
        <time>2020-07-19T08:49:37Z</time>
      </trkpt>
      <trkpt lat="47.40218" lon="-0.89431">
        <ele>70.875</ele>
        <time>2020-07-19T08:49:38Z</time>
      </trkpt>
      <trkpt lat="47.40219" lon="-0.89434">
        <ele>70.581</ele>
        <time>2020-07-19T08:49:39Z</time>
      </trkpt>
      <trkpt lat="47.4022" lon="-0.89437">
        <ele>71.495</ele>
        <time>2020-07-19T08:49:40Z</time>
      </trkpt>
      <trkpt lat="47.40222" lon="-0.89442">
        <ele>71.624</ele>
        <time>2020-07-19T08:49:41Z</time>
      </trkpt>
      <trkpt lat="47.40223" lon="-0.89445">
        <ele>70.622</ele>
        <time>2020-07-19T08:49:42Z</time>
      </trkpt>
      <trkpt lat="47.40224" lon="-0.89449">
        <ele>69.04</ele>
        <time>2020-07-19T08:49:43Z</time>
      </trkpt>
      <trkpt lat="47.40224" lon="-0.89453">
        <ele>66.384</ele>
        <time>2020-07-19T08:49:44Z</time>
      </trkpt>
      <trkpt lat="47.40225" lon="-0.89458">
        <ele>65.638</ele>
        <time>2020-07-19T08:49:45Z</time>
      </trkpt>
      <trkpt lat="47.40226" lon="-0.89462">
        <ele>66.252</ele>
        <time>2020-07-19T08:49:46Z</time>
      </trkpt>
      <trkpt lat="47.40226" lon="-0.89467">
        <ele>65.74</ele>
        <time>2020-07-19T08:49:47Z</time>
      </trkpt>
      <trkpt lat="47.40226" lon="-0.89471">
        <ele>66.329</ele>
        <time>2020-07-19T08:49:48Z</time>
      </trkpt>
      <trkpt lat="47.40227" lon="-0.89476">
        <ele>64.258</ele>
        <time>2020-07-19T08:49:49Z</time>
      </trkpt>
      <trkpt lat="47.40227" lon="-0.8948">
        <ele>64.765</ele>
        <time>2020-07-19T08:49:50Z</time>
      </trkpt>
      <trkpt lat="47.40226" lon="-0.89485">
        <ele>64.381</ele>
        <time>2020-07-19T08:49:51Z</time>
      </trkpt>
      <trkpt lat="47.40226" lon="-0.8949">
        <ele>65.086</ele>
        <time>2020-07-19T08:49:52Z</time>
      </trkpt>
      <trkpt lat="47.40225" lon="-0.89496">
        <ele>64.4</ele>
        <time>2020-07-19T08:49:53Z</time>
      </trkpt>
      <trkpt lat="47.40225" lon="-0.89501">
        <ele>63.459</ele>
        <time>2020-07-19T08:49:54Z</time>
      </trkpt>
      <trkpt lat="47.40225" lon="-0.89506">
        <ele>62.972</ele>
        <time>2020-07-19T08:49:55Z</time>
      </trkpt>
      <trkpt lat="47.40225" lon="-0.89512">
        <ele>63.039</ele>
        <time>2020-07-19T08:49:56Z</time>
      </trkpt>
      <trkpt lat="47.40226" lon="-0.89518">
        <ele>61.915</ele>
        <time>2020-07-19T08:49:57Z</time>
      </trkpt>
      <trkpt lat="47.40227" lon="-0.89523">
        <ele>61.241</ele>
        <time>2020-07-19T08:49:58Z</time>
      </trkpt>
      <trkpt lat="47.40228" lon="-0.89529">
        <ele>60.713</ele>
        <time>2020-07-19T08:49:59Z</time>
      </trkpt>
      <trkpt lat="47.4023" lon="-0.89535">
        <ele>60.086</ele>
        <time>2020-07-19T08:50:00Z</time>
      </trkpt>
      <trkpt lat="47.40231" lon="-0.89541">
        <ele>59.624</ele>
        <time>2020-07-19T08:50:01Z</time>
      </trkpt>
      <trkpt lat="47.40233" lon="-0.89547">
        <ele>59.878</ele>
        <time>2020-07-19T08:50:02Z</time>
      </trkpt>
      <trkpt lat="47.40235" lon="-0.89552">
        <ele>59.851</ele>
        <time>2020-07-19T08:50:03Z</time>
      </trkpt>
      <trkpt lat="47.40237" lon="-0.89557">
        <ele>59.351</ele>
        <time>2020-07-19T08:50:04Z</time>
      </trkpt>
      <trkpt lat="47.40239" lon="-0.89561">
        <ele>59.692</ele>
        <time>2020-07-19T08:50:05Z</time>
      </trkpt>
      <trkpt lat="47.40241" lon="-0.89566">
        <ele>59.896</ele>
        <time>2020-07-19T08:50:06Z</time>
      </trkpt>
      <trkpt lat="47.40243" lon="-0.89571">
        <ele>59.754</ele>
        <time>2020-07-19T08:50:07Z</time>
      </trkpt>
      <trkpt lat="47.40245" lon="-0.89576">
        <ele>59.639</ele>
        <time>2020-07-19T08:50:08Z</time>
      </trkpt>
      <trkpt lat="47.40247" lon="-0.89581">
        <ele>59.816</ele>
        <time>2020-07-19T08:50:09Z</time>
      </trkpt>
      <trkpt lat="47.40249" lon="-0.89586">
        <ele>60.439</ele>
        <time>2020-07-19T08:50:10Z</time>
      </trkpt>
      <trkpt lat="47.40251" lon="-0.89591">
        <ele>60.511</ele>
        <time>2020-07-19T08:50:11Z</time>
      </trkpt>
      <trkpt lat="47.40253" lon="-0.89596">
        <ele>62.288</ele>
        <time>2020-07-19T08:50:12Z</time>
      </trkpt>
      <trkpt lat="47.40254" lon="-0.89601">
        <ele>61.489</ele>
        <time>2020-07-19T08:50:13Z</time>
      </trkpt>
      <trkpt lat="47.40256" lon="-0.89607">
        <ele>60.942</ele>
        <time>2020-07-19T08:50:14Z</time>
      </trkpt>
      <trkpt lat="47.40257" lon="-0.89613">
        <ele>61.964</ele>
        <time>2020-07-19T08:50:15Z</time>
      </trkpt>
      <trkpt lat="47.40259" lon="-0.89619">
        <ele>62.198</ele>
        <time>2020-07-19T08:50:16Z</time>
      </trkpt>
      <trkpt lat="47.4026" lon="-0.89625">
        <ele>62.193</ele>
        <time>2020-07-19T08:50:17Z</time>
      </trkpt>
      <trkpt lat="47.40261" lon="-0.89631">
        <ele>62.223</ele>
        <time>2020-07-19T08:50:18Z</time>
      </trkpt>
      <trkpt lat="47.40263" lon="-0.89636">
        <ele>62.188</ele>
        <time>2020-07-19T08:50:19Z</time>
      </trkpt>
      <trkpt lat="47.40264" lon="-0.89642">
        <ele>62.34</ele>
        <time>2020-07-19T08:50:20Z</time>
      </trkpt>
      <trkpt lat="47.40266" lon="-0.89648">
        <ele>63.253</ele>
        <time>2020-07-19T08:50:21Z</time>
      </trkpt>
      <trkpt lat="47.40268" lon="-0.89654">
        <ele>63.25</ele>
        <time>2020-07-19T08:50:22Z</time>
      </trkpt>
      <trkpt lat="47.4027" lon="-0.89659">
        <ele>62.847</ele>
        <time>2020-07-19T08:50:23Z</time>
      </trkpt>
      <trkpt lat="47.40272" lon="-0.89665">
        <ele>62.449</ele>
        <time>2020-07-19T08:50:24Z</time>
      </trkpt>
      <trkpt lat="47.40275" lon="-0.89671">
        <ele>62.64</ele>
        <time>2020-07-19T08:50:25Z</time>
      </trkpt>
      <trkpt lat="47.40277" lon="-0.89676">
        <ele>63.024</ele>
        <time>2020-07-19T08:50:26Z</time>
      </trkpt>
      <trkpt lat="47.40281" lon="-0.8968">
        <ele>63.007</ele>
        <time>2020-07-19T08:50:27Z</time>
      </trkpt>
      <trkpt lat="47.40285" lon="-0.89684">
        <ele>63.741</ele>
        <time>2020-07-19T08:50:28Z</time>
      </trkpt>
      <trkpt lat="47.40288" lon="-0.89688">
        <ele>63.42</ele>
        <time>2020-07-19T08:50:29Z</time>
      </trkpt>
      <trkpt lat="47.40291" lon="-0.89693">
        <ele>63.11</ele>
        <time>2020-07-19T08:50:30Z</time>
      </trkpt>
      <trkpt lat="47.40294" lon="-0.89699">
        <ele>63.233</ele>
        <time>2020-07-19T08:50:31Z</time>
      </trkpt>
      <trkpt lat="47.40298" lon="-0.89705">
        <ele>62.647</ele>
        <time>2020-07-19T08:50:32Z</time>
      </trkpt>
      <trkpt lat="47.403" lon="-0.89711">
        <ele>62.353</ele>
        <time>2020-07-19T08:50:33Z</time>
      </trkpt>
      <trkpt lat="47.40301" lon="-0.89716">
        <ele>62.143</ele>
        <time>2020-07-19T08:50:34Z</time>
      </trkpt>
      <trkpt lat="47.40303" lon="-0.89724">
        <ele>62.561</ele>
        <time>2020-07-19T08:50:35Z</time>
      </trkpt>
      <trkpt lat="47.40305" lon="-0.89731">
        <ele>62.699</ele>
        <time>2020-07-19T08:50:36Z</time>
      </trkpt>
      <trkpt lat="47.40308" lon="-0.89736">
        <ele>62.195</ele>
        <time>2020-07-19T08:50:37Z</time>
      </trkpt>
      <trkpt lat="47.4031" lon="-0.89742">
        <ele>62.256</ele>
        <time>2020-07-19T08:50:38Z</time>
      </trkpt>
      <trkpt lat="47.40313" lon="-0.89746">
        <ele>61.57</ele>
        <time>2020-07-19T08:50:39Z</time>
      </trkpt>
      <trkpt lat="47.40316" lon="-0.89752">
        <ele>61.008</ele>
        <time>2020-07-19T08:50:40Z</time>
      </trkpt>
      <trkpt lat="47.4032" lon="-0.89757">
        <ele>60.942</ele>
        <time>2020-07-19T08:50:41Z</time>
      </trkpt>
      <trkpt lat="47.40323" lon="-0.89763">
        <ele>60.649</ele>
        <time>2020-07-19T08:50:42Z</time>
      </trkpt>
      <trkpt lat="47.40326" lon="-0.89768">
        <ele>60.311</ele>
        <time>2020-07-19T08:50:43Z</time>
      </trkpt>
      <trkpt lat="47.4033" lon="-0.89773">
        <ele>60.143</ele>
        <time>2020-07-19T08:50:44Z</time>
      </trkpt>
      <trkpt lat="47.40333" lon="-0.89779">
        <ele>60.263</ele>
        <time>2020-07-19T08:50:45Z</time>
      </trkpt>
      <trkpt lat="47.40335" lon="-0.89786">
        <ele>60.714</ele>
        <time>2020-07-19T08:50:46Z</time>
      </trkpt>
      <trkpt lat="47.40338" lon="-0.89792">
        <ele>61.76</ele>
        <time>2020-07-19T08:50:47Z</time>
      </trkpt>
      <trkpt lat="47.40341" lon="-0.89798">
        <ele>61.751</ele>
        <time>2020-07-19T08:50:48Z</time>
      </trkpt>
      <trkpt lat="47.40343" lon="-0.89804">
        <ele>61.936</ele>
        <time>2020-07-19T08:50:49Z</time>
      </trkpt>
      <trkpt lat="47.40344" lon="-0.89812">
        <ele>62.619</ele>
        <time>2020-07-19T08:50:50Z</time>
      </trkpt>
      <trkpt lat="47.40345" lon="-0.8982">
        <ele>63.558</ele>
        <time>2020-07-19T08:50:51Z</time>
      </trkpt>
      <trkpt lat="47.40346" lon="-0.89826">
        <ele>63.602</ele>
        <time>2020-07-19T08:50:52Z</time>
      </trkpt>
      <trkpt lat="47.40346" lon="-0.89834">
        <ele>64.315</ele>
        <time>2020-07-19T08:50:53Z</time>
      </trkpt>
      <trkpt lat="47.40346" lon="-0.89842">
        <ele>64.644</ele>
        <time>2020-07-19T08:50:54Z</time>
      </trkpt>
      <trkpt lat="47.40346" lon="-0.89849">
        <ele>64.355</ele>
        <time>2020-07-19T08:50:55Z</time>
      </trkpt>
      <trkpt lat="47.40345" lon="-0.89855">
        <ele>63.311</ele>
        <time>2020-07-19T08:50:56Z</time>
      </trkpt>
      <trkpt lat="47.40346" lon="-0.89863">
        <ele>63.078</ele>
        <time>2020-07-19T08:50:57Z</time>
      </trkpt>
      <trkpt lat="47.40346" lon="-0.8987">
        <ele>62.95</ele>
        <time>2020-07-19T08:50:58Z</time>
      </trkpt>
      <trkpt lat="47.40348" lon="-0.89877">
        <ele>62.995</ele>
        <time>2020-07-19T08:50:59Z</time>
      </trkpt>
      <trkpt lat="47.40352" lon="-0.89884">
        <ele>62.664</ele>
        <time>2020-07-19T08:51:00Z</time>
      </trkpt>
      <trkpt lat="47.40354" lon="-0.8989">
        <ele>62.589</ele>
        <time>2020-07-19T08:51:01Z</time>
      </trkpt>
      <trkpt lat="47.40357" lon="-0.89897">
        <ele>63.14</ele>
        <time>2020-07-19T08:51:02Z</time>
      </trkpt>
      <trkpt lat="47.40359" lon="-0.89903">
        <ele>63.313</ele>
        <time>2020-07-19T08:51:03Z</time>
      </trkpt>
      <trkpt lat="47.40363" lon="-0.89909">
        <ele>63.02</ele>
        <time>2020-07-19T08:51:04Z</time>
      </trkpt>
      <trkpt lat="47.40365" lon="-0.89915">
        <ele>62.605</ele>
        <time>2020-07-19T08:51:05Z</time>
      </trkpt>
      <trkpt lat="47.40368" lon="-0.89921">
        <ele>62.066</ele>
        <time>2020-07-19T08:51:06Z</time>
      </trkpt>
      <trkpt lat="47.4037" lon="-0.89927">
        <ele>63.061</ele>
        <time>2020-07-19T08:51:07Z</time>
      </trkpt>
      <trkpt lat="47.40372" lon="-0.89934">
        <ele>63.053</ele>
        <time>2020-07-19T08:51:08Z</time>
      </trkpt>
      <trkpt lat="47.40374" lon="-0.8994">
        <ele>63.195</ele>
        <time>2020-07-19T08:51:09Z</time>
      </trkpt>
      <trkpt lat="47.40375" lon="-0.89946">
        <ele>62.875</ele>
        <time>2020-07-19T08:51:10Z</time>
      </trkpt>
      <trkpt lat="47.40376" lon="-0.89953">
        <ele>63.263</ele>
        <time>2020-07-19T08:51:11Z</time>
      </trkpt>
      <trkpt lat="47.40376" lon="-0.89961">
        <ele>62.988</ele>
        <time>2020-07-19T08:51:12Z</time>
      </trkpt>
      <trkpt lat="47.40377" lon="-0.89968">
        <ele>62.301</ele>
        <time>2020-07-19T08:51:13Z</time>
      </trkpt>
      <trkpt lat="47.40377" lon="-0.89975">
        <ele>62.237</ele>
        <time>2020-07-19T08:51:14Z</time>
      </trkpt>
      <trkpt lat="47.40377" lon="-0.89983">
        <ele>61.581</ele>
        <time>2020-07-19T08:51:15Z</time>
      </trkpt>
      <trkpt lat="47.40376" lon="-0.8999">
        <ele>61.494</ele>
        <time>2020-07-19T08:51:16Z</time>
      </trkpt>
      <trkpt lat="47.40374" lon="-0.89997">
        <ele>61.948</ele>
        <time>2020-07-19T08:51:17Z</time>
      </trkpt>
      <trkpt lat="47.40373" lon="-0.90003">
        <ele>61.948</ele>
        <time>2020-07-19T08:51:18Z</time>
      </trkpt>
      <trkpt lat="47.40372" lon="-0.9001">
        <ele>61.97</ele>
        <time>2020-07-19T08:51:19Z</time>
      </trkpt>
      <trkpt lat="47.4037" lon="-0.90017">
        <ele>62.955</ele>
        <time>2020-07-19T08:51:20Z</time>
      </trkpt>
      <trkpt lat="47.40369" lon="-0.90023">
        <ele>62.426</ele>
        <time>2020-07-19T08:51:21Z</time>
      </trkpt>
      <trkpt lat="47.40368" lon="-0.90031">
        <ele>62.989</ele>
        <time>2020-07-19T08:51:22Z</time>
      </trkpt>
      <trkpt lat="47.40367" lon="-0.90038">
        <ele>62.316</ele>
        <time>2020-07-19T08:51:23Z</time>
      </trkpt>
      <trkpt lat="47.40365" lon="-0.90046">
        <ele>62.63</ele>
        <time>2020-07-19T08:51:24Z</time>
      </trkpt>
      <trkpt lat="47.40364" lon="-0.90052">
        <ele>61.438</ele>
        <time>2020-07-19T08:51:25Z</time>
      </trkpt>
      <trkpt lat="47.40364" lon="-0.90059">
        <ele>61.125</ele>
        <time>2020-07-19T08:51:26Z</time>
      </trkpt>
      <trkpt lat="47.40363" lon="-0.90065">
        <ele>61.328</ele>
        <time>2020-07-19T08:51:27Z</time>
      </trkpt>
      <trkpt lat="47.40364" lon="-0.90073">
        <ele>60.818</ele>
        <time>2020-07-19T08:51:28Z</time>
      </trkpt>
      <trkpt lat="47.40366" lon="-0.9008">
        <ele>61.221</ele>
        <time>2020-07-19T08:51:29Z</time>
      </trkpt>
      <trkpt lat="47.40367" lon="-0.90086">
        <ele>60.764</ele>
        <time>2020-07-19T08:51:30Z</time>
      </trkpt>
      <trkpt lat="47.40368" lon="-0.90093">
        <ele>60.652</ele>
        <time>2020-07-19T08:51:31Z</time>
      </trkpt>
      <trkpt lat="47.4037" lon="-0.90101">
        <ele>60.511</ele>
        <time>2020-07-19T08:51:32Z</time>
      </trkpt>
      <trkpt lat="47.40372" lon="-0.90107">
        <ele>60.625</ele>
        <time>2020-07-19T08:51:33Z</time>
      </trkpt>
      <trkpt lat="47.40373" lon="-0.90115">
        <ele>60.725</ele>
        <time>2020-07-19T08:51:34Z</time>
      </trkpt>
      <trkpt lat="47.40375" lon="-0.90122">
        <ele>60.674</ele>
        <time>2020-07-19T08:51:35Z</time>
      </trkpt>
      <trkpt lat="47.40377" lon="-0.90128">
        <ele>60.787</ele>
        <time>2020-07-19T08:51:36Z</time>
      </trkpt>
      <trkpt lat="47.4038" lon="-0.90136">
        <ele>60.429</ele>
        <time>2020-07-19T08:51:37Z</time>
      </trkpt>
      <trkpt lat="47.40383" lon="-0.90142">
        <ele>60.49</ele>
        <time>2020-07-19T08:51:38Z</time>
      </trkpt>
      <trkpt lat="47.40387" lon="-0.90147">
        <ele>60.41</ele>
        <time>2020-07-19T08:51:39Z</time>
      </trkpt>
      <trkpt lat="47.4039" lon="-0.90152">
        <ele>60.398</ele>
        <time>2020-07-19T08:51:40Z</time>
      </trkpt>
      <trkpt lat="47.40394" lon="-0.90156">
        <ele>60.682</ele>
        <time>2020-07-19T08:51:41Z</time>
      </trkpt>
      <trkpt lat="47.40397" lon="-0.90162">
        <ele>60.883</ele>
        <time>2020-07-19T08:51:42Z</time>
      </trkpt>
      <trkpt lat="47.404" lon="-0.90169">
        <ele>61.478</ele>
        <time>2020-07-19T08:51:43Z</time>
      </trkpt>
      <trkpt lat="47.40401" lon="-0.90176">
        <ele>62.266</ele>
        <time>2020-07-19T08:51:44Z</time>
      </trkpt>
      <trkpt lat="47.40402" lon="-0.90184">
        <ele>62.285</ele>
        <time>2020-07-19T08:51:45Z</time>
      </trkpt>
      <trkpt lat="47.40403" lon="-0.90191">
        <ele>62.628</ele>
        <time>2020-07-19T08:51:46Z</time>
      </trkpt>
      <trkpt lat="47.40404" lon="-0.90199">
        <ele>62.34</ele>
        <time>2020-07-19T08:51:47Z</time>
      </trkpt>
      <trkpt lat="47.40405" lon="-0.90205">
        <ele>61.744</ele>
        <time>2020-07-19T08:51:48Z</time>
      </trkpt>
      <trkpt lat="47.40406" lon="-0.90212">
        <ele>61.668</ele>
        <time>2020-07-19T08:51:49Z</time>
      </trkpt>
      <trkpt lat="47.40407" lon="-0.9022">
        <ele>62.217</ele>
        <time>2020-07-19T08:51:50Z</time>
      </trkpt>
      <trkpt lat="47.40409" lon="-0.90227">
        <ele>62.235</ele>
        <time>2020-07-19T08:51:51Z</time>
      </trkpt>
      <trkpt lat="47.4041" lon="-0.90235">
        <ele>61.81</ele>
        <time>2020-07-19T08:51:52Z</time>
      </trkpt>
      <trkpt lat="47.40412" lon="-0.90242">
        <ele>61.652</ele>
        <time>2020-07-19T08:51:53Z</time>
      </trkpt>
      <trkpt lat="47.40413" lon="-0.90249">
        <ele>61.226</ele>
        <time>2020-07-19T08:51:54Z</time>
      </trkpt>
      <trkpt lat="47.40414" lon="-0.90257">
        <ele>61.889</ele>
        <time>2020-07-19T08:51:55Z</time>
      </trkpt>
      <trkpt lat="47.40416" lon="-0.90265">
        <ele>61.836</ele>
        <time>2020-07-19T08:51:56Z</time>
      </trkpt>
      <trkpt lat="47.40418" lon="-0.90272">
        <ele>62.45</ele>
        <time>2020-07-19T08:51:57Z</time>
      </trkpt>
      <trkpt lat="47.40421" lon="-0.90279">
        <ele>62.552</ele>
        <time>2020-07-19T08:51:58Z</time>
      </trkpt>
      <trkpt lat="47.40423" lon="-0.90285">
        <ele>61.771</ele>
        <time>2020-07-19T08:51:59Z</time>
      </trkpt>
      <trkpt lat="47.40426" lon="-0.90292">
        <ele>62.062</ele>
        <time>2020-07-19T08:52:00Z</time>
      </trkpt>
      <trkpt lat="47.40428" lon="-0.90299">
        <ele>61.281</ele>
        <time>2020-07-19T08:52:01Z</time>
      </trkpt>
      <trkpt lat="47.4043" lon="-0.90307">
        <ele>61.414</ele>
        <time>2020-07-19T08:52:02Z</time>
      </trkpt>
      <trkpt lat="47.40431" lon="-0.90316">
        <ele>61.979</ele>
        <time>2020-07-19T08:52:03Z</time>
      </trkpt>
      <trkpt lat="47.40432" lon="-0.90324">
        <ele>62.364</ele>
        <time>2020-07-19T08:52:04Z</time>
      </trkpt>
      <trkpt lat="47.40433" lon="-0.90333">
        <ele>62.08</ele>
        <time>2020-07-19T08:52:05Z</time>
      </trkpt>
      <trkpt lat="47.40433" lon="-0.90341">
        <ele>62.943</ele>
        <time>2020-07-19T08:52:06Z</time>
      </trkpt>
      <trkpt lat="47.40433" lon="-0.90349">
        <ele>63.251</ele>
        <time>2020-07-19T08:52:07Z</time>
      </trkpt>
      <trkpt lat="47.40433" lon="-0.90359">
        <ele>64.054</ele>
        <time>2020-07-19T08:52:08Z</time>
      </trkpt>
      <trkpt lat="47.40433" lon="-0.90366">
        <ele>64.931</ele>
        <time>2020-07-19T08:52:09Z</time>
      </trkpt>
      <trkpt lat="47.40434" lon="-0.90373">
        <ele>64.344</ele>
        <time>2020-07-19T08:52:10Z</time>
      </trkpt>
      <trkpt lat="47.40436" lon="-0.9038">
        <ele>62.903</ele>
        <time>2020-07-19T08:52:11Z</time>
      </trkpt>
      <trkpt lat="47.40438" lon="-0.90388">
        <ele>63.358</ele>
        <time>2020-07-19T08:52:12Z</time>
      </trkpt>
      <trkpt lat="47.4044" lon="-0.90396">
        <ele>63.485</ele>
        <time>2020-07-19T08:52:13Z</time>
      </trkpt>
      <trkpt lat="47.40441" lon="-0.90404">
        <ele>63.458</ele>
        <time>2020-07-19T08:52:14Z</time>
      </trkpt>
      <trkpt lat="47.40442" lon="-0.90412">
        <ele>63.121</ele>
        <time>2020-07-19T08:52:15Z</time>
      </trkpt>
      <trkpt lat="47.40443" lon="-0.9042">
        <ele>62.975</ele>
        <time>2020-07-19T08:52:16Z</time>
      </trkpt>
      <trkpt lat="47.40446" lon="-0.90428">
        <ele>60.89</ele>
        <time>2020-07-19T08:52:17Z</time>
      </trkpt>
      <trkpt lat="47.40447" lon="-0.90436">
        <ele>60.612</ele>
        <time>2020-07-19T08:52:18Z</time>
      </trkpt>
      <trkpt lat="47.40448" lon="-0.90444">
        <ele>60.471</ele>
        <time>2020-07-19T08:52:19Z</time>
      </trkpt>
      <trkpt lat="47.40449" lon="-0.90452">
        <ele>60.63</ele>
        <time>2020-07-19T08:52:20Z</time>
      </trkpt>
      <trkpt lat="47.40451" lon="-0.9046">
        <ele>60.899</ele>
        <time>2020-07-19T08:52:21Z</time>
      </trkpt>
      <trkpt lat="47.40452" lon="-0.90468">
        <ele>61.581</ele>
        <time>2020-07-19T08:52:22Z</time>
      </trkpt>
      <trkpt lat="47.40453" lon="-0.90476">
        <ele>62.678</ele>
        <time>2020-07-19T08:52:23Z</time>
      </trkpt>
      <trkpt lat="47.40456" lon="-0.90483">
        <ele>62.703</ele>
        <time>2020-07-19T08:52:24Z</time>
      </trkpt>
      <trkpt lat="47.40457" lon="-0.90491">
        <ele>63.348</ele>
        <time>2020-07-19T08:52:25Z</time>
      </trkpt>
      <trkpt lat="47.40461" lon="-0.90494">
        <ele>59.153</ele>
        <time>2020-07-19T08:52:26Z</time>
      </trkpt>
      <trkpt lat="47.40463" lon="-0.90503">
        <ele>62.868</ele>
        <time>2020-07-19T08:52:27Z</time>
      </trkpt>
      <trkpt lat="47.40465" lon="-0.90512">
        <ele>62.654</ele>
        <time>2020-07-19T08:52:28Z</time>
      </trkpt>
      <trkpt lat="47.40467" lon="-0.90519">
        <ele>62.267</ele>
        <time>2020-07-19T08:52:29Z</time>
      </trkpt>
      <trkpt lat="47.40468" lon="-0.90527">
        <ele>62.367</ele>
        <time>2020-07-19T08:52:30Z</time>
      </trkpt>
      <trkpt lat="47.40469" lon="-0.90534">
        <ele>62.167</ele>
        <time>2020-07-19T08:52:31Z</time>
      </trkpt>
      <trkpt lat="47.40471" lon="-0.90542">
        <ele>61.902</ele>
        <time>2020-07-19T08:52:32Z</time>
      </trkpt>
      <trkpt lat="47.40472" lon="-0.9055">
        <ele>61.752</ele>
        <time>2020-07-19T08:52:33Z</time>
      </trkpt>
      <trkpt lat="47.40473" lon="-0.90558">
        <ele>61.131</ele>
        <time>2020-07-19T08:52:34Z</time>
      </trkpt>
      <trkpt lat="47.40475" lon="-0.90565">
        <ele>61.447</ele>
        <time>2020-07-19T08:52:35Z</time>
      </trkpt>
      <trkpt lat="47.40475" lon="-0.90574">
        <ele>61.887</ele>
        <time>2020-07-19T08:52:36Z</time>
      </trkpt>
      <trkpt lat="47.40476" lon="-0.90581">
        <ele>61.983</ele>
        <time>2020-07-19T08:52:37Z</time>
      </trkpt>
      <trkpt lat="47.40477" lon="-0.90589">
        <ele>62.238</ele>
        <time>2020-07-19T08:52:38Z</time>
      </trkpt>
      <trkpt lat="47.40478" lon="-0.90597">
        <ele>62.69</ele>
        <time>2020-07-19T08:52:39Z</time>
      </trkpt>
      <trkpt lat="47.40479" lon="-0.90604">
        <ele>62.533</ele>
        <time>2020-07-19T08:52:40Z</time>
      </trkpt>
      <trkpt lat="47.40482" lon="-0.9061">
        <ele>61.579</ele>
        <time>2020-07-19T08:52:41Z</time>
      </trkpt>
      <trkpt lat="47.40483" lon="-0.90617">
        <ele>60.667</ele>
        <time>2020-07-19T08:52:42Z</time>
      </trkpt>
      <trkpt lat="47.40485" lon="-0.90625">
        <ele>60.469</ele>
        <time>2020-07-19T08:52:43Z</time>
      </trkpt>
      <trkpt lat="47.40487" lon="-0.90633">
        <ele>60.756</ele>
        <time>2020-07-19T08:52:44Z</time>
      </trkpt>
      <trkpt lat="47.40489" lon="-0.90641">
        <ele>60.678</ele>
        <time>2020-07-19T08:52:45Z</time>
      </trkpt>
      <trkpt lat="47.40492" lon="-0.90649">
        <ele>59.416</ele>
        <time>2020-07-19T08:52:46Z</time>
      </trkpt>
      <trkpt lat="47.40495" lon="-0.90658">
        <ele>58.673</ele>
        <time>2020-07-19T08:52:47Z</time>
      </trkpt>
      <trkpt lat="47.40497" lon="-0.90665">
        <ele>58.358</ele>
        <time>2020-07-19T08:52:48Z</time>
      </trkpt>
      <trkpt lat="47.405" lon="-0.90673">
        <ele>58.708</ele>
        <time>2020-07-19T08:52:49Z</time>
      </trkpt>
      <trkpt lat="47.40501" lon="-0.90681">
        <ele>58.646</ele>
        <time>2020-07-19T08:52:50Z</time>
      </trkpt>
      <trkpt lat="47.40503" lon="-0.90689">
        <ele>58.775</ele>
        <time>2020-07-19T08:52:51Z</time>
      </trkpt>
      <trkpt lat="47.40504" lon="-0.90698">
        <ele>59.058</ele>
        <time>2020-07-19T08:52:52Z</time>
      </trkpt>
      <trkpt lat="47.40504" lon="-0.90705">
        <ele>58.491</ele>
        <time>2020-07-19T08:52:53Z</time>
      </trkpt>
      <trkpt lat="47.40505" lon="-0.90713">
        <ele>58.517</ele>
        <time>2020-07-19T08:52:54Z</time>
      </trkpt>
      <trkpt lat="47.40506" lon="-0.90722">
        <ele>57.663</ele>
        <time>2020-07-19T08:52:55Z</time>
      </trkpt>
      <trkpt lat="47.40508" lon="-0.90729">
        <ele>57.672</ele>
        <time>2020-07-19T08:52:56Z</time>
      </trkpt>
      <trkpt lat="47.4051" lon="-0.90737">
        <ele>57.743</ele>
        <time>2020-07-19T08:52:57Z</time>
      </trkpt>
      <trkpt lat="47.40513" lon="-0.90744">
        <ele>56.017</ele>
        <time>2020-07-19T08:52:58Z</time>
      </trkpt>
      <trkpt lat="47.40514" lon="-0.90752">
        <ele>56.305</ele>
        <time>2020-07-19T08:52:59Z</time>
      </trkpt>
      <trkpt lat="47.40514" lon="-0.90759">
        <ele>56.179</ele>
        <time>2020-07-19T08:53:00Z</time>
      </trkpt>
      <trkpt lat="47.40514" lon="-0.90766">
        <ele>54.737</ele>
        <time>2020-07-19T08:53:01Z</time>
      </trkpt>
      <trkpt lat="47.40515" lon="-0.90772">
        <ele>54.591</ele>
        <time>2020-07-19T08:53:02Z</time>
      </trkpt>
      <trkpt lat="47.40515" lon="-0.90778">
        <ele>54.744</ele>
        <time>2020-07-19T08:53:03Z</time>
      </trkpt>
      <trkpt lat="47.40516" lon="-0.90785">
        <ele>54.758</ele>
        <time>2020-07-19T08:53:04Z</time>
      </trkpt>
      <trkpt lat="47.40517" lon="-0.90792">
        <ele>55.06</ele>
        <time>2020-07-19T08:53:05Z</time>
      </trkpt>
      <trkpt lat="47.40518" lon="-0.90799">
        <ele>55.127</ele>
        <time>2020-07-19T08:53:06Z</time>
      </trkpt>
      <trkpt lat="47.4052" lon="-0.90807">
        <ele>54.853</ele>
        <time>2020-07-19T08:53:07Z</time>
      </trkpt>
      <trkpt lat="47.40522" lon="-0.90813">
        <ele>54.763</ele>
        <time>2020-07-19T08:53:08Z</time>
      </trkpt>
      <trkpt lat="47.40525" lon="-0.90819">
        <ele>55.151</ele>
        <time>2020-07-19T08:53:09Z</time>
      </trkpt>
      <trkpt lat="47.40528" lon="-0.90825">
        <ele>56.638</ele>
        <time>2020-07-19T08:53:10Z</time>
      </trkpt>
      <trkpt lat="47.40531" lon="-0.90831">
        <ele>55.499</ele>
        <time>2020-07-19T08:53:11Z</time>
      </trkpt>
      <trkpt lat="47.40534" lon="-0.90836">
        <ele>55.44</ele>
        <time>2020-07-19T08:53:12Z</time>
      </trkpt>
      <trkpt lat="47.40535" lon="-0.90843">
        <ele>55.96</ele>
        <time>2020-07-19T08:53:13Z</time>
      </trkpt>
      <trkpt lat="47.40537" lon="-0.9085">
        <ele>56.318</ele>
        <time>2020-07-19T08:53:14Z</time>
      </trkpt>
      <trkpt lat="47.40538" lon="-0.90857">
        <ele>56.17</ele>
        <time>2020-07-19T08:53:15Z</time>
      </trkpt>
      <trkpt lat="47.40538" lon="-0.90862">
        <ele>54.351</ele>
        <time>2020-07-19T08:53:16Z</time>
      </trkpt>
      <trkpt lat="47.40539" lon="-0.90869">
        <ele>54.117</ele>
        <time>2020-07-19T08:53:17Z</time>
      </trkpt>
      <trkpt lat="47.4054" lon="-0.90877">
        <ele>54.881</ele>
        <time>2020-07-19T08:53:18Z</time>
      </trkpt>
      <trkpt lat="47.4054" lon="-0.90884">
        <ele>54.807</ele>
        <time>2020-07-19T08:53:19Z</time>
      </trkpt>
      <trkpt lat="47.4054" lon="-0.90891">
        <ele>55.671</ele>
        <time>2020-07-19T08:53:20Z</time>
      </trkpt>
      <trkpt lat="47.4054" lon="-0.90898">
        <ele>56.497</ele>
        <time>2020-07-19T08:53:21Z</time>
      </trkpt>
      <trkpt lat="47.40541" lon="-0.90903">
        <ele>53.725</ele>
        <time>2020-07-19T08:53:22Z</time>
      </trkpt>
      <trkpt lat="47.40541" lon="-0.90912">
        <ele>54.119</ele>
        <time>2020-07-19T08:53:23Z</time>
      </trkpt>
      <trkpt lat="47.40539" lon="-0.90921">
        <ele>54.564</ele>
        <time>2020-07-19T08:53:24Z</time>
      </trkpt>
      <trkpt lat="47.40538" lon="-0.90928">
        <ele>54.316</ele>
        <time>2020-07-19T08:53:25Z</time>
      </trkpt>
      <trkpt lat="47.40536" lon="-0.90936">
        <ele>53.873</ele>
        <time>2020-07-19T08:53:26Z</time>
      </trkpt>
      <trkpt lat="47.40534" lon="-0.90943">
        <ele>54.959</ele>
        <time>2020-07-19T08:53:27Z</time>
      </trkpt>
      <trkpt lat="47.40532" lon="-0.90951">
        <ele>54.372</ele>
        <time>2020-07-19T08:53:28Z</time>
      </trkpt>
      <trkpt lat="47.40531" lon="-0.90957">
        <ele>54.916</ele>
        <time>2020-07-19T08:53:29Z</time>
      </trkpt>
      <trkpt lat="47.4053" lon="-0.90963">
        <ele>54.353</ele>
        <time>2020-07-19T08:53:30Z</time>
      </trkpt>
      <trkpt lat="47.40529" lon="-0.90969">
        <ele>53.144</ele>
        <time>2020-07-19T08:53:31Z</time>
      </trkpt>
      <trkpt lat="47.40528" lon="-0.90979">
        <ele>53.769</ele>
        <time>2020-07-19T08:53:32Z</time>
      </trkpt>
      <trkpt lat="47.40528" lon="-0.90986">
        <ele>54.043</ele>
        <time>2020-07-19T08:53:33Z</time>
      </trkpt>
      <trkpt lat="47.40528" lon="-0.90994">
        <ele>55.377</ele>
        <time>2020-07-19T08:53:34Z</time>
      </trkpt>
      <trkpt lat="47.40527" lon="-0.91002">
        <ele>55.355</ele>
        <time>2020-07-19T08:53:35Z</time>
      </trkpt>
      <trkpt lat="47.40527" lon="-0.91011">
        <ele>55.499</ele>
        <time>2020-07-19T08:53:36Z</time>
      </trkpt>
      <trkpt lat="47.40527" lon="-0.91019">
        <ele>55.242</ele>
        <time>2020-07-19T08:53:37Z</time>
      </trkpt>
      <trkpt lat="47.40525" lon="-0.91027">
        <ele>55.672</ele>
        <time>2020-07-19T08:53:38Z</time>
      </trkpt>
      <trkpt lat="47.40525" lon="-0.91036">
        <ele>55.519</ele>
        <time>2020-07-19T08:53:39Z</time>
      </trkpt>
      <trkpt lat="47.40525" lon="-0.91044">
        <ele>56.412</ele>
        <time>2020-07-19T08:53:40Z</time>
      </trkpt>
      <trkpt lat="47.40526" lon="-0.91052">
        <ele>57.351</ele>
        <time>2020-07-19T08:53:41Z</time>
      </trkpt>
      <trkpt lat="47.40526" lon="-0.91061">
        <ele>57.32</ele>
        <time>2020-07-19T08:53:42Z</time>
      </trkpt>
      <trkpt lat="47.40526" lon="-0.9107">
        <ele>56.596</ele>
        <time>2020-07-19T08:53:43Z</time>
      </trkpt>
      <trkpt lat="47.40525" lon="-0.91077">
        <ele>55.769</ele>
        <time>2020-07-19T08:53:44Z</time>
      </trkpt>
      <trkpt lat="47.40524" lon="-0.91086">
        <ele>56.429</ele>
        <time>2020-07-19T08:53:45Z</time>
      </trkpt>
      <trkpt lat="47.40522" lon="-0.91094">
        <ele>56.988</ele>
        <time>2020-07-19T08:53:46Z</time>
      </trkpt>
      <trkpt lat="47.40521" lon="-0.91103">
        <ele>56.47</ele>
        <time>2020-07-19T08:53:47Z</time>
      </trkpt>
      <trkpt lat="47.4052" lon="-0.91111">
        <ele>56.896</ele>
        <time>2020-07-19T08:53:48Z</time>
      </trkpt>
      <trkpt lat="47.4052" lon="-0.9112">
        <ele>56.515</ele>
        <time>2020-07-19T08:53:49Z</time>
      </trkpt>
      <trkpt lat="47.40519" lon="-0.91128">
        <ele>56.439</ele>
        <time>2020-07-19T08:53:50Z</time>
      </trkpt>
      <trkpt lat="47.40519" lon="-0.91136">
        <ele>54.64</ele>
        <time>2020-07-19T08:53:51Z</time>
      </trkpt>
      <trkpt lat="47.40519" lon="-0.91144">
        <ele>54.194</ele>
        <time>2020-07-19T08:53:52Z</time>
      </trkpt>
      <trkpt lat="47.40516" lon="-0.91152">
        <ele>55.267</ele>
        <time>2020-07-19T08:53:53Z</time>
      </trkpt>
      <trkpt lat="47.40515" lon="-0.91159">
        <ele>55.098</ele>
        <time>2020-07-19T08:53:54Z</time>
      </trkpt>
      <trkpt lat="47.40513" lon="-0.91168">
        <ele>55.697</ele>
        <time>2020-07-19T08:53:55Z</time>
      </trkpt>
      <trkpt lat="47.40512" lon="-0.91175">
        <ele>55.654</ele>
        <time>2020-07-19T08:53:56Z</time>
      </trkpt>
      <trkpt lat="47.40511" lon="-0.91183">
        <ele>56.05</ele>
        <time>2020-07-19T08:53:57Z</time>
      </trkpt>
      <trkpt lat="47.40511" lon="-0.91191">
        <ele>56.432</ele>
        <time>2020-07-19T08:53:58Z</time>
      </trkpt>
      <trkpt lat="47.4051" lon="-0.91198">
        <ele>57.132</ele>
        <time>2020-07-19T08:53:59Z</time>
      </trkpt>
      <trkpt lat="47.4051" lon="-0.91206">
        <ele>57.297</ele>
        <time>2020-07-19T08:54:00Z</time>
      </trkpt>
      <trkpt lat="47.40509" lon="-0.91212">
        <ele>57.839</ele>
        <time>2020-07-19T08:54:01Z</time>
      </trkpt>
      <trkpt lat="47.40508" lon="-0.91218">
        <ele>58.623</ele>
        <time>2020-07-19T08:54:02Z</time>
      </trkpt>
      <trkpt lat="47.40506" lon="-0.91222">
        <ele>59.437</ele>
        <time>2020-07-19T08:54:03Z</time>
      </trkpt>
      <trkpt lat="47.40505" lon="-0.91225">
        <ele>58.89</ele>
        <time>2020-07-19T08:54:04Z</time>
      </trkpt>
      <trkpt lat="47.40506" lon="-0.91231">
        <ele>58.469</ele>
        <time>2020-07-19T08:54:05Z</time>
      </trkpt>
      <trkpt lat="47.40505" lon="-0.91236">
        <ele>59.443</ele>
        <time>2020-07-19T08:54:06Z</time>
      </trkpt>
      <trkpt lat="47.40505" lon="-0.91241">
        <ele>60.635</ele>
        <time>2020-07-19T08:54:07Z</time>
      </trkpt>
      <trkpt lat="47.40505" lon="-0.91246">
        <ele>60.321</ele>
        <time>2020-07-19T08:54:08Z</time>
      </trkpt>
      <trkpt lat="47.40503" lon="-0.91251">
        <ele>60.856</ele>
        <time>2020-07-19T08:54:09Z</time>
      </trkpt>
      <trkpt lat="47.40503" lon="-0.91256">
        <ele>60.505</ele>
        <time>2020-07-19T08:54:10Z</time>
      </trkpt>
      <trkpt lat="47.40502" lon="-0.91261">
        <ele>60.078</ele>
        <time>2020-07-19T08:54:11Z</time>
      </trkpt>
      <trkpt lat="47.40501" lon="-0.91266">
        <ele>60.545</ele>
        <time>2020-07-19T08:54:12Z</time>
      </trkpt>
      <trkpt lat="47.40499" lon="-0.91271">
        <ele>60.431</ele>
        <time>2020-07-19T08:54:13Z</time>
      </trkpt>
      <trkpt lat="47.40498" lon="-0.91277">
        <ele>61.684</ele>
        <time>2020-07-19T08:54:14Z</time>
      </trkpt>
      <trkpt lat="47.40496" lon="-0.91283">
        <ele>61.723</ele>
        <time>2020-07-19T08:54:15Z</time>
      </trkpt>
      <trkpt lat="47.40494" lon="-0.91289">
        <ele>61.67</ele>
        <time>2020-07-19T08:54:16Z</time>
      </trkpt>
      <trkpt lat="47.40492" lon="-0.91294">
        <ele>60.767</ele>
        <time>2020-07-19T08:54:17Z</time>
      </trkpt>
      <trkpt lat="47.4049" lon="-0.913">
        <ele>60.774</ele>
        <time>2020-07-19T08:54:18Z</time>
      </trkpt>
      <trkpt lat="47.40488" lon="-0.91305">
        <ele>59.447</ele>
        <time>2020-07-19T08:54:19Z</time>
      </trkpt>
      <trkpt lat="47.40485" lon="-0.91311">
        <ele>59.544</ele>
        <time>2020-07-19T08:54:20Z</time>
      </trkpt>
      <trkpt lat="47.40483" lon="-0.91318">
        <ele>60.189</ele>
        <time>2020-07-19T08:54:21Z</time>
      </trkpt>
      <trkpt lat="47.40481" lon="-0.91323">
        <ele>59.611</ele>
        <time>2020-07-19T08:54:22Z</time>
      </trkpt>
      <trkpt lat="47.4048" lon="-0.9133">
        <ele>59.586</ele>
        <time>2020-07-19T08:54:23Z</time>
      </trkpt>
      <trkpt lat="47.40477" lon="-0.91337">
        <ele>59.775</ele>
        <time>2020-07-19T08:54:24Z</time>
      </trkpt>
      <trkpt lat="47.40475" lon="-0.91343">
        <ele>59.479</ele>
        <time>2020-07-19T08:54:25Z</time>
      </trkpt>
      <trkpt lat="47.40475" lon="-0.9135">
        <ele>60.106</ele>
        <time>2020-07-19T08:54:26Z</time>
      </trkpt>
      <trkpt lat="47.40474" lon="-0.91358">
        <ele>60.907</ele>
        <time>2020-07-19T08:54:27Z</time>
      </trkpt>
      <trkpt lat="47.40471" lon="-0.91365">
        <ele>61.604</ele>
        <time>2020-07-19T08:54:28Z</time>
      </trkpt>
      <trkpt lat="47.40469" lon="-0.91372">
        <ele>61.477</ele>
        <time>2020-07-19T08:54:29Z</time>
      </trkpt>
      <trkpt lat="47.40466" lon="-0.91379">
        <ele>61.77</ele>
        <time>2020-07-19T08:54:30Z</time>
      </trkpt>
      <trkpt lat="47.40465" lon="-0.91386">
        <ele>61.66</ele>
        <time>2020-07-19T08:54:31Z</time>
      </trkpt>
      <trkpt lat="47.40463" lon="-0.91392">
        <ele>62.049</ele>
        <time>2020-07-19T08:54:32Z</time>
      </trkpt>
      <trkpt lat="47.40461" lon="-0.91397">
        <ele>62.282</ele>
        <time>2020-07-19T08:54:33Z</time>
      </trkpt>
      <trkpt lat="47.4046" lon="-0.91401">
        <ele>61.776</ele>
        <time>2020-07-19T08:54:34Z</time>
      </trkpt>
      <trkpt lat="47.4046" lon="-0.91407">
        <ele>61.12</ele>
        <time>2020-07-19T08:54:35Z</time>
      </trkpt>
      <trkpt lat="47.4046" lon="-0.91413">
        <ele>60.323</ele>
        <time>2020-07-19T08:54:36Z</time>
      </trkpt>
      <trkpt lat="47.4046" lon="-0.91416">
        <ele>59.549</ele>
        <time>2020-07-19T08:54:37Z</time>
      </trkpt>
      <trkpt lat="47.40458" lon="-0.9142">
        <ele>59.787</ele>
        <time>2020-07-19T08:54:38Z</time>
      </trkpt>
      <trkpt lat="47.40454" lon="-0.91422">
        <ele>59.477</ele>
        <time>2020-07-19T08:54:39Z</time>
      </trkpt>
      <trkpt lat="47.40452" lon="-0.91428">
        <ele>58.671</ele>
        <time>2020-07-19T08:54:40Z</time>
      </trkpt>
      <trkpt lat="47.40448" lon="-0.91431">
        <ele>58.913</ele>
        <time>2020-07-19T08:54:41Z</time>
      </trkpt>
      <trkpt lat="47.40446" lon="-0.91435">
        <ele>58.907</ele>
        <time>2020-07-19T08:54:42Z</time>
      </trkpt>
      <trkpt lat="47.40443" lon="-0.9144">
        <ele>59.034</ele>
        <time>2020-07-19T08:54:43Z</time>
      </trkpt>
      <trkpt lat="47.40442" lon="-0.91445">
        <ele>58.646</ele>
        <time>2020-07-19T08:54:44Z</time>
      </trkpt>
      <trkpt lat="47.40442" lon="-0.91451">
        <ele>59.564</ele>
        <time>2020-07-19T08:54:45Z</time>
      </trkpt>
      <trkpt lat="47.40441" lon="-0.91457">
        <ele>60.343</ele>
        <time>2020-07-19T08:54:46Z</time>
      </trkpt>
      <trkpt lat="47.40439" lon="-0.91463">
        <ele>60.389</ele>
        <time>2020-07-19T08:54:47Z</time>
      </trkpt>
      <trkpt lat="47.40437" lon="-0.91468">
        <ele>60.36</ele>
        <time>2020-07-19T08:54:48Z</time>
      </trkpt>
      <trkpt lat="47.40435" lon="-0.91474">
        <ele>60.857</ele>
        <time>2020-07-19T08:54:49Z</time>
      </trkpt>
      <trkpt lat="47.40433" lon="-0.91479">
        <ele>61.515</ele>
        <time>2020-07-19T08:54:50Z</time>
      </trkpt>
      <trkpt lat="47.40431" lon="-0.91485">
        <ele>60.631</ele>
        <time>2020-07-19T08:54:51Z</time>
      </trkpt>
      <trkpt lat="47.4043" lon="-0.91491">
        <ele>60.22</ele>
        <time>2020-07-19T08:54:52Z</time>
      </trkpt>
      <trkpt lat="47.4043" lon="-0.91498">
        <ele>59.778</ele>
        <time>2020-07-19T08:54:53Z</time>
      </trkpt>
      <trkpt lat="47.4043" lon="-0.91503">
        <ele>59.058</ele>
        <time>2020-07-19T08:54:54Z</time>
      </trkpt>
      <trkpt lat="47.40431" lon="-0.91509">
        <ele>59.024</ele>
        <time>2020-07-19T08:54:55Z</time>
      </trkpt>
      <trkpt lat="47.4043" lon="-0.91515">
        <ele>58.576</ele>
        <time>2020-07-19T08:54:56Z</time>
      </trkpt>
      <trkpt lat="47.40428" lon="-0.91521">
        <ele>59.112</ele>
        <time>2020-07-19T08:54:57Z</time>
      </trkpt>
      <trkpt lat="47.40426" lon="-0.91527">
        <ele>58.659</ele>
        <time>2020-07-19T08:54:58Z</time>
      </trkpt>
      <trkpt lat="47.40425" lon="-0.91533">
        <ele>58.539</ele>
        <time>2020-07-19T08:54:59Z</time>
      </trkpt>
      <trkpt lat="47.40423" lon="-0.91539">
        <ele>58.323</ele>
        <time>2020-07-19T08:55:00Z</time>
      </trkpt>
      <trkpt lat="47.40423" lon="-0.91544">
        <ele>57.845</ele>
        <time>2020-07-19T08:55:01Z</time>
      </trkpt>
      <trkpt lat="47.40423" lon="-0.91548">
        <ele>58.172</ele>
        <time>2020-07-19T08:55:02Z</time>
      </trkpt>
      <trkpt lat="47.40422" lon="-0.91552">
        <ele>58.394</ele>
        <time>2020-07-19T08:55:03Z</time>
      </trkpt>
      <trkpt lat="47.40422" lon="-0.91557">
        <ele>58.091</ele>
        <time>2020-07-19T08:55:04Z</time>
      </trkpt>
      <trkpt lat="47.40421" lon="-0.91559">
        <ele>57.472</ele>
        <time>2020-07-19T08:55:05Z</time>
      </trkpt>
      <trkpt lat="47.40421" lon="-0.9156">
        <ele>57.348</ele>
        <time>2020-07-19T08:55:06Z</time>
      </trkpt>
      <trkpt lat="47.40421" lon="-0.9156">
        <ele>57.711</ele>
        <time>2020-07-19T08:55:07Z</time>
      </trkpt>
      <trkpt lat="47.40422" lon="-0.9156">
        <ele>57.644</ele>
        <time>2020-07-19T08:55:08Z</time>
      </trkpt>
      <trkpt lat="47.40422" lon="-0.9156">
        <ele>58</ele>
        <time>2020-07-19T08:55:09Z</time>
      </trkpt>
      <trkpt lat="47.40423" lon="-0.9156">
        <ele>57.935</ele>
        <time>2020-07-19T08:55:10Z</time>
      </trkpt>
      <trkpt lat="47.40423" lon="-0.9156">
        <ele>57.87</ele>
        <time>2020-07-19T08:55:11Z</time>
      </trkpt>
      <trkpt lat="47.40423" lon="-0.9156">
        <ele>57.525</ele>
        <time>2020-07-19T08:55:12Z</time>
      </trkpt>
      <trkpt lat="47.40423" lon="-0.91559">
        <ele>57.014</ele>
        <time>2020-07-19T08:55:13Z</time>
      </trkpt>
      <trkpt lat="47.40423" lon="-0.91559">
        <ele>57.377</ele>
        <time>2020-07-19T08:55:14Z</time>
      </trkpt>
      <trkpt lat="47.40423" lon="-0.91559">
        <ele>57.852</ele>
        <time>2020-07-19T08:55:15Z</time>
      </trkpt>
      <trkpt lat="47.40422" lon="-0.9156">
        <ele>58.219</ele>
        <time>2020-07-19T08:55:16Z</time>
      </trkpt>
      <trkpt lat="47.40422" lon="-0.9156">
        <ele>58.498</ele>
        <time>2020-07-19T08:55:19Z</time>
      </trkpt>
      <trkpt lat="47.40422" lon="-0.91559">
        <ele>58.111</ele>
        <time>2020-07-19T08:55:19Z</time>
      </trkpt>
      <trkpt lat="47.40422" lon="-0.91559">
        <ele>58.513</ele>
        <time>2020-07-19T08:55:19Z</time>
      </trkpt>
      <trkpt lat="47.40422" lon="-0.91559">
        <ele>58.422</ele>
        <time>2020-07-19T08:55:20Z</time>
      </trkpt>
      <trkpt lat="47.40422" lon="-0.91559">
        <ele>58.356</ele>
        <time>2020-07-19T08:55:21Z</time>
      </trkpt>
      <trkpt lat="47.40422" lon="-0.91559">
        <ele>58.162</ele>
        <time>2020-07-19T08:55:22Z</time>
      </trkpt>
      <trkpt lat="47.40422" lon="-0.91559">
        <ele>57.941</ele>
        <time>2020-07-19T08:55:23Z</time>
      </trkpt>
      <trkpt lat="47.40422" lon="-0.91559">
        <ele>57.957</ele>
        <time>2020-07-19T08:55:24Z</time>
      </trkpt>
      <trkpt lat="47.40422" lon="-0.91559">
        <ele>57.905</ele>
        <time>2020-07-19T08:55:25Z</time>
      </trkpt>
      <trkpt lat="47.40422" lon="-0.91559">
        <ele>57.93</ele>
        <time>2020-07-19T08:55:26Z</time>
      </trkpt>
      <trkpt lat="47.40422" lon="-0.91559">
        <ele>57.935</ele>
        <time>2020-07-19T08:55:27Z</time>
      </trkpt>
      <trkpt lat="47.40422" lon="-0.91559">
        <ele>57.92</ele>
        <time>2020-07-19T08:55:28Z</time>
      </trkpt>
      <trkpt lat="47.40422" lon="-0.91559">
        <ele>57.939</ele>
        <time>2020-07-19T08:55:29Z</time>
      </trkpt>
      <trkpt lat="47.40422" lon="-0.91559">
        <ele>57.94</ele>
        <time>2020-07-19T08:55:30Z</time>
      </trkpt>
      <trkpt lat="47.40422" lon="-0.91559">
        <ele>57.93</ele>
        <time>2020-07-19T08:55:31Z</time>
      </trkpt>
      <trkpt lat="47.40422" lon="-0.91559">
        <ele>57.903</ele>
        <time>2020-07-19T08:55:32Z</time>
      </trkpt>
      <trkpt lat="47.40422" lon="-0.91559">
        <ele>57.901</ele>
        <time>2020-07-19T08:55:33Z</time>
      </trkpt>
      <trkpt lat="47.40422" lon="-0.91559">
        <ele>57.897</ele>
        <time>2020-07-19T08:55:34Z</time>
      </trkpt>
      <trkpt lat="47.40422" lon="-0.91559">
        <ele>57.897</ele>
        <time>2020-07-19T08:55:35Z</time>
      </trkpt>
      <trkpt lat="47.40422" lon="-0.91559">
        <ele>57.945</ele>
        <time>2020-07-19T08:55:36Z</time>
      </trkpt>
      <trkpt lat="47.40422" lon="-0.91559">
        <ele>57.959</ele>
        <time>2020-07-19T08:55:37Z</time>
      </trkpt>
      <trkpt lat="47.40422" lon="-0.91559">
        <ele>57.963</ele>
        <time>2020-07-19T08:55:38Z</time>
      </trkpt>
      <trkpt lat="47.40422" lon="-0.91559">
        <ele>57.979</ele>
        <time>2020-07-19T08:55:39Z</time>
      </trkpt>
      <trkpt lat="47.40422" lon="-0.91559">
        <ele>57.948</ele>
        <time>2020-07-19T08:55:40Z</time>
      </trkpt>
      <trkpt lat="47.40422" lon="-0.91559">
        <ele>57.796</ele>
        <time>2020-07-19T08:55:41Z</time>
      </trkpt>
      <trkpt lat="47.40422" lon="-0.91559">
        <ele>57.9</ele>
        <time>2020-07-19T08:55:42Z</time>
      </trkpt>
      <trkpt lat="47.40422" lon="-0.91559">
        <ele>57.873</ele>
        <time>2020-07-19T08:55:43Z</time>
      </trkpt>
      <trkpt lat="47.40422" lon="-0.91559">
        <ele>57.874</ele>
        <time>2020-07-19T08:55:44Z</time>
      </trkpt>
      <trkpt lat="47.40422" lon="-0.91559">
        <ele>57.881</ele>
        <time>2020-07-19T08:55:45Z</time>
      </trkpt>
      <trkpt lat="47.40422" lon="-0.91559">
        <ele>57.886</ele>
        <time>2020-07-19T08:55:46Z</time>
      </trkpt>
      <trkpt lat="47.40422" lon="-0.91559">
        <ele>57.885</ele>
        <time>2020-07-19T08:55:47Z</time>
      </trkpt>
      <trkpt lat="47.40422" lon="-0.91559">
        <ele>57.888</ele>
        <time>2020-07-19T08:55:48Z</time>
      </trkpt>
      <trkpt lat="47.40422" lon="-0.91559">
        <ele>57.886</ele>
        <time>2020-07-19T08:55:49Z</time>
      </trkpt>
      <trkpt lat="47.40422" lon="-0.91559">
        <ele>57.889</ele>
        <time>2020-07-19T08:55:50Z</time>
      </trkpt>
      <trkpt lat="47.40422" lon="-0.91559">
        <ele>57.895</ele>
        <time>2020-07-19T08:55:51Z</time>
      </trkpt>
      <trkpt lat="47.40422" lon="-0.91559">
        <ele>57.892</ele>
        <time>2020-07-19T08:55:52Z</time>
      </trkpt>
      <trkpt lat="47.40422" lon="-0.91559">
        <ele>57.902</ele>
        <time>2020-07-19T08:55:53Z</time>
      </trkpt>
      <trkpt lat="47.40422" lon="-0.91559">
        <ele>57.908</ele>
        <time>2020-07-19T08:55:54Z</time>
      </trkpt>
      <trkpt lat="47.40422" lon="-0.91559">
        <ele>57.918</ele>
        <time>2020-07-19T08:55:55Z</time>
      </trkpt>
      <trkpt lat="47.40422" lon="-0.91559">
        <ele>57.918</ele>
        <time>2020-07-19T08:55:56Z</time>
      </trkpt>
      <trkpt lat="47.40422" lon="-0.91559">
        <ele>57.923</ele>
        <time>2020-07-19T08:55:57Z</time>
      </trkpt>
      <trkpt lat="47.40422" lon="-0.91559">
        <ele>57.928</ele>
        <time>2020-07-19T08:55:58Z</time>
      </trkpt>
      <trkpt lat="47.40422" lon="-0.91559">
        <ele>57.938</ele>
        <time>2020-07-19T08:55:59Z</time>
      </trkpt>
      <trkpt lat="47.40422" lon="-0.91559">
        <ele>57.936</ele>
        <time>2020-07-19T08:56:00Z</time>
      </trkpt>
      <trkpt lat="47.40422" lon="-0.91559">
        <ele>57.94</ele>
        <time>2020-07-19T08:56:01Z</time>
      </trkpt>
      <trkpt lat="47.40422" lon="-0.91559">
        <ele>57.936</ele>
        <time>2020-07-19T08:56:02Z</time>
      </trkpt>
      <trkpt lat="47.40422" lon="-0.91559">
        <ele>57.94</ele>
        <time>2020-07-19T08:56:03Z</time>
      </trkpt>
      <trkpt lat="47.40422" lon="-0.91559">
        <ele>57.946</ele>
        <time>2020-07-19T08:56:04Z</time>
      </trkpt>
      <trkpt lat="47.40422" lon="-0.91559">
        <ele>57.948</ele>
        <time>2020-07-19T08:56:05Z</time>
      </trkpt>
      <trkpt lat="47.40422" lon="-0.91559">
        <ele>57.946</ele>
        <time>2020-07-19T08:56:06Z</time>
      </trkpt>
      <trkpt lat="47.40422" lon="-0.91559">
        <ele>57.946</ele>
        <time>2020-07-19T08:56:07Z</time>
      </trkpt>
      <trkpt lat="47.40422" lon="-0.91559">
        <ele>57.952</ele>
        <time>2020-07-19T08:56:08Z</time>
      </trkpt>
      <trkpt lat="47.40422" lon="-0.91559">
        <ele>57.96</ele>
        <time>2020-07-19T08:56:09Z</time>
      </trkpt>
      <trkpt lat="47.40231" lon="-0.92134">
        <ele>60.328</ele>
        <time>2020-07-19T09:02:52Z</time>
      </trkpt>
      <trkpt lat="47.40231" lon="-0.92133">
        <ele>61.884</ele>
        <time>2020-07-19T09:02:53Z</time>
      </trkpt>
      <trkpt lat="47.40232" lon="-0.92132">
        <ele>62.931</ele>
        <time>2020-07-19T09:02:54Z</time>
      </trkpt>
      <trkpt lat="47.40232" lon="-0.92132">
        <ele>63.429</ele>
        <time>2020-07-19T09:02:55Z</time>
      </trkpt>
      <trkpt lat="47.40231" lon="-0.92131">
        <ele>64.666</ele>
        <time>2020-07-19T09:02:56Z</time>
      </trkpt>
      <trkpt lat="47.40231" lon="-0.9213">
        <ele>65.009</ele>
        <time>2020-07-19T09:02:57Z</time>
      </trkpt>
      <trkpt lat="47.40231" lon="-0.9213">
        <ele>65.417</ele>
        <time>2020-07-19T09:02:58Z</time>
      </trkpt>
      <trkpt lat="47.40231" lon="-0.92129">
        <ele>66.107</ele>
        <time>2020-07-19T09:02:59Z</time>
      </trkpt>
      <trkpt lat="47.40231" lon="-0.92128">
        <ele>67.719</ele>
        <time>2020-07-19T09:03:00Z</time>
      </trkpt>
      <trkpt lat="47.4023" lon="-0.92129">
        <ele>67.23</ele>
        <time>2020-07-19T09:03:01Z</time>
      </trkpt>
      <trkpt lat="47.40231" lon="-0.92129">
        <ele>67.12</ele>
        <time>2020-07-19T09:03:02Z</time>
      </trkpt>
      <trkpt lat="47.40231" lon="-0.92131">
        <ele>64.029</ele>
        <time>2020-07-19T09:03:03Z</time>
      </trkpt>
      <trkpt lat="47.40231" lon="-0.92132">
        <ele>65.094</ele>
        <time>2020-07-19T09:03:04Z</time>
      </trkpt>
      <trkpt lat="47.40231" lon="-0.92132">
        <ele>64.679</ele>
        <time>2020-07-19T09:03:05Z</time>
      </trkpt>
      <trkpt lat="47.40231" lon="-0.92133">
        <ele>64.792</ele>
        <time>2020-07-19T09:03:06Z</time>
      </trkpt>
      <trkpt lat="47.40232" lon="-0.92133">
        <ele>64.541</ele>
        <time>2020-07-19T09:03:07Z</time>
      </trkpt>
      <trkpt lat="47.40232" lon="-0.92133">
        <ele>65.076</ele>
        <time>2020-07-19T09:03:08Z</time>
      </trkpt>
      <trkpt lat="47.40232" lon="-0.92133">
        <ele>64.475</ele>
        <time>2020-07-19T09:03:09Z</time>
      </trkpt>
      <trkpt lat="47.40232" lon="-0.92134">
        <ele>64.569</ele>
        <time>2020-07-19T09:03:10Z</time>
      </trkpt>
      <trkpt lat="47.40232" lon="-0.92134">
        <ele>64.555</ele>
        <time>2020-07-19T09:03:11Z</time>
      </trkpt>
      <trkpt lat="47.40232" lon="-0.92134">
        <ele>64.51</ele>
        <time>2020-07-19T09:03:12Z</time>
      </trkpt>
      <trkpt lat="47.40232" lon="-0.92134">
        <ele>64.539</ele>
        <time>2020-07-19T09:03:13Z</time>
      </trkpt>
      <trkpt lat="47.40232" lon="-0.92134">
        <ele>64.464</ele>
        <time>2020-07-19T09:03:14Z</time>
      </trkpt>
      <trkpt lat="47.40232" lon="-0.92134">
        <ele>64.419</ele>
        <time>2020-07-19T09:03:15Z</time>
      </trkpt>
      <trkpt lat="47.40232" lon="-0.92134">
        <ele>64.372</ele>
        <time>2020-07-19T09:03:16Z</time>
      </trkpt>
      <trkpt lat="47.40232" lon="-0.92134">
        <ele>64.357</ele>
        <time>2020-07-19T09:03:17Z</time>
      </trkpt>
      <trkpt lat="47.40232" lon="-0.92134">
        <ele>64.348</ele>
        <time>2020-07-19T09:03:18Z</time>
      </trkpt>
      <trkpt lat="47.40232" lon="-0.92134">
        <ele>64.426</ele>
        <time>2020-07-19T09:03:19Z</time>
      </trkpt>
      <trkpt lat="47.40232" lon="-0.92134">
        <ele>64.432</ele>
        <time>2020-07-19T09:03:20Z</time>
      </trkpt>
      <trkpt lat="47.40232" lon="-0.92134">
        <ele>64.445</ele>
        <time>2020-07-19T09:03:21Z</time>
      </trkpt>
      <trkpt lat="47.40232" lon="-0.92134">
        <ele>64.453</ele>
        <time>2020-07-19T09:03:22Z</time>
      </trkpt>
      <trkpt lat="47.40232" lon="-0.92134">
        <ele>64.452</ele>
        <time>2020-07-19T09:03:23Z</time>
      </trkpt>
      <trkpt lat="47.40232" lon="-0.92134">
        <ele>64.448</ele>
        <time>2020-07-19T09:03:24Z</time>
      </trkpt>
      <trkpt lat="47.40232" lon="-0.92134">
        <ele>64.457</ele>
        <time>2020-07-19T09:03:25Z</time>
      </trkpt>
      <trkpt lat="47.40232" lon="-0.92134">
        <ele>64.388</ele>
        <time>2020-07-19T09:03:26Z</time>
      </trkpt>
      <trkpt lat="47.40232" lon="-0.92134">
        <ele>64.333</ele>
        <time>2020-07-19T09:03:27Z</time>
      </trkpt>
      <trkpt lat="47.40232" lon="-0.92134">
        <ele>64.298</ele>
        <time>2020-07-19T09:03:28Z</time>
      </trkpt>
      <trkpt lat="47.40232" lon="-0.92134">
        <ele>64.279</ele>
        <time>2020-07-19T09:03:29Z</time>
      </trkpt>
      <trkpt lat="47.40232" lon="-0.92134">
        <ele>64.258</ele>
        <time>2020-07-19T09:03:30Z</time>
      </trkpt>
      <trkpt lat="47.40232" lon="-0.92134">
        <ele>64.245</ele>
        <time>2020-07-19T09:03:31Z</time>
      </trkpt>
      <trkpt lat="47.40232" lon="-0.92134">
        <ele>64.239</ele>
        <time>2020-07-19T09:03:32Z</time>
      </trkpt>
      <trkpt lat="47.40232" lon="-0.92134">
        <ele>64.229</ele>
        <time>2020-07-19T09:03:33Z</time>
      </trkpt>
      <trkpt lat="47.40232" lon="-0.92134">
        <ele>64.295</ele>
        <time>2020-07-19T09:03:34Z</time>
      </trkpt>
      <trkpt lat="47.40232" lon="-0.92134">
        <ele>64.022</ele>
        <time>2020-07-19T09:03:35Z</time>
      </trkpt>
      <trkpt lat="47.40233" lon="-0.92134">
        <ele>64.06</ele>
        <time>2020-07-19T09:03:36Z</time>
      </trkpt>
      <trkpt lat="47.40233" lon="-0.92134">
        <ele>63.974</ele>
        <time>2020-07-19T09:03:38Z</time>
      </trkpt>
      <trkpt lat="47.40233" lon="-0.92134">
        <ele>63.964</ele>
        <time>2020-07-19T09:03:39Z</time>
      </trkpt>
      <trkpt lat="47.40233" lon="-0.92134">
        <ele>63.944</ele>
        <time>2020-07-19T09:03:40Z</time>
      </trkpt>
      <trkpt lat="47.40233" lon="-0.92134">
        <ele>63.94</ele>
        <time>2020-07-19T09:03:41Z</time>
      </trkpt>
      <trkpt lat="47.40233" lon="-0.92134">
        <ele>63.948</ele>
        <time>2020-07-19T09:03:42Z</time>
      </trkpt>
      <trkpt lat="47.40233" lon="-0.92134">
        <ele>63.958</ele>
        <time>2020-07-19T09:03:43Z</time>
      </trkpt>
      <trkpt lat="47.40233" lon="-0.92134">
        <ele>63.961</ele>
        <time>2020-07-19T09:03:44Z</time>
      </trkpt>
      <trkpt lat="47.40233" lon="-0.92134">
        <ele>63.975</ele>
        <time>2020-07-19T09:03:45Z</time>
      </trkpt>
      <trkpt lat="47.40233" lon="-0.92134">
        <ele>63.985</ele>
        <time>2020-07-19T09:03:46Z</time>
      </trkpt>
      <trkpt lat="47.40233" lon="-0.92134">
        <ele>63.984</ele>
        <time>2020-07-19T09:03:47Z</time>
      </trkpt>
      <trkpt lat="47.40233" lon="-0.92134">
        <ele>63.967</ele>
        <time>2020-07-19T09:03:48Z</time>
      </trkpt>
      <trkpt lat="47.40233" lon="-0.92134">
        <ele>63.967</ele>
        <time>2020-07-19T09:03:49Z</time>
      </trkpt>
      <trkpt lat="47.40233" lon="-0.92135">
        <ele>64.515</ele>
        <time>2020-07-19T09:03:50Z</time>
      </trkpt>
      <trkpt lat="47.40233" lon="-0.92136">
        <ele>64.415</ele>
        <time>2020-07-19T09:03:51Z</time>
      </trkpt>
      <trkpt lat="47.40233" lon="-0.92137">
        <ele>65.018</ele>
        <time>2020-07-19T09:03:52Z</time>
      </trkpt>
      <trkpt lat="47.40233" lon="-0.92137">
        <ele>64.976</ele>
        <time>2020-07-19T09:03:53Z</time>
      </trkpt>
      <trkpt lat="47.40233" lon="-0.92137">
        <ele>64.671</ele>
        <time>2020-07-19T09:03:54Z</time>
      </trkpt>
      <trkpt lat="47.40234" lon="-0.92137">
        <ele>64.455</ele>
        <time>2020-07-19T09:03:55Z</time>
      </trkpt>
      <trkpt lat="47.40234" lon="-0.92138">
        <ele>62.922</ele>
        <time>2020-07-19T09:03:56Z</time>
      </trkpt>
      <trkpt lat="47.40233" lon="-0.92139">
        <ele>63.124</ele>
        <time>2020-07-19T09:03:57Z</time>
      </trkpt>
      <trkpt lat="47.40233" lon="-0.9214">
        <ele>61.6</ele>
        <time>2020-07-19T09:03:58Z</time>
      </trkpt>
      <trkpt lat="47.40232" lon="-0.92141">
        <ele>61.259</ele>
        <time>2020-07-19T09:03:59Z</time>
      </trkpt>
      <trkpt lat="47.40231" lon="-0.92142">
        <ele>61.015</ele>
        <time>2020-07-19T09:04:00Z</time>
      </trkpt>
      <trkpt lat="47.40229" lon="-0.92144">
        <ele>63.939</ele>
        <time>2020-07-19T09:04:01Z</time>
      </trkpt>
      <trkpt lat="47.40227" lon="-0.92145">
        <ele>63.719</ele>
        <time>2020-07-19T09:04:02Z</time>
      </trkpt>
      <trkpt lat="47.40225" lon="-0.92146">
        <ele>63.386</ele>
        <time>2020-07-19T09:04:03Z</time>
      </trkpt>
      <trkpt lat="47.40223" lon="-0.92148">
        <ele>64.384</ele>
        <time>2020-07-19T09:04:04Z</time>
      </trkpt>
      <trkpt lat="47.40221" lon="-0.92149">
        <ele>64.927</ele>
        <time>2020-07-19T09:04:05Z</time>
      </trkpt>
      <trkpt lat="47.4022" lon="-0.92151">
        <ele>63.412</ele>
        <time>2020-07-19T09:04:06Z</time>
      </trkpt>
      <trkpt lat="47.40218" lon="-0.92153">
        <ele>64.109</ele>
        <time>2020-07-19T09:04:07Z</time>
      </trkpt>
      <trkpt lat="47.40216" lon="-0.92155">
        <ele>64.21</ele>
        <time>2020-07-19T09:04:08Z</time>
      </trkpt>
      <trkpt lat="47.40215" lon="-0.92157">
        <ele>64.791</ele>
        <time>2020-07-19T09:04:09Z</time>
      </trkpt>
      <trkpt lat="47.40213" lon="-0.9216">
        <ele>64.429</ele>
        <time>2020-07-19T09:04:10Z</time>
      </trkpt>
      <trkpt lat="47.40212" lon="-0.92163">
        <ele>62.626</ele>
        <time>2020-07-19T09:04:11Z</time>
      </trkpt>
      <trkpt lat="47.4021" lon="-0.92165">
        <ele>63.125</ele>
        <time>2020-07-19T09:04:12Z</time>
      </trkpt>
      <trkpt lat="47.40208" lon="-0.92168">
        <ele>63.118</ele>
        <time>2020-07-19T09:04:13Z</time>
      </trkpt>
      <trkpt lat="47.40207" lon="-0.92171">
        <ele>62.355</ele>
        <time>2020-07-19T09:04:14Z</time>
      </trkpt>
      <trkpt lat="47.40205" lon="-0.92173">
        <ele>61.909</ele>
        <time>2020-07-19T09:04:15Z</time>
      </trkpt>
      <trkpt lat="47.40204" lon="-0.92176">
        <ele>62.113</ele>
        <time>2020-07-19T09:04:16Z</time>
      </trkpt>
      <trkpt lat="47.40203" lon="-0.92179">
        <ele>60.918</ele>
        <time>2020-07-19T09:04:17Z</time>
      </trkpt>
      <trkpt lat="47.40202" lon="-0.92182">
        <ele>60.143</ele>
        <time>2020-07-19T09:04:18Z</time>
      </trkpt>
      <trkpt lat="47.40202" lon="-0.92185">
        <ele>59.346</ele>
        <time>2020-07-19T09:04:19Z</time>
      </trkpt>
      <trkpt lat="47.40202" lon="-0.92188">
        <ele>57.923</ele>
        <time>2020-07-19T09:04:20Z</time>
      </trkpt>
      <trkpt lat="47.40201" lon="-0.92191">
        <ele>58.482</ele>
        <time>2020-07-19T09:04:21Z</time>
      </trkpt>
      <trkpt lat="47.402" lon="-0.92193">
        <ele>58.502</ele>
        <time>2020-07-19T09:04:22Z</time>
      </trkpt>
      <trkpt lat="47.40199" lon="-0.92196">
        <ele>59.471</ele>
        <time>2020-07-19T09:04:23Z</time>
      </trkpt>
      <trkpt lat="47.40197" lon="-0.92197">
        <ele>59.4</ele>
        <time>2020-07-19T09:04:24Z</time>
      </trkpt>
      <trkpt lat="47.40196" lon="-0.92199">
        <ele>58.708</ele>
        <time>2020-07-19T09:04:25Z</time>
      </trkpt>
      <trkpt lat="47.40195" lon="-0.92201">
        <ele>58.738</ele>
        <time>2020-07-19T09:04:26Z</time>
      </trkpt>
      <trkpt lat="47.40194" lon="-0.92203">
        <ele>58.968</ele>
        <time>2020-07-19T09:04:27Z</time>
      </trkpt>
      <trkpt lat="47.40193" lon="-0.92206">
        <ele>58.646</ele>
        <time>2020-07-19T09:04:28Z</time>
      </trkpt>
      <trkpt lat="47.40192" lon="-0.92208">
        <ele>57.576</ele>
        <time>2020-07-19T09:04:29Z</time>
      </trkpt>
      <trkpt lat="47.40191" lon="-0.92211">
        <ele>57.873</ele>
        <time>2020-07-19T09:04:30Z</time>
      </trkpt>
      <trkpt lat="47.40189" lon="-0.92214">
        <ele>57.976</ele>
        <time>2020-07-19T09:04:31Z</time>
      </trkpt>
      <trkpt lat="47.40188" lon="-0.92216">
        <ele>58.139</ele>
        <time>2020-07-19T09:04:32Z</time>
      </trkpt>
      <trkpt lat="47.40187" lon="-0.92219">
        <ele>58.039</ele>
        <time>2020-07-19T09:04:33Z</time>
      </trkpt>
      <trkpt lat="47.40186" lon="-0.92221">
        <ele>58.066</ele>
        <time>2020-07-19T09:04:34Z</time>
      </trkpt>
      <trkpt lat="47.40185" lon="-0.92224">
        <ele>59.223</ele>
        <time>2020-07-19T09:04:35Z</time>
      </trkpt>
      <trkpt lat="47.40183" lon="-0.92227">
        <ele>59.174</ele>
        <time>2020-07-19T09:04:36Z</time>
      </trkpt>
      <trkpt lat="47.40182" lon="-0.9223">
        <ele>59.29</ele>
        <time>2020-07-19T09:04:37Z</time>
      </trkpt>
      <trkpt lat="47.40181" lon="-0.92233">
        <ele>58.165</ele>
        <time>2020-07-19T09:04:38Z</time>
      </trkpt>
      <trkpt lat="47.40179" lon="-0.92236">
        <ele>57.81</ele>
        <time>2020-07-19T09:04:39Z</time>
      </trkpt>
      <trkpt lat="47.40178" lon="-0.92239">
        <ele>58.002</ele>
        <time>2020-07-19T09:04:40Z</time>
      </trkpt>
      <trkpt lat="47.40177" lon="-0.92243">
        <ele>57.621</ele>
        <time>2020-07-19T09:04:41Z</time>
      </trkpt>
      <trkpt lat="47.40177" lon="-0.92246">
        <ele>56.639</ele>
        <time>2020-07-19T09:04:42Z</time>
      </trkpt>
      <trkpt lat="47.40177" lon="-0.92249">
        <ele>56.274</ele>
        <time>2020-07-19T09:04:43Z</time>
      </trkpt>
      <trkpt lat="47.40177" lon="-0.92252">
        <ele>55.92</ele>
        <time>2020-07-19T09:04:44Z</time>
      </trkpt>
      <trkpt lat="47.40177" lon="-0.92255">
        <ele>55.902</ele>
        <time>2020-07-19T09:04:45Z</time>
      </trkpt>
      <trkpt lat="47.40176" lon="-0.92258">
        <ele>56.172</ele>
        <time>2020-07-19T09:04:46Z</time>
      </trkpt>
      <trkpt lat="47.40174" lon="-0.92261">
        <ele>56.956</ele>
        <time>2020-07-19T09:04:47Z</time>
      </trkpt>
      <trkpt lat="47.40173" lon="-0.92265">
        <ele>56.822</ele>
        <time>2020-07-19T09:04:48Z</time>
      </trkpt>
      <trkpt lat="47.40171" lon="-0.92268">
        <ele>57.321</ele>
        <time>2020-07-19T09:04:49Z</time>
      </trkpt>
      <trkpt lat="47.40169" lon="-0.92271">
        <ele>57.859</ele>
        <time>2020-07-19T09:04:50Z</time>
      </trkpt>
      <trkpt lat="47.40168" lon="-0.92274">
        <ele>58.161</ele>
        <time>2020-07-19T09:04:51Z</time>
      </trkpt>
      <trkpt lat="47.40166" lon="-0.92278">
        <ele>57.819</ele>
        <time>2020-07-19T09:04:52Z</time>
      </trkpt>
      <trkpt lat="47.40165" lon="-0.9228">
        <ele>58.235</ele>
        <time>2020-07-19T09:04:53Z</time>
      </trkpt>
      <trkpt lat="47.40163" lon="-0.92283">
        <ele>58.729</ele>
        <time>2020-07-19T09:04:54Z</time>
      </trkpt>
      <trkpt lat="47.40161" lon="-0.92287">
        <ele>58.251</ele>
        <time>2020-07-19T09:04:55Z</time>
      </trkpt>
      <trkpt lat="47.4016" lon="-0.9229">
        <ele>57.778</ele>
        <time>2020-07-19T09:04:56Z</time>
      </trkpt>
      <trkpt lat="47.40158" lon="-0.92293">
        <ele>58.154</ele>
        <time>2020-07-19T09:04:57Z</time>
      </trkpt>
      <trkpt lat="47.40157" lon="-0.92296">
        <ele>58.277</ele>
        <time>2020-07-19T09:04:58Z</time>
      </trkpt>
      <trkpt lat="47.40156" lon="-0.92299">
        <ele>58.043</ele>
        <time>2020-07-19T09:04:59Z</time>
      </trkpt>
      <trkpt lat="47.40155" lon="-0.92302">
        <ele>58.261</ele>
        <time>2020-07-19T09:05:00Z</time>
      </trkpt>
      <trkpt lat="47.40153" lon="-0.92305">
        <ele>58.545</ele>
        <time>2020-07-19T09:05:01Z</time>
      </trkpt>
      <trkpt lat="47.40152" lon="-0.92308">
        <ele>58.531</ele>
        <time>2020-07-19T09:05:02Z</time>
      </trkpt>
      <trkpt lat="47.4015" lon="-0.92312">
        <ele>58.612</ele>
        <time>2020-07-19T09:05:03Z</time>
      </trkpt>
      <trkpt lat="47.40149" lon="-0.92315">
        <ele>58.056</ele>
        <time>2020-07-19T09:05:04Z</time>
      </trkpt>
      <trkpt lat="47.40147" lon="-0.92318">
        <ele>59.586</ele>
        <time>2020-07-19T09:05:05Z</time>
      </trkpt>
      <trkpt lat="47.40145" lon="-0.92321">
        <ele>60.066</ele>
        <time>2020-07-19T09:05:06Z</time>
      </trkpt>
      <trkpt lat="47.40143" lon="-0.92324">
        <ele>59.716</ele>
        <time>2020-07-19T09:05:07Z</time>
      </trkpt>
      <trkpt lat="47.40141" lon="-0.92327">
        <ele>59.549</ele>
        <time>2020-07-19T09:05:08Z</time>
      </trkpt>
      <trkpt lat="47.40139" lon="-0.9233">
        <ele>59.808</ele>
        <time>2020-07-19T09:05:09Z</time>
      </trkpt>
      <trkpt lat="47.40137" lon="-0.92334">
        <ele>59.74</ele>
        <time>2020-07-19T09:05:10Z</time>
      </trkpt>
      <trkpt lat="47.40135" lon="-0.92337">
        <ele>60.309</ele>
        <time>2020-07-19T09:05:11Z</time>
      </trkpt>
      <trkpt lat="47.40133" lon="-0.92341">
        <ele>60.429</ele>
        <time>2020-07-19T09:05:12Z</time>
      </trkpt>
      <trkpt lat="47.40131" lon="-0.92345">
        <ele>59.531</ele>
        <time>2020-07-19T09:05:13Z</time>
      </trkpt>
      <trkpt lat="47.40129" lon="-0.92349">
        <ele>59.856</ele>
        <time>2020-07-19T09:05:14Z</time>
      </trkpt>
      <trkpt lat="47.40127" lon="-0.92352">
        <ele>60.245</ele>
        <time>2020-07-19T09:05:15Z</time>
      </trkpt>
      <trkpt lat="47.40125" lon="-0.92356">
        <ele>60.881</ele>
        <time>2020-07-19T09:05:16Z</time>
      </trkpt>
      <trkpt lat="47.40123" lon="-0.92359">
        <ele>60.689</ele>
        <time>2020-07-19T09:05:17Z</time>
      </trkpt>
      <trkpt lat="47.40121" lon="-0.92363">
        <ele>60.422</ele>
        <time>2020-07-19T09:05:18Z</time>
      </trkpt>
      <trkpt lat="47.4012" lon="-0.92367">
        <ele>59.924</ele>
        <time>2020-07-19T09:05:19Z</time>
      </trkpt>
      <trkpt lat="47.40119" lon="-0.92371">
        <ele>59.913</ele>
        <time>2020-07-19T09:05:20Z</time>
      </trkpt>
      <trkpt lat="47.40117" lon="-0.92375">
        <ele>60.481</ele>
        <time>2020-07-19T09:05:21Z</time>
      </trkpt>
      <trkpt lat="47.40116" lon="-0.92379">
        <ele>60.859</ele>
        <time>2020-07-19T09:05:22Z</time>
      </trkpt>
      <trkpt lat="47.40114" lon="-0.92383">
        <ele>60.653</ele>
        <time>2020-07-19T09:05:23Z</time>
      </trkpt>
      <trkpt lat="47.40113" lon="-0.92386">
        <ele>60.481</ele>
        <time>2020-07-19T09:05:24Z</time>
      </trkpt>
      <trkpt lat="47.40111" lon="-0.9239">
        <ele>60.77</ele>
        <time>2020-07-19T09:05:25Z</time>
      </trkpt>
      <trkpt lat="47.4011" lon="-0.92393">
        <ele>60.641</ele>
        <time>2020-07-19T09:05:26Z</time>
      </trkpt>
      <trkpt lat="47.40108" lon="-0.92397">
        <ele>60.225</ele>
        <time>2020-07-19T09:05:27Z</time>
      </trkpt>
      <trkpt lat="47.40107" lon="-0.924">
        <ele>60.796</ele>
        <time>2020-07-19T09:05:28Z</time>
      </trkpt>
      <trkpt lat="47.40105" lon="-0.92404">
        <ele>60.79</ele>
        <time>2020-07-19T09:05:29Z</time>
      </trkpt>
      <trkpt lat="47.40104" lon="-0.92407">
        <ele>59.872</ele>
        <time>2020-07-19T09:05:30Z</time>
      </trkpt>
      <trkpt lat="47.40103" lon="-0.9241">
        <ele>59.653</ele>
        <time>2020-07-19T09:05:31Z</time>
      </trkpt>
      <trkpt lat="47.40102" lon="-0.92413">
        <ele>60.476</ele>
        <time>2020-07-19T09:05:32Z</time>
      </trkpt>
      <trkpt lat="47.40101" lon="-0.92416">
        <ele>59.854</ele>
        <time>2020-07-19T09:05:33Z</time>
      </trkpt>
      <trkpt lat="47.401" lon="-0.92417">
        <ele>59.442</ele>
        <time>2020-07-19T09:05:34Z</time>
      </trkpt>
      <trkpt lat="47.401" lon="-0.92419">
        <ele>59.605</ele>
        <time>2020-07-19T09:05:35Z</time>
      </trkpt>
      <trkpt lat="47.401" lon="-0.92422">
        <ele>59.799</ele>
        <time>2020-07-19T09:05:36Z</time>
      </trkpt>
      <trkpt lat="47.40101" lon="-0.92424">
        <ele>59.562</ele>
        <time>2020-07-19T09:05:37Z</time>
      </trkpt>
      <trkpt lat="47.40102" lon="-0.92425">
        <ele>59.591</ele>
        <time>2020-07-19T09:05:38Z</time>
      </trkpt>
      <trkpt lat="47.40104" lon="-0.92425">
        <ele>59.545</ele>
        <time>2020-07-19T09:05:39Z</time>
      </trkpt>
      <trkpt lat="47.40105" lon="-0.92423">
        <ele>58.911</ele>
        <time>2020-07-19T09:05:40Z</time>
      </trkpt>
      <trkpt lat="47.40106" lon="-0.92421">
        <ele>58.571</ele>
        <time>2020-07-19T09:05:41Z</time>
      </trkpt>
      <trkpt lat="47.40106" lon="-0.92418">
        <ele>58.092</ele>
        <time>2020-07-19T09:05:42Z</time>
      </trkpt>
      <trkpt lat="47.40108" lon="-0.92416">
        <ele>57.776</ele>
        <time>2020-07-19T09:05:43Z</time>
      </trkpt>
      <trkpt lat="47.40109" lon="-0.92414">
        <ele>56.894</ele>
        <time>2020-07-19T09:05:44Z</time>
      </trkpt>
      <trkpt lat="47.4011" lon="-0.92412">
        <ele>57.168</ele>
        <time>2020-07-19T09:05:45Z</time>
      </trkpt>
      <trkpt lat="47.40111" lon="-0.92409">
        <ele>57.724</ele>
        <time>2020-07-19T09:05:46Z</time>
      </trkpt>
      <trkpt lat="47.40112" lon="-0.92408">
        <ele>54.554</ele>
        <time>2020-07-19T09:05:47Z</time>
      </trkpt>
      <trkpt lat="47.40114" lon="-0.92406">
        <ele>54.283</ele>
        <time>2020-07-19T09:05:48Z</time>
      </trkpt>
      <trkpt lat="47.40115" lon="-0.92404">
        <ele>54.47</ele>
        <time>2020-07-19T09:05:49Z</time>
      </trkpt>
      <trkpt lat="47.40116" lon="-0.92402">
        <ele>56.455</ele>
        <time>2020-07-19T09:05:50Z</time>
      </trkpt>
      <trkpt lat="47.40118" lon="-0.924">
        <ele>55.748</ele>
        <time>2020-07-19T09:05:51Z</time>
      </trkpt>
      <trkpt lat="47.40119" lon="-0.92398">
        <ele>55.308</ele>
        <time>2020-07-19T09:05:52Z</time>
      </trkpt>
      <trkpt lat="47.4012" lon="-0.92396">
        <ele>59.504</ele>
        <time>2020-07-19T09:05:53Z</time>
      </trkpt>
      <trkpt lat="47.40122" lon="-0.92395">
        <ele>58.652</ele>
        <time>2020-07-19T09:05:54Z</time>
      </trkpt>
      <trkpt lat="47.40123" lon="-0.92393">
        <ele>58.203</ele>
        <time>2020-07-19T09:05:55Z</time>
      </trkpt>
      <trkpt lat="47.40124" lon="-0.92392">
        <ele>57.536</ele>
        <time>2020-07-19T09:05:56Z</time>
      </trkpt>
      <trkpt lat="47.40125" lon="-0.9239">
        <ele>57.245</ele>
        <time>2020-07-19T09:05:57Z</time>
      </trkpt>
      <trkpt lat="47.40126" lon="-0.92388">
        <ele>56.795</ele>
        <time>2020-07-19T09:05:58Z</time>
      </trkpt>
      <trkpt lat="47.40127" lon="-0.92387">
        <ele>56.782</ele>
        <time>2020-07-19T09:05:59Z</time>
      </trkpt>
      <trkpt lat="47.40127" lon="-0.92385">
        <ele>58.096</ele>
        <time>2020-07-19T09:06:00Z</time>
      </trkpt>
      <trkpt lat="47.40128" lon="-0.92384">
        <ele>57.857</ele>
        <time>2020-07-19T09:06:01Z</time>
      </trkpt>
      <trkpt lat="47.40129" lon="-0.92383">
        <ele>58.025</ele>
        <time>2020-07-19T09:06:02Z</time>
      </trkpt>
      <trkpt lat="47.40131" lon="-0.92382">
        <ele>58.109</ele>
        <time>2020-07-19T09:06:03Z</time>
      </trkpt>
      <trkpt lat="47.40132" lon="-0.92383">
        <ele>57.846</ele>
        <time>2020-07-19T09:06:04Z</time>
      </trkpt>
      <trkpt lat="47.40134" lon="-0.92383">
        <ele>58.128</ele>
        <time>2020-07-19T09:06:05Z</time>
      </trkpt>
      <trkpt lat="47.40136" lon="-0.92384">
        <ele>58.1</ele>
        <time>2020-07-19T09:06:06Z</time>
      </trkpt>
      <trkpt lat="47.40137" lon="-0.92385">
        <ele>56.557</ele>
        <time>2020-07-19T09:06:07Z</time>
      </trkpt>
      <trkpt lat="47.40138" lon="-0.92386">
        <ele>56.311</ele>
        <time>2020-07-19T09:06:08Z</time>
      </trkpt>
      <trkpt lat="47.40139" lon="-0.92388">
        <ele>56.182</ele>
        <time>2020-07-19T09:06:09Z</time>
      </trkpt>
      <trkpt lat="47.4014" lon="-0.9239">
        <ele>55.081</ele>
        <time>2020-07-19T09:06:10Z</time>
      </trkpt>
      <trkpt lat="47.40141" lon="-0.92393">
        <ele>54.888</ele>
        <time>2020-07-19T09:06:11Z</time>
      </trkpt>
      <trkpt lat="47.40141" lon="-0.92395">
        <ele>57.094</ele>
        <time>2020-07-19T09:06:12Z</time>
      </trkpt>
      <trkpt lat="47.4014" lon="-0.92397">
        <ele>60.763</ele>
        <time>2020-07-19T09:06:13Z</time>
      </trkpt>
      <trkpt lat="47.40138" lon="-0.924">
        <ele>60.272</ele>
        <time>2020-07-19T09:06:14Z</time>
      </trkpt>
      <trkpt lat="47.40136" lon="-0.92403">
        <ele>60.153</ele>
        <time>2020-07-19T09:06:15Z</time>
      </trkpt>
      <trkpt lat="47.40134" lon="-0.92407">
        <ele>64.146</ele>
        <time>2020-07-19T09:06:16Z</time>
      </trkpt>
      <trkpt lat="47.40131" lon="-0.92411">
        <ele>62.555</ele>
        <time>2020-07-19T09:06:17Z</time>
      </trkpt>
      <trkpt lat="47.40129" lon="-0.92415">
        <ele>61.882</ele>
        <time>2020-07-19T09:06:18Z</time>
      </trkpt>
      <trkpt lat="47.40127" lon="-0.92419">
        <ele>61.238</ele>
        <time>2020-07-19T09:06:19Z</time>
      </trkpt>
      <trkpt lat="47.40126" lon="-0.92422">
        <ele>60.829</ele>
        <time>2020-07-19T09:06:20Z</time>
      </trkpt>
      <trkpt lat="47.40124" lon="-0.92426">
        <ele>61.501</ele>
        <time>2020-07-19T09:06:21Z</time>
      </trkpt>
      <trkpt lat="47.40122" lon="-0.92431">
        <ele>61.311</ele>
        <time>2020-07-19T09:06:22Z</time>
      </trkpt>
      <trkpt lat="47.4012" lon="-0.92435">
        <ele>62.099</ele>
        <time>2020-07-19T09:06:23Z</time>
      </trkpt>
      <trkpt lat="47.40119" lon="-0.92441">
        <ele>60.791</ele>
        <time>2020-07-19T09:06:24Z</time>
      </trkpt>
      <trkpt lat="47.40117" lon="-0.92445">
        <ele>61.544</ele>
        <time>2020-07-19T09:06:25Z</time>
      </trkpt>
      <trkpt lat="47.40116" lon="-0.92449">
        <ele>61.763</ele>
        <time>2020-07-19T09:06:26Z</time>
      </trkpt>
      <trkpt lat="47.40114" lon="-0.92453">
        <ele>62.337</ele>
        <time>2020-07-19T09:06:27Z</time>
      </trkpt>
      <trkpt lat="47.40112" lon="-0.92457">
        <ele>62.056</ele>
        <time>2020-07-19T09:06:28Z</time>
      </trkpt>
      <trkpt lat="47.4011" lon="-0.92461">
        <ele>62.519</ele>
        <time>2020-07-19T09:06:29Z</time>
      </trkpt>
      <trkpt lat="47.40108" lon="-0.92464">
        <ele>62.875</ele>
        <time>2020-07-19T09:06:30Z</time>
      </trkpt>
      <trkpt lat="47.40106" lon="-0.92468">
        <ele>63.673</ele>
        <time>2020-07-19T09:06:31Z</time>
      </trkpt>
      <trkpt lat="47.40104" lon="-0.92472">
        <ele>64.744</ele>
        <time>2020-07-19T09:06:32Z</time>
      </trkpt>
      <trkpt lat="47.40102" lon="-0.92476">
        <ele>65.434</ele>
        <time>2020-07-19T09:06:33Z</time>
      </trkpt>
      <trkpt lat="47.401" lon="-0.9248">
        <ele>65.553</ele>
        <time>2020-07-19T09:06:34Z</time>
      </trkpt>
      <trkpt lat="47.40099" lon="-0.92484">
        <ele>64.336</ele>
        <time>2020-07-19T09:06:35Z</time>
      </trkpt>
      <trkpt lat="47.40097" lon="-0.92488">
        <ele>64.431</ele>
        <time>2020-07-19T09:06:36Z</time>
      </trkpt>
      <trkpt lat="47.40095" lon="-0.92492">
        <ele>64.46</ele>
        <time>2020-07-19T09:06:37Z</time>
      </trkpt>
      <trkpt lat="47.40094" lon="-0.92496">
        <ele>65.167</ele>
        <time>2020-07-19T09:06:38Z</time>
      </trkpt>
      <trkpt lat="47.40093" lon="-0.925">
        <ele>65.338</ele>
        <time>2020-07-19T09:06:39Z</time>
      </trkpt>
      <trkpt lat="47.40091" lon="-0.92505">
        <ele>65.849</ele>
        <time>2020-07-19T09:06:40Z</time>
      </trkpt>
      <trkpt lat="47.40089" lon="-0.92509">
        <ele>65.621</ele>
        <time>2020-07-19T09:06:41Z</time>
      </trkpt>
      <trkpt lat="47.40087" lon="-0.92514">
        <ele>65.334</ele>
        <time>2020-07-19T09:06:42Z</time>
      </trkpt>
      <trkpt lat="47.40085" lon="-0.92519">
        <ele>65.299</ele>
        <time>2020-07-19T09:06:43Z</time>
      </trkpt>
      <trkpt lat="47.40083" lon="-0.92524">
        <ele>64.89</ele>
        <time>2020-07-19T09:06:44Z</time>
      </trkpt>
      <trkpt lat="47.40082" lon="-0.92529">
        <ele>63.483</ele>
        <time>2020-07-19T09:06:45Z</time>
      </trkpt>
      <trkpt lat="47.40081" lon="-0.92534">
        <ele>62.102</ele>
        <time>2020-07-19T09:06:46Z</time>
      </trkpt>
      <trkpt lat="47.40081" lon="-0.92538">
        <ele>62.338</ele>
        <time>2020-07-19T09:06:47Z</time>
      </trkpt>
      <trkpt lat="47.4008" lon="-0.92543">
        <ele>61.583</ele>
        <time>2020-07-19T09:06:48Z</time>
      </trkpt>
      <trkpt lat="47.40079" lon="-0.92547">
        <ele>61.67</ele>
        <time>2020-07-19T09:06:49Z</time>
      </trkpt>
      <trkpt lat="47.40077" lon="-0.92551">
        <ele>64.122</ele>
        <time>2020-07-19T09:06:50Z</time>
      </trkpt>
      <trkpt lat="47.40076" lon="-0.92555">
        <ele>63.281</ele>
        <time>2020-07-19T09:06:51Z</time>
      </trkpt>
      <trkpt lat="47.40074" lon="-0.9256">
        <ele>64.29</ele>
        <time>2020-07-19T09:06:52Z</time>
      </trkpt>
      <trkpt lat="47.40073" lon="-0.92564">
        <ele>65.015</ele>
        <time>2020-07-19T09:06:53Z</time>
      </trkpt>
      <trkpt lat="47.40071" lon="-0.92568">
        <ele>63.285</ele>
        <time>2020-07-19T09:06:54Z</time>
      </trkpt>
      <trkpt lat="47.40069" lon="-0.92572">
        <ele>63.639</ele>
        <time>2020-07-19T09:06:55Z</time>
      </trkpt>
      <trkpt lat="47.40066" lon="-0.92575">
        <ele>63.857</ele>
        <time>2020-07-19T09:06:56Z</time>
      </trkpt>
      <trkpt lat="47.40064" lon="-0.92579">
        <ele>63.448</ele>
        <time>2020-07-19T09:06:57Z</time>
      </trkpt>
      <trkpt lat="47.40062" lon="-0.92582">
        <ele>63.462</ele>
        <time>2020-07-19T09:06:58Z</time>
      </trkpt>
      <trkpt lat="47.40059" lon="-0.92586">
        <ele>63.759</ele>
        <time>2020-07-19T09:06:59Z</time>
      </trkpt>
      <trkpt lat="47.40057" lon="-0.9259">
        <ele>63.746</ele>
        <time>2020-07-19T09:07:00Z</time>
      </trkpt>
      <trkpt lat="47.40055" lon="-0.92594">
        <ele>63.711</ele>
        <time>2020-07-19T09:07:01Z</time>
      </trkpt>
      <trkpt lat="47.40053" lon="-0.92598">
        <ele>63.696</ele>
        <time>2020-07-19T09:07:02Z</time>
      </trkpt>
      <trkpt lat="47.40051" lon="-0.92602">
        <ele>65.1</ele>
        <time>2020-07-19T09:07:03Z</time>
      </trkpt>
      <trkpt lat="47.40049" lon="-0.92605">
        <ele>66.239</ele>
        <time>2020-07-19T09:07:04Z</time>
      </trkpt>
      <trkpt lat="47.40046" lon="-0.9261">
        <ele>64.87</ele>
        <time>2020-07-19T09:07:05Z</time>
      </trkpt>
      <trkpt lat="47.40043" lon="-0.92614">
        <ele>65.383</ele>
        <time>2020-07-19T09:07:06Z</time>
      </trkpt>
      <trkpt lat="47.40041" lon="-0.9262">
        <ele>65.474</ele>
        <time>2020-07-19T09:07:07Z</time>
      </trkpt>
      <trkpt lat="47.40039" lon="-0.92625">
        <ele>65.572</ele>
        <time>2020-07-19T09:07:08Z</time>
      </trkpt>
      <trkpt lat="47.40036" lon="-0.92631">
        <ele>66.197</ele>
        <time>2020-07-19T09:07:09Z</time>
      </trkpt>
      <trkpt lat="47.40034" lon="-0.92636">
        <ele>65.77</ele>
        <time>2020-07-19T09:07:10Z</time>
      </trkpt>
      <trkpt lat="47.40033" lon="-0.92644">
        <ele>64.515</ele>
        <time>2020-07-19T09:07:11Z</time>
      </trkpt>
      <trkpt lat="47.40031" lon="-0.9265">
        <ele>63.894</ele>
        <time>2020-07-19T09:07:12Z</time>
      </trkpt>
      <trkpt lat="47.40028" lon="-0.92656">
        <ele>63.494</ele>
        <time>2020-07-19T09:07:13Z</time>
      </trkpt>
      <trkpt lat="47.40027" lon="-0.92663">
        <ele>63.987</ele>
        <time>2020-07-19T09:07:14Z</time>
      </trkpt>
      <trkpt lat="47.40027" lon="-0.92671">
        <ele>63.057</ele>
        <time>2020-07-19T09:07:15Z</time>
      </trkpt>
      <trkpt lat="47.40025" lon="-0.92677">
        <ele>63.252</ele>
        <time>2020-07-19T09:07:16Z</time>
      </trkpt>
      <trkpt lat="47.40024" lon="-0.92683">
        <ele>63.297</ele>
        <time>2020-07-19T09:07:17Z</time>
      </trkpt>
      <trkpt lat="47.4002" lon="-0.92688">
        <ele>63.102</ele>
        <time>2020-07-19T09:07:18Z</time>
      </trkpt>
      <trkpt lat="47.40019" lon="-0.92694">
        <ele>62.425</ele>
        <time>2020-07-19T09:07:19Z</time>
      </trkpt>
      <trkpt lat="47.40017" lon="-0.927">
        <ele>62.672</ele>
        <time>2020-07-19T09:07:20Z</time>
      </trkpt>
      <trkpt lat="47.40015" lon="-0.92706">
        <ele>62.96</ele>
        <time>2020-07-19T09:07:21Z</time>
      </trkpt>
      <trkpt lat="47.40015" lon="-0.92712">
        <ele>62.634</ele>
        <time>2020-07-19T09:07:22Z</time>
      </trkpt>
      <trkpt lat="47.40013" lon="-0.92718">
        <ele>62.687</ele>
        <time>2020-07-19T09:07:23Z</time>
      </trkpt>
      <trkpt lat="47.40011" lon="-0.92723">
        <ele>62.575</ele>
        <time>2020-07-19T09:07:24Z</time>
      </trkpt>
      <trkpt lat="47.40008" lon="-0.92729">
        <ele>63.68</ele>
        <time>2020-07-19T09:07:25Z</time>
      </trkpt>
      <trkpt lat="47.40007" lon="-0.92737">
        <ele>65.048</ele>
        <time>2020-07-19T09:07:26Z</time>
      </trkpt>
      <trkpt lat="47.40005" lon="-0.92743">
        <ele>65.136</ele>
        <time>2020-07-19T09:07:27Z</time>
      </trkpt>
      <trkpt lat="47.40004" lon="-0.92747">
        <ele>65.112</ele>
        <time>2020-07-19T09:07:28Z</time>
      </trkpt>
      <trkpt lat="47.40002" lon="-0.92753">
        <ele>65.05</ele>
        <time>2020-07-19T09:07:29Z</time>
      </trkpt>
      <trkpt lat="47.40001" lon="-0.9276">
        <ele>65.368</ele>
        <time>2020-07-19T09:07:30Z</time>
      </trkpt>
      <trkpt lat="47.39998" lon="-0.92765">
        <ele>66.737</ele>
        <time>2020-07-19T09:07:31Z</time>
      </trkpt>
      <trkpt lat="47.39998" lon="-0.92773">
        <ele>65.608</ele>
        <time>2020-07-19T09:07:32Z</time>
      </trkpt>
      <trkpt lat="47.39997" lon="-0.92778">
        <ele>64.92</ele>
        <time>2020-07-19T09:07:33Z</time>
      </trkpt>
      <trkpt lat="47.39998" lon="-0.92783">
        <ele>65.786</ele>
        <time>2020-07-19T09:07:34Z</time>
      </trkpt>
      <trkpt lat="47.39997" lon="-0.92788">
        <ele>66.442</ele>
        <time>2020-07-19T09:07:35Z</time>
      </trkpt>
      <trkpt lat="47.39996" lon="-0.92794">
        <ele>66.513</ele>
        <time>2020-07-19T09:07:36Z</time>
      </trkpt>
      <trkpt lat="47.39995" lon="-0.92798">
        <ele>65.621</ele>
        <time>2020-07-19T09:07:37Z</time>
      </trkpt>
      <trkpt lat="47.39994" lon="-0.92804">
        <ele>65.646</ele>
        <time>2020-07-19T09:07:38Z</time>
      </trkpt>
      <trkpt lat="47.39993" lon="-0.9281">
        <ele>64.86</ele>
        <time>2020-07-19T09:07:39Z</time>
      </trkpt>
      <trkpt lat="47.39991" lon="-0.92816">
        <ele>64.396</ele>
        <time>2020-07-19T09:07:40Z</time>
      </trkpt>
      <trkpt lat="47.3999" lon="-0.92821">
        <ele>64.187</ele>
        <time>2020-07-19T09:07:41Z</time>
      </trkpt>
      <trkpt lat="47.39989" lon="-0.92828">
        <ele>62.911</ele>
        <time>2020-07-19T09:07:42Z</time>
      </trkpt>
      <trkpt lat="47.39988" lon="-0.92834">
        <ele>62.528</ele>
        <time>2020-07-19T09:07:43Z</time>
      </trkpt>
      <trkpt lat="47.39987" lon="-0.9284">
        <ele>62.401</ele>
        <time>2020-07-19T09:07:44Z</time>
      </trkpt>
      <trkpt lat="47.39986" lon="-0.92847">
        <ele>61.148</ele>
        <time>2020-07-19T09:07:45Z</time>
      </trkpt>
      <trkpt lat="47.39985" lon="-0.92854">
        <ele>60.813</ele>
        <time>2020-07-19T09:07:46Z</time>
      </trkpt>
      <trkpt lat="47.39984" lon="-0.9286">
        <ele>61.365</ele>
        <time>2020-07-19T09:07:47Z</time>
      </trkpt>
      <trkpt lat="47.39983" lon="-0.92868">
        <ele>61.297</ele>
        <time>2020-07-19T09:07:48Z</time>
      </trkpt>
      <trkpt lat="47.39982" lon="-0.92875">
        <ele>61.022</ele>
        <time>2020-07-19T09:07:49Z</time>
      </trkpt>
      <trkpt lat="47.39981" lon="-0.92882">
        <ele>62.291</ele>
        <time>2020-07-19T09:07:50Z</time>
      </trkpt>
      <trkpt lat="47.3998" lon="-0.92888">
        <ele>61.845</ele>
        <time>2020-07-19T09:07:51Z</time>
      </trkpt>
      <trkpt lat="47.39978" lon="-0.92893">
        <ele>62.287</ele>
        <time>2020-07-19T09:07:52Z</time>
      </trkpt>
      <trkpt lat="47.39977" lon="-0.929">
        <ele>62.451</ele>
        <time>2020-07-19T09:07:53Z</time>
      </trkpt>
      <trkpt lat="47.39976" lon="-0.92907">
        <ele>62.885</ele>
        <time>2020-07-19T09:07:54Z</time>
      </trkpt>
      <trkpt lat="47.39975" lon="-0.92913">
        <ele>62.172</ele>
        <time>2020-07-19T09:07:55Z</time>
      </trkpt>
      <trkpt lat="47.39974" lon="-0.92919">
        <ele>62.348</ele>
        <time>2020-07-19T09:07:56Z</time>
      </trkpt>
      <trkpt lat="47.39972" lon="-0.92924">
        <ele>62.688</ele>
        <time>2020-07-19T09:07:57Z</time>
      </trkpt>
      <trkpt lat="47.39971" lon="-0.9293">
        <ele>62.561</ele>
        <time>2020-07-19T09:07:58Z</time>
      </trkpt>
      <trkpt lat="47.39969" lon="-0.92937">
        <ele>62.756</ele>
        <time>2020-07-19T09:07:59Z</time>
      </trkpt>
      <trkpt lat="47.39968" lon="-0.92943">
        <ele>62.439</ele>
        <time>2020-07-19T09:08:00Z</time>
      </trkpt>
      <trkpt lat="47.39967" lon="-0.92949">
        <ele>61.627</ele>
        <time>2020-07-19T09:08:01Z</time>
      </trkpt>
      <trkpt lat="47.39965" lon="-0.92955">
        <ele>61.298</ele>
        <time>2020-07-19T09:08:02Z</time>
      </trkpt>
      <trkpt lat="47.39964" lon="-0.92962">
        <ele>61.094</ele>
        <time>2020-07-19T09:08:03Z</time>
      </trkpt>
      <trkpt lat="47.39963" lon="-0.92969">
        <ele>62.852</ele>
        <time>2020-07-19T09:08:04Z</time>
      </trkpt>
      <trkpt lat="47.39962" lon="-0.92976">
        <ele>61.936</ele>
        <time>2020-07-19T09:08:05Z</time>
      </trkpt>
      <trkpt lat="47.39961" lon="-0.92983">
        <ele>62.256</ele>
        <time>2020-07-19T09:08:06Z</time>
      </trkpt>
      <trkpt lat="47.39961" lon="-0.92989">
        <ele>62.255</ele>
        <time>2020-07-19T09:08:07Z</time>
      </trkpt>
      <trkpt lat="47.3996" lon="-0.92996">
        <ele>62.715</ele>
        <time>2020-07-19T09:08:08Z</time>
      </trkpt>
      <trkpt lat="47.3996" lon="-0.93001">
        <ele>63.817</ele>
        <time>2020-07-19T09:08:09Z</time>
      </trkpt>
      <trkpt lat="47.39959" lon="-0.93008">
        <ele>63.901</ele>
        <time>2020-07-19T09:08:10Z</time>
      </trkpt>
      <trkpt lat="47.39958" lon="-0.93013">
        <ele>63.002</ele>
        <time>2020-07-19T09:08:11Z</time>
      </trkpt>
      <trkpt lat="47.39956" lon="-0.9302">
        <ele>60.951</ele>
        <time>2020-07-19T09:08:12Z</time>
      </trkpt>
      <trkpt lat="47.39955" lon="-0.93026">
        <ele>61.175</ele>
        <time>2020-07-19T09:08:13Z</time>
      </trkpt>
      <trkpt lat="47.39953" lon="-0.93033">
        <ele>62.293</ele>
        <time>2020-07-19T09:08:14Z</time>
      </trkpt>
      <trkpt lat="47.39951" lon="-0.9304">
        <ele>62.131</ele>
        <time>2020-07-19T09:08:15Z</time>
      </trkpt>
      <trkpt lat="47.39949" lon="-0.93046">
        <ele>62.605</ele>
        <time>2020-07-19T09:08:16Z</time>
      </trkpt>
      <trkpt lat="47.39949" lon="-0.93051">
        <ele>63.435</ele>
        <time>2020-07-19T09:08:17Z</time>
      </trkpt>
      <trkpt lat="47.39947" lon="-0.93058">
        <ele>63.79</ele>
        <time>2020-07-19T09:08:18Z</time>
      </trkpt>
      <trkpt lat="47.39947" lon="-0.93063">
        <ele>64.108</ele>
        <time>2020-07-19T09:08:19Z</time>
      </trkpt>
      <trkpt lat="47.39946" lon="-0.9307">
        <ele>64.268</ele>
        <time>2020-07-19T09:08:20Z</time>
      </trkpt>
      <trkpt lat="47.39945" lon="-0.93076">
        <ele>63.661</ele>
        <time>2020-07-19T09:08:21Z</time>
      </trkpt>
      <trkpt lat="47.39944" lon="-0.93083">
        <ele>63.58</ele>
        <time>2020-07-19T09:08:22Z</time>
      </trkpt>
      <trkpt lat="47.39943" lon="-0.93091">
        <ele>63.619</ele>
        <time>2020-07-19T09:08:23Z</time>
      </trkpt>
      <trkpt lat="47.39941" lon="-0.93095">
        <ele>64.153</ele>
        <time>2020-07-19T09:08:24Z</time>
      </trkpt>
      <trkpt lat="47.39939" lon="-0.931">
        <ele>64.234</ele>
        <time>2020-07-19T09:08:25Z</time>
      </trkpt>
      <trkpt lat="47.39937" lon="-0.93105">
        <ele>64.346</ele>
        <time>2020-07-19T09:08:26Z</time>
      </trkpt>
      <trkpt lat="47.39937" lon="-0.93109">
        <ele>64.016</ele>
        <time>2020-07-19T09:08:27Z</time>
      </trkpt>
      <trkpt lat="47.39936" lon="-0.93113">
        <ele>63.087</ele>
        <time>2020-07-19T09:08:28Z</time>
      </trkpt>
      <trkpt lat="47.39935" lon="-0.93114">
        <ele>64.328</ele>
        <time>2020-07-19T09:08:29Z</time>
      </trkpt>
      <trkpt lat="47.39935" lon="-0.93114">
        <ele>64.907</ele>
        <time>2020-07-19T09:08:30Z</time>
      </trkpt>
      <trkpt lat="47.39934" lon="-0.93113">
        <ele>65.476</ele>
        <time>2020-07-19T09:08:31Z</time>
      </trkpt>
      <trkpt lat="47.39934" lon="-0.93114">
        <ele>65.741</ele>
        <time>2020-07-19T09:08:32Z</time>
      </trkpt>
      <trkpt lat="47.39934" lon="-0.93115">
        <ele>65.27</ele>
        <time>2020-07-19T09:08:33Z</time>
      </trkpt>
      <trkpt lat="47.39934" lon="-0.93115">
        <ele>64.437</ele>
        <time>2020-07-19T09:08:34Z</time>
      </trkpt>
      <trkpt lat="47.39933" lon="-0.93115">
        <ele>64.904</ele>
        <time>2020-07-19T09:08:35Z</time>
      </trkpt>
      <trkpt lat="47.39932" lon="-0.93115">
        <ele>65.161</ele>
        <time>2020-07-19T09:08:36Z</time>
      </trkpt>
      <trkpt lat="47.39932" lon="-0.93115">
        <ele>65.38</ele>
        <time>2020-07-19T09:08:37Z</time>
      </trkpt>
      <trkpt lat="47.39932" lon="-0.93115">
        <ele>65.787</ele>
        <time>2020-07-19T09:08:38Z</time>
      </trkpt>
      <trkpt lat="47.39932" lon="-0.93115">
        <ele>65.85</ele>
        <time>2020-07-19T09:08:39Z</time>
      </trkpt>
      <trkpt lat="47.39932" lon="-0.93115">
        <ele>65.826</ele>
        <time>2020-07-19T09:08:40Z</time>
      </trkpt>
      <trkpt lat="47.39932" lon="-0.93109">
        <ele>66.867</ele>
        <time>2020-07-19T09:08:41Z</time>
      </trkpt>
      <trkpt lat="47.39933" lon="-0.93109">
        <ele>65.198</ele>
        <time>2020-07-19T09:08:42Z</time>
      </trkpt>
      <trkpt lat="47.39934" lon="-0.93105">
        <ele>65.938</ele>
        <time>2020-07-19T09:08:43Z</time>
      </trkpt>
      <trkpt lat="47.39935" lon="-0.93101">
        <ele>65.391</ele>
        <time>2020-07-19T09:08:44Z</time>
      </trkpt>
      <trkpt lat="47.39935" lon="-0.93096">
        <ele>65.9</ele>
        <time>2020-07-19T09:08:45Z</time>
      </trkpt>
      <trkpt lat="47.39935" lon="-0.93092">
        <ele>66.123</ele>
        <time>2020-07-19T09:08:46Z</time>
      </trkpt>
      <trkpt lat="47.39936" lon="-0.93087">
        <ele>65.057</ele>
        <time>2020-07-19T09:08:47Z</time>
      </trkpt>
      <trkpt lat="47.39937" lon="-0.93083">
        <ele>63.981</ele>
        <time>2020-07-19T09:08:48Z</time>
      </trkpt>
      <trkpt lat="47.39936" lon="-0.93079">
        <ele>64.148</ele>
        <time>2020-07-19T09:08:49Z</time>
      </trkpt>
      <trkpt lat="47.39935" lon="-0.93076">
        <ele>61.648</ele>
        <time>2020-07-19T09:08:50Z</time>
      </trkpt>
      <trkpt lat="47.39932" lon="-0.93074">
        <ele>61.477</ele>
        <time>2020-07-19T09:08:51Z</time>
      </trkpt>
      <trkpt lat="47.39929" lon="-0.93072">
        <ele>59.523</ele>
        <time>2020-07-19T09:08:52Z</time>
      </trkpt>
      <trkpt lat="47.39926" lon="-0.93071">
        <ele>59.718</ele>
        <time>2020-07-19T09:08:53Z</time>
      </trkpt>
      <trkpt lat="47.39923" lon="-0.9307">
        <ele>58.357</ele>
        <time>2020-07-19T09:08:54Z</time>
      </trkpt>
      <trkpt lat="47.3992" lon="-0.93068">
        <ele>58.703</ele>
        <time>2020-07-19T09:08:55Z</time>
      </trkpt>
      <trkpt lat="47.39918" lon="-0.93067">
        <ele>58.513</ele>
        <time>2020-07-19T09:08:56Z</time>
      </trkpt>
      <trkpt lat="47.39915" lon="-0.93065">
        <ele>58.986</ele>
        <time>2020-07-19T09:08:57Z</time>
      </trkpt>
      <trkpt lat="47.39913" lon="-0.93065">
        <ele>58.829</ele>
        <time>2020-07-19T09:08:58Z</time>
      </trkpt>
      <trkpt lat="47.3991" lon="-0.93065">
        <ele>58.635</ele>
        <time>2020-07-19T09:08:59Z</time>
      </trkpt>
      <trkpt lat="47.39907" lon="-0.93066">
        <ele>59.333</ele>
        <time>2020-07-19T09:09:00Z</time>
      </trkpt>
      <trkpt lat="47.39905" lon="-0.93069">
        <ele>59.046</ele>
        <time>2020-07-19T09:09:01Z</time>
      </trkpt>
      <trkpt lat="47.39903" lon="-0.93073">
        <ele>58.843</ele>
        <time>2020-07-19T09:09:02Z</time>
      </trkpt>
      <trkpt lat="47.39902" lon="-0.93077">
        <ele>59.375</ele>
        <time>2020-07-19T09:09:03Z</time>
      </trkpt>
      <trkpt lat="47.39901" lon="-0.93081">
        <ele>59.54</ele>
        <time>2020-07-19T09:09:04Z</time>
      </trkpt>
      <trkpt lat="47.39899" lon="-0.93084">
        <ele>59.759</ele>
        <time>2020-07-19T09:09:05Z</time>
      </trkpt>
      <trkpt lat="47.39897" lon="-0.93087">
        <ele>59.25</ele>
        <time>2020-07-19T09:09:06Z</time>
      </trkpt>
      <trkpt lat="47.39895" lon="-0.93089">
        <ele>59.097</ele>
        <time>2020-07-19T09:09:07Z</time>
      </trkpt>
      <trkpt lat="47.39893" lon="-0.93091">
        <ele>59.376</ele>
        <time>2020-07-19T09:09:08Z</time>
      </trkpt>
      <trkpt lat="47.39891" lon="-0.93093">
        <ele>59.092</ele>
        <time>2020-07-19T09:09:09Z</time>
      </trkpt>
      <trkpt lat="47.39889" lon="-0.93094">
        <ele>59.3</ele>
        <time>2020-07-19T09:09:10Z</time>
      </trkpt>
      <trkpt lat="47.39888" lon="-0.93094">
        <ele>59.365</ele>
        <time>2020-07-19T09:09:11Z</time>
      </trkpt>
      <trkpt lat="47.39888" lon="-0.93094">
        <ele>59.357</ele>
        <time>2020-07-19T09:09:12Z</time>
      </trkpt>
      <trkpt lat="47.39889" lon="-0.93093">
        <ele>59.469</ele>
        <time>2020-07-19T09:09:13Z</time>
      </trkpt>
      <trkpt lat="47.39889" lon="-0.93093">
        <ele>59.396</ele>
        <time>2020-07-19T09:09:14Z</time>
      </trkpt>
      <trkpt lat="47.39889" lon="-0.93092">
        <ele>59.455</ele>
        <time>2020-07-19T09:09:15Z</time>
      </trkpt>
      <trkpt lat="47.39889" lon="-0.93092">
        <ele>59.381</ele>
        <time>2020-07-19T09:09:16Z</time>
      </trkpt>
      <trkpt lat="47.39889" lon="-0.93092">
        <ele>59.303</ele>
        <time>2020-07-19T09:09:17Z</time>
      </trkpt>
      <trkpt lat="47.39889" lon="-0.93091">
        <ele>59.143</ele>
        <time>2020-07-19T09:09:18Z</time>
      </trkpt>
      <trkpt lat="47.39889" lon="-0.93091">
        <ele>59.173</ele>
        <time>2020-07-19T09:09:19Z</time>
      </trkpt>
      <trkpt lat="47.39889" lon="-0.93091">
        <ele>59.26</ele>
        <time>2020-07-19T09:09:20Z</time>
      </trkpt>
      <trkpt lat="47.39889" lon="-0.93091">
        <ele>59.282</ele>
        <time>2020-07-19T09:09:21Z</time>
      </trkpt>
      <trkpt lat="47.39889" lon="-0.93091">
        <ele>59.281</ele>
        <time>2020-07-19T09:09:22Z</time>
      </trkpt>
      <trkpt lat="47.39889" lon="-0.93091">
        <ele>60.158</ele>
        <time>2020-07-19T09:09:25Z</time>
      </trkpt>
      <trkpt lat="47.39889" lon="-0.93091">
        <ele>60.192</ele>
        <time>2020-07-19T09:09:26Z</time>
      </trkpt>
      <trkpt lat="47.39889" lon="-0.93091">
        <ele>60.176</ele>
        <time>2020-07-19T09:09:27Z</time>
      </trkpt>
      <trkpt lat="47.39889" lon="-0.93091">
        <ele>60.156</ele>
        <time>2020-07-19T09:09:28Z</time>
      </trkpt>
      <trkpt lat="47.39889" lon="-0.93091">
        <ele>60.167</ele>
        <time>2020-07-19T09:09:29Z</time>
      </trkpt>
      <trkpt lat="47.39889" lon="-0.93091">
        <ele>60.901</ele>
        <time>2020-07-19T09:09:30Z</time>
      </trkpt>
      <trkpt lat="47.39889" lon="-0.93091">
        <ele>61.068</ele>
        <time>2020-07-19T09:09:31Z</time>
      </trkpt>
      <trkpt lat="47.39889" lon="-0.9309">
        <ele>61.492</ele>
        <time>2020-07-19T09:09:32Z</time>
      </trkpt>
      <trkpt lat="47.39889" lon="-0.9309">
        <ele>61.494</ele>
        <time>2020-07-19T09:09:33Z</time>
      </trkpt>
      <trkpt lat="47.39889" lon="-0.93091">
        <ele>61.389</ele>
        <time>2020-07-19T09:09:34Z</time>
      </trkpt>
      <trkpt lat="47.39889" lon="-0.93091">
        <ele>61.16</ele>
        <time>2020-07-19T09:09:35Z</time>
      </trkpt>
      <trkpt lat="47.39889" lon="-0.93091">
        <ele>61.188</ele>
        <time>2020-07-19T09:09:36Z</time>
      </trkpt>
      <trkpt lat="47.39889" lon="-0.93091">
        <ele>61.043</ele>
        <time>2020-07-19T09:09:37Z</time>
      </trkpt>
      <trkpt lat="47.39889" lon="-0.93091">
        <ele>61.595</ele>
        <time>2020-07-19T09:09:38Z</time>
      </trkpt>
      <trkpt lat="47.39889" lon="-0.93092">
        <ele>61.731</ele>
        <time>2020-07-19T09:09:39Z</time>
      </trkpt>
      <trkpt lat="47.3989" lon="-0.93092">
        <ele>61.936</ele>
        <time>2020-07-19T09:09:40Z</time>
      </trkpt>
      <trkpt lat="47.3989" lon="-0.93092">
        <ele>62.111</ele>
        <time>2020-07-19T09:09:41Z</time>
      </trkpt>
      <trkpt lat="47.3989" lon="-0.93092">
        <ele>62.089</ele>
        <time>2020-07-19T09:09:42Z</time>
      </trkpt>
      <trkpt lat="47.39983" lon="-0.92877">
        <ele>65.8</ele>
        <time>2020-07-19T09:09:42Z</time>
      </trkpt>
      <trkpt lat="47.39983" lon="-0.92877">
        <ele>65.8</ele>
        <time>2020-07-19T09:09:43Z</time>
      </trkpt>
      <trkpt lat="47.3989" lon="-0.93091">
        <ele>63.392</ele>
        <time>2020-07-19T09:09:43Z</time>
      </trkpt>
      <trkpt lat="47.3989" lon="-0.93092">
        <ele>63.24</ele>
        <time>2020-07-19T09:09:44Z</time>
      </trkpt>
      <trkpt lat="47.3989" lon="-0.93091">
        <ele>62.44</ele>
        <time>2020-07-19T09:09:45Z</time>
      </trkpt>
      <trkpt lat="47.3989" lon="-0.93092">
        <ele>62.396</ele>
        <time>2020-07-19T09:09:46Z</time>
      </trkpt>
      <trkpt lat="47.3989" lon="-0.93093">
        <ele>63.292</ele>
        <time>2020-07-19T09:09:47Z</time>
      </trkpt>
      <trkpt lat="47.3989" lon="-0.93094">
        <ele>61.708</ele>
        <time>2020-07-19T09:09:48Z</time>
      </trkpt>
      <trkpt lat="47.39889" lon="-0.93096">
        <ele>63.253</ele>
        <time>2020-07-19T09:09:49Z</time>
      </trkpt>
      <trkpt lat="47.39888" lon="-0.93098">
        <ele>63.964</ele>
        <time>2020-07-19T09:09:50Z</time>
      </trkpt>
      <trkpt lat="47.39886" lon="-0.931">
        <ele>64.028</ele>
        <time>2020-07-19T09:09:51Z</time>
      </trkpt>
      <trkpt lat="47.39885" lon="-0.93102">
        <ele>64.284</ele>
        <time>2020-07-19T09:09:52Z</time>
      </trkpt>
      <trkpt lat="47.39883" lon="-0.93105">
        <ele>64.632</ele>
        <time>2020-07-19T09:09:53Z</time>
      </trkpt>
      <trkpt lat="47.39881" lon="-0.93107">
        <ele>64.248</ele>
        <time>2020-07-19T09:09:54Z</time>
      </trkpt>
      <trkpt lat="47.39879" lon="-0.9311">
        <ele>64.033</ele>
        <time>2020-07-19T09:09:55Z</time>
      </trkpt>
      <trkpt lat="47.39876" lon="-0.93113">
        <ele>62.596</ele>
        <time>2020-07-19T09:09:56Z</time>
      </trkpt>
      <trkpt lat="47.39874" lon="-0.93116">
        <ele>62.642</ele>
        <time>2020-07-19T09:09:57Z</time>
      </trkpt>
      <trkpt lat="47.39872" lon="-0.9312">
        <ele>63.04</ele>
        <time>2020-07-19T09:09:58Z</time>
      </trkpt>
      <trkpt lat="47.39869" lon="-0.93123">
        <ele>62.79</ele>
        <time>2020-07-19T09:09:59Z</time>
      </trkpt>
      <trkpt lat="47.39867" lon="-0.93127">
        <ele>62.96</ele>
        <time>2020-07-19T09:10:00Z</time>
      </trkpt>
      <trkpt lat="47.39865" lon="-0.9313">
        <ele>62.922</ele>
        <time>2020-07-19T09:10:01Z</time>
      </trkpt>
      <trkpt lat="47.39863" lon="-0.93134">
        <ele>62.214</ele>
        <time>2020-07-19T09:10:02Z</time>
      </trkpt>
      <trkpt lat="47.39861" lon="-0.93136">
        <ele>59.474</ele>
        <time>2020-07-19T09:10:03Z</time>
      </trkpt>
      <trkpt lat="47.3986" lon="-0.93137">
        <ele>59.987</ele>
        <time>2020-07-19T09:10:04Z</time>
      </trkpt>
      <trkpt lat="47.39859" lon="-0.93137">
        <ele>59.168</ele>
        <time>2020-07-19T09:10:05Z</time>
      </trkpt>
      <trkpt lat="47.39859" lon="-0.93137">
        <ele>58.312</ele>
        <time>2020-07-19T09:10:06Z</time>
      </trkpt>
      <trkpt lat="47.39859" lon="-0.93136">
        <ele>58.717</ele>
        <time>2020-07-19T09:10:07Z</time>
      </trkpt>
      <trkpt lat="47.39859" lon="-0.93135">
        <ele>58.013</ele>
        <time>2020-07-19T09:10:08Z</time>
      </trkpt>
      <trkpt lat="47.39859" lon="-0.93135">
        <ele>58.006</ele>
        <time>2020-07-19T09:10:09Z</time>
      </trkpt>
      <trkpt lat="47.39859" lon="-0.93134">
        <ele>57.65</ele>
        <time>2020-07-19T09:10:10Z</time>
      </trkpt>
      <trkpt lat="47.39859" lon="-0.93134">
        <ele>57.938</ele>
        <time>2020-07-19T09:10:11Z</time>
      </trkpt>
      <trkpt lat="47.39859" lon="-0.93134">
        <ele>57.706</ele>
        <time>2020-07-19T09:10:12Z</time>
      </trkpt>
      <trkpt lat="47.39859" lon="-0.93134">
        <ele>57.245</ele>
        <time>2020-07-19T09:10:13Z</time>
      </trkpt>
      <trkpt lat="47.39859" lon="-0.93134">
        <ele>57.228</ele>
        <time>2020-07-19T09:10:14Z</time>
      </trkpt>
      <trkpt lat="47.39859" lon="-0.93133">
        <ele>57.249</ele>
        <time>2020-07-19T09:10:15Z</time>
      </trkpt>
      <trkpt lat="47.39858" lon="-0.93133">
        <ele>57.402</ele>
        <time>2020-07-19T09:10:16Z</time>
      </trkpt>
      <trkpt lat="47.39859" lon="-0.93133">
        <ele>57.433</ele>
        <time>2020-07-19T09:10:17Z</time>
      </trkpt>
      <trkpt lat="47.39859" lon="-0.93133">
        <ele>57.316</ele>
        <time>2020-07-19T09:10:18Z</time>
      </trkpt>
      <trkpt lat="47.39859" lon="-0.93134">
        <ele>57.217</ele>
        <time>2020-07-19T09:10:19Z</time>
      </trkpt>
      <trkpt lat="47.39859" lon="-0.93134">
        <ele>57.214</ele>
        <time>2020-07-19T09:10:20Z</time>
      </trkpt>
      <trkpt lat="47.39859" lon="-0.93134">
        <ele>57.202</ele>
        <time>2020-07-19T09:10:21Z</time>
      </trkpt>
      <trkpt lat="47.39859" lon="-0.93134">
        <ele>57.193</ele>
        <time>2020-07-19T09:10:22Z</time>
      </trkpt>
      <trkpt lat="47.39859" lon="-0.93134">
        <ele>57.189</ele>
        <time>2020-07-19T09:10:23Z</time>
      </trkpt>
      <trkpt lat="47.39859" lon="-0.93134">
        <ele>57.189</ele>
        <time>2020-07-19T09:10:24Z</time>
      </trkpt>
      <trkpt lat="47.39859" lon="-0.93134">
        <ele>57.091</ele>
        <time>2020-07-19T09:10:25Z</time>
      </trkpt>
      <trkpt lat="47.39859" lon="-0.93134">
        <ele>57.001</ele>
        <time>2020-07-19T09:10:26Z</time>
      </trkpt>
      <trkpt lat="47.39859" lon="-0.93134">
        <ele>56.961</ele>
        <time>2020-07-19T09:10:27Z</time>
      </trkpt>
      <trkpt lat="47.39859" lon="-0.93134">
        <ele>56.951</ele>
        <time>2020-07-19T09:10:28Z</time>
      </trkpt>
      <trkpt lat="47.39859" lon="-0.93133">
        <ele>56.895</ele>
        <time>2020-07-19T09:10:29Z</time>
      </trkpt>
      <trkpt lat="47.39859" lon="-0.93133">
        <ele>56.881</ele>
        <time>2020-07-19T09:10:30Z</time>
      </trkpt>
      <trkpt lat="47.39859" lon="-0.93133">
        <ele>56.894</ele>
        <time>2020-07-19T09:10:31Z</time>
      </trkpt>
      <trkpt lat="47.39859" lon="-0.93133">
        <ele>56.901</ele>
        <time>2020-07-19T09:10:32Z</time>
      </trkpt>
      <trkpt lat="47.39859" lon="-0.93134">
        <ele>57.36</ele>
        <time>2020-07-19T09:10:33Z</time>
      </trkpt>
      <trkpt lat="47.39859" lon="-0.93134">
        <ele>57.326</ele>
        <time>2020-07-19T09:10:34Z</time>
      </trkpt>
      <trkpt lat="47.39859" lon="-0.93134">
        <ele>57.677</ele>
        <time>2020-07-19T09:10:35Z</time>
      </trkpt>
      <trkpt lat="47.39858" lon="-0.93134">
        <ele>57.65</ele>
        <time>2020-07-19T09:10:36Z</time>
      </trkpt>
      <trkpt lat="47.39858" lon="-0.93134">
        <ele>57.714</ele>
        <time>2020-07-19T09:10:37Z</time>
      </trkpt>
      <trkpt lat="47.39858" lon="-0.93134">
        <ele>57.716</ele>
        <time>2020-07-19T09:10:38Z</time>
      </trkpt>
      <trkpt lat="47.39858" lon="-0.93134">
        <ele>57.713</ele>
        <time>2020-07-19T09:10:39Z</time>
      </trkpt>
      <trkpt lat="47.39858" lon="-0.93134">
        <ele>57.72</ele>
        <time>2020-07-19T09:10:40Z</time>
      </trkpt>
      <trkpt lat="47.39858" lon="-0.93134">
        <ele>57.731</ele>
        <time>2020-07-19T09:10:41Z</time>
      </trkpt>
      <trkpt lat="47.39858" lon="-0.93134">
        <ele>57.742</ele>
        <time>2020-07-19T09:10:42Z</time>
      </trkpt>
      <trkpt lat="47.39858" lon="-0.93134">
        <ele>57.788</ele>
        <time>2020-07-19T09:10:43Z</time>
      </trkpt>
      <trkpt lat="47.39858" lon="-0.93134">
        <ele>57.878</ele>
        <time>2020-07-19T09:10:44Z</time>
      </trkpt>
      <trkpt lat="47.39858" lon="-0.93134">
        <ele>57.937</ele>
        <time>2020-07-19T09:10:46Z</time>
      </trkpt>
      <trkpt lat="47.39858" lon="-0.93134">
        <ele>57.843</ele>
        <time>2020-07-19T09:10:48Z</time>
      </trkpt>
      <trkpt lat="47.39858" lon="-0.93134">
        <ele>58.092</ele>
        <time>2020-07-19T09:10:49Z</time>
      </trkpt>
      <trkpt lat="47.39858" lon="-0.93134">
        <ele>59.035</ele>
        <time>2020-07-19T09:10:50Z</time>
      </trkpt>
      <trkpt lat="47.39857" lon="-0.93135">
        <ele>59.412</ele>
        <time>2020-07-19T09:10:51Z</time>
      </trkpt>
      <trkpt lat="47.39857" lon="-0.93137">
        <ele>58.991</ele>
        <time>2020-07-19T09:10:52Z</time>
      </trkpt>
      <trkpt lat="47.39856" lon="-0.93139">
        <ele>60.656</ele>
        <time>2020-07-19T09:10:53Z</time>
      </trkpt>
      <trkpt lat="47.39856" lon="-0.93142">
        <ele>60.013</ele>
        <time>2020-07-19T09:10:54Z</time>
      </trkpt>
      <trkpt lat="47.39856" lon="-0.93145">
        <ele>61.228</ele>
        <time>2020-07-19T09:10:55Z</time>
      </trkpt>
      <trkpt lat="47.39855" lon="-0.93149">
        <ele>61.709</ele>
        <time>2020-07-19T09:10:56Z</time>
      </trkpt>
      <trkpt lat="47.39854" lon="-0.93153">
        <ele>61.564</ele>
        <time>2020-07-19T09:10:57Z</time>
      </trkpt>
      <trkpt lat="47.39853" lon="-0.93157">
        <ele>61.369</ele>
        <time>2020-07-19T09:10:58Z</time>
      </trkpt>
      <trkpt lat="47.39852" lon="-0.93161">
        <ele>61.674</ele>
        <time>2020-07-19T09:10:59Z</time>
      </trkpt>
      <trkpt lat="47.39851" lon="-0.93165">
        <ele>62.044</ele>
        <time>2020-07-19T09:11:00Z</time>
      </trkpt>
      <trkpt lat="47.3985" lon="-0.93168">
        <ele>61.396</ele>
        <time>2020-07-19T09:11:01Z</time>
      </trkpt>
      <trkpt lat="47.39849" lon="-0.93172">
        <ele>61.003</ele>
        <time>2020-07-19T09:11:02Z</time>
      </trkpt>
      <trkpt lat="47.39848" lon="-0.93175">
        <ele>60.065</ele>
        <time>2020-07-19T09:11:03Z</time>
      </trkpt>
      <trkpt lat="47.39848" lon="-0.93177">
        <ele>60.186</ele>
        <time>2020-07-19T09:11:04Z</time>
      </trkpt>
      <trkpt lat="47.39848" lon="-0.9318">
        <ele>58.642</ele>
        <time>2020-07-19T09:11:05Z</time>
      </trkpt>
      <trkpt lat="47.39848" lon="-0.93184">
        <ele>59.188</ele>
        <time>2020-07-19T09:11:06Z</time>
      </trkpt>
      <trkpt lat="47.39846" lon="-0.93188">
        <ele>59.903</ele>
        <time>2020-07-19T09:11:07Z</time>
      </trkpt>
      <trkpt lat="47.39845" lon="-0.93191">
        <ele>60.779</ele>
        <time>2020-07-19T09:11:08Z</time>
      </trkpt>
      <trkpt lat="47.39843" lon="-0.93196">
        <ele>61.653</ele>
        <time>2020-07-19T09:11:09Z</time>
      </trkpt>
      <trkpt lat="47.39841" lon="-0.932">
        <ele>61.411</ele>
        <time>2020-07-19T09:11:10Z</time>
      </trkpt>
      <trkpt lat="47.3984" lon="-0.93203">
        <ele>61.21</ele>
        <time>2020-07-19T09:11:11Z</time>
      </trkpt>
      <trkpt lat="47.39839" lon="-0.93207">
        <ele>60.822</ele>
        <time>2020-07-19T09:11:12Z</time>
      </trkpt>
      <trkpt lat="47.39837" lon="-0.93211">
        <ele>60.933</ele>
        <time>2020-07-19T09:11:13Z</time>
      </trkpt>
      <trkpt lat="47.39834" lon="-0.93215">
        <ele>60.568</ele>
        <time>2020-07-19T09:11:14Z</time>
      </trkpt>
      <trkpt lat="47.39832" lon="-0.93218">
        <ele>61.347</ele>
        <time>2020-07-19T09:11:15Z</time>
      </trkpt>
      <trkpt lat="47.39829" lon="-0.93222">
        <ele>60.86</ele>
        <time>2020-07-19T09:11:16Z</time>
      </trkpt>
      <trkpt lat="47.39827" lon="-0.93226">
        <ele>60.817</ele>
        <time>2020-07-19T09:11:17Z</time>
      </trkpt>
      <trkpt lat="47.39825" lon="-0.9323">
        <ele>62</ele>
        <time>2020-07-19T09:11:18Z</time>
      </trkpt>
      <trkpt lat="47.39823" lon="-0.93234">
        <ele>62.354</ele>
        <time>2020-07-19T09:11:19Z</time>
      </trkpt>
      <trkpt lat="47.3982" lon="-0.93237">
        <ele>62.576</ele>
        <time>2020-07-19T09:11:20Z</time>
      </trkpt>
      <trkpt lat="47.39819" lon="-0.93241">
        <ele>59.263</ele>
        <time>2020-07-19T09:11:21Z</time>
      </trkpt>
      <trkpt lat="47.39817" lon="-0.93244">
        <ele>58.662</ele>
        <time>2020-07-19T09:11:22Z</time>
      </trkpt>
      <trkpt lat="47.39815" lon="-0.93247">
        <ele>58.795</ele>
        <time>2020-07-19T09:11:23Z</time>
      </trkpt>
      <trkpt lat="47.39813" lon="-0.9325">
        <ele>59.036</ele>
        <time>2020-07-19T09:11:24Z</time>
      </trkpt>
      <trkpt lat="47.39811" lon="-0.93254">
        <ele>59.68</ele>
        <time>2020-07-19T09:11:25Z</time>
      </trkpt>
      <trkpt lat="47.39809" lon="-0.93257">
        <ele>59.573</ele>
        <time>2020-07-19T09:11:26Z</time>
      </trkpt>
      <trkpt lat="47.39807" lon="-0.93259">
        <ele>61.816</ele>
        <time>2020-07-19T09:11:27Z</time>
      </trkpt>
      <trkpt lat="47.39805" lon="-0.93262">
        <ele>62.297</ele>
        <time>2020-07-19T09:11:28Z</time>
      </trkpt>
      <trkpt lat="47.39804" lon="-0.93263">
        <ele>61.67</ele>
        <time>2020-07-19T09:11:29Z</time>
      </trkpt>
      <trkpt lat="47.39803" lon="-0.93265">
        <ele>61.806</ele>
        <time>2020-07-19T09:11:30Z</time>
      </trkpt>
      <trkpt lat="47.39802" lon="-0.93266">
        <ele>62.522</ele>
        <time>2020-07-19T09:11:31Z</time>
      </trkpt>
      <trkpt lat="47.39801" lon="-0.93265">
        <ele>62.787</ele>
        <time>2020-07-19T09:11:32Z</time>
      </trkpt>
      <trkpt lat="47.39801" lon="-0.93266">
        <ele>63.344</ele>
        <time>2020-07-19T09:11:33Z</time>
      </trkpt>
      <trkpt lat="47.39801" lon="-0.93265">
        <ele>63.077</ele>
        <time>2020-07-19T09:11:34Z</time>
      </trkpt>
      <trkpt lat="47.398" lon="-0.93266">
        <ele>63.633</ele>
        <time>2020-07-19T09:11:35Z</time>
      </trkpt>
      <trkpt lat="47.398" lon="-0.93266">
        <ele>64.386</ele>
        <time>2020-07-19T09:11:36Z</time>
      </trkpt>
      <trkpt lat="47.398" lon="-0.93266">
        <ele>64.847</ele>
        <time>2020-07-19T09:11:37Z</time>
      </trkpt>
      <trkpt lat="47.398" lon="-0.93267">
        <ele>65.108</ele>
        <time>2020-07-19T09:11:38Z</time>
      </trkpt>
      <trkpt lat="47.398" lon="-0.93267">
        <ele>65.332</ele>
        <time>2020-07-19T09:11:39Z</time>
      </trkpt>
      <trkpt lat="47.398" lon="-0.93267">
        <ele>65.299</ele>
        <time>2020-07-19T09:11:40Z</time>
      </trkpt>
      <trkpt lat="47.39799" lon="-0.93267">
        <ele>65.556</ele>
        <time>2020-07-19T09:11:41Z</time>
      </trkpt>
      <trkpt lat="47.39798" lon="-0.9327">
        <ele>64.893</ele>
        <time>2020-07-19T09:11:42Z</time>
      </trkpt>
      <trkpt lat="47.39796" lon="-0.93274">
        <ele>63.849</ele>
        <time>2020-07-19T09:11:43Z</time>
      </trkpt>
      <trkpt lat="47.39794" lon="-0.93277">
        <ele>63.86</ele>
        <time>2020-07-19T09:11:44Z</time>
      </trkpt>
      <trkpt lat="47.39792" lon="-0.93281">
        <ele>63.844</ele>
        <time>2020-07-19T09:11:45Z</time>
      </trkpt>
      <trkpt lat="47.3979" lon="-0.93284">
        <ele>61.357</ele>
        <time>2020-07-19T09:11:46Z</time>
      </trkpt>
      <trkpt lat="47.39789" lon="-0.93286">
        <ele>61.888</ele>
        <time>2020-07-19T09:11:47Z</time>
      </trkpt>
      <trkpt lat="47.39788" lon="-0.93288">
        <ele>61.953</ele>
        <time>2020-07-19T09:11:48Z</time>
      </trkpt>
      <trkpt lat="47.39788" lon="-0.93287">
        <ele>62.127</ele>
        <time>2020-07-19T09:11:49Z</time>
      </trkpt>
      <trkpt lat="47.39788" lon="-0.93287">
        <ele>62.653</ele>
        <time>2020-07-19T09:11:50Z</time>
      </trkpt>
      <trkpt lat="47.39789" lon="-0.93286">
        <ele>61.704</ele>
        <time>2020-07-19T09:11:51Z</time>
      </trkpt>
      <trkpt lat="47.39789" lon="-0.93286">
        <ele>61.57</ele>
        <time>2020-07-19T09:11:52Z</time>
      </trkpt>
      <trkpt lat="47.39789" lon="-0.93287">
        <ele>61.145</ele>
        <time>2020-07-19T09:11:53Z</time>
      </trkpt>
      <trkpt lat="47.39787" lon="-0.9329">
        <ele>60.494</ele>
        <time>2020-07-19T09:11:54Z</time>
      </trkpt>
      <trkpt lat="47.39785" lon="-0.93292">
        <ele>59.353</ele>
        <time>2020-07-19T09:11:55Z</time>
      </trkpt>
      <trkpt lat="47.39783" lon="-0.93295">
        <ele>97.272</ele>
        <time>2020-07-19T09:11:56Z</time>
      </trkpt>
      <trkpt lat="47.39781" lon="-0.93298">
        <ele>89.231</ele>
        <time>2020-07-19T09:11:57Z</time>
      </trkpt>
      <trkpt lat="47.3978" lon="-0.93302">
        <ele>84.711</ele>
        <time>2020-07-19T09:11:58Z</time>
      </trkpt>
      <trkpt lat="47.39778" lon="-0.93305">
        <ele>77.358</ele>
        <time>2020-07-19T09:11:59Z</time>
      </trkpt>
      <trkpt lat="47.39776" lon="-0.93309">
        <ele>72.549</ele>
        <time>2020-07-19T09:12:00Z</time>
      </trkpt>
      <trkpt lat="47.39774" lon="-0.93313">
        <ele>68.956</ele>
        <time>2020-07-19T09:12:01Z</time>
      </trkpt>
      <trkpt lat="47.39772" lon="-0.93318">
        <ele>65.686</ele>
        <time>2020-07-19T09:12:02Z</time>
      </trkpt>
      <trkpt lat="47.39769" lon="-0.93323">
        <ele>63.001</ele>
        <time>2020-07-19T09:12:03Z</time>
      </trkpt>
      <trkpt lat="47.39767" lon="-0.93328">
        <ele>63.007</ele>
        <time>2020-07-19T09:12:04Z</time>
      </trkpt>
      <trkpt lat="47.39764" lon="-0.93333">
        <ele>62.285</ele>
        <time>2020-07-19T09:12:05Z</time>
      </trkpt>
      <trkpt lat="47.39762" lon="-0.93338">
        <ele>62.184</ele>
        <time>2020-07-19T09:12:06Z</time>
      </trkpt>
      <trkpt lat="47.3976" lon="-0.93342">
        <ele>61.069</ele>
        <time>2020-07-19T09:12:07Z</time>
      </trkpt>
      <trkpt lat="47.39758" lon="-0.93346">
        <ele>61.599</ele>
        <time>2020-07-19T09:12:08Z</time>
      </trkpt>
      <trkpt lat="47.39757" lon="-0.93351">
        <ele>60.853</ele>
        <time>2020-07-19T09:12:09Z</time>
      </trkpt>
      <trkpt lat="47.39755" lon="-0.93355">
        <ele>59.617</ele>
        <time>2020-07-19T09:12:10Z</time>
      </trkpt>
      <trkpt lat="47.39753" lon="-0.9336">
        <ele>59.446</ele>
        <time>2020-07-19T09:12:11Z</time>
      </trkpt>
      <trkpt lat="47.39751" lon="-0.93366">
        <ele>58.697</ele>
        <time>2020-07-19T09:12:12Z</time>
      </trkpt>
      <trkpt lat="47.39749" lon="-0.93371">
        <ele>59.151</ele>
        <time>2020-07-19T09:12:13Z</time>
      </trkpt>
      <trkpt lat="47.39747" lon="-0.93377">
        <ele>59.379</ele>
        <time>2020-07-19T09:12:14Z</time>
      </trkpt>
      <trkpt lat="47.39746" lon="-0.93383">
        <ele>58.45</ele>
        <time>2020-07-19T09:12:15Z</time>
      </trkpt>
      <trkpt lat="47.39744" lon="-0.93388">
        <ele>58.293</ele>
        <time>2020-07-19T09:12:16Z</time>
      </trkpt>
      <trkpt lat="47.39741" lon="-0.93394">
        <ele>58.029</ele>
        <time>2020-07-19T09:12:17Z</time>
      </trkpt>
      <trkpt lat="47.39739" lon="-0.93399">
        <ele>56.074</ele>
        <time>2020-07-19T09:12:18Z</time>
      </trkpt>
      <trkpt lat="47.39737" lon="-0.93405">
        <ele>56.96</ele>
        <time>2020-07-19T09:12:19Z</time>
      </trkpt>
      <trkpt lat="47.39735" lon="-0.9341">
        <ele>55.663</ele>
        <time>2020-07-19T09:12:20Z</time>
      </trkpt>
      <trkpt lat="47.39735" lon="-0.93416">
        <ele>51.802</ele>
        <time>2020-07-19T09:12:21Z</time>
      </trkpt>
      <trkpt lat="47.39733" lon="-0.93422">
        <ele>50.116</ele>
        <time>2020-07-19T09:12:22Z</time>
      </trkpt>
      <trkpt lat="47.39732" lon="-0.93426">
        <ele>50.302</ele>
        <time>2020-07-19T09:12:23Z</time>
      </trkpt>
      <trkpt lat="47.3973" lon="-0.93431">
        <ele>50.714</ele>
        <time>2020-07-19T09:12:24Z</time>
      </trkpt>
      <trkpt lat="47.39729" lon="-0.93437">
        <ele>50.975</ele>
        <time>2020-07-19T09:12:25Z</time>
      </trkpt>
      <trkpt lat="47.39726" lon="-0.93444">
        <ele>51.526</ele>
        <time>2020-07-19T09:12:26Z</time>
      </trkpt>
      <trkpt lat="47.39723" lon="-0.93449">
        <ele>51.342</ele>
        <time>2020-07-19T09:12:27Z</time>
      </trkpt>
      <trkpt lat="47.3972" lon="-0.93455">
        <ele>51.575</ele>
        <time>2020-07-19T09:12:28Z</time>
      </trkpt>
      <trkpt lat="47.39718" lon="-0.9346">
        <ele>51.686</ele>
        <time>2020-07-19T09:12:29Z</time>
      </trkpt>
      <trkpt lat="47.39716" lon="-0.93466">
        <ele>51.458</ele>
        <time>2020-07-19T09:12:30Z</time>
      </trkpt>
      <trkpt lat="47.39712" lon="-0.93471">
        <ele>52.218</ele>
        <time>2020-07-19T09:12:31Z</time>
      </trkpt>
      <trkpt lat="47.3971" lon="-0.93475">
        <ele>52.334</ele>
        <time>2020-07-19T09:12:32Z</time>
      </trkpt>
      <trkpt lat="47.39708" lon="-0.9348">
        <ele>52.611</ele>
        <time>2020-07-19T09:12:33Z</time>
      </trkpt>
      <trkpt lat="47.39705" lon="-0.93486">
        <ele>52.486</ele>
        <time>2020-07-19T09:12:34Z</time>
      </trkpt>
      <trkpt lat="47.39702" lon="-0.93491">
        <ele>51.561</ele>
        <time>2020-07-19T09:12:35Z</time>
      </trkpt>
      <trkpt lat="47.397" lon="-0.93496">
        <ele>51.481</ele>
        <time>2020-07-19T09:12:36Z</time>
      </trkpt>
      <trkpt lat="47.39699" lon="-0.93501">
        <ele>49.777</ele>
        <time>2020-07-19T09:12:37Z</time>
      </trkpt>
      <trkpt lat="47.39695" lon="-0.93507">
        <ele>48.248</ele>
        <time>2020-07-19T09:12:38Z</time>
      </trkpt>
      <trkpt lat="47.39695" lon="-0.93511">
        <ele>46.827</ele>
        <time>2020-07-19T09:12:39Z</time>
      </trkpt>
      <trkpt lat="47.39693" lon="-0.93516">
        <ele>46.675</ele>
        <time>2020-07-19T09:12:40Z</time>
      </trkpt>
      <trkpt lat="47.3969" lon="-0.93521">
        <ele>45.649</ele>
        <time>2020-07-19T09:12:41Z</time>
      </trkpt>
      <trkpt lat="47.39688" lon="-0.93526">
        <ele>46.419</ele>
        <time>2020-07-19T09:12:42Z</time>
      </trkpt>
      <trkpt lat="47.39686" lon="-0.93529">
        <ele>47.333</ele>
        <time>2020-07-19T09:12:43Z</time>
      </trkpt>
      <trkpt lat="47.39684" lon="-0.93533">
        <ele>47.767</ele>
        <time>2020-07-19T09:12:44Z</time>
      </trkpt>
      <trkpt lat="47.39682" lon="-0.93536">
        <ele>48.77</ele>
        <time>2020-07-19T09:12:45Z</time>
      </trkpt>
      <trkpt lat="47.39682" lon="-0.93537">
        <ele>48.695</ele>
        <time>2020-07-19T09:12:46Z</time>
      </trkpt>
      <trkpt lat="47.39682" lon="-0.93539">
        <ele>48.779</ele>
        <time>2020-07-19T09:12:47Z</time>
      </trkpt>
      <trkpt lat="47.3968" lon="-0.93541">
        <ele>48.846</ele>
        <time>2020-07-19T09:12:48Z</time>
      </trkpt>
      <trkpt lat="47.39679" lon="-0.93542">
        <ele>49.074</ele>
        <time>2020-07-19T09:12:49Z</time>
      </trkpt>
      <trkpt lat="47.39678" lon="-0.93544">
        <ele>49.253</ele>
        <time>2020-07-19T09:12:50Z</time>
      </trkpt>
      <trkpt lat="47.39677" lon="-0.93546">
        <ele>63.06</ele>
        <time>2020-07-19T09:12:51Z</time>
      </trkpt>
      <trkpt lat="47.39676" lon="-0.93546">
        <ele>60.543</ele>
        <time>2020-07-19T09:12:52Z</time>
      </trkpt>
      <trkpt lat="47.39676" lon="-0.93547">
        <ele>58.805</ele>
        <time>2020-07-19T09:12:53Z</time>
      </trkpt>
      <trkpt lat="47.39676" lon="-0.93547">
        <ele>57.625</ele>
        <time>2020-07-19T09:12:54Z</time>
      </trkpt>
      <trkpt lat="47.39676" lon="-0.93547">
        <ele>55.783</ele>
        <time>2020-07-19T09:12:55Z</time>
      </trkpt>
      <trkpt lat="47.39676" lon="-0.93547">
        <ele>54.422</ele>
        <time>2020-07-19T09:12:56Z</time>
      </trkpt>
      <trkpt lat="47.39676" lon="-0.93548">
        <ele>53.07</ele>
        <time>2020-07-19T09:12:57Z</time>
      </trkpt>
      <trkpt lat="47.39675" lon="-0.93548">
        <ele>52.24</ele>
        <time>2020-07-19T09:12:58Z</time>
      </trkpt>
      <trkpt lat="47.39675" lon="-0.93549">
        <ele>51.95</ele>
        <time>2020-07-19T09:12:59Z</time>
      </trkpt>
      <trkpt lat="47.39675" lon="-0.93549">
        <ele>52.03</ele>
        <time>2020-07-19T09:13:00Z</time>
      </trkpt>
      <trkpt lat="47.39675" lon="-0.93548">
        <ele>51.462</ele>
        <time>2020-07-19T09:13:01Z</time>
      </trkpt>
      <trkpt lat="47.39675" lon="-0.93548">
        <ele>51.797</ele>
        <time>2020-07-19T09:13:02Z</time>
      </trkpt>
      <trkpt lat="47.39675" lon="-0.93548">
        <ele>52.555</ele>
        <time>2020-07-19T09:13:03Z</time>
      </trkpt>
      <trkpt lat="47.39675" lon="-0.93548">
        <ele>52.407</ele>
        <time>2020-07-19T09:13:04Z</time>
      </trkpt>
      <trkpt lat="47.39675" lon="-0.93548">
        <ele>52.983</ele>
        <time>2020-07-19T09:13:05Z</time>
      </trkpt>
      <trkpt lat="47.39675" lon="-0.93548">
        <ele>53.328</ele>
        <time>2020-07-19T09:13:06Z</time>
      </trkpt>
      <trkpt lat="47.39675" lon="-0.93548">
        <ele>53.244</ele>
        <time>2020-07-19T09:13:07Z</time>
      </trkpt>
      <trkpt lat="47.39674" lon="-0.93548">
        <ele>53.198</ele>
        <time>2020-07-19T09:13:08Z</time>
      </trkpt>
      <trkpt lat="47.39674" lon="-0.93548">
        <ele>53.315</ele>
        <time>2020-07-19T09:13:09Z</time>
      </trkpt>
      <trkpt lat="47.39674" lon="-0.93548">
        <ele>53.233</ele>
        <time>2020-07-19T09:13:10Z</time>
      </trkpt>
      <trkpt lat="47.39674" lon="-0.93547">
        <ele>53.115</ele>
        <time>2020-07-19T09:13:11Z</time>
      </trkpt>
      <trkpt lat="47.39674" lon="-0.93547">
        <ele>53.094</ele>
        <time>2020-07-19T09:13:12Z</time>
      </trkpt>
      <trkpt lat="47.39674" lon="-0.93548">
        <ele>53.214</ele>
        <time>2020-07-19T09:13:13Z</time>
      </trkpt>
      <trkpt lat="47.39674" lon="-0.93547">
        <ele>52.216</ele>
        <time>2020-07-19T09:13:14Z</time>
      </trkpt>
      <trkpt lat="47.39674" lon="-0.93547">
        <ele>52.612</ele>
        <time>2020-07-19T09:13:15Z</time>
      </trkpt>
      <trkpt lat="47.39674" lon="-0.93547">
        <ele>52.702</ele>
        <time>2020-07-19T09:13:16Z</time>
      </trkpt>
      <trkpt lat="47.39674" lon="-0.93547">
        <ele>52.694</ele>
        <time>2020-07-19T09:13:17Z</time>
      </trkpt>
      <trkpt lat="47.39674" lon="-0.93547">
        <ele>56.326</ele>
        <time>2020-07-19T09:13:18Z</time>
      </trkpt>
      <trkpt lat="47.39674" lon="-0.93547">
        <ele>55.464</ele>
        <time>2020-07-19T09:13:19Z</time>
      </trkpt>
      <trkpt lat="47.39674" lon="-0.93547">
        <ele>55.023</ele>
        <time>2020-07-19T09:13:20Z</time>
      </trkpt>
      <trkpt lat="47.39674" lon="-0.93547">
        <ele>54.619</ele>
        <time>2020-07-19T09:13:21Z</time>
      </trkpt>
      <trkpt lat="47.39673" lon="-0.93548">
        <ele>54.547</ele>
        <time>2020-07-19T09:13:22Z</time>
      </trkpt>
      <trkpt lat="47.39672" lon="-0.93549">
        <ele>54.385</ele>
        <time>2020-07-19T09:13:23Z</time>
      </trkpt>
      <trkpt lat="47.39671" lon="-0.93549">
        <ele>52.107</ele>
        <time>2020-07-19T09:13:24Z</time>
      </trkpt>
      <trkpt lat="47.3967" lon="-0.9355">
        <ele>51.891</ele>
        <time>2020-07-19T09:13:25Z</time>
      </trkpt>
      <trkpt lat="47.3967" lon="-0.9355">
        <ele>52.495</ele>
        <time>2020-07-19T09:13:26Z</time>
      </trkpt>
      <trkpt lat="47.39669" lon="-0.9355">
        <ele>52.35</ele>
        <time>2020-07-19T09:13:27Z</time>
      </trkpt>
      <trkpt lat="47.39669" lon="-0.9355">
        <ele>63.189</ele>
        <time>2020-07-19T09:13:28Z</time>
      </trkpt>
      <trkpt lat="47.39669" lon="-0.9355">
        <ele>59.553</ele>
        <time>2020-07-19T09:13:29Z</time>
      </trkpt>
      <trkpt lat="47.3967" lon="-0.9355">
        <ele>57.073</ele>
        <time>2020-07-19T09:13:30Z</time>
      </trkpt>
      <trkpt lat="47.3967" lon="-0.93549">
        <ele>55.01</ele>
        <time>2020-07-19T09:13:31Z</time>
      </trkpt>
      <trkpt lat="47.3967" lon="-0.93549">
        <ele>53.989</ele>
        <time>2020-07-19T09:13:32Z</time>
      </trkpt>
      <trkpt lat="47.3967" lon="-0.93549">
        <ele>52.656</ele>
        <time>2020-07-19T09:13:33Z</time>
      </trkpt>
      <trkpt lat="47.3967" lon="-0.9355">
        <ele>52.731</ele>
        <time>2020-07-19T09:13:34Z</time>
      </trkpt>
      <trkpt lat="47.39671" lon="-0.9355">
        <ele>52.425</ele>
        <time>2020-07-19T09:13:35Z</time>
      </trkpt>
      <trkpt lat="47.39671" lon="-0.9355">
        <ele>52.358</ele>
        <time>2020-07-19T09:13:36Z</time>
      </trkpt>
      <trkpt lat="47.39671" lon="-0.9355">
        <ele>52.685</ele>
        <time>2020-07-19T09:13:37Z</time>
      </trkpt>
      <trkpt lat="47.39671" lon="-0.9355">
        <ele>52.288</ele>
        <time>2020-07-19T09:13:38Z</time>
      </trkpt>
      <trkpt lat="47.39671" lon="-0.9355">
        <ele>52.21</ele>
        <time>2020-07-19T09:13:39Z</time>
      </trkpt>
      <trkpt lat="47.39671" lon="-0.93551">
        <ele>52.196</ele>
        <time>2020-07-19T09:13:40Z</time>
      </trkpt>
      <trkpt lat="47.39671" lon="-0.93551">
        <ele>52.318</ele>
        <time>2020-07-19T09:13:41Z</time>
      </trkpt>
      <trkpt lat="47.39671" lon="-0.93551">
        <ele>52.428</ele>
        <time>2020-07-19T09:13:42Z</time>
      </trkpt>
      <trkpt lat="47.39671" lon="-0.93551">
        <ele>52.397</ele>
        <time>2020-07-19T09:13:43Z</time>
      </trkpt>
      <trkpt lat="47.39671" lon="-0.93551">
        <ele>52.359</ele>
        <time>2020-07-19T09:13:44Z</time>
      </trkpt>
      <trkpt lat="47.3967" lon="-0.93551">
        <ele>52.363</ele>
        <time>2020-07-19T09:13:45Z</time>
      </trkpt>
      <trkpt lat="47.3967" lon="-0.93551">
        <ele>52.349</ele>
        <time>2020-07-19T09:13:46Z</time>
      </trkpt>
      <trkpt lat="47.3967" lon="-0.93551">
        <ele>52.341</ele>
        <time>2020-07-19T09:13:47Z</time>
      </trkpt>
      <trkpt lat="47.3967" lon="-0.93551">
        <ele>52.284</ele>
        <time>2020-07-19T09:13:48Z</time>
      </trkpt>
      <trkpt lat="47.3967" lon="-0.93551">
        <ele>52.286</ele>
        <time>2020-07-19T09:13:49Z</time>
      </trkpt>
      <trkpt lat="47.3967" lon="-0.93551">
        <ele>52.237</ele>
        <time>2020-07-19T09:13:50Z</time>
      </trkpt>
      <trkpt lat="47.3967" lon="-0.93551">
        <ele>52.257</ele>
        <time>2020-07-19T09:13:51Z</time>
      </trkpt>
      <trkpt lat="47.3967" lon="-0.93551">
        <ele>52.232</ele>
        <time>2020-07-19T09:13:52Z</time>
      </trkpt>
      <trkpt lat="47.3967" lon="-0.93551">
        <ele>52.224</ele>
        <time>2020-07-19T09:13:53Z</time>
      </trkpt>
      <trkpt lat="47.3967" lon="-0.93551">
        <ele>52.214</ele>
        <time>2020-07-19T09:13:54Z</time>
      </trkpt>
      <trkpt lat="47.3967" lon="-0.93551">
        <ele>52.207</ele>
        <time>2020-07-19T09:13:55Z</time>
      </trkpt>
      <trkpt lat="47.3967" lon="-0.93551">
        <ele>52.227</ele>
        <time>2020-07-19T09:13:56Z</time>
      </trkpt>
      <trkpt lat="47.3967" lon="-0.93551">
        <ele>52.217</ele>
        <time>2020-07-19T09:13:57Z</time>
      </trkpt>
      <trkpt lat="47.3967" lon="-0.93551">
        <ele>52.259</ele>
        <time>2020-07-19T09:13:58Z</time>
      </trkpt>
      <trkpt lat="47.3967" lon="-0.93551">
        <ele>52.306</ele>
        <time>2020-07-19T09:13:59Z</time>
      </trkpt>
      <trkpt lat="47.3967" lon="-0.93551">
        <ele>52.301</ele>
        <time>2020-07-19T09:14:00Z</time>
      </trkpt>
      <trkpt lat="47.3967" lon="-0.93551">
        <ele>52.303</ele>
        <time>2020-07-19T09:14:01Z</time>
      </trkpt>
      <trkpt lat="47.3967" lon="-0.93551">
        <ele>52.286</ele>
        <time>2020-07-19T09:14:02Z</time>
      </trkpt>
      <trkpt lat="47.3967" lon="-0.93551">
        <ele>52.275</ele>
        <time>2020-07-19T09:14:03Z</time>
      </trkpt>
      <trkpt lat="47.3967" lon="-0.93551">
        <ele>52.269</ele>
        <time>2020-07-19T09:14:04Z</time>
      </trkpt>
      <trkpt lat="47.3967" lon="-0.93551">
        <ele>52.296</ele>
        <time>2020-07-19T09:14:05Z</time>
      </trkpt>
      <trkpt lat="47.3967" lon="-0.93551">
        <ele>52.301</ele>
        <time>2020-07-19T09:14:06Z</time>
      </trkpt>
      <trkpt lat="47.3967" lon="-0.93551">
        <ele>52.275</ele>
        <time>2020-07-19T09:14:07Z</time>
      </trkpt>
      <trkpt lat="47.3967" lon="-0.93552">
        <ele>52.352</ele>
        <time>2020-07-19T09:14:08Z</time>
      </trkpt>
      <trkpt lat="47.3967" lon="-0.93552">
        <ele>52.323</ele>
        <time>2020-07-19T09:14:09Z</time>
      </trkpt>
      <trkpt lat="47.3967" lon="-0.93552">
        <ele>52.323</ele>
        <time>2020-07-19T09:14:10Z</time>
      </trkpt>
      <trkpt lat="47.3967" lon="-0.93552">
        <ele>52.363</ele>
        <time>2020-07-19T09:14:11Z</time>
      </trkpt>
      <trkpt lat="47.3967" lon="-0.93552">
        <ele>52.513</ele>
        <time>2020-07-19T09:14:12Z</time>
      </trkpt>
      <trkpt lat="47.3967" lon="-0.93552">
        <ele>52.547</ele>
        <time>2020-07-19T09:14:13Z</time>
      </trkpt>
      <trkpt lat="47.3967" lon="-0.93552">
        <ele>52.581</ele>
        <time>2020-07-19T09:14:14Z</time>
      </trkpt>
      <trkpt lat="47.3967" lon="-0.93552">
        <ele>52.635</ele>
        <time>2020-07-19T09:14:15Z</time>
      </trkpt>
      <trkpt lat="47.3967" lon="-0.93552">
        <ele>52.575</ele>
        <time>2020-07-19T09:14:16Z</time>
      </trkpt>
      <trkpt lat="47.3967" lon="-0.93552">
        <ele>52.939</ele>
        <time>2020-07-19T09:14:17Z</time>
      </trkpt>
      <trkpt lat="47.3967" lon="-0.93552">
        <ele>53.628</ele>
        <time>2020-07-19T09:14:18Z</time>
      </trkpt>
      <trkpt lat="47.39669" lon="-0.93554">
        <ele>53.341</ele>
        <time>2020-07-19T09:14:19Z</time>
      </trkpt>
      <trkpt lat="47.39669" lon="-0.93555">
        <ele>55.144</ele>
        <time>2020-07-19T09:14:20Z</time>
      </trkpt>
      <trkpt lat="47.39669" lon="-0.93557">
        <ele>56.466</ele>
        <time>2020-07-19T09:14:21Z</time>
      </trkpt>
      <trkpt lat="47.39669" lon="-0.93558">
        <ele>56.869</ele>
        <time>2020-07-19T09:14:22Z</time>
      </trkpt>
      <trkpt lat="47.39668" lon="-0.93559">
        <ele>56.619</ele>
        <time>2020-07-19T09:14:23Z</time>
      </trkpt>
      <trkpt lat="47.39668" lon="-0.93559">
        <ele>55.867</ele>
        <time>2020-07-19T09:14:24Z</time>
      </trkpt>
      <trkpt lat="47.39668" lon="-0.9356">
        <ele>55.669</ele>
        <time>2020-07-19T09:14:25Z</time>
      </trkpt>
      <trkpt lat="47.39668" lon="-0.9356">
        <ele>55.511</ele>
        <time>2020-07-19T09:14:26Z</time>
      </trkpt>
      <trkpt lat="47.39668" lon="-0.9356">
        <ele>54.883</ele>
        <time>2020-07-19T09:14:27Z</time>
      </trkpt>
      <trkpt lat="47.39668" lon="-0.9356">
        <ele>54.802</ele>
        <time>2020-07-19T09:14:28Z</time>
      </trkpt>
      <trkpt lat="47.39668" lon="-0.9356">
        <ele>54.995</ele>
        <time>2020-07-19T09:14:29Z</time>
      </trkpt>
      <trkpt lat="47.39668" lon="-0.9356">
        <ele>55.174</ele>
        <time>2020-07-19T09:14:30Z</time>
      </trkpt>
      <trkpt lat="47.39668" lon="-0.9356">
        <ele>55.382</ele>
        <time>2020-07-19T09:14:31Z</time>
      </trkpt>
      <trkpt lat="47.39668" lon="-0.9356">
        <ele>55.601</ele>
        <time>2020-07-19T09:14:32Z</time>
      </trkpt>
      <trkpt lat="47.39667" lon="-0.9356">
        <ele>55.934</ele>
        <time>2020-07-19T09:14:33Z</time>
      </trkpt>
      <trkpt lat="47.39667" lon="-0.93561">
        <ele>56.481</ele>
        <time>2020-07-19T09:14:34Z</time>
      </trkpt>
      <trkpt lat="47.39666" lon="-0.93561">
        <ele>56.539</ele>
        <time>2020-07-19T09:14:35Z</time>
      </trkpt>
      <trkpt lat="47.39666" lon="-0.93561">
        <ele>56.915</ele>
        <time>2020-07-19T09:14:36Z</time>
      </trkpt>
      <trkpt lat="47.39666" lon="-0.93561">
        <ele>56.892</ele>
        <time>2020-07-19T09:14:37Z</time>
      </trkpt>
      <trkpt lat="47.39666" lon="-0.93561">
        <ele>56.701</ele>
        <time>2020-07-19T09:14:38Z</time>
      </trkpt>
      <trkpt lat="47.39666" lon="-0.93561">
        <ele>56.665</ele>
        <time>2020-07-19T09:14:39Z</time>
      </trkpt>
      <trkpt lat="47.39667" lon="-0.93561">
        <ele>56.835</ele>
        <time>2020-07-19T09:14:40Z</time>
      </trkpt>
      <trkpt lat="47.39667" lon="-0.93561">
        <ele>57.044</ele>
        <time>2020-07-19T09:14:41Z</time>
      </trkpt>
      <trkpt lat="47.39667" lon="-0.93561">
        <ele>56.613</ele>
        <time>2020-07-19T09:14:42Z</time>
      </trkpt>
      <trkpt lat="47.39667" lon="-0.93562">
        <ele>56.434</ele>
        <time>2020-07-19T09:14:43Z</time>
      </trkpt>
      <trkpt lat="47.39667" lon="-0.93562">
        <ele>56.47</ele>
        <time>2020-07-19T09:14:44Z</time>
      </trkpt>
      <trkpt lat="47.39666" lon="-0.93562">
        <ele>57.097</ele>
        <time>2020-07-19T09:14:45Z</time>
      </trkpt>
      <trkpt lat="47.39666" lon="-0.93562">
        <ele>56.802</ele>
        <time>2020-07-19T09:14:46Z</time>
      </trkpt>
      <trkpt lat="47.39665" lon="-0.93565">
        <ele>57.9</ele>
        <time>2020-07-19T09:14:49Z</time>
      </trkpt>
      <trkpt lat="47.39664" lon="-0.93567">
        <ele>58.672</ele>
        <time>2020-07-19T09:14:50Z</time>
      </trkpt>
      <trkpt lat="47.39663" lon="-0.93569">
        <ele>56.819</ele>
        <time>2020-07-19T09:14:51Z</time>
      </trkpt>
      <trkpt lat="47.39662" lon="-0.93572">
        <ele>56.88</ele>
        <time>2020-07-19T09:14:52Z</time>
      </trkpt>
      <trkpt lat="47.39661" lon="-0.93574">
        <ele>56.16</ele>
        <time>2020-07-19T09:14:53Z</time>
      </trkpt>
      <trkpt lat="47.3966" lon="-0.93577">
        <ele>55.417</ele>
        <time>2020-07-19T09:14:54Z</time>
      </trkpt>
      <trkpt lat="47.39658" lon="-0.9358">
        <ele>56.11</ele>
        <time>2020-07-19T09:14:55Z</time>
      </trkpt>
      <trkpt lat="47.39656" lon="-0.93584">
        <ele>55.716</ele>
        <time>2020-07-19T09:14:56Z</time>
      </trkpt>
      <trkpt lat="47.39654" lon="-0.93588">
        <ele>56.346</ele>
        <time>2020-07-19T09:14:57Z</time>
      </trkpt>
      <trkpt lat="47.39652" lon="-0.9359">
        <ele>52.374</ele>
        <time>2020-07-19T09:14:58Z</time>
      </trkpt>
      <trkpt lat="47.39651" lon="-0.93593">
        <ele>52.52</ele>
        <time>2020-07-19T09:14:59Z</time>
      </trkpt>
      <trkpt lat="47.39649" lon="-0.93596">
        <ele>53.669</ele>
        <time>2020-07-19T09:15:00Z</time>
      </trkpt>
      <trkpt lat="47.39647" lon="-0.93599">
        <ele>53.712</ele>
        <time>2020-07-19T09:15:01Z</time>
      </trkpt>
      <trkpt lat="47.39645" lon="-0.93602">
        <ele>55.22</ele>
        <time>2020-07-19T09:15:02Z</time>
      </trkpt>
      <trkpt lat="47.39643" lon="-0.93606">
        <ele>67.559</ele>
        <time>2020-07-19T09:15:03Z</time>
      </trkpt>
      <trkpt lat="47.39642" lon="-0.93609">
        <ele>64.523</ele>
        <time>2020-07-19T09:15:04Z</time>
      </trkpt>
      <trkpt lat="47.3964" lon="-0.93613">
        <ele>61.524</ele>
        <time>2020-07-19T09:15:05Z</time>
      </trkpt>
      <trkpt lat="47.39638" lon="-0.93616">
        <ele>59.988</ele>
        <time>2020-07-19T09:15:06Z</time>
      </trkpt>
      <trkpt lat="47.39636" lon="-0.9362">
        <ele>58.717</ele>
        <time>2020-07-19T09:15:07Z</time>
      </trkpt>
      <trkpt lat="47.39634" lon="-0.93625">
        <ele>56.84</ele>
        <time>2020-07-19T09:15:08Z</time>
      </trkpt>
      <trkpt lat="47.39633" lon="-0.93629">
        <ele>54.602</ele>
        <time>2020-07-19T09:15:09Z</time>
      </trkpt>
      <trkpt lat="47.39631" lon="-0.93633">
        <ele>54.329</ele>
        <time>2020-07-19T09:15:10Z</time>
      </trkpt>
      <trkpt lat="47.39629" lon="-0.93638">
        <ele>54.472</ele>
        <time>2020-07-19T09:15:11Z</time>
      </trkpt>
      <trkpt lat="47.39627" lon="-0.93643">
        <ele>53.829</ele>
        <time>2020-07-19T09:15:12Z</time>
      </trkpt>
      <trkpt lat="47.39625" lon="-0.93647">
        <ele>54.41</ele>
        <time>2020-07-19T09:15:13Z</time>
      </trkpt>
      <trkpt lat="47.39622" lon="-0.93653">
        <ele>54.6</ele>
        <time>2020-07-19T09:15:14Z</time>
      </trkpt>
      <trkpt lat="47.3962" lon="-0.93658">
        <ele>64.286</ele>
        <time>2020-07-19T09:15:15Z</time>
      </trkpt>
      <trkpt lat="47.39617" lon="-0.93663">
        <ele>61.951</ele>
        <time>2020-07-19T09:15:16Z</time>
      </trkpt>
      <trkpt lat="47.39615" lon="-0.93668">
        <ele>60.033</ele>
        <time>2020-07-19T09:15:17Z</time>
      </trkpt>
      <trkpt lat="47.39612" lon="-0.93673">
        <ele>66.047</ele>
        <time>2020-07-19T09:15:18Z</time>
      </trkpt>
      <trkpt lat="47.3961" lon="-0.93678">
        <ele>63.097</ele>
        <time>2020-07-19T09:15:19Z</time>
      </trkpt>
      <trkpt lat="47.39608" lon="-0.93683">
        <ele>59.728</ele>
        <time>2020-07-19T09:15:20Z</time>
      </trkpt>
      <trkpt lat="47.39606" lon="-0.93688">
        <ele>57.761</ele>
        <time>2020-07-19T09:15:21Z</time>
      </trkpt>
      <trkpt lat="47.39604" lon="-0.93694">
        <ele>56.259</ele>
        <time>2020-07-19T09:15:22Z</time>
      </trkpt>
      <trkpt lat="47.39602" lon="-0.93699">
        <ele>55.682</ele>
        <time>2020-07-19T09:15:23Z</time>
      </trkpt>
      <trkpt lat="47.39601" lon="-0.93705">
        <ele>55.287</ele>
        <time>2020-07-19T09:15:24Z</time>
      </trkpt>
      <trkpt lat="47.39599" lon="-0.93711">
        <ele>54.449</ele>
        <time>2020-07-19T09:15:25Z</time>
      </trkpt>
      <trkpt lat="47.39597" lon="-0.93716">
        <ele>53.954</ele>
        <time>2020-07-19T09:15:26Z</time>
      </trkpt>
      <trkpt lat="47.39594" lon="-0.93721">
        <ele>53.926</ele>
        <time>2020-07-19T09:15:27Z</time>
      </trkpt>
      <trkpt lat="47.39592" lon="-0.93726">
        <ele>53.607</ele>
        <time>2020-07-19T09:15:28Z</time>
      </trkpt>
      <trkpt lat="47.39589" lon="-0.93731">
        <ele>53.789</ele>
        <time>2020-07-19T09:15:29Z</time>
      </trkpt>
      <trkpt lat="47.39586" lon="-0.93736">
        <ele>54.233</ele>
        <time>2020-07-19T09:15:30Z</time>
      </trkpt>
      <trkpt lat="47.39583" lon="-0.93741">
        <ele>54.491</ele>
        <time>2020-07-19T09:15:31Z</time>
      </trkpt>
      <trkpt lat="47.3958" lon="-0.93746">
        <ele>56.53</ele>
        <time>2020-07-19T09:15:32Z</time>
      </trkpt>
      <trkpt lat="47.39578" lon="-0.93751">
        <ele>56.058</ele>
        <time>2020-07-19T09:15:33Z</time>
      </trkpt>
      <trkpt lat="47.39575" lon="-0.93757">
        <ele>55.615</ele>
        <time>2020-07-19T09:15:34Z</time>
      </trkpt>
      <trkpt lat="47.39573" lon="-0.93763">
        <ele>55.584</ele>
        <time>2020-07-19T09:15:35Z</time>
      </trkpt>
      <trkpt lat="47.39571" lon="-0.93768">
        <ele>55.406</ele>
        <time>2020-07-19T09:15:36Z</time>
      </trkpt>
      <trkpt lat="47.39568" lon="-0.93773">
        <ele>55.65</ele>
        <time>2020-07-19T09:15:37Z</time>
      </trkpt>
      <trkpt lat="47.39566" lon="-0.93778">
        <ele>55.146</ele>
        <time>2020-07-19T09:15:38Z</time>
      </trkpt>
      <trkpt lat="47.39563" lon="-0.93783">
        <ele>56.119</ele>
        <time>2020-07-19T09:15:39Z</time>
      </trkpt>
      <trkpt lat="47.39561" lon="-0.93788">
        <ele>55.258</ele>
        <time>2020-07-19T09:15:40Z</time>
      </trkpt>
      <trkpt lat="47.39559" lon="-0.93793">
        <ele>54.956</ele>
        <time>2020-07-19T09:15:41Z</time>
      </trkpt>
      <trkpt lat="47.39557" lon="-0.93799">
        <ele>55.644</ele>
        <time>2020-07-19T09:15:42Z</time>
      </trkpt>
      <trkpt lat="47.39556" lon="-0.93804">
        <ele>55.366</ele>
        <time>2020-07-19T09:15:43Z</time>
      </trkpt>
      <trkpt lat="47.39554" lon="-0.93809">
        <ele>55.504</ele>
        <time>2020-07-19T09:15:44Z</time>
      </trkpt>
      <trkpt lat="47.39553" lon="-0.93814">
        <ele>55.947</ele>
        <time>2020-07-19T09:15:45Z</time>
      </trkpt>
      <trkpt lat="47.39552" lon="-0.9382">
        <ele>55.766</ele>
        <time>2020-07-19T09:15:46Z</time>
      </trkpt>
      <trkpt lat="47.39551" lon="-0.93825">
        <ele>55.555</ele>
        <time>2020-07-19T09:15:47Z</time>
      </trkpt>
      <trkpt lat="47.39549" lon="-0.93832">
        <ele>66.694</ele>
        <time>2020-07-19T09:15:48Z</time>
      </trkpt>
      <trkpt lat="47.39547" lon="-0.93838">
        <ele>64.326</ele>
        <time>2020-07-19T09:15:49Z</time>
      </trkpt>
      <trkpt lat="47.39544" lon="-0.93844">
        <ele>62.366</ele>
        <time>2020-07-19T09:15:50Z</time>
      </trkpt>
      <trkpt lat="47.39541" lon="-0.93851">
        <ele>60.518</ele>
        <time>2020-07-19T09:15:51Z</time>
      </trkpt>
      <trkpt lat="47.39537" lon="-0.93855">
        <ele>58.434</ele>
        <time>2020-07-19T09:15:52Z</time>
      </trkpt>
      <trkpt lat="47.39535" lon="-0.9386">
        <ele>55.903</ele>
        <time>2020-07-19T09:15:53Z</time>
      </trkpt>
      <trkpt lat="47.39531" lon="-0.93866">
        <ele>55.731</ele>
        <time>2020-07-19T09:15:54Z</time>
      </trkpt>
      <trkpt lat="47.39528" lon="-0.93873">
        <ele>55.467</ele>
        <time>2020-07-19T09:15:55Z</time>
      </trkpt>
      <trkpt lat="47.39524" lon="-0.93878">
        <ele>55.463</ele>
        <time>2020-07-19T09:15:56Z</time>
      </trkpt>
      <trkpt lat="47.39521" lon="-0.93883">
        <ele>54.96</ele>
        <time>2020-07-19T09:15:57Z</time>
      </trkpt>
      <trkpt lat="47.39517" lon="-0.93887">
        <ele>55.467</ele>
        <time>2020-07-19T09:15:58Z</time>
      </trkpt>
      <trkpt lat="47.39514" lon="-0.93893">
        <ele>55.479</ele>
        <time>2020-07-19T09:15:59Z</time>
      </trkpt>
      <trkpt lat="47.39511" lon="-0.939">
        <ele>55.113</ele>
        <time>2020-07-19T09:16:00Z</time>
      </trkpt>
      <trkpt lat="47.39506" lon="-0.93905">
        <ele>54.848</ele>
        <time>2020-07-19T09:16:01Z</time>
      </trkpt>
      <trkpt lat="47.39502" lon="-0.9391">
        <ele>55.344</ele>
        <time>2020-07-19T09:16:02Z</time>
      </trkpt>
      <trkpt lat="47.39498" lon="-0.93915">
        <ele>63.957</ele>
        <time>2020-07-19T09:16:03Z</time>
      </trkpt>
      <trkpt lat="47.39495" lon="-0.9392">
        <ele>60.497</ele>
        <time>2020-07-19T09:16:04Z</time>
      </trkpt>
      <trkpt lat="47.39491" lon="-0.93925">
        <ele>58.753</ele>
        <time>2020-07-19T09:16:05Z</time>
      </trkpt>
      <trkpt lat="47.39485" lon="-0.93931">
        <ele>58.38</ele>
        <time>2020-07-19T09:16:06Z</time>
      </trkpt>
      <trkpt lat="47.39481" lon="-0.93936">
        <ele>57.259</ele>
        <time>2020-07-19T09:16:07Z</time>
      </trkpt>
      <trkpt lat="47.39477" lon="-0.9394">
        <ele>56.53</ele>
        <time>2020-07-19T09:16:08Z</time>
      </trkpt>
      <trkpt lat="47.39473" lon="-0.93945">
        <ele>56.157</ele>
        <time>2020-07-19T09:16:09Z</time>
      </trkpt>
      <trkpt lat="47.39469" lon="-0.9395">
        <ele>55.714</ele>
        <time>2020-07-19T09:16:10Z</time>
      </trkpt>
      <trkpt lat="47.39465" lon="-0.93955">
        <ele>55.998</ele>
        <time>2020-07-19T09:16:11Z</time>
      </trkpt>
      <trkpt lat="47.39463" lon="-0.93958">
        <ele>55.804</ele>
        <time>2020-07-19T09:16:12Z</time>
      </trkpt>
      <trkpt lat="47.39458" lon="-0.9396">
        <ele>56.013</ele>
        <time>2020-07-19T09:16:13Z</time>
      </trkpt>
      <trkpt lat="47.39454" lon="-0.93964">
        <ele>55.354</ele>
        <time>2020-07-19T09:16:14Z</time>
      </trkpt>
      <trkpt lat="47.3945" lon="-0.93967">
        <ele>54.952</ele>
        <time>2020-07-19T09:16:15Z</time>
      </trkpt>
      <trkpt lat="47.3945" lon="-0.93973">
        <ele>54.141</ele>
        <time>2020-07-19T09:16:16Z</time>
      </trkpt>
      <trkpt lat="47.39447" lon="-0.93976">
        <ele>55.346</ele>
        <time>2020-07-19T09:16:17Z</time>
      </trkpt>
      <trkpt lat="47.39444" lon="-0.93979">
        <ele>55.64</ele>
        <time>2020-07-19T09:16:18Z</time>
      </trkpt>
      <trkpt lat="47.39442" lon="-0.93981">
        <ele>55.926</ele>
        <time>2020-07-19T09:16:19Z</time>
      </trkpt>
      <trkpt lat="47.39442" lon="-0.93984">
        <ele>54.541</ele>
        <time>2020-07-19T09:16:20Z</time>
      </trkpt>
      <trkpt lat="47.39441" lon="-0.93984">
        <ele>56.114</ele>
        <time>2020-07-19T09:16:21Z</time>
      </trkpt>
      <trkpt lat="47.39441" lon="-0.93984">
        <ele>56.242</ele>
        <time>2020-07-19T09:16:22Z</time>
      </trkpt>
      <trkpt lat="47.3944" lon="-0.93984">
        <ele>56.092</ele>
        <time>2020-07-19T09:16:23Z</time>
      </trkpt>
      <trkpt lat="47.3944" lon="-0.93984">
        <ele>56.721</ele>
        <time>2020-07-19T09:16:24Z</time>
      </trkpt>
      <trkpt lat="47.3944" lon="-0.93984">
        <ele>56.766</ele>
        <time>2020-07-19T09:16:25Z</time>
      </trkpt>
      <trkpt lat="47.3944" lon="-0.93985">
        <ele>56.947</ele>
        <time>2020-07-19T09:16:26Z</time>
      </trkpt>
      <trkpt lat="47.3944" lon="-0.93984">
        <ele>57.089</ele>
        <time>2020-07-19T09:16:27Z</time>
      </trkpt>
      <trkpt lat="47.3944" lon="-0.93984">
        <ele>57.409</ele>
        <time>2020-07-19T09:16:28Z</time>
      </trkpt>
      <trkpt lat="47.3944" lon="-0.93984">
        <ele>57.112</ele>
        <time>2020-07-19T09:16:29Z</time>
      </trkpt>
      <trkpt lat="47.39439" lon="-0.93985">
        <ele>56.676</ele>
        <time>2020-07-19T09:16:30Z</time>
      </trkpt>
      <trkpt lat="47.39438" lon="-0.93986">
        <ele>56.462</ele>
        <time>2020-07-19T09:16:31Z</time>
      </trkpt>
      <trkpt lat="47.39437" lon="-0.93987">
        <ele>56.3</ele>
        <time>2020-07-19T09:16:32Z</time>
      </trkpt>
      <trkpt lat="47.39435" lon="-0.93989">
        <ele>56.974</ele>
        <time>2020-07-19T09:16:33Z</time>
      </trkpt>
      <trkpt lat="47.39432" lon="-0.93991">
        <ele>57.474</ele>
        <time>2020-07-19T09:16:34Z</time>
      </trkpt>
      <trkpt lat="47.39429" lon="-0.93993">
        <ele>57.833</ele>
        <time>2020-07-19T09:16:35Z</time>
      </trkpt>
      <trkpt lat="47.39426" lon="-0.93995">
        <ele>57.704</ele>
        <time>2020-07-19T09:16:36Z</time>
      </trkpt>
      <trkpt lat="47.39423" lon="-0.93996">
        <ele>57.342</ele>
        <time>2020-07-19T09:16:37Z</time>
      </trkpt>
      <trkpt lat="47.39419" lon="-0.93998">
        <ele>57.448</ele>
        <time>2020-07-19T09:16:38Z</time>
      </trkpt>
      <trkpt lat="47.39415" lon="-0.94">
        <ele>57.136</ele>
        <time>2020-07-19T09:16:39Z</time>
      </trkpt>
      <trkpt lat="47.39412" lon="-0.94002">
        <ele>56.997</ele>
        <time>2020-07-19T09:16:40Z</time>
      </trkpt>
      <trkpt lat="47.39408" lon="-0.94005">
        <ele>56.159</ele>
        <time>2020-07-19T09:16:41Z</time>
      </trkpt>
      <trkpt lat="47.39405" lon="-0.94008">
        <ele>57.409</ele>
        <time>2020-07-19T09:16:42Z</time>
      </trkpt>
      <trkpt lat="47.39401" lon="-0.94011">
        <ele>66.077</ele>
        <time>2020-07-19T09:16:43Z</time>
      </trkpt>
      <trkpt lat="47.39397" lon="-0.94015">
        <ele>65.473</ele>
        <time>2020-07-19T09:16:44Z</time>
      </trkpt>
      <trkpt lat="47.39393" lon="-0.94019">
        <ele>64.373</ele>
        <time>2020-07-19T09:16:45Z</time>
      </trkpt>
      <trkpt lat="47.39388" lon="-0.94023">
        <ele>63.591</ele>
        <time>2020-07-19T09:16:46Z</time>
      </trkpt>
      <trkpt lat="47.39386" lon="-0.94026">
        <ele>62.468</ele>
        <time>2020-07-19T09:16:47Z</time>
      </trkpt>
      <trkpt lat="47.39382" lon="-0.9403">
        <ele>62.004</ele>
        <time>2020-07-19T09:16:48Z</time>
      </trkpt>
      <trkpt lat="47.39379" lon="-0.94035">
        <ele>61.47</ele>
        <time>2020-07-19T09:16:49Z</time>
      </trkpt>
      <trkpt lat="47.39376" lon="-0.94039">
        <ele>60.293</ele>
        <time>2020-07-19T09:16:50Z</time>
      </trkpt>
      <trkpt lat="47.39372" lon="-0.94043">
        <ele>60.292</ele>
        <time>2020-07-19T09:16:51Z</time>
      </trkpt>
      <trkpt lat="47.39367" lon="-0.94046">
        <ele>60.402</ele>
        <time>2020-07-19T09:16:52Z</time>
      </trkpt>
      <trkpt lat="47.39365" lon="-0.94052">
        <ele>59.447</ele>
        <time>2020-07-19T09:16:53Z</time>
      </trkpt>
      <trkpt lat="47.39362" lon="-0.94055">
        <ele>58.087</ele>
        <time>2020-07-19T09:16:54Z</time>
      </trkpt>
      <trkpt lat="47.39359" lon="-0.94059">
        <ele>58.026</ele>
        <time>2020-07-19T09:16:55Z</time>
      </trkpt>
      <trkpt lat="47.39357" lon="-0.94063">
        <ele>58.177</ele>
        <time>2020-07-19T09:16:56Z</time>
      </trkpt>
      <trkpt lat="47.39355" lon="-0.94066">
        <ele>57.885</ele>
        <time>2020-07-19T09:16:57Z</time>
      </trkpt>
      <trkpt lat="47.39353" lon="-0.94069">
        <ele>57.833</ele>
        <time>2020-07-19T09:16:58Z</time>
      </trkpt>
      <trkpt lat="47.39349" lon="-0.9407">
        <ele>58.126</ele>
        <time>2020-07-19T09:16:59Z</time>
      </trkpt>
      <trkpt lat="47.39347" lon="-0.94073">
        <ele>57.75</ele>
        <time>2020-07-19T09:17:00Z</time>
      </trkpt>
      <trkpt lat="47.39346" lon="-0.94075">
        <ele>58.163</ele>
        <time>2020-07-19T09:17:01Z</time>
      </trkpt>
      <trkpt lat="47.39345" lon="-0.94075">
        <ele>58.446</ele>
        <time>2020-07-19T09:17:02Z</time>
      </trkpt>
      <trkpt lat="47.39345" lon="-0.94074">
        <ele>59.624</ele>
        <time>2020-07-19T09:17:03Z</time>
      </trkpt>
      <trkpt lat="47.39344" lon="-0.94074">
        <ele>59.922</ele>
        <time>2020-07-19T09:17:04Z</time>
      </trkpt>
      <trkpt lat="47.39345" lon="-0.94073">
        <ele>59.761</ele>
        <time>2020-07-19T09:17:05Z</time>
      </trkpt>
      <trkpt lat="47.39345" lon="-0.94073">
        <ele>59.903</ele>
        <time>2020-07-19T09:17:06Z</time>
      </trkpt>
      <trkpt lat="47.39345" lon="-0.94073">
        <ele>60.193</ele>
        <time>2020-07-19T09:17:07Z</time>
      </trkpt>
      <trkpt lat="47.39345" lon="-0.94073">
        <ele>60.613</ele>
        <time>2020-07-19T09:17:08Z</time>
      </trkpt>
      <trkpt lat="47.39345" lon="-0.94072">
        <ele>60.713</ele>
        <time>2020-07-19T09:17:09Z</time>
      </trkpt>
      <trkpt lat="47.39345" lon="-0.94072">
        <ele>60.555</ele>
        <time>2020-07-19T09:17:10Z</time>
      </trkpt>
      <trkpt lat="47.39345" lon="-0.94073">
        <ele>60.484</ele>
        <time>2020-07-19T09:17:11Z</time>
      </trkpt>
      <trkpt lat="47.39345" lon="-0.94073">
        <ele>83.448</ele>
        <time>2020-07-19T09:17:12Z</time>
      </trkpt>
      <trkpt lat="47.39345" lon="-0.94073">
        <ele>77.606</ele>
        <time>2020-07-19T09:17:13Z</time>
      </trkpt>
      <trkpt lat="47.39345" lon="-0.94073">
        <ele>72.687</ele>
        <time>2020-07-19T09:17:14Z</time>
      </trkpt>
      <trkpt lat="47.39345" lon="-0.94072">
        <ele>69.763</ele>
        <time>2020-07-19T09:17:15Z</time>
      </trkpt>
      <trkpt lat="47.39345" lon="-0.94072">
        <ele>67.167</ele>
        <time>2020-07-19T09:17:16Z</time>
      </trkpt>
      <trkpt lat="47.39345" lon="-0.94072">
        <ele>65.378</ele>
        <time>2020-07-19T09:17:17Z</time>
      </trkpt>
      <trkpt lat="47.39345" lon="-0.94072">
        <ele>63.905</ele>
        <time>2020-07-19T09:17:18Z</time>
      </trkpt>
      <trkpt lat="47.39345" lon="-0.94072">
        <ele>63.234</ele>
        <time>2020-07-19T09:17:19Z</time>
      </trkpt>
      <trkpt lat="47.39345" lon="-0.94072">
        <ele>62.684</ele>
        <time>2020-07-19T09:17:20Z</time>
      </trkpt>
      <trkpt lat="47.39345" lon="-0.94072">
        <ele>62.467</ele>
        <time>2020-07-19T09:17:21Z</time>
      </trkpt>
      <trkpt lat="47.39345" lon="-0.94072">
        <ele>62.277</ele>
        <time>2020-07-19T09:17:22Z</time>
      </trkpt>
      <trkpt lat="47.39345" lon="-0.94072">
        <ele>62.069</ele>
        <time>2020-07-19T09:17:23Z</time>
      </trkpt>
      <trkpt lat="47.39345" lon="-0.94072">
        <ele>61.811</ele>
        <time>2020-07-19T09:17:24Z</time>
      </trkpt>
      <trkpt lat="47.39345" lon="-0.94072">
        <ele>61.438</ele>
        <time>2020-07-19T09:17:25Z</time>
      </trkpt>
      <trkpt lat="47.39345" lon="-0.94072">
        <ele>61.431</ele>
        <time>2020-07-19T09:17:26Z</time>
      </trkpt>
      <trkpt lat="47.39345" lon="-0.94072">
        <ele>61.29</ele>
        <time>2020-07-19T09:17:27Z</time>
      </trkpt>
      <trkpt lat="47.39345" lon="-0.94072">
        <ele>61.25</ele>
        <time>2020-07-19T09:17:28Z</time>
      </trkpt>
      <trkpt lat="47.39345" lon="-0.94072">
        <ele>61.083</ele>
        <time>2020-07-19T09:17:29Z</time>
      </trkpt>
      <trkpt lat="47.39345" lon="-0.94072">
        <ele>60.963</ele>
        <time>2020-07-19T09:17:30Z</time>
      </trkpt>
      <trkpt lat="47.39345" lon="-0.94072">
        <ele>60.934</ele>
        <time>2020-07-19T09:17:31Z</time>
      </trkpt>
      <trkpt lat="47.39345" lon="-0.94072">
        <ele>60.838</ele>
        <time>2020-07-19T09:17:32Z</time>
      </trkpt>
      <trkpt lat="47.39345" lon="-0.94072">
        <ele>60.945</ele>
        <time>2020-07-19T09:17:33Z</time>
      </trkpt>
      <trkpt lat="47.39345" lon="-0.94072">
        <ele>60.972</ele>
        <time>2020-07-19T09:17:34Z</time>
      </trkpt>
      <trkpt lat="47.39345" lon="-0.94072">
        <ele>60.959</ele>
        <time>2020-07-19T09:17:35Z</time>
      </trkpt>
      <trkpt lat="47.39345" lon="-0.94072">
        <ele>60.876</ele>
        <time>2020-07-19T09:17:36Z</time>
      </trkpt>
      <trkpt lat="47.39345" lon="-0.94072">
        <ele>60.697</ele>
        <time>2020-07-19T09:17:37Z</time>
      </trkpt>
      <trkpt lat="47.39345" lon="-0.94072">
        <ele>60.661</ele>
        <time>2020-07-19T09:17:38Z</time>
      </trkpt>
      <trkpt lat="47.39345" lon="-0.94072">
        <ele>60.585</ele>
        <time>2020-07-19T09:17:39Z</time>
      </trkpt>
      <trkpt lat="47.39345" lon="-0.94072">
        <ele>60.523</ele>
        <time>2020-07-19T09:17:40Z</time>
      </trkpt>
      <trkpt lat="47.39345" lon="-0.94072">
        <ele>60.486</ele>
        <time>2020-07-19T09:17:41Z</time>
      </trkpt>
      <trkpt lat="47.39345" lon="-0.94072">
        <ele>60.474</ele>
        <time>2020-07-19T09:17:42Z</time>
      </trkpt>
      <trkpt lat="47.39345" lon="-0.94072">
        <ele>60.426</ele>
        <time>2020-07-19T09:17:43Z</time>
      </trkpt>
      <trkpt lat="47.39345" lon="-0.94072">
        <ele>60.418</ele>
        <time>2020-07-19T09:17:44Z</time>
      </trkpt>
      <trkpt lat="47.39345" lon="-0.94072">
        <ele>60.417</ele>
        <time>2020-07-19T09:17:45Z</time>
      </trkpt>
      <trkpt lat="47.39345" lon="-0.94072">
        <ele>60.407</ele>
        <time>2020-07-19T09:17:46Z</time>
      </trkpt>
      <trkpt lat="47.39345" lon="-0.94072">
        <ele>60.374</ele>
        <time>2020-07-19T09:17:47Z</time>
      </trkpt>
      <trkpt lat="47.39345" lon="-0.94072">
        <ele>60.372</ele>
        <time>2020-07-19T09:17:48Z</time>
      </trkpt>
      <trkpt lat="47.39345" lon="-0.94072">
        <ele>60.35</ele>
        <time>2020-07-19T09:17:49Z</time>
      </trkpt>
      <trkpt lat="47.39345" lon="-0.94072">
        <ele>60.351</ele>
        <time>2020-07-19T09:17:50Z</time>
      </trkpt>
      <trkpt lat="47.39345" lon="-0.94072">
        <ele>60.384</ele>
        <time>2020-07-19T09:17:51Z</time>
      </trkpt>
      <trkpt lat="47.39345" lon="-0.94072">
        <ele>60.381</ele>
        <time>2020-07-19T09:17:52Z</time>
      </trkpt>
      <trkpt lat="47.39345" lon="-0.94072">
        <ele>60.395</ele>
        <time>2020-07-19T09:17:53Z</time>
      </trkpt>
      <trkpt lat="47.39345" lon="-0.94072">
        <ele>60.416</ele>
        <time>2020-07-19T09:17:54Z</time>
      </trkpt>
      <trkpt lat="47.39345" lon="-0.94072">
        <ele>60.415</ele>
        <time>2020-07-19T09:17:55Z</time>
      </trkpt>
      <trkpt lat="47.39345" lon="-0.94072">
        <ele>60.42</ele>
        <time>2020-07-19T09:17:56Z</time>
      </trkpt>
      <trkpt lat="47.39345" lon="-0.94072">
        <ele>60.406</ele>
        <time>2020-07-19T09:17:57Z</time>
      </trkpt>
      <trkpt lat="47.39345" lon="-0.94072">
        <ele>60.39</ele>
        <time>2020-07-19T09:17:58Z</time>
      </trkpt>
      <trkpt lat="47.39345" lon="-0.94072">
        <ele>60.398</ele>
        <time>2020-07-19T09:17:59Z</time>
      </trkpt>
      <trkpt lat="47.39345" lon="-0.94072">
        <ele>60.392</ele>
        <time>2020-07-19T09:18:00Z</time>
      </trkpt>
      <trkpt lat="47.39345" lon="-0.94072">
        <ele>60.393</ele>
        <time>2020-07-19T09:18:01Z</time>
      </trkpt>
      <trkpt lat="47.39345" lon="-0.94072">
        <ele>60.407</ele>
        <time>2020-07-19T09:18:02Z</time>
      </trkpt>
      <trkpt lat="47.39344" lon="-0.94073">
        <ele>61.879</ele>
        <time>2020-07-19T09:18:03Z</time>
      </trkpt>
      <trkpt lat="47.39344" lon="-0.94074">
        <ele>60.269</ele>
        <time>2020-07-19T09:18:04Z</time>
      </trkpt>
      <trkpt lat="47.39343" lon="-0.94074">
        <ele>60.279</ele>
        <time>2020-07-19T09:18:05Z</time>
      </trkpt>
      <trkpt lat="47.39343" lon="-0.94074">
        <ele>59.152</ele>
        <time>2020-07-19T09:18:06Z</time>
      </trkpt>
      <trkpt lat="47.39342" lon="-0.94074">
        <ele>59.165</ele>
        <time>2020-07-19T09:18:07Z</time>
      </trkpt>
      <trkpt lat="47.39342" lon="-0.94074">
        <ele>59.75</ele>
        <time>2020-07-19T09:18:08Z</time>
      </trkpt>
      <trkpt lat="47.39342" lon="-0.94074">
        <ele>60.367</ele>
        <time>2020-07-19T09:18:09Z</time>
      </trkpt>
      <trkpt lat="47.39342" lon="-0.94075">
        <ele>60.317</ele>
        <time>2020-07-19T09:18:10Z</time>
      </trkpt>
      <trkpt lat="47.39341" lon="-0.94075">
        <ele>61.489</ele>
        <time>2020-07-19T09:18:11Z</time>
      </trkpt>
      <trkpt lat="47.39341" lon="-0.94076">
        <ele>61.234</ele>
        <time>2020-07-19T09:18:12Z</time>
      </trkpt>
      <trkpt lat="47.3934" lon="-0.94076">
        <ele>60.602</ele>
        <time>2020-07-19T09:18:13Z</time>
      </trkpt>
      <trkpt lat="47.39339" lon="-0.94076">
        <ele>59.858</ele>
        <time>2020-07-19T09:18:14Z</time>
      </trkpt>
      <trkpt lat="47.39338" lon="-0.94076">
        <ele>60.09</ele>
        <time>2020-07-19T09:18:15Z</time>
      </trkpt>
      <trkpt lat="47.39338" lon="-0.94075">
        <ele>60.08</ele>
        <time>2020-07-19T09:18:16Z</time>
      </trkpt>
      <trkpt lat="47.39337" lon="-0.94076">
        <ele>59.879</ele>
        <time>2020-07-19T09:18:17Z</time>
      </trkpt>
      <trkpt lat="47.39336" lon="-0.94077">
        <ele>58.737</ele>
        <time>2020-07-19T09:18:18Z</time>
      </trkpt>
      <trkpt lat="47.39336" lon="-0.94078">
        <ele>58.928</ele>
        <time>2020-07-19T09:18:19Z</time>
      </trkpt>
      <trkpt lat="47.39336" lon="-0.94079">
        <ele>59.147</ele>
        <time>2020-07-19T09:18:20Z</time>
      </trkpt>
      <trkpt lat="47.39336" lon="-0.94079">
        <ele>59.004</ele>
        <time>2020-07-19T09:18:21Z</time>
      </trkpt>
      <trkpt lat="47.39336" lon="-0.94079">
        <ele>58.752</ele>
        <time>2020-07-19T09:18:22Z</time>
      </trkpt>
      <trkpt lat="47.39336" lon="-0.94079">
        <ele>55.546</ele>
        <time>2020-07-19T09:18:23Z</time>
      </trkpt>
      <trkpt lat="47.39337" lon="-0.94078">
        <ele>56.451</ele>
        <time>2020-07-19T09:18:24Z</time>
      </trkpt>
      <trkpt lat="47.39337" lon="-0.94078">
        <ele>56.517</ele>
        <time>2020-07-19T09:18:25Z</time>
      </trkpt>
      <trkpt lat="47.39337" lon="-0.94078">
        <ele>56.949</ele>
        <time>2020-07-19T09:18:26Z</time>
      </trkpt>
      <trkpt lat="47.39337" lon="-0.94078">
        <ele>57.379</ele>
        <time>2020-07-19T09:18:27Z</time>
      </trkpt>
      <trkpt lat="47.39337" lon="-0.94078">
        <ele>57.662</ele>
        <time>2020-07-19T09:18:28Z</time>
      </trkpt>
      <trkpt lat="47.39337" lon="-0.94078">
        <ele>57.848</ele>
        <time>2020-07-19T09:18:29Z</time>
      </trkpt>
      <trkpt lat="47.39337" lon="-0.94078">
        <ele>57.919</ele>
        <time>2020-07-19T09:18:30Z</time>
      </trkpt>
      <trkpt lat="47.39337" lon="-0.94078">
        <ele>58.047</ele>
        <time>2020-07-19T09:18:31Z</time>
      </trkpt>
      <trkpt lat="47.39337" lon="-0.94078">
        <ele>58.108</ele>
        <time>2020-07-19T09:18:32Z</time>
      </trkpt>
      <trkpt lat="47.39337" lon="-0.94078">
        <ele>58.196</ele>
        <time>2020-07-19T09:18:33Z</time>
      </trkpt>
      <trkpt lat="47.39337" lon="-0.94078">
        <ele>58.621</ele>
        <time>2020-07-19T09:18:34Z</time>
      </trkpt>
      <trkpt lat="47.39337" lon="-0.94078">
        <ele>59.484</ele>
        <time>2020-07-19T09:18:35Z</time>
      </trkpt>
      <trkpt lat="47.39337" lon="-0.94078">
        <ele>59.638</ele>
        <time>2020-07-19T09:18:36Z</time>
      </trkpt>
      <trkpt lat="47.39337" lon="-0.94079">
        <ele>59.994</ele>
        <time>2020-07-19T09:18:37Z</time>
      </trkpt>
      <trkpt lat="47.39337" lon="-0.94079">
        <ele>60.136</ele>
        <time>2020-07-19T09:18:38Z</time>
      </trkpt>
      <trkpt lat="47.39337" lon="-0.94079">
        <ele>59.969</ele>
        <time>2020-07-19T09:18:39Z</time>
      </trkpt>
      <trkpt lat="47.39337" lon="-0.94079">
        <ele>59.77</ele>
        <time>2020-07-19T09:18:40Z</time>
      </trkpt>
      <trkpt lat="47.39337" lon="-0.94079">
        <ele>59.682</ele>
        <time>2020-07-19T09:18:41Z</time>
      </trkpt>
      <trkpt lat="47.39337" lon="-0.94079">
        <ele>59.24</ele>
        <time>2020-07-19T09:18:42Z</time>
      </trkpt>
      <trkpt lat="47.39337" lon="-0.94078">
        <ele>59.14</ele>
        <time>2020-07-19T09:18:43Z</time>
      </trkpt>
      <trkpt lat="47.39336" lon="-0.94078">
        <ele>58.728</ele>
        <time>2020-07-19T09:18:44Z</time>
      </trkpt>
      <trkpt lat="47.39337" lon="-0.94078">
        <ele>58.049</ele>
        <time>2020-07-19T09:18:45Z</time>
      </trkpt>
      <trkpt lat="47.39336" lon="-0.94078">
        <ele>58.632</ele>
        <time>2020-07-19T09:18:46Z</time>
      </trkpt>
      <trkpt lat="47.39336" lon="-0.94078">
        <ele>58.925</ele>
        <time>2020-07-19T09:18:47Z</time>
      </trkpt>
      <trkpt lat="47.39336" lon="-0.94078">
        <ele>59.153</ele>
        <time>2020-07-19T09:18:48Z</time>
      </trkpt>
      <trkpt lat="47.39336" lon="-0.94079">
        <ele>59.18</ele>
        <time>2020-07-19T09:18:49Z</time>
      </trkpt>
      <trkpt lat="47.39336" lon="-0.94079">
        <ele>60.161</ele>
        <time>2020-07-19T09:18:50Z</time>
      </trkpt>
      <trkpt lat="47.39335" lon="-0.9408">
        <ele>60.647</ele>
        <time>2020-07-19T09:18:51Z</time>
      </trkpt>
      <trkpt lat="47.39333" lon="-0.94081">
        <ele>60.421</ele>
        <time>2020-07-19T09:18:52Z</time>
      </trkpt>
      <trkpt lat="47.39331" lon="-0.94082">
        <ele>60.838</ele>
        <time>2020-07-19T09:18:53Z</time>
      </trkpt>
      <trkpt lat="47.39329" lon="-0.94084">
        <ele>60.505</ele>
        <time>2020-07-19T09:18:54Z</time>
      </trkpt>
      <trkpt lat="47.39328" lon="-0.94085">
        <ele>60.77</ele>
        <time>2020-07-19T09:18:55Z</time>
      </trkpt>
      <trkpt lat="47.39326" lon="-0.94087">
        <ele>61.387</ele>
        <time>2020-07-19T09:18:56Z</time>
      </trkpt>
      <trkpt lat="47.39323" lon="-0.94088">
        <ele>61.893</ele>
        <time>2020-07-19T09:18:57Z</time>
      </trkpt>
      <trkpt lat="47.39321" lon="-0.94089">
        <ele>62.199</ele>
        <time>2020-07-19T09:18:58Z</time>
      </trkpt>
      <trkpt lat="47.39321" lon="-0.9409">
        <ele>60.561</ele>
        <time>2020-07-19T09:18:59Z</time>
      </trkpt>
      <trkpt lat="47.3932" lon="-0.9409">
        <ele>60.98</ele>
        <time>2020-07-19T09:19:00Z</time>
      </trkpt>
      <trkpt lat="47.3932" lon="-0.9409">
        <ele>60.849</ele>
        <time>2020-07-19T09:19:01Z</time>
      </trkpt>
      <trkpt lat="47.39321" lon="-0.9409">
        <ele>60.137</ele>
        <time>2020-07-19T09:19:02Z</time>
      </trkpt>
      <trkpt lat="47.39322" lon="-0.9409">
        <ele>59.276</ele>
        <time>2020-07-19T09:19:03Z</time>
      </trkpt>
      <trkpt lat="47.39322" lon="-0.9409">
        <ele>58.835</ele>
        <time>2020-07-19T09:19:04Z</time>
      </trkpt>
      <trkpt lat="47.39322" lon="-0.9409">
        <ele>58.49</ele>
        <time>2020-07-19T09:19:05Z</time>
      </trkpt>
      <trkpt lat="47.39322" lon="-0.9409">
        <ele>58.508</ele>
        <time>2020-07-19T09:19:06Z</time>
      </trkpt>
      <trkpt lat="47.39322" lon="-0.94089">
        <ele>58.509</ele>
        <time>2020-07-19T09:19:07Z</time>
      </trkpt>
      <trkpt lat="47.39322" lon="-0.94089">
        <ele>58.14</ele>
        <time>2020-07-19T09:19:08Z</time>
      </trkpt>
      <trkpt lat="47.39322" lon="-0.94089">
        <ele>58.465</ele>
        <time>2020-07-19T09:19:09Z</time>
      </trkpt>
      <trkpt lat="47.39321" lon="-0.9409">
        <ele>58.525</ele>
        <time>2020-07-19T09:19:10Z</time>
      </trkpt>
      <trkpt lat="47.3932" lon="-0.9409">
        <ele>57.089</ele>
        <time>2020-07-19T09:19:11Z</time>
      </trkpt>
      <trkpt lat="47.39318" lon="-0.94092">
        <ele>57.661</ele>
        <time>2020-07-19T09:19:12Z</time>
      </trkpt>
      <trkpt lat="47.39316" lon="-0.94095">
        <ele>56.606</ele>
        <time>2020-07-19T09:19:13Z</time>
      </trkpt>
      <trkpt lat="47.39315" lon="-0.94099">
        <ele>56.55</ele>
        <time>2020-07-19T09:19:14Z</time>
      </trkpt>
      <trkpt lat="47.39315" lon="-0.94103">
        <ele>56.649</ele>
        <time>2020-07-19T09:19:15Z</time>
      </trkpt>
      <trkpt lat="47.39315" lon="-0.94107">
        <ele>57.04</ele>
        <time>2020-07-19T09:19:16Z</time>
      </trkpt>
      <trkpt lat="47.39314" lon="-0.94111">
        <ele>56.394</ele>
        <time>2020-07-19T09:19:17Z</time>
      </trkpt>
      <trkpt lat="47.39313" lon="-0.94114">
        <ele>56.048</ele>
        <time>2020-07-19T09:19:18Z</time>
      </trkpt>
      <trkpt lat="47.3931" lon="-0.94114">
        <ele>55.462</ele>
        <time>2020-07-19T09:19:19Z</time>
      </trkpt>
      <trkpt lat="47.39307" lon="-0.94114">
        <ele>56.024</ele>
        <time>2020-07-19T09:19:20Z</time>
      </trkpt>
      <trkpt lat="47.39304" lon="-0.94113">
        <ele>56.815</ele>
        <time>2020-07-19T09:19:21Z</time>
      </trkpt>
      <trkpt lat="47.393" lon="-0.94111">
        <ele>56.833</ele>
        <time>2020-07-19T09:19:22Z</time>
      </trkpt>
      <trkpt lat="47.39296" lon="-0.94111">
        <ele>56.569</ele>
        <time>2020-07-19T09:19:23Z</time>
      </trkpt>
      <trkpt lat="47.39293" lon="-0.94113">
        <ele>55.514</ele>
        <time>2020-07-19T09:19:24Z</time>
      </trkpt>
      <trkpt lat="47.39289" lon="-0.94116">
        <ele>56.197</ele>
        <time>2020-07-19T09:19:25Z</time>
      </trkpt>
      <trkpt lat="47.39286" lon="-0.94119">
        <ele>54.789</ele>
        <time>2020-07-19T09:19:26Z</time>
      </trkpt>
      <trkpt lat="47.39283" lon="-0.94121">
        <ele>51.549</ele>
        <time>2020-07-19T09:19:27Z</time>
      </trkpt>
      <trkpt lat="47.3928" lon="-0.94124">
        <ele>51.661</ele>
        <time>2020-07-19T09:19:28Z</time>
      </trkpt>
      <trkpt lat="47.39277" lon="-0.94127">
        <ele>52.87</ele>
        <time>2020-07-19T09:19:29Z</time>
      </trkpt>
      <trkpt lat="47.39274" lon="-0.9413">
        <ele>53.161</ele>
        <time>2020-07-19T09:19:30Z</time>
      </trkpt>
      <trkpt lat="47.3927" lon="-0.94133">
        <ele>52.374</ele>
        <time>2020-07-19T09:19:31Z</time>
      </trkpt>
      <trkpt lat="47.39267" lon="-0.94137">
        <ele>52.117</ele>
        <time>2020-07-19T09:19:32Z</time>
      </trkpt>
      <trkpt lat="47.39264" lon="-0.94141">
        <ele>51.25</ele>
        <time>2020-07-19T09:19:33Z</time>
      </trkpt>
      <trkpt lat="47.3926" lon="-0.94148">
        <ele>52.164</ele>
        <time>2020-07-19T09:19:34Z</time>
      </trkpt>
      <trkpt lat="47.39256" lon="-0.94151">
        <ele>55.857</ele>
        <time>2020-07-19T09:19:35Z</time>
      </trkpt>
      <trkpt lat="47.39251" lon="-0.94157">
        <ele>55.109</ele>
        <time>2020-07-19T09:19:36Z</time>
      </trkpt>
      <trkpt lat="47.39247" lon="-0.94161">
        <ele>55.307</ele>
        <time>2020-07-19T09:19:37Z</time>
      </trkpt>
      <trkpt lat="47.39242" lon="-0.94167">
        <ele>53.895</ele>
        <time>2020-07-19T09:19:38Z</time>
      </trkpt>
      <trkpt lat="47.3924" lon="-0.94172">
        <ele>53.821</ele>
        <time>2020-07-19T09:19:39Z</time>
      </trkpt>
      <trkpt lat="47.39236" lon="-0.94177">
        <ele>54.258</ele>
        <time>2020-07-19T09:19:40Z</time>
      </trkpt>
      <trkpt lat="47.39232" lon="-0.94183">
        <ele>52.754</ele>
        <time>2020-07-19T09:19:41Z</time>
      </trkpt>
      <trkpt lat="47.39226" lon="-0.94188">
        <ele>52.461</ele>
        <time>2020-07-19T09:19:42Z</time>
      </trkpt>
      <trkpt lat="47.39222" lon="-0.94193">
        <ele>53.394</ele>
        <time>2020-07-19T09:19:43Z</time>
      </trkpt>
      <trkpt lat="47.39218" lon="-0.94198">
        <ele>53.389</ele>
        <time>2020-07-19T09:19:44Z</time>
      </trkpt>
      <trkpt lat="47.39215" lon="-0.94202">
        <ele>53.208</ele>
        <time>2020-07-19T09:19:45Z</time>
      </trkpt>
      <trkpt lat="47.39211" lon="-0.94208">
        <ele>53.024</ele>
        <time>2020-07-19T09:19:46Z</time>
      </trkpt>
      <trkpt lat="47.39207" lon="-0.94213">
        <ele>52.633</ele>
        <time>2020-07-19T09:19:47Z</time>
      </trkpt>
      <trkpt lat="47.39203" lon="-0.94219">
        <ele>52.87</ele>
        <time>2020-07-19T09:19:48Z</time>
      </trkpt>
      <trkpt lat="47.39199" lon="-0.94224">
        <ele>52.844</ele>
        <time>2020-07-19T09:19:49Z</time>
      </trkpt>
      <trkpt lat="47.39195" lon="-0.94228">
        <ele>53.297</ele>
        <time>2020-07-19T09:19:50Z</time>
      </trkpt>
      <trkpt lat="47.39191" lon="-0.94233">
        <ele>53.752</ele>
        <time>2020-07-19T09:19:51Z</time>
      </trkpt>
      <trkpt lat="47.39186" lon="-0.94238">
        <ele>54.661</ele>
        <time>2020-07-19T09:19:52Z</time>
      </trkpt>
      <trkpt lat="47.39183" lon="-0.94243">
        <ele>54.852</ele>
        <time>2020-07-19T09:19:53Z</time>
      </trkpt>
      <trkpt lat="47.39178" lon="-0.94247">
        <ele>55.369</ele>
        <time>2020-07-19T09:19:54Z</time>
      </trkpt>
      <trkpt lat="47.39176" lon="-0.94252">
        <ele>54.986</ele>
        <time>2020-07-19T09:19:55Z</time>
      </trkpt>
      <trkpt lat="47.39173" lon="-0.94255">
        <ele>52.899</ele>
        <time>2020-07-19T09:19:56Z</time>
      </trkpt>
      <trkpt lat="47.39169" lon="-0.9426">
        <ele>53.23</ele>
        <time>2020-07-19T09:19:57Z</time>
      </trkpt>
      <trkpt lat="47.39164" lon="-0.94265">
        <ele>53.077</ele>
        <time>2020-07-19T09:19:58Z</time>
      </trkpt>
      <trkpt lat="47.3916" lon="-0.9427">
        <ele>54.205</ele>
        <time>2020-07-19T09:19:59Z</time>
      </trkpt>
      <trkpt lat="47.39156" lon="-0.94276">
        <ele>54.54</ele>
        <time>2020-07-19T09:20:00Z</time>
      </trkpt>
      <trkpt lat="47.39151" lon="-0.94281">
        <ele>53.133</ele>
        <time>2020-07-19T09:20:01Z</time>
      </trkpt>
      <trkpt lat="47.39147" lon="-0.94286">
        <ele>54.145</ele>
        <time>2020-07-19T09:20:02Z</time>
      </trkpt>
      <trkpt lat="47.39141" lon="-0.94292">
        <ele>54.341</ele>
        <time>2020-07-19T09:20:03Z</time>
      </trkpt>
      <trkpt lat="47.39137" lon="-0.94297">
        <ele>54.562</ele>
        <time>2020-07-19T09:20:04Z</time>
      </trkpt>
      <trkpt lat="47.39133" lon="-0.94304">
        <ele>53.931</ele>
        <time>2020-07-19T09:20:05Z</time>
      </trkpt>
      <trkpt lat="47.39128" lon="-0.9431">
        <ele>53.359</ele>
        <time>2020-07-19T09:20:06Z</time>
      </trkpt>
      <trkpt lat="47.39124" lon="-0.94316">
        <ele>53.918</ele>
        <time>2020-07-19T09:20:07Z</time>
      </trkpt>
      <trkpt lat="47.39121" lon="-0.94323">
        <ele>53.337</ele>
        <time>2020-07-19T09:20:08Z</time>
      </trkpt>
      <trkpt lat="47.39116" lon="-0.94329">
        <ele>54.09</ele>
        <time>2020-07-19T09:20:09Z</time>
      </trkpt>
      <trkpt lat="47.39112" lon="-0.94336">
        <ele>55.477</ele>
        <time>2020-07-19T09:20:10Z</time>
      </trkpt>
      <trkpt lat="47.39107" lon="-0.94344">
        <ele>56.343</ele>
        <time>2020-07-19T09:20:11Z</time>
      </trkpt>
      <trkpt lat="47.39102" lon="-0.9435">
        <ele>56.647</ele>
        <time>2020-07-19T09:20:12Z</time>
      </trkpt>
      <trkpt lat="47.39098" lon="-0.94357">
        <ele>54.425</ele>
        <time>2020-07-19T09:20:13Z</time>
      </trkpt>
      <trkpt lat="47.39094" lon="-0.94364">
        <ele>53.933</ele>
        <time>2020-07-19T09:20:14Z</time>
      </trkpt>
      <trkpt lat="47.3909" lon="-0.9437">
        <ele>54.302</ele>
        <time>2020-07-19T09:20:15Z</time>
      </trkpt>
      <trkpt lat="47.39087" lon="-0.94376">
        <ele>55.209</ele>
        <time>2020-07-19T09:20:16Z</time>
      </trkpt>
      <trkpt lat="47.39084" lon="-0.94382">
        <ele>56.105</ele>
        <time>2020-07-19T09:20:17Z</time>
      </trkpt>
      <trkpt lat="47.3908" lon="-0.94386">
        <ele>55.862</ele>
        <time>2020-07-19T09:20:18Z</time>
      </trkpt>
      <trkpt lat="47.39076" lon="-0.94395">
        <ele>53.677</ele>
        <time>2020-07-19T09:20:19Z</time>
      </trkpt>
      <trkpt lat="47.3907" lon="-0.94402">
        <ele>54.253</ele>
        <time>2020-07-19T09:20:20Z</time>
      </trkpt>
      <trkpt lat="47.39065" lon="-0.9441">
        <ele>53.958</ele>
        <time>2020-07-19T09:20:21Z</time>
      </trkpt>
      <trkpt lat="47.39062" lon="-0.94417">
        <ele>53.994</ele>
        <time>2020-07-19T09:20:22Z</time>
      </trkpt>
      <trkpt lat="47.39057" lon="-0.94421">
        <ele>51.486</ele>
        <time>2020-07-19T09:20:23Z</time>
      </trkpt>
      <trkpt lat="47.39055" lon="-0.94426">
        <ele>52.296</ele>
        <time>2020-07-19T09:20:24Z</time>
      </trkpt>
      <trkpt lat="47.39049" lon="-0.94431">
        <ele>52.701</ele>
        <time>2020-07-19T09:20:25Z</time>
      </trkpt>
      <trkpt lat="47.39044" lon="-0.94438">
        <ele>54.131</ele>
        <time>2020-07-19T09:20:26Z</time>
      </trkpt>
      <trkpt lat="47.39039" lon="-0.94444">
        <ele>54.58</ele>
        <time>2020-07-19T09:20:27Z</time>
      </trkpt>
      <trkpt lat="47.39035" lon="-0.9445">
        <ele>54.173</ele>
        <time>2020-07-19T09:20:28Z</time>
      </trkpt>
      <trkpt lat="47.39032" lon="-0.94455">
        <ele>55.026</ele>
        <time>2020-07-19T09:20:29Z</time>
      </trkpt>
      <trkpt lat="47.39028" lon="-0.94462">
        <ele>55.185</ele>
        <time>2020-07-19T09:20:30Z</time>
      </trkpt>
      <trkpt lat="47.39026" lon="-0.94466">
        <ele>54.818</ele>
        <time>2020-07-19T09:20:31Z</time>
      </trkpt>
      <trkpt lat="47.39022" lon="-0.94472">
        <ele>54.159</ele>
        <time>2020-07-19T09:20:32Z</time>
      </trkpt>
      <trkpt lat="47.39018" lon="-0.94479">
        <ele>54.19</ele>
        <time>2020-07-19T09:20:33Z</time>
      </trkpt>
      <trkpt lat="47.39014" lon="-0.94485">
        <ele>54.776</ele>
        <time>2020-07-19T09:20:34Z</time>
      </trkpt>
      <trkpt lat="47.39012" lon="-0.9449">
        <ele>53.59</ele>
        <time>2020-07-19T09:20:35Z</time>
      </trkpt>
      <trkpt lat="47.39007" lon="-0.94498">
        <ele>54.066</ele>
        <time>2020-07-19T09:20:36Z</time>
      </trkpt>
      <trkpt lat="47.39004" lon="-0.94504">
        <ele>53.509</ele>
        <time>2020-07-19T09:20:37Z</time>
      </trkpt>
      <trkpt lat="47.39002" lon="-0.94509">
        <ele>51.745</ele>
        <time>2020-07-19T09:20:38Z</time>
      </trkpt>
      <trkpt lat="47.38997" lon="-0.94515">
        <ele>52.158</ele>
        <time>2020-07-19T09:20:39Z</time>
      </trkpt>
      <trkpt lat="47.38993" lon="-0.94523">
        <ele>52.855</ele>
        <time>2020-07-19T09:20:40Z</time>
      </trkpt>
      <trkpt lat="47.38989" lon="-0.9453">
        <ele>52.879</ele>
        <time>2020-07-19T09:20:41Z</time>
      </trkpt>
      <trkpt lat="47.38987" lon="-0.94538">
        <ele>53.355</ele>
        <time>2020-07-19T09:20:43Z</time>
      </trkpt>
      <trkpt lat="47.3898" lon="-0.94544">
        <ele>50.363</ele>
        <time>2020-07-19T09:20:43Z</time>
      </trkpt>
      <trkpt lat="47.38977" lon="-0.9455">
        <ele>50.39</ele>
        <time>2020-07-19T09:20:44Z</time>
      </trkpt>
      <trkpt lat="47.38972" lon="-0.94558">
        <ele>50.204</ele>
        <time>2020-07-19T09:20:45Z</time>
      </trkpt>
      <trkpt lat="47.38971" lon="-0.94565">
        <ele>51.339</ele>
        <time>2020-07-19T09:20:46Z</time>
      </trkpt>
      <trkpt lat="47.38967" lon="-0.94572">
        <ele>53.085</ele>
        <time>2020-07-19T09:20:47Z</time>
      </trkpt>
      <trkpt lat="47.38965" lon="-0.94578">
        <ele>55.108</ele>
        <time>2020-07-19T09:20:48Z</time>
      </trkpt>
      <trkpt lat="47.3896" lon="-0.94585">
        <ele>52.381</ele>
        <time>2020-07-19T09:20:49Z</time>
      </trkpt>
      <trkpt lat="47.38957" lon="-0.94592">
        <ele>52.103</ele>
        <time>2020-07-19T09:20:50Z</time>
      </trkpt>
      <trkpt lat="47.38953" lon="-0.94599">
        <ele>52.94</ele>
        <time>2020-07-19T09:20:51Z</time>
      </trkpt>
      <trkpt lat="47.38947" lon="-0.94604">
        <ele>51.191</ele>
        <time>2020-07-19T09:20:52Z</time>
      </trkpt>
      <trkpt lat="47.38944" lon="-0.94608">
        <ele>49.341</ele>
        <time>2020-07-19T09:20:53Z</time>
      </trkpt>
      <trkpt lat="47.38939" lon="-0.94613">
        <ele>51.04</ele>
        <time>2020-07-19T09:20:54Z</time>
      </trkpt>
      <trkpt lat="47.38933" lon="-0.9462">
        <ele>51.011</ele>
        <time>2020-07-19T09:20:55Z</time>
      </trkpt>
      <trkpt lat="47.38929" lon="-0.94625">
        <ele>50.14</ele>
        <time>2020-07-19T09:20:56Z</time>
      </trkpt>
      <trkpt lat="47.38924" lon="-0.94631">
        <ele>51.331</ele>
        <time>2020-07-19T09:20:57Z</time>
      </trkpt>
      <trkpt lat="47.38919" lon="-0.94637">
        <ele>52.466</ele>
        <time>2020-07-19T09:20:58Z</time>
      </trkpt>
      <trkpt lat="47.38915" lon="-0.94642">
        <ele>52.929</ele>
        <time>2020-07-19T09:20:59Z</time>
      </trkpt>
      <trkpt lat="47.38907" lon="-0.94647">
        <ele>55.435</ele>
        <time>2020-07-19T09:21:00Z</time>
      </trkpt>
      <trkpt lat="47.38902" lon="-0.94652">
        <ele>55.694</ele>
        <time>2020-07-19T09:21:01Z</time>
      </trkpt>
      <trkpt lat="47.389" lon="-0.94655">
        <ele>54.27</ele>
        <time>2020-07-19T09:21:02Z</time>
      </trkpt>
      <trkpt lat="47.38895" lon="-0.9466">
        <ele>55.028</ele>
        <time>2020-07-19T09:21:03Z</time>
      </trkpt>
      <trkpt lat="47.3889" lon="-0.94665">
        <ele>54.115</ele>
        <time>2020-07-19T09:21:04Z</time>
      </trkpt>
      <trkpt lat="47.38884" lon="-0.9467">
        <ele>54.96</ele>
        <time>2020-07-19T09:21:05Z</time>
      </trkpt>
      <trkpt lat="47.38878" lon="-0.94675">
        <ele>55.225</ele>
        <time>2020-07-19T09:21:06Z</time>
      </trkpt>
      <trkpt lat="47.38873" lon="-0.9468">
        <ele>55.307</ele>
        <time>2020-07-19T09:21:07Z</time>
      </trkpt>
      <trkpt lat="47.38868" lon="-0.94685">
        <ele>55.641</ele>
        <time>2020-07-19T09:21:08Z</time>
      </trkpt>
      <trkpt lat="47.38862" lon="-0.94691">
        <ele>56.655</ele>
        <time>2020-07-19T09:21:09Z</time>
      </trkpt>
      <trkpt lat="47.38859" lon="-0.94695">
        <ele>56.541</ele>
        <time>2020-07-19T09:21:10Z</time>
      </trkpt>
      <trkpt lat="47.38853" lon="-0.947">
        <ele>56.433</ele>
        <time>2020-07-19T09:21:11Z</time>
      </trkpt>
      <trkpt lat="47.38848" lon="-0.94705">
        <ele>55.384</ele>
        <time>2020-07-19T09:21:12Z</time>
      </trkpt>
      <trkpt lat="47.38844" lon="-0.94712">
        <ele>55.155</ele>
        <time>2020-07-19T09:21:13Z</time>
      </trkpt>
      <trkpt lat="47.38839" lon="-0.94717">
        <ele>55.587</ele>
        <time>2020-07-19T09:21:14Z</time>
      </trkpt>
      <trkpt lat="47.38834" lon="-0.94723">
        <ele>54.323</ele>
        <time>2020-07-19T09:21:15Z</time>
      </trkpt>
      <trkpt lat="47.38829" lon="-0.94729">
        <ele>54.465</ele>
        <time>2020-07-19T09:21:16Z</time>
      </trkpt>
      <trkpt lat="47.38823" lon="-0.94735">
        <ele>55.594</ele>
        <time>2020-07-19T09:21:17Z</time>
      </trkpt>
      <trkpt lat="47.38817" lon="-0.9474">
        <ele>57.068</ele>
        <time>2020-07-19T09:21:18Z</time>
      </trkpt>
      <trkpt lat="47.38814" lon="-0.94746">
        <ele>56.544</ele>
        <time>2020-07-19T09:21:19Z</time>
      </trkpt>
      <trkpt lat="47.38808" lon="-0.94751">
        <ele>56.243</ele>
        <time>2020-07-19T09:21:20Z</time>
      </trkpt>
      <trkpt lat="47.38803" lon="-0.94759">
        <ele>54.201</ele>
        <time>2020-07-19T09:21:21Z</time>
      </trkpt>
      <trkpt lat="47.38799" lon="-0.94764">
        <ele>55.136</ele>
        <time>2020-07-19T09:21:22Z</time>
      </trkpt>
      <trkpt lat="47.38793" lon="-0.94771">
        <ele>55.922</ele>
        <time>2020-07-19T09:21:23Z</time>
      </trkpt>
      <trkpt lat="47.3879" lon="-0.94776">
        <ele>54.259</ele>
        <time>2020-07-19T09:21:24Z</time>
      </trkpt>
      <trkpt lat="47.38786" lon="-0.94781">
        <ele>54.707</ele>
        <time>2020-07-19T09:21:25Z</time>
      </trkpt>
      <trkpt lat="47.38783" lon="-0.94787">
        <ele>54.793</ele>
        <time>2020-07-19T09:21:26Z</time>
      </trkpt>
      <trkpt lat="47.38779" lon="-0.94792">
        <ele>54.807</ele>
        <time>2020-07-19T09:21:27Z</time>
      </trkpt>
      <trkpt lat="47.38776" lon="-0.94797">
        <ele>53.868</ele>
        <time>2020-07-19T09:21:28Z</time>
      </trkpt>
      <trkpt lat="47.38771" lon="-0.94802">
        <ele>54.255</ele>
        <time>2020-07-19T09:21:29Z</time>
      </trkpt>
      <trkpt lat="47.38769" lon="-0.94809">
        <ele>54.194</ele>
        <time>2020-07-19T09:21:30Z</time>
      </trkpt>
      <trkpt lat="47.38764" lon="-0.94815">
        <ele>54.391</ele>
        <time>2020-07-19T09:21:31Z</time>
      </trkpt>
      <trkpt lat="47.3876" lon="-0.94821">
        <ele>54.577</ele>
        <time>2020-07-19T09:21:32Z</time>
      </trkpt>
      <trkpt lat="47.38756" lon="-0.94827">
        <ele>53.853</ele>
        <time>2020-07-19T09:21:33Z</time>
      </trkpt>
      <trkpt lat="47.38752" lon="-0.94833">
        <ele>53.361</ele>
        <time>2020-07-19T09:21:34Z</time>
      </trkpt>
      <trkpt lat="47.38748" lon="-0.9484">
        <ele>52.508</ele>
        <time>2020-07-19T09:21:35Z</time>
      </trkpt>
      <trkpt lat="47.38746" lon="-0.94845">
        <ele>51.422</ele>
        <time>2020-07-19T09:21:36Z</time>
      </trkpt>
      <trkpt lat="47.38742" lon="-0.94851">
        <ele>51.14</ele>
        <time>2020-07-19T09:21:37Z</time>
      </trkpt>
      <trkpt lat="47.38738" lon="-0.94858">
        <ele>51.053</ele>
        <time>2020-07-19T09:21:38Z</time>
      </trkpt>
      <trkpt lat="47.38733" lon="-0.94865">
        <ele>50.701</ele>
        <time>2020-07-19T09:21:39Z</time>
      </trkpt>
      <trkpt lat="47.38728" lon="-0.9487">
        <ele>50.889</ele>
        <time>2020-07-19T09:21:40Z</time>
      </trkpt>
      <trkpt lat="47.38723" lon="-0.94877">
        <ele>51.849</ele>
        <time>2020-07-19T09:21:41Z</time>
      </trkpt>
      <trkpt lat="47.38719" lon="-0.94882">
        <ele>52.659</ele>
        <time>2020-07-19T09:21:42Z</time>
      </trkpt>
      <trkpt lat="47.38715" lon="-0.94888">
        <ele>52.884</ele>
        <time>2020-07-19T09:21:43Z</time>
      </trkpt>
      <trkpt lat="47.38711" lon="-0.94895">
        <ele>53.924</ele>
        <time>2020-07-19T09:21:44Z</time>
      </trkpt>
      <trkpt lat="47.38706" lon="-0.949">
        <ele>54.434</ele>
        <time>2020-07-19T09:21:45Z</time>
      </trkpt>
      <trkpt lat="47.38701" lon="-0.94906">
        <ele>54.438</ele>
        <time>2020-07-19T09:21:46Z</time>
      </trkpt>
      <trkpt lat="47.38696" lon="-0.94913">
        <ele>54.699</ele>
        <time>2020-07-19T09:21:47Z</time>
      </trkpt>
      <trkpt lat="47.38692" lon="-0.94918">
        <ele>53.79</ele>
        <time>2020-07-19T09:21:48Z</time>
      </trkpt>
      <trkpt lat="47.38688" lon="-0.94924">
        <ele>53.861</ele>
        <time>2020-07-19T09:21:49Z</time>
      </trkpt>
      <trkpt lat="47.38683" lon="-0.9493">
        <ele>53.424</ele>
        <time>2020-07-19T09:21:50Z</time>
      </trkpt>
      <trkpt lat="47.38679" lon="-0.94936">
        <ele>53.881</ele>
        <time>2020-07-19T09:21:51Z</time>
      </trkpt>
      <trkpt lat="47.38675" lon="-0.94942">
        <ele>55.39</ele>
        <time>2020-07-19T09:21:52Z</time>
      </trkpt>
      <trkpt lat="47.38671" lon="-0.9495">
        <ele>56.446</ele>
        <time>2020-07-19T09:21:53Z</time>
      </trkpt>
      <trkpt lat="47.38666" lon="-0.94956">
        <ele>57.006</ele>
        <time>2020-07-19T09:21:54Z</time>
      </trkpt>
      <trkpt lat="47.38661" lon="-0.94962">
        <ele>57.847</ele>
        <time>2020-07-19T09:21:55Z</time>
      </trkpt>
      <trkpt lat="47.38657" lon="-0.94968">
        <ele>58.958</ele>
        <time>2020-07-19T09:21:56Z</time>
      </trkpt>
      <trkpt lat="47.38652" lon="-0.94973">
        <ele>58.323</ele>
        <time>2020-07-19T09:21:57Z</time>
      </trkpt>
      <trkpt lat="47.38647" lon="-0.94979">
        <ele>58.688</ele>
        <time>2020-07-19T09:21:58Z</time>
      </trkpt>
      <trkpt lat="47.38642" lon="-0.94984">
        <ele>58.421</ele>
        <time>2020-07-19T09:21:59Z</time>
      </trkpt>
      <trkpt lat="47.38637" lon="-0.94989">
        <ele>58.701</ele>
        <time>2020-07-19T09:22:00Z</time>
      </trkpt>
      <trkpt lat="47.38632" lon="-0.94993">
        <ele>59.305</ele>
        <time>2020-07-19T09:22:01Z</time>
      </trkpt>
      <trkpt lat="47.38627" lon="-0.94997">
        <ele>59.144</ele>
        <time>2020-07-19T09:22:02Z</time>
      </trkpt>
      <trkpt lat="47.38621" lon="-0.95001">
        <ele>58.854</ele>
        <time>2020-07-19T09:22:03Z</time>
      </trkpt>
      <trkpt lat="47.38616" lon="-0.95006">
        <ele>58.142</ele>
        <time>2020-07-19T09:22:04Z</time>
      </trkpt>
      <trkpt lat="47.3861" lon="-0.9501">
        <ele>57.264</ele>
        <time>2020-07-19T09:22:05Z</time>
      </trkpt>
      <trkpt lat="47.38605" lon="-0.95015">
        <ele>57.629</ele>
        <time>2020-07-19T09:22:06Z</time>
      </trkpt>
      <trkpt lat="47.38601" lon="-0.95019">
        <ele>57.622</ele>
        <time>2020-07-19T09:22:07Z</time>
      </trkpt>
      <trkpt lat="47.38595" lon="-0.95024">
        <ele>57.733</ele>
        <time>2020-07-19T09:22:08Z</time>
      </trkpt>
      <trkpt lat="47.38592" lon="-0.95027">
        <ele>57.792</ele>
        <time>2020-07-19T09:22:09Z</time>
      </trkpt>
      <trkpt lat="47.38586" lon="-0.95032">
        <ele>58.655</ele>
        <time>2020-07-19T09:22:10Z</time>
      </trkpt>
      <trkpt lat="47.38581" lon="-0.95036">
        <ele>58.528</ele>
        <time>2020-07-19T09:22:11Z</time>
      </trkpt>
      <trkpt lat="47.38575" lon="-0.95042">
        <ele>58.901</ele>
        <time>2020-07-19T09:22:12Z</time>
      </trkpt>
      <trkpt lat="47.38571" lon="-0.95047">
        <ele>59.168</ele>
        <time>2020-07-19T09:22:13Z</time>
      </trkpt>
      <trkpt lat="47.38566" lon="-0.95052">
        <ele>59.033</ele>
        <time>2020-07-19T09:22:14Z</time>
      </trkpt>
      <trkpt lat="47.38562" lon="-0.95056">
        <ele>56.41</ele>
        <time>2020-07-19T09:22:15Z</time>
      </trkpt>
      <trkpt lat="47.38557" lon="-0.95062">
        <ele>56.128</ele>
        <time>2020-07-19T09:22:16Z</time>
      </trkpt>
      <trkpt lat="47.38552" lon="-0.95066">
        <ele>55.58</ele>
        <time>2020-07-19T09:22:17Z</time>
      </trkpt>
      <trkpt lat="47.38547" lon="-0.95072">
        <ele>55.859</ele>
        <time>2020-07-19T09:22:18Z</time>
      </trkpt>
      <trkpt lat="47.38543" lon="-0.95077">
        <ele>56.13</ele>
        <time>2020-07-19T09:22:19Z</time>
      </trkpt>
      <trkpt lat="47.38538" lon="-0.95084">
        <ele>55.833</ele>
        <time>2020-07-19T09:22:20Z</time>
      </trkpt>
      <trkpt lat="47.38534" lon="-0.9509">
        <ele>54.629</ele>
        <time>2020-07-19T09:22:21Z</time>
      </trkpt>
      <trkpt lat="47.3853" lon="-0.95096">
        <ele>53.78</ele>
        <time>2020-07-19T09:22:22Z</time>
      </trkpt>
      <trkpt lat="47.38526" lon="-0.95103">
        <ele>54.015</ele>
        <time>2020-07-19T09:22:23Z</time>
      </trkpt>
      <trkpt lat="47.38522" lon="-0.9511">
        <ele>54.95</ele>
        <time>2020-07-19T09:22:24Z</time>
      </trkpt>
      <trkpt lat="47.38518" lon="-0.95117">
        <ele>55.251</ele>
        <time>2020-07-19T09:22:25Z</time>
      </trkpt>
      <trkpt lat="47.38514" lon="-0.95124">
        <ele>55.625</ele>
        <time>2020-07-19T09:22:26Z</time>
      </trkpt>
      <trkpt lat="47.3851" lon="-0.95131">
        <ele>55.546</ele>
        <time>2020-07-19T09:22:27Z</time>
      </trkpt>
      <trkpt lat="47.38506" lon="-0.95136">
        <ele>55.075</ele>
        <time>2020-07-19T09:22:28Z</time>
      </trkpt>
      <trkpt lat="47.38502" lon="-0.95143">
        <ele>55.036</ele>
        <time>2020-07-19T09:22:29Z</time>
      </trkpt>
      <trkpt lat="47.38498" lon="-0.9515">
        <ele>55.066</ele>
        <time>2020-07-19T09:22:30Z</time>
      </trkpt>
      <trkpt lat="47.38494" lon="-0.95157">
        <ele>55.064</ele>
        <time>2020-07-19T09:22:31Z</time>
      </trkpt>
      <trkpt lat="47.3849" lon="-0.95163">
        <ele>54.709</ele>
        <time>2020-07-19T09:22:32Z</time>
      </trkpt>
      <trkpt lat="47.38485" lon="-0.9517">
        <ele>54.26</ele>
        <time>2020-07-19T09:22:33Z</time>
      </trkpt>
      <trkpt lat="47.38481" lon="-0.95177">
        <ele>54.434</ele>
        <time>2020-07-19T09:22:34Z</time>
      </trkpt>
      <trkpt lat="47.38476" lon="-0.95183">
        <ele>54.607</ele>
        <time>2020-07-19T09:22:35Z</time>
      </trkpt>
      <trkpt lat="47.38472" lon="-0.95191">
        <ele>53.711</ele>
        <time>2020-07-19T09:22:36Z</time>
      </trkpt>
      <trkpt lat="47.38469" lon="-0.95198">
        <ele>54.109</ele>
        <time>2020-07-19T09:22:37Z</time>
      </trkpt>
      <trkpt lat="47.38465" lon="-0.95206">
        <ele>53.619</ele>
        <time>2020-07-19T09:22:38Z</time>
      </trkpt>
      <trkpt lat="47.38463" lon="-0.95213">
        <ele>54.419</ele>
        <time>2020-07-19T09:22:39Z</time>
      </trkpt>
      <trkpt lat="47.38459" lon="-0.95221">
        <ele>54.482</ele>
        <time>2020-07-19T09:22:40Z</time>
      </trkpt>
      <trkpt lat="47.38454" lon="-0.95228">
        <ele>54.885</ele>
        <time>2020-07-19T09:22:41Z</time>
      </trkpt>
      <trkpt lat="47.38451" lon="-0.95235">
        <ele>54.981</ele>
        <time>2020-07-19T09:22:42Z</time>
      </trkpt>
      <trkpt lat="47.38448" lon="-0.95242">
        <ele>54.222</ele>
        <time>2020-07-19T09:22:43Z</time>
      </trkpt>
      <trkpt lat="47.38444" lon="-0.95249">
        <ele>53.505</ele>
        <time>2020-07-19T09:22:44Z</time>
      </trkpt>
      <trkpt lat="47.38442" lon="-0.95253">
        <ele>52.934</ele>
        <time>2020-07-19T09:22:45Z</time>
      </trkpt>
      <trkpt lat="47.38437" lon="-0.95259">
        <ele>52.237</ele>
        <time>2020-07-19T09:22:46Z</time>
      </trkpt>
      <trkpt lat="47.38434" lon="-0.95265">
        <ele>51.863</ele>
        <time>2020-07-19T09:22:47Z</time>
      </trkpt>
      <trkpt lat="47.38432" lon="-0.9527">
        <ele>51.756</ele>
        <time>2020-07-19T09:22:48Z</time>
      </trkpt>
      <trkpt lat="47.38429" lon="-0.95276">
        <ele>51.819</ele>
        <time>2020-07-19T09:22:49Z</time>
      </trkpt>
      <trkpt lat="47.38425" lon="-0.95283">
        <ele>52.067</ele>
        <time>2020-07-19T09:22:50Z</time>
      </trkpt>
      <trkpt lat="47.38423" lon="-0.9529">
        <ele>51.809</ele>
        <time>2020-07-19T09:22:51Z</time>
      </trkpt>
      <trkpt lat="47.3842" lon="-0.95297">
        <ele>52.442</ele>
        <time>2020-07-19T09:22:52Z</time>
      </trkpt>
      <trkpt lat="47.38417" lon="-0.95301">
        <ele>49.898</ele>
        <time>2020-07-19T09:22:53Z</time>
      </trkpt>
      <trkpt lat="47.38413" lon="-0.95307">
        <ele>50.282</ele>
        <time>2020-07-19T09:22:54Z</time>
      </trkpt>
      <trkpt lat="47.38409" lon="-0.95314">
        <ele>50.469</ele>
        <time>2020-07-19T09:22:55Z</time>
      </trkpt>
      <trkpt lat="47.38406" lon="-0.95319">
        <ele>51.091</ele>
        <time>2020-07-19T09:22:56Z</time>
      </trkpt>
      <trkpt lat="47.38401" lon="-0.95324">
        <ele>50.671</ele>
        <time>2020-07-19T09:22:57Z</time>
      </trkpt>
      <trkpt lat="47.38397" lon="-0.9533">
        <ele>49.453</ele>
        <time>2020-07-19T09:22:58Z</time>
      </trkpt>
      <trkpt lat="47.38393" lon="-0.95337">
        <ele>49.46</ele>
        <time>2020-07-19T09:22:59Z</time>
      </trkpt>
      <trkpt lat="47.38388" lon="-0.95343">
        <ele>49.513</ele>
        <time>2020-07-19T09:23:00Z</time>
      </trkpt>
      <trkpt lat="47.38384" lon="-0.9535">
        <ele>50.286</ele>
        <time>2020-07-19T09:23:01Z</time>
      </trkpt>
      <trkpt lat="47.3838" lon="-0.95356">
        <ele>49.33</ele>
        <time>2020-07-19T09:23:02Z</time>
      </trkpt>
      <trkpt lat="47.38376" lon="-0.95362">
        <ele>49.359</ele>
        <time>2020-07-19T09:23:03Z</time>
      </trkpt>
      <trkpt lat="47.38371" lon="-0.95367">
        <ele>48.45</ele>
        <time>2020-07-19T09:23:04Z</time>
      </trkpt>
      <trkpt lat="47.38367" lon="-0.95373">
        <ele>48.717</ele>
        <time>2020-07-19T09:23:05Z</time>
      </trkpt>
      <trkpt lat="47.38361" lon="-0.95379">
        <ele>49.224</ele>
        <time>2020-07-19T09:23:06Z</time>
      </trkpt>
      <trkpt lat="47.38355" lon="-0.95385">
        <ele>49.02</ele>
        <time>2020-07-19T09:23:07Z</time>
      </trkpt>
      <trkpt lat="47.38349" lon="-0.95391">
        <ele>50.988</ele>
        <time>2020-07-19T09:23:08Z</time>
      </trkpt>
      <trkpt lat="47.38345" lon="-0.95396">
        <ele>50.638</ele>
        <time>2020-07-19T09:23:09Z</time>
      </trkpt>
      <trkpt lat="47.38342" lon="-0.95401">
        <ele>50.507</ele>
        <time>2020-07-19T09:23:10Z</time>
      </trkpt>
      <trkpt lat="47.38338" lon="-0.95408">
        <ele>50.739</ele>
        <time>2020-07-19T09:23:11Z</time>
      </trkpt>
      <trkpt lat="47.38333" lon="-0.95414">
        <ele>51.19</ele>
        <time>2020-07-19T09:23:12Z</time>
      </trkpt>
      <trkpt lat="47.38328" lon="-0.9542">
        <ele>51.214</ele>
        <time>2020-07-19T09:23:13Z</time>
      </trkpt>
      <trkpt lat="47.38323" lon="-0.95427">
        <ele>51.894</ele>
        <time>2020-07-19T09:23:14Z</time>
      </trkpt>
      <trkpt lat="47.38318" lon="-0.95433">
        <ele>52.352</ele>
        <time>2020-07-19T09:23:15Z</time>
      </trkpt>
      <trkpt lat="47.38314" lon="-0.95439">
        <ele>52.434</ele>
        <time>2020-07-19T09:23:16Z</time>
      </trkpt>
      <trkpt lat="47.38311" lon="-0.95445">
        <ele>52.286</ele>
        <time>2020-07-19T09:23:17Z</time>
      </trkpt>
      <trkpt lat="47.38307" lon="-0.95452">
        <ele>51.2</ele>
        <time>2020-07-19T09:23:18Z</time>
      </trkpt>
      <trkpt lat="47.38302" lon="-0.95459">
        <ele>51.495</ele>
        <time>2020-07-19T09:23:19Z</time>
      </trkpt>
      <trkpt lat="47.38298" lon="-0.95466">
        <ele>50.173</ele>
        <time>2020-07-19T09:23:20Z</time>
      </trkpt>
      <trkpt lat="47.38294" lon="-0.95473">
        <ele>50.826</ele>
        <time>2020-07-19T09:23:21Z</time>
      </trkpt>
      <trkpt lat="47.3829" lon="-0.9548">
        <ele>51.363</ele>
        <time>2020-07-19T09:23:22Z</time>
      </trkpt>
      <trkpt lat="47.38286" lon="-0.95487">
        <ele>51.255</ele>
        <time>2020-07-19T09:23:23Z</time>
      </trkpt>
      <trkpt lat="47.38283" lon="-0.95496">
        <ele>50.854</ele>
        <time>2020-07-19T09:23:24Z</time>
      </trkpt>
      <trkpt lat="47.38279" lon="-0.95503">
        <ele>51.68</ele>
        <time>2020-07-19T09:23:25Z</time>
      </trkpt>
      <trkpt lat="47.38275" lon="-0.9551">
        <ele>52.07</ele>
        <time>2020-07-19T09:23:26Z</time>
      </trkpt>
      <trkpt lat="47.3827" lon="-0.95518">
        <ele>51.908</ele>
        <time>2020-07-19T09:23:27Z</time>
      </trkpt>
      <trkpt lat="47.38266" lon="-0.95526">
        <ele>52.772</ele>
        <time>2020-07-19T09:23:28Z</time>
      </trkpt>
      <trkpt lat="47.38262" lon="-0.95534">
        <ele>53.54</ele>
        <time>2020-07-19T09:23:29Z</time>
      </trkpt>
      <trkpt lat="47.38258" lon="-0.95542">
        <ele>53.01</ele>
        <time>2020-07-19T09:23:30Z</time>
      </trkpt>
      <trkpt lat="47.38256" lon="-0.9555">
        <ele>52.342</ele>
        <time>2020-07-19T09:23:31Z</time>
      </trkpt>
      <trkpt lat="47.38254" lon="-0.95559">
        <ele>52.401</ele>
        <time>2020-07-19T09:23:32Z</time>
      </trkpt>
      <trkpt lat="47.38249" lon="-0.95565">
        <ele>51.184</ele>
        <time>2020-07-19T09:23:33Z</time>
      </trkpt>
      <trkpt lat="47.38246" lon="-0.95573">
        <ele>50.222</ele>
        <time>2020-07-19T09:23:34Z</time>
      </trkpt>
      <trkpt lat="47.38242" lon="-0.95581">
        <ele>49.692</ele>
        <time>2020-07-19T09:23:35Z</time>
      </trkpt>
      <trkpt lat="47.38239" lon="-0.95589">
        <ele>49.5</ele>
        <time>2020-07-19T09:23:36Z</time>
      </trkpt>
      <trkpt lat="47.38235" lon="-0.95598">
        <ele>49.619</ele>
        <time>2020-07-19T09:23:37Z</time>
      </trkpt>
      <trkpt lat="47.38231" lon="-0.95606">
        <ele>50.111</ele>
        <time>2020-07-19T09:23:38Z</time>
      </trkpt>
      <trkpt lat="47.38227" lon="-0.95615">
        <ele>50.405</ele>
        <time>2020-07-19T09:23:39Z</time>
      </trkpt>
      <trkpt lat="47.38224" lon="-0.95622">
        <ele>50.233</ele>
        <time>2020-07-19T09:23:40Z</time>
      </trkpt>
      <trkpt lat="47.38221" lon="-0.95629">
        <ele>51.089</ele>
        <time>2020-07-19T09:23:41Z</time>
      </trkpt>
      <trkpt lat="47.38218" lon="-0.95637">
        <ele>50.811</ele>
        <time>2020-07-19T09:23:42Z</time>
      </trkpt>
      <trkpt lat="47.38215" lon="-0.95645">
        <ele>50.789</ele>
        <time>2020-07-19T09:23:43Z</time>
      </trkpt>
      <trkpt lat="47.38212" lon="-0.95654">
        <ele>49.732</ele>
        <time>2020-07-19T09:23:44Z</time>
      </trkpt>
      <trkpt lat="47.38207" lon="-0.95662">
        <ele>48.691</ele>
        <time>2020-07-19T09:23:45Z</time>
      </trkpt>
      <trkpt lat="47.38203" lon="-0.9567">
        <ele>50.553</ele>
        <time>2020-07-19T09:23:46Z</time>
      </trkpt>
      <trkpt lat="47.38198" lon="-0.95678">
        <ele>50.337</ele>
        <time>2020-07-19T09:23:47Z</time>
      </trkpt>
      <trkpt lat="47.38195" lon="-0.95686">
        <ele>50.641</ele>
        <time>2020-07-19T09:23:48Z</time>
      </trkpt>
      <trkpt lat="47.38192" lon="-0.95694">
        <ele>51.052</ele>
        <time>2020-07-19T09:23:49Z</time>
      </trkpt>
      <trkpt lat="47.3819" lon="-0.95701">
        <ele>50.952</ele>
        <time>2020-07-19T09:23:50Z</time>
      </trkpt>
      <trkpt lat="47.38187" lon="-0.95709">
        <ele>51.025</ele>
        <time>2020-07-19T09:23:51Z</time>
      </trkpt>
      <trkpt lat="47.38185" lon="-0.95717">
        <ele>51.733</ele>
        <time>2020-07-19T09:23:52Z</time>
      </trkpt>
      <trkpt lat="47.38182" lon="-0.95725">
        <ele>51.634</ele>
        <time>2020-07-19T09:23:53Z</time>
      </trkpt>
      <trkpt lat="47.38178" lon="-0.95734">
        <ele>51.819</ele>
        <time>2020-07-19T09:23:54Z</time>
      </trkpt>
      <trkpt lat="47.38176" lon="-0.95742">
        <ele>50.723</ele>
        <time>2020-07-19T09:23:55Z</time>
      </trkpt>
      <trkpt lat="47.38173" lon="-0.9575">
        <ele>50.646</ele>
        <time>2020-07-19T09:23:56Z</time>
      </trkpt>
      <trkpt lat="47.3817" lon="-0.95757">
        <ele>48.059</ele>
        <time>2020-07-19T09:23:57Z</time>
      </trkpt>
      <trkpt lat="47.38166" lon="-0.95766">
        <ele>48.446</ele>
        <time>2020-07-19T09:23:58Z</time>
      </trkpt>
      <trkpt lat="47.38163" lon="-0.95774">
        <ele>48.277</ele>
        <time>2020-07-19T09:23:59Z</time>
      </trkpt>
      <trkpt lat="47.3816" lon="-0.95781">
        <ele>47.641</ele>
        <time>2020-07-19T09:24:00Z</time>
      </trkpt>
      <trkpt lat="47.38156" lon="-0.95791">
        <ele>46.427</ele>
        <time>2020-07-19T09:24:01Z</time>
      </trkpt>
      <trkpt lat="47.3815" lon="-0.95799">
        <ele>45.683</ele>
        <time>2020-07-19T09:24:02Z</time>
      </trkpt>
      <trkpt lat="47.38146" lon="-0.95807">
        <ele>45.392</ele>
        <time>2020-07-19T09:24:03Z</time>
      </trkpt>
      <trkpt lat="47.38143" lon="-0.95815">
        <ele>45.746</ele>
        <time>2020-07-19T09:24:04Z</time>
      </trkpt>
      <trkpt lat="47.38139" lon="-0.95823">
        <ele>47.227</ele>
        <time>2020-07-19T09:24:05Z</time>
      </trkpt>
      <trkpt lat="47.38135" lon="-0.95831">
        <ele>46.926</ele>
        <time>2020-07-19T09:24:06Z</time>
      </trkpt>
      <trkpt lat="47.38132" lon="-0.95839">
        <ele>46.451</ele>
        <time>2020-07-19T09:24:07Z</time>
      </trkpt>
      <trkpt lat="47.38128" lon="-0.95847">
        <ele>46.783</ele>
        <time>2020-07-19T09:24:08Z</time>
      </trkpt>
      <trkpt lat="47.38124" lon="-0.95854">
        <ele>47.48</ele>
        <time>2020-07-19T09:24:09Z</time>
      </trkpt>
      <trkpt lat="47.38121" lon="-0.95862">
        <ele>47.288</ele>
        <time>2020-07-19T09:24:10Z</time>
      </trkpt>
      <trkpt lat="47.38117" lon="-0.95869">
        <ele>47.22</ele>
        <time>2020-07-19T09:24:11Z</time>
      </trkpt>
      <trkpt lat="47.38115" lon="-0.95877">
        <ele>46.482</ele>
        <time>2020-07-19T09:24:12Z</time>
      </trkpt>
      <trkpt lat="47.38112" lon="-0.95884">
        <ele>46.4</ele>
        <time>2020-07-19T09:24:13Z</time>
      </trkpt>
      <trkpt lat="47.3811" lon="-0.95891">
        <ele>47.023</ele>
        <time>2020-07-19T09:24:14Z</time>
      </trkpt>
      <trkpt lat="47.38108" lon="-0.95899">
        <ele>48.005</ele>
        <time>2020-07-19T09:24:15Z</time>
      </trkpt>
      <trkpt lat="47.38104" lon="-0.95906">
        <ele>47.848</ele>
        <time>2020-07-19T09:24:16Z</time>
      </trkpt>
      <trkpt lat="47.38101" lon="-0.95914">
        <ele>47.823</ele>
        <time>2020-07-19T09:24:17Z</time>
      </trkpt>
      <trkpt lat="47.38097" lon="-0.95921">
        <ele>49.279</ele>
        <time>2020-07-19T09:24:18Z</time>
      </trkpt>
      <trkpt lat="47.38093" lon="-0.95928">
        <ele>49.439</ele>
        <time>2020-07-19T09:24:19Z</time>
      </trkpt>
      <trkpt lat="47.38088" lon="-0.95935">
        <ele>50.615</ele>
        <time>2020-07-19T09:24:20Z</time>
      </trkpt>
      <trkpt lat="47.38083" lon="-0.9594">
        <ele>49.27</ele>
        <time>2020-07-19T09:24:21Z</time>
      </trkpt>
      <trkpt lat="47.3808" lon="-0.95945">
        <ele>49.69</ele>
        <time>2020-07-19T09:24:22Z</time>
      </trkpt>
      <trkpt lat="47.38075" lon="-0.95948">
        <ele>49.858</ele>
        <time>2020-07-19T09:24:23Z</time>
      </trkpt>
      <trkpt lat="47.38071" lon="-0.95952">
        <ele>49.937</ele>
        <time>2020-07-19T09:24:24Z</time>
      </trkpt>
      <trkpt lat="47.38067" lon="-0.95957">
        <ele>51.162</ele>
        <time>2020-07-19T09:24:25Z</time>
      </trkpt>
      <trkpt lat="47.38062" lon="-0.95963">
        <ele>52.728</ele>
        <time>2020-07-19T09:24:26Z</time>
      </trkpt>
      <trkpt lat="47.38057" lon="-0.95967">
        <ele>51.68</ele>
        <time>2020-07-19T09:24:27Z</time>
      </trkpt>
      <trkpt lat="47.38052" lon="-0.95972">
        <ele>51.692</ele>
        <time>2020-07-19T09:24:28Z</time>
      </trkpt>
      <trkpt lat="47.38048" lon="-0.95977">
        <ele>52.313</ele>
        <time>2020-07-19T09:24:29Z</time>
      </trkpt>
      <trkpt lat="47.38044" lon="-0.95982">
        <ele>51.5</ele>
        <time>2020-07-19T09:24:30Z</time>
      </trkpt>
      <trkpt lat="47.38041" lon="-0.95987">
        <ele>51.447</ele>
        <time>2020-07-19T09:24:31Z</time>
      </trkpt>
      <trkpt lat="47.38038" lon="-0.95992">
        <ele>52.593</ele>
        <time>2020-07-19T09:24:32Z</time>
      </trkpt>
      <trkpt lat="47.38037" lon="-0.96001">
        <ele>50.818</ele>
        <time>2020-07-19T09:24:33Z</time>
      </trkpt>
      <trkpt lat="47.38035" lon="-0.96003">
        <ele>50.728</ele>
        <time>2020-07-19T09:24:34Z</time>
      </trkpt>
      <trkpt lat="47.38034" lon="-0.96009">
        <ele>51.815</ele>
        <time>2020-07-19T09:24:35Z</time>
      </trkpt>
      <trkpt lat="47.38032" lon="-0.96012">
        <ele>50.934</ele>
        <time>2020-07-19T09:24:36Z</time>
      </trkpt>
      <trkpt lat="47.3803" lon="-0.96016">
        <ele>50.995</ele>
        <time>2020-07-19T09:24:37Z</time>
      </trkpt>
      <trkpt lat="47.38031" lon="-0.96017">
        <ele>50.463</ele>
        <time>2020-07-19T09:24:38Z</time>
      </trkpt>
      <trkpt lat="47.38029" lon="-0.96018">
        <ele>50.857</ele>
        <time>2020-07-19T09:24:39Z</time>
      </trkpt>
      <trkpt lat="47.3803" lon="-0.9602">
        <ele>51.421</ele>
        <time>2020-07-19T09:24:40Z</time>
      </trkpt>
      <trkpt lat="47.38029" lon="-0.96021">
        <ele>52.641</ele>
        <time>2020-07-19T09:24:41Z</time>
      </trkpt>
      <trkpt lat="47.38028" lon="-0.96021">
        <ele>51.456</ele>
        <time>2020-07-19T09:24:42Z</time>
      </trkpt>
      <trkpt lat="47.38027" lon="-0.9602">
        <ele>51.489</ele>
        <time>2020-07-19T09:24:43Z</time>
      </trkpt>
      <trkpt lat="47.38027" lon="-0.9602">
        <ele>51.019</ele>
        <time>2020-07-19T09:24:44Z</time>
      </trkpt>
      <trkpt lat="47.38028" lon="-0.9602">
        <ele>50.627</ele>
        <time>2020-07-19T09:24:45Z</time>
      </trkpt>
      <trkpt lat="47.38029" lon="-0.96018">
        <ele>50.499</ele>
        <time>2020-07-19T09:24:46Z</time>
      </trkpt>
      <trkpt lat="47.38029" lon="-0.96016">
        <ele>49.989</ele>
        <time>2020-07-19T09:24:47Z</time>
      </trkpt>
      <trkpt lat="47.3803" lon="-0.96013">
        <ele>49.116</ele>
        <time>2020-07-19T09:24:48Z</time>
      </trkpt>
      <trkpt lat="47.38032" lon="-0.9601">
        <ele>49.869</ele>
        <time>2020-07-19T09:24:49Z</time>
      </trkpt>
      <trkpt lat="47.38034" lon="-0.96006">
        <ele>49.804</ele>
        <time>2020-07-19T09:24:50Z</time>
      </trkpt>
      <trkpt lat="47.38036" lon="-0.96002">
        <ele>50.189</ele>
        <time>2020-07-19T09:24:51Z</time>
      </trkpt>
      <trkpt lat="47.38037" lon="-0.95999">
        <ele>50.636</ele>
        <time>2020-07-19T09:24:52Z</time>
      </trkpt>
      <trkpt lat="47.38039" lon="-0.95995">
        <ele>51.728</ele>
        <time>2020-07-19T09:24:53Z</time>
      </trkpt>
      <trkpt lat="47.3804" lon="-0.95992">
        <ele>52.126</ele>
        <time>2020-07-19T09:24:54Z</time>
      </trkpt>
      <trkpt lat="47.38042" lon="-0.95989">
        <ele>51.921</ele>
        <time>2020-07-19T09:24:55Z</time>
      </trkpt>
      <trkpt lat="47.38043" lon="-0.95986">
        <ele>51.75</ele>
        <time>2020-07-19T09:24:56Z</time>
      </trkpt>
      <trkpt lat="47.38042" lon="-0.95984">
        <ele>51.487</ele>
        <time>2020-07-19T09:24:57Z</time>
      </trkpt>
      <trkpt lat="47.3804" lon="-0.95982">
        <ele>50.377</ele>
        <time>2020-07-19T09:24:58Z</time>
      </trkpt>
      <trkpt lat="47.38039" lon="-0.95982">
        <ele>50.22</ele>
        <time>2020-07-19T09:24:59Z</time>
      </trkpt>
      <trkpt lat="47.38038" lon="-0.95983">
        <ele>50.852</ele>
        <time>2020-07-19T09:25:00Z</time>
      </trkpt>
      <trkpt lat="47.38037" lon="-0.95984">
        <ele>50.769</ele>
        <time>2020-07-19T09:25:01Z</time>
      </trkpt>
      <trkpt lat="47.38036" lon="-0.95984">
        <ele>51.059</ele>
        <time>2020-07-19T09:25:02Z</time>
      </trkpt>
      <trkpt lat="47.38036" lon="-0.95983">
        <ele>52.218</ele>
        <time>2020-07-19T09:25:03Z</time>
      </trkpt>
      <trkpt lat="47.38036" lon="-0.95983">
        <ele>52.546</ele>
        <time>2020-07-19T09:25:04Z</time>
      </trkpt>
      <trkpt lat="47.38035" lon="-0.95983">
        <ele>53.272</ele>
        <time>2020-07-19T09:25:05Z</time>
      </trkpt>
      <trkpt lat="47.38036" lon="-0.95982">
        <ele>52.845</ele>
        <time>2020-07-19T09:25:06Z</time>
      </trkpt>
      <trkpt lat="47.38036" lon="-0.95982">
        <ele>52.842</ele>
        <time>2020-07-19T09:25:07Z</time>
      </trkpt>
      <trkpt lat="47.38036" lon="-0.95982">
        <ele>52.796</ele>
        <time>2020-07-19T09:25:08Z</time>
      </trkpt>
      <trkpt lat="47.38036" lon="-0.95982">
        <ele>53.054</ele>
        <time>2020-07-19T09:25:09Z</time>
      </trkpt>
      <trkpt lat="47.38036" lon="-0.95982">
        <ele>53.018</ele>
        <time>2020-07-19T09:25:10Z</time>
      </trkpt>
      <trkpt lat="47.38035" lon="-0.95983">
        <ele>53.075</ele>
        <time>2020-07-19T09:25:11Z</time>
      </trkpt>
      <trkpt lat="47.38035" lon="-0.95983">
        <ele>54.326</ele>
        <time>2020-07-19T09:25:12Z</time>
      </trkpt>
      <trkpt lat="47.38035" lon="-0.95983">
        <ele>54.406</ele>
        <time>2020-07-19T09:25:13Z</time>
      </trkpt>
      <trkpt lat="47.38035" lon="-0.95982">
        <ele>55.29</ele>
        <time>2020-07-19T09:25:14Z</time>
      </trkpt>
      <trkpt lat="47.38035" lon="-0.95982">
        <ele>56.373</ele>
        <time>2020-07-19T09:25:15Z</time>
      </trkpt>
      <trkpt lat="47.38035" lon="-0.95981">
        <ele>56.757</ele>
        <time>2020-07-19T09:25:16Z</time>
      </trkpt>
      <trkpt lat="47.38035" lon="-0.95981">
        <ele>57.798</ele>
        <time>2020-07-19T09:25:17Z</time>
      </trkpt>
      <trkpt lat="47.38035" lon="-0.95981">
        <ele>58.297</ele>
        <time>2020-07-19T09:25:18Z</time>
      </trkpt>
      <trkpt lat="47.38035" lon="-0.95982">
        <ele>58.33</ele>
        <time>2020-07-19T09:25:19Z</time>
      </trkpt>
      <trkpt lat="47.38035" lon="-0.95982">
        <ele>58.044</ele>
        <time>2020-07-19T09:25:20Z</time>
      </trkpt>
      <trkpt lat="47.38035" lon="-0.95983">
        <ele>58.044</ele>
        <time>2020-07-19T09:25:21Z</time>
      </trkpt>
      <trkpt lat="47.38034" lon="-0.95983">
        <ele>58.098</ele>
        <time>2020-07-19T09:25:22Z</time>
      </trkpt>
      <trkpt lat="47.38034" lon="-0.95983">
        <ele>57.644</ele>
        <time>2020-07-19T09:25:23Z</time>
      </trkpt>
      <trkpt lat="47.38034" lon="-0.95983">
        <ele>57.644</ele>
        <time>2020-07-19T09:25:24Z</time>
      </trkpt>
      <trkpt lat="47.38034" lon="-0.95983">
        <ele>56.846</ele>
        <time>2020-07-19T09:25:25Z</time>
      </trkpt>
      <trkpt lat="47.38033" lon="-0.95983">
        <ele>56.8</ele>
        <time>2020-07-19T09:25:26Z</time>
      </trkpt>
      <trkpt lat="47.38033" lon="-0.95984">
        <ele>56.792</ele>
        <time>2020-07-19T09:25:27Z</time>
      </trkpt>
      <trkpt lat="47.38033" lon="-0.95984">
        <ele>56.741</ele>
        <time>2020-07-19T09:25:28Z</time>
      </trkpt>
      <trkpt lat="47.38033" lon="-0.95983">
        <ele>56.743</ele>
        <time>2020-07-19T09:25:29Z</time>
      </trkpt>
      <trkpt lat="47.38033" lon="-0.95983">
        <ele>56.74</ele>
        <time>2020-07-19T09:25:30Z</time>
      </trkpt>
      <trkpt lat="47.38033" lon="-0.95983">
        <ele>56.734</ele>
        <time>2020-07-19T09:25:31Z</time>
      </trkpt>
      <trkpt lat="47.38033" lon="-0.95983">
        <ele>56.758</ele>
        <time>2020-07-19T09:25:32Z</time>
      </trkpt>
      <trkpt lat="47.38033" lon="-0.95983">
        <ele>56.768</ele>
        <time>2020-07-19T09:25:33Z</time>
      </trkpt>
      <trkpt lat="47.38033" lon="-0.95983">
        <ele>56.768</ele>
        <time>2020-07-19T09:25:34Z</time>
      </trkpt>
      <trkpt lat="47.38033" lon="-0.95983">
        <ele>56.768</ele>
        <time>2020-07-19T09:25:35Z</time>
      </trkpt>
      <trkpt lat="47.38033" lon="-0.95984">
        <ele>56.797</ele>
        <time>2020-07-19T09:25:36Z</time>
      </trkpt>
      <trkpt lat="47.38032" lon="-0.95986">
        <ele>57.176</ele>
        <time>2020-07-19T09:25:37Z</time>
      </trkpt>
      <trkpt lat="47.38032" lon="-0.95989">
        <ele>55.989</ele>
        <time>2020-07-19T09:25:38Z</time>
      </trkpt>
      <trkpt lat="47.38032" lon="-0.95993">
        <ele>55.873</ele>
        <time>2020-07-19T09:25:39Z</time>
      </trkpt>
      <trkpt lat="47.38031" lon="-0.95997">
        <ele>56.29</ele>
        <time>2020-07-19T09:25:40Z</time>
      </trkpt>
      <trkpt lat="47.3803" lon="-0.96">
        <ele>56.235</ele>
        <time>2020-07-19T09:25:41Z</time>
      </trkpt>
      <trkpt lat="47.38029" lon="-0.96003">
        <ele>55.696</ele>
        <time>2020-07-19T09:25:42Z</time>
      </trkpt>
      <trkpt lat="47.38027" lon="-0.96006">
        <ele>56.335</ele>
        <time>2020-07-19T09:25:43Z</time>
      </trkpt>
      <trkpt lat="47.38026" lon="-0.96011">
        <ele>56.2</ele>
        <time>2020-07-19T09:25:44Z</time>
      </trkpt>
      <trkpt lat="47.38025" lon="-0.96015">
        <ele>55.722</ele>
        <time>2020-07-19T09:25:45Z</time>
      </trkpt>
      <trkpt lat="47.38024" lon="-0.96019">
        <ele>56.059</ele>
        <time>2020-07-19T09:25:46Z</time>
      </trkpt>
      <trkpt lat="47.38023" lon="-0.96024">
        <ele>57.249</ele>
        <time>2020-07-19T09:25:47Z</time>
      </trkpt>
      <trkpt lat="47.38022" lon="-0.96028">
        <ele>57.395</ele>
        <time>2020-07-19T09:25:48Z</time>
      </trkpt>
      <trkpt lat="47.38021" lon="-0.96034">
        <ele>56.256</ele>
        <time>2020-07-19T09:25:49Z</time>
      </trkpt>
      <trkpt lat="47.3802" lon="-0.9604">
        <ele>56.435</ele>
        <time>2020-07-19T09:25:50Z</time>
      </trkpt>
      <trkpt lat="47.38019" lon="-0.96046">
        <ele>56.651</ele>
        <time>2020-07-19T09:25:51Z</time>
      </trkpt>
      <trkpt lat="47.38017" lon="-0.96051">
        <ele>56.724</ele>
        <time>2020-07-19T09:25:52Z</time>
      </trkpt>
      <trkpt lat="47.38016" lon="-0.96056">
        <ele>56.524</ele>
        <time>2020-07-19T09:25:53Z</time>
      </trkpt>
      <trkpt lat="47.38015" lon="-0.96061">
        <ele>56.999</ele>
        <time>2020-07-19T09:25:54Z</time>
      </trkpt>
      <trkpt lat="47.38014" lon="-0.96066">
        <ele>56.69</ele>
        <time>2020-07-19T09:25:55Z</time>
      </trkpt>
      <trkpt lat="47.38013" lon="-0.96071">
        <ele>56.831</ele>
        <time>2020-07-19T09:25:56Z</time>
      </trkpt>
      <trkpt lat="47.38012" lon="-0.96075">
        <ele>55.291</ele>
        <time>2020-07-19T09:25:57Z</time>
      </trkpt>
      <trkpt lat="47.3801" lon="-0.9608">
        <ele>55.495</ele>
        <time>2020-07-19T09:25:58Z</time>
      </trkpt>
      <trkpt lat="47.38009" lon="-0.96085">
        <ele>56.35</ele>
        <time>2020-07-19T09:25:59Z</time>
      </trkpt>
      <trkpt lat="47.38008" lon="-0.96091">
        <ele>56.869</ele>
        <time>2020-07-19T09:26:00Z</time>
      </trkpt>
      <trkpt lat="47.38006" lon="-0.96097">
        <ele>57.797</ele>
        <time>2020-07-19T09:26:01Z</time>
      </trkpt>
      <trkpt lat="47.38002" lon="-0.96102">
        <ele>57.61</ele>
        <time>2020-07-19T09:26:02Z</time>
      </trkpt>
      <trkpt lat="47.38002" lon="-0.96109">
        <ele>55.626</ele>
        <time>2020-07-19T09:26:03Z</time>
      </trkpt>
      <trkpt lat="47.38002" lon="-0.96117">
        <ele>53.962</ele>
        <time>2020-07-19T09:26:04Z</time>
      </trkpt>
      <trkpt lat="47.38001" lon="-0.96122">
        <ele>52.869</ele>
        <time>2020-07-19T09:26:05Z</time>
      </trkpt>
      <trkpt lat="47.38" lon="-0.96127">
        <ele>53.745</ele>
        <time>2020-07-19T09:26:06Z</time>
      </trkpt>
      <trkpt lat="47.37999" lon="-0.96134">
        <ele>53.877</ele>
        <time>2020-07-19T09:26:07Z</time>
      </trkpt>
      <trkpt lat="47.38" lon="-0.96142">
        <ele>52.638</ele>
        <time>2020-07-19T09:26:08Z</time>
      </trkpt>
      <trkpt lat="47.38" lon="-0.96146">
        <ele>53.685</ele>
        <time>2020-07-19T09:26:09Z</time>
      </trkpt>
      <trkpt lat="47.38001" lon="-0.96153">
        <ele>54.808</ele>
        <time>2020-07-19T09:26:10Z</time>
      </trkpt>
      <trkpt lat="47.38003" lon="-0.96158">
        <ele>53.583</ele>
        <time>2020-07-19T09:26:11Z</time>
      </trkpt>
      <trkpt lat="47.38006" lon="-0.96163">
        <ele>53.786</ele>
        <time>2020-07-19T09:26:12Z</time>
      </trkpt>
      <trkpt lat="47.38008" lon="-0.96167">
        <ele>53.778</ele>
        <time>2020-07-19T09:26:13Z</time>
      </trkpt>
      <trkpt lat="47.38011" lon="-0.96171">
        <ele>53.254</ele>
        <time>2020-07-19T09:26:14Z</time>
      </trkpt>
      <trkpt lat="47.38014" lon="-0.96175">
        <ele>53.285</ele>
        <time>2020-07-19T09:26:15Z</time>
      </trkpt>
      <trkpt lat="47.38018" lon="-0.96178">
        <ele>53.357</ele>
        <time>2020-07-19T09:26:16Z</time>
      </trkpt>
      <trkpt lat="47.38021" lon="-0.96181">
        <ele>53.57</ele>
        <time>2020-07-19T09:26:17Z</time>
      </trkpt>
      <trkpt lat="47.38024" lon="-0.96185">
        <ele>53.995</ele>
        <time>2020-07-19T09:26:18Z</time>
      </trkpt>
      <trkpt lat="47.38028" lon="-0.96188">
        <ele>54.994</ele>
        <time>2020-07-19T09:26:19Z</time>
      </trkpt>
      <trkpt lat="47.38031" lon="-0.96191">
        <ele>54.625</ele>
        <time>2020-07-19T09:26:20Z</time>
      </trkpt>
      <trkpt lat="47.38034" lon="-0.96196">
        <ele>54.642</ele>
        <time>2020-07-19T09:26:21Z</time>
      </trkpt>
      <trkpt lat="47.38037" lon="-0.96201">
        <ele>54.491</ele>
        <time>2020-07-19T09:26:22Z</time>
      </trkpt>
      <trkpt lat="47.38038" lon="-0.96207">
        <ele>55.747</ele>
        <time>2020-07-19T09:26:23Z</time>
      </trkpt>
      <trkpt lat="47.38035" lon="-0.96217">
        <ele>55.831</ele>
        <time>2020-07-19T09:26:24Z</time>
      </trkpt>
      <trkpt lat="47.38036" lon="-0.96222">
        <ele>55.563</ele>
        <time>2020-07-19T09:26:25Z</time>
      </trkpt>
      <trkpt lat="47.38034" lon="-0.96229">
        <ele>56.141</ele>
        <time>2020-07-19T09:26:26Z</time>
      </trkpt>
      <trkpt lat="47.38033" lon="-0.96236">
        <ele>56.369</ele>
        <time>2020-07-19T09:26:27Z</time>
      </trkpt>
      <trkpt lat="47.38033" lon="-0.96244">
        <ele>56.221</ele>
        <time>2020-07-19T09:26:28Z</time>
      </trkpt>
      <trkpt lat="47.38033" lon="-0.96251">
        <ele>56.34</ele>
        <time>2020-07-19T09:26:29Z</time>
      </trkpt>
      <trkpt lat="47.38032" lon="-0.96258">
        <ele>57.382</ele>
        <time>2020-07-19T09:26:30Z</time>
      </trkpt>
      <trkpt lat="47.38031" lon="-0.96265">
        <ele>57.477</ele>
        <time>2020-07-19T09:26:31Z</time>
      </trkpt>
      <trkpt lat="47.38029" lon="-0.96273">
        <ele>57.695</ele>
        <time>2020-07-19T09:26:32Z</time>
      </trkpt>
      <trkpt lat="47.38027" lon="-0.9628">
        <ele>57.735</ele>
        <time>2020-07-19T09:26:33Z</time>
      </trkpt>
      <trkpt lat="47.38026" lon="-0.96289">
        <ele>58.313</ele>
        <time>2020-07-19T09:26:34Z</time>
      </trkpt>
      <trkpt lat="47.38026" lon="-0.96295">
        <ele>57.658</ele>
        <time>2020-07-19T09:26:35Z</time>
      </trkpt>
      <trkpt lat="47.38025" lon="-0.96303">
        <ele>57.476</ele>
        <time>2020-07-19T09:26:36Z</time>
      </trkpt>
      <trkpt lat="47.38024" lon="-0.96308">
        <ele>56.386</ele>
        <time>2020-07-19T09:26:37Z</time>
      </trkpt>
      <trkpt lat="47.38024" lon="-0.96315">
        <ele>55.237</ele>
        <time>2020-07-19T09:26:38Z</time>
      </trkpt>
      <trkpt lat="47.38023" lon="-0.96321">
        <ele>55.13</ele>
        <time>2020-07-19T09:26:39Z</time>
      </trkpt>
      <trkpt lat="47.38022" lon="-0.96328">
        <ele>54.91</ele>
        <time>2020-07-19T09:26:40Z</time>
      </trkpt>
      <trkpt lat="47.38018" lon="-0.96335">
        <ele>54.871</ele>
        <time>2020-07-19T09:26:41Z</time>
      </trkpt>
      <trkpt lat="47.38016" lon="-0.96343">
        <ele>54.656</ele>
        <time>2020-07-19T09:26:42Z</time>
      </trkpt>
      <trkpt lat="47.38014" lon="-0.96351">
        <ele>55.233</ele>
        <time>2020-07-19T09:26:43Z</time>
      </trkpt>
      <trkpt lat="47.38011" lon="-0.96359">
        <ele>55.009</ele>
        <time>2020-07-19T09:26:44Z</time>
      </trkpt>
      <trkpt lat="47.38008" lon="-0.96363">
        <ele>51.746</ele>
        <time>2020-07-19T09:26:45Z</time>
      </trkpt>
      <trkpt lat="47.38009" lon="-0.96369">
        <ele>53.594</ele>
        <time>2020-07-19T09:26:46Z</time>
      </trkpt>
      <trkpt lat="47.38007" lon="-0.96373">
        <ele>55.403</ele>
        <time>2020-07-19T09:26:47Z</time>
      </trkpt>
      <trkpt lat="47.38004" lon="-0.96374">
        <ele>56.363</ele>
        <time>2020-07-19T09:26:48Z</time>
      </trkpt>
      <trkpt lat="47.38002" lon="-0.96373">
        <ele>55.837</ele>
        <time>2020-07-19T09:26:49Z</time>
      </trkpt>
      <trkpt lat="47.37998" lon="-0.96374">
        <ele>54.427</ele>
        <time>2020-07-19T09:26:50Z</time>
      </trkpt>
      <trkpt lat="47.37993" lon="-0.96374">
        <ele>54.452</ele>
        <time>2020-07-19T09:26:51Z</time>
      </trkpt>
      <trkpt lat="47.37989" lon="-0.96372">
        <ele>55.982</ele>
        <time>2020-07-19T09:26:52Z</time>
      </trkpt>
      <trkpt lat="47.37984" lon="-0.96371">
        <ele>55.962</ele>
        <time>2020-07-19T09:26:53Z</time>
      </trkpt>
      <trkpt lat="47.3798" lon="-0.96372">
        <ele>54.64</ele>
        <time>2020-07-19T09:26:54Z</time>
      </trkpt>
      <trkpt lat="47.37976" lon="-0.96373">
        <ele>54.517</ele>
        <time>2020-07-19T09:26:55Z</time>
      </trkpt>
      <trkpt lat="47.37973" lon="-0.96379">
        <ele>53.519</ele>
        <time>2020-07-19T09:26:56Z</time>
      </trkpt>
      <trkpt lat="47.37968" lon="-0.96385">
        <ele>53.927</ele>
        <time>2020-07-19T09:26:57Z</time>
      </trkpt>
      <trkpt lat="47.37966" lon="-0.9639">
        <ele>54.244</ele>
        <time>2020-07-19T09:26:58Z</time>
      </trkpt>
      <trkpt lat="47.37964" lon="-0.96399">
        <ele>54.379</ele>
        <time>2020-07-19T09:26:59Z</time>
      </trkpt>
      <trkpt lat="47.37964" lon="-0.96406">
        <ele>51.923</ele>
        <time>2020-07-19T09:27:00Z</time>
      </trkpt>
      <trkpt lat="47.37964" lon="-0.96411">
        <ele>53.779</ele>
        <time>2020-07-19T09:27:01Z</time>
      </trkpt>
      <trkpt lat="47.37963" lon="-0.96419">
        <ele>52.587</ele>
        <time>2020-07-19T09:27:02Z</time>
      </trkpt>
      <trkpt lat="47.37964" lon="-0.96425">
        <ele>51.064</ele>
        <time>2020-07-19T09:27:03Z</time>
      </trkpt>
      <trkpt lat="47.37961" lon="-0.96432">
        <ele>51.544</ele>
        <time>2020-07-19T09:27:04Z</time>
      </trkpt>
      <trkpt lat="47.37961" lon="-0.9644">
        <ele>49.48</ele>
        <time>2020-07-19T09:27:05Z</time>
      </trkpt>
      <trkpt lat="47.37962" lon="-0.96447">
        <ele>49.479</ele>
        <time>2020-07-19T09:27:06Z</time>
      </trkpt>
      <trkpt lat="47.37961" lon="-0.96456">
        <ele>48.372</ele>
        <time>2020-07-19T09:27:07Z</time>
      </trkpt>
      <trkpt lat="47.3796" lon="-0.96465">
        <ele>49.435</ele>
        <time>2020-07-19T09:27:08Z</time>
      </trkpt>
      <trkpt lat="47.3796" lon="-0.96475">
        <ele>50.555</ele>
        <time>2020-07-19T09:27:09Z</time>
      </trkpt>
      <trkpt lat="47.37959" lon="-0.96481">
        <ele>50.018</ele>
        <time>2020-07-19T09:27:10Z</time>
      </trkpt>
      <trkpt lat="47.37959" lon="-0.9649">
        <ele>50.634</ele>
        <time>2020-07-19T09:27:11Z</time>
      </trkpt>
      <trkpt lat="47.3796" lon="-0.96499">
        <ele>50.886</ele>
        <time>2020-07-19T09:27:12Z</time>
      </trkpt>
      <trkpt lat="47.3796" lon="-0.96508">
        <ele>51.308</ele>
        <time>2020-07-19T09:27:13Z</time>
      </trkpt>
      <trkpt lat="47.37958" lon="-0.96516">
        <ele>51.881</ele>
        <time>2020-07-19T09:27:14Z</time>
      </trkpt>
      <trkpt lat="47.37957" lon="-0.96525">
        <ele>51.961</ele>
        <time>2020-07-19T09:27:15Z</time>
      </trkpt>
      <trkpt lat="47.37956" lon="-0.96534">
        <ele>52.226</ele>
        <time>2020-07-19T09:27:16Z</time>
      </trkpt>
      <trkpt lat="47.37955" lon="-0.96543">
        <ele>52.097</ele>
        <time>2020-07-19T09:27:17Z</time>
      </trkpt>
      <trkpt lat="47.37955" lon="-0.96552">
        <ele>51.886</ele>
        <time>2020-07-19T09:27:18Z</time>
      </trkpt>
      <trkpt lat="47.37954" lon="-0.96561">
        <ele>53.638</ele>
        <time>2020-07-19T09:27:19Z</time>
      </trkpt>
      <trkpt lat="47.37954" lon="-0.96568">
        <ele>53.57</ele>
        <time>2020-07-19T09:27:20Z</time>
      </trkpt>
      <trkpt lat="47.37955" lon="-0.96576">
        <ele>53.714</ele>
        <time>2020-07-19T09:27:21Z</time>
      </trkpt>
      <trkpt lat="47.37955" lon="-0.96585">
        <ele>54.048</ele>
        <time>2020-07-19T09:27:22Z</time>
      </trkpt>
      <trkpt lat="47.37954" lon="-0.96594">
        <ele>53.866</ele>
        <time>2020-07-19T09:27:23Z</time>
      </trkpt>
      <trkpt lat="47.37953" lon="-0.96603">
        <ele>54.601</ele>
        <time>2020-07-19T09:27:24Z</time>
      </trkpt>
      <trkpt lat="47.37953" lon="-0.96612">
        <ele>54.99</ele>
        <time>2020-07-19T09:27:25Z</time>
      </trkpt>
      <trkpt lat="47.37952" lon="-0.96621">
        <ele>54.711</ele>
        <time>2020-07-19T09:27:26Z</time>
      </trkpt>
      <trkpt lat="47.37951" lon="-0.96629">
        <ele>54.654</ele>
        <time>2020-07-19T09:27:27Z</time>
      </trkpt>
      <trkpt lat="47.37951" lon="-0.96639">
        <ele>54.719</ele>
        <time>2020-07-19T09:27:28Z</time>
      </trkpt>
      <trkpt lat="47.37949" lon="-0.96648">
        <ele>54.675</ele>
        <time>2020-07-19T09:27:29Z</time>
      </trkpt>
      <trkpt lat="47.37949" lon="-0.96657">
        <ele>55.118</ele>
        <time>2020-07-19T09:27:30Z</time>
      </trkpt>
      <trkpt lat="47.37947" lon="-0.96667">
        <ele>55.422</ele>
        <time>2020-07-19T09:27:31Z</time>
      </trkpt>
      <trkpt lat="47.37946" lon="-0.96676">
        <ele>54.788</ele>
        <time>2020-07-19T09:27:32Z</time>
      </trkpt>
      <trkpt lat="47.37944" lon="-0.96684">
        <ele>54.911</ele>
        <time>2020-07-19T09:27:33Z</time>
      </trkpt>
      <trkpt lat="47.37943" lon="-0.96692">
        <ele>54.206</ele>
        <time>2020-07-19T09:27:34Z</time>
      </trkpt>
      <trkpt lat="47.37942" lon="-0.967">
        <ele>54.318</ele>
        <time>2020-07-19T09:27:35Z</time>
      </trkpt>
      <trkpt lat="47.37941" lon="-0.96708">
        <ele>53.629</ele>
        <time>2020-07-19T09:27:36Z</time>
      </trkpt>
      <trkpt lat="47.37939" lon="-0.96716">
        <ele>53.815</ele>
        <time>2020-07-19T09:27:37Z</time>
      </trkpt>
      <trkpt lat="47.37939" lon="-0.96725">
        <ele>53.694</ele>
        <time>2020-07-19T09:27:38Z</time>
      </trkpt>
      <trkpt lat="47.37939" lon="-0.96733">
        <ele>53.825</ele>
        <time>2020-07-19T09:27:39Z</time>
      </trkpt>
      <trkpt lat="47.37938" lon="-0.96742">
        <ele>53.885</ele>
        <time>2020-07-19T09:27:40Z</time>
      </trkpt>
      <trkpt lat="47.37937" lon="-0.96751">
        <ele>53.806</ele>
        <time>2020-07-19T09:27:41Z</time>
      </trkpt>
      <trkpt lat="47.37937" lon="-0.96758">
        <ele>53.947</ele>
        <time>2020-07-19T09:27:42Z</time>
      </trkpt>
      <trkpt lat="47.37936" lon="-0.96768">
        <ele>53.554</ele>
        <time>2020-07-19T09:27:43Z</time>
      </trkpt>
      <trkpt lat="47.37933" lon="-0.96776">
        <ele>53.374</ele>
        <time>2020-07-19T09:27:44Z</time>
      </trkpt>
      <trkpt lat="47.37932" lon="-0.96785">
        <ele>54.651</ele>
        <time>2020-07-19T09:27:45Z</time>
      </trkpt>
      <trkpt lat="47.37931" lon="-0.96792">
        <ele>54.208</ele>
        <time>2020-07-19T09:27:46Z</time>
      </trkpt>
      <trkpt lat="47.37929" lon="-0.968">
        <ele>53.79</ele>
        <time>2020-07-19T09:27:47Z</time>
      </trkpt>
      <trkpt lat="47.37927" lon="-0.96808">
        <ele>54.082</ele>
        <time>2020-07-19T09:27:48Z</time>
      </trkpt>
      <trkpt lat="47.37926" lon="-0.96819">
        <ele>54.623</ele>
        <time>2020-07-19T09:27:49Z</time>
      </trkpt>
      <trkpt lat="47.37924" lon="-0.96828">
        <ele>54.354</ele>
        <time>2020-07-19T09:27:50Z</time>
      </trkpt>
      <trkpt lat="47.37922" lon="-0.96838">
        <ele>55.265</ele>
        <time>2020-07-19T09:27:51Z</time>
      </trkpt>
      <trkpt lat="47.37921" lon="-0.96846">
        <ele>55.615</ele>
        <time>2020-07-19T09:27:52Z</time>
      </trkpt>
      <trkpt lat="47.3792" lon="-0.96856">
        <ele>56.145</ele>
        <time>2020-07-19T09:27:53Z</time>
      </trkpt>
      <trkpt lat="47.37919" lon="-0.96866">
        <ele>54.778</ele>
        <time>2020-07-19T09:27:54Z</time>
      </trkpt>
      <trkpt lat="47.37918" lon="-0.96875">
        <ele>56.319</ele>
        <time>2020-07-19T09:27:55Z</time>
      </trkpt>
      <trkpt lat="47.37917" lon="-0.96884">
        <ele>56.233</ele>
        <time>2020-07-19T09:27:56Z</time>
      </trkpt>
      <trkpt lat="47.37915" lon="-0.96893">
        <ele>56.311</ele>
        <time>2020-07-19T09:27:57Z</time>
      </trkpt>
      <trkpt lat="47.37915" lon="-0.96903">
        <ele>57.658</ele>
        <time>2020-07-19T09:27:58Z</time>
      </trkpt>
      <trkpt lat="47.37913" lon="-0.96911">
        <ele>57.763</ele>
        <time>2020-07-19T09:27:59Z</time>
      </trkpt>
      <trkpt lat="47.37912" lon="-0.96919">
        <ele>57.644</ele>
        <time>2020-07-19T09:28:00Z</time>
      </trkpt>
      <trkpt lat="47.3791" lon="-0.96927">
        <ele>57.946</ele>
        <time>2020-07-19T09:28:01Z</time>
      </trkpt>
      <trkpt lat="47.37909" lon="-0.96934">
        <ele>56.652</ele>
        <time>2020-07-19T09:28:02Z</time>
      </trkpt>
      <trkpt lat="47.37907" lon="-0.96942">
        <ele>56.454</ele>
        <time>2020-07-19T09:28:03Z</time>
      </trkpt>
      <trkpt lat="47.37907" lon="-0.9695">
        <ele>57.101</ele>
        <time>2020-07-19T09:28:04Z</time>
      </trkpt>
      <trkpt lat="47.37906" lon="-0.96956">
        <ele>56.404</ele>
        <time>2020-07-19T09:28:05Z</time>
      </trkpt>
      <trkpt lat="47.37904" lon="-0.96965">
        <ele>57.291</ele>
        <time>2020-07-19T09:28:06Z</time>
      </trkpt>
      <trkpt lat="47.37903" lon="-0.96975">
        <ele>57.359</ele>
        <time>2020-07-19T09:28:07Z</time>
      </trkpt>
      <trkpt lat="47.37899" lon="-0.96984">
        <ele>57.969</ele>
        <time>2020-07-19T09:28:08Z</time>
      </trkpt>
      <trkpt lat="47.37897" lon="-0.96991">
        <ele>58.113</ele>
        <time>2020-07-19T09:28:09Z</time>
      </trkpt>
      <trkpt lat="47.37895" lon="-0.96999">
        <ele>58.738</ele>
        <time>2020-07-19T09:28:10Z</time>
      </trkpt>
      <trkpt lat="47.37893" lon="-0.97006">
        <ele>58.702</ele>
        <time>2020-07-19T09:28:11Z</time>
      </trkpt>
      <trkpt lat="47.37891" lon="-0.97014">
        <ele>58.973</ele>
        <time>2020-07-19T09:28:12Z</time>
      </trkpt>
      <trkpt lat="47.37889" lon="-0.97022">
        <ele>58.342</ele>
        <time>2020-07-19T09:28:13Z</time>
      </trkpt>
      <trkpt lat="47.37886" lon="-0.9703">
        <ele>58.599</ele>
        <time>2020-07-19T09:28:14Z</time>
      </trkpt>
      <trkpt lat="47.37884" lon="-0.97038">
        <ele>58.678</ele>
        <time>2020-07-19T09:28:15Z</time>
      </trkpt>
      <trkpt lat="47.37881" lon="-0.97046">
        <ele>58.435</ele>
        <time>2020-07-19T09:28:16Z</time>
      </trkpt>
      <trkpt lat="47.37878" lon="-0.97055">
        <ele>59.226</ele>
        <time>2020-07-19T09:28:17Z</time>
      </trkpt>
      <trkpt lat="47.37876" lon="-0.97061">
        <ele>57.299</ele>
        <time>2020-07-19T09:28:18Z</time>
      </trkpt>
      <trkpt lat="47.37874" lon="-0.97069">
        <ele>57.522</ele>
        <time>2020-07-19T09:28:19Z</time>
      </trkpt>
      <trkpt lat="47.37872" lon="-0.97078">
        <ele>57.406</ele>
        <time>2020-07-19T09:28:20Z</time>
      </trkpt>
      <trkpt lat="47.3787" lon="-0.97086">
        <ele>56.682</ele>
        <time>2020-07-19T09:28:21Z</time>
      </trkpt>
      <trkpt lat="47.3787" lon="-0.97095">
        <ele>56.514</ele>
        <time>2020-07-19T09:28:22Z</time>
      </trkpt>
      <trkpt lat="47.37867" lon="-0.97103">
        <ele>56.884</ele>
        <time>2020-07-19T09:28:23Z</time>
      </trkpt>
      <trkpt lat="47.37865" lon="-0.97112">
        <ele>56.542</ele>
        <time>2020-07-19T09:28:24Z</time>
      </trkpt>
      <trkpt lat="47.37864" lon="-0.97121">
        <ele>56.495</ele>
        <time>2020-07-19T09:28:25Z</time>
      </trkpt>
      <trkpt lat="47.37861" lon="-0.9713">
        <ele>56.956</ele>
        <time>2020-07-19T09:28:26Z</time>
      </trkpt>
      <trkpt lat="47.3786" lon="-0.97138">
        <ele>56.422</ele>
        <time>2020-07-19T09:28:27Z</time>
      </trkpt>
      <trkpt lat="47.37859" lon="-0.97146">
        <ele>55.712</ele>
        <time>2020-07-19T09:28:28Z</time>
      </trkpt>
      <trkpt lat="47.37856" lon="-0.97154">
        <ele>54.872</ele>
        <time>2020-07-19T09:28:29Z</time>
      </trkpt>
      <trkpt lat="47.37855" lon="-0.97164">
        <ele>55.748</ele>
        <time>2020-07-19T09:28:30Z</time>
      </trkpt>
      <trkpt lat="47.37852" lon="-0.97172">
        <ele>55.245</ele>
        <time>2020-07-19T09:28:31Z</time>
      </trkpt>
      <trkpt lat="47.37849" lon="-0.97182">
        <ele>56.242</ele>
        <time>2020-07-19T09:28:32Z</time>
      </trkpt>
      <trkpt lat="47.37847" lon="-0.9719">
        <ele>56.049</ele>
        <time>2020-07-19T09:28:33Z</time>
      </trkpt>
      <trkpt lat="47.37845" lon="-0.972">
        <ele>56.437</ele>
        <time>2020-07-19T09:28:34Z</time>
      </trkpt>
      <trkpt lat="47.37844" lon="-0.9721">
        <ele>57.175</ele>
        <time>2020-07-19T09:28:35Z</time>
      </trkpt>
      <trkpt lat="47.37843" lon="-0.97219">
        <ele>58.808</ele>
        <time>2020-07-19T09:28:36Z</time>
      </trkpt>
      <trkpt lat="47.37842" lon="-0.97228">
        <ele>58.726</ele>
        <time>2020-07-19T09:28:37Z</time>
      </trkpt>
      <trkpt lat="47.37842" lon="-0.97236">
        <ele>58.865</ele>
        <time>2020-07-19T09:28:38Z</time>
      </trkpt>
      <trkpt lat="47.37842" lon="-0.97245">
        <ele>58.755</ele>
        <time>2020-07-19T09:28:39Z</time>
      </trkpt>
      <trkpt lat="47.3784" lon="-0.97254">
        <ele>58.878</ele>
        <time>2020-07-19T09:28:40Z</time>
      </trkpt>
      <trkpt lat="47.37839" lon="-0.97263">
        <ele>59.779</ele>
        <time>2020-07-19T09:28:41Z</time>
      </trkpt>
      <trkpt lat="47.37838" lon="-0.97271">
        <ele>59.865</ele>
        <time>2020-07-19T09:28:42Z</time>
      </trkpt>
      <trkpt lat="47.37838" lon="-0.97279">
        <ele>60.373</ele>
        <time>2020-07-19T09:28:43Z</time>
      </trkpt>
      <trkpt lat="47.37837" lon="-0.97288">
        <ele>60.443</ele>
        <time>2020-07-19T09:28:44Z</time>
      </trkpt>
      <trkpt lat="47.37835" lon="-0.97297">
        <ele>59.678</ele>
        <time>2020-07-19T09:28:45Z</time>
      </trkpt>
      <trkpt lat="47.37833" lon="-0.97307">
        <ele>59.669</ele>
        <time>2020-07-19T09:28:46Z</time>
      </trkpt>
      <trkpt lat="47.37831" lon="-0.97317">
        <ele>59.733</ele>
        <time>2020-07-19T09:28:47Z</time>
      </trkpt>
      <trkpt lat="47.37828" lon="-0.97327">
        <ele>59.551</ele>
        <time>2020-07-19T09:28:48Z</time>
      </trkpt>
      <trkpt lat="47.37827" lon="-0.97336">
        <ele>59.676</ele>
        <time>2020-07-19T09:28:49Z</time>
      </trkpt>
      <trkpt lat="47.37823" lon="-0.97345">
        <ele>59.903</ele>
        <time>2020-07-19T09:28:50Z</time>
      </trkpt>
      <trkpt lat="47.37822" lon="-0.97355">
        <ele>59.731</ele>
        <time>2020-07-19T09:28:51Z</time>
      </trkpt>
      <trkpt lat="47.37821" lon="-0.97364">
        <ele>59.482</ele>
        <time>2020-07-19T09:28:52Z</time>
      </trkpt>
      <trkpt lat="47.3782" lon="-0.97374">
        <ele>60.646</ele>
        <time>2020-07-19T09:28:53Z</time>
      </trkpt>
      <trkpt lat="47.37818" lon="-0.97383">
        <ele>60.701</ele>
        <time>2020-07-19T09:28:54Z</time>
      </trkpt>
      <trkpt lat="47.37817" lon="-0.97392">
        <ele>60.699</ele>
        <time>2020-07-19T09:28:55Z</time>
      </trkpt>
      <trkpt lat="47.37816" lon="-0.97401">
        <ele>59.61</ele>
        <time>2020-07-19T09:28:56Z</time>
      </trkpt>
      <trkpt lat="47.37815" lon="-0.9741">
        <ele>59.127</ele>
        <time>2020-07-19T09:28:57Z</time>
      </trkpt>
      <trkpt lat="47.37816" lon="-0.97418">
        <ele>58.606</ele>
        <time>2020-07-19T09:28:58Z</time>
      </trkpt>
      <trkpt lat="47.37815" lon="-0.97428">
        <ele>58.369</ele>
        <time>2020-07-19T09:28:59Z</time>
      </trkpt>
      <trkpt lat="47.37814" lon="-0.97439">
        <ele>58.026</ele>
        <time>2020-07-19T09:29:00Z</time>
      </trkpt>
      <trkpt lat="47.37812" lon="-0.9745">
        <ele>59.5</ele>
        <time>2020-07-19T09:29:01Z</time>
      </trkpt>
      <trkpt lat="47.37811" lon="-0.97459">
        <ele>59.315</ele>
        <time>2020-07-19T09:29:02Z</time>
      </trkpt>
      <trkpt lat="47.3781" lon="-0.97466">
        <ele>58.421</ele>
        <time>2020-07-19T09:29:03Z</time>
      </trkpt>
      <trkpt lat="47.37811" lon="-0.97476">
        <ele>57.56</ele>
        <time>2020-07-19T09:29:04Z</time>
      </trkpt>
      <trkpt lat="47.37808" lon="-0.97486">
        <ele>57.66</ele>
        <time>2020-07-19T09:29:05Z</time>
      </trkpt>
      <trkpt lat="47.37808" lon="-0.97495">
        <ele>57.816</ele>
        <time>2020-07-19T09:29:06Z</time>
      </trkpt>
      <trkpt lat="47.37807" lon="-0.97505">
        <ele>56.276</ele>
        <time>2020-07-19T09:29:07Z</time>
      </trkpt>
      <trkpt lat="47.37805" lon="-0.97514">
        <ele>57.192</ele>
        <time>2020-07-19T09:29:08Z</time>
      </trkpt>
      <trkpt lat="47.37805" lon="-0.97525">
        <ele>58.284</ele>
        <time>2020-07-19T09:29:09Z</time>
      </trkpt>
      <trkpt lat="47.37804" lon="-0.97534">
        <ele>57.924</ele>
        <time>2020-07-19T09:29:10Z</time>
      </trkpt>
      <trkpt lat="47.37803" lon="-0.97543">
        <ele>58.524</ele>
        <time>2020-07-19T09:29:11Z</time>
      </trkpt>
      <trkpt lat="47.37802" lon="-0.97554">
        <ele>58.499</ele>
        <time>2020-07-19T09:29:12Z</time>
      </trkpt>
      <trkpt lat="47.37802" lon="-0.97564">
        <ele>58.642</ele>
        <time>2020-07-19T09:29:13Z</time>
      </trkpt>
      <trkpt lat="47.37801" lon="-0.97573">
        <ele>59.003</ele>
        <time>2020-07-19T09:29:14Z</time>
      </trkpt>
      <trkpt lat="47.37799" lon="-0.97581">
        <ele>59.774</ele>
        <time>2020-07-19T09:29:15Z</time>
      </trkpt>
      <trkpt lat="47.37798" lon="-0.9759">
        <ele>60.227</ele>
        <time>2020-07-19T09:29:16Z</time>
      </trkpt>
      <trkpt lat="47.37798" lon="-0.97599">
        <ele>61.196</ele>
        <time>2020-07-19T09:29:17Z</time>
      </trkpt>
      <trkpt lat="47.37797" lon="-0.97608">
        <ele>60.612</ele>
        <time>2020-07-19T09:29:18Z</time>
      </trkpt>
      <trkpt lat="47.37797" lon="-0.97617">
        <ele>60.527</ele>
        <time>2020-07-19T09:29:19Z</time>
      </trkpt>
      <trkpt lat="47.37796" lon="-0.97626">
        <ele>59.907</ele>
        <time>2020-07-19T09:29:20Z</time>
      </trkpt>
      <trkpt lat="47.37795" lon="-0.97635">
        <ele>60.014</ele>
        <time>2020-07-19T09:29:21Z</time>
      </trkpt>
      <trkpt lat="47.37793" lon="-0.97646">
        <ele>59.416</ele>
        <time>2020-07-19T09:29:22Z</time>
      </trkpt>
      <trkpt lat="47.37792" lon="-0.97656">
        <ele>60.754</ele>
        <time>2020-07-19T09:29:23Z</time>
      </trkpt>
      <trkpt lat="47.37792" lon="-0.97666">
        <ele>61.914</ele>
        <time>2020-07-19T09:29:24Z</time>
      </trkpt>
      <trkpt lat="47.37791" lon="-0.97675">
        <ele>61.373</ele>
        <time>2020-07-19T09:29:25Z</time>
      </trkpt>
      <trkpt lat="47.37791" lon="-0.97685">
        <ele>61.39</ele>
        <time>2020-07-19T09:29:26Z</time>
      </trkpt>
      <trkpt lat="47.3779" lon="-0.97693">
        <ele>60.695</ele>
        <time>2020-07-19T09:29:27Z</time>
      </trkpt>
      <trkpt lat="47.37787" lon="-0.97701">
        <ele>58.947</ele>
        <time>2020-07-19T09:29:28Z</time>
      </trkpt>
      <trkpt lat="47.37786" lon="-0.9771">
        <ele>58.46</ele>
        <time>2020-07-19T09:29:29Z</time>
      </trkpt>
      <trkpt lat="47.37784" lon="-0.97719">
        <ele>58.389</ele>
        <time>2020-07-19T09:29:30Z</time>
      </trkpt>
      <trkpt lat="47.37782" lon="-0.97729">
        <ele>58.705</ele>
        <time>2020-07-19T09:29:31Z</time>
      </trkpt>
      <trkpt lat="47.3778" lon="-0.97739">
        <ele>58.201</ele>
        <time>2020-07-19T09:29:32Z</time>
      </trkpt>
      <trkpt lat="47.37778" lon="-0.97749">
        <ele>59.078</ele>
        <time>2020-07-19T09:29:33Z</time>
      </trkpt>
      <trkpt lat="47.37778" lon="-0.97758">
        <ele>59.111</ele>
        <time>2020-07-19T09:29:34Z</time>
      </trkpt>
      <trkpt lat="47.37776" lon="-0.97768">
        <ele>58.671</ele>
        <time>2020-07-19T09:29:35Z</time>
      </trkpt>
      <trkpt lat="47.37775" lon="-0.97778">
        <ele>59.949</ele>
        <time>2020-07-19T09:29:36Z</time>
      </trkpt>
      <trkpt lat="47.37774" lon="-0.97788">
        <ele>59.101</ele>
        <time>2020-07-19T09:29:37Z</time>
      </trkpt>
      <trkpt lat="47.37774" lon="-0.97795">
        <ele>58.491</ele>
        <time>2020-07-19T09:29:38Z</time>
      </trkpt>
      <trkpt lat="47.37772" lon="-0.97804">
        <ele>57.673</ele>
        <time>2020-07-19T09:29:39Z</time>
      </trkpt>
      <trkpt lat="47.37771" lon="-0.97811">
        <ele>57.858</ele>
        <time>2020-07-19T09:29:40Z</time>
      </trkpt>
      <trkpt lat="47.37771" lon="-0.9782">
        <ele>57.781</ele>
        <time>2020-07-19T09:29:41Z</time>
      </trkpt>
      <trkpt lat="47.37768" lon="-0.97829">
        <ele>59.161</ele>
        <time>2020-07-19T09:29:42Z</time>
      </trkpt>
      <trkpt lat="47.37768" lon="-0.97839">
        <ele>59.546</ele>
        <time>2020-07-19T09:29:43Z</time>
      </trkpt>
      <trkpt lat="47.37767" lon="-0.97848">
        <ele>60.183</ele>
        <time>2020-07-19T09:29:44Z</time>
      </trkpt>
      <trkpt lat="47.37767" lon="-0.97857">
        <ele>59.572</ele>
        <time>2020-07-19T09:29:45Z</time>
      </trkpt>
      <trkpt lat="47.37765" lon="-0.97867">
        <ele>59.958</ele>
        <time>2020-07-19T09:29:46Z</time>
      </trkpt>
      <trkpt lat="47.37763" lon="-0.97878">
        <ele>60.522</ele>
        <time>2020-07-19T09:29:47Z</time>
      </trkpt>
      <trkpt lat="47.37762" lon="-0.97888">
        <ele>60.956</ele>
        <time>2020-07-19T09:29:48Z</time>
      </trkpt>
      <trkpt lat="47.3776" lon="-0.97898">
        <ele>61.14</ele>
        <time>2020-07-19T09:29:49Z</time>
      </trkpt>
      <trkpt lat="47.37758" lon="-0.97907">
        <ele>60.942</ele>
        <time>2020-07-19T09:29:50Z</time>
      </trkpt>
      <trkpt lat="47.37757" lon="-0.97916">
        <ele>62.859</ele>
        <time>2020-07-19T09:29:51Z</time>
      </trkpt>
      <trkpt lat="47.37756" lon="-0.97924">
        <ele>60.53</ele>
        <time>2020-07-19T09:29:52Z</time>
      </trkpt>
      <trkpt lat="47.37755" lon="-0.97934">
        <ele>60.274</ele>
        <time>2020-07-19T09:29:53Z</time>
      </trkpt>
      <trkpt lat="47.37753" lon="-0.97943">
        <ele>60.42</ele>
        <time>2020-07-19T09:29:54Z</time>
      </trkpt>
      <trkpt lat="47.37752" lon="-0.97953">
        <ele>60.892</ele>
        <time>2020-07-19T09:29:55Z</time>
      </trkpt>
      <trkpt lat="47.37752" lon="-0.97963">
        <ele>61.511</ele>
        <time>2020-07-19T09:29:56Z</time>
      </trkpt>
      <trkpt lat="47.37748" lon="-0.97973">
        <ele>62.775</ele>
        <time>2020-07-19T09:29:57Z</time>
      </trkpt>
      <trkpt lat="47.37745" lon="-0.97983">
        <ele>63.093</ele>
        <time>2020-07-19T09:29:58Z</time>
      </trkpt>
      <trkpt lat="47.37744" lon="-0.97992">
        <ele>62.224</ele>
        <time>2020-07-19T09:29:59Z</time>
      </trkpt>
      <trkpt lat="47.37743" lon="-0.98">
        <ele>60.442</ele>
        <time>2020-07-19T09:30:00Z</time>
      </trkpt>
      <trkpt lat="47.37742" lon="-0.98009">
        <ele>59.492</ele>
        <time>2020-07-19T09:30:01Z</time>
      </trkpt>
      <trkpt lat="47.3774" lon="-0.98019">
        <ele>59.653</ele>
        <time>2020-07-19T09:30:02Z</time>
      </trkpt>
      <trkpt lat="47.37738" lon="-0.98028">
        <ele>59.683</ele>
        <time>2020-07-19T09:30:03Z</time>
      </trkpt>
      <trkpt lat="47.37737" lon="-0.98038">
        <ele>59.327</ele>
        <time>2020-07-19T09:30:04Z</time>
      </trkpt>
      <trkpt lat="47.37735" lon="-0.98046">
        <ele>57.611</ele>
        <time>2020-07-19T09:30:05Z</time>
      </trkpt>
      <trkpt lat="47.37733" lon="-0.98056">
        <ele>59.259</ele>
        <time>2020-07-19T09:30:06Z</time>
      </trkpt>
      <trkpt lat="47.37732" lon="-0.98063">
        <ele>59.023</ele>
        <time>2020-07-19T09:30:07Z</time>
      </trkpt>
      <trkpt lat="47.3773" lon="-0.98076">
        <ele>58.454</ele>
        <time>2020-07-19T09:30:08Z</time>
      </trkpt>
      <trkpt lat="47.37728" lon="-0.98084">
        <ele>58.881</ele>
        <time>2020-07-19T09:30:09Z</time>
      </trkpt>
      <trkpt lat="47.37726" lon="-0.98094">
        <ele>59.14</ele>
        <time>2020-07-19T09:30:10Z</time>
      </trkpt>
      <trkpt lat="47.37724" lon="-0.98105">
        <ele>58.694</ele>
        <time>2020-07-19T09:30:11Z</time>
      </trkpt>
      <trkpt lat="47.37722" lon="-0.98114">
        <ele>58.076</ele>
        <time>2020-07-19T09:30:12Z</time>
      </trkpt>
      <trkpt lat="47.37721" lon="-0.98124">
        <ele>59.182</ele>
        <time>2020-07-19T09:30:13Z</time>
      </trkpt>
      <trkpt lat="47.3772" lon="-0.98133">
        <ele>59.387</ele>
        <time>2020-07-19T09:30:14Z</time>
      </trkpt>
      <trkpt lat="47.37719" lon="-0.98144">
        <ele>60.024</ele>
        <time>2020-07-19T09:30:15Z</time>
      </trkpt>
      <trkpt lat="47.37719" lon="-0.98152">
        <ele>59.679</ele>
        <time>2020-07-19T09:30:16Z</time>
      </trkpt>
      <trkpt lat="47.37718" lon="-0.98161">
        <ele>58.56</ele>
        <time>2020-07-19T09:30:17Z</time>
      </trkpt>
      <trkpt lat="47.37716" lon="-0.98171">
        <ele>59.684</ele>
        <time>2020-07-19T09:30:18Z</time>
      </trkpt>
      <trkpt lat="47.37716" lon="-0.9818">
        <ele>58.756</ele>
        <time>2020-07-19T09:30:19Z</time>
      </trkpt>
      <trkpt lat="47.37715" lon="-0.98189">
        <ele>58.039</ele>
        <time>2020-07-19T09:30:20Z</time>
      </trkpt>
      <trkpt lat="47.37713" lon="-0.98199">
        <ele>58.786</ele>
        <time>2020-07-19T09:30:21Z</time>
      </trkpt>
      <trkpt lat="47.37712" lon="-0.9821">
        <ele>58.733</ele>
        <time>2020-07-19T09:30:22Z</time>
      </trkpt>
      <trkpt lat="47.37712" lon="-0.9822">
        <ele>59.818</ele>
        <time>2020-07-19T09:30:23Z</time>
      </trkpt>
      <trkpt lat="47.3771" lon="-0.98228">
        <ele>58.315</ele>
        <time>2020-07-19T09:30:24Z</time>
      </trkpt>
      <trkpt lat="47.3771" lon="-0.98239">
        <ele>59.539</ele>
        <time>2020-07-19T09:30:25Z</time>
      </trkpt>
      <trkpt lat="47.37709" lon="-0.9825">
        <ele>60.72</ele>
        <time>2020-07-19T09:30:26Z</time>
      </trkpt>
      <trkpt lat="47.37708" lon="-0.9826">
        <ele>60.204</ele>
        <time>2020-07-19T09:30:27Z</time>
      </trkpt>
      <trkpt lat="47.37707" lon="-0.98269">
        <ele>61.845</ele>
        <time>2020-07-19T09:30:28Z</time>
      </trkpt>
      <trkpt lat="47.37704" lon="-0.98279">
        <ele>62.039</ele>
        <time>2020-07-19T09:30:29Z</time>
      </trkpt>
      <trkpt lat="47.37705" lon="-0.98288">
        <ele>61.828</ele>
        <time>2020-07-19T09:30:30Z</time>
      </trkpt>
      <trkpt lat="47.37706" lon="-0.98298">
        <ele>62.067</ele>
        <time>2020-07-19T09:30:31Z</time>
      </trkpt>
      <trkpt lat="47.37707" lon="-0.98308">
        <ele>61.513</ele>
        <time>2020-07-19T09:30:32Z</time>
      </trkpt>
      <trkpt lat="47.37707" lon="-0.98318">
        <ele>61.663</ele>
        <time>2020-07-19T09:30:33Z</time>
      </trkpt>
      <trkpt lat="47.37706" lon="-0.98326">
        <ele>59.912</ele>
        <time>2020-07-19T09:30:34Z</time>
      </trkpt>
      <trkpt lat="47.37708" lon="-0.98336">
        <ele>59.904</ele>
        <time>2020-07-19T09:30:35Z</time>
      </trkpt>
      <trkpt lat="47.37708" lon="-0.98344">
        <ele>59.319</ele>
        <time>2020-07-19T09:30:36Z</time>
      </trkpt>
      <trkpt lat="47.37706" lon="-0.98356">
        <ele>59.3</ele>
        <time>2020-07-19T09:30:37Z</time>
      </trkpt>
      <trkpt lat="47.37705" lon="-0.98366">
        <ele>59.52</ele>
        <time>2020-07-19T09:30:38Z</time>
      </trkpt>
      <trkpt lat="47.37706" lon="-0.98377">
        <ele>59.041</ele>
        <time>2020-07-19T09:30:39Z</time>
      </trkpt>
      <trkpt lat="47.37704" lon="-0.98386">
        <ele>58.51</ele>
        <time>2020-07-19T09:30:40Z</time>
      </trkpt>
      <trkpt lat="47.37703" lon="-0.98395">
        <ele>58.099</ele>
        <time>2020-07-19T09:30:41Z</time>
      </trkpt>
      <trkpt lat="47.37704" lon="-0.98404">
        <ele>65.375</ele>
        <time>2020-07-19T09:30:42Z</time>
      </trkpt>
      <trkpt lat="47.37703" lon="-0.98414">
        <ele>61.924</ele>
        <time>2020-07-19T09:30:43Z</time>
      </trkpt>
      <trkpt lat="47.37705" lon="-0.98423">
        <ele>60.338</ele>
        <time>2020-07-19T09:30:44Z</time>
      </trkpt>
      <trkpt lat="47.37706" lon="-0.98433">
        <ele>59.808</ele>
        <time>2020-07-19T09:30:45Z</time>
      </trkpt>
      <trkpt lat="47.37706" lon="-0.98442">
        <ele>58.334</ele>
        <time>2020-07-19T09:30:46Z</time>
      </trkpt>
      <trkpt lat="47.37707" lon="-0.98452">
        <ele>57.277</ele>
        <time>2020-07-19T09:30:47Z</time>
      </trkpt>
      <trkpt lat="47.37708" lon="-0.98462">
        <ele>56.873</ele>
        <time>2020-07-19T09:30:48Z</time>
      </trkpt>
      <trkpt lat="47.37711" lon="-0.98471">
        <ele>56.351</ele>
        <time>2020-07-19T09:30:49Z</time>
      </trkpt>
      <trkpt lat="47.37712" lon="-0.98482">
        <ele>56.942</ele>
        <time>2020-07-19T09:30:50Z</time>
      </trkpt>
      <trkpt lat="47.37713" lon="-0.98494">
        <ele>56.761</ele>
        <time>2020-07-19T09:30:51Z</time>
      </trkpt>
      <trkpt lat="47.37712" lon="-0.98504">
        <ele>56.15</ele>
        <time>2020-07-19T09:30:52Z</time>
      </trkpt>
      <trkpt lat="47.37713" lon="-0.98514">
        <ele>52.372</ele>
        <time>2020-07-19T09:30:53Z</time>
      </trkpt>
      <trkpt lat="47.37715" lon="-0.98523">
        <ele>52.068</ele>
        <time>2020-07-19T09:30:54Z</time>
      </trkpt>
      <trkpt lat="47.37716" lon="-0.98532">
        <ele>51.639</ele>
        <time>2020-07-19T09:30:55Z</time>
      </trkpt>
      <trkpt lat="47.37717" lon="-0.98541">
        <ele>52.277</ele>
        <time>2020-07-19T09:30:56Z</time>
      </trkpt>
      <trkpt lat="47.37718" lon="-0.98551">
        <ele>52.616</ele>
        <time>2020-07-19T09:30:57Z</time>
      </trkpt>
      <trkpt lat="47.37718" lon="-0.98562">
        <ele>52.606</ele>
        <time>2020-07-19T09:30:58Z</time>
      </trkpt>
      <trkpt lat="47.37719" lon="-0.98572">
        <ele>52.425</ele>
        <time>2020-07-19T09:30:59Z</time>
      </trkpt>
      <trkpt lat="47.37719" lon="-0.98582">
        <ele>51.93</ele>
        <time>2020-07-19T09:31:00Z</time>
      </trkpt>
      <trkpt lat="47.3772" lon="-0.98591">
        <ele>53.081</ele>
        <time>2020-07-19T09:31:01Z</time>
      </trkpt>
      <trkpt lat="47.37721" lon="-0.986">
        <ele>52.037</ele>
        <time>2020-07-19T09:31:02Z</time>
      </trkpt>
      <trkpt lat="47.37722" lon="-0.9861">
        <ele>52.145</ele>
        <time>2020-07-19T09:31:03Z</time>
      </trkpt>
      <trkpt lat="47.37723" lon="-0.9862">
        <ele>52.483</ele>
        <time>2020-07-19T09:31:04Z</time>
      </trkpt>
      <trkpt lat="47.37726" lon="-0.98629">
        <ele>51.002</ele>
        <time>2020-07-19T09:31:05Z</time>
      </trkpt>
      <trkpt lat="47.37728" lon="-0.98639">
        <ele>51.668</ele>
        <time>2020-07-19T09:31:06Z</time>
      </trkpt>
      <trkpt lat="47.3773" lon="-0.98651">
        <ele>50.084</ele>
        <time>2020-07-19T09:31:07Z</time>
      </trkpt>
      <trkpt lat="47.37731" lon="-0.98661">
        <ele>50.301</ele>
        <time>2020-07-19T09:31:08Z</time>
      </trkpt>
      <trkpt lat="47.37733" lon="-0.9867">
        <ele>50.886</ele>
        <time>2020-07-19T09:31:09Z</time>
      </trkpt>
      <trkpt lat="47.37734" lon="-0.9868">
        <ele>51.795</ele>
        <time>2020-07-19T09:31:10Z</time>
      </trkpt>
      <trkpt lat="47.37735" lon="-0.9869">
        <ele>52.591</ele>
        <time>2020-07-19T09:31:11Z</time>
      </trkpt>
      <trkpt lat="47.37736" lon="-0.987">
        <ele>52.671</ele>
        <time>2020-07-19T09:31:12Z</time>
      </trkpt>
      <trkpt lat="47.37736" lon="-0.9871">
        <ele>53.374</ele>
        <time>2020-07-19T09:31:13Z</time>
      </trkpt>
      <trkpt lat="47.37739" lon="-0.9872">
        <ele>51.99</ele>
        <time>2020-07-19T09:31:14Z</time>
      </trkpt>
      <trkpt lat="47.37739" lon="-0.98731">
        <ele>52.728</ele>
        <time>2020-07-19T09:31:15Z</time>
      </trkpt>
      <trkpt lat="47.37743" lon="-0.9874">
        <ele>48.535</ele>
        <time>2020-07-19T09:31:16Z</time>
      </trkpt>
      <trkpt lat="47.37743" lon="-0.9875">
        <ele>49.057</ele>
        <time>2020-07-19T09:31:17Z</time>
      </trkpt>
      <trkpt lat="47.37743" lon="-0.98761">
        <ele>48.367</ele>
        <time>2020-07-19T09:31:18Z</time>
      </trkpt>
      <trkpt lat="47.37745" lon="-0.98769">
        <ele>48.31</ele>
        <time>2020-07-19T09:31:19Z</time>
      </trkpt>
      <trkpt lat="47.37748" lon="-0.98779">
        <ele>47.514</ele>
        <time>2020-07-19T09:31:20Z</time>
      </trkpt>
      <trkpt lat="47.37748" lon="-0.9879">
        <ele>49.997</ele>
        <time>2020-07-19T09:31:21Z</time>
      </trkpt>
      <trkpt lat="47.37749" lon="-0.988">
        <ele>50.223</ele>
        <time>2020-07-19T09:31:22Z</time>
      </trkpt>
      <trkpt lat="47.3775" lon="-0.9881">
        <ele>51.079</ele>
        <time>2020-07-19T09:31:23Z</time>
      </trkpt>
      <trkpt lat="47.3775" lon="-0.9882">
        <ele>51.357</ele>
        <time>2020-07-19T09:31:24Z</time>
      </trkpt>
      <trkpt lat="47.37751" lon="-0.98829">
        <ele>52.718</ele>
        <time>2020-07-19T09:31:25Z</time>
      </trkpt>
      <trkpt lat="47.37752" lon="-0.98839">
        <ele>53.756</ele>
        <time>2020-07-19T09:31:26Z</time>
      </trkpt>
      <trkpt lat="47.37751" lon="-0.98849">
        <ele>54.247</ele>
        <time>2020-07-19T09:31:27Z</time>
      </trkpt>
      <trkpt lat="47.37751" lon="-0.98858">
        <ele>54.815</ele>
        <time>2020-07-19T09:31:28Z</time>
      </trkpt>
      <trkpt lat="47.3775" lon="-0.98866">
        <ele>55.575</ele>
        <time>2020-07-19T09:31:29Z</time>
      </trkpt>
      <trkpt lat="47.37749" lon="-0.98874">
        <ele>55.656</ele>
        <time>2020-07-19T09:31:30Z</time>
      </trkpt>
      <trkpt lat="47.37747" lon="-0.98881">
        <ele>56.133</ele>
        <time>2020-07-19T09:31:31Z</time>
      </trkpt>
      <trkpt lat="47.37743" lon="-0.98889">
        <ele>55.758</ele>
        <time>2020-07-19T09:31:32Z</time>
      </trkpt>
      <trkpt lat="47.37741" lon="-0.98899">
        <ele>56.607</ele>
        <time>2020-07-19T09:31:33Z</time>
      </trkpt>
      <trkpt lat="47.37741" lon="-0.98907">
        <ele>56.946</ele>
        <time>2020-07-19T09:31:34Z</time>
      </trkpt>
      <trkpt lat="47.37742" lon="-0.98916">
        <ele>56.235</ele>
        <time>2020-07-19T09:31:35Z</time>
      </trkpt>
      <trkpt lat="47.37744" lon="-0.98924">
        <ele>57.001</ele>
        <time>2020-07-19T09:31:36Z</time>
      </trkpt>
      <trkpt lat="47.37745" lon="-0.98932">
        <ele>57.521</ele>
        <time>2020-07-19T09:31:37Z</time>
      </trkpt>
      <trkpt lat="47.37746" lon="-0.9894">
        <ele>58.718</ele>
        <time>2020-07-19T09:31:38Z</time>
      </trkpt>
      <trkpt lat="47.37749" lon="-0.98946">
        <ele>58.255</ele>
        <time>2020-07-19T09:31:39Z</time>
      </trkpt>
      <trkpt lat="47.37749" lon="-0.98955">
        <ele>56.848</ele>
        <time>2020-07-19T09:31:40Z</time>
      </trkpt>
      <trkpt lat="47.37747" lon="-0.98965">
        <ele>57.47</ele>
        <time>2020-07-19T09:31:41Z</time>
      </trkpt>
      <trkpt lat="47.37748" lon="-0.98975">
        <ele>58.609</ele>
        <time>2020-07-19T09:31:42Z</time>
      </trkpt>
      <trkpt lat="47.37749" lon="-0.98984">
        <ele>57.383</ele>
        <time>2020-07-19T09:31:43Z</time>
      </trkpt>
      <trkpt lat="47.37746" lon="-0.98994">
        <ele>56.154</ele>
        <time>2020-07-19T09:31:44Z</time>
      </trkpt>
      <trkpt lat="47.37745" lon="-0.99004">
        <ele>56.798</ele>
        <time>2020-07-19T09:31:45Z</time>
      </trkpt>
      <trkpt lat="47.37743" lon="-0.99014">
        <ele>57.67</ele>
        <time>2020-07-19T09:31:46Z</time>
      </trkpt>
      <trkpt lat="47.37742" lon="-0.99022">
        <ele>57.919</ele>
        <time>2020-07-19T09:31:47Z</time>
      </trkpt>
      <trkpt lat="47.37741" lon="-0.99031">
        <ele>57.228</ele>
        <time>2020-07-19T09:31:48Z</time>
      </trkpt>
      <trkpt lat="47.37739" lon="-0.99042">
        <ele>58.409</ele>
        <time>2020-07-19T09:31:49Z</time>
      </trkpt>
      <trkpt lat="47.37737" lon="-0.99052">
        <ele>58.826</ele>
        <time>2020-07-19T09:31:50Z</time>
      </trkpt>
      <trkpt lat="47.37736" lon="-0.99062">
        <ele>59.408</ele>
        <time>2020-07-19T09:31:51Z</time>
      </trkpt>
      <trkpt lat="47.37737" lon="-0.99072">
        <ele>59.468</ele>
        <time>2020-07-19T09:31:52Z</time>
      </trkpt>
      <trkpt lat="47.37735" lon="-0.99083">
        <ele>58.952</ele>
        <time>2020-07-19T09:31:53Z</time>
      </trkpt>
      <trkpt lat="47.37734" lon="-0.99093">
        <ele>58.136</ele>
        <time>2020-07-19T09:31:54Z</time>
      </trkpt>
      <trkpt lat="47.37734" lon="-0.99104">
        <ele>57.555</ele>
        <time>2020-07-19T09:31:55Z</time>
      </trkpt>
      <trkpt lat="47.37734" lon="-0.99114">
        <ele>57.486</ele>
        <time>2020-07-19T09:31:56Z</time>
      </trkpt>
      <trkpt lat="47.37735" lon="-0.99125">
        <ele>57.365</ele>
        <time>2020-07-19T09:31:57Z</time>
      </trkpt>
      <trkpt lat="47.37734" lon="-0.99136">
        <ele>57.957</ele>
        <time>2020-07-19T09:31:58Z</time>
      </trkpt>
      <trkpt lat="47.37736" lon="-0.99147">
        <ele>56.573</ele>
        <time>2020-07-19T09:31:59Z</time>
      </trkpt>
      <trkpt lat="47.37735" lon="-0.99157">
        <ele>57.911</ele>
        <time>2020-07-19T09:32:00Z</time>
      </trkpt>
      <trkpt lat="47.37736" lon="-0.99168">
        <ele>58.987</ele>
        <time>2020-07-19T09:32:01Z</time>
      </trkpt>
      <trkpt lat="47.37737" lon="-0.99178">
        <ele>59.565</ele>
        <time>2020-07-19T09:32:02Z</time>
      </trkpt>
      <trkpt lat="47.37734" lon="-0.99189">
        <ele>59.227</ele>
        <time>2020-07-19T09:32:03Z</time>
      </trkpt>
      <trkpt lat="47.37736" lon="-0.99197">
        <ele>59.621</ele>
        <time>2020-07-19T09:32:04Z</time>
      </trkpt>
      <trkpt lat="47.37736" lon="-0.99207">
        <ele>60.73</ele>
        <time>2020-07-19T09:32:05Z</time>
      </trkpt>
      <trkpt lat="47.37736" lon="-0.99217">
        <ele>57.846</ele>
        <time>2020-07-19T09:32:06Z</time>
      </trkpt>
      <trkpt lat="47.37736" lon="-0.99227">
        <ele>57.792</ele>
        <time>2020-07-19T09:32:07Z</time>
      </trkpt>
      <trkpt lat="47.37735" lon="-0.99237">
        <ele>57.955</ele>
        <time>2020-07-19T09:32:08Z</time>
      </trkpt>
      <trkpt lat="47.37734" lon="-0.99247">
        <ele>56.73</ele>
        <time>2020-07-19T09:32:09Z</time>
      </trkpt>
      <trkpt lat="47.37732" lon="-0.99257">
        <ele>117.827</ele>
        <time>2020-07-19T09:32:10Z</time>
      </trkpt>
      <trkpt lat="47.3773" lon="-0.99265">
        <ele>105.698</ele>
        <time>2020-07-19T09:32:11Z</time>
      </trkpt>
      <trkpt lat="47.37729" lon="-0.99275">
        <ele>95.849</ele>
        <time>2020-07-19T09:32:12Z</time>
      </trkpt>
      <trkpt lat="47.37729" lon="-0.99285">
        <ele>84.107</ele>
        <time>2020-07-19T09:32:13Z</time>
      </trkpt>
      <trkpt lat="47.37728" lon="-0.99295">
        <ele>76.358</ele>
        <time>2020-07-19T09:32:14Z</time>
      </trkpt>
      <trkpt lat="47.37728" lon="-0.99304">
        <ele>70.896</ele>
        <time>2020-07-19T09:32:15Z</time>
      </trkpt>
      <trkpt lat="47.37726" lon="-0.99314">
        <ele>66.73</ele>
        <time>2020-07-19T09:32:16Z</time>
      </trkpt>
      <trkpt lat="47.37725" lon="-0.99324">
        <ele>65.241</ele>
        <time>2020-07-19T09:32:17Z</time>
      </trkpt>
      <trkpt lat="47.37723" lon="-0.99333">
        <ele>62.987</ele>
        <time>2020-07-19T09:32:18Z</time>
      </trkpt>
      <trkpt lat="47.37722" lon="-0.99343">
        <ele>61.029</ele>
        <time>2020-07-19T09:32:19Z</time>
      </trkpt>
      <trkpt lat="47.37721" lon="-0.99353">
        <ele>60.338</ele>
        <time>2020-07-19T09:32:20Z</time>
      </trkpt>
      <trkpt lat="47.3772" lon="-0.99365">
        <ele>60.031</ele>
        <time>2020-07-19T09:32:21Z</time>
      </trkpt>
      <trkpt lat="47.37718" lon="-0.99375">
        <ele>59.958</ele>
        <time>2020-07-19T09:32:22Z</time>
      </trkpt>
      <trkpt lat="47.37717" lon="-0.99386">
        <ele>59.882</ele>
        <time>2020-07-19T09:32:23Z</time>
      </trkpt>
      <trkpt lat="47.37717" lon="-0.99398">
        <ele>61.619</ele>
        <time>2020-07-19T09:32:24Z</time>
      </trkpt>
      <trkpt lat="47.37717" lon="-0.99408">
        <ele>61.719</ele>
        <time>2020-07-19T09:32:25Z</time>
      </trkpt>
      <trkpt lat="47.37716" lon="-0.99417">
        <ele>60.919</ele>
        <time>2020-07-19T09:32:26Z</time>
      </trkpt>
      <trkpt lat="47.37714" lon="-0.99426">
        <ele>59.494</ele>
        <time>2020-07-19T09:32:27Z</time>
      </trkpt>
      <trkpt lat="47.37713" lon="-0.99436">
        <ele>59.133</ele>
        <time>2020-07-19T09:32:28Z</time>
      </trkpt>
      <trkpt lat="47.37712" lon="-0.99446">
        <ele>59.268</ele>
        <time>2020-07-19T09:32:29Z</time>
      </trkpt>
      <trkpt lat="47.3771" lon="-0.99457">
        <ele>59.498</ele>
        <time>2020-07-19T09:32:30Z</time>
      </trkpt>
      <trkpt lat="47.37709" lon="-0.99468">
        <ele>57.871</ele>
        <time>2020-07-19T09:32:31Z</time>
      </trkpt>
      <trkpt lat="47.37708" lon="-0.99479">
        <ele>57.383</ele>
        <time>2020-07-19T09:32:32Z</time>
      </trkpt>
      <trkpt lat="47.37707" lon="-0.99489">
        <ele>58.081</ele>
        <time>2020-07-19T09:32:33Z</time>
      </trkpt>
      <trkpt lat="47.37707" lon="-0.99501">
        <ele>59.272</ele>
        <time>2020-07-19T09:32:34Z</time>
      </trkpt>
      <trkpt lat="47.37706" lon="-0.99512">
        <ele>58.121</ele>
        <time>2020-07-19T09:32:35Z</time>
      </trkpt>
      <trkpt lat="47.37705" lon="-0.99522">
        <ele>57.551</ele>
        <time>2020-07-19T09:32:36Z</time>
      </trkpt>
      <trkpt lat="47.37706" lon="-0.99532">
        <ele>57.889</ele>
        <time>2020-07-19T09:32:37Z</time>
      </trkpt>
      <trkpt lat="47.37705" lon="-0.99544">
        <ele>59.2</ele>
        <time>2020-07-19T09:32:38Z</time>
      </trkpt>
      <trkpt lat="47.37704" lon="-0.99554">
        <ele>60.093</ele>
        <time>2020-07-19T09:32:39Z</time>
      </trkpt>
      <trkpt lat="47.37703" lon="-0.99565">
        <ele>59.854</ele>
        <time>2020-07-19T09:32:40Z</time>
      </trkpt>
      <trkpt lat="47.37702" lon="-0.99575">
        <ele>58.73</ele>
        <time>2020-07-19T09:32:41Z</time>
      </trkpt>
      <trkpt lat="47.37701" lon="-0.99586">
        <ele>59.09</ele>
        <time>2020-07-19T09:32:42Z</time>
      </trkpt>
      <trkpt lat="47.377" lon="-0.99596">
        <ele>59.058</ele>
        <time>2020-07-19T09:32:43Z</time>
      </trkpt>
      <trkpt lat="47.37698" lon="-0.99607">
        <ele>59.796</ele>
        <time>2020-07-19T09:32:44Z</time>
      </trkpt>
      <trkpt lat="47.37696" lon="-0.99618">
        <ele>59.213</ele>
        <time>2020-07-19T09:32:45Z</time>
      </trkpt>
      <trkpt lat="47.37695" lon="-0.99628">
        <ele>57.732</ele>
        <time>2020-07-19T09:32:46Z</time>
      </trkpt>
      <trkpt lat="47.37692" lon="-0.99639">
        <ele>57.266</ele>
        <time>2020-07-19T09:32:47Z</time>
      </trkpt>
      <trkpt lat="47.37689" lon="-0.99649">
        <ele>58.111</ele>
        <time>2020-07-19T09:32:48Z</time>
      </trkpt>
      <trkpt lat="47.37686" lon="-0.99661">
        <ele>57.465</ele>
        <time>2020-07-19T09:32:49Z</time>
      </trkpt>
      <trkpt lat="47.37683" lon="-0.99671">
        <ele>58.05</ele>
        <time>2020-07-19T09:32:50Z</time>
      </trkpt>
      <trkpt lat="47.37681" lon="-0.9968">
        <ele>58.126</ele>
        <time>2020-07-19T09:32:51Z</time>
      </trkpt>
      <trkpt lat="47.37677" lon="-0.99689">
        <ele>58.726</ele>
        <time>2020-07-19T09:32:52Z</time>
      </trkpt>
      <trkpt lat="47.37675" lon="-0.99699">
        <ele>58.837</ele>
        <time>2020-07-19T09:32:53Z</time>
      </trkpt>
      <trkpt lat="47.37673" lon="-0.99709">
        <ele>57.627</ele>
        <time>2020-07-19T09:32:54Z</time>
      </trkpt>
      <trkpt lat="47.3767" lon="-0.99719">
        <ele>56.94</ele>
        <time>2020-07-19T09:32:55Z</time>
      </trkpt>
      <trkpt lat="47.37666" lon="-0.99728">
        <ele>57.05</ele>
        <time>2020-07-19T09:32:56Z</time>
      </trkpt>
      <trkpt lat="47.37664" lon="-0.99738">
        <ele>57.89</ele>
        <time>2020-07-19T09:32:57Z</time>
      </trkpt>
      <trkpt lat="47.37662" lon="-0.99747">
        <ele>58.47</ele>
        <time>2020-07-19T09:32:58Z</time>
      </trkpt>
      <trkpt lat="47.37659" lon="-0.99757">
        <ele>58.32</ele>
        <time>2020-07-19T09:32:59Z</time>
      </trkpt>
      <trkpt lat="47.37655" lon="-0.99767">
        <ele>57.663</ele>
        <time>2020-07-19T09:33:00Z</time>
      </trkpt>
      <trkpt lat="47.37653" lon="-0.99776">
        <ele>57.435</ele>
        <time>2020-07-19T09:33:01Z</time>
      </trkpt>
      <trkpt lat="47.3765" lon="-0.99787">
        <ele>57.32</ele>
        <time>2020-07-19T09:33:02Z</time>
      </trkpt>
      <trkpt lat="47.37647" lon="-0.99797">
        <ele>57.625</ele>
        <time>2020-07-19T09:33:03Z</time>
      </trkpt>
      <trkpt lat="47.37643" lon="-0.99807">
        <ele>58.078</ele>
        <time>2020-07-19T09:33:04Z</time>
      </trkpt>
      <trkpt lat="47.37641" lon="-0.99816">
        <ele>57.891</ele>
        <time>2020-07-19T09:33:05Z</time>
      </trkpt>
      <trkpt lat="47.37638" lon="-0.99825">
        <ele>56.599</ele>
        <time>2020-07-19T09:33:06Z</time>
      </trkpt>
      <trkpt lat="47.37635" lon="-0.99835">
        <ele>57.623</ele>
        <time>2020-07-19T09:33:07Z</time>
      </trkpt>
      <trkpt lat="47.37632" lon="-0.99844">
        <ele>58.367</ele>
        <time>2020-07-19T09:33:08Z</time>
      </trkpt>
      <trkpt lat="47.37628" lon="-0.99853">
        <ele>58.689</ele>
        <time>2020-07-19T09:33:09Z</time>
      </trkpt>
      <trkpt lat="47.37624" lon="-0.99863">
        <ele>58.969</ele>
        <time>2020-07-19T09:33:10Z</time>
      </trkpt>
      <trkpt lat="47.37621" lon="-0.99871">
        <ele>59.107</ele>
        <time>2020-07-19T09:33:11Z</time>
      </trkpt>
      <trkpt lat="47.37619" lon="-0.99879">
        <ele>59.193</ele>
        <time>2020-07-19T09:33:12Z</time>
      </trkpt>
      <trkpt lat="47.37615" lon="-0.9989">
        <ele>58.495</ele>
        <time>2020-07-19T09:33:13Z</time>
      </trkpt>
      <trkpt lat="47.37612" lon="-0.99899">
        <ele>59</ele>
        <time>2020-07-19T09:33:14Z</time>
      </trkpt>
      <trkpt lat="47.37608" lon="-0.99908">
        <ele>59.953</ele>
        <time>2020-07-19T09:33:15Z</time>
      </trkpt>
      <trkpt lat="47.37606" lon="-0.99918">
        <ele>60.612</ele>
        <time>2020-07-19T09:33:16Z</time>
      </trkpt>
      <trkpt lat="47.37603" lon="-0.99926">
        <ele>60.433</ele>
        <time>2020-07-19T09:33:17Z</time>
      </trkpt>
      <trkpt lat="47.376" lon="-0.99936">
        <ele>60.228</ele>
        <time>2020-07-19T09:33:18Z</time>
      </trkpt>
      <trkpt lat="47.37596" lon="-0.99945">
        <ele>60.631</ele>
        <time>2020-07-19T09:33:19Z</time>
      </trkpt>
      <trkpt lat="47.37591" lon="-0.99954">
        <ele>59.31</ele>
        <time>2020-07-19T09:33:20Z</time>
      </trkpt>
      <trkpt lat="47.37587" lon="-0.99963">
        <ele>59.549</ele>
        <time>2020-07-19T09:33:21Z</time>
      </trkpt>
      <trkpt lat="47.37584" lon="-0.99971">
        <ele>59.208</ele>
        <time>2020-07-19T09:33:22Z</time>
      </trkpt>
      <trkpt lat="47.3758" lon="-0.99981">
        <ele>60.033</ele>
        <time>2020-07-19T09:33:23Z</time>
      </trkpt>
      <trkpt lat="47.37576" lon="-0.9999">
        <ele>59.895</ele>
        <time>2020-07-19T09:33:24Z</time>
      </trkpt>
      <trkpt lat="47.37572" lon="-0.99998">
        <ele>59.881</ele>
        <time>2020-07-19T09:33:25Z</time>
      </trkpt>
      <trkpt lat="47.37569" lon="-1.00007">
        <ele>60.241</ele>
        <time>2020-07-19T09:33:26Z</time>
      </trkpt>
      <trkpt lat="47.37564" lon="-1.00016">
        <ele>60.444</ele>
        <time>2020-07-19T09:33:27Z</time>
      </trkpt>
      <trkpt lat="47.3756" lon="-1.00024">
        <ele>60.454</ele>
        <time>2020-07-19T09:33:28Z</time>
      </trkpt>
      <trkpt lat="47.37556" lon="-1.00033">
        <ele>60.062</ele>
        <time>2020-07-19T09:33:29Z</time>
      </trkpt>
      <trkpt lat="47.37552" lon="-1.00042">
        <ele>59.308</ele>
        <time>2020-07-19T09:33:30Z</time>
      </trkpt>
      <trkpt lat="47.37548" lon="-1.0005">
        <ele>59.68</ele>
        <time>2020-07-19T09:33:31Z</time>
      </trkpt>
      <trkpt lat="47.37544" lon="-1.00059">
        <ele>59.068</ele>
        <time>2020-07-19T09:33:32Z</time>
      </trkpt>
      <trkpt lat="47.37541" lon="-1.00069">
        <ele>59.076</ele>
        <time>2020-07-19T09:33:33Z</time>
      </trkpt>
      <trkpt lat="47.37536" lon="-1.00076">
        <ele>58.234</ele>
        <time>2020-07-19T09:33:34Z</time>
      </trkpt>
      <trkpt lat="47.37532" lon="-1.00086">
        <ele>57.923</ele>
        <time>2020-07-19T09:33:35Z</time>
      </trkpt>
      <trkpt lat="47.3753" lon="-1.00094">
        <ele>57.498</ele>
        <time>2020-07-19T09:33:36Z</time>
      </trkpt>
      <trkpt lat="47.37525" lon="-1.00103">
        <ele>57.186</ele>
        <time>2020-07-19T09:33:37Z</time>
      </trkpt>
      <trkpt lat="47.37522" lon="-1.00111">
        <ele>56.978</ele>
        <time>2020-07-19T09:33:38Z</time>
      </trkpt>
      <trkpt lat="47.37518" lon="-1.0012">
        <ele>56.783</ele>
        <time>2020-07-19T09:33:39Z</time>
      </trkpt>
      <trkpt lat="47.37514" lon="-1.00129">
        <ele>56.633</ele>
        <time>2020-07-19T09:33:40Z</time>
      </trkpt>
      <trkpt lat="47.3751" lon="-1.00138">
        <ele>56.727</ele>
        <time>2020-07-19T09:33:41Z</time>
      </trkpt>
      <trkpt lat="47.37506" lon="-1.00146">
        <ele>56.99</ele>
        <time>2020-07-19T09:33:42Z</time>
      </trkpt>
      <trkpt lat="47.37502" lon="-1.00155">
        <ele>57.033</ele>
        <time>2020-07-19T09:33:43Z</time>
      </trkpt>
      <trkpt lat="47.37498" lon="-1.00163">
        <ele>56.309</ele>
        <time>2020-07-19T09:33:44Z</time>
      </trkpt>
      <trkpt lat="47.37494" lon="-1.00172">
        <ele>56.644</ele>
        <time>2020-07-19T09:33:45Z</time>
      </trkpt>
      <trkpt lat="47.37489" lon="-1.00179">
        <ele>56.996</ele>
        <time>2020-07-19T09:33:46Z</time>
      </trkpt>
      <trkpt lat="47.37485" lon="-1.00187">
        <ele>56.765</ele>
        <time>2020-07-19T09:33:47Z</time>
      </trkpt>
      <trkpt lat="47.3748" lon="-1.00194">
        <ele>56.575</ele>
        <time>2020-07-19T09:33:48Z</time>
      </trkpt>
      <trkpt lat="47.37475" lon="-1.00202">
        <ele>56.823</ele>
        <time>2020-07-19T09:33:49Z</time>
      </trkpt>
      <trkpt lat="47.37471" lon="-1.0021">
        <ele>57.26</ele>
        <time>2020-07-19T09:33:50Z</time>
      </trkpt>
      <trkpt lat="47.37467" lon="-1.00217">
        <ele>57.609</ele>
        <time>2020-07-19T09:33:51Z</time>
      </trkpt>
      <trkpt lat="47.37463" lon="-1.00225">
        <ele>57.088</ele>
        <time>2020-07-19T09:33:52Z</time>
      </trkpt>
      <trkpt lat="47.3746" lon="-1.00233">
        <ele>57.142</ele>
        <time>2020-07-19T09:33:53Z</time>
      </trkpt>
      <trkpt lat="47.37458" lon="-1.00242">
        <ele>57.173</ele>
        <time>2020-07-19T09:33:54Z</time>
      </trkpt>
      <trkpt lat="47.37455" lon="-1.00252">
        <ele>57.315</ele>
        <time>2020-07-19T09:33:55Z</time>
      </trkpt>
      <trkpt lat="47.37453" lon="-1.00261">
        <ele>57.621</ele>
        <time>2020-07-19T09:33:56Z</time>
      </trkpt>
      <trkpt lat="47.3745" lon="-1.0027">
        <ele>57.326</ele>
        <time>2020-07-19T09:33:57Z</time>
      </trkpt>
      <trkpt lat="47.37449" lon="-1.00279">
        <ele>57.278</ele>
        <time>2020-07-19T09:33:58Z</time>
      </trkpt>
      <trkpt lat="47.37447" lon="-1.00289">
        <ele>57.612</ele>
        <time>2020-07-19T09:33:59Z</time>
      </trkpt>
      <trkpt lat="47.37445" lon="-1.00298">
        <ele>58.221</ele>
        <time>2020-07-19T09:34:00Z</time>
      </trkpt>
      <trkpt lat="47.37443" lon="-1.00307">
        <ele>58.687</ele>
        <time>2020-07-19T09:34:01Z</time>
      </trkpt>
      <trkpt lat="47.3744" lon="-1.00314">
        <ele>57.393</ele>
        <time>2020-07-19T09:34:02Z</time>
      </trkpt>
      <trkpt lat="47.37437" lon="-1.00324">
        <ele>57.44</ele>
        <time>2020-07-19T09:34:03Z</time>
      </trkpt>
      <trkpt lat="47.37435" lon="-1.00334">
        <ele>57.614</ele>
        <time>2020-07-19T09:34:04Z</time>
      </trkpt>
      <trkpt lat="47.37432" lon="-1.00343">
        <ele>57.195</ele>
        <time>2020-07-19T09:34:05Z</time>
      </trkpt>
      <trkpt lat="47.37429" lon="-1.00353">
        <ele>57.854</ele>
        <time>2020-07-19T09:34:06Z</time>
      </trkpt>
      <trkpt lat="47.37429" lon="-1.00362">
        <ele>55.987</ele>
        <time>2020-07-19T09:34:07Z</time>
      </trkpt>
      <trkpt lat="47.37427" lon="-1.00371">
        <ele>55.842</ele>
        <time>2020-07-19T09:34:08Z</time>
      </trkpt>
      <trkpt lat="47.37424" lon="-1.0038">
        <ele>55.85</ele>
        <time>2020-07-19T09:34:09Z</time>
      </trkpt>
      <trkpt lat="47.37422" lon="-1.00389">
        <ele>54.882</ele>
        <time>2020-07-19T09:34:10Z</time>
      </trkpt>
      <trkpt lat="47.3742" lon="-1.00398">
        <ele>55.504</ele>
        <time>2020-07-19T09:34:11Z</time>
      </trkpt>
      <trkpt lat="47.37417" lon="-1.00407">
        <ele>55.451</ele>
        <time>2020-07-19T09:34:12Z</time>
      </trkpt>
      <trkpt lat="47.37415" lon="-1.00416">
        <ele>55.814</ele>
        <time>2020-07-19T09:34:13Z</time>
      </trkpt>
      <trkpt lat="47.37413" lon="-1.00425">
        <ele>56.022</ele>
        <time>2020-07-19T09:34:14Z</time>
      </trkpt>
      <trkpt lat="47.37412" lon="-1.00435">
        <ele>57.087</ele>
        <time>2020-07-19T09:34:15Z</time>
      </trkpt>
      <trkpt lat="47.37409" lon="-1.00444">
        <ele>56.987</ele>
        <time>2020-07-19T09:34:16Z</time>
      </trkpt>
      <trkpt lat="47.37407" lon="-1.00454">
        <ele>56.868</ele>
        <time>2020-07-19T09:34:17Z</time>
      </trkpt>
      <trkpt lat="47.37405" lon="-1.00463">
        <ele>57.417</ele>
        <time>2020-07-19T09:34:18Z</time>
      </trkpt>
      <trkpt lat="47.37402" lon="-1.00472">
        <ele>57.737</ele>
        <time>2020-07-19T09:34:19Z</time>
      </trkpt>
      <trkpt lat="47.374" lon="-1.00481">
        <ele>57.631</ele>
        <time>2020-07-19T09:34:20Z</time>
      </trkpt>
      <trkpt lat="47.37397" lon="-1.0049">
        <ele>57.9</ele>
        <time>2020-07-19T09:34:21Z</time>
      </trkpt>
      <trkpt lat="47.37396" lon="-1.00499">
        <ele>58.418</ele>
        <time>2020-07-19T09:34:22Z</time>
      </trkpt>
      <trkpt lat="47.37394" lon="-1.00508">
        <ele>58.909</ele>
        <time>2020-07-19T09:34:23Z</time>
      </trkpt>
      <trkpt lat="47.37392" lon="-1.00517">
        <ele>59.332</ele>
        <time>2020-07-19T09:34:24Z</time>
      </trkpt>
      <trkpt lat="47.37389" lon="-1.00527">
        <ele>58.988</ele>
        <time>2020-07-19T09:34:25Z</time>
      </trkpt>
      <trkpt lat="47.37387" lon="-1.00537">
        <ele>59.112</ele>
        <time>2020-07-19T09:34:26Z</time>
      </trkpt>
      <trkpt lat="47.37384" lon="-1.00546">
        <ele>59.318</ele>
        <time>2020-07-19T09:34:27Z</time>
      </trkpt>
      <trkpt lat="47.37381" lon="-1.00557">
        <ele>60.251</ele>
        <time>2020-07-19T09:34:28Z</time>
      </trkpt>
      <trkpt lat="47.37378" lon="-1.00567">
        <ele>59.768</ele>
        <time>2020-07-19T09:34:29Z</time>
      </trkpt>
      <trkpt lat="47.37376" lon="-1.00577">
        <ele>59.509</ele>
        <time>2020-07-19T09:34:30Z</time>
      </trkpt>
      <trkpt lat="47.37373" lon="-1.00587">
        <ele>59.821</ele>
        <time>2020-07-19T09:34:31Z</time>
      </trkpt>
      <trkpt lat="47.37371" lon="-1.00598">
        <ele>60.071</ele>
        <time>2020-07-19T09:34:32Z</time>
      </trkpt>
      <trkpt lat="47.37368" lon="-1.00608">
        <ele>59.831</ele>
        <time>2020-07-19T09:34:33Z</time>
      </trkpt>
      <trkpt lat="47.37366" lon="-1.00618">
        <ele>60.133</ele>
        <time>2020-07-19T09:34:34Z</time>
      </trkpt>
      <trkpt lat="47.37363" lon="-1.00628">
        <ele>60.462</ele>
        <time>2020-07-19T09:34:35Z</time>
      </trkpt>
      <trkpt lat="47.37361" lon="-1.00638">
        <ele>60.587</ele>
        <time>2020-07-19T09:34:36Z</time>
      </trkpt>
      <trkpt lat="47.37359" lon="-1.00648">
        <ele>59.89</ele>
        <time>2020-07-19T09:34:37Z</time>
      </trkpt>
      <trkpt lat="47.37356" lon="-1.00658">
        <ele>59.724</ele>
        <time>2020-07-19T09:34:38Z</time>
      </trkpt>
      <trkpt lat="47.37353" lon="-1.00668">
        <ele>59.603</ele>
        <time>2020-07-19T09:34:39Z</time>
      </trkpt>
      <trkpt lat="47.37351" lon="-1.00678">
        <ele>59.329</ele>
        <time>2020-07-19T09:34:40Z</time>
      </trkpt>
      <trkpt lat="47.37349" lon="-1.00689">
        <ele>59.342</ele>
        <time>2020-07-19T09:34:41Z</time>
      </trkpt>
      <trkpt lat="47.37346" lon="-1.00698">
        <ele>59.176</ele>
        <time>2020-07-19T09:34:42Z</time>
      </trkpt>
      <trkpt lat="47.37344" lon="-1.00708">
        <ele>59.032</ele>
        <time>2020-07-19T09:34:43Z</time>
      </trkpt>
      <trkpt lat="47.37342" lon="-1.00718">
        <ele>59.487</ele>
        <time>2020-07-19T09:34:44Z</time>
      </trkpt>
      <trkpt lat="47.3734" lon="-1.00729">
        <ele>59.109</ele>
        <time>2020-07-19T09:34:45Z</time>
      </trkpt>
      <trkpt lat="47.37337" lon="-1.00739">
        <ele>58.687</ele>
        <time>2020-07-19T09:34:46Z</time>
      </trkpt>
      <trkpt lat="47.37335" lon="-1.00748">
        <ele>59.117</ele>
        <time>2020-07-19T09:34:47Z</time>
      </trkpt>
      <trkpt lat="47.37332" lon="-1.00758">
        <ele>59.149</ele>
        <time>2020-07-19T09:34:48Z</time>
      </trkpt>
      <trkpt lat="47.3733" lon="-1.00768">
        <ele>59.569</ele>
        <time>2020-07-19T09:34:49Z</time>
      </trkpt>
      <trkpt lat="47.37327" lon="-1.00779">
        <ele>59.448</ele>
        <time>2020-07-19T09:34:50Z</time>
      </trkpt>
      <trkpt lat="47.37325" lon="-1.00789">
        <ele>58.85</ele>
        <time>2020-07-19T09:34:51Z</time>
      </trkpt>
      <trkpt lat="47.37322" lon="-1.00799">
        <ele>58.562</ele>
        <time>2020-07-19T09:34:52Z</time>
      </trkpt>
      <trkpt lat="47.3732" lon="-1.00809">
        <ele>58.56</ele>
        <time>2020-07-19T09:34:53Z</time>
      </trkpt>
      <trkpt lat="47.37317" lon="-1.00818">
        <ele>58.807</ele>
        <time>2020-07-19T09:34:54Z</time>
      </trkpt>
      <trkpt lat="47.37315" lon="-1.00829">
        <ele>59.26</ele>
        <time>2020-07-19T09:34:55Z</time>
      </trkpt>
      <trkpt lat="47.37313" lon="-1.00839">
        <ele>58.669</ele>
        <time>2020-07-19T09:34:56Z</time>
      </trkpt>
      <trkpt lat="47.3731" lon="-1.00848">
        <ele>58.305</ele>
        <time>2020-07-19T09:34:57Z</time>
      </trkpt>
      <trkpt lat="47.37307" lon="-1.00859">
        <ele>58.294</ele>
        <time>2020-07-19T09:34:58Z</time>
      </trkpt>
      <trkpt lat="47.37305" lon="-1.00868">
        <ele>58.465</ele>
        <time>2020-07-19T09:34:59Z</time>
      </trkpt>
      <trkpt lat="47.37302" lon="-1.00879">
        <ele>59.097</ele>
        <time>2020-07-19T09:35:00Z</time>
      </trkpt>
      <trkpt lat="47.373" lon="-1.00888">
        <ele>59.344</ele>
        <time>2020-07-19T09:35:01Z</time>
      </trkpt>
      <trkpt lat="47.37297" lon="-1.00899">
        <ele>58.754</ele>
        <time>2020-07-19T09:35:02Z</time>
      </trkpt>
      <trkpt lat="47.37295" lon="-1.00909">
        <ele>59.209</ele>
        <time>2020-07-19T09:35:03Z</time>
      </trkpt>
      <trkpt lat="47.37292" lon="-1.00918">
        <ele>59.539</ele>
        <time>2020-07-19T09:35:04Z</time>
      </trkpt>
      <trkpt lat="47.3729" lon="-1.00927">
        <ele>59.578</ele>
        <time>2020-07-19T09:35:05Z</time>
      </trkpt>
      <trkpt lat="47.37288" lon="-1.00937">
        <ele>58.625</ele>
        <time>2020-07-19T09:35:06Z</time>
      </trkpt>
      <trkpt lat="47.37286" lon="-1.00946">
        <ele>58.914</ele>
        <time>2020-07-19T09:35:07Z</time>
      </trkpt>
      <trkpt lat="47.37284" lon="-1.00955">
        <ele>59.466</ele>
        <time>2020-07-19T09:35:08Z</time>
      </trkpt>
      <trkpt lat="47.37282" lon="-1.00964">
        <ele>59.269</ele>
        <time>2020-07-19T09:35:09Z</time>
      </trkpt>
      <trkpt lat="47.37279" lon="-1.00972">
        <ele>60.574</ele>
        <time>2020-07-19T09:35:10Z</time>
      </trkpt>
      <trkpt lat="47.37276" lon="-1.00979">
        <ele>61.164</ele>
        <time>2020-07-19T09:35:11Z</time>
      </trkpt>
      <trkpt lat="47.37274" lon="-1.00988">
        <ele>61.896</ele>
        <time>2020-07-19T09:35:12Z</time>
      </trkpt>
      <trkpt lat="47.37273" lon="-1.00997">
        <ele>60.461</ele>
        <time>2020-07-19T09:35:13Z</time>
      </trkpt>
      <trkpt lat="47.3727" lon="-1.01006">
        <ele>61.299</ele>
        <time>2020-07-19T09:35:14Z</time>
      </trkpt>
      <trkpt lat="47.37268" lon="-1.01014">
        <ele>61.484</ele>
        <time>2020-07-19T09:35:15Z</time>
      </trkpt>
      <trkpt lat="47.37266" lon="-1.01023">
        <ele>61.559</ele>
        <time>2020-07-19T09:35:16Z</time>
      </trkpt>
      <trkpt lat="47.37264" lon="-1.01032">
        <ele>61.666</ele>
        <time>2020-07-19T09:35:17Z</time>
      </trkpt>
      <trkpt lat="47.37263" lon="-1.01042">
        <ele>60.887</ele>
        <time>2020-07-19T09:35:18Z</time>
      </trkpt>
      <trkpt lat="47.37261" lon="-1.01051">
        <ele>60.523</ele>
        <time>2020-07-19T09:35:19Z</time>
      </trkpt>
      <trkpt lat="47.37258" lon="-1.0106">
        <ele>60.49</ele>
        <time>2020-07-19T09:35:20Z</time>
      </trkpt>
      <trkpt lat="47.37256" lon="-1.01069">
        <ele>61</ele>
        <time>2020-07-19T09:35:21Z</time>
      </trkpt>
      <trkpt lat="47.37254" lon="-1.01078">
        <ele>60.791</ele>
        <time>2020-07-19T09:35:22Z</time>
      </trkpt>
      <trkpt lat="47.37251" lon="-1.01086">
        <ele>60.833</ele>
        <time>2020-07-19T09:35:23Z</time>
      </trkpt>
      <trkpt lat="47.3725" lon="-1.01094">
        <ele>61.056</ele>
        <time>2020-07-19T09:35:24Z</time>
      </trkpt>
      <trkpt lat="47.37248" lon="-1.01102">
        <ele>60.475</ele>
        <time>2020-07-19T09:35:25Z</time>
      </trkpt>
      <trkpt lat="47.37246" lon="-1.0111">
        <ele>60.371</ele>
        <time>2020-07-19T09:35:26Z</time>
      </trkpt>
      <trkpt lat="47.37244" lon="-1.01118">
        <ele>59.752</ele>
        <time>2020-07-19T09:35:27Z</time>
      </trkpt>
      <trkpt lat="47.37241" lon="-1.01126">
        <ele>59.845</ele>
        <time>2020-07-19T09:35:28Z</time>
      </trkpt>
      <trkpt lat="47.3724" lon="-1.01135">
        <ele>59.184</ele>
        <time>2020-07-19T09:35:29Z</time>
      </trkpt>
      <trkpt lat="47.37237" lon="-1.01144">
        <ele>57.836</ele>
        <time>2020-07-19T09:35:30Z</time>
      </trkpt>
      <trkpt lat="47.37233" lon="-1.01152">
        <ele>57.511</ele>
        <time>2020-07-19T09:35:31Z</time>
      </trkpt>
      <trkpt lat="47.37231" lon="-1.01161">
        <ele>56.896</ele>
        <time>2020-07-19T09:35:32Z</time>
      </trkpt>
      <trkpt lat="47.37229" lon="-1.0117">
        <ele>57.012</ele>
        <time>2020-07-19T09:35:33Z</time>
      </trkpt>
      <trkpt lat="47.37228" lon="-1.01177">
        <ele>54.902</ele>
        <time>2020-07-19T09:35:34Z</time>
      </trkpt>
      <trkpt lat="47.37227" lon="-1.01186">
        <ele>53.117</ele>
        <time>2020-07-19T09:35:35Z</time>
      </trkpt>
      <trkpt lat="47.37226" lon="-1.01194">
        <ele>53.115</ele>
        <time>2020-07-19T09:35:36Z</time>
      </trkpt>
      <trkpt lat="47.37225" lon="-1.01202">
        <ele>53.782</ele>
        <time>2020-07-19T09:35:37Z</time>
      </trkpt>
      <trkpt lat="47.37223" lon="-1.01209">
        <ele>53.4</ele>
        <time>2020-07-19T09:35:38Z</time>
      </trkpt>
      <trkpt lat="47.37222" lon="-1.01217">
        <ele>53.368</ele>
        <time>2020-07-19T09:35:39Z</time>
      </trkpt>
      <trkpt lat="47.3722" lon="-1.01226">
        <ele>52.33</ele>
        <time>2020-07-19T09:35:40Z</time>
      </trkpt>
      <trkpt lat="47.37218" lon="-1.01234">
        <ele>51.509</ele>
        <time>2020-07-19T09:35:41Z</time>
      </trkpt>
      <trkpt lat="47.37216" lon="-1.01242">
        <ele>51.28</ele>
        <time>2020-07-19T09:35:42Z</time>
      </trkpt>
      <trkpt lat="47.37214" lon="-1.0125">
        <ele>51.809</ele>
        <time>2020-07-19T09:35:43Z</time>
      </trkpt>
      <trkpt lat="47.37213" lon="-1.01257">
        <ele>52.104</ele>
        <time>2020-07-19T09:35:44Z</time>
      </trkpt>
      <trkpt lat="47.37212" lon="-1.01265">
        <ele>52.574</ele>
        <time>2020-07-19T09:35:45Z</time>
      </trkpt>
      <trkpt lat="47.3721" lon="-1.01274">
        <ele>51.754</ele>
        <time>2020-07-19T09:35:46Z</time>
      </trkpt>
      <trkpt lat="47.37209" lon="-1.01282">
        <ele>52.771</ele>
        <time>2020-07-19T09:35:47Z</time>
      </trkpt>
      <trkpt lat="47.37207" lon="-1.0129">
        <ele>53.764</ele>
        <time>2020-07-19T09:35:48Z</time>
      </trkpt>
      <trkpt lat="47.37205" lon="-1.01297">
        <ele>54.607</ele>
        <time>2020-07-19T09:35:49Z</time>
      </trkpt>
      <trkpt lat="47.37205" lon="-1.01306">
        <ele>55.952</ele>
        <time>2020-07-19T09:35:50Z</time>
      </trkpt>
      <trkpt lat="47.37204" lon="-1.01314">
        <ele>56.084</ele>
        <time>2020-07-19T09:35:51Z</time>
      </trkpt>
      <trkpt lat="47.37202" lon="-1.01322">
        <ele>57.22</ele>
        <time>2020-07-19T09:35:52Z</time>
      </trkpt>
      <trkpt lat="47.37201" lon="-1.01329">
        <ele>57.527</ele>
        <time>2020-07-19T09:35:53Z</time>
      </trkpt>
      <trkpt lat="47.37199" lon="-1.01336">
        <ele>57.71</ele>
        <time>2020-07-19T09:35:54Z</time>
      </trkpt>
      <trkpt lat="47.37198" lon="-1.01343">
        <ele>58.554</ele>
        <time>2020-07-19T09:35:55Z</time>
      </trkpt>
      <trkpt lat="47.37196" lon="-1.01351">
        <ele>58.179</ele>
        <time>2020-07-19T09:35:56Z</time>
      </trkpt>
      <trkpt lat="47.37195" lon="-1.01358">
        <ele>57.819</ele>
        <time>2020-07-19T09:35:57Z</time>
      </trkpt>
      <trkpt lat="47.37194" lon="-1.01366">
        <ele>58.582</ele>
        <time>2020-07-19T09:35:58Z</time>
      </trkpt>
      <trkpt lat="47.37193" lon="-1.01373">
        <ele>57.561</ele>
        <time>2020-07-19T09:35:59Z</time>
      </trkpt>
      <trkpt lat="47.37192" lon="-1.01382">
        <ele>57.709</ele>
        <time>2020-07-19T09:36:00Z</time>
      </trkpt>
      <trkpt lat="47.3719" lon="-1.0139">
        <ele>59.185</ele>
        <time>2020-07-19T09:36:01Z</time>
      </trkpt>
      <trkpt lat="47.37188" lon="-1.01398">
        <ele>58.528</ele>
        <time>2020-07-19T09:36:02Z</time>
      </trkpt>
      <trkpt lat="47.37187" lon="-1.01407">
        <ele>58.613</ele>
        <time>2020-07-19T09:36:03Z</time>
      </trkpt>
      <trkpt lat="47.37185" lon="-1.01413">
        <ele>57.624</ele>
        <time>2020-07-19T09:36:04Z</time>
      </trkpt>
      <trkpt lat="47.37183" lon="-1.01421">
        <ele>57.124</ele>
        <time>2020-07-19T09:36:05Z</time>
      </trkpt>
      <trkpt lat="47.37183" lon="-1.01428">
        <ele>57.499</ele>
        <time>2020-07-19T09:36:06Z</time>
      </trkpt>
      <trkpt lat="47.37183" lon="-1.01436">
        <ele>57.676</ele>
        <time>2020-07-19T09:36:07Z</time>
      </trkpt>
      <trkpt lat="47.37183" lon="-1.01445">
        <ele>56.844</ele>
        <time>2020-07-19T09:36:08Z</time>
      </trkpt>
      <trkpt lat="47.37183" lon="-1.01454">
        <ele>56.512</ele>
        <time>2020-07-19T09:36:09Z</time>
      </trkpt>
      <trkpt lat="47.37182" lon="-1.01462">
        <ele>55.003</ele>
        <time>2020-07-19T09:36:10Z</time>
      </trkpt>
      <trkpt lat="47.37181" lon="-1.01471">
        <ele>55.455</ele>
        <time>2020-07-19T09:36:11Z</time>
      </trkpt>
      <trkpt lat="47.37179" lon="-1.01478">
        <ele>54.916</ele>
        <time>2020-07-19T09:36:12Z</time>
      </trkpt>
      <trkpt lat="47.37179" lon="-1.01485">
        <ele>54.325</ele>
        <time>2020-07-19T09:36:13Z</time>
      </trkpt>
      <trkpt lat="47.37179" lon="-1.01494">
        <ele>54.475</ele>
        <time>2020-07-19T09:36:14Z</time>
      </trkpt>
      <trkpt lat="47.37178" lon="-1.01501">
        <ele>54.499</ele>
        <time>2020-07-19T09:36:15Z</time>
      </trkpt>
      <trkpt lat="47.37177" lon="-1.01508">
        <ele>55.221</ele>
        <time>2020-07-19T09:36:16Z</time>
      </trkpt>
      <trkpt lat="47.37177" lon="-1.01516">
        <ele>55.199</ele>
        <time>2020-07-19T09:36:17Z</time>
      </trkpt>
      <trkpt lat="47.37175" lon="-1.01524">
        <ele>55.043</ele>
        <time>2020-07-19T09:36:18Z</time>
      </trkpt>
      <trkpt lat="47.37173" lon="-1.01532">
        <ele>55.056</ele>
        <time>2020-07-19T09:36:19Z</time>
      </trkpt>
      <trkpt lat="47.37172" lon="-1.01539">
        <ele>55.729</ele>
        <time>2020-07-19T09:36:20Z</time>
      </trkpt>
      <trkpt lat="47.3717" lon="-1.01546">
        <ele>56.343</ele>
        <time>2020-07-19T09:36:21Z</time>
      </trkpt>
      <trkpt lat="47.37169" lon="-1.01553">
        <ele>56.418</ele>
        <time>2020-07-19T09:36:22Z</time>
      </trkpt>
      <trkpt lat="47.37167" lon="-1.0156">
        <ele>56.811</ele>
        <time>2020-07-19T09:36:23Z</time>
      </trkpt>
      <trkpt lat="47.37165" lon="-1.01566">
        <ele>57.585</ele>
        <time>2020-07-19T09:36:24Z</time>
      </trkpt>
      <trkpt lat="47.37164" lon="-1.01572">
        <ele>57.209</ele>
        <time>2020-07-19T09:36:25Z</time>
      </trkpt>
      <trkpt lat="47.37163" lon="-1.01578">
        <ele>57.35</ele>
        <time>2020-07-19T09:36:26Z</time>
      </trkpt>
      <trkpt lat="47.37161" lon="-1.01584">
        <ele>58.236</ele>
        <time>2020-07-19T09:36:27Z</time>
      </trkpt>
      <trkpt lat="47.37159" lon="-1.0159">
        <ele>58.336</ele>
        <time>2020-07-19T09:36:28Z</time>
      </trkpt>
      <trkpt lat="47.37159" lon="-1.01593">
        <ele>59.241</ele>
        <time>2020-07-19T09:36:29Z</time>
      </trkpt>
      <trkpt lat="47.37158" lon="-1.01598">
        <ele>60.007</ele>
        <time>2020-07-19T09:36:30Z</time>
      </trkpt>
      <trkpt lat="47.37156" lon="-1.01602">
        <ele>61.67</ele>
        <time>2020-07-19T09:36:31Z</time>
      </trkpt>
      <trkpt lat="47.37153" lon="-1.01605">
        <ele>61.446</ele>
        <time>2020-07-19T09:36:32Z</time>
      </trkpt>
      <trkpt lat="47.37152" lon="-1.01608">
        <ele>61.955</ele>
        <time>2020-07-19T09:36:33Z</time>
      </trkpt>
      <trkpt lat="47.37149" lon="-1.0161">
        <ele>62.768</ele>
        <time>2020-07-19T09:36:34Z</time>
      </trkpt>
      <trkpt lat="47.37148" lon="-1.01612">
        <ele>62.707</ele>
        <time>2020-07-19T09:36:35Z</time>
      </trkpt>
      <trkpt lat="47.37147" lon="-1.01612">
        <ele>63.191</ele>
        <time>2020-07-19T09:36:36Z</time>
      </trkpt>
      <trkpt lat="47.37147" lon="-1.01611">
        <ele>63.724</ele>
        <time>2020-07-19T09:36:37Z</time>
      </trkpt>
      <trkpt lat="47.37147" lon="-1.0161">
        <ele>64.041</ele>
        <time>2020-07-19T09:36:38Z</time>
      </trkpt>
      <trkpt lat="47.37147" lon="-1.0161">
        <ele>62.592</ele>
        <time>2020-07-19T09:36:39Z</time>
      </trkpt>
      <trkpt lat="47.37147" lon="-1.0161">
        <ele>63.227</ele>
        <time>2020-07-19T09:36:40Z</time>
      </trkpt>
      <trkpt lat="47.37147" lon="-1.0161">
        <ele>63.104</ele>
        <time>2020-07-19T09:36:41Z</time>
      </trkpt>
      <trkpt lat="47.37148" lon="-1.0161">
        <ele>62.759</ele>
        <time>2020-07-19T09:36:42Z</time>
      </trkpt>
      <trkpt lat="47.37148" lon="-1.01611">
        <ele>62.411</ele>
        <time>2020-07-19T09:36:43Z</time>
      </trkpt>
      <trkpt lat="47.37148" lon="-1.01611">
        <ele>62.297</ele>
        <time>2020-07-19T09:36:44Z</time>
      </trkpt>
      <trkpt lat="47.37148" lon="-1.01611">
        <ele>62.285</ele>
        <time>2020-07-19T09:36:45Z</time>
      </trkpt>
      <trkpt lat="47.37148" lon="-1.01611">
        <ele>62.234</ele>
        <time>2020-07-19T09:36:46Z</time>
      </trkpt>
      <trkpt lat="47.37148" lon="-1.01611">
        <ele>61.955</ele>
        <time>2020-07-19T09:36:47Z</time>
      </trkpt>
      <trkpt lat="47.37148" lon="-1.01611">
        <ele>61.882</ele>
        <time>2020-07-19T09:36:48Z</time>
      </trkpt>
      <trkpt lat="47.37148" lon="-1.01611">
        <ele>61.888</ele>
        <time>2020-07-19T09:36:49Z</time>
      </trkpt>
      <trkpt lat="47.37148" lon="-1.01611">
        <ele>61.894</ele>
        <time>2020-07-19T09:36:50Z</time>
      </trkpt>
      <trkpt lat="47.37148" lon="-1.01611">
        <ele>61.88</ele>
        <time>2020-07-19T09:36:51Z</time>
      </trkpt>
      <trkpt lat="47.37148" lon="-1.01611">
        <ele>61.882</ele>
        <time>2020-07-19T09:36:52Z</time>
      </trkpt>
      <trkpt lat="47.37148" lon="-1.01611">
        <ele>61.878</ele>
        <time>2020-07-19T09:36:53Z</time>
      </trkpt>
      <trkpt lat="47.37148" lon="-1.01611">
        <ele>61.879</ele>
        <time>2020-07-19T09:36:54Z</time>
      </trkpt>
      <trkpt lat="47.37148" lon="-1.01611">
        <ele>61.878</ele>
        <time>2020-07-19T09:36:55Z</time>
      </trkpt>
      <trkpt lat="47.37148" lon="-1.01611">
        <ele>61.881</ele>
        <time>2020-07-19T09:36:56Z</time>
      </trkpt>
      <trkpt lat="47.37148" lon="-1.01611">
        <ele>61.889</ele>
        <time>2020-07-19T09:36:57Z</time>
      </trkpt>
      <trkpt lat="47.37148" lon="-1.01611">
        <ele>61.896</ele>
        <time>2020-07-19T09:36:58Z</time>
      </trkpt>
      <trkpt lat="47.37148" lon="-1.01611">
        <ele>61.899</ele>
        <time>2020-07-19T09:36:59Z</time>
      </trkpt>
      <trkpt lat="47.37148" lon="-1.01612">
        <ele>60.978</ele>
        <time>2020-07-19T09:37:00Z</time>
      </trkpt>
      <trkpt lat="47.37147" lon="-1.01613">
        <ele>61.045</ele>
        <time>2020-07-19T09:37:01Z</time>
      </trkpt>
      <trkpt lat="47.37146" lon="-1.01614">
        <ele>61.232</ele>
        <time>2020-07-19T09:37:02Z</time>
      </trkpt>
      <trkpt lat="47.37145" lon="-1.01617">
        <ele>61.213</ele>
        <time>2020-07-19T09:37:03Z</time>
      </trkpt>
      <trkpt lat="47.37143" lon="-1.0162">
        <ele>61.661</ele>
        <time>2020-07-19T09:37:04Z</time>
      </trkpt>
      <trkpt lat="47.37142" lon="-1.01624">
        <ele>61.472</ele>
        <time>2020-07-19T09:37:05Z</time>
      </trkpt>
      <trkpt lat="47.37141" lon="-1.01627">
        <ele>61.774</ele>
        <time>2020-07-19T09:37:06Z</time>
      </trkpt>
      <trkpt lat="47.3714" lon="-1.0163">
        <ele>61.212</ele>
        <time>2020-07-19T09:37:07Z</time>
      </trkpt>
      <trkpt lat="47.37138" lon="-1.01633">
        <ele>61.482</ele>
        <time>2020-07-19T09:37:08Z</time>
      </trkpt>
      <trkpt lat="47.37137" lon="-1.01635">
        <ele>61.639</ele>
        <time>2020-07-19T09:37:09Z</time>
      </trkpt>
      <trkpt lat="47.37136" lon="-1.01638">
        <ele>62.094</ele>
        <time>2020-07-19T09:37:10Z</time>
      </trkpt>
      <trkpt lat="47.37135" lon="-1.0164">
        <ele>61.847</ele>
        <time>2020-07-19T09:37:11Z</time>
      </trkpt>
      <trkpt lat="47.37134" lon="-1.01641">
        <ele>62.41</ele>
        <time>2020-07-19T09:37:12Z</time>
      </trkpt>
      <trkpt lat="47.37132" lon="-1.01643">
        <ele>61.701</ele>
        <time>2020-07-19T09:37:13Z</time>
      </trkpt>
      <trkpt lat="47.3713" lon="-1.01645">
        <ele>61.192</ele>
        <time>2020-07-19T09:37:14Z</time>
      </trkpt>
      <trkpt lat="47.37128" lon="-1.01647">
        <ele>60.854</ele>
        <time>2020-07-19T09:37:15Z</time>
      </trkpt>
      <trkpt lat="47.37126" lon="-1.01649">
        <ele>60.664</ele>
        <time>2020-07-19T09:37:16Z</time>
      </trkpt>
      <trkpt lat="47.37124" lon="-1.01651">
        <ele>60.548</ele>
        <time>2020-07-19T09:37:17Z</time>
      </trkpt>
      <trkpt lat="47.37122" lon="-1.01654">
        <ele>60.982</ele>
        <time>2020-07-19T09:37:18Z</time>
      </trkpt>
      <trkpt lat="47.37121" lon="-1.01656">
        <ele>60.855</ele>
        <time>2020-07-19T09:37:19Z</time>
      </trkpt>
      <trkpt lat="47.3712" lon="-1.01659">
        <ele>60.565</ele>
        <time>2020-07-19T09:37:20Z</time>
      </trkpt>
      <trkpt lat="47.3712" lon="-1.01661">
        <ele>60.289</ele>
        <time>2020-07-19T09:37:21Z</time>
      </trkpt>
      <trkpt lat="47.37119" lon="-1.01663">
        <ele>59.263</ele>
        <time>2020-07-19T09:37:22Z</time>
      </trkpt>
      <trkpt lat="47.37119" lon="-1.01664">
        <ele>59.76</ele>
        <time>2020-07-19T09:37:23Z</time>
      </trkpt>
      <trkpt lat="47.37118" lon="-1.01664">
        <ele>59.866</ele>
        <time>2020-07-19T09:37:24Z</time>
      </trkpt>
      <trkpt lat="47.37118" lon="-1.01664">
        <ele>59.576</ele>
        <time>2020-07-19T09:37:25Z</time>
      </trkpt>
      <trkpt lat="47.37118" lon="-1.01664">
        <ele>59.661</ele>
        <time>2020-07-19T09:37:26Z</time>
      </trkpt>
      <trkpt lat="47.37118" lon="-1.01664">
        <ele>59.724</ele>
        <time>2020-07-19T09:37:27Z</time>
      </trkpt>
      <trkpt lat="47.37118" lon="-1.01664">
        <ele>59.716</ele>
        <time>2020-07-19T09:37:28Z</time>
      </trkpt>
      <trkpt lat="47.37118" lon="-1.01664">
        <ele>59.504</ele>
        <time>2020-07-19T09:37:29Z</time>
      </trkpt>
      <trkpt lat="47.37118" lon="-1.01665">
        <ele>59.297</ele>
        <time>2020-07-19T09:37:30Z</time>
      </trkpt>
      <trkpt lat="47.37117" lon="-1.01665">
        <ele>59.258</ele>
        <time>2020-07-19T09:37:31Z</time>
      </trkpt>
      <trkpt lat="47.37117" lon="-1.01665">
        <ele>59.108</ele>
        <time>2020-07-19T09:37:32Z</time>
      </trkpt>
      <trkpt lat="47.37118" lon="-1.01665">
        <ele>58.902</ele>
        <time>2020-07-19T09:37:33Z</time>
      </trkpt>
      <trkpt lat="47.37118" lon="-1.01665">
        <ele>58.669</ele>
        <time>2020-07-19T09:37:34Z</time>
      </trkpt>
      <trkpt lat="47.37118" lon="-1.01665">
        <ele>58.591</ele>
        <time>2020-07-19T09:37:35Z</time>
      </trkpt>
      <trkpt lat="47.37118" lon="-1.01665">
        <ele>58.62</ele>
        <time>2020-07-19T09:37:36Z</time>
      </trkpt>
      <trkpt lat="47.37118" lon="-1.01665">
        <ele>58.665</ele>
        <time>2020-07-19T09:37:37Z</time>
      </trkpt>
      <trkpt lat="47.37118" lon="-1.01665">
        <ele>58.659</ele>
        <time>2020-07-19T09:37:38Z</time>
      </trkpt>
      <trkpt lat="47.37118" lon="-1.01665">
        <ele>58.653</ele>
        <time>2020-07-19T09:37:39Z</time>
      </trkpt>
      <trkpt lat="47.37118" lon="-1.01665">
        <ele>58.664</ele>
        <time>2020-07-19T09:37:40Z</time>
      </trkpt>
      <trkpt lat="47.37118" lon="-1.01666">
        <ele>58.656</ele>
        <time>2020-07-19T09:37:41Z</time>
      </trkpt>
      <trkpt lat="47.37118" lon="-1.01666">
        <ele>58.661</ele>
        <time>2020-07-19T09:37:42Z</time>
      </trkpt>
      <trkpt lat="47.37118" lon="-1.01666">
        <ele>58.633</ele>
        <time>2020-07-19T09:37:43Z</time>
      </trkpt>
      <trkpt lat="47.37118" lon="-1.01666">
        <ele>58.628</ele>
        <time>2020-07-19T09:37:44Z</time>
      </trkpt>
      <trkpt lat="47.37118" lon="-1.01666">
        <ele>58.624</ele>
        <time>2020-07-19T09:37:45Z</time>
      </trkpt>
      <trkpt lat="47.37118" lon="-1.01666">
        <ele>58.616</ele>
        <time>2020-07-19T09:37:46Z</time>
      </trkpt>
      <trkpt lat="47.37118" lon="-1.01666">
        <ele>58.613</ele>
        <time>2020-07-19T09:37:47Z</time>
      </trkpt>
      <trkpt lat="47.37118" lon="-1.01666">
        <ele>58.611</ele>
        <time>2020-07-19T09:37:48Z</time>
      </trkpt>
      <trkpt lat="47.37118" lon="-1.01666">
        <ele>58.6</ele>
        <time>2020-07-19T09:37:49Z</time>
      </trkpt>
      <trkpt lat="47.37118" lon="-1.01666">
        <ele>58.605</ele>
        <time>2020-07-19T09:37:50Z</time>
      </trkpt>
      <trkpt lat="47.37118" lon="-1.01666">
        <ele>58.61</ele>
        <time>2020-07-19T09:37:51Z</time>
      </trkpt>
      <trkpt lat="47.37118" lon="-1.01666">
        <ele>58.613</ele>
        <time>2020-07-19T09:37:52Z</time>
      </trkpt>
      <trkpt lat="47.37118" lon="-1.01666">
        <ele>58.621</ele>
        <time>2020-07-19T09:37:53Z</time>
      </trkpt>
      <trkpt lat="47.37118" lon="-1.01666">
        <ele>58.62</ele>
        <time>2020-07-19T09:37:54Z</time>
      </trkpt>
      <trkpt lat="47.37118" lon="-1.01666">
        <ele>58.631</ele>
        <time>2020-07-19T09:37:55Z</time>
      </trkpt>
      <trkpt lat="47.37119" lon="-1.01668">
        <ele>56.887</ele>
        <time>2020-07-19T09:37:56Z</time>
      </trkpt>
      <trkpt lat="47.37119" lon="-1.0167">
        <ele>56.411</ele>
        <time>2020-07-19T09:37:57Z</time>
      </trkpt>
      <trkpt lat="47.37118" lon="-1.01672">
        <ele>59.364</ele>
        <time>2020-07-19T09:37:58Z</time>
      </trkpt>
      <trkpt lat="47.37117" lon="-1.01676">
        <ele>60.399</ele>
        <time>2020-07-19T09:37:59Z</time>
      </trkpt>
      <trkpt lat="47.37117" lon="-1.01679">
        <ele>60.187</ele>
        <time>2020-07-19T09:38:00Z</time>
      </trkpt>
      <trkpt lat="47.37116" lon="-1.01683">
        <ele>59.229</ele>
        <time>2020-07-19T09:38:01Z</time>
      </trkpt>
      <trkpt lat="47.37116" lon="-1.01686">
        <ele>58.585</ele>
        <time>2020-07-19T09:38:02Z</time>
      </trkpt>
      <trkpt lat="47.37115" lon="-1.01689">
        <ele>59.648</ele>
        <time>2020-07-19T09:38:03Z</time>
      </trkpt>
      <trkpt lat="47.37115" lon="-1.0169">
        <ele>59.926</ele>
        <time>2020-07-19T09:38:04Z</time>
      </trkpt>
      <trkpt lat="47.37116" lon="-1.0169">
        <ele>59.632</ele>
        <time>2020-07-19T09:38:05Z</time>
      </trkpt>
      <trkpt lat="47.37116" lon="-1.0169">
        <ele>59.73</ele>
        <time>2020-07-19T09:38:06Z</time>
      </trkpt>
      <trkpt lat="47.37116" lon="-1.0169">
        <ele>59.766</ele>
        <time>2020-07-19T09:38:07Z</time>
      </trkpt>
      <trkpt lat="47.37116" lon="-1.0169">
        <ele>59.605</ele>
        <time>2020-07-19T09:38:08Z</time>
      </trkpt>
      <trkpt lat="47.37116" lon="-1.0169">
        <ele>59.941</ele>
        <time>2020-07-19T09:38:09Z</time>
      </trkpt>
      <trkpt lat="47.37116" lon="-1.0169">
        <ele>59.788</ele>
        <time>2020-07-19T09:38:10Z</time>
      </trkpt>
      <trkpt lat="47.37116" lon="-1.0169">
        <ele>59.902</ele>
        <time>2020-07-19T09:38:11Z</time>
      </trkpt>
      <trkpt lat="47.37115" lon="-1.0169">
        <ele>60.159</ele>
        <time>2020-07-19T09:38:12Z</time>
      </trkpt>
      <trkpt lat="47.37115" lon="-1.01689">
        <ele>60.047</ele>
        <time>2020-07-19T09:38:13Z</time>
      </trkpt>
      <trkpt lat="47.37115" lon="-1.01689">
        <ele>60.478</ele>
        <time>2020-07-19T09:38:14Z</time>
      </trkpt>
      <trkpt lat="47.37115" lon="-1.01689">
        <ele>60.498</ele>
        <time>2020-07-19T09:38:15Z</time>
      </trkpt>
      <trkpt lat="47.37115" lon="-1.01689">
        <ele>60.289</ele>
        <time>2020-07-19T09:38:16Z</time>
      </trkpt>
      <trkpt lat="47.37115" lon="-1.01689">
        <ele>60.342</ele>
        <time>2020-07-19T09:38:17Z</time>
      </trkpt>
      <trkpt lat="47.37115" lon="-1.0169">
        <ele>59.107</ele>
        <time>2020-07-19T09:38:18Z</time>
      </trkpt>
      <trkpt lat="47.37114" lon="-1.01692">
        <ele>58.315</ele>
        <time>2020-07-19T09:38:19Z</time>
      </trkpt>
      <trkpt lat="47.37113" lon="-1.01695">
        <ele>58.871</ele>
        <time>2020-07-19T09:38:20Z</time>
      </trkpt>
      <trkpt lat="47.37113" lon="-1.01698">
        <ele>58.774</ele>
        <time>2020-07-19T09:38:21Z</time>
      </trkpt>
      <trkpt lat="47.37113" lon="-1.01701">
        <ele>59.089</ele>
        <time>2020-07-19T09:38:22Z</time>
      </trkpt>
      <trkpt lat="47.37112" lon="-1.01704">
        <ele>59.153</ele>
        <time>2020-07-19T09:38:23Z</time>
      </trkpt>
      <trkpt lat="47.37112" lon="-1.01708">
        <ele>59.345</ele>
        <time>2020-07-19T09:38:24Z</time>
      </trkpt>
      <trkpt lat="47.37111" lon="-1.01712">
        <ele>59.766</ele>
        <time>2020-07-19T09:38:25Z</time>
      </trkpt>
      <trkpt lat="47.37111" lon="-1.01716">
        <ele>59.326</ele>
        <time>2020-07-19T09:38:26Z</time>
      </trkpt>
      <trkpt lat="47.37111" lon="-1.01719">
        <ele>59.655</ele>
        <time>2020-07-19T09:38:27Z</time>
      </trkpt>
      <trkpt lat="47.37111" lon="-1.01723">
        <ele>59.871</ele>
        <time>2020-07-19T09:38:28Z</time>
      </trkpt>
      <trkpt lat="47.3711" lon="-1.01727">
        <ele>59.395</ele>
        <time>2020-07-19T09:38:29Z</time>
      </trkpt>
      <trkpt lat="47.3711" lon="-1.01732">
        <ele>60.217</ele>
        <time>2020-07-19T09:38:30Z</time>
      </trkpt>
      <trkpt lat="47.3711" lon="-1.01736">
        <ele>60.6</ele>
        <time>2020-07-19T09:38:31Z</time>
      </trkpt>
      <trkpt lat="47.37109" lon="-1.01741">
        <ele>60.579</ele>
        <time>2020-07-19T09:38:32Z</time>
      </trkpt>
      <trkpt lat="47.37108" lon="-1.01745">
        <ele>60.846</ele>
        <time>2020-07-19T09:38:33Z</time>
      </trkpt>
      <trkpt lat="47.37107" lon="-1.01749">
        <ele>60.885</ele>
        <time>2020-07-19T09:38:34Z</time>
      </trkpt>
      <trkpt lat="47.37106" lon="-1.01754">
        <ele>60.708</ele>
        <time>2020-07-19T09:38:35Z</time>
      </trkpt>
      <trkpt lat="47.37105" lon="-1.01759">
        <ele>60.972</ele>
        <time>2020-07-19T09:38:36Z</time>
      </trkpt>
      <trkpt lat="47.37104" lon="-1.01764">
        <ele>60.913</ele>
        <time>2020-07-19T09:38:37Z</time>
      </trkpt>
      <trkpt lat="47.37104" lon="-1.01768">
        <ele>61.284</ele>
        <time>2020-07-19T09:38:38Z</time>
      </trkpt>
      <trkpt lat="47.37103" lon="-1.01773">
        <ele>61.563</ele>
        <time>2020-07-19T09:38:39Z</time>
      </trkpt>
      <trkpt lat="47.37102" lon="-1.01778">
        <ele>60.823</ele>
        <time>2020-07-19T09:38:40Z</time>
      </trkpt>
      <trkpt lat="47.37102" lon="-1.01784">
        <ele>60.087</ele>
        <time>2020-07-19T09:38:41Z</time>
      </trkpt>
      <trkpt lat="47.37102" lon="-1.0179">
        <ele>59.877</ele>
        <time>2020-07-19T09:38:42Z</time>
      </trkpt>
      <trkpt lat="47.37101" lon="-1.01795">
        <ele>59.755</ele>
        <time>2020-07-19T09:38:43Z</time>
      </trkpt>
      <trkpt lat="47.37101" lon="-1.01801">
        <ele>60.48</ele>
        <time>2020-07-19T09:38:44Z</time>
      </trkpt>
      <trkpt lat="47.37101" lon="-1.01806">
        <ele>60.653</ele>
        <time>2020-07-19T09:38:45Z</time>
      </trkpt>
      <trkpt lat="47.371" lon="-1.01812">
        <ele>60.437</ele>
        <time>2020-07-19T09:38:46Z</time>
      </trkpt>
      <trkpt lat="47.371" lon="-1.01816">
        <ele>59.584</ele>
        <time>2020-07-19T09:38:47Z</time>
      </trkpt>
      <trkpt lat="47.37099" lon="-1.01821">
        <ele>60.048</ele>
        <time>2020-07-19T09:38:48Z</time>
      </trkpt>
      <trkpt lat="47.37099" lon="-1.01826">
        <ele>60.05</ele>
        <time>2020-07-19T09:38:49Z</time>
      </trkpt>
      <trkpt lat="47.37098" lon="-1.01831">
        <ele>60.981</ele>
        <time>2020-07-19T09:38:50Z</time>
      </trkpt>
      <trkpt lat="47.37098" lon="-1.01835">
        <ele>60.942</ele>
        <time>2020-07-19T09:38:51Z</time>
      </trkpt>
      <trkpt lat="47.37097" lon="-1.0184">
        <ele>61.089</ele>
        <time>2020-07-19T09:38:52Z</time>
      </trkpt>
      <trkpt lat="47.37096" lon="-1.01846">
        <ele>61.261</ele>
        <time>2020-07-19T09:38:53Z</time>
      </trkpt>
      <trkpt lat="47.37096" lon="-1.01851">
        <ele>61.404</ele>
        <time>2020-07-19T09:38:54Z</time>
      </trkpt>
      <trkpt lat="47.37095" lon="-1.01858">
        <ele>61.332</ele>
        <time>2020-07-19T09:38:55Z</time>
      </trkpt>
      <trkpt lat="47.37095" lon="-1.01864">
        <ele>60.956</ele>
        <time>2020-07-19T09:38:56Z</time>
      </trkpt>
      <trkpt lat="47.37095" lon="-1.0187">
        <ele>60.637</ele>
        <time>2020-07-19T09:38:57Z</time>
      </trkpt>
      <trkpt lat="47.37094" lon="-1.01877">
        <ele>60.149</ele>
        <time>2020-07-19T09:38:58Z</time>
      </trkpt>
      <trkpt lat="47.37094" lon="-1.01883">
        <ele>59.732</ele>
        <time>2020-07-19T09:38:59Z</time>
      </trkpt>
      <trkpt lat="47.37094" lon="-1.01889">
        <ele>59.721</ele>
        <time>2020-07-19T09:39:00Z</time>
      </trkpt>
      <trkpt lat="47.37093" lon="-1.01895">
        <ele>59.485</ele>
        <time>2020-07-19T09:39:01Z</time>
      </trkpt>
      <trkpt lat="47.37093" lon="-1.01902">
        <ele>59.78</ele>
        <time>2020-07-19T09:39:02Z</time>
      </trkpt>
      <trkpt lat="47.37093" lon="-1.01908">
        <ele>59.822</ele>
        <time>2020-07-19T09:39:03Z</time>
      </trkpt>
      <trkpt lat="47.37093" lon="-1.01915">
        <ele>59.684</ele>
        <time>2020-07-19T09:39:04Z</time>
      </trkpt>
      <trkpt lat="47.37094" lon="-1.01921">
        <ele>59.654</ele>
        <time>2020-07-19T09:39:05Z</time>
      </trkpt>
      <trkpt lat="47.37094" lon="-1.01928">
        <ele>59.499</ele>
        <time>2020-07-19T09:39:06Z</time>
      </trkpt>
      <trkpt lat="47.37093" lon="-1.01935">
        <ele>59.492</ele>
        <time>2020-07-19T09:39:07Z</time>
      </trkpt>
      <trkpt lat="47.37092" lon="-1.01942">
        <ele>59.532</ele>
        <time>2020-07-19T09:39:08Z</time>
      </trkpt>
      <trkpt lat="47.37092" lon="-1.01949">
        <ele>59.809</ele>
        <time>2020-07-19T09:39:09Z</time>
      </trkpt>
      <trkpt lat="47.37093" lon="-1.01955">
        <ele>60.016</ele>
        <time>2020-07-19T09:39:10Z</time>
      </trkpt>
      <trkpt lat="47.37093" lon="-1.01962">
        <ele>59.839</ele>
        <time>2020-07-19T09:39:11Z</time>
      </trkpt>
      <trkpt lat="47.37094" lon="-1.01969">
        <ele>59.842</ele>
        <time>2020-07-19T09:39:12Z</time>
      </trkpt>
      <trkpt lat="47.37094" lon="-1.01976">
        <ele>59.982</ele>
        <time>2020-07-19T09:39:13Z</time>
      </trkpt>
      <trkpt lat="47.37095" lon="-1.01983">
        <ele>60.027</ele>
        <time>2020-07-19T09:39:14Z</time>
      </trkpt>
      <trkpt lat="47.37096" lon="-1.01989">
        <ele>59.521</ele>
        <time>2020-07-19T09:39:15Z</time>
      </trkpt>
      <trkpt lat="47.37096" lon="-1.01996">
        <ele>59.62</ele>
        <time>2020-07-19T09:39:16Z</time>
      </trkpt>
      <trkpt lat="47.37097" lon="-1.02003">
        <ele>59.396</ele>
        <time>2020-07-19T09:39:17Z</time>
      </trkpt>
      <trkpt lat="47.37097" lon="-1.0201">
        <ele>59.412</ele>
        <time>2020-07-19T09:39:18Z</time>
      </trkpt>
      <trkpt lat="47.37098" lon="-1.02018">
        <ele>59.354</ele>
        <time>2020-07-19T09:39:19Z</time>
      </trkpt>
      <trkpt lat="47.37098" lon="-1.02025">
        <ele>59.835</ele>
        <time>2020-07-19T09:39:20Z</time>
      </trkpt>
      <trkpt lat="47.37099" lon="-1.02032">
        <ele>60.86</ele>
        <time>2020-07-19T09:39:21Z</time>
      </trkpt>
      <trkpt lat="47.371" lon="-1.02039">
        <ele>60.862</ele>
        <time>2020-07-19T09:39:22Z</time>
      </trkpt>
      <trkpt lat="47.37102" lon="-1.02045">
        <ele>60.965</ele>
        <time>2020-07-19T09:39:23Z</time>
      </trkpt>
      <trkpt lat="47.37103" lon="-1.02052">
        <ele>60.39</ele>
        <time>2020-07-19T09:39:24Z</time>
      </trkpt>
      <trkpt lat="47.37105" lon="-1.02058">
        <ele>60.085</ele>
        <time>2020-07-19T09:39:25Z</time>
      </trkpt>
      <trkpt lat="47.37107" lon="-1.02064">
        <ele>60.059</ele>
        <time>2020-07-19T09:39:26Z</time>
      </trkpt>
      <trkpt lat="47.37108" lon="-1.02071">
        <ele>60.282</ele>
        <time>2020-07-19T09:39:27Z</time>
      </trkpt>
      <trkpt lat="47.3711" lon="-1.02078">
        <ele>60.188</ele>
        <time>2020-07-19T09:39:28Z</time>
      </trkpt>
      <trkpt lat="47.37112" lon="-1.02085">
        <ele>61.156</ele>
        <time>2020-07-19T09:39:29Z</time>
      </trkpt>
      <trkpt lat="47.37115" lon="-1.02092">
        <ele>60.448</ele>
        <time>2020-07-19T09:39:30Z</time>
      </trkpt>
      <trkpt lat="47.37117" lon="-1.02098">
        <ele>59.352</ele>
        <time>2020-07-19T09:39:31Z</time>
      </trkpt>
      <trkpt lat="47.37119" lon="-1.02104">
        <ele>59.144</ele>
        <time>2020-07-19T09:39:32Z</time>
      </trkpt>
      <trkpt lat="47.3712" lon="-1.02111">
        <ele>58.978</ele>
        <time>2020-07-19T09:39:33Z</time>
      </trkpt>
      <trkpt lat="47.37123" lon="-1.02116">
        <ele>58.68</ele>
        <time>2020-07-19T09:39:34Z</time>
      </trkpt>
      <trkpt lat="47.37124" lon="-1.02123">
        <ele>58.749</ele>
        <time>2020-07-19T09:39:35Z</time>
      </trkpt>
      <trkpt lat="47.37125" lon="-1.02128">
        <ele>58.532</ele>
        <time>2020-07-19T09:39:36Z</time>
      </trkpt>
      <trkpt lat="47.37127" lon="-1.02133">
        <ele>58.212</ele>
        <time>2020-07-19T09:39:37Z</time>
      </trkpt>
      <trkpt lat="47.37128" lon="-1.02138">
        <ele>58.52</ele>
        <time>2020-07-19T09:39:38Z</time>
      </trkpt>
      <trkpt lat="47.3713" lon="-1.02143">
        <ele>58.627</ele>
        <time>2020-07-19T09:39:39Z</time>
      </trkpt>
      <trkpt lat="47.37131" lon="-1.02148">
        <ele>58.796</ele>
        <time>2020-07-19T09:39:40Z</time>
      </trkpt>
      <trkpt lat="47.37132" lon="-1.02152">
        <ele>58.667</ele>
        <time>2020-07-19T09:39:41Z</time>
      </trkpt>
      <trkpt lat="47.37133" lon="-1.02157">
        <ele>58.933</ele>
        <time>2020-07-19T09:39:42Z</time>
      </trkpt>
      <trkpt lat="47.37132" lon="-1.02161">
        <ele>59.149</ele>
        <time>2020-07-19T09:39:43Z</time>
      </trkpt>
      <trkpt lat="47.3713" lon="-1.02165">
        <ele>58.576</ele>
        <time>2020-07-19T09:39:44Z</time>
      </trkpt>
      <trkpt lat="47.37128" lon="-1.02168">
        <ele>58.124</ele>
        <time>2020-07-19T09:39:45Z</time>
      </trkpt>
      <trkpt lat="47.37126" lon="-1.02169">
        <ele>57.452</ele>
        <time>2020-07-19T09:39:46Z</time>
      </trkpt>
      <trkpt lat="47.37123" lon="-1.02169">
        <ele>57.297</ele>
        <time>2020-07-19T09:39:47Z</time>
      </trkpt>
      <trkpt lat="47.3712" lon="-1.02169">
        <ele>57.138</ele>
        <time>2020-07-19T09:39:48Z</time>
      </trkpt>
      <trkpt lat="47.37117" lon="-1.02169">
        <ele>57.011</ele>
        <time>2020-07-19T09:39:49Z</time>
      </trkpt>
      <trkpt lat="47.37114" lon="-1.02168">
        <ele>57.32</ele>
        <time>2020-07-19T09:39:50Z</time>
      </trkpt>
      <trkpt lat="47.37111" lon="-1.02168">
        <ele>58.13</ele>
        <time>2020-07-19T09:39:51Z</time>
      </trkpt>
      <trkpt lat="47.37108" lon="-1.02168">
        <ele>57.797</ele>
        <time>2020-07-19T09:39:52Z</time>
      </trkpt>
      <trkpt lat="47.37105" lon="-1.0217">
        <ele>57.242</ele>
        <time>2020-07-19T09:39:53Z</time>
      </trkpt>
      <trkpt lat="47.37103" lon="-1.02173">
        <ele>56.942</ele>
        <time>2020-07-19T09:39:54Z</time>
      </trkpt>
      <trkpt lat="47.37102" lon="-1.02177">
        <ele>57.599</ele>
        <time>2020-07-19T09:39:55Z</time>
      </trkpt>
      <trkpt lat="47.37101" lon="-1.02182">
        <ele>58.273</ele>
        <time>2020-07-19T09:39:56Z</time>
      </trkpt>
      <trkpt lat="47.37101" lon="-1.02186">
        <ele>58.372</ele>
        <time>2020-07-19T09:39:57Z</time>
      </trkpt>
      <trkpt lat="47.37101" lon="-1.0219">
        <ele>58.219</ele>
        <time>2020-07-19T09:39:58Z</time>
      </trkpt>
      <trkpt lat="47.37101" lon="-1.02193">
        <ele>57.63</ele>
        <time>2020-07-19T09:39:59Z</time>
      </trkpt>
      <trkpt lat="47.37102" lon="-1.02196">
        <ele>57.486</ele>
        <time>2020-07-19T09:40:00Z</time>
      </trkpt>
      <trkpt lat="47.37102" lon="-1.02198">
        <ele>57.714</ele>
        <time>2020-07-19T09:40:01Z</time>
      </trkpt>
      <trkpt lat="47.37102" lon="-1.022">
        <ele>57.963</ele>
        <time>2020-07-19T09:40:02Z</time>
      </trkpt>
      <trkpt lat="47.37101" lon="-1.02202">
        <ele>58.601</ele>
        <time>2020-07-19T09:40:03Z</time>
      </trkpt>
      <trkpt lat="47.37099" lon="-1.02202">
        <ele>58.903</ele>
        <time>2020-07-19T09:40:04Z</time>
      </trkpt>
      <trkpt lat="47.37097" lon="-1.022">
        <ele>57.86</ele>
        <time>2020-07-19T09:40:05Z</time>
      </trkpt>
      <trkpt lat="47.37095" lon="-1.02195">
        <ele>58.184</ele>
        <time>2020-07-19T09:40:06Z</time>
      </trkpt>
      <trkpt lat="47.37094" lon="-1.0219">
        <ele>57.983</ele>
        <time>2020-07-19T09:40:07Z</time>
      </trkpt>
      <trkpt lat="47.37095" lon="-1.02185">
        <ele>58.539</ele>
        <time>2020-07-19T09:40:08Z</time>
      </trkpt>
      <trkpt lat="47.37096" lon="-1.02182">
        <ele>59.042</ele>
        <time>2020-07-19T09:40:09Z</time>
      </trkpt>
      <trkpt lat="47.37097" lon="-1.02179">
        <ele>59.171</ele>
        <time>2020-07-19T09:40:10Z</time>
      </trkpt>
      <trkpt lat="47.37098" lon="-1.02177">
        <ele>59.634</ele>
        <time>2020-07-19T09:40:11Z</time>
      </trkpt>
      <trkpt lat="47.37101" lon="-1.02175">
        <ele>59.343</ele>
        <time>2020-07-19T09:40:12Z</time>
      </trkpt>
      <trkpt lat="47.37103" lon="-1.02172">
        <ele>59.247</ele>
        <time>2020-07-19T09:40:13Z</time>
      </trkpt>
      <trkpt lat="47.37105" lon="-1.0217">
        <ele>59.603</ele>
        <time>2020-07-19T09:40:14Z</time>
      </trkpt>
      <trkpt lat="47.37108" lon="-1.02169">
        <ele>59.526</ele>
        <time>2020-07-19T09:40:15Z</time>
      </trkpt>
      <trkpt lat="47.37109" lon="-1.0217">
        <ele>59.937</ele>
        <time>2020-07-19T09:40:16Z</time>
      </trkpt>
      <trkpt lat="47.37109" lon="-1.0217">
        <ele>59.01</ele>
        <time>2020-07-19T09:40:17Z</time>
      </trkpt>
      <trkpt lat="47.37109" lon="-1.0217">
        <ele>58.848</ele>
        <time>2020-07-19T09:40:18Z</time>
      </trkpt>
      <trkpt lat="47.3711" lon="-1.0217">
        <ele>58.951</ele>
        <time>2020-07-19T09:40:19Z</time>
      </trkpt>
      <trkpt lat="47.3711" lon="-1.02171">
        <ele>58.969</ele>
        <time>2020-07-19T09:40:20Z</time>
      </trkpt>
      <trkpt lat="47.37111" lon="-1.02171">
        <ele>59.034</ele>
        <time>2020-07-19T09:40:21Z</time>
      </trkpt>
      <trkpt lat="47.37111" lon="-1.02171">
        <ele>59.44</ele>
        <time>2020-07-19T09:40:22Z</time>
      </trkpt>
      <trkpt lat="47.37111" lon="-1.02171">
        <ele>58.881</ele>
        <time>2020-07-19T09:40:23Z</time>
      </trkpt>
      <trkpt lat="47.37111" lon="-1.02171">
        <ele>58.889</ele>
        <time>2020-07-19T09:40:24Z</time>
      </trkpt>
      <trkpt lat="47.37111" lon="-1.02172">
        <ele>58.747</ele>
        <time>2020-07-19T09:40:25Z</time>
      </trkpt>
      <trkpt lat="47.37111" lon="-1.02172">
        <ele>58.578</ele>
        <time>2020-07-19T09:40:26Z</time>
      </trkpt>
      <trkpt lat="47.37111" lon="-1.02172">
        <ele>58.516</ele>
        <time>2020-07-19T09:40:27Z</time>
      </trkpt>
      <trkpt lat="47.37111" lon="-1.02172">
        <ele>58.504</ele>
        <time>2020-07-19T09:40:28Z</time>
      </trkpt>
      <trkpt lat="47.37112" lon="-1.02172">
        <ele>58.758</ele>
        <time>2020-07-19T09:40:29Z</time>
      </trkpt>
      <trkpt lat="47.37112" lon="-1.02172">
        <ele>58.683</ele>
        <time>2020-07-19T09:40:30Z</time>
      </trkpt>
      <trkpt lat="47.37114" lon="-1.02171">
        <ele>59.149</ele>
        <time>2020-07-19T09:40:31Z</time>
      </trkpt>
      <trkpt lat="47.37115" lon="-1.02171">
        <ele>58.697</ele>
        <time>2020-07-19T09:40:32Z</time>
      </trkpt>
      <trkpt lat="47.37116" lon="-1.02171">
        <ele>57.956</ele>
        <time>2020-07-19T09:40:33Z</time>
      </trkpt>
      <trkpt lat="47.37118" lon="-1.02171">
        <ele>57.97</ele>
        <time>2020-07-19T09:40:34Z</time>
      </trkpt>
      <trkpt lat="47.37121" lon="-1.02171">
        <ele>57.769</ele>
        <time>2020-07-19T09:40:35Z</time>
      </trkpt>
      <trkpt lat="47.37123" lon="-1.02171">
        <ele>57.977</ele>
        <time>2020-07-19T09:40:36Z</time>
      </trkpt>
      <trkpt lat="47.37125" lon="-1.02173">
        <ele>59.043</ele>
        <time>2020-07-19T09:40:37Z</time>
      </trkpt>
      <trkpt lat="47.37127" lon="-1.02175">
        <ele>58.211</ele>
        <time>2020-07-19T09:40:38Z</time>
      </trkpt>
      <trkpt lat="47.37129" lon="-1.02177">
        <ele>57.458</ele>
        <time>2020-07-19T09:40:39Z</time>
      </trkpt>
      <trkpt lat="47.37131" lon="-1.02179">
        <ele>58.037</ele>
        <time>2020-07-19T09:40:40Z</time>
      </trkpt>
      <trkpt lat="47.37133" lon="-1.02181">
        <ele>58.493</ele>
        <time>2020-07-19T09:40:41Z</time>
      </trkpt>
      <trkpt lat="47.37136" lon="-1.02183">
        <ele>58.139</ele>
        <time>2020-07-19T09:40:42Z</time>
      </trkpt>
      <trkpt lat="47.37137" lon="-1.02186">
        <ele>59.323</ele>
        <time>2020-07-19T09:40:43Z</time>
      </trkpt>
      <trkpt lat="47.37139" lon="-1.02189">
        <ele>59.423</ele>
        <time>2020-07-19T09:40:44Z</time>
      </trkpt>
      <trkpt lat="47.3714" lon="-1.02192">
        <ele>58.979</ele>
        <time>2020-07-19T09:40:45Z</time>
      </trkpt>
      <trkpt lat="47.37142" lon="-1.02195">
        <ele>58.701</ele>
        <time>2020-07-19T09:40:46Z</time>
      </trkpt>
      <trkpt lat="47.37144" lon="-1.02197">
        <ele>58.942</ele>
        <time>2020-07-19T09:40:47Z</time>
      </trkpt>
      <trkpt lat="47.37146" lon="-1.022">
        <ele>58.951</ele>
        <time>2020-07-19T09:40:48Z</time>
      </trkpt>
      <trkpt lat="47.37148" lon="-1.02203">
        <ele>59.025</ele>
        <time>2020-07-19T09:40:49Z</time>
      </trkpt>
      <trkpt lat="47.37151" lon="-1.02206">
        <ele>58.83</ele>
        <time>2020-07-19T09:40:50Z</time>
      </trkpt>
      <trkpt lat="47.37154" lon="-1.02209">
        <ele>59.082</ele>
        <time>2020-07-19T09:40:51Z</time>
      </trkpt>
      <trkpt lat="47.37156" lon="-1.02212">
        <ele>59.077</ele>
        <time>2020-07-19T09:40:52Z</time>
      </trkpt>
      <trkpt lat="47.37159" lon="-1.02216">
        <ele>59.324</ele>
        <time>2020-07-19T09:40:53Z</time>
      </trkpt>
      <trkpt lat="47.37162" lon="-1.02219">
        <ele>59.392</ele>
        <time>2020-07-19T09:40:54Z</time>
      </trkpt>
      <trkpt lat="47.37165" lon="-1.02223">
        <ele>59.203</ele>
        <time>2020-07-19T09:40:55Z</time>
      </trkpt>
      <trkpt lat="47.37168" lon="-1.02227">
        <ele>59.043</ele>
        <time>2020-07-19T09:40:56Z</time>
      </trkpt>
      <trkpt lat="47.37171" lon="-1.02231">
        <ele>58.892</ele>
        <time>2020-07-19T09:40:57Z</time>
      </trkpt>
      <trkpt lat="47.37174" lon="-1.02235">
        <ele>58.992</ele>
        <time>2020-07-19T09:40:58Z</time>
      </trkpt>
      <trkpt lat="47.37177" lon="-1.02238">
        <ele>58.26</ele>
        <time>2020-07-19T09:40:59Z</time>
      </trkpt>
      <trkpt lat="47.3718" lon="-1.02242">
        <ele>57.975</ele>
        <time>2020-07-19T09:41:00Z</time>
      </trkpt>
      <trkpt lat="47.37183" lon="-1.02246">
        <ele>58.346</ele>
        <time>2020-07-19T09:41:01Z</time>
      </trkpt>
      <trkpt lat="47.37185" lon="-1.02251">
        <ele>58.333</ele>
        <time>2020-07-19T09:41:02Z</time>
      </trkpt>
      <trkpt lat="47.37186" lon="-1.02257">
        <ele>58.792</ele>
        <time>2020-07-19T09:41:03Z</time>
      </trkpt>
      <trkpt lat="47.37186" lon="-1.02264">
        <ele>58.428</ele>
        <time>2020-07-19T09:41:04Z</time>
      </trkpt>
      <trkpt lat="47.37187" lon="-1.0227">
        <ele>58.636</ele>
        <time>2020-07-19T09:41:05Z</time>
      </trkpt>
      <trkpt lat="47.37187" lon="-1.02277">
        <ele>58.692</ele>
        <time>2020-07-19T09:41:06Z</time>
      </trkpt>
      <trkpt lat="47.37185" lon="-1.02285">
        <ele>58.491</ele>
        <time>2020-07-19T09:41:07Z</time>
      </trkpt>
      <trkpt lat="47.37186" lon="-1.02292">
        <ele>58.517</ele>
        <time>2020-07-19T09:41:08Z</time>
      </trkpt>
      <trkpt lat="47.37187" lon="-1.02299">
        <ele>58.695</ele>
        <time>2020-07-19T09:41:09Z</time>
      </trkpt>
      <trkpt lat="47.37187" lon="-1.02305">
        <ele>58.481</ele>
        <time>2020-07-19T09:41:10Z</time>
      </trkpt>
      <trkpt lat="47.37188" lon="-1.02312">
        <ele>58.565</ele>
        <time>2020-07-19T09:41:11Z</time>
      </trkpt>
      <trkpt lat="47.37188" lon="-1.02319">
        <ele>58.545</ele>
        <time>2020-07-19T09:41:12Z</time>
      </trkpt>
      <trkpt lat="47.37188" lon="-1.02325">
        <ele>58.506</ele>
        <time>2020-07-19T09:41:13Z</time>
      </trkpt>
      <trkpt lat="47.37189" lon="-1.02331">
        <ele>58.51</ele>
        <time>2020-07-19T09:41:14Z</time>
      </trkpt>
      <trkpt lat="47.3719" lon="-1.02338">
        <ele>58.51</ele>
        <time>2020-07-19T09:41:15Z</time>
      </trkpt>
      <trkpt lat="47.37192" lon="-1.02345">
        <ele>58.698</ele>
        <time>2020-07-19T09:41:16Z</time>
      </trkpt>
      <trkpt lat="47.37192" lon="-1.02351">
        <ele>59.258</ele>
        <time>2020-07-19T09:41:17Z</time>
      </trkpt>
      <trkpt lat="47.37192" lon="-1.02358">
        <ele>59.367</ele>
        <time>2020-07-19T09:41:18Z</time>
      </trkpt>
      <trkpt lat="47.37192" lon="-1.02365">
        <ele>60.082</ele>
        <time>2020-07-19T09:41:19Z</time>
      </trkpt>
      <trkpt lat="47.37192" lon="-1.02371">
        <ele>60.371</ele>
        <time>2020-07-19T09:41:20Z</time>
      </trkpt>
      <trkpt lat="47.37191" lon="-1.02378">
        <ele>60.746</ele>
        <time>2020-07-19T09:41:21Z</time>
      </trkpt>
      <trkpt lat="47.37191" lon="-1.02382">
        <ele>59.636</ele>
        <time>2020-07-19T09:41:22Z</time>
      </trkpt>
      <trkpt lat="47.37189" lon="-1.02389">
        <ele>58.607</ele>
        <time>2020-07-19T09:41:23Z</time>
      </trkpt>
      <trkpt lat="47.37187" lon="-1.02394">
        <ele>58.812</ele>
        <time>2020-07-19T09:41:24Z</time>
      </trkpt>
      <trkpt lat="47.37185" lon="-1.02397">
        <ele>59.274</ele>
        <time>2020-07-19T09:41:25Z</time>
      </trkpt>
      <trkpt lat="47.37182" lon="-1.02401">
        <ele>59.294</ele>
        <time>2020-07-19T09:41:26Z</time>
      </trkpt>
      <trkpt lat="47.37179" lon="-1.02404">
        <ele>59.956</ele>
        <time>2020-07-19T09:41:27Z</time>
      </trkpt>
      <trkpt lat="47.37175" lon="-1.02407">
        <ele>59.523</ele>
        <time>2020-07-19T09:41:28Z</time>
      </trkpt>
      <trkpt lat="47.37172" lon="-1.02411">
        <ele>59.723</ele>
        <time>2020-07-19T09:41:29Z</time>
      </trkpt>
      <trkpt lat="47.37169" lon="-1.02416">
        <ele>60.069</ele>
        <time>2020-07-19T09:41:30Z</time>
      </trkpt>
      <trkpt lat="47.37166" lon="-1.02421">
        <ele>60.584</ele>
        <time>2020-07-19T09:41:31Z</time>
      </trkpt>
      <trkpt lat="47.37164" lon="-1.02426">
        <ele>60.466</ele>
        <time>2020-07-19T09:41:32Z</time>
      </trkpt>
      <trkpt lat="47.37162" lon="-1.02432">
        <ele>60.16</ele>
        <time>2020-07-19T09:41:33Z</time>
      </trkpt>
      <trkpt lat="47.37162" lon="-1.02439">
        <ele>59.546</ele>
        <time>2020-07-19T09:41:34Z</time>
      </trkpt>
      <trkpt lat="47.37161" lon="-1.02445">
        <ele>59.086</ele>
        <time>2020-07-19T09:41:35Z</time>
      </trkpt>
      <trkpt lat="47.37159" lon="-1.02451">
        <ele>59.454</ele>
        <time>2020-07-19T09:41:36Z</time>
      </trkpt>
      <trkpt lat="47.37159" lon="-1.02456">
        <ele>59.59</ele>
        <time>2020-07-19T09:41:37Z</time>
      </trkpt>
      <trkpt lat="47.37159" lon="-1.02462">
        <ele>59.814</ele>
        <time>2020-07-19T09:41:38Z</time>
      </trkpt>
      <trkpt lat="47.37158" lon="-1.02468">
        <ele>60.16</ele>
        <time>2020-07-19T09:41:39Z</time>
      </trkpt>
      <trkpt lat="47.37158" lon="-1.02474">
        <ele>59.914</ele>
        <time>2020-07-19T09:41:40Z</time>
      </trkpt>
      <trkpt lat="47.37156" lon="-1.0248">
        <ele>59.734</ele>
        <time>2020-07-19T09:41:41Z</time>
      </trkpt>
      <trkpt lat="47.37155" lon="-1.02486">
        <ele>59.747</ele>
        <time>2020-07-19T09:41:42Z</time>
      </trkpt>
      <trkpt lat="47.37154" lon="-1.02491">
        <ele>59.747</ele>
        <time>2020-07-19T09:41:43Z</time>
      </trkpt>
      <trkpt lat="47.37154" lon="-1.02496">
        <ele>59.907</ele>
        <time>2020-07-19T09:41:44Z</time>
      </trkpt>
      <trkpt lat="47.37153" lon="-1.02502">
        <ele>59.936</ele>
        <time>2020-07-19T09:41:45Z</time>
      </trkpt>
      <trkpt lat="47.37152" lon="-1.02508">
        <ele>59.755</ele>
        <time>2020-07-19T09:41:46Z</time>
      </trkpt>
      <trkpt lat="47.37151" lon="-1.02514">
        <ele>60.444</ele>
        <time>2020-07-19T09:41:47Z</time>
      </trkpt>
      <trkpt lat="47.37151" lon="-1.02522">
        <ele>60.513</ele>
        <time>2020-07-19T09:41:48Z</time>
      </trkpt>
      <trkpt lat="47.37149" lon="-1.02528">
        <ele>60.134</ele>
        <time>2020-07-19T09:41:49Z</time>
      </trkpt>
      <trkpt lat="47.37148" lon="-1.02534">
        <ele>60.337</ele>
        <time>2020-07-19T09:41:50Z</time>
      </trkpt>
      <trkpt lat="47.37147" lon="-1.02541">
        <ele>60.671</ele>
        <time>2020-07-19T09:41:51Z</time>
      </trkpt>
      <trkpt lat="47.37147" lon="-1.02548">
        <ele>60.857</ele>
        <time>2020-07-19T09:41:52Z</time>
      </trkpt>
      <trkpt lat="47.37146" lon="-1.02555">
        <ele>60.948</ele>
        <time>2020-07-19T09:41:53Z</time>
      </trkpt>
      <trkpt lat="47.37145" lon="-1.02561">
        <ele>60.519</ele>
        <time>2020-07-19T09:41:54Z</time>
      </trkpt>
      <trkpt lat="47.37145" lon="-1.02567">
        <ele>60.006</ele>
        <time>2020-07-19T09:41:55Z</time>
      </trkpt>
      <trkpt lat="47.37145" lon="-1.02574">
        <ele>60.161</ele>
        <time>2020-07-19T09:41:56Z</time>
      </trkpt>
      <trkpt lat="47.37146" lon="-1.0258">
        <ele>60.599</ele>
        <time>2020-07-19T09:41:57Z</time>
      </trkpt>
      <trkpt lat="47.37146" lon="-1.02587">
        <ele>60.567</ele>
        <time>2020-07-19T09:41:58Z</time>
      </trkpt>
      <trkpt lat="47.37147" lon="-1.02593">
        <ele>60.596</ele>
        <time>2020-07-19T09:41:59Z</time>
      </trkpt>
      <trkpt lat="47.37147" lon="-1.026">
        <ele>61.088</ele>
        <time>2020-07-19T09:42:00Z</time>
      </trkpt>
      <trkpt lat="47.37148" lon="-1.02607">
        <ele>60.752</ele>
        <time>2020-07-19T09:42:01Z</time>
      </trkpt>
      <trkpt lat="47.37149" lon="-1.02612">
        <ele>60.797</ele>
        <time>2020-07-19T09:42:02Z</time>
      </trkpt>
      <trkpt lat="47.37148" lon="-1.02619">
        <ele>60.236</ele>
        <time>2020-07-19T09:42:03Z</time>
      </trkpt>
      <trkpt lat="47.37149" lon="-1.02624">
        <ele>59.889</ele>
        <time>2020-07-19T09:42:04Z</time>
      </trkpt>
      <trkpt lat="47.37149" lon="-1.0263">
        <ele>59.867</ele>
        <time>2020-07-19T09:42:05Z</time>
      </trkpt>
      <trkpt lat="47.37149" lon="-1.02635">
        <ele>59.62</ele>
        <time>2020-07-19T09:42:06Z</time>
      </trkpt>
      <trkpt lat="47.37148" lon="-1.02638">
        <ele>59.423</ele>
        <time>2020-07-19T09:42:07Z</time>
      </trkpt>
      <trkpt lat="47.37148" lon="-1.02641">
        <ele>58.868</ele>
        <time>2020-07-19T09:42:08Z</time>
      </trkpt>
      <trkpt lat="47.37151" lon="-1.02641">
        <ele>58.394</ele>
        <time>2020-07-19T09:42:09Z</time>
      </trkpt>
      <trkpt lat="47.37154" lon="-1.02641">
        <ele>58.799</ele>
        <time>2020-07-19T09:42:10Z</time>
      </trkpt>
      <trkpt lat="47.37156" lon="-1.02641">
        <ele>58.964</ele>
        <time>2020-07-19T09:42:11Z</time>
      </trkpt>
      <trkpt lat="47.3716" lon="-1.02641">
        <ele>58.292</ele>
        <time>2020-07-19T09:42:12Z</time>
      </trkpt>
      <trkpt lat="47.37163" lon="-1.02641">
        <ele>57.515</ele>
        <time>2020-07-19T09:42:13Z</time>
      </trkpt>
      <trkpt lat="47.37167" lon="-1.02642">
        <ele>57.925</ele>
        <time>2020-07-19T09:42:14Z</time>
      </trkpt>
      <trkpt lat="47.3717" lon="-1.02643">
        <ele>57.998</ele>
        <time>2020-07-19T09:42:15Z</time>
      </trkpt>
      <trkpt lat="47.37172" lon="-1.02646">
        <ele>57.68</ele>
        <time>2020-07-19T09:42:16Z</time>
      </trkpt>
      <trkpt lat="47.37174" lon="-1.0265">
        <ele>57.723</ele>
        <time>2020-07-19T09:42:17Z</time>
      </trkpt>
      <trkpt lat="47.37175" lon="-1.02655">
        <ele>57.93</ele>
        <time>2020-07-19T09:42:18Z</time>
      </trkpt>
      <trkpt lat="47.37175" lon="-1.02661">
        <ele>58.191</ele>
        <time>2020-07-19T09:42:19Z</time>
      </trkpt>
      <trkpt lat="47.37176" lon="-1.02666">
        <ele>58.126</ele>
        <time>2020-07-19T09:42:20Z</time>
      </trkpt>
      <trkpt lat="47.37176" lon="-1.02672">
        <ele>58.463</ele>
        <time>2020-07-19T09:42:21Z</time>
      </trkpt>
      <trkpt lat="47.37176" lon="-1.02678">
        <ele>58.806</ele>
        <time>2020-07-19T09:42:22Z</time>
      </trkpt>
      <trkpt lat="47.37176" lon="-1.02683">
        <ele>58.899</ele>
        <time>2020-07-19T09:42:23Z</time>
      </trkpt>
      <trkpt lat="47.37176" lon="-1.02688">
        <ele>58.858</ele>
        <time>2020-07-19T09:42:24Z</time>
      </trkpt>
      <trkpt lat="47.37176" lon="-1.02692">
        <ele>58.308</ele>
        <time>2020-07-19T09:42:25Z</time>
      </trkpt>
      <trkpt lat="47.37176" lon="-1.02698">
        <ele>58.283</ele>
        <time>2020-07-19T09:42:26Z</time>
      </trkpt>
      <trkpt lat="47.37176" lon="-1.02703">
        <ele>57.803</ele>
        <time>2020-07-19T09:42:27Z</time>
      </trkpt>
      <trkpt lat="47.37177" lon="-1.02708">
        <ele>58.172</ele>
        <time>2020-07-19T09:42:28Z</time>
      </trkpt>
      <trkpt lat="47.37177" lon="-1.02713">
        <ele>58.3</ele>
        <time>2020-07-19T09:42:29Z</time>
      </trkpt>
      <trkpt lat="47.37177" lon="-1.02718">
        <ele>58.496</ele>
        <time>2020-07-19T09:42:30Z</time>
      </trkpt>
      <trkpt lat="47.37176" lon="-1.02723">
        <ele>59.128</ele>
        <time>2020-07-19T09:42:31Z</time>
      </trkpt>
      <trkpt lat="47.37176" lon="-1.02728">
        <ele>58.907</ele>
        <time>2020-07-19T09:42:32Z</time>
      </trkpt>
      <trkpt lat="47.37175" lon="-1.02732">
        <ele>58.504</ele>
        <time>2020-07-19T09:42:33Z</time>
      </trkpt>
      <trkpt lat="47.37175" lon="-1.02737">
        <ele>58.375</ele>
        <time>2020-07-19T09:42:34Z</time>
      </trkpt>
      <trkpt lat="47.37174" lon="-1.02741">
        <ele>58.513</ele>
        <time>2020-07-19T09:42:35Z</time>
      </trkpt>
      <trkpt lat="47.37174" lon="-1.02746">
        <ele>58.79</ele>
        <time>2020-07-19T09:42:36Z</time>
      </trkpt>
      <trkpt lat="47.37175" lon="-1.0275">
        <ele>58.773</ele>
        <time>2020-07-19T09:42:37Z</time>
      </trkpt>
      <trkpt lat="47.37175" lon="-1.02753">
        <ele>58.223</ele>
        <time>2020-07-19T09:42:38Z</time>
      </trkpt>
      <trkpt lat="47.37175" lon="-1.02757">
        <ele>57.961</ele>
        <time>2020-07-19T09:42:39Z</time>
      </trkpt>
      <trkpt lat="47.37175" lon="-1.02761">
        <ele>57.322</ele>
        <time>2020-07-19T09:42:40Z</time>
      </trkpt>
      <trkpt lat="47.37175" lon="-1.02765">
        <ele>57.734</ele>
        <time>2020-07-19T09:42:41Z</time>
      </trkpt>
      <trkpt lat="47.37175" lon="-1.0277">
        <ele>58.785</ele>
        <time>2020-07-19T09:42:42Z</time>
      </trkpt>
      <trkpt lat="47.37175" lon="-1.02774">
        <ele>59.326</ele>
        <time>2020-07-19T09:42:43Z</time>
      </trkpt>
      <trkpt lat="47.37175" lon="-1.02779">
        <ele>58.695</ele>
        <time>2020-07-19T09:42:44Z</time>
      </trkpt>
      <trkpt lat="47.37175" lon="-1.02784">
        <ele>58.362</ele>
        <time>2020-07-19T09:42:45Z</time>
      </trkpt>
      <trkpt lat="47.37175" lon="-1.02788">
        <ele>58.214</ele>
        <time>2020-07-19T09:42:46Z</time>
      </trkpt>
      <trkpt lat="47.37175" lon="-1.02793">
        <ele>58.143</ele>
        <time>2020-07-19T09:42:47Z</time>
      </trkpt>
      <trkpt lat="47.37175" lon="-1.02799">
        <ele>58.056</ele>
        <time>2020-07-19T09:42:48Z</time>
      </trkpt>
      <trkpt lat="47.37175" lon="-1.02805">
        <ele>58.262</ele>
        <time>2020-07-19T09:42:49Z</time>
      </trkpt>
      <trkpt lat="47.37175" lon="-1.02811">
        <ele>58.609</ele>
        <time>2020-07-19T09:42:50Z</time>
      </trkpt>
      <trkpt lat="47.37174" lon="-1.02816">
        <ele>58.836</ele>
        <time>2020-07-19T09:42:51Z</time>
      </trkpt>
      <trkpt lat="47.37174" lon="-1.02822">
        <ele>58.933</ele>
        <time>2020-07-19T09:42:52Z</time>
      </trkpt>
      <trkpt lat="47.37174" lon="-1.02829">
        <ele>58.808</ele>
        <time>2020-07-19T09:42:53Z</time>
      </trkpt>
      <trkpt lat="47.37175" lon="-1.02835">
        <ele>58.486</ele>
        <time>2020-07-19T09:42:54Z</time>
      </trkpt>
      <trkpt lat="47.37175" lon="-1.02842">
        <ele>58.422</ele>
        <time>2020-07-19T09:42:55Z</time>
      </trkpt>
      <trkpt lat="47.37175" lon="-1.02849">
        <ele>58.2</ele>
        <time>2020-07-19T09:42:56Z</time>
      </trkpt>
      <trkpt lat="47.37176" lon="-1.02856">
        <ele>58.125</ele>
        <time>2020-07-19T09:42:57Z</time>
      </trkpt>
      <trkpt lat="47.37176" lon="-1.02863">
        <ele>58.249</ele>
        <time>2020-07-19T09:42:58Z</time>
      </trkpt>
      <trkpt lat="47.37176" lon="-1.02871">
        <ele>58.304</ele>
        <time>2020-07-19T09:42:59Z</time>
      </trkpt>
      <trkpt lat="47.37176" lon="-1.02878">
        <ele>58.423</ele>
        <time>2020-07-19T09:43:00Z</time>
      </trkpt>
      <trkpt lat="47.37176" lon="-1.02885">
        <ele>58.642</ele>
        <time>2020-07-19T09:43:01Z</time>
      </trkpt>
      <trkpt lat="47.37175" lon="-1.02893">
        <ele>58.877</ele>
        <time>2020-07-19T09:43:02Z</time>
      </trkpt>
      <trkpt lat="47.37176" lon="-1.02901">
        <ele>58.56</ele>
        <time>2020-07-19T09:43:03Z</time>
      </trkpt>
      <trkpt lat="47.37176" lon="-1.02908">
        <ele>58.724</ele>
        <time>2020-07-19T09:43:04Z</time>
      </trkpt>
      <trkpt lat="47.37176" lon="-1.02915">
        <ele>58.617</ele>
        <time>2020-07-19T09:43:05Z</time>
      </trkpt>
      <trkpt lat="47.37176" lon="-1.02923">
        <ele>58.747</ele>
        <time>2020-07-19T09:43:06Z</time>
      </trkpt>
      <trkpt lat="47.37177" lon="-1.02931">
        <ele>58.445</ele>
        <time>2020-07-19T09:43:07Z</time>
      </trkpt>
      <trkpt lat="47.37177" lon="-1.02938">
        <ele>57.916</ele>
        <time>2020-07-19T09:43:08Z</time>
      </trkpt>
      <trkpt lat="47.37177" lon="-1.02946">
        <ele>58.004</ele>
        <time>2020-07-19T09:43:09Z</time>
      </trkpt>
      <trkpt lat="47.37177" lon="-1.02954">
        <ele>58.245</ele>
        <time>2020-07-19T09:43:10Z</time>
      </trkpt>
      <trkpt lat="47.37177" lon="-1.02962">
        <ele>58.643</ele>
        <time>2020-07-19T09:43:11Z</time>
      </trkpt>
      <trkpt lat="47.37177" lon="-1.0297">
        <ele>58.832</ele>
        <time>2020-07-19T09:43:12Z</time>
      </trkpt>
      <trkpt lat="47.37177" lon="-1.02979">
        <ele>59.041</ele>
        <time>2020-07-19T09:43:13Z</time>
      </trkpt>
      <trkpt lat="47.37177" lon="-1.02987">
        <ele>59.115</ele>
        <time>2020-07-19T09:43:14Z</time>
      </trkpt>
      <trkpt lat="47.37177" lon="-1.02994">
        <ele>58.964</ele>
        <time>2020-07-19T09:43:15Z</time>
      </trkpt>
      <trkpt lat="47.37177" lon="-1.03003">
        <ele>59.215</ele>
        <time>2020-07-19T09:43:16Z</time>
      </trkpt>
      <trkpt lat="47.37177" lon="-1.0301">
        <ele>58.905</ele>
        <time>2020-07-19T09:43:17Z</time>
      </trkpt>
      <trkpt lat="47.37177" lon="-1.03018">
        <ele>58.644</ele>
        <time>2020-07-19T09:43:18Z</time>
      </trkpt>
      <trkpt lat="47.37177" lon="-1.03026">
        <ele>58.463</ele>
        <time>2020-07-19T09:43:19Z</time>
      </trkpt>
      <trkpt lat="47.37177" lon="-1.03035">
        <ele>58.651</ele>
        <time>2020-07-19T09:43:20Z</time>
      </trkpt>
      <trkpt lat="47.37177" lon="-1.03043">
        <ele>58.924</ele>
        <time>2020-07-19T09:43:21Z</time>
      </trkpt>
      <trkpt lat="47.37177" lon="-1.03051">
        <ele>58.737</ele>
        <time>2020-07-19T09:43:22Z</time>
      </trkpt>
      <trkpt lat="47.37178" lon="-1.03061">
        <ele>58.798</ele>
        <time>2020-07-19T09:43:23Z</time>
      </trkpt>
      <trkpt lat="47.37178" lon="-1.03069">
        <ele>58.959</ele>
        <time>2020-07-19T09:43:24Z</time>
      </trkpt>
      <trkpt lat="47.37178" lon="-1.03078">
        <ele>58.663</ele>
        <time>2020-07-19T09:43:25Z</time>
      </trkpt>
      <trkpt lat="47.37179" lon="-1.03087">
        <ele>58.311</ele>
        <time>2020-07-19T09:43:26Z</time>
      </trkpt>
      <trkpt lat="47.3718" lon="-1.03095">
        <ele>58.284</ele>
        <time>2020-07-19T09:43:27Z</time>
      </trkpt>
      <trkpt lat="47.3718" lon="-1.03103">
        <ele>58.466</ele>
        <time>2020-07-19T09:43:28Z</time>
      </trkpt>
      <trkpt lat="47.3718" lon="-1.03112">
        <ele>58.569</ele>
        <time>2020-07-19T09:43:29Z</time>
      </trkpt>
      <trkpt lat="47.37181" lon="-1.03121">
        <ele>58.704</ele>
        <time>2020-07-19T09:43:30Z</time>
      </trkpt>
      <trkpt lat="47.37181" lon="-1.03129">
        <ele>58.351</ele>
        <time>2020-07-19T09:43:31Z</time>
      </trkpt>
      <trkpt lat="47.37181" lon="-1.03138">
        <ele>58.324</ele>
        <time>2020-07-19T09:43:32Z</time>
      </trkpt>
      <trkpt lat="47.37182" lon="-1.03147">
        <ele>58.078</ele>
        <time>2020-07-19T09:43:33Z</time>
      </trkpt>
      <trkpt lat="47.37182" lon="-1.03156">
        <ele>58.142</ele>
        <time>2020-07-19T09:43:34Z</time>
      </trkpt>
      <trkpt lat="47.37182" lon="-1.03165">
        <ele>57.857</ele>
        <time>2020-07-19T09:43:35Z</time>
      </trkpt>
      <trkpt lat="47.37183" lon="-1.03175">
        <ele>58</ele>
        <time>2020-07-19T09:43:36Z</time>
      </trkpt>
      <trkpt lat="47.37184" lon="-1.03184">
        <ele>57.895</ele>
        <time>2020-07-19T09:43:37Z</time>
      </trkpt>
      <trkpt lat="47.37184" lon="-1.03192">
        <ele>57.894</ele>
        <time>2020-07-19T09:43:38Z</time>
      </trkpt>
      <trkpt lat="47.37185" lon="-1.03201">
        <ele>58.175</ele>
        <time>2020-07-19T09:43:39Z</time>
      </trkpt>
      <trkpt lat="47.37186" lon="-1.03209">
        <ele>58.274</ele>
        <time>2020-07-19T09:43:40Z</time>
      </trkpt>
      <trkpt lat="47.37188" lon="-1.03217">
        <ele>57.919</ele>
        <time>2020-07-19T09:43:41Z</time>
      </trkpt>
      <trkpt lat="47.37188" lon="-1.03225">
        <ele>57.291</ele>
        <time>2020-07-19T09:43:42Z</time>
      </trkpt>
      <trkpt lat="47.37189" lon="-1.03233">
        <ele>57.027</ele>
        <time>2020-07-19T09:43:43Z</time>
      </trkpt>
      <trkpt lat="47.37189" lon="-1.03242">
        <ele>57.008</ele>
        <time>2020-07-19T09:43:44Z</time>
      </trkpt>
      <trkpt lat="47.3719" lon="-1.03251">
        <ele>57.204</ele>
        <time>2020-07-19T09:43:45Z</time>
      </trkpt>
      <trkpt lat="47.37192" lon="-1.03258">
        <ele>56.919</ele>
        <time>2020-07-19T09:43:46Z</time>
      </trkpt>
      <trkpt lat="47.37189" lon="-1.03267">
        <ele>53.014</ele>
        <time>2020-07-19T09:43:47Z</time>
      </trkpt>
      <trkpt lat="47.37194" lon="-1.03273">
        <ele>52.166</ele>
        <time>2020-07-19T09:43:48Z</time>
      </trkpt>
      <trkpt lat="47.37195" lon="-1.0328">
        <ele>52.06</ele>
        <time>2020-07-19T09:43:49Z</time>
      </trkpt>
      <trkpt lat="47.37195" lon="-1.03287">
        <ele>52.542</ele>
        <time>2020-07-19T09:43:50Z</time>
      </trkpt>
      <trkpt lat="47.37194" lon="-1.0329">
        <ele>53.648</ele>
        <time>2020-07-19T09:43:51Z</time>
      </trkpt>
      <trkpt lat="47.37193" lon="-1.03292">
        <ele>53.39</ele>
        <time>2020-07-19T09:43:52Z</time>
      </trkpt>
      <trkpt lat="47.37191" lon="-1.03293">
        <ele>52.433</ele>
        <time>2020-07-19T09:43:53Z</time>
      </trkpt>
      <trkpt lat="47.37187" lon="-1.03293">
        <ele>51.85</ele>
        <time>2020-07-19T09:43:54Z</time>
      </trkpt>
      <trkpt lat="47.37183" lon="-1.03296">
        <ele>49.909</ele>
        <time>2020-07-19T09:43:55Z</time>
      </trkpt>
      <trkpt lat="47.37179" lon="-1.03297">
        <ele>48.754</ele>
        <time>2020-07-19T09:43:56Z</time>
      </trkpt>
      <trkpt lat="47.37174" lon="-1.03297">
        <ele>49.231</ele>
        <time>2020-07-19T09:43:57Z</time>
      </trkpt>
      <trkpt lat="47.37168" lon="-1.03298">
        <ele>49.259</ele>
        <time>2020-07-19T09:43:58Z</time>
      </trkpt>
      <trkpt lat="47.37162" lon="-1.033">
        <ele>50.161</ele>
        <time>2020-07-19T09:43:59Z</time>
      </trkpt>
      <trkpt lat="47.37157" lon="-1.03301">
        <ele>51.521</ele>
        <time>2020-07-19T09:44:00Z</time>
      </trkpt>
      <trkpt lat="47.37151" lon="-1.03302">
        <ele>51.54</ele>
        <time>2020-07-19T09:44:01Z</time>
      </trkpt>
      <trkpt lat="47.37147" lon="-1.03301">
        <ele>52.134</ele>
        <time>2020-07-19T09:44:02Z</time>
      </trkpt>
      <trkpt lat="47.37142" lon="-1.03303">
        <ele>52.942</ele>
        <time>2020-07-19T09:44:03Z</time>
      </trkpt>
      <trkpt lat="47.37136" lon="-1.03304">
        <ele>53.857</ele>
        <time>2020-07-19T09:44:04Z</time>
      </trkpt>
      <trkpt lat="47.37131" lon="-1.03304">
        <ele>54.613</ele>
        <time>2020-07-19T09:44:05Z</time>
      </trkpt>
      <trkpt lat="47.37126" lon="-1.03305">
        <ele>55.16</ele>
        <time>2020-07-19T09:44:06Z</time>
      </trkpt>
      <trkpt lat="47.3712" lon="-1.03304">
        <ele>55.758</ele>
        <time>2020-07-19T09:44:07Z</time>
      </trkpt>
      <trkpt lat="47.37114" lon="-1.03304">
        <ele>55.68</ele>
        <time>2020-07-19T09:44:08Z</time>
      </trkpt>
      <trkpt lat="47.37108" lon="-1.03305">
        <ele>55.76</ele>
        <time>2020-07-19T09:44:09Z</time>
      </trkpt>
      <trkpt lat="47.37105" lon="-1.03305">
        <ele>54.645</ele>
        <time>2020-07-19T09:44:10Z</time>
      </trkpt>
      <trkpt lat="47.37099" lon="-1.03306">
        <ele>55.376</ele>
        <time>2020-07-19T09:44:11Z</time>
      </trkpt>
      <trkpt lat="47.37093" lon="-1.03307">
        <ele>55.293</ele>
        <time>2020-07-19T09:44:12Z</time>
      </trkpt>
      <trkpt lat="47.37088" lon="-1.03307">
        <ele>55.756</ele>
        <time>2020-07-19T09:44:13Z</time>
      </trkpt>
      <trkpt lat="47.37084" lon="-1.03307">
        <ele>56.212</ele>
        <time>2020-07-19T09:44:14Z</time>
      </trkpt>
      <trkpt lat="47.37079" lon="-1.03307">
        <ele>56.676</ele>
        <time>2020-07-19T09:44:15Z</time>
      </trkpt>
      <trkpt lat="47.37075" lon="-1.0331">
        <ele>55.241</ele>
        <time>2020-07-19T09:44:16Z</time>
      </trkpt>
      <trkpt lat="47.37071" lon="-1.03311">
        <ele>55.498</ele>
        <time>2020-07-19T09:44:17Z</time>
      </trkpt>
      <trkpt lat="47.37068" lon="-1.03311">
        <ele>54.757</ele>
        <time>2020-07-19T09:44:18Z</time>
      </trkpt>
      <trkpt lat="47.37065" lon="-1.03314">
        <ele>54.165</ele>
        <time>2020-07-19T09:44:19Z</time>
      </trkpt>
      <trkpt lat="47.37063" lon="-1.03315">
        <ele>53.763</ele>
        <time>2020-07-19T09:44:20Z</time>
      </trkpt>
      <trkpt lat="47.37061" lon="-1.03315">
        <ele>53.765</ele>
        <time>2020-07-19T09:44:21Z</time>
      </trkpt>
      <trkpt lat="47.37061" lon="-1.03315">
        <ele>54.004</ele>
        <time>2020-07-19T09:44:22Z</time>
      </trkpt>
      <trkpt lat="47.37061" lon="-1.03315">
        <ele>54.494</ele>
        <time>2020-07-19T09:44:23Z</time>
      </trkpt>
      <trkpt lat="47.37061" lon="-1.03315">
        <ele>54.595</ele>
        <time>2020-07-19T09:44:24Z</time>
      </trkpt>
      <trkpt lat="47.37061" lon="-1.03315">
        <ele>54.95</ele>
        <time>2020-07-19T09:44:25Z</time>
      </trkpt>
      <trkpt lat="47.37061" lon="-1.03317">
        <ele>54.451</ele>
        <time>2020-07-19T09:44:26Z</time>
      </trkpt>
      <trkpt lat="47.37059" lon="-1.03319">
        <ele>54.846</ele>
        <time>2020-07-19T09:44:27Z</time>
      </trkpt>
      <trkpt lat="47.37058" lon="-1.03323">
        <ele>54.743</ele>
        <time>2020-07-19T09:44:28Z</time>
      </trkpt>
      <trkpt lat="47.37057" lon="-1.03327">
        <ele>54.545</ele>
        <time>2020-07-19T09:44:29Z</time>
      </trkpt>
      <trkpt lat="47.37055" lon="-1.03331">
        <ele>54.484</ele>
        <time>2020-07-19T09:44:30Z</time>
      </trkpt>
      <trkpt lat="47.37052" lon="-1.03336">
        <ele>54.953</ele>
        <time>2020-07-19T09:44:31Z</time>
      </trkpt>
      <trkpt lat="47.3705" lon="-1.0334">
        <ele>55.347</ele>
        <time>2020-07-19T09:44:32Z</time>
      </trkpt>
      <trkpt lat="47.37048" lon="-1.03345">
        <ele>55.486</ele>
        <time>2020-07-19T09:44:33Z</time>
      </trkpt>
      <trkpt lat="47.37046" lon="-1.0335">
        <ele>55.694</ele>
        <time>2020-07-19T09:44:34Z</time>
      </trkpt>
      <trkpt lat="47.37045" lon="-1.03355">
        <ele>54.312</ele>
        <time>2020-07-19T09:44:35Z</time>
      </trkpt>
      <trkpt lat="47.37044" lon="-1.03359">
        <ele>54.588</ele>
        <time>2020-07-19T09:44:36Z</time>
      </trkpt>
      <trkpt lat="47.37044" lon="-1.03363">
        <ele>54.905</ele>
        <time>2020-07-19T09:44:37Z</time>
      </trkpt>
      <trkpt lat="47.37043" lon="-1.03367">
        <ele>54.989</ele>
        <time>2020-07-19T09:44:38Z</time>
      </trkpt>
      <trkpt lat="47.37041" lon="-1.03371">
        <ele>55.115</ele>
        <time>2020-07-19T09:44:39Z</time>
      </trkpt>
      <trkpt lat="47.3704" lon="-1.03375">
        <ele>55.048</ele>
        <time>2020-07-19T09:44:40Z</time>
      </trkpt>
      <trkpt lat="47.37038" lon="-1.0338">
        <ele>55.592</ele>
        <time>2020-07-19T09:44:41Z</time>
      </trkpt>
      <trkpt lat="47.37037" lon="-1.03384">
        <ele>55.753</ele>
        <time>2020-07-19T09:44:42Z</time>
      </trkpt>
      <trkpt lat="47.37036" lon="-1.03388">
        <ele>56.154</ele>
        <time>2020-07-19T09:44:43Z</time>
      </trkpt>
      <trkpt lat="47.37036" lon="-1.03392">
        <ele>56.409</ele>
        <time>2020-07-19T09:44:44Z</time>
      </trkpt>
      <trkpt lat="47.37036" lon="-1.03395">
        <ele>56.19</ele>
        <time>2020-07-19T09:44:45Z</time>
      </trkpt>
      <trkpt lat="47.37036" lon="-1.03398">
        <ele>56.001</ele>
        <time>2020-07-19T09:44:46Z</time>
      </trkpt>
      <trkpt lat="47.37036" lon="-1.03398">
        <ele>57.452</ele>
        <time>2020-07-19T09:44:47Z</time>
      </trkpt>
      <trkpt lat="47.37037" lon="-1.03398">
        <ele>57.483</ele>
        <time>2020-07-19T09:44:48Z</time>
      </trkpt>
      <trkpt lat="47.37036" lon="-1.03397">
        <ele>58.734</ele>
        <time>2020-07-19T09:44:49Z</time>
      </trkpt>
      <trkpt lat="47.37036" lon="-1.03397">
        <ele>58.957</ele>
        <time>2020-07-19T09:44:50Z</time>
      </trkpt>
      <trkpt lat="47.37036" lon="-1.03397">
        <ele>58.668</ele>
        <time>2020-07-19T09:44:51Z</time>
      </trkpt>
      <trkpt lat="47.37036" lon="-1.03397">
        <ele>59.328</ele>
        <time>2020-07-19T09:44:52Z</time>
      </trkpt>
      <trkpt lat="47.37036" lon="-1.03397">
        <ele>59.673</ele>
        <time>2020-07-19T09:44:53Z</time>
      </trkpt>
      <trkpt lat="47.37036" lon="-1.03398">
        <ele>60.042</ele>
        <time>2020-07-19T09:44:54Z</time>
      </trkpt>
      <trkpt lat="47.37036" lon="-1.03399">
        <ele>59.378</ele>
        <time>2020-07-19T09:44:55Z</time>
      </trkpt>
      <trkpt lat="47.37035" lon="-1.03399">
        <ele>59.791</ele>
        <time>2020-07-19T09:44:56Z</time>
      </trkpt>
      <trkpt lat="47.37035" lon="-1.034">
        <ele>59.67</ele>
        <time>2020-07-19T09:44:57Z</time>
      </trkpt>
      <trkpt lat="47.37035" lon="-1.034">
        <ele>59.817</ele>
        <time>2020-07-19T09:44:58Z</time>
      </trkpt>
      <trkpt lat="47.37034" lon="-1.034">
        <ele>58.249</ele>
        <time>2020-07-19T09:45:00Z</time>
      </trkpt>
      <trkpt lat="47.37034" lon="-1.034">
        <ele>58.549</ele>
        <time>2020-07-19T09:45:01Z</time>
      </trkpt>
      <trkpt lat="47.37033" lon="-1.034">
        <ele>58.478</ele>
        <time>2020-07-19T09:45:02Z</time>
      </trkpt>
      <trkpt lat="47.37034" lon="-1.03399">
        <ele>57.997</ele>
        <time>2020-07-19T09:45:03Z</time>
      </trkpt>
      <trkpt lat="47.37034" lon="-1.03399">
        <ele>58.017</ele>
        <time>2020-07-19T09:45:04Z</time>
      </trkpt>
      <trkpt lat="47.37034" lon="-1.03399">
        <ele>57.696</ele>
        <time>2020-07-19T09:45:05Z</time>
      </trkpt>
      <trkpt lat="47.37034" lon="-1.03399">
        <ele>57.905</ele>
        <time>2020-07-19T09:45:06Z</time>
      </trkpt>
      <trkpt lat="47.37034" lon="-1.03399">
        <ele>108.61</ele>
        <time>2020-07-19T09:45:07Z</time>
      </trkpt>
      <trkpt lat="47.37034" lon="-1.03399">
        <ele>95.217</ele>
        <time>2020-07-19T09:45:08Z</time>
      </trkpt>
      <trkpt lat="47.37034" lon="-1.03399">
        <ele>85.288</ele>
        <time>2020-07-19T09:45:09Z</time>
      </trkpt>
      <trkpt lat="47.37035" lon="-1.034">
        <ele>76.615</ele>
        <time>2020-07-19T09:45:10Z</time>
      </trkpt>
      <trkpt lat="47.37035" lon="-1.034">
        <ele>70.059</ele>
        <time>2020-07-19T09:45:11Z</time>
      </trkpt>
      <trkpt lat="47.37035" lon="-1.034">
        <ele>66.739</ele>
        <time>2020-07-19T09:45:12Z</time>
      </trkpt>
      <trkpt lat="47.37035" lon="-1.034">
        <ele>65.669</ele>
        <time>2020-07-19T09:45:13Z</time>
      </trkpt>
      <trkpt lat="47.37035" lon="-1.034">
        <ele>64.043</ele>
        <time>2020-07-19T09:45:14Z</time>
      </trkpt>
      <trkpt lat="47.37035" lon="-1.034">
        <ele>62.517</ele>
        <time>2020-07-19T09:45:15Z</time>
      </trkpt>
      <trkpt lat="47.37035" lon="-1.034">
        <ele>61.183</ele>
        <time>2020-07-19T09:45:16Z</time>
      </trkpt>
      <trkpt lat="47.37035" lon="-1.034">
        <ele>60.949</ele>
        <time>2020-07-19T09:45:17Z</time>
      </trkpt>
      <trkpt lat="47.37035" lon="-1.034">
        <ele>60.541</ele>
        <time>2020-07-19T09:45:18Z</time>
      </trkpt>
      <trkpt lat="47.37035" lon="-1.034">
        <ele>60.194</ele>
        <time>2020-07-19T09:45:19Z</time>
      </trkpt>
      <trkpt lat="47.37035" lon="-1.034">
        <ele>59.444</ele>
        <time>2020-07-19T09:45:20Z</time>
      </trkpt>
      <trkpt lat="47.37035" lon="-1.034">
        <ele>59.86</ele>
        <time>2020-07-19T09:45:21Z</time>
      </trkpt>
      <trkpt lat="47.37035" lon="-1.034">
        <ele>59.53</ele>
        <time>2020-07-19T09:45:22Z</time>
      </trkpt>
      <trkpt lat="47.37034" lon="-1.034">
        <ele>59.434</ele>
        <time>2020-07-19T09:45:23Z</time>
      </trkpt>
      <trkpt lat="47.37034" lon="-1.034">
        <ele>59.564</ele>
        <time>2020-07-19T09:45:24Z</time>
      </trkpt>
      <trkpt lat="47.37034" lon="-1.034">
        <ele>59.258</ele>
        <time>2020-07-19T09:45:25Z</time>
      </trkpt>
      <trkpt lat="47.37034" lon="-1.034">
        <ele>59.134</ele>
        <time>2020-07-19T09:45:26Z</time>
      </trkpt>
      <trkpt lat="47.37034" lon="-1.03399">
        <ele>59.32</ele>
        <time>2020-07-19T09:45:27Z</time>
      </trkpt>
      <trkpt lat="47.37034" lon="-1.03399">
        <ele>59.228</ele>
        <time>2020-07-19T09:45:28Z</time>
      </trkpt>
      <trkpt lat="47.37034" lon="-1.034">
        <ele>60.453</ele>
        <time>2020-07-19T09:45:29Z</time>
      </trkpt>
      <trkpt lat="47.37034" lon="-1.034">
        <ele>60.843</ele>
        <time>2020-07-19T09:45:30Z</time>
      </trkpt>
      <trkpt lat="47.37034" lon="-1.03399">
        <ele>60.32</ele>
        <time>2020-07-19T09:45:31Z</time>
      </trkpt>
      <trkpt lat="47.37034" lon="-1.03399">
        <ele>61.152</ele>
        <time>2020-07-19T09:45:32Z</time>
      </trkpt>
      <trkpt lat="47.37033" lon="-1.03399">
        <ele>61.344</ele>
        <time>2020-07-19T09:45:33Z</time>
      </trkpt>
      <trkpt lat="47.37033" lon="-1.03399">
        <ele>61.475</ele>
        <time>2020-07-19T09:45:34Z</time>
      </trkpt>
      <trkpt lat="47.37033" lon="-1.03399">
        <ele>61.477</ele>
        <time>2020-07-19T09:45:35Z</time>
      </trkpt>
      <trkpt lat="47.37033" lon="-1.03399">
        <ele>61.333</ele>
        <time>2020-07-19T09:45:36Z</time>
      </trkpt>
      <trkpt lat="47.37033" lon="-1.03399">
        <ele>61.001</ele>
        <time>2020-07-19T09:45:37Z</time>
      </trkpt>
      <trkpt lat="47.37033" lon="-1.03399">
        <ele>61.077</ele>
        <time>2020-07-19T09:45:38Z</time>
      </trkpt>
      <trkpt lat="47.37033" lon="-1.03399">
        <ele>61.101</ele>
        <time>2020-07-19T09:45:39Z</time>
      </trkpt>
      <trkpt lat="47.37033" lon="-1.034">
        <ele>61.023</ele>
        <time>2020-07-19T09:45:40Z</time>
      </trkpt>
      <trkpt lat="47.37033" lon="-1.03404">
        <ele>60.589</ele>
        <time>2020-07-19T09:45:41Z</time>
      </trkpt>
      <trkpt lat="47.37033" lon="-1.03407">
        <ele>61.19</ele>
        <time>2020-07-19T09:45:42Z</time>
      </trkpt>
      <trkpt lat="47.37033" lon="-1.0341">
        <ele>59.79</ele>
        <time>2020-07-19T09:45:43Z</time>
      </trkpt>
      <trkpt lat="47.37034" lon="-1.03413">
        <ele>59.878</ele>
        <time>2020-07-19T09:45:44Z</time>
      </trkpt>
      <trkpt lat="47.37034" lon="-1.03415">
        <ele>59.803</ele>
        <time>2020-07-19T09:45:45Z</time>
      </trkpt>
      <trkpt lat="47.37035" lon="-1.03417">
        <ele>59.219</ele>
        <time>2020-07-19T09:45:46Z</time>
      </trkpt>
      <trkpt lat="47.37035" lon="-1.0342">
        <ele>60.115</ele>
        <time>2020-07-19T09:45:47Z</time>
      </trkpt>
      <trkpt lat="47.37035" lon="-1.03422">
        <ele>59.159</ele>
        <time>2020-07-19T09:45:48Z</time>
      </trkpt>
      <trkpt lat="47.37035" lon="-1.03425">
        <ele>57.329</ele>
        <time>2020-07-19T09:45:49Z</time>
      </trkpt>
      <trkpt lat="47.37034" lon="-1.03429">
        <ele>57.209</ele>
        <time>2020-07-19T09:45:50Z</time>
      </trkpt>
      <trkpt lat="47.37034" lon="-1.03432">
        <ele>57.176</ele>
        <time>2020-07-19T09:45:51Z</time>
      </trkpt>
      <trkpt lat="47.37033" lon="-1.03436">
        <ele>56.489</ele>
        <time>2020-07-19T09:45:52Z</time>
      </trkpt>
      <trkpt lat="47.37032" lon="-1.0344">
        <ele>56.802</ele>
        <time>2020-07-19T09:45:53Z</time>
      </trkpt>
      <trkpt lat="47.37031" lon="-1.03443">
        <ele>57.132</ele>
        <time>2020-07-19T09:45:54Z</time>
      </trkpt>
      <trkpt lat="47.37031" lon="-1.03446">
        <ele>59.517</ele>
        <time>2020-07-19T09:45:55Z</time>
      </trkpt>
      <trkpt lat="47.37031" lon="-1.03449">
        <ele>58.99</ele>
        <time>2020-07-19T09:45:56Z</time>
      </trkpt>
      <trkpt lat="47.37031" lon="-1.03452">
        <ele>58.337</ele>
        <time>2020-07-19T09:45:57Z</time>
      </trkpt>
      <trkpt lat="47.37033" lon="-1.03454">
        <ele>57.868</ele>
        <time>2020-07-19T09:45:58Z</time>
      </trkpt>
      <trkpt lat="47.37034" lon="-1.03456">
        <ele>57.808</ele>
        <time>2020-07-19T09:45:59Z</time>
      </trkpt>
      <trkpt lat="47.37035" lon="-1.03458">
        <ele>56.649</ele>
        <time>2020-07-19T09:46:00Z</time>
      </trkpt>
      <trkpt lat="47.37036" lon="-1.0346">
        <ele>56.536</ele>
        <time>2020-07-19T09:46:01Z</time>
      </trkpt>
      <trkpt lat="47.37037" lon="-1.03463">
        <ele>56.136</ele>
        <time>2020-07-19T09:46:02Z</time>
      </trkpt>
      <trkpt lat="47.37037" lon="-1.03466">
        <ele>55.629</ele>
        <time>2020-07-19T09:46:03Z</time>
      </trkpt>
      <trkpt lat="47.37037" lon="-1.03469">
        <ele>56.221</ele>
        <time>2020-07-19T09:46:04Z</time>
      </trkpt>
      <trkpt lat="47.37038" lon="-1.03471">
        <ele>56.439</ele>
        <time>2020-07-19T09:46:05Z</time>
      </trkpt>
      <trkpt lat="47.37039" lon="-1.03474">
        <ele>55.605</ele>
        <time>2020-07-19T09:46:06Z</time>
      </trkpt>
      <trkpt lat="47.37041" lon="-1.03477">
        <ele>55.39</ele>
        <time>2020-07-19T09:46:07Z</time>
      </trkpt>
      <trkpt lat="47.37042" lon="-1.03481">
        <ele>55.806</ele>
        <time>2020-07-19T09:46:08Z</time>
      </trkpt>
      <trkpt lat="47.37042" lon="-1.03485">
        <ele>55.939</ele>
        <time>2020-07-19T09:46:09Z</time>
      </trkpt>
      <trkpt lat="47.37043" lon="-1.03489">
        <ele>55.777</ele>
        <time>2020-07-19T09:46:10Z</time>
      </trkpt>
      <trkpt lat="47.37043" lon="-1.03493">
        <ele>53.422</ele>
        <time>2020-07-19T09:46:11Z</time>
      </trkpt>
      <trkpt lat="47.37043" lon="-1.03497">
        <ele>53.235</ele>
        <time>2020-07-19T09:46:12Z</time>
      </trkpt>
      <trkpt lat="47.37044" lon="-1.035">
        <ele>53.097</ele>
        <time>2020-07-19T09:46:13Z</time>
      </trkpt>
      <trkpt lat="47.37044" lon="-1.03503">
        <ele>52.98</ele>
        <time>2020-07-19T09:46:14Z</time>
      </trkpt>
      <trkpt lat="47.37045" lon="-1.03506">
        <ele>51.873</ele>
        <time>2020-07-19T09:46:15Z</time>
      </trkpt>
      <trkpt lat="47.37046" lon="-1.03509">
        <ele>51.305</ele>
        <time>2020-07-19T09:46:16Z</time>
      </trkpt>
      <trkpt lat="47.37047" lon="-1.03513">
        <ele>50.43</ele>
        <time>2020-07-19T09:46:17Z</time>
      </trkpt>
      <trkpt lat="47.37048" lon="-1.03517">
        <ele>49.588</ele>
        <time>2020-07-19T09:46:18Z</time>
      </trkpt>
      <trkpt lat="47.37048" lon="-1.03521">
        <ele>50.375</ele>
        <time>2020-07-19T09:46:19Z</time>
      </trkpt>
      <trkpt lat="47.37048" lon="-1.03524">
        <ele>51.306</ele>
        <time>2020-07-19T09:46:20Z</time>
      </trkpt>
      <trkpt lat="47.37048" lon="-1.03528">
        <ele>50.608</ele>
        <time>2020-07-19T09:46:21Z</time>
      </trkpt>
      <trkpt lat="47.37047" lon="-1.03531">
        <ele>49.029</ele>
        <time>2020-07-19T09:46:22Z</time>
      </trkpt>
      <trkpt lat="47.37046" lon="-1.03535">
        <ele>48.039</ele>
        <time>2020-07-19T09:46:23Z</time>
      </trkpt>
      <trkpt lat="47.37045" lon="-1.03539">
        <ele>48.334</ele>
        <time>2020-07-19T09:46:24Z</time>
      </trkpt>
      <trkpt lat="47.37043" lon="-1.03542">
        <ele>48.427</ele>
        <time>2020-07-19T09:46:25Z</time>
      </trkpt>
      <trkpt lat="47.37042" lon="-1.03545">
        <ele>48.436</ele>
        <time>2020-07-19T09:46:26Z</time>
      </trkpt>
      <trkpt lat="47.37042" lon="-1.03548">
        <ele>49.012</ele>
        <time>2020-07-19T09:46:27Z</time>
      </trkpt>
      <trkpt lat="47.37041" lon="-1.0355">
        <ele>49.922</ele>
        <time>2020-07-19T09:46:28Z</time>
      </trkpt>
      <trkpt lat="47.37042" lon="-1.03552">
        <ele>49.756</ele>
        <time>2020-07-19T09:46:29Z</time>
      </trkpt>
      <trkpt lat="47.37042" lon="-1.03554">
        <ele>49.429</ele>
        <time>2020-07-19T09:46:30Z</time>
      </trkpt>
      <trkpt lat="47.37043" lon="-1.03557">
        <ele>49.551</ele>
        <time>2020-07-19T09:46:31Z</time>
      </trkpt>
      <trkpt lat="47.37043" lon="-1.0356">
        <ele>49.078</ele>
        <time>2020-07-19T09:46:32Z</time>
      </trkpt>
      <trkpt lat="47.37044" lon="-1.03564">
        <ele>49.924</ele>
        <time>2020-07-19T09:46:33Z</time>
      </trkpt>
      <trkpt lat="47.37045" lon="-1.03568">
        <ele>49.938</ele>
        <time>2020-07-19T09:46:34Z</time>
      </trkpt>
      <trkpt lat="47.37045" lon="-1.0357">
        <ele>49.239</ele>
        <time>2020-07-19T09:46:35Z</time>
      </trkpt>
      <trkpt lat="47.37046" lon="-1.03573">
        <ele>49.686</ele>
        <time>2020-07-19T09:46:36Z</time>
      </trkpt>
      <trkpt lat="47.37047" lon="-1.03576">
        <ele>49.977</ele>
        <time>2020-07-19T09:46:37Z</time>
      </trkpt>
      <trkpt lat="47.37048" lon="-1.03578">
        <ele>50.022</ele>
        <time>2020-07-19T09:46:38Z</time>
      </trkpt>
      <trkpt lat="47.37048" lon="-1.03579">
        <ele>50.188</ele>
        <time>2020-07-19T09:46:39Z</time>
      </trkpt>
      <trkpt lat="47.37048" lon="-1.0358">
        <ele>51.094</ele>
        <time>2020-07-19T09:46:40Z</time>
      </trkpt>
      <trkpt lat="47.37049" lon="-1.03581">
        <ele>50.758</ele>
        <time>2020-07-19T09:46:41Z</time>
      </trkpt>
      <trkpt lat="47.37049" lon="-1.03584">
        <ele>50.709</ele>
        <time>2020-07-19T09:46:42Z</time>
      </trkpt>
      <trkpt lat="47.37049" lon="-1.03586">
        <ele>49.811</ele>
        <time>2020-07-19T09:46:43Z</time>
      </trkpt>
      <trkpt lat="47.3705" lon="-1.03588">
        <ele>50.645</ele>
        <time>2020-07-19T09:46:44Z</time>
      </trkpt>
      <trkpt lat="47.3705" lon="-1.03591">
        <ele>51.477</ele>
        <time>2020-07-19T09:46:45Z</time>
      </trkpt>
      <trkpt lat="47.3705" lon="-1.03595">
        <ele>51.502</ele>
        <time>2020-07-19T09:46:46Z</time>
      </trkpt>
      <trkpt lat="47.37051" lon="-1.03599">
        <ele>50.911</ele>
        <time>2020-07-19T09:46:47Z</time>
      </trkpt>
      <trkpt lat="47.37051" lon="-1.03603">
        <ele>50.645</ele>
        <time>2020-07-19T09:46:48Z</time>
      </trkpt>
      <trkpt lat="47.37051" lon="-1.03606">
        <ele>51.533</ele>
        <time>2020-07-19T09:46:49Z</time>
      </trkpt>
      <trkpt lat="47.37052" lon="-1.03609">
        <ele>51.832</ele>
        <time>2020-07-19T09:46:50Z</time>
      </trkpt>
      <trkpt lat="47.37053" lon="-1.03611">
        <ele>52.857</ele>
        <time>2020-07-19T09:46:51Z</time>
      </trkpt>
      <trkpt lat="47.37053" lon="-1.03613">
        <ele>53.771</ele>
        <time>2020-07-19T09:46:52Z</time>
      </trkpt>
      <trkpt lat="47.37053" lon="-1.03615">
        <ele>54.584</ele>
        <time>2020-07-19T09:46:53Z</time>
      </trkpt>
      <trkpt lat="47.37052" lon="-1.03618">
        <ele>54.364</ele>
        <time>2020-07-19T09:46:54Z</time>
      </trkpt>
      <trkpt lat="47.37051" lon="-1.03621">
        <ele>54.54</ele>
        <time>2020-07-19T09:46:55Z</time>
      </trkpt>
      <trkpt lat="47.37051" lon="-1.03625">
        <ele>52.785</ele>
        <time>2020-07-19T09:46:56Z</time>
      </trkpt>
      <trkpt lat="47.37052" lon="-1.03629">
        <ele>52.888</ele>
        <time>2020-07-19T09:46:57Z</time>
      </trkpt>
      <trkpt lat="47.37053" lon="-1.03632">
        <ele>53.068</ele>
        <time>2020-07-19T09:46:58Z</time>
      </trkpt>
      <trkpt lat="47.37054" lon="-1.03635">
        <ele>54.105</ele>
        <time>2020-07-19T09:46:59Z</time>
      </trkpt>
      <trkpt lat="47.37055" lon="-1.03638">
        <ele>54.09</ele>
        <time>2020-07-19T09:47:00Z</time>
      </trkpt>
      <trkpt lat="47.37056" lon="-1.03641">
        <ele>54.068</ele>
        <time>2020-07-19T09:47:01Z</time>
      </trkpt>
      <trkpt lat="47.37055" lon="-1.03645">
        <ele>54.037</ele>
        <time>2020-07-19T09:47:02Z</time>
      </trkpt>
      <trkpt lat="47.37054" lon="-1.03649">
        <ele>54.926</ele>
        <time>2020-07-19T09:47:03Z</time>
      </trkpt>
      <trkpt lat="47.37054" lon="-1.03652">
        <ele>55.271</ele>
        <time>2020-07-19T09:47:04Z</time>
      </trkpt>
      <trkpt lat="47.37053" lon="-1.03654">
        <ele>55.624</ele>
        <time>2020-07-19T09:47:05Z</time>
      </trkpt>
      <trkpt lat="47.37053" lon="-1.03656">
        <ele>56.467</ele>
        <time>2020-07-19T09:47:06Z</time>
      </trkpt>
      <trkpt lat="47.37053" lon="-1.03658">
        <ele>56.488</ele>
        <time>2020-07-19T09:47:07Z</time>
      </trkpt>
      <trkpt lat="47.37054" lon="-1.0366">
        <ele>56.723</ele>
        <time>2020-07-19T09:47:08Z</time>
      </trkpt>
      <trkpt lat="47.37054" lon="-1.0366">
        <ele>57.292</ele>
        <time>2020-07-19T09:47:09Z</time>
      </trkpt>
      <trkpt lat="47.37055" lon="-1.0366">
        <ele>53.266</ele>
        <time>2020-07-19T09:47:10Z</time>
      </trkpt>
      <trkpt lat="47.37056" lon="-1.0366">
        <ele>53.987</ele>
        <time>2020-07-19T09:47:11Z</time>
      </trkpt>
      <trkpt lat="47.37057" lon="-1.03661">
        <ele>53.877</ele>
        <time>2020-07-19T09:47:12Z</time>
      </trkpt>
      <trkpt lat="47.37057" lon="-1.03661">
        <ele>54.321</ele>
        <time>2020-07-19T09:47:13Z</time>
      </trkpt>
      <trkpt lat="47.37057" lon="-1.03661">
        <ele>54.426</ele>
        <time>2020-07-19T09:47:14Z</time>
      </trkpt>
      <trkpt lat="47.37057" lon="-1.03661">
        <ele>54.982</ele>
        <time>2020-07-19T09:47:15Z</time>
      </trkpt>
      <trkpt lat="47.37056" lon="-1.03661">
        <ele>55.902</ele>
        <time>2020-07-19T09:47:16Z</time>
      </trkpt>
      <trkpt lat="47.37056" lon="-1.03661">
        <ele>56.785</ele>
        <time>2020-07-19T09:47:17Z</time>
      </trkpt>
      <trkpt lat="47.37055" lon="-1.03662">
        <ele>56.807</ele>
        <time>2020-07-19T09:47:18Z</time>
      </trkpt>
      <trkpt lat="47.37055" lon="-1.03662">
        <ele>56.149</ele>
        <time>2020-07-19T09:47:19Z</time>
      </trkpt>
      <trkpt lat="47.37056" lon="-1.03663">
        <ele>55.759</ele>
        <time>2020-07-19T09:47:20Z</time>
      </trkpt>
      <trkpt lat="47.37056" lon="-1.03663">
        <ele>56.043</ele>
        <time>2020-07-19T09:47:21Z</time>
      </trkpt>
      <trkpt lat="47.37056" lon="-1.03663">
        <ele>56.271</ele>
        <time>2020-07-19T09:47:22Z</time>
      </trkpt>
      <trkpt lat="47.37056" lon="-1.03663">
        <ele>58.233</ele>
        <time>2020-07-19T09:47:23Z</time>
      </trkpt>
      <trkpt lat="47.37057" lon="-1.03663">
        <ele>60.056</ele>
        <time>2020-07-19T09:47:24Z</time>
      </trkpt>
      <trkpt lat="47.37057" lon="-1.03663">
        <ele>60.646</ele>
        <time>2020-07-19T09:47:25Z</time>
      </trkpt>
      <trkpt lat="47.37058" lon="-1.03664">
        <ele>56.692</ele>
        <time>2020-07-19T09:47:26Z</time>
      </trkpt>
      <trkpt lat="47.37059" lon="-1.03665">
        <ele>56.456</ele>
        <time>2020-07-19T09:47:27Z</time>
      </trkpt>
      <trkpt lat="47.37059" lon="-1.03665">
        <ele>57.388</ele>
        <time>2020-07-19T09:47:28Z</time>
      </trkpt>
      <trkpt lat="47.3706" lon="-1.03666">
        <ele>56.986</ele>
        <time>2020-07-19T09:47:29Z</time>
      </trkpt>
      <trkpt lat="47.3706" lon="-1.03668">
        <ele>56.826</ele>
        <time>2020-07-19T09:47:30Z</time>
      </trkpt>
      <trkpt lat="47.3706" lon="-1.03669">
        <ele>56.819</ele>
        <time>2020-07-19T09:47:31Z</time>
      </trkpt>
      <trkpt lat="47.3706" lon="-1.0367">
        <ele>57.2</ele>
        <time>2020-07-19T09:47:32Z</time>
      </trkpt>
      <trkpt lat="47.3706" lon="-1.0367">
        <ele>57.875</ele>
        <time>2020-07-19T09:47:33Z</time>
      </trkpt>
      <trkpt lat="47.3706" lon="-1.03672">
        <ele>58.397</ele>
        <time>2020-07-19T09:47:34Z</time>
      </trkpt>
      <trkpt lat="47.37061" lon="-1.03673">
        <ele>58.271</ele>
        <time>2020-07-19T09:47:35Z</time>
      </trkpt>
      <trkpt lat="47.37061" lon="-1.03676">
        <ele>58.665</ele>
        <time>2020-07-19T09:47:37Z</time>
      </trkpt>
      <trkpt lat="47.3706" lon="-1.03677">
        <ele>58.746</ele>
        <time>2020-07-19T09:47:38Z</time>
      </trkpt>
      <trkpt lat="47.3706" lon="-1.03678">
        <ele>58.981</ele>
        <time>2020-07-19T09:47:39Z</time>
      </trkpt>
      <trkpt lat="47.37059" lon="-1.03679">
        <ele>58.809</ele>
        <time>2020-07-19T09:47:40Z</time>
      </trkpt>
      <trkpt lat="47.37059" lon="-1.03681">
        <ele>59.307</ele>
        <time>2020-07-19T09:47:41Z</time>
      </trkpt>
      <trkpt lat="47.37059" lon="-1.03681">
        <ele>59.146</ele>
        <time>2020-07-19T09:47:42Z</time>
      </trkpt>
      <trkpt lat="47.37059" lon="-1.03682">
        <ele>59.409</ele>
        <time>2020-07-19T09:47:43Z</time>
      </trkpt>
      <trkpt lat="47.37059" lon="-1.03682">
        <ele>59.266</ele>
        <time>2020-07-19T09:47:44Z</time>
      </trkpt>
      <trkpt lat="47.37059" lon="-1.03682">
        <ele>59.243</ele>
        <time>2020-07-19T09:47:45Z</time>
      </trkpt>
      <trkpt lat="47.37059" lon="-1.03682">
        <ele>59.639</ele>
        <time>2020-07-19T09:47:46Z</time>
      </trkpt>
      <trkpt lat="47.37059" lon="-1.03682">
        <ele>59.741</ele>
        <time>2020-07-19T09:47:47Z</time>
      </trkpt>
      <trkpt lat="47.37059" lon="-1.03682">
        <ele>59.938</ele>
        <time>2020-07-19T09:47:48Z</time>
      </trkpt>
      <trkpt lat="47.37058" lon="-1.03682">
        <ele>59.836</ele>
        <time>2020-07-19T09:47:49Z</time>
      </trkpt>
      <trkpt lat="47.37058" lon="-1.03683">
        <ele>59.178</ele>
        <time>2020-07-19T09:47:50Z</time>
      </trkpt>
      <trkpt lat="47.37058" lon="-1.03683">
        <ele>58.801</ele>
        <time>2020-07-19T09:47:51Z</time>
      </trkpt>
      <trkpt lat="47.37058" lon="-1.03683">
        <ele>59.109</ele>
        <time>2020-07-19T09:47:52Z</time>
      </trkpt>
      <trkpt lat="47.37058" lon="-1.03684">
        <ele>57.711</ele>
        <time>2020-07-19T09:47:54Z</time>
      </trkpt>
      <trkpt lat="47.37059" lon="-1.03685">
        <ele>57.399</ele>
        <time>2020-07-19T09:47:55Z</time>
      </trkpt>
      <trkpt lat="47.37059" lon="-1.03685">
        <ele>58.186</ele>
        <time>2020-07-19T09:47:56Z</time>
      </trkpt>
      <trkpt lat="47.3706" lon="-1.03686">
        <ele>59.619</ele>
        <time>2020-07-19T09:47:57Z</time>
      </trkpt>
      <trkpt lat="47.3706" lon="-1.03686">
        <ele>60.559</ele>
        <time>2020-07-19T09:47:58Z</time>
      </trkpt>
      <trkpt lat="47.3706" lon="-1.03686">
        <ele>60.034</ele>
        <time>2020-07-19T09:47:59Z</time>
      </trkpt>
      <trkpt lat="47.3706" lon="-1.03687">
        <ele>59.613</ele>
        <time>2020-07-19T09:48:00Z</time>
      </trkpt>
      <trkpt lat="47.3706" lon="-1.03687">
        <ele>58.229</ele>
        <time>2020-07-19T09:48:01Z</time>
      </trkpt>
      <trkpt lat="47.3706" lon="-1.03687">
        <ele>58.286</ele>
        <time>2020-07-19T09:48:02Z</time>
      </trkpt>
      <trkpt lat="47.37061" lon="-1.03687">
        <ele>58.204</ele>
        <time>2020-07-19T09:48:03Z</time>
      </trkpt>
      <trkpt lat="47.37061" lon="-1.03687">
        <ele>58.803</ele>
        <time>2020-07-19T09:48:04Z</time>
      </trkpt>
      <trkpt lat="47.37061" lon="-1.03687">
        <ele>59.243</ele>
        <time>2020-07-19T09:48:05Z</time>
      </trkpt>
      <trkpt lat="47.3706" lon="-1.03688">
        <ele>60.264</ele>
        <time>2020-07-19T09:48:06Z</time>
      </trkpt>
      <trkpt lat="47.37061" lon="-1.03688">
        <ele>61.193</ele>
        <time>2020-07-19T09:48:07Z</time>
      </trkpt>
      <trkpt lat="47.37061" lon="-1.0369">
        <ele>61.358</ele>
        <time>2020-07-19T09:48:08Z</time>
      </trkpt>
      <trkpt lat="47.37061" lon="-1.03691">
        <ele>60.965</ele>
        <time>2020-07-19T09:48:09Z</time>
      </trkpt>
      <trkpt lat="47.37061" lon="-1.03692">
        <ele>62.216</ele>
        <time>2020-07-19T09:48:10Z</time>
      </trkpt>
      <trkpt lat="47.3706" lon="-1.03693">
        <ele>60.286</ele>
        <time>2020-07-19T09:48:11Z</time>
      </trkpt>
      <trkpt lat="47.37059" lon="-1.03694">
        <ele>60.203</ele>
        <time>2020-07-19T09:48:12Z</time>
      </trkpt>
      <trkpt lat="47.37059" lon="-1.03696">
        <ele>59.995</ele>
        <time>2020-07-19T09:48:13Z</time>
      </trkpt>
      <trkpt lat="47.37059" lon="-1.03698">
        <ele>60.195</ele>
        <time>2020-07-19T09:48:14Z</time>
      </trkpt>
      <trkpt lat="47.37059" lon="-1.03699">
        <ele>60.064</ele>
        <time>2020-07-19T09:48:15Z</time>
      </trkpt>
      <trkpt lat="47.3706" lon="-1.037">
        <ele>59.37</ele>
        <time>2020-07-19T09:48:16Z</time>
      </trkpt>
      <trkpt lat="47.37061" lon="-1.03701">
        <ele>59.306</ele>
        <time>2020-07-19T09:48:17Z</time>
      </trkpt>
      <trkpt lat="47.37062" lon="-1.03702">
        <ele>59.991</ele>
        <time>2020-07-19T09:48:18Z</time>
      </trkpt>
      <trkpt lat="47.37062" lon="-1.03703">
        <ele>60.289</ele>
        <time>2020-07-19T09:48:19Z</time>
      </trkpt>
      <trkpt lat="47.37062" lon="-1.03704">
        <ele>59.462</ele>
        <time>2020-07-19T09:48:20Z</time>
      </trkpt>
      <trkpt lat="47.37062" lon="-1.03705">
        <ele>59.77</ele>
        <time>2020-07-19T09:48:21Z</time>
      </trkpt>
      <trkpt lat="47.37062" lon="-1.03706">
        <ele>60.727</ele>
        <time>2020-07-19T09:48:22Z</time>
      </trkpt>
      <trkpt lat="47.37062" lon="-1.03707">
        <ele>60.28</ele>
        <time>2020-07-19T09:48:23Z</time>
      </trkpt>
      <trkpt lat="47.37062" lon="-1.03707">
        <ele>59.85</ele>
        <time>2020-07-19T09:48:24Z</time>
      </trkpt>
      <trkpt lat="47.37063" lon="-1.03708">
        <ele>59.682</ele>
        <time>2020-07-19T09:48:25Z</time>
      </trkpt>
      <trkpt lat="47.37063" lon="-1.03708">
        <ele>60.338</ele>
        <time>2020-07-19T09:48:26Z</time>
      </trkpt>
      <trkpt lat="47.37063" lon="-1.03708">
        <ele>60.37</ele>
        <time>2020-07-19T09:48:27Z</time>
      </trkpt>
      <trkpt lat="47.37063" lon="-1.03708">
        <ele>60.607</ele>
        <time>2020-07-19T09:48:28Z</time>
      </trkpt>
      <trkpt lat="47.37063" lon="-1.03709">
        <ele>60.405</ele>
        <time>2020-07-19T09:48:29Z</time>
      </trkpt>
      <trkpt lat="47.37063" lon="-1.03708">
        <ele>60.768</ele>
        <time>2020-07-19T09:48:30Z</time>
      </trkpt>
      <trkpt lat="47.37063" lon="-1.03708">
        <ele>60.554</ele>
        <time>2020-07-19T09:48:31Z</time>
      </trkpt>
      <trkpt lat="47.37062" lon="-1.03708">
        <ele>60.707</ele>
        <time>2020-07-19T09:48:32Z</time>
      </trkpt>
      <trkpt lat="47.37062" lon="-1.03707">
        <ele>60.687</ele>
        <time>2020-07-19T09:48:33Z</time>
      </trkpt>
      <trkpt lat="47.37062" lon="-1.03707">
        <ele>60.634</ele>
        <time>2020-07-19T09:48:34Z</time>
      </trkpt>
      <trkpt lat="47.37062" lon="-1.03707">
        <ele>60.646</ele>
        <time>2020-07-19T09:48:35Z</time>
      </trkpt>
      <trkpt lat="47.37063" lon="-1.03708">
        <ele>60.789</ele>
        <time>2020-07-19T09:48:36Z</time>
      </trkpt>
      <trkpt lat="47.37063" lon="-1.03708">
        <ele>60.628</ele>
        <time>2020-07-19T09:48:37Z</time>
      </trkpt>
      <trkpt lat="47.37063" lon="-1.03709">
        <ele>59.256</ele>
        <time>2020-07-19T09:48:38Z</time>
      </trkpt>
      <trkpt lat="47.37063" lon="-1.03708">
        <ele>59.478</ele>
        <time>2020-07-19T09:48:39Z</time>
      </trkpt>
      <trkpt lat="47.37063" lon="-1.03708">
        <ele>59.639</ele>
        <time>2020-07-19T09:48:40Z</time>
      </trkpt>
      <trkpt lat="47.37063" lon="-1.03708">
        <ele>59.56</ele>
        <time>2020-07-19T09:48:41Z</time>
      </trkpt>
      <trkpt lat="47.37063" lon="-1.03708">
        <ele>59.339</ele>
        <time>2020-07-19T09:48:42Z</time>
      </trkpt>
      <trkpt lat="47.37063" lon="-1.03708">
        <ele>59.178</ele>
        <time>2020-07-19T09:48:43Z</time>
      </trkpt>
      <trkpt lat="47.37063" lon="-1.03709">
        <ele>59.063</ele>
        <time>2020-07-19T09:48:44Z</time>
      </trkpt>
      <trkpt lat="47.37063" lon="-1.03711">
        <ele>59.08</ele>
        <time>2020-07-19T09:48:45Z</time>
      </trkpt>
      <trkpt lat="47.37063" lon="-1.03714">
        <ele>58.655</ele>
        <time>2020-07-19T09:48:46Z</time>
      </trkpt>
      <trkpt lat="47.37064" lon="-1.03717">
        <ele>57.052</ele>
        <time>2020-07-19T09:48:47Z</time>
      </trkpt>
      <trkpt lat="47.37065" lon="-1.03719">
        <ele>56.178</ele>
        <time>2020-07-19T09:48:48Z</time>
      </trkpt>
      <trkpt lat="47.37067" lon="-1.03722">
        <ele>53.926</ele>
        <time>2020-07-19T09:48:49Z</time>
      </trkpt>
      <trkpt lat="47.37068" lon="-1.03725">
        <ele>55.324</ele>
        <time>2020-07-19T09:48:50Z</time>
      </trkpt>
      <trkpt lat="47.37069" lon="-1.03727">
        <ele>55.194</ele>
        <time>2020-07-19T09:48:51Z</time>
      </trkpt>
      <trkpt lat="47.3707" lon="-1.0373">
        <ele>56.08</ele>
        <time>2020-07-19T09:48:52Z</time>
      </trkpt>
      <trkpt lat="47.3707" lon="-1.03732">
        <ele>55.223</ele>
        <time>2020-07-19T09:48:53Z</time>
      </trkpt>
      <trkpt lat="47.3707" lon="-1.03736">
        <ele>54.344</ele>
        <time>2020-07-19T09:48:54Z</time>
      </trkpt>
      <trkpt lat="47.37069" lon="-1.0374">
        <ele>54.971</ele>
        <time>2020-07-19T09:48:55Z</time>
      </trkpt>
      <trkpt lat="47.37069" lon="-1.03744">
        <ele>55.117</ele>
        <time>2020-07-19T09:48:56Z</time>
      </trkpt>
      <trkpt lat="47.37068" lon="-1.03748">
        <ele>54.19</ele>
        <time>2020-07-19T09:48:57Z</time>
      </trkpt>
      <trkpt lat="47.37068" lon="-1.03752">
        <ele>54.488</ele>
        <time>2020-07-19T09:48:58Z</time>
      </trkpt>
      <trkpt lat="47.37068" lon="-1.03756">
        <ele>54.137</ele>
        <time>2020-07-19T09:48:59Z</time>
      </trkpt>
      <trkpt lat="47.37069" lon="-1.0376">
        <ele>55.623</ele>
        <time>2020-07-19T09:49:00Z</time>
      </trkpt>
      <trkpt lat="47.37069" lon="-1.03763">
        <ele>56.242</ele>
        <time>2020-07-19T09:49:01Z</time>
      </trkpt>
      <trkpt lat="47.3707" lon="-1.03765">
        <ele>55.719</ele>
        <time>2020-07-19T09:49:02Z</time>
      </trkpt>
      <trkpt lat="47.37071" lon="-1.03768">
        <ele>56.423</ele>
        <time>2020-07-19T09:49:03Z</time>
      </trkpt>
      <trkpt lat="47.37071" lon="-1.03771">
        <ele>56.497</ele>
        <time>2020-07-19T09:49:04Z</time>
      </trkpt>
      <trkpt lat="47.37071" lon="-1.03773">
        <ele>55.095</ele>
        <time>2020-07-19T09:49:05Z</time>
      </trkpt>
      <trkpt lat="47.37072" lon="-1.03775">
        <ele>55.012</ele>
        <time>2020-07-19T09:49:06Z</time>
      </trkpt>
      <trkpt lat="47.37074" lon="-1.03777">
        <ele>54.083</ele>
        <time>2020-07-19T09:49:07Z</time>
      </trkpt>
      <trkpt lat="47.37075" lon="-1.03779">
        <ele>54.807</ele>
        <time>2020-07-19T09:49:08Z</time>
      </trkpt>
      <trkpt lat="47.37077" lon="-1.0378">
        <ele>55.25</ele>
        <time>2020-07-19T09:49:09Z</time>
      </trkpt>
      <trkpt lat="47.37077" lon="-1.03782">
        <ele>55.855</ele>
        <time>2020-07-19T09:49:10Z</time>
      </trkpt>
      <trkpt lat="47.37077" lon="-1.03783">
        <ele>55.557</ele>
        <time>2020-07-19T09:49:11Z</time>
      </trkpt>
      <trkpt lat="47.37077" lon="-1.03785">
        <ele>55.666</ele>
        <time>2020-07-19T09:49:12Z</time>
      </trkpt>
      <trkpt lat="47.37076" lon="-1.03789">
        <ele>55.569</ele>
        <time>2020-07-19T09:49:13Z</time>
      </trkpt>
      <trkpt lat="47.37076" lon="-1.03791">
        <ele>56.006</ele>
        <time>2020-07-19T09:49:14Z</time>
      </trkpt>
      <trkpt lat="47.37076" lon="-1.03794">
        <ele>56.055</ele>
        <time>2020-07-19T09:49:15Z</time>
      </trkpt>
      <trkpt lat="47.37076" lon="-1.03796">
        <ele>55.812</ele>
        <time>2020-07-19T09:49:16Z</time>
      </trkpt>
      <trkpt lat="47.37076" lon="-1.03798">
        <ele>56.921</ele>
        <time>2020-07-19T09:49:17Z</time>
      </trkpt>
      <trkpt lat="47.37076" lon="-1.038">
        <ele>54.416</ele>
        <time>2020-07-19T09:49:18Z</time>
      </trkpt>
      <trkpt lat="47.37076" lon="-1.03803">
        <ele>54.735</ele>
        <time>2020-07-19T09:49:19Z</time>
      </trkpt>
      <trkpt lat="47.37076" lon="-1.03806">
        <ele>54.854</ele>
        <time>2020-07-19T09:49:20Z</time>
      </trkpt>
      <trkpt lat="47.37075" lon="-1.0381">
        <ele>55.045</ele>
        <time>2020-07-19T09:49:21Z</time>
      </trkpt>
      <trkpt lat="47.37074" lon="-1.03814">
        <ele>54.349</ele>
        <time>2020-07-19T09:49:22Z</time>
      </trkpt>
      <trkpt lat="47.37074" lon="-1.03817">
        <ele>52.182</ele>
        <time>2020-07-19T09:49:23Z</time>
      </trkpt>
      <trkpt lat="47.37073" lon="-1.0382">
        <ele>52.951</ele>
        <time>2020-07-19T09:49:24Z</time>
      </trkpt>
      <trkpt lat="47.37072" lon="-1.03822">
        <ele>52.859</ele>
        <time>2020-07-19T09:49:25Z</time>
      </trkpt>
      <trkpt lat="47.37072" lon="-1.03824">
        <ele>52.998</ele>
        <time>2020-07-19T09:49:26Z</time>
      </trkpt>
      <trkpt lat="47.37072" lon="-1.03825">
        <ele>53.403</ele>
        <time>2020-07-19T09:49:27Z</time>
      </trkpt>
      <trkpt lat="47.37071" lon="-1.03825">
        <ele>53.519</ele>
        <time>2020-07-19T09:49:28Z</time>
      </trkpt>
      <trkpt lat="47.37072" lon="-1.03827">
        <ele>53.095</ele>
        <time>2020-07-19T09:49:29Z</time>
      </trkpt>
      <trkpt lat="47.37072" lon="-1.03829">
        <ele>53.705</ele>
        <time>2020-07-19T09:49:30Z</time>
      </trkpt>
      <trkpt lat="47.37072" lon="-1.03833">
        <ele>54.426</ele>
        <time>2020-07-19T09:49:31Z</time>
      </trkpt>
      <trkpt lat="47.37073" lon="-1.03836">
        <ele>54.832</ele>
        <time>2020-07-19T09:49:32Z</time>
      </trkpt>
      <trkpt lat="47.37074" lon="-1.0384">
        <ele>54.849</ele>
        <time>2020-07-19T09:49:33Z</time>
      </trkpt>
      <trkpt lat="47.37075" lon="-1.03843">
        <ele>54.571</ele>
        <time>2020-07-19T09:49:34Z</time>
      </trkpt>
      <trkpt lat="47.37076" lon="-1.03845">
        <ele>55.566</ele>
        <time>2020-07-19T09:49:35Z</time>
      </trkpt>
      <trkpt lat="47.37077" lon="-1.03848">
        <ele>55.081</ele>
        <time>2020-07-19T09:49:36Z</time>
      </trkpt>
      <trkpt lat="47.37077" lon="-1.03851">
        <ele>58.583</ele>
        <time>2020-07-19T09:49:37Z</time>
      </trkpt>
      <trkpt lat="47.37078" lon="-1.03854">
        <ele>58.498</ele>
        <time>2020-07-19T09:49:38Z</time>
      </trkpt>
      <trkpt lat="47.37078" lon="-1.03857">
        <ele>59.194</ele>
        <time>2020-07-19T09:49:39Z</time>
      </trkpt>
      <trkpt lat="47.37079" lon="-1.03859">
        <ele>57.958</ele>
        <time>2020-07-19T09:49:40Z</time>
      </trkpt>
      <trkpt lat="47.37079" lon="-1.03862">
        <ele>57.916</ele>
        <time>2020-07-19T09:49:41Z</time>
      </trkpt>
      <trkpt lat="47.37079" lon="-1.03865">
        <ele>56.929</ele>
        <time>2020-07-19T09:49:42Z</time>
      </trkpt>
      <trkpt lat="47.37079" lon="-1.03869">
        <ele>56.612</ele>
        <time>2020-07-19T09:49:43Z</time>
      </trkpt>
      <trkpt lat="47.37079" lon="-1.03874">
        <ele>55.739</ele>
        <time>2020-07-19T09:49:44Z</time>
      </trkpt>
      <trkpt lat="47.37079" lon="-1.03877">
        <ele>55.194</ele>
        <time>2020-07-19T09:49:45Z</time>
      </trkpt>
      <trkpt lat="47.37079" lon="-1.03882">
        <ele>54.872</ele>
        <time>2020-07-19T09:49:46Z</time>
      </trkpt>
      <trkpt lat="47.37079" lon="-1.03886">
        <ele>55.073</ele>
        <time>2020-07-19T09:49:47Z</time>
      </trkpt>
      <trkpt lat="47.37079" lon="-1.0389">
        <ele>55.421</ele>
        <time>2020-07-19T09:49:48Z</time>
      </trkpt>
      <trkpt lat="47.3708" lon="-1.03894">
        <ele>55.813</ele>
        <time>2020-07-19T09:49:49Z</time>
      </trkpt>
      <trkpt lat="47.3708" lon="-1.03897">
        <ele>55.438</ele>
        <time>2020-07-19T09:49:50Z</time>
      </trkpt>
      <trkpt lat="47.37082" lon="-1.039">
        <ele>54.657</ele>
        <time>2020-07-19T09:49:51Z</time>
      </trkpt>
      <trkpt lat="47.37083" lon="-1.03901">
        <ele>53.948</ele>
        <time>2020-07-19T09:49:52Z</time>
      </trkpt>
      <trkpt lat="47.37085" lon="-1.03902">
        <ele>53.509</ele>
        <time>2020-07-19T09:49:53Z</time>
      </trkpt>
      <trkpt lat="47.37086" lon="-1.03903">
        <ele>52.968</ele>
        <time>2020-07-19T09:49:54Z</time>
      </trkpt>
      <trkpt lat="47.37088" lon="-1.03905">
        <ele>52.675</ele>
        <time>2020-07-19T09:49:55Z</time>
      </trkpt>
      <trkpt lat="47.37089" lon="-1.03908">
        <ele>52.969</ele>
        <time>2020-07-19T09:49:56Z</time>
      </trkpt>
      <trkpt lat="47.3709" lon="-1.0391">
        <ele>53.414</ele>
        <time>2020-07-19T09:49:57Z</time>
      </trkpt>
      <trkpt lat="47.37091" lon="-1.03912">
        <ele>53.903</ele>
        <time>2020-07-19T09:49:58Z</time>
      </trkpt>
      <trkpt lat="47.37092" lon="-1.03915">
        <ele>54.449</ele>
        <time>2020-07-19T09:49:59Z</time>
      </trkpt>
      <trkpt lat="47.37093" lon="-1.03917">
        <ele>54.51</ele>
        <time>2020-07-19T09:50:00Z</time>
      </trkpt>
      <trkpt lat="47.37094" lon="-1.03919">
        <ele>55.49</ele>
        <time>2020-07-19T09:50:01Z</time>
      </trkpt>
      <trkpt lat="47.37096" lon="-1.0392">
        <ele>55.682</ele>
        <time>2020-07-19T09:50:02Z</time>
      </trkpt>
      <trkpt lat="47.37099" lon="-1.0392">
        <ele>56.115</ele>
        <time>2020-07-19T09:50:03Z</time>
      </trkpt>
      <trkpt lat="47.37101" lon="-1.03919">
        <ele>57.297</ele>
        <time>2020-07-19T09:50:04Z</time>
      </trkpt>
      <trkpt lat="47.37104" lon="-1.03919">
        <ele>58.845</ele>
        <time>2020-07-19T09:50:05Z</time>
      </trkpt>
      <trkpt lat="47.37107" lon="-1.03919">
        <ele>57.872</ele>
        <time>2020-07-19T09:50:06Z</time>
      </trkpt>
      <trkpt lat="47.37109" lon="-1.03919">
        <ele>58.426</ele>
        <time>2020-07-19T09:50:07Z</time>
      </trkpt>
      <trkpt lat="47.37111" lon="-1.03919">
        <ele>59.303</ele>
        <time>2020-07-19T09:50:08Z</time>
      </trkpt>
      <trkpt lat="47.37112" lon="-1.03919">
        <ele>58.934</ele>
        <time>2020-07-19T09:50:09Z</time>
      </trkpt>
      <trkpt lat="47.37114" lon="-1.03918">
        <ele>59.332</ele>
        <time>2020-07-19T09:50:10Z</time>
      </trkpt>
      <trkpt lat="47.37114" lon="-1.03918">
        <ele>61.201</ele>
        <time>2020-07-19T09:50:11Z</time>
      </trkpt>
      <trkpt lat="47.37115" lon="-1.03918">
        <ele>59.121</ele>
        <time>2020-07-19T09:50:12Z</time>
      </trkpt>
      <trkpt lat="47.37117" lon="-1.03918">
        <ele>58.486</ele>
        <time>2020-07-19T09:50:13Z</time>
      </trkpt>
      <trkpt lat="47.37119" lon="-1.03917">
        <ele>57.952</ele>
        <time>2020-07-19T09:50:14Z</time>
      </trkpt>
      <trkpt lat="47.37121" lon="-1.03916">
        <ele>58.003</ele>
        <time>2020-07-19T09:50:15Z</time>
      </trkpt>
      <trkpt lat="47.37123" lon="-1.03915">
        <ele>59.365</ele>
        <time>2020-07-19T09:50:16Z</time>
      </trkpt>
      <trkpt lat="47.37126" lon="-1.03914">
        <ele>58.882</ele>
        <time>2020-07-19T09:50:17Z</time>
      </trkpt>
      <trkpt lat="47.37129" lon="-1.03913">
        <ele>59.04</ele>
        <time>2020-07-19T09:50:18Z</time>
      </trkpt>
      <trkpt lat="47.37132" lon="-1.03912">
        <ele>58.701</ele>
        <time>2020-07-19T09:50:19Z</time>
      </trkpt>
      <trkpt lat="47.37136" lon="-1.0391">
        <ele>58.049</ele>
        <time>2020-07-19T09:50:20Z</time>
      </trkpt>
      <trkpt lat="47.37139" lon="-1.03908">
        <ele>58.508</ele>
        <time>2020-07-19T09:50:21Z</time>
      </trkpt>
      <trkpt lat="47.37143" lon="-1.03906">
        <ele>58.937</ele>
        <time>2020-07-19T09:50:22Z</time>
      </trkpt>
      <trkpt lat="47.37146" lon="-1.03903">
        <ele>57.854</ele>
        <time>2020-07-19T09:50:23Z</time>
      </trkpt>
      <trkpt lat="47.37149" lon="-1.039">
        <ele>57.895</ele>
        <time>2020-07-19T09:50:24Z</time>
      </trkpt>
      <trkpt lat="47.37152" lon="-1.03898">
        <ele>58.81</ele>
        <time>2020-07-19T09:50:25Z</time>
      </trkpt>
      <trkpt lat="47.37155" lon="-1.03895">
        <ele>59.428</ele>
        <time>2020-07-19T09:50:26Z</time>
      </trkpt>
      <trkpt lat="47.37157" lon="-1.03891">
        <ele>58.451</ele>
        <time>2020-07-19T09:50:27Z</time>
      </trkpt>
      <trkpt lat="47.37159" lon="-1.03888">
        <ele>59.121</ele>
        <time>2020-07-19T09:50:28Z</time>
      </trkpt>
      <trkpt lat="47.37162" lon="-1.03884">
        <ele>58.48</ele>
        <time>2020-07-19T09:50:29Z</time>
      </trkpt>
      <trkpt lat="47.37164" lon="-1.03882">
        <ele>58.585</ele>
        <time>2020-07-19T09:50:30Z</time>
      </trkpt>
      <trkpt lat="47.37166" lon="-1.0388">
        <ele>58.64</ele>
        <time>2020-07-19T09:50:31Z</time>
      </trkpt>
      <trkpt lat="47.37169" lon="-1.03877">
        <ele>57.852</ele>
        <time>2020-07-19T09:50:32Z</time>
      </trkpt>
      <trkpt lat="47.37171" lon="-1.03874">
        <ele>58.299</ele>
        <time>2020-07-19T09:50:33Z</time>
      </trkpt>
      <trkpt lat="47.37173" lon="-1.0387">
        <ele>58.203</ele>
        <time>2020-07-19T09:50:34Z</time>
      </trkpt>
      <trkpt lat="47.37175" lon="-1.03867">
        <ele>58.573</ele>
        <time>2020-07-19T09:50:35Z</time>
      </trkpt>
      <trkpt lat="47.37178" lon="-1.03864">
        <ele>58.776</ele>
        <time>2020-07-19T09:50:36Z</time>
      </trkpt>
      <trkpt lat="47.37181" lon="-1.03862">
        <ele>58.797</ele>
        <time>2020-07-19T09:50:37Z</time>
      </trkpt>
      <trkpt lat="47.37183" lon="-1.03859">
        <ele>58.535</ele>
        <time>2020-07-19T09:50:38Z</time>
      </trkpt>
      <trkpt lat="47.37186" lon="-1.03856">
        <ele>58.724</ele>
        <time>2020-07-19T09:50:39Z</time>
      </trkpt>
      <trkpt lat="47.37189" lon="-1.03853">
        <ele>58.493</ele>
        <time>2020-07-19T09:50:40Z</time>
      </trkpt>
      <trkpt lat="47.37191" lon="-1.0385">
        <ele>58.281</ele>
        <time>2020-07-19T09:50:41Z</time>
      </trkpt>
      <trkpt lat="47.37194" lon="-1.03847">
        <ele>57.928</ele>
        <time>2020-07-19T09:50:42Z</time>
      </trkpt>
      <trkpt lat="47.37197" lon="-1.03844">
        <ele>58.114</ele>
        <time>2020-07-19T09:50:43Z</time>
      </trkpt>
      <trkpt lat="47.372" lon="-1.03842">
        <ele>57.656</ele>
        <time>2020-07-19T09:50:44Z</time>
      </trkpt>
      <trkpt lat="47.37203" lon="-1.03839">
        <ele>57.974</ele>
        <time>2020-07-19T09:50:45Z</time>
      </trkpt>
      <trkpt lat="47.37205" lon="-1.03837">
        <ele>58.254</ele>
        <time>2020-07-19T09:50:46Z</time>
      </trkpt>
      <trkpt lat="47.37208" lon="-1.03835">
        <ele>58.696</ele>
        <time>2020-07-19T09:50:47Z</time>
      </trkpt>
      <trkpt lat="47.3721" lon="-1.03833">
        <ele>59.386</ele>
        <time>2020-07-19T09:50:48Z</time>
      </trkpt>
      <trkpt lat="47.37213" lon="-1.03833">
        <ele>59.343</ele>
        <time>2020-07-19T09:50:49Z</time>
      </trkpt>
      <trkpt lat="47.37214" lon="-1.03834">
        <ele>59.59</ele>
        <time>2020-07-19T09:50:50Z</time>
      </trkpt>
      <trkpt lat="47.37214" lon="-1.03834">
        <ele>59.949</ele>
        <time>2020-07-19T09:50:51Z</time>
      </trkpt>
      <trkpt lat="47.37214" lon="-1.03835">
        <ele>59.424</ele>
        <time>2020-07-19T09:50:52Z</time>
      </trkpt>
      <trkpt lat="47.37214" lon="-1.03835">
        <ele>59.85</ele>
        <time>2020-07-19T09:50:53Z</time>
      </trkpt>
      <trkpt lat="47.37215" lon="-1.03835">
        <ele>60.101</ele>
        <time>2020-07-19T09:50:54Z</time>
      </trkpt>
      <trkpt lat="47.37215" lon="-1.03835">
        <ele>59.561</ele>
        <time>2020-07-19T09:50:55Z</time>
      </trkpt>
      <trkpt lat="47.37215" lon="-1.03836">
        <ele>59.75</ele>
        <time>2020-07-19T09:50:56Z</time>
      </trkpt>
      <trkpt lat="47.37215" lon="-1.03836">
        <ele>60.183</ele>
        <time>2020-07-19T09:50:57Z</time>
      </trkpt>
      <trkpt lat="47.37215" lon="-1.03836">
        <ele>60.085</ele>
        <time>2020-07-19T09:50:58Z</time>
      </trkpt>
      <trkpt lat="47.37215" lon="-1.03836">
        <ele>60.148</ele>
        <time>2020-07-19T09:50:59Z</time>
      </trkpt>
      <trkpt lat="47.37215" lon="-1.03836">
        <ele>60.229</ele>
        <time>2020-07-19T09:51:00Z</time>
      </trkpt>
      <trkpt lat="47.37217" lon="-1.03835">
        <ele>58.963</ele>
        <time>2020-07-19T09:51:01Z</time>
      </trkpt>
      <trkpt lat="47.37218" lon="-1.03835">
        <ele>57.531</ele>
        <time>2020-07-19T09:51:02Z</time>
      </trkpt>
      <trkpt lat="47.3722" lon="-1.03834">
        <ele>57.586</ele>
        <time>2020-07-19T09:51:03Z</time>
      </trkpt>
      <trkpt lat="47.3722" lon="-1.03835">
        <ele>59.703</ele>
        <time>2020-07-19T09:51:06Z</time>
      </trkpt>
      <trkpt lat="47.3722" lon="-1.03834">
        <ele>59.323</ele>
        <time>2020-07-19T09:51:07Z</time>
      </trkpt>
      <trkpt lat="47.37219" lon="-1.03834">
        <ele>58.735</ele>
        <time>2020-07-19T09:51:08Z</time>
      </trkpt>
      <trkpt lat="47.37219" lon="-1.03834">
        <ele>59.013</ele>
        <time>2020-07-19T09:51:09Z</time>
      </trkpt>
      <trkpt lat="47.37219" lon="-1.03834">
        <ele>58.948</ele>
        <time>2020-07-19T09:51:10Z</time>
      </trkpt>
      <trkpt lat="47.37219" lon="-1.03834">
        <ele>58.6</ele>
        <time>2020-07-19T09:51:11Z</time>
      </trkpt>
      <trkpt lat="47.3722" lon="-1.03834">
        <ele>58.402</ele>
        <time>2020-07-19T09:51:12Z</time>
      </trkpt>
      <trkpt lat="47.3722" lon="-1.03834">
        <ele>58.367</ele>
        <time>2020-07-19T09:51:13Z</time>
      </trkpt>
      <trkpt lat="47.3722" lon="-1.03833">
        <ele>57.678</ele>
        <time>2020-07-19T09:51:14Z</time>
      </trkpt>
      <trkpt lat="47.3722" lon="-1.03833">
        <ele>57.655</ele>
        <time>2020-07-19T09:51:15Z</time>
      </trkpt>
      <trkpt lat="47.3722" lon="-1.03833">
        <ele>57.866</ele>
        <time>2020-07-19T09:51:16Z</time>
      </trkpt>
      <trkpt lat="47.3722" lon="-1.03833">
        <ele>57.973</ele>
        <time>2020-07-19T09:51:17Z</time>
      </trkpt>
      <trkpt lat="47.3722" lon="-1.03833">
        <ele>58.056</ele>
        <time>2020-07-19T09:51:18Z</time>
      </trkpt>
      <trkpt lat="47.3722" lon="-1.03833">
        <ele>58.039</ele>
        <time>2020-07-19T09:51:19Z</time>
      </trkpt>
      <trkpt lat="47.3722" lon="-1.03833">
        <ele>58.081</ele>
        <time>2020-07-19T09:51:20Z</time>
      </trkpt>
      <trkpt lat="47.37219" lon="-1.03833">
        <ele>58.913</ele>
        <time>2020-07-19T09:51:22Z</time>
      </trkpt>
      <trkpt lat="47.37218" lon="-1.03833">
        <ele>59.7</ele>
        <time>2020-07-19T09:51:23Z</time>
      </trkpt>
      <trkpt lat="47.37216" lon="-1.03833">
        <ele>60.523</ele>
        <time>2020-07-19T09:51:24Z</time>
      </trkpt>
      <trkpt lat="47.37214" lon="-1.03834">
        <ele>60.818</ele>
        <time>2020-07-19T09:51:25Z</time>
      </trkpt>
      <trkpt lat="47.37212" lon="-1.03835">
        <ele>61.715</ele>
        <time>2020-07-19T09:51:26Z</time>
      </trkpt>
      <trkpt lat="47.37209" lon="-1.03836">
        <ele>62.138</ele>
        <time>2020-07-19T09:51:27Z</time>
      </trkpt>
      <trkpt lat="47.37207" lon="-1.03837">
        <ele>63.899</ele>
        <time>2020-07-19T09:51:28Z</time>
      </trkpt>
      <trkpt lat="47.37205" lon="-1.03839">
        <ele>61.87</ele>
        <time>2020-07-19T09:51:29Z</time>
      </trkpt>
      <trkpt lat="47.37203" lon="-1.0384">
        <ele>61.425</ele>
        <time>2020-07-19T09:51:30Z</time>
      </trkpt>
      <trkpt lat="47.372" lon="-1.03843">
        <ele>60.687</ele>
        <time>2020-07-19T09:51:31Z</time>
      </trkpt>
      <trkpt lat="47.37198" lon="-1.03846">
        <ele>60.767</ele>
        <time>2020-07-19T09:51:32Z</time>
      </trkpt>
      <trkpt lat="47.37195" lon="-1.03849">
        <ele>61.051</ele>
        <time>2020-07-19T09:51:33Z</time>
      </trkpt>
      <trkpt lat="47.37193" lon="-1.03852">
        <ele>60.576</ele>
        <time>2020-07-19T09:51:34Z</time>
      </trkpt>
      <trkpt lat="47.3719" lon="-1.03855">
        <ele>60.361</ele>
        <time>2020-07-19T09:51:35Z</time>
      </trkpt>
      <trkpt lat="47.37187" lon="-1.03858">
        <ele>60.336</ele>
        <time>2020-07-19T09:51:36Z</time>
      </trkpt>
      <trkpt lat="47.37185" lon="-1.03861">
        <ele>59.762</ele>
        <time>2020-07-19T09:51:37Z</time>
      </trkpt>
      <trkpt lat="47.37182" lon="-1.03865">
        <ele>59.983</ele>
        <time>2020-07-19T09:51:38Z</time>
      </trkpt>
      <trkpt lat="47.3718" lon="-1.03868">
        <ele>59.668</ele>
        <time>2020-07-19T09:51:39Z</time>
      </trkpt>
      <trkpt lat="47.37177" lon="-1.03871">
        <ele>59.969</ele>
        <time>2020-07-19T09:51:40Z</time>
      </trkpt>
      <trkpt lat="47.37174" lon="-1.03874">
        <ele>60.244</ele>
        <time>2020-07-19T09:51:41Z</time>
      </trkpt>
      <trkpt lat="47.37172" lon="-1.03877">
        <ele>60.382</ele>
        <time>2020-07-19T09:51:42Z</time>
      </trkpt>
      <trkpt lat="47.3717" lon="-1.03881">
        <ele>60.018</ele>
        <time>2020-07-19T09:51:43Z</time>
      </trkpt>
      <trkpt lat="47.37168" lon="-1.03884">
        <ele>59.462</ele>
        <time>2020-07-19T09:51:44Z</time>
      </trkpt>
      <trkpt lat="47.37165" lon="-1.03888">
        <ele>59.933</ele>
        <time>2020-07-19T09:51:45Z</time>
      </trkpt>
      <trkpt lat="47.37162" lon="-1.03891">
        <ele>59.752</ele>
        <time>2020-07-19T09:51:46Z</time>
      </trkpt>
      <trkpt lat="47.3716" lon="-1.03894">
        <ele>59.821</ele>
        <time>2020-07-19T09:51:47Z</time>
      </trkpt>
      <trkpt lat="47.37157" lon="-1.03897">
        <ele>60.395</ele>
        <time>2020-07-19T09:51:48Z</time>
      </trkpt>
      <trkpt lat="47.37154" lon="-1.03901">
        <ele>60.168</ele>
        <time>2020-07-19T09:51:49Z</time>
      </trkpt>
      <trkpt lat="47.37151" lon="-1.03904">
        <ele>60.291</ele>
        <time>2020-07-19T09:51:50Z</time>
      </trkpt>
      <trkpt lat="47.37148" lon="-1.03908">
        <ele>60.37</ele>
        <time>2020-07-19T09:51:51Z</time>
      </trkpt>
      <trkpt lat="47.37145" lon="-1.03911">
        <ele>60.323</ele>
        <time>2020-07-19T09:51:52Z</time>
      </trkpt>
      <trkpt lat="47.37142" lon="-1.03913">
        <ele>60.319</ele>
        <time>2020-07-19T09:51:53Z</time>
      </trkpt>
      <trkpt lat="47.3714" lon="-1.03916">
        <ele>59.933</ele>
        <time>2020-07-19T09:51:54Z</time>
      </trkpt>
      <trkpt lat="47.37138" lon="-1.03918">
        <ele>59.671</ele>
        <time>2020-07-19T09:51:55Z</time>
      </trkpt>
      <trkpt lat="47.37135" lon="-1.03919">
        <ele>59.117</ele>
        <time>2020-07-19T09:51:56Z</time>
      </trkpt>
      <trkpt lat="47.37134" lon="-1.0392">
        <ele>58.743</ele>
        <time>2020-07-19T09:51:57Z</time>
      </trkpt>
      <trkpt lat="47.37132" lon="-1.03921">
        <ele>58.727</ele>
        <time>2020-07-19T09:51:58Z</time>
      </trkpt>
      <trkpt lat="47.3713" lon="-1.03922">
        <ele>58.826</ele>
        <time>2020-07-19T09:51:59Z</time>
      </trkpt>
      <trkpt lat="47.37129" lon="-1.03922">
        <ele>58.642</ele>
        <time>2020-07-19T09:52:00Z</time>
      </trkpt>
      <trkpt lat="47.37129" lon="-1.03922">
        <ele>58.386</ele>
        <time>2020-07-19T09:52:01Z</time>
      </trkpt>
      <trkpt lat="47.37129" lon="-1.03921">
        <ele>58.688</ele>
        <time>2020-07-19T09:52:02Z</time>
      </trkpt>
      <trkpt lat="47.3713" lon="-1.03921">
        <ele>59.094</ele>
        <time>2020-07-19T09:52:03Z</time>
      </trkpt>
      <trkpt lat="47.3713" lon="-1.0392">
        <ele>59.509</ele>
        <time>2020-07-19T09:52:04Z</time>
      </trkpt>
      <trkpt lat="47.3713" lon="-1.0392">
        <ele>59.538</ele>
        <time>2020-07-19T09:52:05Z</time>
      </trkpt>
      <trkpt lat="47.3713" lon="-1.0392">
        <ele>59.435</ele>
        <time>2020-07-19T09:52:06Z</time>
      </trkpt>
      <trkpt lat="47.3713" lon="-1.0392">
        <ele>59.871</ele>
        <time>2020-07-19T09:52:07Z</time>
      </trkpt>
      <trkpt lat="47.3713" lon="-1.03921">
        <ele>59.594</ele>
        <time>2020-07-19T09:52:08Z</time>
      </trkpt>
      <trkpt lat="47.3713" lon="-1.03921">
        <ele>59.326</ele>
        <time>2020-07-19T09:52:09Z</time>
      </trkpt>
      <trkpt lat="47.3713" lon="-1.03921">
        <ele>59.281</ele>
        <time>2020-07-19T09:52:10Z</time>
      </trkpt>
      <trkpt lat="47.3713" lon="-1.03921">
        <ele>59.492</ele>
        <time>2020-07-19T09:52:11Z</time>
      </trkpt>
      <trkpt lat="47.3713" lon="-1.03921">
        <ele>59.375</ele>
        <time>2020-07-19T09:52:12Z</time>
      </trkpt>
      <trkpt lat="47.3713" lon="-1.03921">
        <ele>59.418</ele>
        <time>2020-07-19T09:52:13Z</time>
      </trkpt>
      <trkpt lat="47.37128" lon="-1.03921">
        <ele>59.286</ele>
        <time>2020-07-19T09:52:14Z</time>
      </trkpt>
      <trkpt lat="47.37127" lon="-1.03922">
        <ele>58.734</ele>
        <time>2020-07-19T09:52:15Z</time>
      </trkpt>
      <trkpt lat="47.37125" lon="-1.03922">
        <ele>59.644</ele>
        <time>2020-07-19T09:52:16Z</time>
      </trkpt>
      <trkpt lat="47.37123" lon="-1.03923">
        <ele>60.563</ele>
        <time>2020-07-19T09:52:17Z</time>
      </trkpt>
      <trkpt lat="47.37121" lon="-1.03924">
        <ele>61.154</ele>
        <time>2020-07-19T09:52:18Z</time>
      </trkpt>
      <trkpt lat="47.37118" lon="-1.03925">
        <ele>60.726</ele>
        <time>2020-07-19T09:52:19Z</time>
      </trkpt>
      <trkpt lat="47.37115" lon="-1.03927">
        <ele>60.944</ele>
        <time>2020-07-19T09:52:20Z</time>
      </trkpt>
      <trkpt lat="47.37112" lon="-1.03928">
        <ele>60.776</ele>
        <time>2020-07-19T09:52:21Z</time>
      </trkpt>
      <trkpt lat="47.3711" lon="-1.03928">
        <ele>59.972</ele>
        <time>2020-07-19T09:52:22Z</time>
      </trkpt>
      <trkpt lat="47.37108" lon="-1.03929">
        <ele>59.5</ele>
        <time>2020-07-19T09:52:23Z</time>
      </trkpt>
      <trkpt lat="47.37106" lon="-1.0393">
        <ele>58.562</ele>
        <time>2020-07-19T09:52:24Z</time>
      </trkpt>
      <trkpt lat="47.37105" lon="-1.0393">
        <ele>58.137</ele>
        <time>2020-07-19T09:52:25Z</time>
      </trkpt>
      <trkpt lat="47.37103" lon="-1.0393">
        <ele>57.29</ele>
        <time>2020-07-19T09:52:26Z</time>
      </trkpt>
      <trkpt lat="47.37101" lon="-1.0393">
        <ele>56.813</ele>
        <time>2020-07-19T09:52:27Z</time>
      </trkpt>
      <trkpt lat="47.37098" lon="-1.03929">
        <ele>56.505</ele>
        <time>2020-07-19T09:52:28Z</time>
      </trkpt>
      <trkpt lat="47.37097" lon="-1.03928">
        <ele>56.066</ele>
        <time>2020-07-19T09:52:29Z</time>
      </trkpt>
      <trkpt lat="47.37095" lon="-1.03927">
        <ele>56.064</ele>
        <time>2020-07-19T09:52:30Z</time>
      </trkpt>
      <trkpt lat="47.37094" lon="-1.03927">
        <ele>56.322</ele>
        <time>2020-07-19T09:52:31Z</time>
      </trkpt>
      <trkpt lat="47.37092" lon="-1.03927">
        <ele>55.875</ele>
        <time>2020-07-19T09:52:32Z</time>
      </trkpt>
      <trkpt lat="47.37091" lon="-1.03928">
        <ele>55.519</ele>
        <time>2020-07-19T09:52:33Z</time>
      </trkpt>
      <trkpt lat="47.3709" lon="-1.0393">
        <ele>55.265</ele>
        <time>2020-07-19T09:52:34Z</time>
      </trkpt>
      <trkpt lat="47.3709" lon="-1.03933">
        <ele>55.577</ele>
        <time>2020-07-19T09:52:35Z</time>
      </trkpt>
      <trkpt lat="47.3709" lon="-1.03935">
        <ele>55.479</ele>
        <time>2020-07-19T09:52:36Z</time>
      </trkpt>
      <trkpt lat="47.37091" lon="-1.03939">
        <ele>55.047</ele>
        <time>2020-07-19T09:52:37Z</time>
      </trkpt>
      <trkpt lat="47.37092" lon="-1.03942">
        <ele>54.297</ele>
        <time>2020-07-19T09:52:38Z</time>
      </trkpt>
      <trkpt lat="47.37093" lon="-1.03945">
        <ele>54.831</ele>
        <time>2020-07-19T09:52:39Z</time>
      </trkpt>
      <trkpt lat="47.37094" lon="-1.03947">
        <ele>54.76</ele>
        <time>2020-07-19T09:52:40Z</time>
      </trkpt>
      <trkpt lat="47.37094" lon="-1.0395">
        <ele>55.137</ele>
        <time>2020-07-19T09:52:41Z</time>
      </trkpt>
      <trkpt lat="47.37095" lon="-1.03953">
        <ele>55.346</ele>
        <time>2020-07-19T09:52:42Z</time>
      </trkpt>
      <trkpt lat="47.37096" lon="-1.03955">
        <ele>54.194</ele>
        <time>2020-07-19T09:52:43Z</time>
      </trkpt>
      <trkpt lat="47.37096" lon="-1.03958">
        <ele>52.719</ele>
        <time>2020-07-19T09:52:44Z</time>
      </trkpt>
      <trkpt lat="47.37097" lon="-1.03961">
        <ele>53.087</ele>
        <time>2020-07-19T09:52:45Z</time>
      </trkpt>
      <trkpt lat="47.37097" lon="-1.03964">
        <ele>52.955</ele>
        <time>2020-07-19T09:52:46Z</time>
      </trkpt>
      <trkpt lat="47.37097" lon="-1.03967">
        <ele>53.57</ele>
        <time>2020-07-19T09:52:47Z</time>
      </trkpt>
      <trkpt lat="47.37098" lon="-1.03971">
        <ele>54.592</ele>
        <time>2020-07-19T09:52:48Z</time>
      </trkpt>
      <trkpt lat="47.37098" lon="-1.03974">
        <ele>54.846</ele>
        <time>2020-07-19T09:52:49Z</time>
      </trkpt>
      <trkpt lat="47.37099" lon="-1.03978">
        <ele>55.156</ele>
        <time>2020-07-19T09:52:50Z</time>
      </trkpt>
      <trkpt lat="47.37099" lon="-1.03982">
        <ele>54.742</ele>
        <time>2020-07-19T09:52:51Z</time>
      </trkpt>
      <trkpt lat="47.37099" lon="-1.03986">
        <ele>54.677</ele>
        <time>2020-07-19T09:52:52Z</time>
      </trkpt>
      <trkpt lat="47.37099" lon="-1.03989">
        <ele>55.085</ele>
        <time>2020-07-19T09:52:53Z</time>
      </trkpt>
      <trkpt lat="47.371" lon="-1.03993">
        <ele>56.554</ele>
        <time>2020-07-19T09:52:54Z</time>
      </trkpt>
      <trkpt lat="47.371" lon="-1.03997">
        <ele>55.739</ele>
        <time>2020-07-19T09:52:55Z</time>
      </trkpt>
      <trkpt lat="47.37101" lon="-1.04">
        <ele>56.872</ele>
        <time>2020-07-19T09:52:56Z</time>
      </trkpt>
      <trkpt lat="47.37102" lon="-1.04004">
        <ele>57.497</ele>
        <time>2020-07-19T09:52:57Z</time>
      </trkpt>
      <trkpt lat="47.37102" lon="-1.04008">
        <ele>56.88</ele>
        <time>2020-07-19T09:52:58Z</time>
      </trkpt>
      <trkpt lat="47.37102" lon="-1.04012">
        <ele>56.78</ele>
        <time>2020-07-19T09:52:59Z</time>
      </trkpt>
      <trkpt lat="47.37102" lon="-1.04017">
        <ele>57.681</ele>
        <time>2020-07-19T09:53:00Z</time>
      </trkpt>
      <trkpt lat="47.37103" lon="-1.0402">
        <ele>57.832</ele>
        <time>2020-07-19T09:53:01Z</time>
      </trkpt>
      <trkpt lat="47.37103" lon="-1.04024">
        <ele>58.941</ele>
        <time>2020-07-19T09:53:02Z</time>
      </trkpt>
      <trkpt lat="47.37105" lon="-1.04026">
        <ele>57.867</ele>
        <time>2020-07-19T09:53:03Z</time>
      </trkpt>
      <trkpt lat="47.37106" lon="-1.04027">
        <ele>57.742</ele>
        <time>2020-07-19T09:53:04Z</time>
      </trkpt>
      <trkpt lat="47.37108" lon="-1.04029">
        <ele>57.115</ele>
        <time>2020-07-19T09:53:05Z</time>
      </trkpt>
      <trkpt lat="47.3711" lon="-1.04031">
        <ele>57.474</ele>
        <time>2020-07-19T09:53:06Z</time>
      </trkpt>
      <trkpt lat="47.3711" lon="-1.04033">
        <ele>56.844</ele>
        <time>2020-07-19T09:53:07Z</time>
      </trkpt>
      <trkpt lat="47.37111" lon="-1.04036">
        <ele>57.127</ele>
        <time>2020-07-19T09:53:08Z</time>
      </trkpt>
      <trkpt lat="47.37112" lon="-1.0404">
        <ele>57.069</ele>
        <time>2020-07-19T09:53:09Z</time>
      </trkpt>
      <trkpt lat="47.37113" lon="-1.04044">
        <ele>57.159</ele>
        <time>2020-07-19T09:53:10Z</time>
      </trkpt>
      <trkpt lat="47.37113" lon="-1.04047">
        <ele>57.717</ele>
        <time>2020-07-19T09:53:11Z</time>
      </trkpt>
      <trkpt lat="47.37114" lon="-1.04052">
        <ele>58.369</ele>
        <time>2020-07-19T09:53:12Z</time>
      </trkpt>
      <trkpt lat="47.37113" lon="-1.04057">
        <ele>58.24</ele>
        <time>2020-07-19T09:53:13Z</time>
      </trkpt>
      <trkpt lat="47.37113" lon="-1.04061">
        <ele>58.619</ele>
        <time>2020-07-19T09:53:14Z</time>
      </trkpt>
      <trkpt lat="47.37112" lon="-1.04066">
        <ele>59.674</ele>
        <time>2020-07-19T09:53:15Z</time>
      </trkpt>
      <trkpt lat="47.37113" lon="-1.0407">
        <ele>59.438</ele>
        <time>2020-07-19T09:53:16Z</time>
      </trkpt>
      <trkpt lat="47.37113" lon="-1.04074">
        <ele>59.607</ele>
        <time>2020-07-19T09:53:17Z</time>
      </trkpt>
      <trkpt lat="47.37114" lon="-1.04078">
        <ele>59.736</ele>
        <time>2020-07-19T09:53:18Z</time>
      </trkpt>
      <trkpt lat="47.37115" lon="-1.04083">
        <ele>59.148</ele>
        <time>2020-07-19T09:53:19Z</time>
      </trkpt>
      <trkpt lat="47.37115" lon="-1.04087">
        <ele>59.298</ele>
        <time>2020-07-19T09:53:20Z</time>
      </trkpt>
      <trkpt lat="47.37115" lon="-1.04092">
        <ele>59.563</ele>
        <time>2020-07-19T09:53:21Z</time>
      </trkpt>
      <trkpt lat="47.37115" lon="-1.04097">
        <ele>59.824</ele>
        <time>2020-07-19T09:53:22Z</time>
      </trkpt>
      <trkpt lat="47.37115" lon="-1.04102">
        <ele>59.387</ele>
        <time>2020-07-19T09:53:23Z</time>
      </trkpt>
      <trkpt lat="47.37116" lon="-1.04107">
        <ele>56.368</ele>
        <time>2020-07-19T09:53:24Z</time>
      </trkpt>
      <trkpt lat="47.37116" lon="-1.04111">
        <ele>56.463</ele>
        <time>2020-07-19T09:53:25Z</time>
      </trkpt>
      <trkpt lat="47.37117" lon="-1.04116">
        <ele>56.661</ele>
        <time>2020-07-19T09:53:26Z</time>
      </trkpt>
      <trkpt lat="47.37117" lon="-1.0412">
        <ele>57.575</ele>
        <time>2020-07-19T09:53:27Z</time>
      </trkpt>
      <trkpt lat="47.37118" lon="-1.04123">
        <ele>59.379</ele>
        <time>2020-07-19T09:53:28Z</time>
      </trkpt>
      <trkpt lat="47.37118" lon="-1.04127">
        <ele>60.087</ele>
        <time>2020-07-19T09:53:29Z</time>
      </trkpt>
      <trkpt lat="47.37118" lon="-1.04131">
        <ele>59.942</ele>
        <time>2020-07-19T09:53:30Z</time>
      </trkpt>
      <trkpt lat="47.37118" lon="-1.04135">
        <ele>59.905</ele>
        <time>2020-07-19T09:53:31Z</time>
      </trkpt>
      <trkpt lat="47.37119" lon="-1.04138">
        <ele>59.87</ele>
        <time>2020-07-19T09:53:32Z</time>
      </trkpt>
      <trkpt lat="47.37119" lon="-1.04142">
        <ele>60.455</ele>
        <time>2020-07-19T09:53:33Z</time>
      </trkpt>
      <trkpt lat="47.37119" lon="-1.04147">
        <ele>59.608</ele>
        <time>2020-07-19T09:53:34Z</time>
      </trkpt>
      <trkpt lat="47.37119" lon="-1.04152">
        <ele>60.123</ele>
        <time>2020-07-19T09:53:35Z</time>
      </trkpt>
      <trkpt lat="47.37118" lon="-1.04157">
        <ele>58.978</ele>
        <time>2020-07-19T09:53:36Z</time>
      </trkpt>
      <trkpt lat="47.37118" lon="-1.04163">
        <ele>58.136</ele>
        <time>2020-07-19T09:53:37Z</time>
      </trkpt>
      <trkpt lat="47.37118" lon="-1.04167">
        <ele>57.718</ele>
        <time>2020-07-19T09:53:38Z</time>
      </trkpt>
      <trkpt lat="47.37118" lon="-1.04172">
        <ele>57.411</ele>
        <time>2020-07-19T09:53:39Z</time>
      </trkpt>
      <trkpt lat="47.37119" lon="-1.04177">
        <ele>57.076</ele>
        <time>2020-07-19T09:53:40Z</time>
      </trkpt>
      <trkpt lat="47.3712" lon="-1.04181">
        <ele>56.399</ele>
        <time>2020-07-19T09:53:41Z</time>
      </trkpt>
      <trkpt lat="47.3712" lon="-1.04186">
        <ele>56.503</ele>
        <time>2020-07-19T09:53:42Z</time>
      </trkpt>
      <trkpt lat="47.3712" lon="-1.0419">
        <ele>56.783</ele>
        <time>2020-07-19T09:53:43Z</time>
      </trkpt>
      <trkpt lat="47.37119" lon="-1.04195">
        <ele>54.736</ele>
        <time>2020-07-19T09:53:44Z</time>
      </trkpt>
      <trkpt lat="47.37119" lon="-1.04199">
        <ele>55.359</ele>
        <time>2020-07-19T09:53:45Z</time>
      </trkpt>
      <trkpt lat="47.37118" lon="-1.04204">
        <ele>55.144</ele>
        <time>2020-07-19T09:53:46Z</time>
      </trkpt>
      <trkpt lat="47.37118" lon="-1.04209">
        <ele>56.05</ele>
        <time>2020-07-19T09:53:47Z</time>
      </trkpt>
      <trkpt lat="47.37118" lon="-1.04214">
        <ele>55.246</ele>
        <time>2020-07-19T09:53:48Z</time>
      </trkpt>
      <trkpt lat="47.37119" lon="-1.04219">
        <ele>54.89</ele>
        <time>2020-07-19T09:53:49Z</time>
      </trkpt>
      <trkpt lat="47.37119" lon="-1.04224">
        <ele>55.544</ele>
        <time>2020-07-19T09:53:50Z</time>
      </trkpt>
      <trkpt lat="47.37119" lon="-1.04228">
        <ele>55.532</ele>
        <time>2020-07-19T09:53:51Z</time>
      </trkpt>
      <trkpt lat="47.37119" lon="-1.04232">
        <ele>54.354</ele>
        <time>2020-07-19T09:53:52Z</time>
      </trkpt>
      <trkpt lat="47.37119" lon="-1.04236">
        <ele>54.505</ele>
        <time>2020-07-19T09:53:53Z</time>
      </trkpt>
      <trkpt lat="47.37119" lon="-1.04241">
        <ele>58.304</ele>
        <time>2020-07-19T09:53:54Z</time>
      </trkpt>
      <trkpt lat="47.37119" lon="-1.04246">
        <ele>58.636</ele>
        <time>2020-07-19T09:53:55Z</time>
      </trkpt>
      <trkpt lat="47.37118" lon="-1.04251">
        <ele>59.401</ele>
        <time>2020-07-19T09:53:56Z</time>
      </trkpt>
      <trkpt lat="47.37118" lon="-1.04257">
        <ele>59.094</ele>
        <time>2020-07-19T09:53:57Z</time>
      </trkpt>
      <trkpt lat="47.37117" lon="-1.04261">
        <ele>57.89</ele>
        <time>2020-07-19T09:53:58Z</time>
      </trkpt>
      <trkpt lat="47.37117" lon="-1.04265">
        <ele>57.22</ele>
        <time>2020-07-19T09:53:59Z</time>
      </trkpt>
      <trkpt lat="47.37115" lon="-1.0427">
        <ele>57.657</ele>
        <time>2020-07-19T09:54:00Z</time>
      </trkpt>
      <trkpt lat="47.37114" lon="-1.04275">
        <ele>57.49</ele>
        <time>2020-07-19T09:54:01Z</time>
      </trkpt>
      <trkpt lat="47.37114" lon="-1.04279">
        <ele>56.62</ele>
        <time>2020-07-19T09:54:02Z</time>
      </trkpt>
      <trkpt lat="47.37114" lon="-1.04283">
        <ele>57.344</ele>
        <time>2020-07-19T09:54:03Z</time>
      </trkpt>
      <trkpt lat="47.37115" lon="-1.04287">
        <ele>56.492</ele>
        <time>2020-07-19T09:54:04Z</time>
      </trkpt>
      <trkpt lat="47.37116" lon="-1.0429">
        <ele>57.856</ele>
        <time>2020-07-19T09:54:05Z</time>
      </trkpt>
      <trkpt lat="47.37117" lon="-1.04293">
        <ele>56.598</ele>
        <time>2020-07-19T09:54:06Z</time>
      </trkpt>
      <trkpt lat="47.37117" lon="-1.04297">
        <ele>56.605</ele>
        <time>2020-07-19T09:54:07Z</time>
      </trkpt>
      <trkpt lat="47.37116" lon="-1.04301">
        <ele>56.552</ele>
        <time>2020-07-19T09:54:08Z</time>
      </trkpt>
      <trkpt lat="47.37117" lon="-1.04304">
        <ele>54.973</ele>
        <time>2020-07-19T09:54:09Z</time>
      </trkpt>
      <trkpt lat="47.37117" lon="-1.04307">
        <ele>55.073</ele>
        <time>2020-07-19T09:54:10Z</time>
      </trkpt>
      <trkpt lat="47.37116" lon="-1.04311">
        <ele>54.849</ele>
        <time>2020-07-19T09:54:11Z</time>
      </trkpt>
      <trkpt lat="47.37116" lon="-1.04316">
        <ele>54.388</ele>
        <time>2020-07-19T09:54:12Z</time>
      </trkpt>
      <trkpt lat="47.37116" lon="-1.04321">
        <ele>54.674</ele>
        <time>2020-07-19T09:54:13Z</time>
      </trkpt>
      <trkpt lat="47.37115" lon="-1.04325">
        <ele>53.895</ele>
        <time>2020-07-19T09:54:14Z</time>
      </trkpt>
      <trkpt lat="47.37115" lon="-1.04329">
        <ele>53.985</ele>
        <time>2020-07-19T09:54:15Z</time>
      </trkpt>
      <trkpt lat="47.37114" lon="-1.04333">
        <ele>54.036</ele>
        <time>2020-07-19T09:54:16Z</time>
      </trkpt>
      <trkpt lat="47.37114" lon="-1.04337">
        <ele>54.632</ele>
        <time>2020-07-19T09:54:17Z</time>
      </trkpt>
      <trkpt lat="47.37114" lon="-1.0434">
        <ele>55.025</ele>
        <time>2020-07-19T09:54:18Z</time>
      </trkpt>
      <trkpt lat="47.37113" lon="-1.04345">
        <ele>55.111</ele>
        <time>2020-07-19T09:54:19Z</time>
      </trkpt>
      <trkpt lat="47.37112" lon="-1.04349">
        <ele>55.74</ele>
        <time>2020-07-19T09:54:20Z</time>
      </trkpt>
      <trkpt lat="47.37112" lon="-1.04353">
        <ele>55.102</ele>
        <time>2020-07-19T09:54:21Z</time>
      </trkpt>
      <trkpt lat="47.37112" lon="-1.04357">
        <ele>55.984</ele>
        <time>2020-07-19T09:54:22Z</time>
      </trkpt>
      <trkpt lat="47.37113" lon="-1.0436">
        <ele>55.969</ele>
        <time>2020-07-19T09:54:23Z</time>
      </trkpt>
      <trkpt lat="47.37113" lon="-1.04364">
        <ele>56.794</ele>
        <time>2020-07-19T09:54:24Z</time>
      </trkpt>
      <trkpt lat="47.37114" lon="-1.04367">
        <ele>56.297</ele>
        <time>2020-07-19T09:54:25Z</time>
      </trkpt>
      <trkpt lat="47.37114" lon="-1.0437">
        <ele>55.69</ele>
        <time>2020-07-19T09:54:26Z</time>
      </trkpt>
      <trkpt lat="47.37114" lon="-1.04374">
        <ele>55.352</ele>
        <time>2020-07-19T09:54:27Z</time>
      </trkpt>
      <trkpt lat="47.37114" lon="-1.04379">
        <ele>51.904</ele>
        <time>2020-07-19T09:54:28Z</time>
      </trkpt>
      <trkpt lat="47.37114" lon="-1.04383">
        <ele>53.111</ele>
        <time>2020-07-19T09:54:29Z</time>
      </trkpt>
      <trkpt lat="47.37114" lon="-1.04387">
        <ele>53.909</ele>
        <time>2020-07-19T09:54:30Z</time>
      </trkpt>
      <trkpt lat="47.37114" lon="-1.04392">
        <ele>54.67</ele>
        <time>2020-07-19T09:54:31Z</time>
      </trkpt>
      <trkpt lat="47.37114" lon="-1.04397">
        <ele>54.462</ele>
        <time>2020-07-19T09:54:32Z</time>
      </trkpt>
      <trkpt lat="47.37113" lon="-1.04401">
        <ele>55.198</ele>
        <time>2020-07-19T09:54:33Z</time>
      </trkpt>
      <trkpt lat="47.37113" lon="-1.04406">
        <ele>54.542</ele>
        <time>2020-07-19T09:54:34Z</time>
      </trkpt>
      <trkpt lat="47.37113" lon="-1.04411">
        <ele>56.163</ele>
        <time>2020-07-19T09:54:35Z</time>
      </trkpt>
      <trkpt lat="47.37112" lon="-1.04413">
        <ele>55.304</ele>
        <time>2020-07-19T09:54:36Z</time>
      </trkpt>
      <trkpt lat="47.37112" lon="-1.04415">
        <ele>54.815</ele>
        <time>2020-07-19T09:54:37Z</time>
      </trkpt>
      <trkpt lat="47.37112" lon="-1.04418">
        <ele>55.601</ele>
        <time>2020-07-19T09:54:38Z</time>
      </trkpt>
      <trkpt lat="47.37112" lon="-1.04422">
        <ele>55.515</ele>
        <time>2020-07-19T09:54:39Z</time>
      </trkpt>
      <trkpt lat="47.37113" lon="-1.04427">
        <ele>55.785</ele>
        <time>2020-07-19T09:54:40Z</time>
      </trkpt>
      <trkpt lat="47.37113" lon="-1.04432">
        <ele>55.454</ele>
        <time>2020-07-19T09:54:41Z</time>
      </trkpt>
      <trkpt lat="47.37113" lon="-1.04437">
        <ele>55.699</ele>
        <time>2020-07-19T09:54:42Z</time>
      </trkpt>
      <trkpt lat="47.37112" lon="-1.04442">
        <ele>54.86</ele>
        <time>2020-07-19T09:54:43Z</time>
      </trkpt>
      <trkpt lat="47.37111" lon="-1.04446">
        <ele>56.165</ele>
        <time>2020-07-19T09:54:44Z</time>
      </trkpt>
      <trkpt lat="47.37111" lon="-1.04449">
        <ele>60.531</ele>
        <time>2020-07-19T09:54:45Z</time>
      </trkpt>
      <trkpt lat="47.3711" lon="-1.04452">
        <ele>59.018</ele>
        <time>2020-07-19T09:54:46Z</time>
      </trkpt>
      <trkpt lat="47.3711" lon="-1.04456">
        <ele>55.368</ele>
        <time>2020-07-19T09:54:47Z</time>
      </trkpt>
      <trkpt lat="47.37111" lon="-1.04459">
        <ele>52.965</ele>
        <time>2020-07-19T09:54:48Z</time>
      </trkpt>
      <trkpt lat="47.37111" lon="-1.04463">
        <ele>52.737</ele>
        <time>2020-07-19T09:54:49Z</time>
      </trkpt>
      <trkpt lat="47.37112" lon="-1.04467">
        <ele>53.456</ele>
        <time>2020-07-19T09:54:50Z</time>
      </trkpt>
      <trkpt lat="47.37111" lon="-1.0447">
        <ele>52.442</ele>
        <time>2020-07-19T09:54:51Z</time>
      </trkpt>
      <trkpt lat="47.3711" lon="-1.04474">
        <ele>52.691</ele>
        <time>2020-07-19T09:54:52Z</time>
      </trkpt>
      <trkpt lat="47.37109" lon="-1.04477">
        <ele>52.162</ele>
        <time>2020-07-19T09:54:53Z</time>
      </trkpt>
      <trkpt lat="47.37109" lon="-1.04478">
        <ele>51.465</ele>
        <time>2020-07-19T09:54:54Z</time>
      </trkpt>
      <trkpt lat="47.37109" lon="-1.04477">
        <ele>51.768</ele>
        <time>2020-07-19T09:54:55Z</time>
      </trkpt>
      <trkpt lat="47.37109" lon="-1.04477">
        <ele>51.747</ele>
        <time>2020-07-19T09:54:56Z</time>
      </trkpt>
      <trkpt lat="47.37108" lon="-1.04477">
        <ele>52.422</ele>
        <time>2020-07-19T09:54:57Z</time>
      </trkpt>
      <trkpt lat="47.37108" lon="-1.04478">
        <ele>52.699</ele>
        <time>2020-07-19T09:54:58Z</time>
      </trkpt>
      <trkpt lat="47.37108" lon="-1.04478">
        <ele>52.669</ele>
        <time>2020-07-19T09:54:59Z</time>
      </trkpt>
      <trkpt lat="47.37108" lon="-1.04478">
        <ele>52.167</ele>
        <time>2020-07-19T09:55:00Z</time>
      </trkpt>
      <trkpt lat="47.37108" lon="-1.04478">
        <ele>52.472</ele>
        <time>2020-07-19T09:55:01Z</time>
      </trkpt>
      <trkpt lat="47.37108" lon="-1.04478">
        <ele>52.229</ele>
        <time>2020-07-19T09:55:02Z</time>
      </trkpt>
      <trkpt lat="47.37108" lon="-1.04478">
        <ele>52.407</ele>
        <time>2020-07-19T09:55:03Z</time>
      </trkpt>
      <trkpt lat="47.37108" lon="-1.04478">
        <ele>51.802</ele>
        <time>2020-07-19T09:55:04Z</time>
      </trkpt>
      <trkpt lat="47.37108" lon="-1.04479">
        <ele>52.132</ele>
        <time>2020-07-19T09:55:05Z</time>
      </trkpt>
      <trkpt lat="47.37108" lon="-1.04479">
        <ele>52.31</ele>
        <time>2020-07-19T09:55:06Z</time>
      </trkpt>
      <trkpt lat="47.37108" lon="-1.04479">
        <ele>52.442</ele>
        <time>2020-07-19T09:55:07Z</time>
      </trkpt>
      <trkpt lat="47.37108" lon="-1.04479">
        <ele>52.441</ele>
        <time>2020-07-19T09:55:08Z</time>
      </trkpt>
      <trkpt lat="47.37108" lon="-1.04479">
        <ele>52.801</ele>
        <time>2020-07-19T09:55:09Z</time>
      </trkpt>
      <trkpt lat="47.37107" lon="-1.0448">
        <ele>52.674</ele>
        <time>2020-07-19T09:55:10Z</time>
      </trkpt>
      <trkpt lat="47.37107" lon="-1.04481">
        <ele>53.223</ele>
        <time>2020-07-19T09:55:11Z</time>
      </trkpt>
      <trkpt lat="47.37107" lon="-1.04481">
        <ele>53.192</ele>
        <time>2020-07-19T09:55:12Z</time>
      </trkpt>
      <trkpt lat="47.37107" lon="-1.04483">
        <ele>53.636</ele>
        <time>2020-07-19T09:55:13Z</time>
      </trkpt>
      <trkpt lat="47.37106" lon="-1.04485">
        <ele>53.934</ele>
        <time>2020-07-19T09:55:14Z</time>
      </trkpt>
      <trkpt lat="47.37105" lon="-1.04488">
        <ele>54.372</ele>
        <time>2020-07-19T09:55:15Z</time>
      </trkpt>
      <trkpt lat="47.37103" lon="-1.04492">
        <ele>53.954</ele>
        <time>2020-07-19T09:55:16Z</time>
      </trkpt>
      <trkpt lat="47.37103" lon="-1.04497">
        <ele>53.45</ele>
        <time>2020-07-19T09:55:17Z</time>
      </trkpt>
      <trkpt lat="47.37104" lon="-1.04501">
        <ele>54.014</ele>
        <time>2020-07-19T09:55:18Z</time>
      </trkpt>
      <trkpt lat="47.37105" lon="-1.04504">
        <ele>54.834</ele>
        <time>2020-07-19T09:55:19Z</time>
      </trkpt>
      <trkpt lat="47.37106" lon="-1.04506">
        <ele>54.802</ele>
        <time>2020-07-19T09:55:20Z</time>
      </trkpt>
      <trkpt lat="47.37106" lon="-1.04508">
        <ele>54.711</ele>
        <time>2020-07-19T09:55:21Z</time>
      </trkpt>
      <trkpt lat="47.37107" lon="-1.04512">
        <ele>54.049</ele>
        <time>2020-07-19T09:55:22Z</time>
      </trkpt>
      <trkpt lat="47.37107" lon="-1.04515">
        <ele>54.678</ele>
        <time>2020-07-19T09:55:23Z</time>
      </trkpt>
      <trkpt lat="47.37106" lon="-1.04519">
        <ele>54.017</ele>
        <time>2020-07-19T09:55:24Z</time>
      </trkpt>
      <trkpt lat="47.37105" lon="-1.04523">
        <ele>56.023</ele>
        <time>2020-07-19T09:55:25Z</time>
      </trkpt>
      <trkpt lat="47.37104" lon="-1.04526">
        <ele>55.895</ele>
        <time>2020-07-19T09:55:26Z</time>
      </trkpt>
      <trkpt lat="47.37103" lon="-1.04531">
        <ele>54.732</ele>
        <time>2020-07-19T09:55:27Z</time>
      </trkpt>
      <trkpt lat="47.37102" lon="-1.04536">
        <ele>54.49</ele>
        <time>2020-07-19T09:55:28Z</time>
      </trkpt>
      <trkpt lat="47.37101" lon="-1.04541">
        <ele>54.448</ele>
        <time>2020-07-19T09:55:29Z</time>
      </trkpt>
      <trkpt lat="47.37101" lon="-1.04545">
        <ele>55.438</ele>
        <time>2020-07-19T09:55:30Z</time>
      </trkpt>
      <trkpt lat="47.371" lon="-1.04549">
        <ele>54.42</ele>
        <time>2020-07-19T09:55:31Z</time>
      </trkpt>
      <trkpt lat="47.37099" lon="-1.04553">
        <ele>55.633</ele>
        <time>2020-07-19T09:55:32Z</time>
      </trkpt>
      <trkpt lat="47.37098" lon="-1.04557">
        <ele>56.095</ele>
        <time>2020-07-19T09:55:33Z</time>
      </trkpt>
      <trkpt lat="47.37097" lon="-1.0456">
        <ele>55.576</ele>
        <time>2020-07-19T09:55:34Z</time>
      </trkpt>
      <trkpt lat="47.37097" lon="-1.04562">
        <ele>55.881</ele>
        <time>2020-07-19T09:55:35Z</time>
      </trkpt>
      <trkpt lat="47.37096" lon="-1.04565">
        <ele>55.78</ele>
        <time>2020-07-19T09:55:36Z</time>
      </trkpt>
      <trkpt lat="47.37096" lon="-1.04567">
        <ele>56.005</ele>
        <time>2020-07-19T09:55:37Z</time>
      </trkpt>
      <trkpt lat="47.37096" lon="-1.04569">
        <ele>55.832</ele>
        <time>2020-07-19T09:55:38Z</time>
      </trkpt>
      <trkpt lat="47.37096" lon="-1.04572">
        <ele>55.86</ele>
        <time>2020-07-19T09:55:39Z</time>
      </trkpt>
      <trkpt lat="47.37095" lon="-1.04574">
        <ele>56.37</ele>
        <time>2020-07-19T09:55:40Z</time>
      </trkpt>
      <trkpt lat="47.37095" lon="-1.04576">
        <ele>55.53</ele>
        <time>2020-07-19T09:55:41Z</time>
      </trkpt>
      <trkpt lat="47.37095" lon="-1.04579">
        <ele>54.839</ele>
        <time>2020-07-19T09:55:42Z</time>
      </trkpt>
      <trkpt lat="47.37094" lon="-1.04581">
        <ele>55.2</ele>
        <time>2020-07-19T09:55:43Z</time>
      </trkpt>
      <trkpt lat="47.37094" lon="-1.04584">
        <ele>55.424</ele>
        <time>2020-07-19T09:55:44Z</time>
      </trkpt>
      <trkpt lat="47.37094" lon="-1.04587">
        <ele>55.612</ele>
        <time>2020-07-19T09:55:45Z</time>
      </trkpt>
      <trkpt lat="47.37093" lon="-1.04589">
        <ele>55.592</ele>
        <time>2020-07-19T09:55:46Z</time>
      </trkpt>
      <trkpt lat="47.37092" lon="-1.04591">
        <ele>55.485</ele>
        <time>2020-07-19T09:55:47Z</time>
      </trkpt>
      <trkpt lat="47.37092" lon="-1.04593">
        <ele>55.744</ele>
        <time>2020-07-19T09:55:48Z</time>
      </trkpt>
      <trkpt lat="47.3709" lon="-1.04595">
        <ele>56.062</ele>
        <time>2020-07-19T09:55:49Z</time>
      </trkpt>
      <trkpt lat="47.37089" lon="-1.04598">
        <ele>55.216</ele>
        <time>2020-07-19T09:55:50Z</time>
      </trkpt>
      <trkpt lat="47.37089" lon="-1.046">
        <ele>54.467</ele>
        <time>2020-07-19T09:55:51Z</time>
      </trkpt>
      <trkpt lat="47.37088" lon="-1.04602">
        <ele>54.965</ele>
        <time>2020-07-19T09:55:52Z</time>
      </trkpt>
      <trkpt lat="47.37087" lon="-1.04605">
        <ele>55.876</ele>
        <time>2020-07-19T09:55:53Z</time>
      </trkpt>
      <trkpt lat="47.37086" lon="-1.04608">
        <ele>55.974</ele>
        <time>2020-07-19T09:55:54Z</time>
      </trkpt>
      <trkpt lat="47.37085" lon="-1.04611">
        <ele>56.317</ele>
        <time>2020-07-19T09:55:55Z</time>
      </trkpt>
      <trkpt lat="47.37083" lon="-1.04614">
        <ele>55.871</ele>
        <time>2020-07-19T09:55:56Z</time>
      </trkpt>
      <trkpt lat="47.37081" lon="-1.04617">
        <ele>55.481</ele>
        <time>2020-07-19T09:55:57Z</time>
      </trkpt>
      <trkpt lat="47.37079" lon="-1.04621">
        <ele>56.219</ele>
        <time>2020-07-19T09:55:58Z</time>
      </trkpt>
      <trkpt lat="47.37078" lon="-1.04623">
        <ele>55.857</ele>
        <time>2020-07-19T09:55:59Z</time>
      </trkpt>
      <trkpt lat="47.37078" lon="-1.04626">
        <ele>55.292</ele>
        <time>2020-07-19T09:56:00Z</time>
      </trkpt>
      <trkpt lat="47.37078" lon="-1.04628">
        <ele>54.792</ele>
        <time>2020-07-19T09:56:01Z</time>
      </trkpt>
      <trkpt lat="47.37077" lon="-1.04631">
        <ele>54.883</ele>
        <time>2020-07-19T09:56:02Z</time>
      </trkpt>
      <trkpt lat="47.37077" lon="-1.04634">
        <ele>54.651</ele>
        <time>2020-07-19T09:56:03Z</time>
      </trkpt>
      <trkpt lat="47.37076" lon="-1.04637">
        <ele>54.768</ele>
        <time>2020-07-19T09:56:04Z</time>
      </trkpt>
      <trkpt lat="47.37075" lon="-1.0464">
        <ele>55.291</ele>
        <time>2020-07-19T09:56:05Z</time>
      </trkpt>
      <trkpt lat="47.37074" lon="-1.04643">
        <ele>54.943</ele>
        <time>2020-07-19T09:56:06Z</time>
      </trkpt>
      <trkpt lat="47.37074" lon="-1.04647">
        <ele>55.778</ele>
        <time>2020-07-19T09:56:07Z</time>
      </trkpt>
      <trkpt lat="47.37074" lon="-1.0465">
        <ele>56.7</ele>
        <time>2020-07-19T09:56:08Z</time>
      </trkpt>
      <trkpt lat="47.37074" lon="-1.04652">
        <ele>57.877</ele>
        <time>2020-07-19T09:56:09Z</time>
      </trkpt>
      <trkpt lat="47.37075" lon="-1.04655">
        <ele>58.245</ele>
        <time>2020-07-19T09:56:10Z</time>
      </trkpt>
      <trkpt lat="47.37075" lon="-1.04659">
        <ele>58.109</ele>
        <time>2020-07-19T09:56:11Z</time>
      </trkpt>
      <trkpt lat="47.37075" lon="-1.04662">
        <ele>57.375</ele>
        <time>2020-07-19T09:56:12Z</time>
      </trkpt>
      <trkpt lat="47.37075" lon="-1.04665">
        <ele>57.898</ele>
        <time>2020-07-19T09:56:13Z</time>
      </trkpt>
      <trkpt lat="47.37074" lon="-1.04669">
        <ele>57.076</ele>
        <time>2020-07-19T09:56:14Z</time>
      </trkpt>
      <trkpt lat="47.37074" lon="-1.04672">
        <ele>57.114</ele>
        <time>2020-07-19T09:56:15Z</time>
      </trkpt>
      <trkpt lat="47.37073" lon="-1.04673">
        <ele>57.258</ele>
        <time>2020-07-19T09:56:16Z</time>
      </trkpt>
      <trkpt lat="47.37073" lon="-1.04675">
        <ele>57.688</ele>
        <time>2020-07-19T09:56:17Z</time>
      </trkpt>
      <trkpt lat="47.37073" lon="-1.04678">
        <ele>57.471</ele>
        <time>2020-07-19T09:56:18Z</time>
      </trkpt>
      <trkpt lat="47.37072" lon="-1.0468">
        <ele>56.507</ele>
        <time>2020-07-19T09:56:19Z</time>
      </trkpt>
      <trkpt lat="47.37072" lon="-1.04681">
        <ele>56.549</ele>
        <time>2020-07-19T09:56:20Z</time>
      </trkpt>
      <trkpt lat="47.37071" lon="-1.04681">
        <ele>55.885</ele>
        <time>2020-07-19T09:56:23Z</time>
      </trkpt>
      <trkpt lat="47.37071" lon="-1.04681">
        <ele>56.064</ele>
        <time>2020-07-19T09:56:24Z</time>
      </trkpt>
      <trkpt lat="47.37071" lon="-1.04681">
        <ele>56.03</ele>
        <time>2020-07-19T09:56:25Z</time>
      </trkpt>
      <trkpt lat="47.37071" lon="-1.0468">
        <ele>55.661</ele>
        <time>2020-07-19T09:56:26Z</time>
      </trkpt>
      <trkpt lat="47.37072" lon="-1.0468">
        <ele>55.701</ele>
        <time>2020-07-19T09:56:27Z</time>
      </trkpt>
      <trkpt lat="47.37072" lon="-1.0468">
        <ele>56.353</ele>
        <time>2020-07-19T09:56:28Z</time>
      </trkpt>
      <trkpt lat="47.37072" lon="-1.04681">
        <ele>56.426</ele>
        <time>2020-07-19T09:56:29Z</time>
      </trkpt>
      <trkpt lat="47.37072" lon="-1.04683">
        <ele>55.569</ele>
        <time>2020-07-19T09:56:30Z</time>
      </trkpt>
      <trkpt lat="47.37073" lon="-1.04685">
        <ele>56.018</ele>
        <time>2020-07-19T09:56:31Z</time>
      </trkpt>
      <trkpt lat="47.37073" lon="-1.04687">
        <ele>56.044</ele>
        <time>2020-07-19T09:56:32Z</time>
      </trkpt>
      <trkpt lat="47.37073" lon="-1.04689">
        <ele>56.176</ele>
        <time>2020-07-19T09:56:33Z</time>
      </trkpt>
      <trkpt lat="47.37073" lon="-1.04691">
        <ele>55.904</ele>
        <time>2020-07-19T09:56:34Z</time>
      </trkpt>
      <trkpt lat="47.37072" lon="-1.04693">
        <ele>55.374</ele>
        <time>2020-07-19T09:56:35Z</time>
      </trkpt>
      <trkpt lat="47.37072" lon="-1.04696">
        <ele>54.556</ele>
        <time>2020-07-19T09:56:36Z</time>
      </trkpt>
      <trkpt lat="47.37071" lon="-1.04699">
        <ele>56.046</ele>
        <time>2020-07-19T09:56:37Z</time>
      </trkpt>
      <trkpt lat="47.37071" lon="-1.04702">
        <ele>56.38</ele>
        <time>2020-07-19T09:56:38Z</time>
      </trkpt>
      <trkpt lat="47.37071" lon="-1.04704">
        <ele>58.537</ele>
        <time>2020-07-19T09:56:39Z</time>
      </trkpt>
      <trkpt lat="47.3707" lon="-1.04707">
        <ele>57.161</ele>
        <time>2020-07-19T09:56:40Z</time>
      </trkpt>
      <trkpt lat="47.3707" lon="-1.04709">
        <ele>56.804</ele>
        <time>2020-07-19T09:56:41Z</time>
      </trkpt>
      <trkpt lat="47.37069" lon="-1.04711">
        <ele>57.69</ele>
        <time>2020-07-19T09:56:42Z</time>
      </trkpt>
      <trkpt lat="47.37068" lon="-1.04715">
        <ele>56.415</ele>
        <time>2020-07-19T09:56:43Z</time>
      </trkpt>
      <trkpt lat="47.37068" lon="-1.04718">
        <ele>55.798</ele>
        <time>2020-07-19T09:56:44Z</time>
      </trkpt>
      <trkpt lat="47.37068" lon="-1.0472">
        <ele>55.418</ele>
        <time>2020-07-19T09:56:45Z</time>
      </trkpt>
      <trkpt lat="47.37067" lon="-1.04723">
        <ele>57.195</ele>
        <time>2020-07-19T09:56:46Z</time>
      </trkpt>
      <trkpt lat="47.37067" lon="-1.04725">
        <ele>55.489</ele>
        <time>2020-07-19T09:56:47Z</time>
      </trkpt>
      <trkpt lat="47.37067" lon="-1.04728">
        <ele>55.261</ele>
        <time>2020-07-19T09:56:48Z</time>
      </trkpt>
      <trkpt lat="47.37067" lon="-1.04731">
        <ele>54.758</ele>
        <time>2020-07-19T09:56:49Z</time>
      </trkpt>
      <trkpt lat="47.37066" lon="-1.04734">
        <ele>53.818</ele>
        <time>2020-07-19T09:56:50Z</time>
      </trkpt>
      <trkpt lat="47.37065" lon="-1.04738">
        <ele>52.611</ele>
        <time>2020-07-19T09:56:51Z</time>
      </trkpt>
      <trkpt lat="47.37064" lon="-1.04743">
        <ele>53.61</ele>
        <time>2020-07-19T09:56:52Z</time>
      </trkpt>
      <trkpt lat="47.37064" lon="-1.04746">
        <ele>53.366</ele>
        <time>2020-07-19T09:56:53Z</time>
      </trkpt>
      <trkpt lat="47.37063" lon="-1.0475">
        <ele>54.084</ele>
        <time>2020-07-19T09:56:54Z</time>
      </trkpt>
      <trkpt lat="47.37063" lon="-1.04753">
        <ele>53.2</ele>
        <time>2020-07-19T09:56:55Z</time>
      </trkpt>
      <trkpt lat="47.37064" lon="-1.04755">
        <ele>52.458</ele>
        <time>2020-07-19T09:56:56Z</time>
      </trkpt>
      <trkpt lat="47.37064" lon="-1.04757">
        <ele>52.81</ele>
        <time>2020-07-19T09:56:57Z</time>
      </trkpt>
      <trkpt lat="47.37064" lon="-1.04757">
        <ele>52.862</ele>
        <time>2020-07-19T09:56:58Z</time>
      </trkpt>
      <trkpt lat="47.37064" lon="-1.04757">
        <ele>52.953</ele>
        <time>2020-07-19T09:56:59Z</time>
      </trkpt>
      <trkpt lat="47.37064" lon="-1.04757">
        <ele>53.372</ele>
        <time>2020-07-19T09:57:00Z</time>
      </trkpt>
      <trkpt lat="47.37064" lon="-1.04757">
        <ele>53.663</ele>
        <time>2020-07-19T09:57:01Z</time>
      </trkpt>
      <trkpt lat="47.37064" lon="-1.04758">
        <ele>53.132</ele>
        <time>2020-07-19T09:57:02Z</time>
      </trkpt>
      <trkpt lat="47.37064" lon="-1.04758">
        <ele>52.346</ele>
        <time>2020-07-19T09:57:03Z</time>
      </trkpt>
      <trkpt lat="47.37064" lon="-1.04758">
        <ele>52.525</ele>
        <time>2020-07-19T09:57:04Z</time>
      </trkpt>
      <trkpt lat="47.37064" lon="-1.04758">
        <ele>52.569</ele>
        <time>2020-07-19T09:57:05Z</time>
      </trkpt>
      <trkpt lat="47.37064" lon="-1.04759">
        <ele>52.326</ele>
        <time>2020-07-19T09:57:06Z</time>
      </trkpt>
      <trkpt lat="47.37064" lon="-1.04759">
        <ele>52.055</ele>
        <time>2020-07-19T09:57:07Z</time>
      </trkpt>
      <trkpt lat="47.37064" lon="-1.04759">
        <ele>51.372</ele>
        <time>2020-07-19T09:57:08Z</time>
      </trkpt>
      <trkpt lat="47.37064" lon="-1.04759">
        <ele>52.992</ele>
        <time>2020-07-19T09:57:09Z</time>
      </trkpt>
      <trkpt lat="47.37064" lon="-1.04759">
        <ele>52.905</ele>
        <time>2020-07-19T09:57:10Z</time>
      </trkpt>
      <trkpt lat="47.37063" lon="-1.0476">
        <ele>53.031</ele>
        <time>2020-07-19T09:57:11Z</time>
      </trkpt>
      <trkpt lat="47.37063" lon="-1.0476">
        <ele>53.455</ele>
        <time>2020-07-19T09:57:12Z</time>
      </trkpt>
      <trkpt lat="47.37063" lon="-1.04761">
        <ele>53.137</ele>
        <time>2020-07-19T09:57:13Z</time>
      </trkpt>
      <trkpt lat="47.37063" lon="-1.04763">
        <ele>54.135</ele>
        <time>2020-07-19T09:57:14Z</time>
      </trkpt>
      <trkpt lat="47.37063" lon="-1.04765">
        <ele>54.807</ele>
        <time>2020-07-19T09:57:15Z</time>
      </trkpt>
      <trkpt lat="47.37062" lon="-1.04768">
        <ele>55.608</ele>
        <time>2020-07-19T09:57:16Z</time>
      </trkpt>
      <trkpt lat="47.37062" lon="-1.0477">
        <ele>55.323</ele>
        <time>2020-07-19T09:57:17Z</time>
      </trkpt>
      <trkpt lat="47.37061" lon="-1.04772">
        <ele>54.854</ele>
        <time>2020-07-19T09:57:18Z</time>
      </trkpt>
      <trkpt lat="47.3706" lon="-1.04775">
        <ele>56.015</ele>
        <time>2020-07-19T09:57:19Z</time>
      </trkpt>
      <trkpt lat="47.37059" lon="-1.04781">
        <ele>55.238</ele>
        <time>2020-07-19T09:57:22Z</time>
      </trkpt>
      <trkpt lat="47.37059" lon="-1.04784">
        <ele>55.785</ele>
        <time>2020-07-19T09:57:23Z</time>
      </trkpt>
      <trkpt lat="47.37059" lon="-1.04788">
        <ele>56.264</ele>
        <time>2020-07-19T09:57:24Z</time>
      </trkpt>
      <trkpt lat="47.37059" lon="-1.04792">
        <ele>55.972</ele>
        <time>2020-07-19T09:57:25Z</time>
      </trkpt>
      <trkpt lat="47.37059" lon="-1.04796">
        <ele>55.745</ele>
        <time>2020-07-19T09:57:26Z</time>
      </trkpt>
      <trkpt lat="47.37059" lon="-1.04801">
        <ele>55.581</ele>
        <time>2020-07-19T09:57:27Z</time>
      </trkpt>
      <trkpt lat="47.37058" lon="-1.04806">
        <ele>55.815</ele>
        <time>2020-07-19T09:57:28Z</time>
      </trkpt>
      <trkpt lat="47.37058" lon="-1.0481">
        <ele>56.949</ele>
        <time>2020-07-19T09:57:29Z</time>
      </trkpt>
      <trkpt lat="47.37058" lon="-1.04815">
        <ele>58</ele>
        <time>2020-07-19T09:57:30Z</time>
      </trkpt>
      <trkpt lat="47.37058" lon="-1.04819">
        <ele>57.64</ele>
        <time>2020-07-19T09:57:31Z</time>
      </trkpt>
      <trkpt lat="47.37058" lon="-1.04822">
        <ele>57.52</ele>
        <time>2020-07-19T09:57:32Z</time>
      </trkpt>
      <trkpt lat="47.37058" lon="-1.04826">
        <ele>57.522</ele>
        <time>2020-07-19T09:57:33Z</time>
      </trkpt>
      <trkpt lat="47.37058" lon="-1.04829">
        <ele>56.727</ele>
        <time>2020-07-19T09:57:34Z</time>
      </trkpt>
      <trkpt lat="47.37059" lon="-1.04831">
        <ele>56.072</ele>
        <time>2020-07-19T09:57:35Z</time>
      </trkpt>
      <trkpt lat="47.37059" lon="-1.04832">
        <ele>55.546</ele>
        <time>2020-07-19T09:57:36Z</time>
      </trkpt>
      <trkpt lat="47.37059" lon="-1.04831">
        <ele>56.05</ele>
        <time>2020-07-19T09:57:37Z</time>
      </trkpt>
      <trkpt lat="47.3706" lon="-1.04831">
        <ele>56.057</ele>
        <time>2020-07-19T09:57:38Z</time>
      </trkpt>
      <trkpt lat="47.3706" lon="-1.04832">
        <ele>56.14</ele>
        <time>2020-07-19T09:57:39Z</time>
      </trkpt>
      <trkpt lat="47.3706" lon="-1.04833">
        <ele>57.503</ele>
        <time>2020-07-19T09:57:40Z</time>
      </trkpt>
      <trkpt lat="47.3706" lon="-1.04835">
        <ele>57.623</ele>
        <time>2020-07-19T09:57:41Z</time>
      </trkpt>
      <trkpt lat="47.3706" lon="-1.04838">
        <ele>58.268</ele>
        <time>2020-07-19T09:57:42Z</time>
      </trkpt>
      <trkpt lat="47.3706" lon="-1.04841">
        <ele>57.649</ele>
        <time>2020-07-19T09:57:43Z</time>
      </trkpt>
      <trkpt lat="47.3706" lon="-1.04844">
        <ele>57.283</ele>
        <time>2020-07-19T09:57:44Z</time>
      </trkpt>
      <trkpt lat="47.3706" lon="-1.04849">
        <ele>56.613</ele>
        <time>2020-07-19T09:57:45Z</time>
      </trkpt>
      <trkpt lat="47.3706" lon="-1.04853">
        <ele>56.148</ele>
        <time>2020-07-19T09:57:46Z</time>
      </trkpt>
      <trkpt lat="47.37059" lon="-1.04857">
        <ele>56.005</ele>
        <time>2020-07-19T09:57:47Z</time>
      </trkpt>
      <trkpt lat="47.3706" lon="-1.04861">
        <ele>55.97</ele>
        <time>2020-07-19T09:57:48Z</time>
      </trkpt>
      <trkpt lat="47.3706" lon="-1.04865">
        <ele>56.101</ele>
        <time>2020-07-19T09:57:49Z</time>
      </trkpt>
      <trkpt lat="47.3706" lon="-1.04869">
        <ele>56.616</ele>
        <time>2020-07-19T09:57:50Z</time>
      </trkpt>
      <trkpt lat="47.37061" lon="-1.04872">
        <ele>57.112</ele>
        <time>2020-07-19T09:57:51Z</time>
      </trkpt>
      <trkpt lat="47.37061" lon="-1.04876">
        <ele>56.914</ele>
        <time>2020-07-19T09:57:52Z</time>
      </trkpt>
      <trkpt lat="47.37062" lon="-1.04879">
        <ele>56.619</ele>
        <time>2020-07-19T09:57:53Z</time>
      </trkpt>
      <trkpt lat="47.37062" lon="-1.04883">
        <ele>56.552</ele>
        <time>2020-07-19T09:57:54Z</time>
      </trkpt>
      <trkpt lat="47.37062" lon="-1.04887">
        <ele>56.209</ele>
        <time>2020-07-19T09:57:55Z</time>
      </trkpt>
      <trkpt lat="47.37062" lon="-1.04891">
        <ele>55.869</ele>
        <time>2020-07-19T09:57:56Z</time>
      </trkpt>
      <trkpt lat="47.37061" lon="-1.04895">
        <ele>55.471</ele>
        <time>2020-07-19T09:57:57Z</time>
      </trkpt>
      <trkpt lat="47.37062" lon="-1.04899">
        <ele>54.71</ele>
        <time>2020-07-19T09:57:58Z</time>
      </trkpt>
      <trkpt lat="47.37062" lon="-1.04903">
        <ele>55.025</ele>
        <time>2020-07-19T09:57:59Z</time>
      </trkpt>
      <trkpt lat="47.37062" lon="-1.04907">
        <ele>55.562</ele>
        <time>2020-07-19T09:58:00Z</time>
      </trkpt>
      <trkpt lat="47.37063" lon="-1.0491">
        <ele>55.008</ele>
        <time>2020-07-19T09:58:01Z</time>
      </trkpt>
      <trkpt lat="47.37063" lon="-1.04914">
        <ele>55.119</ele>
        <time>2020-07-19T09:58:02Z</time>
      </trkpt>
      <trkpt lat="47.37064" lon="-1.04917">
        <ele>55.542</ele>
        <time>2020-07-19T09:58:03Z</time>
      </trkpt>
      <trkpt lat="47.37064" lon="-1.0492">
        <ele>55.855</ele>
        <time>2020-07-19T09:58:04Z</time>
      </trkpt>
      <trkpt lat="47.37065" lon="-1.04923">
        <ele>55.91</ele>
        <time>2020-07-19T09:58:05Z</time>
      </trkpt>
      <trkpt lat="47.37065" lon="-1.04926">
        <ele>55.801</ele>
        <time>2020-07-19T09:58:06Z</time>
      </trkpt>
      <trkpt lat="47.37065" lon="-1.04929">
        <ele>56.151</ele>
        <time>2020-07-19T09:58:07Z</time>
      </trkpt>
      <trkpt lat="47.37066" lon="-1.04932">
        <ele>56.572</ele>
        <time>2020-07-19T09:58:08Z</time>
      </trkpt>
      <trkpt lat="47.37066" lon="-1.04935">
        <ele>55.982</ele>
        <time>2020-07-19T09:58:09Z</time>
      </trkpt>
      <trkpt lat="47.37067" lon="-1.04938">
        <ele>53.681</ele>
        <time>2020-07-19T09:58:10Z</time>
      </trkpt>
      <trkpt lat="47.37067" lon="-1.04942">
        <ele>54.134</ele>
        <time>2020-07-19T09:58:11Z</time>
      </trkpt>
      <trkpt lat="47.37067" lon="-1.04945">
        <ele>54.636</ele>
        <time>2020-07-19T09:58:12Z</time>
      </trkpt>
      <trkpt lat="47.37068" lon="-1.04948">
        <ele>55.103</ele>
        <time>2020-07-19T09:58:13Z</time>
      </trkpt>
      <trkpt lat="47.37069" lon="-1.04951">
        <ele>55.289</ele>
        <time>2020-07-19T09:58:14Z</time>
      </trkpt>
      <trkpt lat="47.3707" lon="-1.04954">
        <ele>55.971</ele>
        <time>2020-07-19T09:58:15Z</time>
      </trkpt>
      <trkpt lat="47.37071" lon="-1.04956">
        <ele>56.142</ele>
        <time>2020-07-19T09:58:16Z</time>
      </trkpt>
      <trkpt lat="47.37071" lon="-1.04959">
        <ele>56.621</ele>
        <time>2020-07-19T09:58:17Z</time>
      </trkpt>
      <trkpt lat="47.37071" lon="-1.04962">
        <ele>57.227</ele>
        <time>2020-07-19T09:58:18Z</time>
      </trkpt>
      <trkpt lat="47.3707" lon="-1.04965">
        <ele>55.784</ele>
        <time>2020-07-19T09:58:19Z</time>
      </trkpt>
      <trkpt lat="47.3707" lon="-1.04969">
        <ele>54.749</ele>
        <time>2020-07-19T09:58:20Z</time>
      </trkpt>
      <trkpt lat="47.3707" lon="-1.04973">
        <ele>55.757</ele>
        <time>2020-07-19T09:58:21Z</time>
      </trkpt>
      <trkpt lat="47.37071" lon="-1.04976">
        <ele>56.427</ele>
        <time>2020-07-19T09:58:22Z</time>
      </trkpt>
      <trkpt lat="47.37072" lon="-1.0498">
        <ele>56.406</ele>
        <time>2020-07-19T09:58:23Z</time>
      </trkpt>
      <trkpt lat="47.37073" lon="-1.04983">
        <ele>56.692</ele>
        <time>2020-07-19T09:58:24Z</time>
      </trkpt>
      <trkpt lat="47.37074" lon="-1.04986">
        <ele>56.453</ele>
        <time>2020-07-19T09:58:25Z</time>
      </trkpt>
      <trkpt lat="47.37075" lon="-1.04989">
        <ele>58.266</ele>
        <time>2020-07-19T09:58:26Z</time>
      </trkpt>
      <trkpt lat="47.37076" lon="-1.04992">
        <ele>58.245</ele>
        <time>2020-07-19T09:58:27Z</time>
      </trkpt>
      <trkpt lat="47.37077" lon="-1.04995">
        <ele>57.955</ele>
        <time>2020-07-19T09:58:28Z</time>
      </trkpt>
      <trkpt lat="47.37078" lon="-1.04997">
        <ele>57.486</ele>
        <time>2020-07-19T09:58:29Z</time>
      </trkpt>
      <trkpt lat="47.37078" lon="-1.05">
        <ele>57.588</ele>
        <time>2020-07-19T09:58:30Z</time>
      </trkpt>
      <trkpt lat="47.37078" lon="-1.05002">
        <ele>57.529</ele>
        <time>2020-07-19T09:58:31Z</time>
      </trkpt>
      <trkpt lat="47.37079" lon="-1.05005">
        <ele>57.207</ele>
        <time>2020-07-19T09:58:32Z</time>
      </trkpt>
      <trkpt lat="47.3708" lon="-1.05008">
        <ele>58.356</ele>
        <time>2020-07-19T09:58:33Z</time>
      </trkpt>
      <trkpt lat="47.37081" lon="-1.05011">
        <ele>59.672</ele>
        <time>2020-07-19T09:58:34Z</time>
      </trkpt>
      <trkpt lat="47.37082" lon="-1.05014">
        <ele>59.376</ele>
        <time>2020-07-19T09:58:35Z</time>
      </trkpt>
      <trkpt lat="47.37083" lon="-1.05016">
        <ele>59.108</ele>
        <time>2020-07-19T09:58:36Z</time>
      </trkpt>
      <trkpt lat="47.37084" lon="-1.05019">
        <ele>58.887</ele>
        <time>2020-07-19T09:58:37Z</time>
      </trkpt>
      <trkpt lat="47.37084" lon="-1.05023">
        <ele>55.886</ele>
        <time>2020-07-19T09:58:38Z</time>
      </trkpt>
      <trkpt lat="47.37085" lon="-1.05026">
        <ele>58.446</ele>
        <time>2020-07-19T09:58:39Z</time>
      </trkpt>
      <trkpt lat="47.37085" lon="-1.05027">
        <ele>57.319</ele>
        <time>2020-07-19T09:58:40Z</time>
      </trkpt>
      <trkpt lat="47.37085" lon="-1.05028">
        <ele>57.522</ele>
        <time>2020-07-19T09:58:41Z</time>
      </trkpt>
      <trkpt lat="47.37085" lon="-1.05029">
        <ele>57.068</ele>
        <time>2020-07-19T09:58:42Z</time>
      </trkpt>
      <trkpt lat="47.37086" lon="-1.05029">
        <ele>57.028</ele>
        <time>2020-07-19T09:58:43Z</time>
      </trkpt>
      <trkpt lat="47.37086" lon="-1.0503">
        <ele>57.249</ele>
        <time>2020-07-19T09:58:44Z</time>
      </trkpt>
      <trkpt lat="47.37086" lon="-1.0503">
        <ele>57.334</ele>
        <time>2020-07-19T09:58:45Z</time>
      </trkpt>
      <trkpt lat="47.37086" lon="-1.05031">
        <ele>57.559</ele>
        <time>2020-07-19T09:58:46Z</time>
      </trkpt>
      <trkpt lat="47.37086" lon="-1.05033">
        <ele>57.779</ele>
        <time>2020-07-19T09:58:47Z</time>
      </trkpt>
      <trkpt lat="47.37087" lon="-1.05035">
        <ele>57.169</ele>
        <time>2020-07-19T09:58:48Z</time>
      </trkpt>
      <trkpt lat="47.37088" lon="-1.05037">
        <ele>58.571</ele>
        <time>2020-07-19T09:58:49Z</time>
      </trkpt>
      <trkpt lat="47.37089" lon="-1.0504">
        <ele>59.575</ele>
        <time>2020-07-19T09:58:50Z</time>
      </trkpt>
      <trkpt lat="47.3709" lon="-1.05043">
        <ele>58.958</ele>
        <time>2020-07-19T09:58:51Z</time>
      </trkpt>
      <trkpt lat="47.37091" lon="-1.05046">
        <ele>59.927</ele>
        <time>2020-07-19T09:58:52Z</time>
      </trkpt>
      <trkpt lat="47.37092" lon="-1.05049">
        <ele>60.333</ele>
        <time>2020-07-19T09:58:53Z</time>
      </trkpt>
      <trkpt lat="47.37093" lon="-1.05052">
        <ele>59.16</ele>
        <time>2020-07-19T09:58:54Z</time>
      </trkpt>
      <trkpt lat="47.37093" lon="-1.05056">
        <ele>58.533</ele>
        <time>2020-07-19T09:58:55Z</time>
      </trkpt>
      <trkpt lat="47.37094" lon="-1.0506">
        <ele>57.131</ele>
        <time>2020-07-19T09:58:56Z</time>
      </trkpt>
      <trkpt lat="47.37094" lon="-1.05065">
        <ele>56.266</ele>
        <time>2020-07-19T09:58:57Z</time>
      </trkpt>
      <trkpt lat="47.37094" lon="-1.05069">
        <ele>55.189</ele>
        <time>2020-07-19T09:58:58Z</time>
      </trkpt>
      <trkpt lat="47.37093" lon="-1.05074">
        <ele>55.358</ele>
        <time>2020-07-19T09:58:59Z</time>
      </trkpt>
      <trkpt lat="47.37093" lon="-1.05079">
        <ele>54.828</ele>
        <time>2020-07-19T09:59:00Z</time>
      </trkpt>
      <trkpt lat="47.37093" lon="-1.05084">
        <ele>55.385</ele>
        <time>2020-07-19T09:59:01Z</time>
      </trkpt>
      <trkpt lat="47.37093" lon="-1.05088">
        <ele>55.553</ele>
        <time>2020-07-19T09:59:02Z</time>
      </trkpt>
      <trkpt lat="47.37093" lon="-1.05091">
        <ele>56.124</ele>
        <time>2020-07-19T09:59:03Z</time>
      </trkpt>
      <trkpt lat="47.37093" lon="-1.05093">
        <ele>56.782</ele>
        <time>2020-07-19T09:59:04Z</time>
      </trkpt>
      <trkpt lat="47.37093" lon="-1.05093">
        <ele>56.637</ele>
        <time>2020-07-19T09:59:05Z</time>
      </trkpt>
      <trkpt lat="47.37093" lon="-1.05094">
        <ele>56.732</ele>
        <time>2020-07-19T09:59:06Z</time>
      </trkpt>
      <trkpt lat="47.37093" lon="-1.05094">
        <ele>56.884</ele>
        <time>2020-07-19T09:59:07Z</time>
      </trkpt>
      <trkpt lat="47.37093" lon="-1.05095">
        <ele>56.959</ele>
        <time>2020-07-19T09:59:08Z</time>
      </trkpt>
      <trkpt lat="47.37093" lon="-1.05095">
        <ele>57.077</ele>
        <time>2020-07-19T09:59:09Z</time>
      </trkpt>
      <trkpt lat="47.37093" lon="-1.05096">
        <ele>56.884</ele>
        <time>2020-07-19T09:59:10Z</time>
      </trkpt>
      <trkpt lat="47.37093" lon="-1.05096">
        <ele>57.114</ele>
        <time>2020-07-19T09:59:11Z</time>
      </trkpt>
      <trkpt lat="47.37093" lon="-1.05096">
        <ele>56.576</ele>
        <time>2020-07-19T09:59:12Z</time>
      </trkpt>
      <trkpt lat="47.37093" lon="-1.05096">
        <ele>56.513</ele>
        <time>2020-07-19T09:59:13Z</time>
      </trkpt>
      <trkpt lat="47.37093" lon="-1.05096">
        <ele>56.816</ele>
        <time>2020-07-19T09:59:14Z</time>
      </trkpt>
      <trkpt lat="47.37093" lon="-1.05096">
        <ele>56.759</ele>
        <time>2020-07-19T09:59:15Z</time>
      </trkpt>
      <trkpt lat="47.37092" lon="-1.05097">
        <ele>56.742</ele>
        <time>2020-07-19T09:59:16Z</time>
      </trkpt>
      <trkpt lat="47.37092" lon="-1.05097">
        <ele>56.819</ele>
        <time>2020-07-19T09:59:17Z</time>
      </trkpt>
      <trkpt lat="47.37092" lon="-1.05098">
        <ele>56.397</ele>
        <time>2020-07-19T09:59:18Z</time>
      </trkpt>
      <trkpt lat="47.37093" lon="-1.051">
        <ele>56.158</ele>
        <time>2020-07-19T09:59:19Z</time>
      </trkpt>
      <trkpt lat="47.37093" lon="-1.05103">
        <ele>55.823</ele>
        <time>2020-07-19T09:59:20Z</time>
      </trkpt>
      <trkpt lat="47.37094" lon="-1.05106">
        <ele>54.316</ele>
        <time>2020-07-19T09:59:21Z</time>
      </trkpt>
      <trkpt lat="47.37094" lon="-1.0511">
        <ele>54.952</ele>
        <time>2020-07-19T09:59:22Z</time>
      </trkpt>
      <trkpt lat="47.37094" lon="-1.05114">
        <ele>56.338</ele>
        <time>2020-07-19T09:59:23Z</time>
      </trkpt>
      <trkpt lat="47.37095" lon="-1.05118">
        <ele>56.35</ele>
        <time>2020-07-19T09:59:24Z</time>
      </trkpt>
      <trkpt lat="47.37096" lon="-1.05122">
        <ele>57.66</ele>
        <time>2020-07-19T09:59:25Z</time>
      </trkpt>
      <trkpt lat="47.37097" lon="-1.05126">
        <ele>57.645</ele>
        <time>2020-07-19T09:59:26Z</time>
      </trkpt>
      <trkpt lat="47.37098" lon="-1.0513">
        <ele>58.672</ele>
        <time>2020-07-19T09:59:27Z</time>
      </trkpt>
      <trkpt lat="47.37098" lon="-1.05134">
        <ele>59.456</ele>
        <time>2020-07-19T09:59:28Z</time>
      </trkpt>
      <trkpt lat="47.37099" lon="-1.05138">
        <ele>58.349</ele>
        <time>2020-07-19T09:59:29Z</time>
      </trkpt>
      <trkpt lat="47.37099" lon="-1.05142">
        <ele>58.367</ele>
        <time>2020-07-19T09:59:30Z</time>
      </trkpt>
      <trkpt lat="47.37099" lon="-1.05146">
        <ele>56.852</ele>
        <time>2020-07-19T09:59:31Z</time>
      </trkpt>
      <trkpt lat="47.37099" lon="-1.0515">
        <ele>57.317</ele>
        <time>2020-07-19T09:59:32Z</time>
      </trkpt>
      <trkpt lat="47.37099" lon="-1.05153">
        <ele>57.473</ele>
        <time>2020-07-19T09:59:33Z</time>
      </trkpt>
      <trkpt lat="47.37099" lon="-1.05157">
        <ele>57.478</ele>
        <time>2020-07-19T09:59:34Z</time>
      </trkpt>
      <trkpt lat="47.37099" lon="-1.05161">
        <ele>56.492</ele>
        <time>2020-07-19T09:59:35Z</time>
      </trkpt>
      <trkpt lat="47.37099" lon="-1.05165">
        <ele>55.431</ele>
        <time>2020-07-19T09:59:36Z</time>
      </trkpt>
      <trkpt lat="47.37099" lon="-1.0517">
        <ele>54.943</ele>
        <time>2020-07-19T09:59:37Z</time>
      </trkpt>
      <trkpt lat="47.37099" lon="-1.05174">
        <ele>54.919</ele>
        <time>2020-07-19T09:59:38Z</time>
      </trkpt>
      <trkpt lat="47.371" lon="-1.05178">
        <ele>55.151</ele>
        <time>2020-07-19T09:59:39Z</time>
      </trkpt>
      <trkpt lat="47.37101" lon="-1.05181">
        <ele>54.995</ele>
        <time>2020-07-19T09:59:40Z</time>
      </trkpt>
      <trkpt lat="47.37101" lon="-1.05183">
        <ele>54.983</ele>
        <time>2020-07-19T09:59:41Z</time>
      </trkpt>
      <trkpt lat="47.37101" lon="-1.05185">
        <ele>53.612</ele>
        <time>2020-07-19T09:59:42Z</time>
      </trkpt>
      <trkpt lat="47.37101" lon="-1.05186">
        <ele>53.536</ele>
        <time>2020-07-19T09:59:43Z</time>
      </trkpt>
      <trkpt lat="47.371" lon="-1.05186">
        <ele>53.528</ele>
        <time>2020-07-19T09:59:44Z</time>
      </trkpt>
      <trkpt lat="47.37101" lon="-1.05187">
        <ele>54.642</ele>
        <time>2020-07-19T09:59:45Z</time>
      </trkpt>
      <trkpt lat="47.37101" lon="-1.05188">
        <ele>54.689</ele>
        <time>2020-07-19T09:59:46Z</time>
      </trkpt>
      <trkpt lat="47.37101" lon="-1.0519">
        <ele>55.226</ele>
        <time>2020-07-19T09:59:47Z</time>
      </trkpt>
      <trkpt lat="47.37102" lon="-1.05192">
        <ele>54.837</ele>
        <time>2020-07-19T09:59:48Z</time>
      </trkpt>
      <trkpt lat="47.37102" lon="-1.05195">
        <ele>55.537</ele>
        <time>2020-07-19T09:59:49Z</time>
      </trkpt>
      <trkpt lat="47.37103" lon="-1.05198">
        <ele>56.081</ele>
        <time>2020-07-19T09:59:50Z</time>
      </trkpt>
      <trkpt lat="47.37104" lon="-1.05202">
        <ele>56.293</ele>
        <time>2020-07-19T09:59:51Z</time>
      </trkpt>
      <trkpt lat="47.37105" lon="-1.05205">
        <ele>57.088</ele>
        <time>2020-07-19T09:59:52Z</time>
      </trkpt>
      <trkpt lat="47.37105" lon="-1.05209">
        <ele>58.722</ele>
        <time>2020-07-19T09:59:53Z</time>
      </trkpt>
      <trkpt lat="47.37106" lon="-1.05212">
        <ele>59.525</ele>
        <time>2020-07-19T09:59:54Z</time>
      </trkpt>
      <trkpt lat="47.37108" lon="-1.05215">
        <ele>58.573</ele>
        <time>2020-07-19T09:59:55Z</time>
      </trkpt>
      <trkpt lat="47.37109" lon="-1.05219">
        <ele>59.034</ele>
        <time>2020-07-19T09:59:56Z</time>
      </trkpt>
      <trkpt lat="47.3711" lon="-1.05223">
        <ele>58.61</ele>
        <time>2020-07-19T09:59:57Z</time>
      </trkpt>
      <trkpt lat="47.3711" lon="-1.05227">
        <ele>60.034</ele>
        <time>2020-07-19T09:59:58Z</time>
      </trkpt>
      <trkpt lat="47.3711" lon="-1.0523">
        <ele>60.61</ele>
        <time>2020-07-19T09:59:59Z</time>
      </trkpt>
      <trkpt lat="47.37111" lon="-1.05234">
        <ele>60.416</ele>
        <time>2020-07-19T10:00:00Z</time>
      </trkpt>
      <trkpt lat="47.37112" lon="-1.05237">
        <ele>60.788</ele>
        <time>2020-07-19T10:00:01Z</time>
      </trkpt>
      <trkpt lat="47.37112" lon="-1.05239">
        <ele>61.133</ele>
        <time>2020-07-19T10:00:02Z</time>
      </trkpt>
      <trkpt lat="47.37112" lon="-1.0524">
        <ele>60.207</ele>
        <time>2020-07-19T10:00:03Z</time>
      </trkpt>
      <trkpt lat="47.37112" lon="-1.05241">
        <ele>60.653</ele>
        <time>2020-07-19T10:00:04Z</time>
      </trkpt>
      <trkpt lat="47.37112" lon="-1.05241">
        <ele>60.964</ele>
        <time>2020-07-19T10:00:05Z</time>
      </trkpt>
      <trkpt lat="47.37112" lon="-1.05241">
        <ele>60.387</ele>
        <time>2020-07-19T10:00:06Z</time>
      </trkpt>
      <trkpt lat="47.37112" lon="-1.05242">
        <ele>60.607</ele>
        <time>2020-07-19T10:00:07Z</time>
      </trkpt>
      <trkpt lat="47.37112" lon="-1.05242">
        <ele>61.141</ele>
        <time>2020-07-19T10:00:08Z</time>
      </trkpt>
      <trkpt lat="47.37112" lon="-1.05242">
        <ele>61.45</ele>
        <time>2020-07-19T10:00:09Z</time>
      </trkpt>
      <trkpt lat="47.37112" lon="-1.05242">
        <ele>61.487</ele>
        <time>2020-07-19T10:00:10Z</time>
      </trkpt>
      <trkpt lat="47.37111" lon="-1.05242">
        <ele>60.978</ele>
        <time>2020-07-19T10:00:11Z</time>
      </trkpt>
      <trkpt lat="47.37111" lon="-1.05242">
        <ele>61.157</ele>
        <time>2020-07-19T10:00:12Z</time>
      </trkpt>
      <trkpt lat="47.37111" lon="-1.05243">
        <ele>61.229</ele>
        <time>2020-07-19T10:00:13Z</time>
      </trkpt>
      <trkpt lat="47.37111" lon="-1.05243">
        <ele>61.137</ele>
        <time>2020-07-19T10:00:14Z</time>
      </trkpt>
      <trkpt lat="47.37111" lon="-1.05243">
        <ele>61.412</ele>
        <time>2020-07-19T10:00:15Z</time>
      </trkpt>
      <trkpt lat="47.37111" lon="-1.05243">
        <ele>61.403</ele>
        <time>2020-07-19T10:00:16Z</time>
      </trkpt>
      <trkpt lat="47.37111" lon="-1.05243">
        <ele>61.438</ele>
        <time>2020-07-19T10:00:17Z</time>
      </trkpt>
      <trkpt lat="47.3711" lon="-1.05244">
        <ele>61.429</ele>
        <time>2020-07-19T10:00:18Z</time>
      </trkpt>
      <trkpt lat="47.3711" lon="-1.05244">
        <ele>61.442</ele>
        <time>2020-07-19T10:00:19Z</time>
      </trkpt>
      <trkpt lat="47.3711" lon="-1.05244">
        <ele>61.437</ele>
        <time>2020-07-19T10:00:20Z</time>
      </trkpt>
      <trkpt lat="47.3711" lon="-1.05244">
        <ele>61.439</ele>
        <time>2020-07-19T10:00:21Z</time>
      </trkpt>
      <trkpt lat="47.37111" lon="-1.05244">
        <ele>60.962</ele>
        <time>2020-07-19T10:00:22Z</time>
      </trkpt>
      <trkpt lat="47.37111" lon="-1.05245">
        <ele>59.902</ele>
        <time>2020-07-19T10:00:23Z</time>
      </trkpt>
      <trkpt lat="47.37111" lon="-1.05246">
        <ele>59.523</ele>
        <time>2020-07-19T10:00:24Z</time>
      </trkpt>
      <trkpt lat="47.3711" lon="-1.05247">
        <ele>59.706</ele>
        <time>2020-07-19T10:00:25Z</time>
      </trkpt>
      <trkpt lat="47.3711" lon="-1.05247">
        <ele>60.411</ele>
        <time>2020-07-19T10:00:26Z</time>
      </trkpt>
      <trkpt lat="47.3711" lon="-1.05248">
        <ele>59.7</ele>
        <time>2020-07-19T10:00:27Z</time>
      </trkpt>
      <trkpt lat="47.3711" lon="-1.05248">
        <ele>59.895</ele>
        <time>2020-07-19T10:00:28Z</time>
      </trkpt>
      <trkpt lat="47.3711" lon="-1.05249">
        <ele>59.903</ele>
        <time>2020-07-19T10:00:29Z</time>
      </trkpt>
      <trkpt lat="47.3711" lon="-1.05249">
        <ele>60.423</ele>
        <time>2020-07-19T10:00:30Z</time>
      </trkpt>
      <trkpt lat="47.3711" lon="-1.05249">
        <ele>60.101</ele>
        <time>2020-07-19T10:00:31Z</time>
      </trkpt>
      <trkpt lat="47.3711" lon="-1.05249">
        <ele>59.412</ele>
        <time>2020-07-19T10:00:32Z</time>
      </trkpt>
      <trkpt lat="47.3711" lon="-1.05249">
        <ele>58.947</ele>
        <time>2020-07-19T10:00:33Z</time>
      </trkpt>
      <trkpt lat="47.3711" lon="-1.05249">
        <ele>58.713</ele>
        <time>2020-07-19T10:00:34Z</time>
      </trkpt>
      <trkpt lat="47.3711" lon="-1.05249">
        <ele>58.621</ele>
        <time>2020-07-19T10:00:35Z</time>
      </trkpt>
      <trkpt lat="47.3711" lon="-1.05249">
        <ele>58.696</ele>
        <time>2020-07-19T10:00:36Z</time>
      </trkpt>
      <trkpt lat="47.3711" lon="-1.05249">
        <ele>58.686</ele>
        <time>2020-07-19T10:00:37Z</time>
      </trkpt>
      <trkpt lat="47.3711" lon="-1.05249">
        <ele>58.686</ele>
        <time>2020-07-19T10:00:38Z</time>
      </trkpt>
      <trkpt lat="47.3711" lon="-1.05249">
        <ele>58.682</ele>
        <time>2020-07-19T10:00:39Z</time>
      </trkpt>
      <trkpt lat="47.3711" lon="-1.05249">
        <ele>58.679</ele>
        <time>2020-07-19T10:00:40Z</time>
      </trkpt>
      <trkpt lat="47.3711" lon="-1.05249">
        <ele>58.699</ele>
        <time>2020-07-19T10:00:41Z</time>
      </trkpt>
      <trkpt lat="47.3711" lon="-1.05249">
        <ele>58.694</ele>
        <time>2020-07-19T10:00:42Z</time>
      </trkpt>
      <trkpt lat="47.3711" lon="-1.05249">
        <ele>58.69</ele>
        <time>2020-07-19T10:00:43Z</time>
      </trkpt>
      <trkpt lat="47.3711" lon="-1.0525">
        <ele>58.857</ele>
        <time>2020-07-19T10:00:44Z</time>
      </trkpt>
      <trkpt lat="47.3711" lon="-1.05252">
        <ele>59.144</ele>
        <time>2020-07-19T10:00:45Z</time>
      </trkpt>
      <trkpt lat="47.3711" lon="-1.05253">
        <ele>59.428</ele>
        <time>2020-07-19T10:00:46Z</time>
      </trkpt>
      <trkpt lat="47.3711" lon="-1.05255">
        <ele>59.113</ele>
        <time>2020-07-19T10:00:47Z</time>
      </trkpt>
      <trkpt lat="47.37111" lon="-1.05258">
        <ele>59.367</ele>
        <time>2020-07-19T10:00:48Z</time>
      </trkpt>
      <trkpt lat="47.37111" lon="-1.0526">
        <ele>59.08</ele>
        <time>2020-07-19T10:00:49Z</time>
      </trkpt>
      <trkpt lat="47.37112" lon="-1.05264">
        <ele>59.066</ele>
        <time>2020-07-19T10:00:50Z</time>
      </trkpt>
      <trkpt lat="47.37112" lon="-1.05267">
        <ele>58.582</ele>
        <time>2020-07-19T10:00:51Z</time>
      </trkpt>
      <trkpt lat="47.37112" lon="-1.05272">
        <ele>58.034</ele>
        <time>2020-07-19T10:00:52Z</time>
      </trkpt>
      <trkpt lat="47.37113" lon="-1.05276">
        <ele>57.944</ele>
        <time>2020-07-19T10:00:53Z</time>
      </trkpt>
      <trkpt lat="47.37113" lon="-1.0528">
        <ele>57.72</ele>
        <time>2020-07-19T10:00:54Z</time>
      </trkpt>
      <trkpt lat="47.37113" lon="-1.05284">
        <ele>58.141</ele>
        <time>2020-07-19T10:00:55Z</time>
      </trkpt>
      <trkpt lat="47.37114" lon="-1.05288">
        <ele>56.902</ele>
        <time>2020-07-19T10:00:56Z</time>
      </trkpt>
      <trkpt lat="47.37114" lon="-1.05292">
        <ele>56.561</ele>
        <time>2020-07-19T10:00:57Z</time>
      </trkpt>
      <trkpt lat="47.37115" lon="-1.05296">
        <ele>56.386</ele>
        <time>2020-07-19T10:00:58Z</time>
      </trkpt>
      <trkpt lat="47.37115" lon="-1.053">
        <ele>55.762</ele>
        <time>2020-07-19T10:00:59Z</time>
      </trkpt>
      <trkpt lat="47.37114" lon="-1.05304">
        <ele>56.04</ele>
        <time>2020-07-19T10:01:00Z</time>
      </trkpt>
      <trkpt lat="47.37114" lon="-1.05308">
        <ele>56.081</ele>
        <time>2020-07-19T10:01:01Z</time>
      </trkpt>
      <trkpt lat="47.37113" lon="-1.05312">
        <ele>55.117</ele>
        <time>2020-07-19T10:01:02Z</time>
      </trkpt>
      <trkpt lat="47.37113" lon="-1.05316">
        <ele>54.473</ele>
        <time>2020-07-19T10:01:03Z</time>
      </trkpt>
      <trkpt lat="47.37113" lon="-1.0532">
        <ele>54.919</ele>
        <time>2020-07-19T10:01:04Z</time>
      </trkpt>
      <trkpt lat="47.37113" lon="-1.05324">
        <ele>55.444</ele>
        <time>2020-07-19T10:01:05Z</time>
      </trkpt>
      <trkpt lat="47.37114" lon="-1.05329">
        <ele>56.289</ele>
        <time>2020-07-19T10:01:06Z</time>
      </trkpt>
      <trkpt lat="47.37115" lon="-1.05334">
        <ele>56.928</ele>
        <time>2020-07-19T10:01:07Z</time>
      </trkpt>
      <trkpt lat="47.37116" lon="-1.05338">
        <ele>56.487</ele>
        <time>2020-07-19T10:01:08Z</time>
      </trkpt>
      <trkpt lat="47.37116" lon="-1.05343">
        <ele>56.568</ele>
        <time>2020-07-19T10:01:09Z</time>
      </trkpt>
      <trkpt lat="47.37116" lon="-1.05347">
        <ele>56.508</ele>
        <time>2020-07-19T10:01:10Z</time>
      </trkpt>
      <trkpt lat="47.37116" lon="-1.05351">
        <ele>57.024</ele>
        <time>2020-07-19T10:01:11Z</time>
      </trkpt>
      <trkpt lat="47.37117" lon="-1.05356">
        <ele>56.667</ele>
        <time>2020-07-19T10:01:12Z</time>
      </trkpt>
      <trkpt lat="47.37117" lon="-1.0536">
        <ele>56.65</ele>
        <time>2020-07-19T10:01:13Z</time>
      </trkpt>
      <trkpt lat="47.37118" lon="-1.05364">
        <ele>55.873</ele>
        <time>2020-07-19T10:01:14Z</time>
      </trkpt>
      <trkpt lat="47.37118" lon="-1.05369">
        <ele>56.79</ele>
        <time>2020-07-19T10:01:15Z</time>
      </trkpt>
      <trkpt lat="47.37119" lon="-1.05373">
        <ele>57.477</ele>
        <time>2020-07-19T10:01:16Z</time>
      </trkpt>
      <trkpt lat="47.3712" lon="-1.05377">
        <ele>57.35</ele>
        <time>2020-07-19T10:01:17Z</time>
      </trkpt>
      <trkpt lat="47.37121" lon="-1.05381">
        <ele>56.881</ele>
        <time>2020-07-19T10:01:18Z</time>
      </trkpt>
      <trkpt lat="47.37123" lon="-1.05384">
        <ele>56.64</ele>
        <time>2020-07-19T10:01:19Z</time>
      </trkpt>
      <trkpt lat="47.37124" lon="-1.05387">
        <ele>56.36</ele>
        <time>2020-07-19T10:01:20Z</time>
      </trkpt>
      <trkpt lat="47.37125" lon="-1.05391">
        <ele>56.052</ele>
        <time>2020-07-19T10:01:21Z</time>
      </trkpt>
      <trkpt lat="47.37126" lon="-1.05396">
        <ele>55.208</ele>
        <time>2020-07-19T10:01:22Z</time>
      </trkpt>
      <trkpt lat="47.37126" lon="-1.054">
        <ele>54.046</ele>
        <time>2020-07-19T10:01:23Z</time>
      </trkpt>
      <trkpt lat="47.37126" lon="-1.05404">
        <ele>54.31</ele>
        <time>2020-07-19T10:01:24Z</time>
      </trkpt>
      <trkpt lat="47.37126" lon="-1.05408">
        <ele>53.553</ele>
        <time>2020-07-19T10:01:25Z</time>
      </trkpt>
      <trkpt lat="47.37126" lon="-1.05412">
        <ele>52.922</ele>
        <time>2020-07-19T10:01:26Z</time>
      </trkpt>
      <trkpt lat="47.37126" lon="-1.05415">
        <ele>52.392</ele>
        <time>2020-07-19T10:01:27Z</time>
      </trkpt>
      <trkpt lat="47.37126" lon="-1.05419">
        <ele>52.217</ele>
        <time>2020-07-19T10:01:28Z</time>
      </trkpt>
      <trkpt lat="47.37126" lon="-1.05422">
        <ele>52.8</ele>
        <time>2020-07-19T10:01:29Z</time>
      </trkpt>
      <trkpt lat="47.37125" lon="-1.05425">
        <ele>53.381</ele>
        <time>2020-07-19T10:01:30Z</time>
      </trkpt>
      <trkpt lat="47.37125" lon="-1.05429">
        <ele>53.205</ele>
        <time>2020-07-19T10:01:31Z</time>
      </trkpt>
      <trkpt lat="47.37125" lon="-1.05431">
        <ele>52.138</ele>
        <time>2020-07-19T10:01:32Z</time>
      </trkpt>
      <trkpt lat="47.37125" lon="-1.05435">
        <ele>52.663</ele>
        <time>2020-07-19T10:01:33Z</time>
      </trkpt>
      <trkpt lat="47.37125" lon="-1.05439">
        <ele>53.632</ele>
        <time>2020-07-19T10:01:34Z</time>
      </trkpt>
      <trkpt lat="47.37125" lon="-1.05441">
        <ele>54.548</ele>
        <time>2020-07-19T10:01:35Z</time>
      </trkpt>
      <trkpt lat="47.37125" lon="-1.05445">
        <ele>54.73</ele>
        <time>2020-07-19T10:01:36Z</time>
      </trkpt>
      <trkpt lat="47.37125" lon="-1.05449">
        <ele>54.281</ele>
        <time>2020-07-19T10:01:37Z</time>
      </trkpt>
      <trkpt lat="47.37125" lon="-1.05453">
        <ele>54.296</ele>
        <time>2020-07-19T10:01:38Z</time>
      </trkpt>
      <trkpt lat="47.37126" lon="-1.05457">
        <ele>54.376</ele>
        <time>2020-07-19T10:01:39Z</time>
      </trkpt>
      <trkpt lat="47.37126" lon="-1.0546">
        <ele>54.246</ele>
        <time>2020-07-19T10:01:40Z</time>
      </trkpt>
      <trkpt lat="47.37127" lon="-1.05465">
        <ele>53.627</ele>
        <time>2020-07-19T10:01:41Z</time>
      </trkpt>
      <trkpt lat="47.37127" lon="-1.05469">
        <ele>53.701</ele>
        <time>2020-07-19T10:01:42Z</time>
      </trkpt>
      <trkpt lat="47.37128" lon="-1.05474">
        <ele>53.642</ele>
        <time>2020-07-19T10:01:43Z</time>
      </trkpt>
      <trkpt lat="47.37128" lon="-1.05479">
        <ele>54.03</ele>
        <time>2020-07-19T10:01:44Z</time>
      </trkpt>
      <trkpt lat="47.37128" lon="-1.05484">
        <ele>54.873</ele>
        <time>2020-07-19T10:01:45Z</time>
      </trkpt>
      <trkpt lat="47.37129" lon="-1.05489">
        <ele>54.674</ele>
        <time>2020-07-19T10:01:46Z</time>
      </trkpt>
      <trkpt lat="47.37129" lon="-1.05494">
        <ele>54.453</ele>
        <time>2020-07-19T10:01:47Z</time>
      </trkpt>
      <trkpt lat="47.3713" lon="-1.05499">
        <ele>54.768</ele>
        <time>2020-07-19T10:01:48Z</time>
      </trkpt>
      <trkpt lat="47.3713" lon="-1.05504">
        <ele>52.995</ele>
        <time>2020-07-19T10:01:49Z</time>
      </trkpt>
      <trkpt lat="47.3713" lon="-1.05509">
        <ele>51.718</ele>
        <time>2020-07-19T10:01:50Z</time>
      </trkpt>
      <trkpt lat="47.37129" lon="-1.05513">
        <ele>51.684</ele>
        <time>2020-07-19T10:01:51Z</time>
      </trkpt>
      <trkpt lat="47.37129" lon="-1.05517">
        <ele>52.175</ele>
        <time>2020-07-19T10:01:52Z</time>
      </trkpt>
      <trkpt lat="47.3713" lon="-1.05522">
        <ele>51.943</ele>
        <time>2020-07-19T10:01:53Z</time>
      </trkpt>
      <trkpt lat="47.3713" lon="-1.05526">
        <ele>52.37</ele>
        <time>2020-07-19T10:01:54Z</time>
      </trkpt>
      <trkpt lat="47.37131" lon="-1.05529">
        <ele>53.992</ele>
        <time>2020-07-19T10:01:55Z</time>
      </trkpt>
      <trkpt lat="47.37131" lon="-1.05533">
        <ele>54.328</ele>
        <time>2020-07-19T10:01:56Z</time>
      </trkpt>
      <trkpt lat="47.37132" lon="-1.05536">
        <ele>54.598</ele>
        <time>2020-07-19T10:01:57Z</time>
      </trkpt>
      <trkpt lat="47.37133" lon="-1.05539">
        <ele>55.688</ele>
        <time>2020-07-19T10:01:58Z</time>
      </trkpt>
      <trkpt lat="47.37133" lon="-1.05542">
        <ele>55.569</ele>
        <time>2020-07-19T10:01:59Z</time>
      </trkpt>
      <trkpt lat="47.37135" lon="-1.05546">
        <ele>54.617</ele>
        <time>2020-07-19T10:02:00Z</time>
      </trkpt>
      <trkpt lat="47.37135" lon="-1.05551">
        <ele>53.838</ele>
        <time>2020-07-19T10:02:01Z</time>
      </trkpt>
      <trkpt lat="47.37136" lon="-1.05556">
        <ele>54.6</ele>
        <time>2020-07-19T10:02:02Z</time>
      </trkpt>
      <trkpt lat="47.37136" lon="-1.0556">
        <ele>55.283</ele>
        <time>2020-07-19T10:02:03Z</time>
      </trkpt>
      <trkpt lat="47.37136" lon="-1.05563">
        <ele>55.028</ele>
        <time>2020-07-19T10:02:04Z</time>
      </trkpt>
      <trkpt lat="47.37137" lon="-1.05567">
        <ele>55.297</ele>
        <time>2020-07-19T10:02:05Z</time>
      </trkpt>
      <trkpt lat="47.37137" lon="-1.0557">
        <ele>55.875</ele>
        <time>2020-07-19T10:02:06Z</time>
      </trkpt>
      <trkpt lat="47.37137" lon="-1.05573">
        <ele>56.013</ele>
        <time>2020-07-19T10:02:07Z</time>
      </trkpt>
      <trkpt lat="47.37138" lon="-1.05576">
        <ele>54.726</ele>
        <time>2020-07-19T10:02:08Z</time>
      </trkpt>
      <trkpt lat="47.37138" lon="-1.0558">
        <ele>56.318</ele>
        <time>2020-07-19T10:02:09Z</time>
      </trkpt>
      <trkpt lat="47.37138" lon="-1.05584">
        <ele>56.948</ele>
        <time>2020-07-19T10:02:10Z</time>
      </trkpt>
      <trkpt lat="47.37138" lon="-1.05588">
        <ele>57.383</ele>
        <time>2020-07-19T10:02:11Z</time>
      </trkpt>
      <trkpt lat="47.37138" lon="-1.05593">
        <ele>57.357</ele>
        <time>2020-07-19T10:02:12Z</time>
      </trkpt>
      <trkpt lat="47.37138" lon="-1.05597">
        <ele>57.13</ele>
        <time>2020-07-19T10:02:13Z</time>
      </trkpt>
      <trkpt lat="47.37138" lon="-1.05601">
        <ele>56.643</ele>
        <time>2020-07-19T10:02:14Z</time>
      </trkpt>
      <trkpt lat="47.37138" lon="-1.05606">
        <ele>57.025</ele>
        <time>2020-07-19T10:02:15Z</time>
      </trkpt>
      <trkpt lat="47.37139" lon="-1.05611">
        <ele>57.443</ele>
        <time>2020-07-19T10:02:16Z</time>
      </trkpt>
      <trkpt lat="47.3714" lon="-1.05616">
        <ele>58.923</ele>
        <time>2020-07-19T10:02:17Z</time>
      </trkpt>
      <trkpt lat="47.37141" lon="-1.0562">
        <ele>57.609</ele>
        <time>2020-07-19T10:02:18Z</time>
      </trkpt>
      <trkpt lat="47.37143" lon="-1.05623">
        <ele>55.945</ele>
        <time>2020-07-19T10:02:19Z</time>
      </trkpt>
      <trkpt lat="47.37145" lon="-1.05627">
        <ele>55.853</ele>
        <time>2020-07-19T10:02:20Z</time>
      </trkpt>
      <trkpt lat="47.37146" lon="-1.05629">
        <ele>55.442</ele>
        <time>2020-07-19T10:02:21Z</time>
      </trkpt>
      <trkpt lat="47.37149" lon="-1.05631">
        <ele>54.747</ele>
        <time>2020-07-19T10:02:22Z</time>
      </trkpt>
      <trkpt lat="47.3715" lon="-1.05633">
        <ele>54.325</ele>
        <time>2020-07-19T10:02:23Z</time>
      </trkpt>
      <trkpt lat="47.37153" lon="-1.05636">
        <ele>53.369</ele>
        <time>2020-07-19T10:02:24Z</time>
      </trkpt>
      <trkpt lat="47.37155" lon="-1.05639">
        <ele>53.009</ele>
        <time>2020-07-19T10:02:25Z</time>
      </trkpt>
      <trkpt lat="47.37158" lon="-1.05642">
        <ele>52.326</ele>
        <time>2020-07-19T10:02:26Z</time>
      </trkpt>
      <trkpt lat="47.37161" lon="-1.05645">
        <ele>51.164</ele>
        <time>2020-07-19T10:02:27Z</time>
      </trkpt>
      <trkpt lat="47.37163" lon="-1.05648">
        <ele>51.124</ele>
        <time>2020-07-19T10:02:28Z</time>
      </trkpt>
      <trkpt lat="47.37165" lon="-1.05652">
        <ele>51.293</ele>
        <time>2020-07-19T10:02:29Z</time>
      </trkpt>
      <trkpt lat="47.37167" lon="-1.05656">
        <ele>56.247</ele>
        <time>2020-07-19T10:02:30Z</time>
      </trkpt>
      <trkpt lat="47.37168" lon="-1.0566">
        <ele>55.296</ele>
        <time>2020-07-19T10:02:31Z</time>
      </trkpt>
      <trkpt lat="47.37169" lon="-1.05665">
        <ele>55.022</ele>
        <time>2020-07-19T10:02:32Z</time>
      </trkpt>
      <trkpt lat="47.3717" lon="-1.05669">
        <ele>54.897</ele>
        <time>2020-07-19T10:02:33Z</time>
      </trkpt>
      <trkpt lat="47.37171" lon="-1.05673">
        <ele>54.771</ele>
        <time>2020-07-19T10:02:34Z</time>
      </trkpt>
      <trkpt lat="47.37172" lon="-1.05677">
        <ele>54.863</ele>
        <time>2020-07-19T10:02:35Z</time>
      </trkpt>
      <trkpt lat="47.37172" lon="-1.05681">
        <ele>55.278</ele>
        <time>2020-07-19T10:02:36Z</time>
      </trkpt>
      <trkpt lat="47.37173" lon="-1.05684">
        <ele>55.105</ele>
        <time>2020-07-19T10:02:37Z</time>
      </trkpt>
      <trkpt lat="47.37174" lon="-1.05686">
        <ele>54.747</ele>
        <time>2020-07-19T10:02:38Z</time>
      </trkpt>
      <trkpt lat="47.37175" lon="-1.05688">
        <ele>53.924</ele>
        <time>2020-07-19T10:02:39Z</time>
      </trkpt>
      <trkpt lat="47.37175" lon="-1.0569">
        <ele>54.074</ele>
        <time>2020-07-19T10:02:40Z</time>
      </trkpt>
      <trkpt lat="47.37176" lon="-1.05693">
        <ele>53.798</ele>
        <time>2020-07-19T10:02:41Z</time>
      </trkpt>
      <trkpt lat="47.37176" lon="-1.05697">
        <ele>54.201</ele>
        <time>2020-07-19T10:02:42Z</time>
      </trkpt>
      <trkpt lat="47.37177" lon="-1.05699">
        <ele>54.501</ele>
        <time>2020-07-19T10:02:43Z</time>
      </trkpt>
      <trkpt lat="47.37177" lon="-1.057">
        <ele>54.561</ele>
        <time>2020-07-19T10:02:44Z</time>
      </trkpt>
      <trkpt lat="47.37177" lon="-1.05701">
        <ele>54.485</ele>
        <time>2020-07-19T10:02:45Z</time>
      </trkpt>
      <trkpt lat="47.37177" lon="-1.05701">
        <ele>54.129</ele>
        <time>2020-07-19T10:02:46Z</time>
      </trkpt>
      <trkpt lat="47.37176" lon="-1.05701">
        <ele>53.654</ele>
        <time>2020-07-19T10:02:47Z</time>
      </trkpt>
      <trkpt lat="47.37176" lon="-1.05701">
        <ele>53.544</ele>
        <time>2020-07-19T10:02:48Z</time>
      </trkpt>
      <trkpt lat="47.37176" lon="-1.05703">
        <ele>53.336</ele>
        <time>2020-07-19T10:02:49Z</time>
      </trkpt>
      <trkpt lat="47.37176" lon="-1.05704">
        <ele>53.01</ele>
        <time>2020-07-19T10:02:50Z</time>
      </trkpt>
      <trkpt lat="47.37176" lon="-1.05705">
        <ele>52.64</ele>
        <time>2020-07-19T10:02:51Z</time>
      </trkpt>
      <trkpt lat="47.37176" lon="-1.05706">
        <ele>51.838</ele>
        <time>2020-07-19T10:02:52Z</time>
      </trkpt>
      <trkpt lat="47.37176" lon="-1.05707">
        <ele>52.544</ele>
        <time>2020-07-19T10:02:53Z</time>
      </trkpt>
      <trkpt lat="47.37176" lon="-1.05708">
        <ele>53.291</ele>
        <time>2020-07-19T10:02:54Z</time>
      </trkpt>
      <trkpt lat="47.37176" lon="-1.0571">
        <ele>52.434</ele>
        <time>2020-07-19T10:02:55Z</time>
      </trkpt>
      <trkpt lat="47.37176" lon="-1.05712">
        <ele>52.498</ele>
        <time>2020-07-19T10:02:56Z</time>
      </trkpt>
      <trkpt lat="47.37176" lon="-1.05715">
        <ele>52.173</ele>
        <time>2020-07-19T10:02:57Z</time>
      </trkpt>
      <trkpt lat="47.37176" lon="-1.05718">
        <ele>53.048</ele>
        <time>2020-07-19T10:02:58Z</time>
      </trkpt>
      <trkpt lat="47.37176" lon="-1.05721">
        <ele>53.446</ele>
        <time>2020-07-19T10:02:59Z</time>
      </trkpt>
      <trkpt lat="47.37177" lon="-1.05725">
        <ele>53.651</ele>
        <time>2020-07-19T10:03:00Z</time>
      </trkpt>
      <trkpt lat="47.37177" lon="-1.05728">
        <ele>53.836</ele>
        <time>2020-07-19T10:03:01Z</time>
      </trkpt>
      <trkpt lat="47.37177" lon="-1.05732">
        <ele>52.817</ele>
        <time>2020-07-19T10:03:03Z</time>
      </trkpt>
      <trkpt lat="47.37175" lon="-1.05733">
        <ele>53.698</ele>
        <time>2020-07-19T10:03:05Z</time>
      </trkpt>
      <trkpt lat="47.37175" lon="-1.05734">
        <ele>54.027</ele>
        <time>2020-07-19T10:03:06Z</time>
      </trkpt>
      <trkpt lat="47.37174" lon="-1.05735">
        <ele>54.779</ele>
        <time>2020-07-19T10:03:07Z</time>
      </trkpt>
      <trkpt lat="47.37174" lon="-1.05735">
        <ele>55.258</ele>
        <time>2020-07-19T10:03:08Z</time>
      </trkpt>
      <trkpt lat="47.37173" lon="-1.05735">
        <ele>55.507</ele>
        <time>2020-07-19T10:03:09Z</time>
      </trkpt>
      <trkpt lat="47.37173" lon="-1.05735">
        <ele>56.24</ele>
        <time>2020-07-19T10:03:10Z</time>
      </trkpt>
      <trkpt lat="47.37172" lon="-1.05736">
        <ele>56.242</ele>
        <time>2020-07-19T10:03:11Z</time>
      </trkpt>
      <trkpt lat="47.37172" lon="-1.05737">
        <ele>56.456</ele>
        <time>2020-07-19T10:03:12Z</time>
      </trkpt>
      <trkpt lat="47.37172" lon="-1.05738">
        <ele>56.615</ele>
        <time>2020-07-19T10:03:13Z</time>
      </trkpt>
      <trkpt lat="47.37172" lon="-1.05739">
        <ele>56.518</ele>
        <time>2020-07-19T10:03:14Z</time>
      </trkpt>
      <trkpt lat="47.37172" lon="-1.05741">
        <ele>56.095</ele>
        <time>2020-07-19T10:03:15Z</time>
      </trkpt>
      <trkpt lat="47.37172" lon="-1.05744">
        <ele>56.279</ele>
        <time>2020-07-19T10:03:16Z</time>
      </trkpt>
      <trkpt lat="47.37173" lon="-1.05746">
        <ele>58.685</ele>
        <time>2020-07-19T10:03:17Z</time>
      </trkpt>
      <trkpt lat="47.37173" lon="-1.0575">
        <ele>58.39</ele>
        <time>2020-07-19T10:03:18Z</time>
      </trkpt>
      <trkpt lat="47.37174" lon="-1.05754">
        <ele>58.12</ele>
        <time>2020-07-19T10:03:19Z</time>
      </trkpt>
      <trkpt lat="47.37174" lon="-1.05758">
        <ele>57.591</ele>
        <time>2020-07-19T10:03:20Z</time>
      </trkpt>
      <trkpt lat="47.37174" lon="-1.05762">
        <ele>57.248</ele>
        <time>2020-07-19T10:03:21Z</time>
      </trkpt>
      <trkpt lat="47.37174" lon="-1.05766">
        <ele>57.234</ele>
        <time>2020-07-19T10:03:22Z</time>
      </trkpt>
      <trkpt lat="47.37174" lon="-1.05769">
        <ele>56.683</ele>
        <time>2020-07-19T10:03:23Z</time>
      </trkpt>
      <trkpt lat="47.37175" lon="-1.05773">
        <ele>56.674</ele>
        <time>2020-07-19T10:03:24Z</time>
      </trkpt>
      <trkpt lat="47.37175" lon="-1.05777">
        <ele>56.249</ele>
        <time>2020-07-19T10:03:25Z</time>
      </trkpt>
      <trkpt lat="47.37175" lon="-1.05782">
        <ele>54.897</ele>
        <time>2020-07-19T10:03:26Z</time>
      </trkpt>
      <trkpt lat="47.37175" lon="-1.05787">
        <ele>53.706</ele>
        <time>2020-07-19T10:03:27Z</time>
      </trkpt>
      <trkpt lat="47.37175" lon="-1.05792">
        <ele>52.985</ele>
        <time>2020-07-19T10:03:28Z</time>
      </trkpt>
      <trkpt lat="47.37175" lon="-1.05796">
        <ele>52.573</ele>
        <time>2020-07-19T10:03:29Z</time>
      </trkpt>
      <trkpt lat="47.37175" lon="-1.05799">
        <ele>52.258</ele>
        <time>2020-07-19T10:03:30Z</time>
      </trkpt>
      <trkpt lat="47.37176" lon="-1.05802">
        <ele>51.649</ele>
        <time>2020-07-19T10:03:31Z</time>
      </trkpt>
      <trkpt lat="47.37177" lon="-1.05804">
        <ele>50.782</ele>
        <time>2020-07-19T10:03:32Z</time>
      </trkpt>
      <trkpt lat="47.37178" lon="-1.05807">
        <ele>51.667</ele>
        <time>2020-07-19T10:03:33Z</time>
      </trkpt>
      <trkpt lat="47.37179" lon="-1.05809">
        <ele>52.069</ele>
        <time>2020-07-19T10:03:34Z</time>
      </trkpt>
      <trkpt lat="47.37181" lon="-1.05811">
        <ele>52.495</ele>
        <time>2020-07-19T10:03:35Z</time>
      </trkpt>
      <trkpt lat="47.37183" lon="-1.05812">
        <ele>52.981</ele>
        <time>2020-07-19T10:03:36Z</time>
      </trkpt>
      <trkpt lat="47.37185" lon="-1.05814">
        <ele>51.008</ele>
        <time>2020-07-19T10:03:37Z</time>
      </trkpt>
      <trkpt lat="47.37187" lon="-1.05815">
        <ele>50.731</ele>
        <time>2020-07-19T10:03:38Z</time>
      </trkpt>
      <trkpt lat="47.37188" lon="-1.05816">
        <ele>51.522</ele>
        <time>2020-07-19T10:03:39Z</time>
      </trkpt>
      <trkpt lat="47.37189" lon="-1.05818">
        <ele>50.276</ele>
        <time>2020-07-19T10:03:40Z</time>
      </trkpt>
      <trkpt lat="47.37189" lon="-1.0582">
        <ele>49.747</ele>
        <time>2020-07-19T10:03:41Z</time>
      </trkpt>
      <trkpt lat="47.37189" lon="-1.05824">
        <ele>49.388</ele>
        <time>2020-07-19T10:03:42Z</time>
      </trkpt>
      <trkpt lat="47.37189" lon="-1.05827">
        <ele>48.967</ele>
        <time>2020-07-19T10:03:43Z</time>
      </trkpt>
      <trkpt lat="47.37189" lon="-1.05831">
        <ele>48.655</ele>
        <time>2020-07-19T10:03:44Z</time>
      </trkpt>
      <trkpt lat="47.37189" lon="-1.05834">
        <ele>48.566</ele>
        <time>2020-07-19T10:03:45Z</time>
      </trkpt>
      <trkpt lat="47.3719" lon="-1.05838">
        <ele>50.352</ele>
        <time>2020-07-19T10:03:46Z</time>
      </trkpt>
      <trkpt lat="47.37191" lon="-1.05841">
        <ele>51.043</ele>
        <time>2020-07-19T10:03:47Z</time>
      </trkpt>
      <trkpt lat="47.37192" lon="-1.05845">
        <ele>51.138</ele>
        <time>2020-07-19T10:03:48Z</time>
      </trkpt>
      <trkpt lat="47.37192" lon="-1.05849">
        <ele>51.196</ele>
        <time>2020-07-19T10:03:49Z</time>
      </trkpt>
      <trkpt lat="47.37193" lon="-1.05853">
        <ele>50.94</ele>
        <time>2020-07-19T10:03:50Z</time>
      </trkpt>
      <trkpt lat="47.37194" lon="-1.05858">
        <ele>51.086</ele>
        <time>2020-07-19T10:03:51Z</time>
      </trkpt>
      <trkpt lat="47.37194" lon="-1.05863">
        <ele>51.891</ele>
        <time>2020-07-19T10:03:52Z</time>
      </trkpt>
      <trkpt lat="47.37194" lon="-1.05869">
        <ele>52.383</ele>
        <time>2020-07-19T10:03:53Z</time>
      </trkpt>
      <trkpt lat="47.37194" lon="-1.05874">
        <ele>52.438</ele>
        <time>2020-07-19T10:03:54Z</time>
      </trkpt>
      <trkpt lat="47.37195" lon="-1.05879">
        <ele>52.487</ele>
        <time>2020-07-19T10:03:55Z</time>
      </trkpt>
      <trkpt lat="47.37195" lon="-1.05883">
        <ele>53.533</ele>
        <time>2020-07-19T10:03:56Z</time>
      </trkpt>
      <trkpt lat="47.37196" lon="-1.05887">
        <ele>55.339</ele>
        <time>2020-07-19T10:03:57Z</time>
      </trkpt>
      <trkpt lat="47.37196" lon="-1.05891">
        <ele>56.532</ele>
        <time>2020-07-19T10:03:58Z</time>
      </trkpt>
      <trkpt lat="47.37196" lon="-1.05894">
        <ele>56.65</ele>
        <time>2020-07-19T10:03:59Z</time>
      </trkpt>
      <trkpt lat="47.37197" lon="-1.05897">
        <ele>56.315</ele>
        <time>2020-07-19T10:04:00Z</time>
      </trkpt>
      <trkpt lat="47.37197" lon="-1.05899">
        <ele>56.587</ele>
        <time>2020-07-19T10:04:01Z</time>
      </trkpt>
      <trkpt lat="47.37196" lon="-1.05899">
        <ele>56.571</ele>
        <time>2020-07-19T10:04:02Z</time>
      </trkpt>
      <trkpt lat="47.37196" lon="-1.05899">
        <ele>56.568</ele>
        <time>2020-07-19T10:04:03Z</time>
      </trkpt>
      <trkpt lat="47.37196" lon="-1.059">
        <ele>56.725</ele>
        <time>2020-07-19T10:04:04Z</time>
      </trkpt>
      <trkpt lat="47.37196" lon="-1.059">
        <ele>56.621</ele>
        <time>2020-07-19T10:04:05Z</time>
      </trkpt>
      <trkpt lat="47.37196" lon="-1.059">
        <ele>56.383</ele>
        <time>2020-07-19T10:04:06Z</time>
      </trkpt>
      <trkpt lat="47.37196" lon="-1.059">
        <ele>56.243</ele>
        <time>2020-07-19T10:04:07Z</time>
      </trkpt>
      <trkpt lat="47.37195" lon="-1.05902">
        <ele>56.595</ele>
        <time>2020-07-19T10:04:08Z</time>
      </trkpt>
      <trkpt lat="47.37195" lon="-1.05904">
        <ele>56.775</ele>
        <time>2020-07-19T10:04:09Z</time>
      </trkpt>
      <trkpt lat="47.37195" lon="-1.05908">
        <ele>57.053</ele>
        <time>2020-07-19T10:04:10Z</time>
      </trkpt>
      <trkpt lat="47.37195" lon="-1.05912">
        <ele>57.089</ele>
        <time>2020-07-19T10:04:11Z</time>
      </trkpt>
      <trkpt lat="47.37195" lon="-1.05915">
        <ele>58.95</ele>
        <time>2020-07-19T10:04:12Z</time>
      </trkpt>
      <trkpt lat="47.37196" lon="-1.05917">
        <ele>59.139</ele>
        <time>2020-07-19T10:04:13Z</time>
      </trkpt>
      <trkpt lat="47.37196" lon="-1.0592">
        <ele>58.514</ele>
        <time>2020-07-19T10:04:14Z</time>
      </trkpt>
      <trkpt lat="47.37197" lon="-1.05921">
        <ele>59.765</ele>
        <time>2020-07-19T10:04:15Z</time>
      </trkpt>
      <trkpt lat="47.37198" lon="-1.05922">
        <ele>60.761</ele>
        <time>2020-07-19T10:04:16Z</time>
      </trkpt>
      <trkpt lat="47.37198" lon="-1.05925">
        <ele>62.924</ele>
        <time>2020-07-19T10:04:17Z</time>
      </trkpt>
      <trkpt lat="47.37199" lon="-1.05927">
        <ele>62.857</ele>
        <time>2020-07-19T10:04:18Z</time>
      </trkpt>
      <trkpt lat="47.372" lon="-1.0593">
        <ele>62.998</ele>
        <time>2020-07-19T10:04:19Z</time>
      </trkpt>
      <trkpt lat="47.37201" lon="-1.05933">
        <ele>62.026</ele>
        <time>2020-07-19T10:04:20Z</time>
      </trkpt>
      <trkpt lat="47.37202" lon="-1.05936">
        <ele>62.357</ele>
        <time>2020-07-19T10:04:21Z</time>
      </trkpt>
      <trkpt lat="47.37202" lon="-1.0594">
        <ele>62.627</ele>
        <time>2020-07-19T10:04:22Z</time>
      </trkpt>
      <trkpt lat="47.37203" lon="-1.05943">
        <ele>61.64</ele>
        <time>2020-07-19T10:04:23Z</time>
      </trkpt>
      <trkpt lat="47.37203" lon="-1.05946">
        <ele>61.844</ele>
        <time>2020-07-19T10:04:24Z</time>
      </trkpt>
      <trkpt lat="47.37204" lon="-1.05949">
        <ele>61.428</ele>
        <time>2020-07-19T10:04:25Z</time>
      </trkpt>
      <trkpt lat="47.37205" lon="-1.0595">
        <ele>61.647</ele>
        <time>2020-07-19T10:04:26Z</time>
      </trkpt>
      <trkpt lat="47.37205" lon="-1.05951">
        <ele>60.8</ele>
        <time>2020-07-19T10:04:27Z</time>
      </trkpt>
      <trkpt lat="47.37205" lon="-1.05951">
        <ele>61.109</ele>
        <time>2020-07-19T10:04:28Z</time>
      </trkpt>
      <trkpt lat="47.37205" lon="-1.05951">
        <ele>61.525</ele>
        <time>2020-07-19T10:04:29Z</time>
      </trkpt>
      <trkpt lat="47.37204" lon="-1.05951">
        <ele>61.152</ele>
        <time>2020-07-19T10:04:30Z</time>
      </trkpt>
      <trkpt lat="47.37204" lon="-1.05952">
        <ele>60.988</ele>
        <time>2020-07-19T10:04:31Z</time>
      </trkpt>
      <trkpt lat="47.37204" lon="-1.05952">
        <ele>60.993</ele>
        <time>2020-07-19T10:04:32Z</time>
      </trkpt>
      <trkpt lat="47.37204" lon="-1.05952">
        <ele>61.316</ele>
        <time>2020-07-19T10:04:33Z</time>
      </trkpt>
      <trkpt lat="47.37204" lon="-1.05952">
        <ele>61.408</ele>
        <time>2020-07-19T10:04:34Z</time>
      </trkpt>
      <trkpt lat="47.37204" lon="-1.05952">
        <ele>61.203</ele>
        <time>2020-07-19T10:04:35Z</time>
      </trkpt>
      <trkpt lat="47.37204" lon="-1.05952">
        <ele>61.157</ele>
        <time>2020-07-19T10:04:36Z</time>
      </trkpt>
      <trkpt lat="47.37204" lon="-1.05953">
        <ele>61.217</ele>
        <time>2020-07-19T10:04:37Z</time>
      </trkpt>
      <trkpt lat="47.37205" lon="-1.05954">
        <ele>61.645</ele>
        <time>2020-07-19T10:04:38Z</time>
      </trkpt>
      <trkpt lat="47.37206" lon="-1.05955">
        <ele>61.439</ele>
        <time>2020-07-19T10:04:39Z</time>
      </trkpt>
      <trkpt lat="47.37206" lon="-1.05956">
        <ele>62.297</ele>
        <time>2020-07-19T10:04:40Z</time>
      </trkpt>
      <trkpt lat="47.37207" lon="-1.05957">
        <ele>63.355</ele>
        <time>2020-07-19T10:04:41Z</time>
      </trkpt>
      <trkpt lat="47.37207" lon="-1.05958">
        <ele>63.708</ele>
        <time>2020-07-19T10:04:42Z</time>
      </trkpt>
      <trkpt lat="47.37207" lon="-1.05961">
        <ele>63.817</ele>
        <time>2020-07-19T10:04:43Z</time>
      </trkpt>
      <trkpt lat="47.37206" lon="-1.05962">
        <ele>63.387</ele>
        <time>2020-07-19T10:04:44Z</time>
      </trkpt>
      <trkpt lat="47.37205" lon="-1.05963">
        <ele>61.88</ele>
        <time>2020-07-19T10:04:45Z</time>
      </trkpt>
      <trkpt lat="47.37205" lon="-1.05963">
        <ele>61.333</ele>
        <time>2020-07-19T10:04:46Z</time>
      </trkpt>
      <trkpt lat="47.37204" lon="-1.05963">
        <ele>61.182</ele>
        <time>2020-07-19T10:04:47Z</time>
      </trkpt>
      <trkpt lat="47.37204" lon="-1.05963">
        <ele>61.32</ele>
        <time>2020-07-19T10:04:48Z</time>
      </trkpt>
      <trkpt lat="47.37204" lon="-1.05964">
        <ele>61.006</ele>
        <time>2020-07-19T10:04:49Z</time>
      </trkpt>
      <trkpt lat="47.37204" lon="-1.05964">
        <ele>61.271</ele>
        <time>2020-07-19T10:04:50Z</time>
      </trkpt>
      <trkpt lat="47.37205" lon="-1.05964">
        <ele>60.001</ele>
        <time>2020-07-19T10:04:51Z</time>
      </trkpt>
      <trkpt lat="47.37205" lon="-1.05965">
        <ele>59.586</ele>
        <time>2020-07-19T10:04:52Z</time>
      </trkpt>
      <trkpt lat="47.37205" lon="-1.05966">
        <ele>59.665</ele>
        <time>2020-07-19T10:04:53Z</time>
      </trkpt>
      <trkpt lat="47.37205" lon="-1.05966">
        <ele>59.9</ele>
        <time>2020-07-19T10:04:54Z</time>
      </trkpt>
      <trkpt lat="47.37206" lon="-1.05966">
        <ele>59.416</ele>
        <time>2020-07-19T10:04:55Z</time>
      </trkpt>
      <trkpt lat="47.37206" lon="-1.05966">
        <ele>58.287</ele>
        <time>2020-07-19T10:04:56Z</time>
      </trkpt>
      <trkpt lat="47.37207" lon="-1.05967">
        <ele>57.548</ele>
        <time>2020-07-19T10:04:57Z</time>
      </trkpt>
      <trkpt lat="47.37208" lon="-1.05968">
        <ele>58.466</ele>
        <time>2020-07-19T10:04:58Z</time>
      </trkpt>
      <trkpt lat="47.37208" lon="-1.0597">
        <ele>57.188</ele>
        <time>2020-07-19T10:04:59Z</time>
      </trkpt>
      <trkpt lat="47.37209" lon="-1.05973">
        <ele>57.233</ele>
        <time>2020-07-19T10:05:00Z</time>
      </trkpt>
      <trkpt lat="47.3721" lon="-1.05975">
        <ele>57.719</ele>
        <time>2020-07-19T10:05:01Z</time>
      </trkpt>
      <trkpt lat="47.37211" lon="-1.05977">
        <ele>58.933</ele>
        <time>2020-07-19T10:05:02Z</time>
      </trkpt>
      <trkpt lat="47.37212" lon="-1.0598">
        <ele>58.828</ele>
        <time>2020-07-19T10:05:03Z</time>
      </trkpt>
      <trkpt lat="47.37213" lon="-1.05982">
        <ele>59.151</ele>
        <time>2020-07-19T10:05:04Z</time>
      </trkpt>
      <trkpt lat="47.37214" lon="-1.05985">
        <ele>57.414</ele>
        <time>2020-07-19T10:05:05Z</time>
      </trkpt>
      <trkpt lat="47.37215" lon="-1.05987">
        <ele>56.023</ele>
        <time>2020-07-19T10:05:06Z</time>
      </trkpt>
      <trkpt lat="47.37217" lon="-1.05989">
        <ele>56.859</ele>
        <time>2020-07-19T10:05:07Z</time>
      </trkpt>
      <trkpt lat="47.37218" lon="-1.05991">
        <ele>57</ele>
        <time>2020-07-19T10:05:08Z</time>
      </trkpt>
      <trkpt lat="47.3722" lon="-1.05993">
        <ele>56.342</ele>
        <time>2020-07-19T10:05:09Z</time>
      </trkpt>
      <trkpt lat="47.37221" lon="-1.05994">
        <ele>55.169</ele>
        <time>2020-07-19T10:05:10Z</time>
      </trkpt>
      <trkpt lat="47.37222" lon="-1.05996">
        <ele>54.658</ele>
        <time>2020-07-19T10:05:11Z</time>
      </trkpt>
      <trkpt lat="47.37222" lon="-1.05999">
        <ele>54.147</ele>
        <time>2020-07-19T10:05:12Z</time>
      </trkpt>
      <trkpt lat="47.37221" lon="-1.06003">
        <ele>54.633</ele>
        <time>2020-07-19T10:05:13Z</time>
      </trkpt>
      <trkpt lat="47.3722" lon="-1.06006">
        <ele>53.919</ele>
        <time>2020-07-19T10:05:14Z</time>
      </trkpt>
      <trkpt lat="47.37219" lon="-1.06009">
        <ele>54.298</ele>
        <time>2020-07-19T10:05:15Z</time>
      </trkpt>
      <trkpt lat="47.37218" lon="-1.06013">
        <ele>53.324</ele>
        <time>2020-07-19T10:05:16Z</time>
      </trkpt>
      <trkpt lat="47.37218" lon="-1.06017">
        <ele>53.788</ele>
        <time>2020-07-19T10:05:17Z</time>
      </trkpt>
      <trkpt lat="47.37219" lon="-1.0602">
        <ele>54.356</ele>
        <time>2020-07-19T10:05:18Z</time>
      </trkpt>
      <trkpt lat="47.3722" lon="-1.06023">
        <ele>55.29</ele>
        <time>2020-07-19T10:05:19Z</time>
      </trkpt>
      <trkpt lat="47.37221" lon="-1.06027">
        <ele>56.112</ele>
        <time>2020-07-19T10:05:20Z</time>
      </trkpt>
      <trkpt lat="47.37221" lon="-1.0603">
        <ele>55.966</ele>
        <time>2020-07-19T10:05:21Z</time>
      </trkpt>
      <trkpt lat="47.3722" lon="-1.06033">
        <ele>55.388</ele>
        <time>2020-07-19T10:05:22Z</time>
      </trkpt>
      <trkpt lat="47.3722" lon="-1.06036">
        <ele>55.12</ele>
        <time>2020-07-19T10:05:23Z</time>
      </trkpt>
      <trkpt lat="47.37221" lon="-1.0604">
        <ele>56.102</ele>
        <time>2020-07-19T10:05:24Z</time>
      </trkpt>
      <trkpt lat="47.37222" lon="-1.06042">
        <ele>56.715</ele>
        <time>2020-07-19T10:05:25Z</time>
      </trkpt>
      <trkpt lat="47.37223" lon="-1.06044">
        <ele>56.987</ele>
        <time>2020-07-19T10:05:26Z</time>
      </trkpt>
      <trkpt lat="47.37224" lon="-1.06046">
        <ele>57.06</ele>
        <time>2020-07-19T10:05:27Z</time>
      </trkpt>
      <trkpt lat="47.37225" lon="-1.06048">
        <ele>57.007</ele>
        <time>2020-07-19T10:05:28Z</time>
      </trkpt>
      <trkpt lat="47.37226" lon="-1.0605">
        <ele>56.702</ele>
        <time>2020-07-19T10:05:29Z</time>
      </trkpt>
      <trkpt lat="47.37226" lon="-1.06052">
        <ele>56.657</ele>
        <time>2020-07-19T10:05:30Z</time>
      </trkpt>
      <trkpt lat="47.37226" lon="-1.06055">
        <ele>56.052</ele>
        <time>2020-07-19T10:05:31Z</time>
      </trkpt>
      <trkpt lat="47.37227" lon="-1.06058">
        <ele>56.053</ele>
        <time>2020-07-19T10:05:32Z</time>
      </trkpt>
      <trkpt lat="47.37228" lon="-1.0606">
        <ele>55.237</ele>
        <time>2020-07-19T10:05:33Z</time>
      </trkpt>
      <trkpt lat="47.37229" lon="-1.06061">
        <ele>52.855</ele>
        <time>2020-07-19T10:05:34Z</time>
      </trkpt>
      <trkpt lat="47.37229" lon="-1.06062">
        <ele>53.098</ele>
        <time>2020-07-19T10:05:35Z</time>
      </trkpt>
      <trkpt lat="47.37229" lon="-1.06064">
        <ele>53.11</ele>
        <time>2020-07-19T10:05:36Z</time>
      </trkpt>
      <trkpt lat="47.37227" lon="-1.06068">
        <ele>52.922</ele>
        <time>2020-07-19T10:05:37Z</time>
      </trkpt>
      <trkpt lat="47.37226" lon="-1.06072">
        <ele>54.081</ele>
        <time>2020-07-19T10:05:38Z</time>
      </trkpt>
      <trkpt lat="47.37224" lon="-1.06074">
        <ele>53.706</ele>
        <time>2020-07-19T10:05:39Z</time>
      </trkpt>
      <trkpt lat="47.37223" lon="-1.06076">
        <ele>54.137</ele>
        <time>2020-07-19T10:05:40Z</time>
      </trkpt>
      <trkpt lat="47.37221" lon="-1.06079">
        <ele>54.492</ele>
        <time>2020-07-19T10:05:41Z</time>
      </trkpt>
      <trkpt lat="47.3722" lon="-1.06081">
        <ele>53.508</ele>
        <time>2020-07-19T10:05:42Z</time>
      </trkpt>
      <trkpt lat="47.37219" lon="-1.06083">
        <ele>52.073</ele>
        <time>2020-07-19T10:05:43Z</time>
      </trkpt>
      <trkpt lat="47.37218" lon="-1.06085">
        <ele>53.202</ele>
        <time>2020-07-19T10:05:44Z</time>
      </trkpt>
      <trkpt lat="47.37218" lon="-1.06088">
        <ele>53.068</ele>
        <time>2020-07-19T10:05:45Z</time>
      </trkpt>
      <trkpt lat="47.37217" lon="-1.0609">
        <ele>53.512</ele>
        <time>2020-07-19T10:05:46Z</time>
      </trkpt>
      <trkpt lat="47.37216" lon="-1.06093">
        <ele>53.707</ele>
        <time>2020-07-19T10:05:47Z</time>
      </trkpt>
      <trkpt lat="47.37216" lon="-1.06095">
        <ele>53.831</ele>
        <time>2020-07-19T10:05:48Z</time>
      </trkpt>
      <trkpt lat="47.37216" lon="-1.06096">
        <ele>57.261</ele>
        <time>2020-07-19T10:05:49Z</time>
      </trkpt>
      <trkpt lat="47.37215" lon="-1.06097">
        <ele>56.384</ele>
        <time>2020-07-19T10:05:50Z</time>
      </trkpt>
      <trkpt lat="47.37215" lon="-1.06097">
        <ele>55.49</ele>
        <time>2020-07-19T10:05:51Z</time>
      </trkpt>
      <trkpt lat="47.37215" lon="-1.06097">
        <ele>54.991</ele>
        <time>2020-07-19T10:05:52Z</time>
      </trkpt>
      <trkpt lat="47.37215" lon="-1.06097">
        <ele>54.135</ele>
        <time>2020-07-19T10:05:53Z</time>
      </trkpt>
      <trkpt lat="47.37215" lon="-1.06097">
        <ele>53.766</ele>
        <time>2020-07-19T10:05:54Z</time>
      </trkpt>
      <trkpt lat="47.37215" lon="-1.06098">
        <ele>53.699</ele>
        <time>2020-07-19T10:05:55Z</time>
      </trkpt>
      <trkpt lat="47.37215" lon="-1.06099">
        <ele>53.271</ele>
        <time>2020-07-19T10:05:57Z</time>
      </trkpt>
      <trkpt lat="47.37215" lon="-1.061">
        <ele>53.559</ele>
        <time>2020-07-19T10:05:58Z</time>
      </trkpt>
      <trkpt lat="47.37215" lon="-1.06103">
        <ele>52.065</ele>
        <time>2020-07-19T10:05:59Z</time>
      </trkpt>
      <trkpt lat="47.37215" lon="-1.06105">
        <ele>52.649</ele>
        <time>2020-07-19T10:06:00Z</time>
      </trkpt>
      <trkpt lat="47.37215" lon="-1.06106">
        <ele>52.793</ele>
        <time>2020-07-19T10:06:01Z</time>
      </trkpt>
      <trkpt lat="47.37214" lon="-1.06107">
        <ele>52.582</ele>
        <time>2020-07-19T10:06:02Z</time>
      </trkpt>
      <trkpt lat="47.37214" lon="-1.06107">
        <ele>52.607</ele>
        <time>2020-07-19T10:06:03Z</time>
      </trkpt>
      <trkpt lat="47.37214" lon="-1.06108">
        <ele>52.151</ele>
        <time>2020-07-19T10:06:04Z</time>
      </trkpt>
      <trkpt lat="47.37214" lon="-1.06109">
        <ele>52.021</ele>
        <time>2020-07-19T10:06:05Z</time>
      </trkpt>
      <trkpt lat="47.37214" lon="-1.0611">
        <ele>51.444</ele>
        <time>2020-07-19T10:06:06Z</time>
      </trkpt>
      <trkpt lat="47.37214" lon="-1.06111">
        <ele>51.837</ele>
        <time>2020-07-19T10:06:07Z</time>
      </trkpt>
      <trkpt lat="47.37214" lon="-1.06113">
        <ele>51.735</ele>
        <time>2020-07-19T10:06:08Z</time>
      </trkpt>
      <trkpt lat="47.37213" lon="-1.06114">
        <ele>51.229</ele>
        <time>2020-07-19T10:06:09Z</time>
      </trkpt>
      <trkpt lat="47.37213" lon="-1.06114">
        <ele>51.081</ele>
        <time>2020-07-19T10:06:10Z</time>
      </trkpt>
      <trkpt lat="47.37213" lon="-1.06115">
        <ele>51.555</ele>
        <time>2020-07-19T10:06:11Z</time>
      </trkpt>
      <trkpt lat="47.37213" lon="-1.06117">
        <ele>51.712</ele>
        <time>2020-07-19T10:06:12Z</time>
      </trkpt>
      <trkpt lat="47.37213" lon="-1.06118">
        <ele>52.307</ele>
        <time>2020-07-19T10:06:13Z</time>
      </trkpt>
      <trkpt lat="47.37213" lon="-1.0612">
        <ele>52.363</ele>
        <time>2020-07-19T10:06:14Z</time>
      </trkpt>
      <trkpt lat="47.37213" lon="-1.06121">
        <ele>52.849</ele>
        <time>2020-07-19T10:06:15Z</time>
      </trkpt>
      <trkpt lat="47.37213" lon="-1.06122">
        <ele>53.138</ele>
        <time>2020-07-19T10:06:16Z</time>
      </trkpt>
      <trkpt lat="47.37214" lon="-1.06123">
        <ele>53.216</ele>
        <time>2020-07-19T10:06:17Z</time>
      </trkpt>
      <trkpt lat="47.37214" lon="-1.06124">
        <ele>54.114</ele>
        <time>2020-07-19T10:06:18Z</time>
      </trkpt>
      <trkpt lat="47.37214" lon="-1.06126">
        <ele>55.091</ele>
        <time>2020-07-19T10:06:19Z</time>
      </trkpt>
      <trkpt lat="47.37215" lon="-1.06127">
        <ele>55.296</ele>
        <time>2020-07-19T10:06:20Z</time>
      </trkpt>
      <trkpt lat="47.37215" lon="-1.06128">
        <ele>55.212</ele>
        <time>2020-07-19T10:06:21Z</time>
      </trkpt>
      <trkpt lat="47.37215" lon="-1.06128">
        <ele>55.641</ele>
        <time>2020-07-19T10:06:22Z</time>
      </trkpt>
      <trkpt lat="47.37215" lon="-1.06129">
        <ele>54.858</ele>
        <time>2020-07-19T10:06:23Z</time>
      </trkpt>
      <trkpt lat="47.37216" lon="-1.06129">
        <ele>58.698</ele>
        <time>2020-07-19T10:06:24Z</time>
      </trkpt>
      <trkpt lat="47.37216" lon="-1.0613">
        <ele>57.814</ele>
        <time>2020-07-19T10:06:25Z</time>
      </trkpt>
      <trkpt lat="47.37216" lon="-1.06129">
        <ele>57.781</ele>
        <time>2020-07-19T10:06:26Z</time>
      </trkpt>
      <trkpt lat="47.37216" lon="-1.06129">
        <ele>57.616</ele>
        <time>2020-07-19T10:06:27Z</time>
      </trkpt>
      <trkpt lat="47.37216" lon="-1.06129">
        <ele>58.415</ele>
        <time>2020-07-19T10:06:28Z</time>
      </trkpt>
      <trkpt lat="47.37216" lon="-1.06129">
        <ele>58.349</ele>
        <time>2020-07-19T10:06:29Z</time>
      </trkpt>
      <trkpt lat="47.37215" lon="-1.06128">
        <ele>59.317</ele>
        <time>2020-07-19T10:06:30Z</time>
      </trkpt>
      <trkpt lat="47.37215" lon="-1.06129">
        <ele>59.137</ele>
        <time>2020-07-19T10:06:31Z</time>
      </trkpt>
      <trkpt lat="47.37215" lon="-1.06129">
        <ele>59.04</ele>
        <time>2020-07-19T10:06:32Z</time>
      </trkpt>
      <trkpt lat="47.37215" lon="-1.06129">
        <ele>58.665</ele>
        <time>2020-07-19T10:06:33Z</time>
      </trkpt>
      <trkpt lat="47.37215" lon="-1.06129">
        <ele>58.539</ele>
        <time>2020-07-19T10:06:34Z</time>
      </trkpt>
      <trkpt lat="47.37215" lon="-1.06129">
        <ele>57.944</ele>
        <time>2020-07-19T10:06:35Z</time>
      </trkpt>
      <trkpt lat="47.37216" lon="-1.06129">
        <ele>56.898</ele>
        <time>2020-07-19T10:06:36Z</time>
      </trkpt>
      <trkpt lat="47.37216" lon="-1.06129">
        <ele>56.953</ele>
        <time>2020-07-19T10:06:37Z</time>
      </trkpt>
      <trkpt lat="47.37216" lon="-1.06129">
        <ele>56.99</ele>
        <time>2020-07-19T10:06:38Z</time>
      </trkpt>
      <trkpt lat="47.37216" lon="-1.06129">
        <ele>57.01</ele>
        <time>2020-07-19T10:06:39Z</time>
      </trkpt>
      <trkpt lat="47.37217" lon="-1.06129">
        <ele>56.521</ele>
        <time>2020-07-19T10:06:40Z</time>
      </trkpt>
      <trkpt lat="47.37217" lon="-1.06132">
        <ele>58.506</ele>
        <time>2020-07-19T10:06:41Z</time>
      </trkpt>
      <trkpt lat="47.37217" lon="-1.06134">
        <ele>58.354</ele>
        <time>2020-07-19T10:06:42Z</time>
      </trkpt>
      <trkpt lat="47.37218" lon="-1.06137">
        <ele>58.857</ele>
        <time>2020-07-19T10:06:43Z</time>
      </trkpt>
      <trkpt lat="47.37219" lon="-1.0614">
        <ele>58.743</ele>
        <time>2020-07-19T10:06:44Z</time>
      </trkpt>
      <trkpt lat="47.37221" lon="-1.06142">
        <ele>59.168</ele>
        <time>2020-07-19T10:06:45Z</time>
      </trkpt>
      <trkpt lat="47.37223" lon="-1.06144">
        <ele>59.508</ele>
        <time>2020-07-19T10:06:46Z</time>
      </trkpt>
      <trkpt lat="47.37225" lon="-1.06146">
        <ele>59.469</ele>
        <time>2020-07-19T10:06:47Z</time>
      </trkpt>
      <trkpt lat="47.37227" lon="-1.06147">
        <ele>59.762</ele>
        <time>2020-07-19T10:06:48Z</time>
      </trkpt>
      <trkpt lat="47.37229" lon="-1.06148">
        <ele>60.265</ele>
        <time>2020-07-19T10:06:49Z</time>
      </trkpt>
      <trkpt lat="47.37232" lon="-1.06148">
        <ele>59.934</ele>
        <time>2020-07-19T10:06:50Z</time>
      </trkpt>
      <trkpt lat="47.37235" lon="-1.06149">
        <ele>60.086</ele>
        <time>2020-07-19T10:06:51Z</time>
      </trkpt>
      <trkpt lat="47.37238" lon="-1.06148">
        <ele>55.951</ele>
        <time>2020-07-19T10:06:52Z</time>
      </trkpt>
      <trkpt lat="47.37241" lon="-1.06146">
        <ele>56.137</ele>
        <time>2020-07-19T10:06:53Z</time>
      </trkpt>
      <trkpt lat="47.37244" lon="-1.06144">
        <ele>56.155</ele>
        <time>2020-07-19T10:06:54Z</time>
      </trkpt>
      <trkpt lat="47.37246" lon="-1.06141">
        <ele>55.307</ele>
        <time>2020-07-19T10:06:55Z</time>
      </trkpt>
      <trkpt lat="47.37248" lon="-1.0614">
        <ele>55.504</ele>
        <time>2020-07-19T10:06:56Z</time>
      </trkpt>
      <trkpt lat="47.37249" lon="-1.06139">
        <ele>56.566</ele>
        <time>2020-07-19T10:06:57Z</time>
      </trkpt>
      <trkpt lat="47.37251" lon="-1.06138">
        <ele>55.554</ele>
        <time>2020-07-19T10:06:58Z</time>
      </trkpt>
      <trkpt lat="47.37252" lon="-1.06138">
        <ele>55.127</ele>
        <time>2020-07-19T10:06:59Z</time>
      </trkpt>
      <trkpt lat="47.37254" lon="-1.06137">
        <ele>55.177</ele>
        <time>2020-07-19T10:07:00Z</time>
      </trkpt>
      <trkpt lat="47.37255" lon="-1.06136">
        <ele>54.273</ele>
        <time>2020-07-19T10:07:01Z</time>
      </trkpt>
      <trkpt lat="47.37257" lon="-1.06135">
        <ele>53.166</ele>
        <time>2020-07-19T10:07:02Z</time>
      </trkpt>
      <trkpt lat="47.37259" lon="-1.06134">
        <ele>53.542</ele>
        <time>2020-07-19T10:07:03Z</time>
      </trkpt>
      <trkpt lat="47.37262" lon="-1.06134">
        <ele>53.893</ele>
        <time>2020-07-19T10:07:04Z</time>
      </trkpt>
      <trkpt lat="47.37264" lon="-1.06132">
        <ele>53.95</ele>
        <time>2020-07-19T10:07:05Z</time>
      </trkpt>
      <trkpt lat="47.37266" lon="-1.06131">
        <ele>52.528</ele>
        <time>2020-07-19T10:07:06Z</time>
      </trkpt>
      <trkpt lat="47.37269" lon="-1.06129">
        <ele>52.465</ele>
        <time>2020-07-19T10:07:07Z</time>
      </trkpt>
      <trkpt lat="47.37272" lon="-1.06127">
        <ele>51.492</ele>
        <time>2020-07-19T10:07:08Z</time>
      </trkpt>
      <trkpt lat="47.37275" lon="-1.06126">
        <ele>50.683</ele>
        <time>2020-07-19T10:07:09Z</time>
      </trkpt>
      <trkpt lat="47.37278" lon="-1.06125">
        <ele>49.296</ele>
        <time>2020-07-19T10:07:10Z</time>
      </trkpt>
      <trkpt lat="47.37281" lon="-1.06123">
        <ele>50.199</ele>
        <time>2020-07-19T10:07:11Z</time>
      </trkpt>
      <trkpt lat="47.37284" lon="-1.06122">
        <ele>49.886</ele>
        <time>2020-07-19T10:07:12Z</time>
      </trkpt>
      <trkpt lat="47.37286" lon="-1.06122">
        <ele>48.915</ele>
        <time>2020-07-19T10:07:13Z</time>
      </trkpt>
      <trkpt lat="47.37289" lon="-1.06121">
        <ele>48.521</ele>
        <time>2020-07-19T10:07:14Z</time>
      </trkpt>
      <trkpt lat="47.37292" lon="-1.0612">
        <ele>50.378</ele>
        <time>2020-07-19T10:07:15Z</time>
      </trkpt>
      <trkpt lat="47.37295" lon="-1.0612">
        <ele>50.43</ele>
        <time>2020-07-19T10:07:16Z</time>
      </trkpt>
      <trkpt lat="47.37298" lon="-1.0612">
        <ele>50.652</ele>
        <time>2020-07-19T10:07:17Z</time>
      </trkpt>
      <trkpt lat="47.37301" lon="-1.0612">
        <ele>51.487</ele>
        <time>2020-07-19T10:07:18Z</time>
      </trkpt>
      <trkpt lat="47.37303" lon="-1.06122">
        <ele>52.352</ele>
        <time>2020-07-19T10:07:19Z</time>
      </trkpt>
      <trkpt lat="47.37306" lon="-1.06124">
        <ele>52.587</ele>
        <time>2020-07-19T10:07:20Z</time>
      </trkpt>
      <trkpt lat="47.37308" lon="-1.06127">
        <ele>52.572</ele>
        <time>2020-07-19T10:07:21Z</time>
      </trkpt>
      <trkpt lat="47.3731" lon="-1.06131">
        <ele>51.686</ele>
        <time>2020-07-19T10:07:22Z</time>
      </trkpt>
      <trkpt lat="47.37312" lon="-1.06137">
        <ele>51.877</ele>
        <time>2020-07-19T10:07:23Z</time>
      </trkpt>
      <trkpt lat="47.37313" lon="-1.06143">
        <ele>52.948</ele>
        <time>2020-07-19T10:07:24Z</time>
      </trkpt>
      <trkpt lat="47.37313" lon="-1.06156">
        <ele>53.672</ele>
        <time>2020-07-19T10:07:25Z</time>
      </trkpt>
      <trkpt lat="47.37313" lon="-1.06163">
        <ele>52.994</ele>
        <time>2020-07-19T10:07:26Z</time>
      </trkpt>
      <trkpt lat="47.37313" lon="-1.06171">
        <ele>53.151</ele>
        <time>2020-07-19T10:07:27Z</time>
      </trkpt>
      <trkpt lat="47.37315" lon="-1.0618">
        <ele>53.643</ele>
        <time>2020-07-19T10:07:28Z</time>
      </trkpt>
      <trkpt lat="47.37315" lon="-1.06187">
        <ele>54.023</ele>
        <time>2020-07-19T10:07:29Z</time>
      </trkpt>
      <trkpt lat="47.37314" lon="-1.06196">
        <ele>54.12</ele>
        <time>2020-07-19T10:07:30Z</time>
      </trkpt>
      <trkpt lat="47.37315" lon="-1.06204">
        <ele>54.079</ele>
        <time>2020-07-19T10:07:31Z</time>
      </trkpt>
      <trkpt lat="47.37315" lon="-1.06213">
        <ele>53.617</ele>
        <time>2020-07-19T10:07:32Z</time>
      </trkpt>
      <trkpt lat="47.37315" lon="-1.06222">
        <ele>53.303</ele>
        <time>2020-07-19T10:07:33Z</time>
      </trkpt>
      <trkpt lat="47.37315" lon="-1.0623">
        <ele>53.452</ele>
        <time>2020-07-19T10:07:34Z</time>
      </trkpt>
      <trkpt lat="47.37315" lon="-1.06239">
        <ele>53.499</ele>
        <time>2020-07-19T10:07:35Z</time>
      </trkpt>
      <trkpt lat="47.37315" lon="-1.06247">
        <ele>54.081</ele>
        <time>2020-07-19T10:07:36Z</time>
      </trkpt>
      <trkpt lat="47.37315" lon="-1.06255">
        <ele>53.698</ele>
        <time>2020-07-19T10:07:37Z</time>
      </trkpt>
      <trkpt lat="47.37317" lon="-1.06262">
        <ele>52.13</ele>
        <time>2020-07-19T10:07:38Z</time>
      </trkpt>
      <trkpt lat="47.37318" lon="-1.0627">
        <ele>51.223</ele>
        <time>2020-07-19T10:07:39Z</time>
      </trkpt>
      <trkpt lat="47.37319" lon="-1.06278">
        <ele>51.125</ele>
        <time>2020-07-19T10:07:40Z</time>
      </trkpt>
      <trkpt lat="47.37319" lon="-1.06287">
        <ele>49.587</ele>
        <time>2020-07-19T10:07:41Z</time>
      </trkpt>
      <trkpt lat="47.37319" lon="-1.06296">
        <ele>49.7</ele>
        <time>2020-07-19T10:07:42Z</time>
      </trkpt>
      <trkpt lat="47.37319" lon="-1.06305">
        <ele>49.506</ele>
        <time>2020-07-19T10:07:43Z</time>
      </trkpt>
      <trkpt lat="47.37319" lon="-1.06314">
        <ele>49.964</ele>
        <time>2020-07-19T10:07:44Z</time>
      </trkpt>
      <trkpt lat="47.37319" lon="-1.06321">
        <ele>49.645</ele>
        <time>2020-07-19T10:07:45Z</time>
      </trkpt>
      <trkpt lat="47.37319" lon="-1.06329">
        <ele>49.705</ele>
        <time>2020-07-19T10:07:46Z</time>
      </trkpt>
      <trkpt lat="47.3732" lon="-1.06335">
        <ele>51.311</ele>
        <time>2020-07-19T10:07:47Z</time>
      </trkpt>
      <trkpt lat="47.3732" lon="-1.06343">
        <ele>51.605</ele>
        <time>2020-07-19T10:07:48Z</time>
      </trkpt>
      <trkpt lat="47.3732" lon="-1.06352">
        <ele>52.074</ele>
        <time>2020-07-19T10:07:49Z</time>
      </trkpt>
      <trkpt lat="47.3732" lon="-1.06361">
        <ele>51.262</ele>
        <time>2020-07-19T10:07:50Z</time>
      </trkpt>
      <trkpt lat="47.37319" lon="-1.06369">
        <ele>50.768</ele>
        <time>2020-07-19T10:07:51Z</time>
      </trkpt>
      <trkpt lat="47.3732" lon="-1.06378">
        <ele>50.726</ele>
        <time>2020-07-19T10:07:52Z</time>
      </trkpt>
      <trkpt lat="47.37319" lon="-1.06384">
        <ele>51.239</ele>
        <time>2020-07-19T10:07:53Z</time>
      </trkpt>
      <trkpt lat="47.37319" lon="-1.06391">
        <ele>52.69</ele>
        <time>2020-07-19T10:07:54Z</time>
      </trkpt>
      <trkpt lat="47.37318" lon="-1.06398">
        <ele>52.809</ele>
        <time>2020-07-19T10:07:55Z</time>
      </trkpt>
      <trkpt lat="47.37318" lon="-1.06404">
        <ele>52.961</ele>
        <time>2020-07-19T10:07:56Z</time>
      </trkpt>
      <trkpt lat="47.37318" lon="-1.06411">
        <ele>52.867</ele>
        <time>2020-07-19T10:07:57Z</time>
      </trkpt>
      <trkpt lat="47.37317" lon="-1.06417">
        <ele>55.179</ele>
        <time>2020-07-19T10:07:58Z</time>
      </trkpt>
      <trkpt lat="47.37319" lon="-1.06425">
        <ele>56.555</ele>
        <time>2020-07-19T10:07:59Z</time>
      </trkpt>
      <trkpt lat="47.37316" lon="-1.06435">
        <ele>58.744</ele>
        <time>2020-07-19T10:08:00Z</time>
      </trkpt>
      <trkpt lat="47.37315" lon="-1.06443">
        <ele>60.565</ele>
        <time>2020-07-19T10:08:01Z</time>
      </trkpt>
      <trkpt lat="47.37316" lon="-1.0645">
        <ele>60.031</ele>
        <time>2020-07-19T10:08:02Z</time>
      </trkpt>
      <trkpt lat="47.37319" lon="-1.06457">
        <ele>59.989</ele>
        <time>2020-07-19T10:08:03Z</time>
      </trkpt>
      <trkpt lat="47.37321" lon="-1.06463">
        <ele>59.46</ele>
        <time>2020-07-19T10:08:04Z</time>
      </trkpt>
      <trkpt lat="47.37323" lon="-1.06471">
        <ele>60.443</ele>
        <time>2020-07-19T10:08:05Z</time>
      </trkpt>
      <trkpt lat="47.37325" lon="-1.06478">
        <ele>59.912</ele>
        <time>2020-07-19T10:08:06Z</time>
      </trkpt>
      <trkpt lat="47.37326" lon="-1.06486">
        <ele>59.848</ele>
        <time>2020-07-19T10:08:07Z</time>
      </trkpt>
      <trkpt lat="47.37328" lon="-1.06493">
        <ele>60.116</ele>
        <time>2020-07-19T10:08:08Z</time>
      </trkpt>
      <trkpt lat="47.3733" lon="-1.06503">
        <ele>59.109</ele>
        <time>2020-07-19T10:08:09Z</time>
      </trkpt>
      <trkpt lat="47.37332" lon="-1.06513">
        <ele>59.132</ele>
        <time>2020-07-19T10:08:10Z</time>
      </trkpt>
      <trkpt lat="47.37334" lon="-1.06519">
        <ele>56.901</ele>
        <time>2020-07-19T10:08:11Z</time>
      </trkpt>
      <trkpt lat="47.37337" lon="-1.06528">
        <ele>57.551</ele>
        <time>2020-07-19T10:08:12Z</time>
      </trkpt>
      <trkpt lat="47.37339" lon="-1.06536">
        <ele>58.038</ele>
        <time>2020-07-19T10:08:13Z</time>
      </trkpt>
      <trkpt lat="47.37341" lon="-1.06544">
        <ele>58.255</ele>
        <time>2020-07-19T10:08:14Z</time>
      </trkpt>
      <trkpt lat="47.37343" lon="-1.06553">
        <ele>58.842</ele>
        <time>2020-07-19T10:08:15Z</time>
      </trkpt>
      <trkpt lat="47.37347" lon="-1.0656">
        <ele>58.413</ele>
        <time>2020-07-19T10:08:16Z</time>
      </trkpt>
      <trkpt lat="47.37346" lon="-1.06571">
        <ele>57.803</ele>
        <time>2020-07-19T10:08:17Z</time>
      </trkpt>
      <trkpt lat="47.37346" lon="-1.06581">
        <ele>58.211</ele>
        <time>2020-07-19T10:08:18Z</time>
      </trkpt>
      <trkpt lat="47.37345" lon="-1.06591">
        <ele>57.106</ele>
        <time>2020-07-19T10:08:19Z</time>
      </trkpt>
      <trkpt lat="47.37344" lon="-1.066">
        <ele>56.413</ele>
        <time>2020-07-19T10:08:20Z</time>
      </trkpt>
      <trkpt lat="47.37343" lon="-1.06608">
        <ele>55.652</ele>
        <time>2020-07-19T10:08:21Z</time>
      </trkpt>
      <trkpt lat="47.37341" lon="-1.06617">
        <ele>54.972</ele>
        <time>2020-07-19T10:08:22Z</time>
      </trkpt>
      <trkpt lat="47.37338" lon="-1.06625">
        <ele>54.283</ele>
        <time>2020-07-19T10:08:23Z</time>
      </trkpt>
      <trkpt lat="47.37336" lon="-1.06631">
        <ele>54.172</ele>
        <time>2020-07-19T10:08:24Z</time>
      </trkpt>
      <trkpt lat="47.37332" lon="-1.0664">
        <ele>54.311</ele>
        <time>2020-07-19T10:08:25Z</time>
      </trkpt>
      <trkpt lat="47.37328" lon="-1.06648">
        <ele>54.874</ele>
        <time>2020-07-19T10:08:26Z</time>
      </trkpt>
      <trkpt lat="47.37324" lon="-1.06655">
        <ele>54.819</ele>
        <time>2020-07-19T10:08:27Z</time>
      </trkpt>
      <trkpt lat="47.3732" lon="-1.06661">
        <ele>54.477</ele>
        <time>2020-07-19T10:08:28Z</time>
      </trkpt>
      <trkpt lat="47.37317" lon="-1.06668">
        <ele>55.1</ele>
        <time>2020-07-19T10:08:29Z</time>
      </trkpt>
      <trkpt lat="47.37314" lon="-1.06674">
        <ele>55.474</ele>
        <time>2020-07-19T10:08:30Z</time>
      </trkpt>
      <trkpt lat="47.3731" lon="-1.0668">
        <ele>55.786</ele>
        <time>2020-07-19T10:08:31Z</time>
      </trkpt>
      <trkpt lat="47.37307" lon="-1.06688">
        <ele>56.45</ele>
        <time>2020-07-19T10:08:32Z</time>
      </trkpt>
      <trkpt lat="47.37304" lon="-1.06695">
        <ele>43.699</ele>
        <time>2020-07-19T10:08:33Z</time>
      </trkpt>
      <trkpt lat="47.37302" lon="-1.06702">
        <ele>48.401</ele>
        <time>2020-07-19T10:08:34Z</time>
      </trkpt>
      <trkpt lat="47.37301" lon="-1.06707">
        <ele>49.514</ele>
        <time>2020-07-19T10:08:35Z</time>
      </trkpt>
      <trkpt lat="47.373" lon="-1.06713">
        <ele>49.362</ele>
        <time>2020-07-19T10:08:36Z</time>
      </trkpt>
      <trkpt lat="47.37296" lon="-1.06721">
        <ele>51.131</ele>
        <time>2020-07-19T10:08:37Z</time>
      </trkpt>
      <trkpt lat="47.37294" lon="-1.06728">
        <ele>51.536</ele>
        <time>2020-07-19T10:08:38Z</time>
      </trkpt>
      <trkpt lat="47.37291" lon="-1.06735">
        <ele>53.902</ele>
        <time>2020-07-19T10:08:39Z</time>
      </trkpt>
      <trkpt lat="47.37289" lon="-1.06743">
        <ele>54.557</ele>
        <time>2020-07-19T10:08:40Z</time>
      </trkpt>
      <trkpt lat="47.37288" lon="-1.06752">
        <ele>55.922</ele>
        <time>2020-07-19T10:08:41Z</time>
      </trkpt>
      <trkpt lat="47.37287" lon="-1.0676">
        <ele>57.713</ele>
        <time>2020-07-19T10:08:42Z</time>
      </trkpt>
      <trkpt lat="47.37286" lon="-1.06768">
        <ele>57.963</ele>
        <time>2020-07-19T10:08:43Z</time>
      </trkpt>
      <trkpt lat="47.37286" lon="-1.06776">
        <ele>58.135</ele>
        <time>2020-07-19T10:08:44Z</time>
      </trkpt>
      <trkpt lat="47.37287" lon="-1.06784">
        <ele>57.34</ele>
        <time>2020-07-19T10:08:45Z</time>
      </trkpt>
      <trkpt lat="47.37288" lon="-1.06793">
        <ele>57.583</ele>
        <time>2020-07-19T10:08:46Z</time>
      </trkpt>
      <trkpt lat="47.37288" lon="-1.06801">
        <ele>57.657</ele>
        <time>2020-07-19T10:08:47Z</time>
      </trkpt>
      <trkpt lat="47.37289" lon="-1.06809">
        <ele>57.361</ele>
        <time>2020-07-19T10:08:48Z</time>
      </trkpt>
      <trkpt lat="47.3729" lon="-1.06817">
        <ele>57.817</ele>
        <time>2020-07-19T10:08:49Z</time>
      </trkpt>
      <trkpt lat="47.37291" lon="-1.06825">
        <ele>58.075</ele>
        <time>2020-07-19T10:08:50Z</time>
      </trkpt>
      <trkpt lat="47.3729" lon="-1.06833">
        <ele>57.638</ele>
        <time>2020-07-19T10:08:51Z</time>
      </trkpt>
      <trkpt lat="47.37291" lon="-1.06841">
        <ele>58.04</ele>
        <time>2020-07-19T10:08:52Z</time>
      </trkpt>
      <trkpt lat="47.37292" lon="-1.06849">
        <ele>58.433</ele>
        <time>2020-07-19T10:08:53Z</time>
      </trkpt>
      <trkpt lat="47.3729" lon="-1.06855">
        <ele>58.206</ele>
        <time>2020-07-19T10:08:54Z</time>
      </trkpt>
      <trkpt lat="47.37289" lon="-1.0686">
        <ele>57.205</ele>
        <time>2020-07-19T10:08:55Z</time>
      </trkpt>
      <trkpt lat="47.37285" lon="-1.06865">
        <ele>56.747</ele>
        <time>2020-07-19T10:08:56Z</time>
      </trkpt>
      <trkpt lat="47.37281" lon="-1.06869">
        <ele>56.831</ele>
        <time>2020-07-19T10:08:57Z</time>
      </trkpt>
      <trkpt lat="47.37278" lon="-1.06871">
        <ele>56.657</ele>
        <time>2020-07-19T10:08:58Z</time>
      </trkpt>
      <trkpt lat="47.37275" lon="-1.06876">
        <ele>57.033</ele>
        <time>2020-07-19T10:08:59Z</time>
      </trkpt>
      <trkpt lat="47.37271" lon="-1.06882">
        <ele>56.543</ele>
        <time>2020-07-19T10:09:00Z</time>
      </trkpt>
      <trkpt lat="47.37268" lon="-1.0689">
        <ele>57.089</ele>
        <time>2020-07-19T10:09:01Z</time>
      </trkpt>
      <trkpt lat="47.37265" lon="-1.06897">
        <ele>57.404</ele>
        <time>2020-07-19T10:09:02Z</time>
      </trkpt>
      <trkpt lat="47.37263" lon="-1.06904">
        <ele>58.009</ele>
        <time>2020-07-19T10:09:03Z</time>
      </trkpt>
      <trkpt lat="47.3726" lon="-1.06911">
        <ele>57.622</ele>
        <time>2020-07-19T10:09:04Z</time>
      </trkpt>
      <trkpt lat="47.37258" lon="-1.06918">
        <ele>57.586</ele>
        <time>2020-07-19T10:09:05Z</time>
      </trkpt>
      <trkpt lat="47.37256" lon="-1.06925">
        <ele>57.537</ele>
        <time>2020-07-19T10:09:06Z</time>
      </trkpt>
      <trkpt lat="47.37255" lon="-1.06934">
        <ele>57.892</ele>
        <time>2020-07-19T10:09:07Z</time>
      </trkpt>
      <trkpt lat="47.37255" lon="-1.06942">
        <ele>58.343</ele>
        <time>2020-07-19T10:09:08Z</time>
      </trkpt>
      <trkpt lat="47.37256" lon="-1.06949">
        <ele>57.8</ele>
        <time>2020-07-19T10:09:09Z</time>
      </trkpt>
      <trkpt lat="47.37257" lon="-1.06957">
        <ele>57.388</ele>
        <time>2020-07-19T10:09:10Z</time>
      </trkpt>
      <trkpt lat="47.37257" lon="-1.06965">
        <ele>57.233</ele>
        <time>2020-07-19T10:09:11Z</time>
      </trkpt>
      <trkpt lat="47.37258" lon="-1.06973">
        <ele>57.266</ele>
        <time>2020-07-19T10:09:12Z</time>
      </trkpt>
      <trkpt lat="47.37259" lon="-1.0698">
        <ele>57.116</ele>
        <time>2020-07-19T10:09:13Z</time>
      </trkpt>
      <trkpt lat="47.3726" lon="-1.06989">
        <ele>57.427</ele>
        <time>2020-07-19T10:09:14Z</time>
      </trkpt>
      <trkpt lat="47.37262" lon="-1.06997">
        <ele>56.755</ele>
        <time>2020-07-19T10:09:15Z</time>
      </trkpt>
      <trkpt lat="47.37263" lon="-1.07005">
        <ele>56.285</ele>
        <time>2020-07-19T10:09:16Z</time>
      </trkpt>
      <trkpt lat="47.37264" lon="-1.07014">
        <ele>56.861</ele>
        <time>2020-07-19T10:09:17Z</time>
      </trkpt>
      <trkpt lat="47.37265" lon="-1.07023">
        <ele>56.666</ele>
        <time>2020-07-19T10:09:18Z</time>
      </trkpt>
      <trkpt lat="47.37266" lon="-1.07031">
        <ele>56.942</ele>
        <time>2020-07-19T10:09:19Z</time>
      </trkpt>
      <trkpt lat="47.37267" lon="-1.07041">
        <ele>57.126</ele>
        <time>2020-07-19T10:09:20Z</time>
      </trkpt>
      <trkpt lat="47.37269" lon="-1.0705">
        <ele>57.035</ele>
        <time>2020-07-19T10:09:21Z</time>
      </trkpt>
      <trkpt lat="47.37269" lon="-1.07059">
        <ele>57.378</ele>
        <time>2020-07-19T10:09:22Z</time>
      </trkpt>
      <trkpt lat="47.3727" lon="-1.07067">
        <ele>57.16</ele>
        <time>2020-07-19T10:09:23Z</time>
      </trkpt>
      <trkpt lat="47.37271" lon="-1.07077">
        <ele>56.947</ele>
        <time>2020-07-19T10:09:24Z</time>
      </trkpt>
      <trkpt lat="47.37271" lon="-1.07087">
        <ele>56.946</ele>
        <time>2020-07-19T10:09:25Z</time>
      </trkpt>
      <trkpt lat="47.37271" lon="-1.07096">
        <ele>57.599</ele>
        <time>2020-07-19T10:09:26Z</time>
      </trkpt>
      <trkpt lat="47.37272" lon="-1.07106">
        <ele>57.36</ele>
        <time>2020-07-19T10:09:27Z</time>
      </trkpt>
      <trkpt lat="47.37275" lon="-1.07112">
        <ele>55.669</ele>
        <time>2020-07-19T10:09:28Z</time>
      </trkpt>
      <trkpt lat="47.37275" lon="-1.07121">
        <ele>56.022</ele>
        <time>2020-07-19T10:09:29Z</time>
      </trkpt>
      <trkpt lat="47.37276" lon="-1.0713">
        <ele>55.535</ele>
        <time>2020-07-19T10:09:30Z</time>
      </trkpt>
      <trkpt lat="47.37277" lon="-1.07141">
        <ele>56.189</ele>
        <time>2020-07-19T10:09:31Z</time>
      </trkpt>
      <trkpt lat="47.37278" lon="-1.0715">
        <ele>57.052</ele>
        <time>2020-07-19T10:09:32Z</time>
      </trkpt>
      <trkpt lat="47.37278" lon="-1.07161">
        <ele>57.246</ele>
        <time>2020-07-19T10:09:33Z</time>
      </trkpt>
      <trkpt lat="47.37281" lon="-1.07168">
        <ele>57.146</ele>
        <time>2020-07-19T10:09:34Z</time>
      </trkpt>
      <trkpt lat="47.37283" lon="-1.07176">
        <ele>57.449</ele>
        <time>2020-07-19T10:09:35Z</time>
      </trkpt>
      <trkpt lat="47.37285" lon="-1.07186">
        <ele>57.966</ele>
        <time>2020-07-19T10:09:36Z</time>
      </trkpt>
      <trkpt lat="47.37287" lon="-1.07195">
        <ele>58.504</ele>
        <time>2020-07-19T10:09:37Z</time>
      </trkpt>
      <trkpt lat="47.37289" lon="-1.07204">
        <ele>58.69</ele>
        <time>2020-07-19T10:09:38Z</time>
      </trkpt>
      <trkpt lat="47.37289" lon="-1.07213">
        <ele>58.812</ele>
        <time>2020-07-19T10:09:39Z</time>
      </trkpt>
      <trkpt lat="47.3729" lon="-1.07223">
        <ele>59.421</ele>
        <time>2020-07-19T10:09:40Z</time>
      </trkpt>
      <trkpt lat="47.37291" lon="-1.07232">
        <ele>59.655</ele>
        <time>2020-07-19T10:09:41Z</time>
      </trkpt>
      <trkpt lat="47.37294" lon="-1.07242">
        <ele>59.122</ele>
        <time>2020-07-19T10:09:42Z</time>
      </trkpt>
      <trkpt lat="47.37295" lon="-1.0725">
        <ele>58.856</ele>
        <time>2020-07-19T10:09:43Z</time>
      </trkpt>
      <trkpt lat="47.37297" lon="-1.07259">
        <ele>58.089</ele>
        <time>2020-07-19T10:09:44Z</time>
      </trkpt>
      <trkpt lat="47.37298" lon="-1.07269">
        <ele>57.89</ele>
        <time>2020-07-19T10:09:45Z</time>
      </trkpt>
      <trkpt lat="47.373" lon="-1.07277">
        <ele>57.72</ele>
        <time>2020-07-19T10:09:46Z</time>
      </trkpt>
      <trkpt lat="47.37303" lon="-1.07286">
        <ele>58.169</ele>
        <time>2020-07-19T10:09:47Z</time>
      </trkpt>
      <trkpt lat="47.37305" lon="-1.07294">
        <ele>58.603</ele>
        <time>2020-07-19T10:09:48Z</time>
      </trkpt>
      <trkpt lat="47.37307" lon="-1.07303">
        <ele>58.834</ele>
        <time>2020-07-19T10:09:49Z</time>
      </trkpt>
      <trkpt lat="47.37308" lon="-1.07313">
        <ele>59.759</ele>
        <time>2020-07-19T10:09:50Z</time>
      </trkpt>
      <trkpt lat="47.3731" lon="-1.07321">
        <ele>60.284</ele>
        <time>2020-07-19T10:09:51Z</time>
      </trkpt>
      <trkpt lat="47.3731" lon="-1.0733">
        <ele>59.198</ele>
        <time>2020-07-19T10:09:52Z</time>
      </trkpt>
      <trkpt lat="47.37312" lon="-1.07339">
        <ele>58.992</ele>
        <time>2020-07-19T10:09:53Z</time>
      </trkpt>
      <trkpt lat="47.37316" lon="-1.07348">
        <ele>58.162</ele>
        <time>2020-07-19T10:09:54Z</time>
      </trkpt>
      <trkpt lat="47.37315" lon="-1.0736">
        <ele>56.583</ele>
        <time>2020-07-19T10:09:55Z</time>
      </trkpt>
      <trkpt lat="47.37318" lon="-1.07368">
        <ele>55.692</ele>
        <time>2020-07-19T10:09:56Z</time>
      </trkpt>
      <trkpt lat="47.3732" lon="-1.07376">
        <ele>54.814</ele>
        <time>2020-07-19T10:09:57Z</time>
      </trkpt>
      <trkpt lat="47.37321" lon="-1.07386">
        <ele>55.329</ele>
        <time>2020-07-19T10:09:58Z</time>
      </trkpt>
      <trkpt lat="47.37322" lon="-1.07395">
        <ele>55.321</ele>
        <time>2020-07-19T10:09:59Z</time>
      </trkpt>
      <trkpt lat="47.37324" lon="-1.07405">
        <ele>55.328</ele>
        <time>2020-07-19T10:10:00Z</time>
      </trkpt>
      <trkpt lat="47.37325" lon="-1.07414">
        <ele>55.766</ele>
        <time>2020-07-19T10:10:01Z</time>
      </trkpt>
      <trkpt lat="47.37327" lon="-1.07422">
        <ele>55.188</ele>
        <time>2020-07-19T10:10:02Z</time>
      </trkpt>
      <trkpt lat="47.37328" lon="-1.07432">
        <ele>55.029</ele>
        <time>2020-07-19T10:10:03Z</time>
      </trkpt>
      <trkpt lat="47.37329" lon="-1.07443">
        <ele>56.165</ele>
        <time>2020-07-19T10:10:04Z</time>
      </trkpt>
      <trkpt lat="47.37331" lon="-1.07451">
        <ele>56.021</ele>
        <time>2020-07-19T10:10:05Z</time>
      </trkpt>
      <trkpt lat="47.37332" lon="-1.07461">
        <ele>56.312</ele>
        <time>2020-07-19T10:10:06Z</time>
      </trkpt>
      <trkpt lat="47.37332" lon="-1.07471">
        <ele>56.113</ele>
        <time>2020-07-19T10:10:07Z</time>
      </trkpt>
      <trkpt lat="47.37334" lon="-1.0748">
        <ele>56.977</ele>
        <time>2020-07-19T10:10:08Z</time>
      </trkpt>
      <trkpt lat="47.37334" lon="-1.0749">
        <ele>57.009</ele>
        <time>2020-07-19T10:10:09Z</time>
      </trkpt>
      <trkpt lat="47.37334" lon="-1.07499">
        <ele>56.574</ele>
        <time>2020-07-19T10:10:10Z</time>
      </trkpt>
      <trkpt lat="47.37336" lon="-1.07508">
        <ele>56.621</ele>
        <time>2020-07-19T10:10:11Z</time>
      </trkpt>
      <trkpt lat="47.37336" lon="-1.07517">
        <ele>56.587</ele>
        <time>2020-07-19T10:10:12Z</time>
      </trkpt>
      <trkpt lat="47.37336" lon="-1.07527">
        <ele>56.229</ele>
        <time>2020-07-19T10:10:13Z</time>
      </trkpt>
      <trkpt lat="47.37337" lon="-1.07536">
        <ele>56.621</ele>
        <time>2020-07-19T10:10:14Z</time>
      </trkpt>
      <trkpt lat="47.37337" lon="-1.07545">
        <ele>57.816</ele>
        <time>2020-07-19T10:10:15Z</time>
      </trkpt>
      <trkpt lat="47.37337" lon="-1.07555">
        <ele>58.589</ele>
        <time>2020-07-19T10:10:16Z</time>
      </trkpt>
      <trkpt lat="47.37337" lon="-1.07565">
        <ele>58.03</ele>
        <time>2020-07-19T10:10:17Z</time>
      </trkpt>
      <trkpt lat="47.37336" lon="-1.07575">
        <ele>58.128</ele>
        <time>2020-07-19T10:10:18Z</time>
      </trkpt>
      <trkpt lat="47.37336" lon="-1.07584">
        <ele>57.324</ele>
        <time>2020-07-19T10:10:19Z</time>
      </trkpt>
      <trkpt lat="47.37336" lon="-1.07594">
        <ele>57.841</ele>
        <time>2020-07-19T10:10:20Z</time>
      </trkpt>
      <trkpt lat="47.37336" lon="-1.07604">
        <ele>57.872</ele>
        <time>2020-07-19T10:10:21Z</time>
      </trkpt>
      <trkpt lat="47.37336" lon="-1.07614">
        <ele>58.285</ele>
        <time>2020-07-19T10:10:22Z</time>
      </trkpt>
      <trkpt lat="47.37336" lon="-1.07622">
        <ele>58.386</ele>
        <time>2020-07-19T10:10:23Z</time>
      </trkpt>
      <trkpt lat="47.37336" lon="-1.07631">
        <ele>57.895</ele>
        <time>2020-07-19T10:10:24Z</time>
      </trkpt>
      <trkpt lat="47.37335" lon="-1.07641">
        <ele>57.755</ele>
        <time>2020-07-19T10:10:25Z</time>
      </trkpt>
      <trkpt lat="47.37334" lon="-1.0765">
        <ele>57.183</ele>
        <time>2020-07-19T10:10:26Z</time>
      </trkpt>
      <trkpt lat="47.37333" lon="-1.0766">
        <ele>56.851</ele>
        <time>2020-07-19T10:10:27Z</time>
      </trkpt>
      <trkpt lat="47.37332" lon="-1.07669">
        <ele>56.973</ele>
        <time>2020-07-19T10:10:28Z</time>
      </trkpt>
      <trkpt lat="47.37332" lon="-1.07678">
        <ele>56.708</ele>
        <time>2020-07-19T10:10:29Z</time>
      </trkpt>
      <trkpt lat="47.37332" lon="-1.07687">
        <ele>56.879</ele>
        <time>2020-07-19T10:10:30Z</time>
      </trkpt>
      <trkpt lat="47.3733" lon="-1.07696">
        <ele>56.896</ele>
        <time>2020-07-19T10:10:31Z</time>
      </trkpt>
      <trkpt lat="47.37329" lon="-1.07706">
        <ele>57.181</ele>
        <time>2020-07-19T10:10:32Z</time>
      </trkpt>
      <trkpt lat="47.37327" lon="-1.07715">
        <ele>57.528</ele>
        <time>2020-07-19T10:10:33Z</time>
      </trkpt>
      <trkpt lat="47.37327" lon="-1.07724">
        <ele>58.527</ele>
        <time>2020-07-19T10:10:34Z</time>
      </trkpt>
      <trkpt lat="47.37328" lon="-1.07729">
        <ele>57.408</ele>
        <time>2020-07-19T10:10:35Z</time>
      </trkpt>
      <trkpt lat="47.37327" lon="-1.07738">
        <ele>57.562</ele>
        <time>2020-07-19T10:10:36Z</time>
      </trkpt>
      <trkpt lat="47.37326" lon="-1.07745">
        <ele>57.209</ele>
        <time>2020-07-19T10:10:37Z</time>
      </trkpt>
      <trkpt lat="47.37326" lon="-1.07753">
        <ele>57.3</ele>
        <time>2020-07-19T10:10:38Z</time>
      </trkpt>
      <trkpt lat="47.37327" lon="-1.07758">
        <ele>59.817</ele>
        <time>2020-07-19T10:10:39Z</time>
      </trkpt>
      <trkpt lat="47.3733" lon="-1.07759">
        <ele>60.642</ele>
        <time>2020-07-19T10:10:40Z</time>
      </trkpt>
      <trkpt lat="47.37333" lon="-1.07758">
        <ele>59.84</ele>
        <time>2020-07-19T10:10:41Z</time>
      </trkpt>
      <trkpt lat="47.37331" lon="-1.07761">
        <ele>60.207</ele>
        <time>2020-07-19T10:10:42Z</time>
      </trkpt>
      <trkpt lat="47.3733" lon="-1.07763">
        <ele>59.816</ele>
        <time>2020-07-19T10:10:43Z</time>
      </trkpt>
      <trkpt lat="47.37327" lon="-1.07766">
        <ele>59.372</ele>
        <time>2020-07-19T10:10:44Z</time>
      </trkpt>
      <trkpt lat="47.37325" lon="-1.07769">
        <ele>59.3</ele>
        <time>2020-07-19T10:10:45Z</time>
      </trkpt>
      <trkpt lat="47.37324" lon="-1.07773">
        <ele>57.973</ele>
        <time>2020-07-19T10:10:46Z</time>
      </trkpt>
      <trkpt lat="47.37324" lon="-1.07775">
        <ele>57.776</ele>
        <time>2020-07-19T10:10:47Z</time>
      </trkpt>
      <trkpt lat="47.37322" lon="-1.07779">
        <ele>56.28</ele>
        <time>2020-07-19T10:10:48Z</time>
      </trkpt>
      <trkpt lat="47.37321" lon="-1.07783">
        <ele>54.332</ele>
        <time>2020-07-19T10:10:49Z</time>
      </trkpt>
      <trkpt lat="47.3732" lon="-1.07787">
        <ele>52.214</ele>
        <time>2020-07-19T10:10:50Z</time>
      </trkpt>
      <trkpt lat="47.37319" lon="-1.0779">
        <ele>51.304</ele>
        <time>2020-07-19T10:10:51Z</time>
      </trkpt>
      <trkpt lat="47.37318" lon="-1.07794">
        <ele>51.777</ele>
        <time>2020-07-19T10:10:52Z</time>
      </trkpt>
      <trkpt lat="47.37317" lon="-1.07796">
        <ele>53.025</ele>
        <time>2020-07-19T10:10:53Z</time>
      </trkpt>
      <trkpt lat="47.37316" lon="-1.07798">
        <ele>53.456</ele>
        <time>2020-07-19T10:10:54Z</time>
      </trkpt>
      <trkpt lat="47.37316" lon="-1.07799">
        <ele>52.831</ele>
        <time>2020-07-19T10:10:55Z</time>
      </trkpt>
      <trkpt lat="47.37315" lon="-1.078">
        <ele>50.958</ele>
        <time>2020-07-19T10:10:56Z</time>
      </trkpt>
      <trkpt lat="47.37314" lon="-1.07801">
        <ele>50.899</ele>
        <time>2020-07-19T10:10:57Z</time>
      </trkpt>
      <trkpt lat="47.37314" lon="-1.078">
        <ele>51.847</ele>
        <time>2020-07-19T10:10:58Z</time>
      </trkpt>
      <trkpt lat="47.37314" lon="-1.07797">
        <ele>51.2</ele>
        <time>2020-07-19T10:10:59Z</time>
      </trkpt>
      <trkpt lat="47.37315" lon="-1.07794">
        <ele>51.436</ele>
        <time>2020-07-19T10:11:00Z</time>
      </trkpt>
      <trkpt lat="47.37316" lon="-1.07792">
        <ele>50.862</ele>
        <time>2020-07-19T10:11:01Z</time>
      </trkpt>
      <trkpt lat="47.37318" lon="-1.07789">
        <ele>51.112</ele>
        <time>2020-07-19T10:11:02Z</time>
      </trkpt>
      <trkpt lat="47.3732" lon="-1.07788">
        <ele>51.862</ele>
        <time>2020-07-19T10:11:03Z</time>
      </trkpt>
      <trkpt lat="47.37321" lon="-1.07785">
        <ele>53.343</ele>
        <time>2020-07-19T10:11:04Z</time>
      </trkpt>
      <trkpt lat="47.37322" lon="-1.07782">
        <ele>54.47</ele>
        <time>2020-07-19T10:11:05Z</time>
      </trkpt>
      <trkpt lat="47.37323" lon="-1.07778">
        <ele>54.638</ele>
        <time>2020-07-19T10:11:06Z</time>
      </trkpt>
      <trkpt lat="47.37324" lon="-1.07775">
        <ele>54.864</ele>
        <time>2020-07-19T10:11:07Z</time>
      </trkpt>
      <trkpt lat="47.37326" lon="-1.07773">
        <ele>55.651</ele>
        <time>2020-07-19T10:11:08Z</time>
      </trkpt>
      <trkpt lat="47.37327" lon="-1.07771">
        <ele>55.637</ele>
        <time>2020-07-19T10:11:09Z</time>
      </trkpt>
      <trkpt lat="47.3733" lon="-1.07771">
        <ele>55.467</ele>
        <time>2020-07-19T10:11:10Z</time>
      </trkpt>
      <trkpt lat="47.37333" lon="-1.07772">
        <ele>55.214</ele>
        <time>2020-07-19T10:11:11Z</time>
      </trkpt>
      <trkpt lat="47.37336" lon="-1.07775">
        <ele>55.069</ele>
        <time>2020-07-19T10:11:12Z</time>
      </trkpt>
      <trkpt lat="47.37339" lon="-1.07777">
        <ele>54.663</ele>
        <time>2020-07-19T10:11:13Z</time>
      </trkpt>
      <trkpt lat="47.37343" lon="-1.0778">
        <ele>54.607</ele>
        <time>2020-07-19T10:11:14Z</time>
      </trkpt>
      <trkpt lat="47.37347" lon="-1.07782">
        <ele>54.311</ele>
        <time>2020-07-19T10:11:15Z</time>
      </trkpt>
      <trkpt lat="47.3735" lon="-1.07785">
        <ele>55.998</ele>
        <time>2020-07-19T10:11:16Z</time>
      </trkpt>
      <trkpt lat="47.37354" lon="-1.07788">
        <ele>56.229</ele>
        <time>2020-07-19T10:11:17Z</time>
      </trkpt>
      <trkpt lat="47.37357" lon="-1.0779">
        <ele>57.606</ele>
        <time>2020-07-19T10:11:18Z</time>
      </trkpt>
      <trkpt lat="47.37361" lon="-1.07792">
        <ele>57.346</ele>
        <time>2020-07-19T10:11:19Z</time>
      </trkpt>
      <trkpt lat="47.37364" lon="-1.07795">
        <ele>57.437</ele>
        <time>2020-07-19T10:11:20Z</time>
      </trkpt>
      <trkpt lat="47.37367" lon="-1.07798">
        <ele>57.887</ele>
        <time>2020-07-19T10:11:21Z</time>
      </trkpt>
      <trkpt lat="47.37372" lon="-1.07799">
        <ele>57.992</ele>
        <time>2020-07-19T10:11:22Z</time>
      </trkpt>
      <trkpt lat="47.37376" lon="-1.07804">
        <ele>58.843</ele>
        <time>2020-07-19T10:11:23Z</time>
      </trkpt>
      <trkpt lat="47.37379" lon="-1.07808">
        <ele>59.519</ele>
        <time>2020-07-19T10:11:24Z</time>
      </trkpt>
      <trkpt lat="47.37384" lon="-1.0781">
        <ele>61.927</ele>
        <time>2020-07-19T10:11:25Z</time>
      </trkpt>
      <trkpt lat="47.37388" lon="-1.07814">
        <ele>61.45</ele>
        <time>2020-07-19T10:11:26Z</time>
      </trkpt>
      <trkpt lat="47.37391" lon="-1.07817">
        <ele>59.747</ele>
        <time>2020-07-19T10:11:27Z</time>
      </trkpt>
      <trkpt lat="47.37395" lon="-1.07819">
        <ele>60.397</ele>
        <time>2020-07-19T10:11:28Z</time>
      </trkpt>
      <trkpt lat="47.37399" lon="-1.07821">
        <ele>60.711</ele>
        <time>2020-07-19T10:11:29Z</time>
      </trkpt>
      <trkpt lat="47.37402" lon="-1.07826">
        <ele>61.459</ele>
        <time>2020-07-19T10:11:30Z</time>
      </trkpt>
      <trkpt lat="47.37406" lon="-1.0783">
        <ele>61.341</ele>
        <time>2020-07-19T10:11:31Z</time>
      </trkpt>
      <trkpt lat="47.37408" lon="-1.07836">
        <ele>60.641</ele>
        <time>2020-07-19T10:11:32Z</time>
      </trkpt>
      <trkpt lat="47.37411" lon="-1.07844">
        <ele>60.335</ele>
        <time>2020-07-19T10:11:33Z</time>
      </trkpt>
      <trkpt lat="47.37413" lon="-1.07852">
        <ele>60.561</ele>
        <time>2020-07-19T10:11:34Z</time>
      </trkpt>
      <trkpt lat="47.37413" lon="-1.07859">
        <ele>60.549</ele>
        <time>2020-07-19T10:11:35Z</time>
      </trkpt>
      <trkpt lat="47.37414" lon="-1.07868">
        <ele>61.24</ele>
        <time>2020-07-19T10:11:36Z</time>
      </trkpt>
      <trkpt lat="47.37414" lon="-1.07877">
        <ele>61.128</ele>
        <time>2020-07-19T10:11:37Z</time>
      </trkpt>
      <trkpt lat="47.37414" lon="-1.07885">
        <ele>59.914</ele>
        <time>2020-07-19T10:11:38Z</time>
      </trkpt>
      <trkpt lat="47.37415" lon="-1.07893">
        <ele>59.8</ele>
        <time>2020-07-19T10:11:39Z</time>
      </trkpt>
      <trkpt lat="47.37416" lon="-1.07901">
        <ele>59.788</ele>
        <time>2020-07-19T10:11:40Z</time>
      </trkpt>
      <trkpt lat="47.37416" lon="-1.07909">
        <ele>60.164</ele>
        <time>2020-07-19T10:11:41Z</time>
      </trkpt>
      <trkpt lat="47.37416" lon="-1.07918">
        <ele>60.69</ele>
        <time>2020-07-19T10:11:42Z</time>
      </trkpt>
      <trkpt lat="47.37416" lon="-1.07926">
        <ele>60.858</ele>
        <time>2020-07-19T10:11:43Z</time>
      </trkpt>
      <trkpt lat="47.37417" lon="-1.07934">
        <ele>60.448</ele>
        <time>2020-07-19T10:11:44Z</time>
      </trkpt>
      <trkpt lat="47.37417" lon="-1.07943">
        <ele>61.223</ele>
        <time>2020-07-19T10:11:45Z</time>
      </trkpt>
      <trkpt lat="47.37418" lon="-1.07951">
        <ele>60.709</ele>
        <time>2020-07-19T10:11:46Z</time>
      </trkpt>
      <trkpt lat="47.37419" lon="-1.0796">
        <ele>60.595</ele>
        <time>2020-07-19T10:11:47Z</time>
      </trkpt>
      <trkpt lat="47.37419" lon="-1.07968">
        <ele>60.68</ele>
        <time>2020-07-19T10:11:48Z</time>
      </trkpt>
      <trkpt lat="47.3742" lon="-1.07977">
        <ele>60.437</ele>
        <time>2020-07-19T10:11:49Z</time>
      </trkpt>
      <trkpt lat="47.37419" lon="-1.07986">
        <ele>60.579</ele>
        <time>2020-07-19T10:11:50Z</time>
      </trkpt>
      <trkpt lat="47.3742" lon="-1.07995">
        <ele>60.225</ele>
        <time>2020-07-19T10:11:51Z</time>
      </trkpt>
      <trkpt lat="47.3742" lon="-1.08004">
        <ele>60.485</ele>
        <time>2020-07-19T10:11:52Z</time>
      </trkpt>
      <trkpt lat="47.3742" lon="-1.08014">
        <ele>60.145</ele>
        <time>2020-07-19T10:11:53Z</time>
      </trkpt>
      <trkpt lat="47.3742" lon="-1.08023">
        <ele>59.8</ele>
        <time>2020-07-19T10:11:54Z</time>
      </trkpt>
      <trkpt lat="47.37421" lon="-1.08041">
        <ele>59.259</ele>
        <time>2020-07-19T10:11:56Z</time>
      </trkpt>
      <trkpt lat="47.37421" lon="-1.08051">
        <ele>59.261</ele>
        <time>2020-07-19T10:11:57Z</time>
      </trkpt>
      <trkpt lat="47.37421" lon="-1.0806">
        <ele>59.246</ele>
        <time>2020-07-19T10:11:58Z</time>
      </trkpt>
      <trkpt lat="47.37422" lon="-1.08069">
        <ele>59.014</ele>
        <time>2020-07-19T10:11:59Z</time>
      </trkpt>
      <trkpt lat="47.37422" lon="-1.08079">
        <ele>59.626</ele>
        <time>2020-07-19T10:12:00Z</time>
      </trkpt>
      <trkpt lat="47.37423" lon="-1.08088">
        <ele>58.239</ele>
        <time>2020-07-19T10:12:01Z</time>
      </trkpt>
      <trkpt lat="47.37422" lon="-1.08097">
        <ele>58.99</ele>
        <time>2020-07-19T10:12:02Z</time>
      </trkpt>
      <trkpt lat="47.37422" lon="-1.08106">
        <ele>59.385</ele>
        <time>2020-07-19T10:12:03Z</time>
      </trkpt>
      <trkpt lat="47.37422" lon="-1.08115">
        <ele>59.466</ele>
        <time>2020-07-19T10:12:04Z</time>
      </trkpt>
      <trkpt lat="47.37423" lon="-1.08124">
        <ele>60.089</ele>
        <time>2020-07-19T10:12:05Z</time>
      </trkpt>
      <trkpt lat="47.37423" lon="-1.08132">
        <ele>59.243</ele>
        <time>2020-07-19T10:12:06Z</time>
      </trkpt>
      <trkpt lat="47.37423" lon="-1.08141">
        <ele>59.472</ele>
        <time>2020-07-19T10:12:07Z</time>
      </trkpt>
      <trkpt lat="47.37423" lon="-1.0815">
        <ele>59.624</ele>
        <time>2020-07-19T10:12:08Z</time>
      </trkpt>
      <trkpt lat="47.37423" lon="-1.08158">
        <ele>59.241</ele>
        <time>2020-07-19T10:12:09Z</time>
      </trkpt>
      <trkpt lat="47.37423" lon="-1.08166">
        <ele>59.586</ele>
        <time>2020-07-19T10:12:10Z</time>
      </trkpt>
      <trkpt lat="47.37425" lon="-1.08175">
        <ele>59.035</ele>
        <time>2020-07-19T10:12:11Z</time>
      </trkpt>
      <trkpt lat="47.37426" lon="-1.08182">
        <ele>58.507</ele>
        <time>2020-07-19T10:12:12Z</time>
      </trkpt>
      <trkpt lat="47.37425" lon="-1.08191">
        <ele>58.829</ele>
        <time>2020-07-19T10:12:13Z</time>
      </trkpt>
      <trkpt lat="47.37427" lon="-1.08199">
        <ele>58.106</ele>
        <time>2020-07-19T10:12:14Z</time>
      </trkpt>
      <trkpt lat="47.37427" lon="-1.08208">
        <ele>58.076</ele>
        <time>2020-07-19T10:12:15Z</time>
      </trkpt>
      <trkpt lat="47.37426" lon="-1.08217">
        <ele>57.852</ele>
        <time>2020-07-19T10:12:16Z</time>
      </trkpt>
      <trkpt lat="47.37426" lon="-1.08226">
        <ele>58.149</ele>
        <time>2020-07-19T10:12:17Z</time>
      </trkpt>
      <trkpt lat="47.37426" lon="-1.08236">
        <ele>58.072</ele>
        <time>2020-07-19T10:12:18Z</time>
      </trkpt>
      <trkpt lat="47.37426" lon="-1.08246">
        <ele>58.586</ele>
        <time>2020-07-19T10:12:19Z</time>
      </trkpt>
      <trkpt lat="47.37426" lon="-1.08256">
        <ele>58.684</ele>
        <time>2020-07-19T10:12:20Z</time>
      </trkpt>
      <trkpt lat="47.37426" lon="-1.08266">
        <ele>59.052</ele>
        <time>2020-07-19T10:12:21Z</time>
      </trkpt>
      <trkpt lat="47.37426" lon="-1.08276">
        <ele>58.749</ele>
        <time>2020-07-19T10:12:22Z</time>
      </trkpt>
      <trkpt lat="47.37426" lon="-1.08285">
        <ele>58.879</ele>
        <time>2020-07-19T10:12:23Z</time>
      </trkpt>
      <trkpt lat="47.37426" lon="-1.08295">
        <ele>59.53</ele>
        <time>2020-07-19T10:12:24Z</time>
      </trkpt>
      <trkpt lat="47.37427" lon="-1.08304">
        <ele>59.057</ele>
        <time>2020-07-19T10:12:25Z</time>
      </trkpt>
      <trkpt lat="47.37427" lon="-1.08313">
        <ele>59.37</ele>
        <time>2020-07-19T10:12:26Z</time>
      </trkpt>
      <trkpt lat="47.37427" lon="-1.08322">
        <ele>58.944</ele>
        <time>2020-07-19T10:12:27Z</time>
      </trkpt>
      <trkpt lat="47.37427" lon="-1.08331">
        <ele>59.629</ele>
        <time>2020-07-19T10:12:28Z</time>
      </trkpt>
      <trkpt lat="47.37427" lon="-1.0834">
        <ele>59.712</ele>
        <time>2020-07-19T10:12:29Z</time>
      </trkpt>
      <trkpt lat="47.37426" lon="-1.08348">
        <ele>59.696</ele>
        <time>2020-07-19T10:12:30Z</time>
      </trkpt>
      <trkpt lat="47.37426" lon="-1.08357">
        <ele>60.138</ele>
        <time>2020-07-19T10:12:31Z</time>
      </trkpt>
      <trkpt lat="47.37427" lon="-1.08366">
        <ele>59.167</ele>
        <time>2020-07-19T10:12:32Z</time>
      </trkpt>
      <trkpt lat="47.37426" lon="-1.08374">
        <ele>59.202</ele>
        <time>2020-07-19T10:12:33Z</time>
      </trkpt>
      <trkpt lat="47.37426" lon="-1.08383">
        <ele>58.849</ele>
        <time>2020-07-19T10:12:34Z</time>
      </trkpt>
      <trkpt lat="47.37425" lon="-1.08391">
        <ele>58.597</ele>
        <time>2020-07-19T10:12:35Z</time>
      </trkpt>
      <trkpt lat="47.37423" lon="-1.08399">
        <ele>58.682</ele>
        <time>2020-07-19T10:12:36Z</time>
      </trkpt>
      <trkpt lat="47.37419" lon="-1.08406">
        <ele>58.695</ele>
        <time>2020-07-19T10:12:37Z</time>
      </trkpt>
      <trkpt lat="47.37416" lon="-1.08412">
        <ele>58.69</ele>
        <time>2020-07-19T10:12:38Z</time>
      </trkpt>
      <trkpt lat="47.37412" lon="-1.0842">
        <ele>58.603</ele>
        <time>2020-07-19T10:12:39Z</time>
      </trkpt>
      <trkpt lat="47.3741" lon="-1.08427">
        <ele>58.426</ele>
        <time>2020-07-19T10:12:40Z</time>
      </trkpt>
      <trkpt lat="47.37407" lon="-1.08436">
        <ele>58.046</ele>
        <time>2020-07-19T10:12:41Z</time>
      </trkpt>
      <trkpt lat="47.37407" lon="-1.08441">
        <ele>58.512</ele>
        <time>2020-07-19T10:12:42Z</time>
      </trkpt>
      <trkpt lat="47.37406" lon="-1.0845">
        <ele>59.65</ele>
        <time>2020-07-19T10:12:43Z</time>
      </trkpt>
      <trkpt lat="47.37404" lon="-1.08458">
        <ele>59.539</ele>
        <time>2020-07-19T10:12:44Z</time>
      </trkpt>
      <trkpt lat="47.37403" lon="-1.08467">
        <ele>58.921</ele>
        <time>2020-07-19T10:12:45Z</time>
      </trkpt>
      <trkpt lat="47.37402" lon="-1.08475">
        <ele>58.909</ele>
        <time>2020-07-19T10:12:46Z</time>
      </trkpt>
      <trkpt lat="47.37401" lon="-1.08484">
        <ele>59.09</ele>
        <time>2020-07-19T10:12:47Z</time>
      </trkpt>
      <trkpt lat="47.37401" lon="-1.08494">
        <ele>59.331</ele>
        <time>2020-07-19T10:12:48Z</time>
      </trkpt>
      <trkpt lat="47.374" lon="-1.08504">
        <ele>58.281</ele>
        <time>2020-07-19T10:12:49Z</time>
      </trkpt>
      <trkpt lat="47.37399" lon="-1.08512">
        <ele>58.264</ele>
        <time>2020-07-19T10:12:50Z</time>
      </trkpt>
      <trkpt lat="47.37398" lon="-1.08521">
        <ele>57.559</ele>
        <time>2020-07-19T10:12:51Z</time>
      </trkpt>
      <trkpt lat="47.37399" lon="-1.08528">
        <ele>57.593</ele>
        <time>2020-07-19T10:12:52Z</time>
      </trkpt>
      <trkpt lat="47.37398" lon="-1.08538">
        <ele>57.743</ele>
        <time>2020-07-19T10:12:53Z</time>
      </trkpt>
      <trkpt lat="47.37402" lon="-1.08541">
        <ele>53.339</ele>
        <time>2020-07-19T10:12:54Z</time>
      </trkpt>
      <trkpt lat="47.37403" lon="-1.08549">
        <ele>53.4</ele>
        <time>2020-07-19T10:12:55Z</time>
      </trkpt>
      <trkpt lat="47.37403" lon="-1.08555">
        <ele>55.291</ele>
        <time>2020-07-19T10:12:56Z</time>
      </trkpt>
      <trkpt lat="47.37404" lon="-1.08562">
        <ele>54.844</ele>
        <time>2020-07-19T10:12:57Z</time>
      </trkpt>
      <trkpt lat="47.37404" lon="-1.08569">
        <ele>54.213</ele>
        <time>2020-07-19T10:12:58Z</time>
      </trkpt>
      <trkpt lat="47.37402" lon="-1.08579">
        <ele>52.73</ele>
        <time>2020-07-19T10:12:59Z</time>
      </trkpt>
      <trkpt lat="47.37401" lon="-1.08587">
        <ele>51.893</ele>
        <time>2020-07-19T10:13:00Z</time>
      </trkpt>
      <trkpt lat="47.37401" lon="-1.08592">
        <ele>53.337</ele>
        <time>2020-07-19T10:13:01Z</time>
      </trkpt>
      <trkpt lat="47.37401" lon="-1.08596">
        <ele>53.521</ele>
        <time>2020-07-19T10:13:02Z</time>
      </trkpt>
      <trkpt lat="47.37401" lon="-1.08603">
        <ele>53.339</ele>
        <time>2020-07-19T10:13:03Z</time>
      </trkpt>
      <trkpt lat="47.37402" lon="-1.08608">
        <ele>54.119</ele>
        <time>2020-07-19T10:13:04Z</time>
      </trkpt>
      <trkpt lat="47.37403" lon="-1.08614">
        <ele>53.868</ele>
        <time>2020-07-19T10:13:05Z</time>
      </trkpt>
      <trkpt lat="47.37402" lon="-1.08625">
        <ele>55.167</ele>
        <time>2020-07-19T10:13:06Z</time>
      </trkpt>
      <trkpt lat="47.37401" lon="-1.08634">
        <ele>56.4</ele>
        <time>2020-07-19T10:13:07Z</time>
      </trkpt>
      <trkpt lat="47.37402" lon="-1.08643">
        <ele>55.885</ele>
        <time>2020-07-19T10:13:08Z</time>
      </trkpt>
      <trkpt lat="47.374" lon="-1.08653">
        <ele>55.217</ele>
        <time>2020-07-19T10:13:09Z</time>
      </trkpt>
      <trkpt lat="47.37401" lon="-1.08662">
        <ele>55.193</ele>
        <time>2020-07-19T10:13:10Z</time>
      </trkpt>
      <trkpt lat="47.37401" lon="-1.08671">
        <ele>54.981</ele>
        <time>2020-07-19T10:13:11Z</time>
      </trkpt>
      <trkpt lat="47.37402" lon="-1.08679">
        <ele>54.992</ele>
        <time>2020-07-19T10:13:12Z</time>
      </trkpt>
      <trkpt lat="47.37403" lon="-1.08689">
        <ele>57.662</ele>
        <time>2020-07-19T10:13:13Z</time>
      </trkpt>
      <trkpt lat="47.37406" lon="-1.08698">
        <ele>57.279</ele>
        <time>2020-07-19T10:13:14Z</time>
      </trkpt>
      <trkpt lat="47.37409" lon="-1.08705">
        <ele>56.9</ele>
        <time>2020-07-19T10:13:15Z</time>
      </trkpt>
      <trkpt lat="47.37412" lon="-1.08713">
        <ele>56.517</ele>
        <time>2020-07-19T10:13:16Z</time>
      </trkpt>
      <trkpt lat="47.37416" lon="-1.0872">
        <ele>55.738</ele>
        <time>2020-07-19T10:13:17Z</time>
      </trkpt>
      <trkpt lat="47.37422" lon="-1.08726">
        <ele>55.149</ele>
        <time>2020-07-19T10:13:18Z</time>
      </trkpt>
      <trkpt lat="47.37427" lon="-1.08734">
        <ele>56.206</ele>
        <time>2020-07-19T10:13:19Z</time>
      </trkpt>
      <trkpt lat="47.37429" lon="-1.08742">
        <ele>56.123</ele>
        <time>2020-07-19T10:13:20Z</time>
      </trkpt>
      <trkpt lat="47.37432" lon="-1.0875">
        <ele>55.851</ele>
        <time>2020-07-19T10:13:21Z</time>
      </trkpt>
      <trkpt lat="47.37436" lon="-1.08757">
        <ele>56.055</ele>
        <time>2020-07-19T10:13:22Z</time>
      </trkpt>
      <trkpt lat="47.37436" lon="-1.08766">
        <ele>55.789</ele>
        <time>2020-07-19T10:13:23Z</time>
      </trkpt>
      <trkpt lat="47.37438" lon="-1.08775">
        <ele>55.673</ele>
        <time>2020-07-19T10:13:24Z</time>
      </trkpt>
      <trkpt lat="47.37438" lon="-1.08785">
        <ele>55.491</ele>
        <time>2020-07-19T10:13:25Z</time>
      </trkpt>
      <trkpt lat="47.37439" lon="-1.08794">
        <ele>54.854</ele>
        <time>2020-07-19T10:13:26Z</time>
      </trkpt>
      <trkpt lat="47.3744" lon="-1.08803">
        <ele>54.146</ele>
        <time>2020-07-19T10:13:27Z</time>
      </trkpt>
      <trkpt lat="47.3744" lon="-1.08813">
        <ele>53.864</ele>
        <time>2020-07-19T10:13:28Z</time>
      </trkpt>
      <trkpt lat="47.3744" lon="-1.08823">
        <ele>53.345</ele>
        <time>2020-07-19T10:13:29Z</time>
      </trkpt>
      <trkpt lat="47.3744" lon="-1.08832">
        <ele>53.029</ele>
        <time>2020-07-19T10:13:30Z</time>
      </trkpt>
      <trkpt lat="47.3744" lon="-1.08842">
        <ele>52.402</ele>
        <time>2020-07-19T10:13:31Z</time>
      </trkpt>
      <trkpt lat="47.3744" lon="-1.08853">
        <ele>53.019</ele>
        <time>2020-07-19T10:13:32Z</time>
      </trkpt>
      <trkpt lat="47.37441" lon="-1.08862">
        <ele>52.957</ele>
        <time>2020-07-19T10:13:33Z</time>
      </trkpt>
      <trkpt lat="47.3744" lon="-1.08872">
        <ele>52.883</ele>
        <time>2020-07-19T10:13:34Z</time>
      </trkpt>
      <trkpt lat="47.3744" lon="-1.08882">
        <ele>52.761</ele>
        <time>2020-07-19T10:13:35Z</time>
      </trkpt>
      <trkpt lat="47.37439" lon="-1.08892">
        <ele>54.309</ele>
        <time>2020-07-19T10:13:36Z</time>
      </trkpt>
      <trkpt lat="47.37438" lon="-1.08902">
        <ele>55.525</ele>
        <time>2020-07-19T10:13:37Z</time>
      </trkpt>
      <trkpt lat="47.37438" lon="-1.08912">
        <ele>55.354</ele>
        <time>2020-07-19T10:13:38Z</time>
      </trkpt>
      <trkpt lat="47.37437" lon="-1.08922">
        <ele>55.316</ele>
        <time>2020-07-19T10:13:39Z</time>
      </trkpt>
      <trkpt lat="47.37436" lon="-1.08933">
        <ele>56.103</ele>
        <time>2020-07-19T10:13:40Z</time>
      </trkpt>
      <trkpt lat="47.37434" lon="-1.08942">
        <ele>55.31</ele>
        <time>2020-07-19T10:13:41Z</time>
      </trkpt>
      <trkpt lat="47.37432" lon="-1.08952">
        <ele>54.215</ele>
        <time>2020-07-19T10:13:42Z</time>
      </trkpt>
      <trkpt lat="47.3743" lon="-1.08962">
        <ele>54.166</ele>
        <time>2020-07-19T10:13:43Z</time>
      </trkpt>
      <trkpt lat="47.37428" lon="-1.08972">
        <ele>54.848</ele>
        <time>2020-07-19T10:13:44Z</time>
      </trkpt>
      <trkpt lat="47.37425" lon="-1.08983">
        <ele>55.435</ele>
        <time>2020-07-19T10:13:45Z</time>
      </trkpt>
      <trkpt lat="47.37423" lon="-1.08992">
        <ele>54.642</ele>
        <time>2020-07-19T10:13:46Z</time>
      </trkpt>
      <trkpt lat="47.37421" lon="-1.09002">
        <ele>54.617</ele>
        <time>2020-07-19T10:13:47Z</time>
      </trkpt>
      <trkpt lat="47.37419" lon="-1.09012">
        <ele>54.928</ele>
        <time>2020-07-19T10:13:48Z</time>
      </trkpt>
      <trkpt lat="47.37417" lon="-1.09022">
        <ele>54.989</ele>
        <time>2020-07-19T10:13:49Z</time>
      </trkpt>
      <trkpt lat="47.37414" lon="-1.09032">
        <ele>55.071</ele>
        <time>2020-07-19T10:13:50Z</time>
      </trkpt>
      <trkpt lat="47.37411" lon="-1.09042">
        <ele>55.625</ele>
        <time>2020-07-19T10:13:51Z</time>
      </trkpt>
      <trkpt lat="47.3741" lon="-1.09053">
        <ele>56.495</ele>
        <time>2020-07-19T10:13:52Z</time>
      </trkpt>
      <trkpt lat="47.37408" lon="-1.09063">
        <ele>56.434</ele>
        <time>2020-07-19T10:13:53Z</time>
      </trkpt>
      <trkpt lat="47.37406" lon="-1.09072">
        <ele>56.959</ele>
        <time>2020-07-19T10:13:54Z</time>
      </trkpt>
      <trkpt lat="47.37403" lon="-1.09082">
        <ele>57.129</ele>
        <time>2020-07-19T10:13:55Z</time>
      </trkpt>
      <trkpt lat="47.37401" lon="-1.09093">
        <ele>56.7</ele>
        <time>2020-07-19T10:13:56Z</time>
      </trkpt>
      <trkpt lat="47.37399" lon="-1.09103">
        <ele>57.583</ele>
        <time>2020-07-19T10:13:57Z</time>
      </trkpt>
      <trkpt lat="47.37397" lon="-1.09113">
        <ele>57.332</ele>
        <time>2020-07-19T10:13:58Z</time>
      </trkpt>
      <trkpt lat="47.37396" lon="-1.09122">
        <ele>56.021</ele>
        <time>2020-07-19T10:13:59Z</time>
      </trkpt>
      <trkpt lat="47.37394" lon="-1.09132">
        <ele>55.949</ele>
        <time>2020-07-19T10:14:00Z</time>
      </trkpt>
      <trkpt lat="47.37392" lon="-1.09143">
        <ele>55.253</ele>
        <time>2020-07-19T10:14:01Z</time>
      </trkpt>
      <trkpt lat="47.3739" lon="-1.09154">
        <ele>55.885</ele>
        <time>2020-07-19T10:14:02Z</time>
      </trkpt>
      <trkpt lat="47.37389" lon="-1.09163">
        <ele>55.491</ele>
        <time>2020-07-19T10:14:03Z</time>
      </trkpt>
      <trkpt lat="47.37389" lon="-1.09173">
        <ele>55.937</ele>
        <time>2020-07-19T10:14:04Z</time>
      </trkpt>
      <trkpt lat="47.37388" lon="-1.09184">
        <ele>55.814</ele>
        <time>2020-07-19T10:14:05Z</time>
      </trkpt>
      <trkpt lat="47.37388" lon="-1.09193">
        <ele>55.086</ele>
        <time>2020-07-19T10:14:06Z</time>
      </trkpt>
      <trkpt lat="47.37388" lon="-1.09203">
        <ele>54.31</ele>
        <time>2020-07-19T10:14:07Z</time>
      </trkpt>
      <trkpt lat="47.37389" lon="-1.09213">
        <ele>54.263</ele>
        <time>2020-07-19T10:14:08Z</time>
      </trkpt>
      <trkpt lat="47.37391" lon="-1.09222">
        <ele>53.676</ele>
        <time>2020-07-19T10:14:09Z</time>
      </trkpt>
      <trkpt lat="47.37391" lon="-1.09232">
        <ele>53.391</ele>
        <time>2020-07-19T10:14:10Z</time>
      </trkpt>
      <trkpt lat="47.37392" lon="-1.09241">
        <ele>53.237</ele>
        <time>2020-07-19T10:14:11Z</time>
      </trkpt>
      <trkpt lat="47.37392" lon="-1.09252">
        <ele>53.27</ele>
        <time>2020-07-19T10:14:12Z</time>
      </trkpt>
      <trkpt lat="47.37392" lon="-1.09263">
        <ele>52.794</ele>
        <time>2020-07-19T10:14:13Z</time>
      </trkpt>
      <trkpt lat="47.37392" lon="-1.09274">
        <ele>52.726</ele>
        <time>2020-07-19T10:14:14Z</time>
      </trkpt>
      <trkpt lat="47.37391" lon="-1.09284">
        <ele>52.839</ele>
        <time>2020-07-19T10:14:15Z</time>
      </trkpt>
      <trkpt lat="47.37391" lon="-1.09293">
        <ele>53.31</ele>
        <time>2020-07-19T10:14:16Z</time>
      </trkpt>
      <trkpt lat="47.37391" lon="-1.09303">
        <ele>54.011</ele>
        <time>2020-07-19T10:14:17Z</time>
      </trkpt>
      <trkpt lat="47.37391" lon="-1.09312">
        <ele>53.879</ele>
        <time>2020-07-19T10:14:18Z</time>
      </trkpt>
      <trkpt lat="47.37391" lon="-1.09321">
        <ele>54.039</ele>
        <time>2020-07-19T10:14:19Z</time>
      </trkpt>
      <trkpt lat="47.37391" lon="-1.09331">
        <ele>54.925</ele>
        <time>2020-07-19T10:14:20Z</time>
      </trkpt>
      <trkpt lat="47.37392" lon="-1.09338">
        <ele>54.81</ele>
        <time>2020-07-19T10:14:21Z</time>
      </trkpt>
      <trkpt lat="47.37392" lon="-1.09348">
        <ele>55.034</ele>
        <time>2020-07-19T10:14:22Z</time>
      </trkpt>
      <trkpt lat="47.37391" lon="-1.09359">
        <ele>54.811</ele>
        <time>2020-07-19T10:14:23Z</time>
      </trkpt>
      <trkpt lat="47.37391" lon="-1.0937">
        <ele>54.651</ele>
        <time>2020-07-19T10:14:24Z</time>
      </trkpt>
      <trkpt lat="47.3739" lon="-1.0938">
        <ele>54.778</ele>
        <time>2020-07-19T10:14:25Z</time>
      </trkpt>
      <trkpt lat="47.37391" lon="-1.09392">
        <ele>54.471</ele>
        <time>2020-07-19T10:14:26Z</time>
      </trkpt>
      <trkpt lat="47.37392" lon="-1.09401">
        <ele>54.095</ele>
        <time>2020-07-19T10:14:27Z</time>
      </trkpt>
      <trkpt lat="47.37392" lon="-1.09411">
        <ele>54.185</ele>
        <time>2020-07-19T10:14:28Z</time>
      </trkpt>
      <trkpt lat="47.37391" lon="-1.0942">
        <ele>55.352</ele>
        <time>2020-07-19T10:14:29Z</time>
      </trkpt>
      <trkpt lat="47.37389" lon="-1.09429">
        <ele>54.926</ele>
        <time>2020-07-19T10:14:30Z</time>
      </trkpt>
      <trkpt lat="47.37388" lon="-1.0944">
        <ele>54.243</ele>
        <time>2020-07-19T10:14:31Z</time>
      </trkpt>
      <trkpt lat="47.37388" lon="-1.09449">
        <ele>55.195</ele>
        <time>2020-07-19T10:14:32Z</time>
      </trkpt>
      <trkpt lat="47.37387" lon="-1.09461">
        <ele>53.734</ele>
        <time>2020-07-19T10:14:33Z</time>
      </trkpt>
      <trkpt lat="47.37386" lon="-1.09471">
        <ele>53.089</ele>
        <time>2020-07-19T10:14:34Z</time>
      </trkpt>
      <trkpt lat="47.37385" lon="-1.0948">
        <ele>53.283</ele>
        <time>2020-07-19T10:14:35Z</time>
      </trkpt>
      <trkpt lat="47.37383" lon="-1.0949">
        <ele>53.257</ele>
        <time>2020-07-19T10:14:36Z</time>
      </trkpt>
      <trkpt lat="47.37381" lon="-1.09499">
        <ele>54.128</ele>
        <time>2020-07-19T10:14:37Z</time>
      </trkpt>
      <trkpt lat="47.37379" lon="-1.09509">
        <ele>54.615</ele>
        <time>2020-07-19T10:14:38Z</time>
      </trkpt>
      <trkpt lat="47.37377" lon="-1.09518">
        <ele>54.717</ele>
        <time>2020-07-19T10:14:39Z</time>
      </trkpt>
      <trkpt lat="47.37373" lon="-1.09527">
        <ele>54.804</ele>
        <time>2020-07-19T10:14:40Z</time>
      </trkpt>
      <trkpt lat="47.37371" lon="-1.09536">
        <ele>53.44</ele>
        <time>2020-07-19T10:14:41Z</time>
      </trkpt>
      <trkpt lat="47.37369" lon="-1.09545">
        <ele>53.445</ele>
        <time>2020-07-19T10:14:42Z</time>
      </trkpt>
      <trkpt lat="47.37366" lon="-1.09554">
        <ele>54.358</ele>
        <time>2020-07-19T10:14:43Z</time>
      </trkpt>
      <trkpt lat="47.37364" lon="-1.09564">
        <ele>53.719</ele>
        <time>2020-07-19T10:14:44Z</time>
      </trkpt>
      <trkpt lat="47.37361" lon="-1.09573">
        <ele>54.028</ele>
        <time>2020-07-19T10:14:45Z</time>
      </trkpt>
      <trkpt lat="47.37359" lon="-1.09582">
        <ele>53.977</ele>
        <time>2020-07-19T10:14:46Z</time>
      </trkpt>
      <trkpt lat="47.37356" lon="-1.09591">
        <ele>54.636</ele>
        <time>2020-07-19T10:14:47Z</time>
      </trkpt>
      <trkpt lat="47.37353" lon="-1.096">
        <ele>54.921</ele>
        <time>2020-07-19T10:14:48Z</time>
      </trkpt>
      <trkpt lat="47.3735" lon="-1.09609">
        <ele>54.124</ele>
        <time>2020-07-19T10:14:49Z</time>
      </trkpt>
      <trkpt lat="47.37347" lon="-1.09618">
        <ele>54.179</ele>
        <time>2020-07-19T10:14:50Z</time>
      </trkpt>
      <trkpt lat="47.37344" lon="-1.09627">
        <ele>54.135</ele>
        <time>2020-07-19T10:14:51Z</time>
      </trkpt>
      <trkpt lat="47.37341" lon="-1.09638">
        <ele>54.062</ele>
        <time>2020-07-19T10:14:52Z</time>
      </trkpt>
      <trkpt lat="47.37338" lon="-1.09647">
        <ele>53.906</ele>
        <time>2020-07-19T10:14:53Z</time>
      </trkpt>
      <trkpt lat="47.37336" lon="-1.09657">
        <ele>53.909</ele>
        <time>2020-07-19T10:14:54Z</time>
      </trkpt>
      <trkpt lat="47.37333" lon="-1.09665">
        <ele>53.67</ele>
        <time>2020-07-19T10:14:55Z</time>
      </trkpt>
      <trkpt lat="47.37331" lon="-1.09675">
        <ele>53.502</ele>
        <time>2020-07-19T10:14:56Z</time>
      </trkpt>
      <trkpt lat="47.37328" lon="-1.09684">
        <ele>53.361</ele>
        <time>2020-07-19T10:14:57Z</time>
      </trkpt>
      <trkpt lat="47.37325" lon="-1.09694">
        <ele>53.476</ele>
        <time>2020-07-19T10:14:58Z</time>
      </trkpt>
      <trkpt lat="47.37323" lon="-1.09702">
        <ele>51.95</ele>
        <time>2020-07-19T10:14:59Z</time>
      </trkpt>
      <trkpt lat="47.37321" lon="-1.09711">
        <ele>51.574</ele>
        <time>2020-07-19T10:15:00Z</time>
      </trkpt>
      <trkpt lat="47.37319" lon="-1.0972">
        <ele>51.177</ele>
        <time>2020-07-19T10:15:01Z</time>
      </trkpt>
      <trkpt lat="47.37316" lon="-1.09729">
        <ele>51.487</ele>
        <time>2020-07-19T10:15:02Z</time>
      </trkpt>
      <trkpt lat="47.37314" lon="-1.09738">
        <ele>51.931</ele>
        <time>2020-07-19T10:15:03Z</time>
      </trkpt>
      <trkpt lat="47.37311" lon="-1.09748">
        <ele>52.627</ele>
        <time>2020-07-19T10:15:04Z</time>
      </trkpt>
      <trkpt lat="47.3731" lon="-1.09756">
        <ele>52.608</ele>
        <time>2020-07-19T10:15:05Z</time>
      </trkpt>
      <trkpt lat="47.37308" lon="-1.09764">
        <ele>53.491</ele>
        <time>2020-07-19T10:15:06Z</time>
      </trkpt>
      <trkpt lat="47.37308" lon="-1.09772">
        <ele>54.673</ele>
        <time>2020-07-19T10:15:07Z</time>
      </trkpt>
      <trkpt lat="47.37309" lon="-1.09779">
        <ele>54.766</ele>
        <time>2020-07-19T10:15:08Z</time>
      </trkpt>
      <trkpt lat="47.37311" lon="-1.09786">
        <ele>54.518</ele>
        <time>2020-07-19T10:15:09Z</time>
      </trkpt>
      <trkpt lat="47.37315" lon="-1.09792">
        <ele>54.266</ele>
        <time>2020-07-19T10:15:10Z</time>
      </trkpt>
      <trkpt lat="47.37318" lon="-1.09799">
        <ele>54.414</ele>
        <time>2020-07-19T10:15:11Z</time>
      </trkpt>
      <trkpt lat="47.37322" lon="-1.09806">
        <ele>54.749</ele>
        <time>2020-07-19T10:15:12Z</time>
      </trkpt>
      <trkpt lat="47.37325" lon="-1.09813">
        <ele>54.681</ele>
        <time>2020-07-19T10:15:13Z</time>
      </trkpt>
      <trkpt lat="47.37329" lon="-1.0982">
        <ele>55.236</ele>
        <time>2020-07-19T10:15:14Z</time>
      </trkpt>
      <trkpt lat="47.37333" lon="-1.09827">
        <ele>55.488</ele>
        <time>2020-07-19T10:15:15Z</time>
      </trkpt>
      <trkpt lat="47.37337" lon="-1.09834">
        <ele>55.5</ele>
        <time>2020-07-19T10:15:16Z</time>
      </trkpt>
      <trkpt lat="47.37341" lon="-1.09841">
        <ele>55.614</ele>
        <time>2020-07-19T10:15:17Z</time>
      </trkpt>
      <trkpt lat="47.37345" lon="-1.09849">
        <ele>56.114</ele>
        <time>2020-07-19T10:15:18Z</time>
      </trkpt>
      <trkpt lat="47.37349" lon="-1.09856">
        <ele>55.898</ele>
        <time>2020-07-19T10:15:19Z</time>
      </trkpt>
      <trkpt lat="47.37353" lon="-1.09862">
        <ele>55.998</ele>
        <time>2020-07-19T10:15:20Z</time>
      </trkpt>
      <trkpt lat="47.37358" lon="-1.09869">
        <ele>56.207</ele>
        <time>2020-07-19T10:15:21Z</time>
      </trkpt>
      <trkpt lat="47.37364" lon="-1.09874">
        <ele>56.737</ele>
        <time>2020-07-19T10:15:22Z</time>
      </trkpt>
      <trkpt lat="47.37368" lon="-1.09878">
        <ele>56.747</ele>
        <time>2020-07-19T10:15:23Z</time>
      </trkpt>
      <trkpt lat="47.37376" lon="-1.09882">
        <ele>55.736</ele>
        <time>2020-07-19T10:15:24Z</time>
      </trkpt>
      <trkpt lat="47.37382" lon="-1.09886">
        <ele>55.873</ele>
        <time>2020-07-19T10:15:25Z</time>
      </trkpt>
      <trkpt lat="47.37389" lon="-1.09889">
        <ele>55.298</ele>
        <time>2020-07-19T10:15:26Z</time>
      </trkpt>
      <trkpt lat="47.37395" lon="-1.09893">
        <ele>55.64</ele>
        <time>2020-07-19T10:15:27Z</time>
      </trkpt>
      <trkpt lat="47.37402" lon="-1.09897">
        <ele>56.008</ele>
        <time>2020-07-19T10:15:28Z</time>
      </trkpt>
      <trkpt lat="47.37408" lon="-1.09899">
        <ele>56.185</ele>
        <time>2020-07-19T10:15:29Z</time>
      </trkpt>
      <trkpt lat="47.37415" lon="-1.09903">
        <ele>56.046</ele>
        <time>2020-07-19T10:15:30Z</time>
      </trkpt>
      <trkpt lat="47.37422" lon="-1.09906">
        <ele>55.975</ele>
        <time>2020-07-19T10:15:31Z</time>
      </trkpt>
      <trkpt lat="47.37429" lon="-1.09908">
        <ele>55.933</ele>
        <time>2020-07-19T10:15:32Z</time>
      </trkpt>
      <trkpt lat="47.37436" lon="-1.09912">
        <ele>55.622</ele>
        <time>2020-07-19T10:15:33Z</time>
      </trkpt>
      <trkpt lat="47.37443" lon="-1.09915">
        <ele>55.195</ele>
        <time>2020-07-19T10:15:34Z</time>
      </trkpt>
      <trkpt lat="47.37451" lon="-1.09918">
        <ele>54.378</ele>
        <time>2020-07-19T10:15:35Z</time>
      </trkpt>
      <trkpt lat="47.37459" lon="-1.09922">
        <ele>54.341</ele>
        <time>2020-07-19T10:15:36Z</time>
      </trkpt>
      <trkpt lat="47.37466" lon="-1.09927">
        <ele>54.219</ele>
        <time>2020-07-19T10:15:37Z</time>
      </trkpt>
      <trkpt lat="47.37474" lon="-1.09931">
        <ele>53.351</ele>
        <time>2020-07-19T10:15:38Z</time>
      </trkpt>
      <trkpt lat="47.37481" lon="-1.09936">
        <ele>52.338</ele>
        <time>2020-07-19T10:15:39Z</time>
      </trkpt>
      <trkpt lat="47.37489" lon="-1.0994">
        <ele>52.303</ele>
        <time>2020-07-19T10:15:40Z</time>
      </trkpt>
      <trkpt lat="47.37496" lon="-1.09945">
        <ele>52.968</ele>
        <time>2020-07-19T10:15:41Z</time>
      </trkpt>
      <trkpt lat="47.37504" lon="-1.09948">
        <ele>53.611</ele>
        <time>2020-07-19T10:15:42Z</time>
      </trkpt>
      <trkpt lat="47.37511" lon="-1.09953">
        <ele>52.993</ele>
        <time>2020-07-19T10:15:43Z</time>
      </trkpt>
      <trkpt lat="47.37519" lon="-1.09956">
        <ele>53.164</ele>
        <time>2020-07-19T10:15:44Z</time>
      </trkpt>
      <trkpt lat="47.37526" lon="-1.09958">
        <ele>53.599</ele>
        <time>2020-07-19T10:15:45Z</time>
      </trkpt>
      <trkpt lat="47.37533" lon="-1.09961">
        <ele>53.712</ele>
        <time>2020-07-19T10:15:46Z</time>
      </trkpt>
      <trkpt lat="47.3754" lon="-1.09965">
        <ele>53.302</ele>
        <time>2020-07-19T10:15:47Z</time>
      </trkpt>
      <trkpt lat="47.37548" lon="-1.09966">
        <ele>53.092</ele>
        <time>2020-07-19T10:15:48Z</time>
      </trkpt>
      <trkpt lat="47.37554" lon="-1.09969">
        <ele>54.582</ele>
        <time>2020-07-19T10:15:49Z</time>
      </trkpt>
      <trkpt lat="47.37561" lon="-1.09972">
        <ele>55.243</ele>
        <time>2020-07-19T10:15:50Z</time>
      </trkpt>
      <trkpt lat="47.37567" lon="-1.09975">
        <ele>55.565</ele>
        <time>2020-07-19T10:15:51Z</time>
      </trkpt>
      <trkpt lat="47.37574" lon="-1.09977">
        <ele>56.843</ele>
        <time>2020-07-19T10:15:52Z</time>
      </trkpt>
      <trkpt lat="47.37581" lon="-1.09979">
        <ele>57.664</ele>
        <time>2020-07-19T10:15:53Z</time>
      </trkpt>
      <trkpt lat="47.37586" lon="-1.09981">
        <ele>58.262</ele>
        <time>2020-07-19T10:15:54Z</time>
      </trkpt>
      <trkpt lat="47.37593" lon="-1.09983">
        <ele>57.369</ele>
        <time>2020-07-19T10:15:55Z</time>
      </trkpt>
      <trkpt lat="47.37599" lon="-1.09983">
        <ele>57.545</ele>
        <time>2020-07-19T10:15:56Z</time>
      </trkpt>
      <trkpt lat="47.37606" lon="-1.09982">
        <ele>59.005</ele>
        <time>2020-07-19T10:15:57Z</time>
      </trkpt>
      <trkpt lat="47.37613" lon="-1.0998">
        <ele>59.108</ele>
        <time>2020-07-19T10:15:58Z</time>
      </trkpt>
      <trkpt lat="47.3762" lon="-1.09978">
        <ele>58.798</ele>
        <time>2020-07-19T10:15:59Z</time>
      </trkpt>
      <trkpt lat="47.37626" lon="-1.09975">
        <ele>58.538</ele>
        <time>2020-07-19T10:16:00Z</time>
      </trkpt>
      <trkpt lat="47.37631" lon="-1.09971">
        <ele>59.449</ele>
        <time>2020-07-19T10:16:01Z</time>
      </trkpt>
      <trkpt lat="47.37638" lon="-1.09965">
        <ele>59.052</ele>
        <time>2020-07-19T10:16:02Z</time>
      </trkpt>
      <trkpt lat="47.37644" lon="-1.09959">
        <ele>59.432</ele>
        <time>2020-07-19T10:16:03Z</time>
      </trkpt>
      <trkpt lat="47.3765" lon="-1.09952">
        <ele>59.208</ele>
        <time>2020-07-19T10:16:04Z</time>
      </trkpt>
      <trkpt lat="47.37655" lon="-1.09945">
        <ele>59.477</ele>
        <time>2020-07-19T10:16:05Z</time>
      </trkpt>
      <trkpt lat="47.37661" lon="-1.09938">
        <ele>59.066</ele>
        <time>2020-07-19T10:16:06Z</time>
      </trkpt>
      <trkpt lat="47.37666" lon="-1.09931">
        <ele>58.711</ele>
        <time>2020-07-19T10:16:07Z</time>
      </trkpt>
      <trkpt lat="47.37672" lon="-1.09926">
        <ele>58.973</ele>
        <time>2020-07-19T10:16:08Z</time>
      </trkpt>
      <trkpt lat="47.37677" lon="-1.0992">
        <ele>59.314</ele>
        <time>2020-07-19T10:16:09Z</time>
      </trkpt>
      <trkpt lat="47.37684" lon="-1.09915">
        <ele>59.468</ele>
        <time>2020-07-19T10:16:10Z</time>
      </trkpt>
      <trkpt lat="47.37692" lon="-1.09912">
        <ele>60.138</ele>
        <time>2020-07-19T10:16:11Z</time>
      </trkpt>
      <trkpt lat="47.37697" lon="-1.09907">
        <ele>59.785</ele>
        <time>2020-07-19T10:16:12Z</time>
      </trkpt>
      <trkpt lat="47.37704" lon="-1.09904">
        <ele>59.263</ele>
        <time>2020-07-19T10:16:13Z</time>
      </trkpt>
      <trkpt lat="47.37711" lon="-1.09902">
        <ele>59.588</ele>
        <time>2020-07-19T10:16:14Z</time>
      </trkpt>
      <trkpt lat="47.37719" lon="-1.09901">
        <ele>59.552</ele>
        <time>2020-07-19T10:16:15Z</time>
      </trkpt>
      <trkpt lat="47.37725" lon="-1.09901">
        <ele>59.616</ele>
        <time>2020-07-19T10:16:16Z</time>
      </trkpt>
      <trkpt lat="47.37734" lon="-1.09903">
        <ele>60.804</ele>
        <time>2020-07-19T10:16:17Z</time>
      </trkpt>
      <trkpt lat="47.3774" lon="-1.09904">
        <ele>60.707</ele>
        <time>2020-07-19T10:16:18Z</time>
      </trkpt>
      <trkpt lat="47.37747" lon="-1.09907">
        <ele>60.408</ele>
        <time>2020-07-19T10:16:19Z</time>
      </trkpt>
      <trkpt lat="47.37753" lon="-1.09908">
        <ele>60.605</ele>
        <time>2020-07-19T10:16:20Z</time>
      </trkpt>
      <trkpt lat="47.3776" lon="-1.0991">
        <ele>60.965</ele>
        <time>2020-07-19T10:16:21Z</time>
      </trkpt>
      <trkpt lat="47.37768" lon="-1.09911">
        <ele>60.69</ele>
        <time>2020-07-19T10:16:22Z</time>
      </trkpt>
      <trkpt lat="47.37774" lon="-1.09912">
        <ele>61.105</ele>
        <time>2020-07-19T10:16:23Z</time>
      </trkpt>
      <trkpt lat="47.3778" lon="-1.09913">
        <ele>60.809</ele>
        <time>2020-07-19T10:16:24Z</time>
      </trkpt>
      <trkpt lat="47.37787" lon="-1.09916">
        <ele>59.653</ele>
        <time>2020-07-19T10:16:25Z</time>
      </trkpt>
      <trkpt lat="47.37793" lon="-1.09917">
        <ele>60.308</ele>
        <time>2020-07-19T10:16:26Z</time>
      </trkpt>
      <trkpt lat="47.37799" lon="-1.09919">
        <ele>60.94</ele>
        <time>2020-07-19T10:16:27Z</time>
      </trkpt>
      <trkpt lat="47.37808" lon="-1.0992">
        <ele>61.384</ele>
        <time>2020-07-19T10:16:28Z</time>
      </trkpt>
      <trkpt lat="47.37814" lon="-1.09922">
        <ele>61.835</ele>
        <time>2020-07-19T10:16:29Z</time>
      </trkpt>
      <trkpt lat="47.37819" lon="-1.09924">
        <ele>61.465</ele>
        <time>2020-07-19T10:16:30Z</time>
      </trkpt>
      <trkpt lat="47.37826" lon="-1.09924">
        <ele>61.506</ele>
        <time>2020-07-19T10:16:31Z</time>
      </trkpt>
      <trkpt lat="47.37833" lon="-1.09926">
        <ele>60.51</ele>
        <time>2020-07-19T10:16:32Z</time>
      </trkpt>
      <trkpt lat="47.37839" lon="-1.09928">
        <ele>59.867</ele>
        <time>2020-07-19T10:16:33Z</time>
      </trkpt>
      <trkpt lat="47.37846" lon="-1.09928">
        <ele>59.884</ele>
        <time>2020-07-19T10:16:34Z</time>
      </trkpt>
      <trkpt lat="47.37853" lon="-1.0993">
        <ele>60.024</ele>
        <time>2020-07-19T10:16:35Z</time>
      </trkpt>
      <trkpt lat="47.37859" lon="-1.09931">
        <ele>60.707</ele>
        <time>2020-07-19T10:16:36Z</time>
      </trkpt>
      <trkpt lat="47.37865" lon="-1.09932">
        <ele>61.384</ele>
        <time>2020-07-19T10:16:37Z</time>
      </trkpt>
      <trkpt lat="47.37871" lon="-1.09933">
        <ele>60.642</ele>
        <time>2020-07-19T10:16:38Z</time>
      </trkpt>
      <trkpt lat="47.37877" lon="-1.09935">
        <ele>60.435</ele>
        <time>2020-07-19T10:16:39Z</time>
      </trkpt>
      <trkpt lat="47.37884" lon="-1.09936">
        <ele>60.814</ele>
        <time>2020-07-19T10:16:40Z</time>
      </trkpt>
      <trkpt lat="47.3789" lon="-1.09937">
        <ele>60.488</ele>
        <time>2020-07-19T10:16:41Z</time>
      </trkpt>
      <trkpt lat="47.37897" lon="-1.09937">
        <ele>59.133</ele>
        <time>2020-07-19T10:16:42Z</time>
      </trkpt>
      <trkpt lat="47.37904" lon="-1.09937">
        <ele>59.216</ele>
        <time>2020-07-19T10:16:43Z</time>
      </trkpt>
      <trkpt lat="47.37911" lon="-1.09939">
        <ele>59.226</ele>
        <time>2020-07-19T10:16:44Z</time>
      </trkpt>
      <trkpt lat="47.37918" lon="-1.09941">
        <ele>59.515</ele>
        <time>2020-07-19T10:16:45Z</time>
      </trkpt>
      <trkpt lat="47.37925" lon="-1.09942">
        <ele>60.647</ele>
        <time>2020-07-19T10:16:46Z</time>
      </trkpt>
      <trkpt lat="47.37931" lon="-1.09944">
        <ele>60.335</ele>
        <time>2020-07-19T10:16:47Z</time>
      </trkpt>
      <trkpt lat="47.37937" lon="-1.09947">
        <ele>60.735</ele>
        <time>2020-07-19T10:16:48Z</time>
      </trkpt>
      <trkpt lat="47.37944" lon="-1.09949">
        <ele>60.712</ele>
        <time>2020-07-19T10:16:49Z</time>
      </trkpt>
      <trkpt lat="47.3795" lon="-1.09952">
        <ele>60.377</ele>
        <time>2020-07-19T10:16:50Z</time>
      </trkpt>
      <trkpt lat="47.37958" lon="-1.09955">
        <ele>60.69</ele>
        <time>2020-07-19T10:16:51Z</time>
      </trkpt>
      <trkpt lat="47.37965" lon="-1.09957">
        <ele>61.101</ele>
        <time>2020-07-19T10:16:52Z</time>
      </trkpt>
      <trkpt lat="47.37971" lon="-1.09961">
        <ele>60.727</ele>
        <time>2020-07-19T10:16:53Z</time>
      </trkpt>
      <trkpt lat="47.37978" lon="-1.09963">
        <ele>60.418</ele>
        <time>2020-07-19T10:16:54Z</time>
      </trkpt>
      <trkpt lat="47.37985" lon="-1.09967">
        <ele>60.106</ele>
        <time>2020-07-19T10:16:55Z</time>
      </trkpt>
      <trkpt lat="47.37991" lon="-1.0997">
        <ele>60.528</ele>
        <time>2020-07-19T10:16:56Z</time>
      </trkpt>
      <trkpt lat="47.37997" lon="-1.09974">
        <ele>60.199</ele>
        <time>2020-07-19T10:16:57Z</time>
      </trkpt>
      <trkpt lat="47.38003" lon="-1.09978">
        <ele>60.049</ele>
        <time>2020-07-19T10:16:58Z</time>
      </trkpt>
      <trkpt lat="47.38008" lon="-1.09983">
        <ele>61.201</ele>
        <time>2020-07-19T10:16:59Z</time>
      </trkpt>
      <trkpt lat="47.38016" lon="-1.09987">
        <ele>61.106</ele>
        <time>2020-07-19T10:17:00Z</time>
      </trkpt>
      <trkpt lat="47.38021" lon="-1.09994">
        <ele>61.405</ele>
        <time>2020-07-19T10:17:01Z</time>
      </trkpt>
      <trkpt lat="47.38026" lon="-1.10001">
        <ele>61.316</ele>
        <time>2020-07-19T10:17:02Z</time>
      </trkpt>
      <trkpt lat="47.38029" lon="-1.10008">
        <ele>61.896</ele>
        <time>2020-07-19T10:17:03Z</time>
      </trkpt>
      <trkpt lat="47.38034" lon="-1.10016">
        <ele>62.308</ele>
        <time>2020-07-19T10:17:04Z</time>
      </trkpt>
      <trkpt lat="47.38037" lon="-1.10025">
        <ele>63.652</ele>
        <time>2020-07-19T10:17:05Z</time>
      </trkpt>
      <trkpt lat="47.3804" lon="-1.10033">
        <ele>63.799</ele>
        <time>2020-07-19T10:17:06Z</time>
      </trkpt>
      <trkpt lat="47.38044" lon="-1.10041">
        <ele>64.785</ele>
        <time>2020-07-19T10:17:07Z</time>
      </trkpt>
      <trkpt lat="47.38048" lon="-1.10049">
        <ele>65.096</ele>
        <time>2020-07-19T10:17:08Z</time>
      </trkpt>
      <trkpt lat="47.38051" lon="-1.10055">
        <ele>64.753</ele>
        <time>2020-07-19T10:17:09Z</time>
      </trkpt>
      <trkpt lat="47.38054" lon="-1.10064">
        <ele>64.909</ele>
        <time>2020-07-19T10:17:10Z</time>
      </trkpt>
      <trkpt lat="47.38056" lon="-1.10072">
        <ele>64.396</ele>
        <time>2020-07-19T10:17:11Z</time>
      </trkpt>
      <trkpt lat="47.38059" lon="-1.1008">
        <ele>64.778</ele>
        <time>2020-07-19T10:17:12Z</time>
      </trkpt>
      <trkpt lat="47.38062" lon="-1.10089">
        <ele>64.618</ele>
        <time>2020-07-19T10:17:13Z</time>
      </trkpt>
      <trkpt lat="47.38065" lon="-1.10098">
        <ele>64.652</ele>
        <time>2020-07-19T10:17:14Z</time>
      </trkpt>
      <trkpt lat="47.38067" lon="-1.10106">
        <ele>65.042</ele>
        <time>2020-07-19T10:17:15Z</time>
      </trkpt>
      <trkpt lat="47.3807" lon="-1.10114">
        <ele>65.636</ele>
        <time>2020-07-19T10:17:16Z</time>
      </trkpt>
      <trkpt lat="47.38073" lon="-1.10123">
        <ele>64.671</ele>
        <time>2020-07-19T10:17:17Z</time>
      </trkpt>
      <trkpt lat="47.38076" lon="-1.1013">
        <ele>65.21</ele>
        <time>2020-07-19T10:17:18Z</time>
      </trkpt>
      <trkpt lat="47.38079" lon="-1.10138">
        <ele>65.143</ele>
        <time>2020-07-19T10:17:19Z</time>
      </trkpt>
      <trkpt lat="47.38083" lon="-1.10145">
        <ele>65.702</ele>
        <time>2020-07-19T10:17:20Z</time>
      </trkpt>
      <trkpt lat="47.38088" lon="-1.10151">
        <ele>66.274</ele>
        <time>2020-07-19T10:17:21Z</time>
      </trkpt>
      <trkpt lat="47.38094" lon="-1.10157">
        <ele>67.467</ele>
        <time>2020-07-19T10:17:22Z</time>
      </trkpt>
      <trkpt lat="47.381" lon="-1.10163">
        <ele>68.149</ele>
        <time>2020-07-19T10:17:23Z</time>
      </trkpt>
      <trkpt lat="47.38105" lon="-1.10168">
        <ele>68.51</ele>
        <time>2020-07-19T10:17:24Z</time>
      </trkpt>
      <trkpt lat="47.38111" lon="-1.10173">
        <ele>69.037</ele>
        <time>2020-07-19T10:17:25Z</time>
      </trkpt>
      <trkpt lat="47.38116" lon="-1.10177">
        <ele>68.899</ele>
        <time>2020-07-19T10:17:26Z</time>
      </trkpt>
      <trkpt lat="47.38121" lon="-1.10181">
        <ele>69.075</ele>
        <time>2020-07-19T10:17:27Z</time>
      </trkpt>
      <trkpt lat="47.38126" lon="-1.10184">
        <ele>69.233</ele>
        <time>2020-07-19T10:17:28Z</time>
      </trkpt>
      <trkpt lat="47.38131" lon="-1.10188">
        <ele>69.413</ele>
        <time>2020-07-19T10:17:29Z</time>
      </trkpt>
      <trkpt lat="47.38135" lon="-1.10192">
        <ele>68.497</ele>
        <time>2020-07-19T10:17:30Z</time>
      </trkpt>
      <trkpt lat="47.3814" lon="-1.10194">
        <ele>68.608</ele>
        <time>2020-07-19T10:17:31Z</time>
      </trkpt>
      <trkpt lat="47.38143" lon="-1.10198">
        <ele>68.322</ele>
        <time>2020-07-19T10:17:32Z</time>
      </trkpt>
      <trkpt lat="47.38146" lon="-1.10202">
        <ele>68.118</ele>
        <time>2020-07-19T10:17:33Z</time>
      </trkpt>
      <trkpt lat="47.3815" lon="-1.10206">
        <ele>67.927</ele>
        <time>2020-07-19T10:17:34Z</time>
      </trkpt>
      <trkpt lat="47.38153" lon="-1.1021">
        <ele>67.915</ele>
        <time>2020-07-19T10:17:35Z</time>
      </trkpt>
      <trkpt lat="47.38155" lon="-1.10215">
        <ele>67.62</ele>
        <time>2020-07-19T10:17:36Z</time>
      </trkpt>
      <trkpt lat="47.38157" lon="-1.1022">
        <ele>68.626</ele>
        <time>2020-07-19T10:17:37Z</time>
      </trkpt>
      <trkpt lat="47.38159" lon="-1.10225">
        <ele>69.1</ele>
        <time>2020-07-19T10:17:38Z</time>
      </trkpt>
      <trkpt lat="47.38161" lon="-1.1023">
        <ele>68.985</ele>
        <time>2020-07-19T10:17:39Z</time>
      </trkpt>
      <trkpt lat="47.38164" lon="-1.10233">
        <ele>69.571</ele>
        <time>2020-07-19T10:17:40Z</time>
      </trkpt>
      <trkpt lat="47.38165" lon="-1.10236">
        <ele>69.79</ele>
        <time>2020-07-19T10:17:41Z</time>
      </trkpt>
      <trkpt lat="47.38166" lon="-1.1024">
        <ele>69.964</ele>
        <time>2020-07-19T10:17:42Z</time>
      </trkpt>
      <trkpt lat="47.38166" lon="-1.10245">
        <ele>70.123</ele>
        <time>2020-07-19T10:17:43Z</time>
      </trkpt>
      <trkpt lat="47.38165" lon="-1.10248">
        <ele>69.909</ele>
        <time>2020-07-19T10:17:44Z</time>
      </trkpt>
      <trkpt lat="47.38164" lon="-1.10251">
        <ele>69.497</ele>
        <time>2020-07-19T10:17:45Z</time>
      </trkpt>
      <trkpt lat="47.38164" lon="-1.10254">
        <ele>68.771</ele>
        <time>2020-07-19T10:17:46Z</time>
      </trkpt>
      <trkpt lat="47.38162" lon="-1.10259">
        <ele>68.528</ele>
        <time>2020-07-19T10:17:47Z</time>
      </trkpt>
      <trkpt lat="47.38161" lon="-1.10264">
        <ele>67.445</ele>
        <time>2020-07-19T10:17:48Z</time>
      </trkpt>
      <trkpt lat="47.3816" lon="-1.1027">
        <ele>67.378</ele>
        <time>2020-07-19T10:17:49Z</time>
      </trkpt>
      <trkpt lat="47.3816" lon="-1.10275">
        <ele>68.163</ele>
        <time>2020-07-19T10:17:50Z</time>
      </trkpt>
      <trkpt lat="47.38159" lon="-1.10281">
        <ele>68.892</ele>
        <time>2020-07-19T10:17:51Z</time>
      </trkpt>
      <trkpt lat="47.38158" lon="-1.10286">
        <ele>69.998</ele>
        <time>2020-07-19T10:17:52Z</time>
      </trkpt>
      <trkpt lat="47.38157" lon="-1.10292">
        <ele>70.679</ele>
        <time>2020-07-19T10:17:53Z</time>
      </trkpt>
      <trkpt lat="47.38156" lon="-1.10298">
        <ele>70.564</ele>
        <time>2020-07-19T10:17:54Z</time>
      </trkpt>
      <trkpt lat="47.38155" lon="-1.10303">
        <ele>71.196</ele>
        <time>2020-07-19T10:17:55Z</time>
      </trkpt>
      <trkpt lat="47.38155" lon="-1.10309">
        <ele>70.856</ele>
        <time>2020-07-19T10:17:56Z</time>
      </trkpt>
      <trkpt lat="47.38154" lon="-1.10315">
        <ele>71.004</ele>
        <time>2020-07-19T10:17:57Z</time>
      </trkpt>
      <trkpt lat="47.38152" lon="-1.10321">
        <ele>71.029</ele>
        <time>2020-07-19T10:17:58Z</time>
      </trkpt>
      <trkpt lat="47.3815" lon="-1.10326">
        <ele>70.91</ele>
        <time>2020-07-19T10:17:59Z</time>
      </trkpt>
      <trkpt lat="47.38149" lon="-1.10333">
        <ele>70.698</ele>
        <time>2020-07-19T10:18:00Z</time>
      </trkpt>
      <trkpt lat="47.38148" lon="-1.1034">
        <ele>71.209</ele>
        <time>2020-07-19T10:18:01Z</time>
      </trkpt>
      <trkpt lat="47.38146" lon="-1.10347">
        <ele>71.858</ele>
        <time>2020-07-19T10:18:02Z</time>
      </trkpt>
      <trkpt lat="47.38147" lon="-1.1035">
        <ele>71.256</ele>
        <time>2020-07-19T10:18:03Z</time>
      </trkpt>
      <trkpt lat="47.38144" lon="-1.10358">
        <ele>71.596</ele>
        <time>2020-07-19T10:18:04Z</time>
      </trkpt>
      <trkpt lat="47.38142" lon="-1.10366">
        <ele>71.477</ele>
        <time>2020-07-19T10:18:05Z</time>
      </trkpt>
      <trkpt lat="47.38141" lon="-1.10372">
        <ele>71.24</ele>
        <time>2020-07-19T10:18:06Z</time>
      </trkpt>
      <trkpt lat="47.38136" lon="-1.10383">
        <ele>70.787</ele>
        <time>2020-07-19T10:18:07Z</time>
      </trkpt>
      <trkpt lat="47.38134" lon="-1.10389">
        <ele>70.413</ele>
        <time>2020-07-19T10:18:08Z</time>
      </trkpt>
      <trkpt lat="47.38132" lon="-1.10398">
        <ele>69.789</ele>
        <time>2020-07-19T10:18:09Z</time>
      </trkpt>
      <trkpt lat="47.3813" lon="-1.10407">
        <ele>69.697</ele>
        <time>2020-07-19T10:18:10Z</time>
      </trkpt>
      <trkpt lat="47.38129" lon="-1.10414">
        <ele>70.933</ele>
        <time>2020-07-19T10:18:11Z</time>
      </trkpt>
      <trkpt lat="47.38127" lon="-1.1042">
        <ele>72.148</ele>
        <time>2020-07-19T10:18:12Z</time>
      </trkpt>
      <trkpt lat="47.38126" lon="-1.10428">
        <ele>73.306</ele>
        <time>2020-07-19T10:18:13Z</time>
      </trkpt>
      <trkpt lat="47.38124" lon="-1.10436">
        <ele>73.922</ele>
        <time>2020-07-19T10:18:14Z</time>
      </trkpt>
      <trkpt lat="47.38121" lon="-1.10443">
        <ele>74.518</ele>
        <time>2020-07-19T10:18:15Z</time>
      </trkpt>
      <trkpt lat="47.38122" lon="-1.10451">
        <ele>74.086</ele>
        <time>2020-07-19T10:18:16Z</time>
      </trkpt>
      <trkpt lat="47.38121" lon="-1.10457">
        <ele>74.604</ele>
        <time>2020-07-19T10:18:17Z</time>
      </trkpt>
      <trkpt lat="47.38118" lon="-1.10465">
        <ele>74.663</ele>
        <time>2020-07-19T10:18:18Z</time>
      </trkpt>
      <trkpt lat="47.38116" lon="-1.10472">
        <ele>74.292</ele>
        <time>2020-07-19T10:18:19Z</time>
      </trkpt>
      <trkpt lat="47.38115" lon="-1.10481">
        <ele>75.339</ele>
        <time>2020-07-19T10:18:20Z</time>
      </trkpt>
      <trkpt lat="47.38114" lon="-1.10488">
        <ele>75.34</ele>
        <time>2020-07-19T10:18:21Z</time>
      </trkpt>
      <trkpt lat="47.38113" lon="-1.10496">
        <ele>75.291</ele>
        <time>2020-07-19T10:18:22Z</time>
      </trkpt>
      <trkpt lat="47.38111" lon="-1.10504">
        <ele>74.754</ele>
        <time>2020-07-19T10:18:23Z</time>
      </trkpt>
      <trkpt lat="47.38111" lon="-1.10512">
        <ele>74.078</ele>
        <time>2020-07-19T10:18:24Z</time>
      </trkpt>
      <trkpt lat="47.38109" lon="-1.1052">
        <ele>73.57</ele>
        <time>2020-07-19T10:18:25Z</time>
      </trkpt>
      <trkpt lat="47.38108" lon="-1.10527">
        <ele>72.543</ele>
        <time>2020-07-19T10:18:26Z</time>
      </trkpt>
      <trkpt lat="47.38107" lon="-1.10536">
        <ele>72.325</ele>
        <time>2020-07-19T10:18:27Z</time>
      </trkpt>
      <trkpt lat="47.38105" lon="-1.10545">
        <ele>72.852</ele>
        <time>2020-07-19T10:18:28Z</time>
      </trkpt>
      <trkpt lat="47.38103" lon="-1.10553">
        <ele>72.904</ele>
        <time>2020-07-19T10:18:29Z</time>
      </trkpt>
      <trkpt lat="47.38102" lon="-1.1056">
        <ele>73.361</ele>
        <time>2020-07-19T10:18:30Z</time>
      </trkpt>
      <trkpt lat="47.381" lon="-1.10566">
        <ele>73.868</ele>
        <time>2020-07-19T10:18:31Z</time>
      </trkpt>
      <trkpt lat="47.381" lon="-1.10572">
        <ele>72.805</ele>
        <time>2020-07-19T10:18:32Z</time>
      </trkpt>
      <trkpt lat="47.38098" lon="-1.1058">
        <ele>71.912</ele>
        <time>2020-07-19T10:18:33Z</time>
      </trkpt>
      <trkpt lat="47.38098" lon="-1.10587">
        <ele>72.192</ele>
        <time>2020-07-19T10:18:34Z</time>
      </trkpt>
      <trkpt lat="47.38098" lon="-1.10594">
        <ele>71.986</ele>
        <time>2020-07-19T10:18:35Z</time>
      </trkpt>
      <trkpt lat="47.38097" lon="-1.10602">
        <ele>71.986</ele>
        <time>2020-07-19T10:18:36Z</time>
      </trkpt>
      <trkpt lat="47.38096" lon="-1.10609">
        <ele>71.96</ele>
        <time>2020-07-19T10:18:37Z</time>
      </trkpt>
      <trkpt lat="47.38095" lon="-1.10617">
        <ele>72.256</ele>
        <time>2020-07-19T10:18:38Z</time>
      </trkpt>
      <trkpt lat="47.38094" lon="-1.10625">
        <ele>71.242</ele>
        <time>2020-07-19T10:18:39Z</time>
      </trkpt>
      <trkpt lat="47.38093" lon="-1.10633">
        <ele>70.686</ele>
        <time>2020-07-19T10:18:40Z</time>
      </trkpt>
      <trkpt lat="47.38091" lon="-1.10642">
        <ele>70.063</ele>
        <time>2020-07-19T10:18:41Z</time>
      </trkpt>
      <trkpt lat="47.3809" lon="-1.10649">
        <ele>69.729</ele>
        <time>2020-07-19T10:18:42Z</time>
      </trkpt>
      <trkpt lat="47.38088" lon="-1.10658">
        <ele>69.894</ele>
        <time>2020-07-19T10:18:43Z</time>
      </trkpt>
      <trkpt lat="47.38086" lon="-1.10667">
        <ele>69.851</ele>
        <time>2020-07-19T10:18:44Z</time>
      </trkpt>
      <trkpt lat="47.38086" lon="-1.10675">
        <ele>69.323</ele>
        <time>2020-07-19T10:18:45Z</time>
      </trkpt>
      <trkpt lat="47.38084" lon="-1.10683">
        <ele>69.73</ele>
        <time>2020-07-19T10:18:46Z</time>
      </trkpt>
      <trkpt lat="47.38083" lon="-1.10691">
        <ele>69.823</ele>
        <time>2020-07-19T10:18:47Z</time>
      </trkpt>
      <trkpt lat="47.38081" lon="-1.107">
        <ele>70.798</ele>
        <time>2020-07-19T10:18:48Z</time>
      </trkpt>
      <trkpt lat="47.38081" lon="-1.10708">
        <ele>71.426</ele>
        <time>2020-07-19T10:18:49Z</time>
      </trkpt>
      <trkpt lat="47.38079" lon="-1.10716">
        <ele>71.068</ele>
        <time>2020-07-19T10:18:50Z</time>
      </trkpt>
      <trkpt lat="47.38077" lon="-1.10725">
        <ele>71.372</ele>
        <time>2020-07-19T10:18:51Z</time>
      </trkpt>
      <trkpt lat="47.38076" lon="-1.10733">
        <ele>71.837</ele>
        <time>2020-07-19T10:18:52Z</time>
      </trkpt>
      <trkpt lat="47.38074" lon="-1.10742">
        <ele>71.837</ele>
        <time>2020-07-19T10:18:53Z</time>
      </trkpt>
      <trkpt lat="47.38073" lon="-1.10751">
        <ele>71.934</ele>
        <time>2020-07-19T10:18:54Z</time>
      </trkpt>
      <trkpt lat="47.38071" lon="-1.1076">
        <ele>71.677</ele>
        <time>2020-07-19T10:18:55Z</time>
      </trkpt>
      <trkpt lat="47.38069" lon="-1.10769">
        <ele>71.391</ele>
        <time>2020-07-19T10:18:56Z</time>
      </trkpt>
      <trkpt lat="47.38067" lon="-1.10779">
        <ele>71.981</ele>
        <time>2020-07-19T10:18:57Z</time>
      </trkpt>
      <trkpt lat="47.38065" lon="-1.10788">
        <ele>72.328</ele>
        <time>2020-07-19T10:18:58Z</time>
      </trkpt>
      <trkpt lat="47.38063" lon="-1.10797">
        <ele>73.06</ele>
        <time>2020-07-19T10:18:59Z</time>
      </trkpt>
      <trkpt lat="47.38061" lon="-1.10806">
        <ele>73.323</ele>
        <time>2020-07-19T10:19:00Z</time>
      </trkpt>
      <trkpt lat="47.38059" lon="-1.10815">
        <ele>72.943</ele>
        <time>2020-07-19T10:19:01Z</time>
      </trkpt>
      <trkpt lat="47.38057" lon="-1.10825">
        <ele>73.253</ele>
        <time>2020-07-19T10:19:02Z</time>
      </trkpt>
      <trkpt lat="47.38055" lon="-1.10835">
        <ele>73.97</ele>
        <time>2020-07-19T10:19:03Z</time>
      </trkpt>
      <trkpt lat="47.38053" lon="-1.10845">
        <ele>73.692</ele>
        <time>2020-07-19T10:19:04Z</time>
      </trkpt>
      <trkpt lat="47.38053" lon="-1.10854">
        <ele>72.629</ele>
        <time>2020-07-19T10:19:05Z</time>
      </trkpt>
      <trkpt lat="47.38052" lon="-1.10864">
        <ele>72.945</ele>
        <time>2020-07-19T10:19:06Z</time>
      </trkpt>
      <trkpt lat="47.3805" lon="-1.10873">
        <ele>73.286</ele>
        <time>2020-07-19T10:19:07Z</time>
      </trkpt>
      <trkpt lat="47.38049" lon="-1.10883">
        <ele>73.412</ele>
        <time>2020-07-19T10:19:08Z</time>
      </trkpt>
      <trkpt lat="47.38047" lon="-1.10893">
        <ele>73.89</ele>
        <time>2020-07-19T10:19:09Z</time>
      </trkpt>
      <trkpt lat="47.38045" lon="-1.10904">
        <ele>73.533</ele>
        <time>2020-07-19T10:19:10Z</time>
      </trkpt>
      <trkpt lat="47.38044" lon="-1.10914">
        <ele>73.031</ele>
        <time>2020-07-19T10:19:11Z</time>
      </trkpt>
      <trkpt lat="47.38042" lon="-1.10924">
        <ele>72.839</ele>
        <time>2020-07-19T10:19:12Z</time>
      </trkpt>
      <trkpt lat="47.38041" lon="-1.10935">
        <ele>72.91</ele>
        <time>2020-07-19T10:19:13Z</time>
      </trkpt>
      <trkpt lat="47.38039" lon="-1.10945">
        <ele>73.142</ele>
        <time>2020-07-19T10:19:14Z</time>
      </trkpt>
      <trkpt lat="47.38038" lon="-1.10954">
        <ele>74.112</ele>
        <time>2020-07-19T10:19:15Z</time>
      </trkpt>
      <trkpt lat="47.38036" lon="-1.10964">
        <ele>71.514</ele>
        <time>2020-07-19T10:19:16Z</time>
      </trkpt>
      <trkpt lat="47.38034" lon="-1.10973">
        <ele>72.878</ele>
        <time>2020-07-19T10:19:17Z</time>
      </trkpt>
      <trkpt lat="47.38033" lon="-1.10982">
        <ele>73.966</ele>
        <time>2020-07-19T10:19:18Z</time>
      </trkpt>
      <trkpt lat="47.38032" lon="-1.10991">
        <ele>74.347</ele>
        <time>2020-07-19T10:19:19Z</time>
      </trkpt>
      <trkpt lat="47.3803" lon="-1.11">
        <ele>74.689</ele>
        <time>2020-07-19T10:19:20Z</time>
      </trkpt>
      <trkpt lat="47.38029" lon="-1.11009">
        <ele>74.508</ele>
        <time>2020-07-19T10:19:21Z</time>
      </trkpt>
      <trkpt lat="47.38027" lon="-1.11019">
        <ele>74.685</ele>
        <time>2020-07-19T10:19:22Z</time>
      </trkpt>
      <trkpt lat="47.38025" lon="-1.11028">
        <ele>75.096</ele>
        <time>2020-07-19T10:19:23Z</time>
      </trkpt>
      <trkpt lat="47.38023" lon="-1.11038">
        <ele>75.564</ele>
        <time>2020-07-19T10:19:24Z</time>
      </trkpt>
      <trkpt lat="47.38021" lon="-1.11048">
        <ele>75.607</ele>
        <time>2020-07-19T10:19:25Z</time>
      </trkpt>
      <trkpt lat="47.38019" lon="-1.11058">
        <ele>75.481</ele>
        <time>2020-07-19T10:19:26Z</time>
      </trkpt>
      <trkpt lat="47.38016" lon="-1.11067">
        <ele>68.303</ele>
        <time>2020-07-19T10:19:27Z</time>
      </trkpt>
      <trkpt lat="47.38014" lon="-1.11077">
        <ele>72.182</ele>
        <time>2020-07-19T10:19:28Z</time>
      </trkpt>
      <trkpt lat="47.38011" lon="-1.11087">
        <ele>73.365</ele>
        <time>2020-07-19T10:19:29Z</time>
      </trkpt>
      <trkpt lat="47.38008" lon="-1.11097">
        <ele>74.358</ele>
        <time>2020-07-19T10:19:30Z</time>
      </trkpt>
      <trkpt lat="47.38006" lon="-1.11106">
        <ele>74.854</ele>
        <time>2020-07-19T10:19:31Z</time>
      </trkpt>
      <trkpt lat="47.38004" lon="-1.11115">
        <ele>75.152</ele>
        <time>2020-07-19T10:19:32Z</time>
      </trkpt>
      <trkpt lat="47.38002" lon="-1.11123">
        <ele>74.789</ele>
        <time>2020-07-19T10:19:33Z</time>
      </trkpt>
      <trkpt lat="47.37999" lon="-1.11133">
        <ele>74.911</ele>
        <time>2020-07-19T10:19:34Z</time>
      </trkpt>
      <trkpt lat="47.37997" lon="-1.11141">
        <ele>75.248</ele>
        <time>2020-07-19T10:19:35Z</time>
      </trkpt>
      <trkpt lat="47.37994" lon="-1.1115">
        <ele>75.784</ele>
        <time>2020-07-19T10:19:36Z</time>
      </trkpt>
      <trkpt lat="47.37991" lon="-1.11159">
        <ele>75.383</ele>
        <time>2020-07-19T10:19:37Z</time>
      </trkpt>
      <trkpt lat="47.37989" lon="-1.11168">
        <ele>75.243</ele>
        <time>2020-07-19T10:19:38Z</time>
      </trkpt>
      <trkpt lat="47.37988" lon="-1.11177">
        <ele>75.622</ele>
        <time>2020-07-19T10:19:39Z</time>
      </trkpt>
      <trkpt lat="47.37986" lon="-1.11185">
        <ele>75.2</ele>
        <time>2020-07-19T10:19:40Z</time>
      </trkpt>
      <trkpt lat="47.37986" lon="-1.11194">
        <ele>75.326</ele>
        <time>2020-07-19T10:19:41Z</time>
      </trkpt>
      <trkpt lat="47.37985" lon="-1.11201">
        <ele>75.593</ele>
        <time>2020-07-19T10:19:42Z</time>
      </trkpt>
      <trkpt lat="47.37985" lon="-1.11206">
        <ele>75.107</ele>
        <time>2020-07-19T10:19:43Z</time>
      </trkpt>
      <trkpt lat="47.37985" lon="-1.11209">
        <ele>74.94</ele>
        <time>2020-07-19T10:19:44Z</time>
      </trkpt>
      <trkpt lat="47.37984" lon="-1.11211">
        <ele>75.036</ele>
        <time>2020-07-19T10:19:45Z</time>
      </trkpt>
      <trkpt lat="47.37983" lon="-1.11212">
        <ele>74.676</ele>
        <time>2020-07-19T10:19:46Z</time>
      </trkpt>
      <trkpt lat="47.37983" lon="-1.11213">
        <ele>74.161</ele>
        <time>2020-07-19T10:19:47Z</time>
      </trkpt>
      <trkpt lat="47.37982" lon="-1.11213">
        <ele>73.305</ele>
        <time>2020-07-19T10:19:48Z</time>
      </trkpt>
      <trkpt lat="47.37981" lon="-1.11213">
        <ele>73.329</ele>
        <time>2020-07-19T10:19:49Z</time>
      </trkpt>
      <trkpt lat="47.37979" lon="-1.11211">
        <ele>70.227</ele>
        <time>2020-07-19T10:19:50Z</time>
      </trkpt>
      <trkpt lat="47.37976" lon="-1.11208">
        <ele>71.194</ele>
        <time>2020-07-19T10:19:51Z</time>
      </trkpt>
      <trkpt lat="47.37973" lon="-1.11207">
        <ele>71.708</ele>
        <time>2020-07-19T10:19:52Z</time>
      </trkpt>
      <trkpt lat="47.37969" lon="-1.11205">
        <ele>71.311</ele>
        <time>2020-07-19T10:19:53Z</time>
      </trkpt>
      <trkpt lat="47.37965" lon="-1.11203">
        <ele>71.414</ele>
        <time>2020-07-19T10:19:54Z</time>
      </trkpt>
      <trkpt lat="47.3796" lon="-1.11203">
        <ele>71.323</ele>
        <time>2020-07-19T10:19:55Z</time>
      </trkpt>
      <trkpt lat="47.37956" lon="-1.11201">
        <ele>71.739</ele>
        <time>2020-07-19T10:19:56Z</time>
      </trkpt>
      <trkpt lat="47.3795" lon="-1.112">
        <ele>71.743</ele>
        <time>2020-07-19T10:19:57Z</time>
      </trkpt>
      <trkpt lat="47.37945" lon="-1.11199">
        <ele>71.475</ele>
        <time>2020-07-19T10:19:58Z</time>
      </trkpt>
      <trkpt lat="47.3794" lon="-1.11197">
        <ele>71.278</ele>
        <time>2020-07-19T10:19:59Z</time>
      </trkpt>
      <trkpt lat="47.37935" lon="-1.11196">
        <ele>70.964</ele>
        <time>2020-07-19T10:20:00Z</time>
      </trkpt>
      <trkpt lat="47.3793" lon="-1.11195">
        <ele>71.385</ele>
        <time>2020-07-19T10:20:01Z</time>
      </trkpt>
      <trkpt lat="47.37925" lon="-1.11194">
        <ele>69.851</ele>
        <time>2020-07-19T10:20:02Z</time>
      </trkpt>
      <trkpt lat="47.3792" lon="-1.11192">
        <ele>68.972</ele>
        <time>2020-07-19T10:20:03Z</time>
      </trkpt>
      <trkpt lat="47.37914" lon="-1.1119">
        <ele>69.375</ele>
        <time>2020-07-19T10:20:04Z</time>
      </trkpt>
      <trkpt lat="47.37909" lon="-1.11187">
        <ele>67.922</ele>
        <time>2020-07-19T10:20:05Z</time>
      </trkpt>
      <trkpt lat="47.37903" lon="-1.11185">
        <ele>67.489</ele>
        <time>2020-07-19T10:20:06Z</time>
      </trkpt>
      <trkpt lat="47.37898" lon="-1.11185">
        <ele>65.745</ele>
        <time>2020-07-19T10:20:07Z</time>
      </trkpt>
      <trkpt lat="47.37892" lon="-1.11184">
        <ele>65.885</ele>
        <time>2020-07-19T10:20:08Z</time>
      </trkpt>
      <trkpt lat="47.37886" lon="-1.11182">
        <ele>65.504</ele>
        <time>2020-07-19T10:20:09Z</time>
      </trkpt>
      <trkpt lat="47.3788" lon="-1.11181">
        <ele>64.892</ele>
        <time>2020-07-19T10:20:10Z</time>
      </trkpt>
      <trkpt lat="47.37874" lon="-1.11179">
        <ele>64.822</ele>
        <time>2020-07-19T10:20:11Z</time>
      </trkpt>
      <trkpt lat="47.37868" lon="-1.11177">
        <ele>64.78</ele>
        <time>2020-07-19T10:20:12Z</time>
      </trkpt>
      <trkpt lat="47.37862" lon="-1.11177">
        <ele>65.448</ele>
        <time>2020-07-19T10:20:13Z</time>
      </trkpt>
      <trkpt lat="47.37856" lon="-1.11175">
        <ele>65.504</ele>
        <time>2020-07-19T10:20:14Z</time>
      </trkpt>
      <trkpt lat="47.37849" lon="-1.11173">
        <ele>65.061</ele>
        <time>2020-07-19T10:20:15Z</time>
      </trkpt>
      <trkpt lat="47.37843" lon="-1.11172">
        <ele>64.651</ele>
        <time>2020-07-19T10:20:16Z</time>
      </trkpt>
      <trkpt lat="47.37837" lon="-1.11171">
        <ele>64.474</ele>
        <time>2020-07-19T10:20:17Z</time>
      </trkpt>
      <trkpt lat="47.37831" lon="-1.11169">
        <ele>64.576</ele>
        <time>2020-07-19T10:20:18Z</time>
      </trkpt>
      <trkpt lat="47.37825" lon="-1.11168">
        <ele>63.703</ele>
        <time>2020-07-19T10:20:19Z</time>
      </trkpt>
      <trkpt lat="47.37819" lon="-1.11166">
        <ele>63.327</ele>
        <time>2020-07-19T10:20:20Z</time>
      </trkpt>
      <trkpt lat="47.37813" lon="-1.11165">
        <ele>62.588</ele>
        <time>2020-07-19T10:20:21Z</time>
      </trkpt>
      <trkpt lat="47.37807" lon="-1.11164">
        <ele>63.026</ele>
        <time>2020-07-19T10:20:22Z</time>
      </trkpt>
      <trkpt lat="47.37802" lon="-1.11162">
        <ele>62.862</ele>
        <time>2020-07-19T10:20:23Z</time>
      </trkpt>
      <trkpt lat="47.37796" lon="-1.11162">
        <ele>62.613</ele>
        <time>2020-07-19T10:20:24Z</time>
      </trkpt>
      <trkpt lat="47.3779" lon="-1.11161">
        <ele>62.673</ele>
        <time>2020-07-19T10:20:25Z</time>
      </trkpt>
      <trkpt lat="47.37785" lon="-1.1116">
        <ele>62.192</ele>
        <time>2020-07-19T10:20:26Z</time>
      </trkpt>
      <trkpt lat="47.37779" lon="-1.1116">
        <ele>62.09</ele>
        <time>2020-07-19T10:20:27Z</time>
      </trkpt>
      <trkpt lat="47.37773" lon="-1.11159">
        <ele>61.228</ele>
        <time>2020-07-19T10:20:28Z</time>
      </trkpt>
      <trkpt lat="47.37767" lon="-1.11158">
        <ele>61.301</ele>
        <time>2020-07-19T10:20:29Z</time>
      </trkpt>
      <trkpt lat="47.37761" lon="-1.11157">
        <ele>61.165</ele>
        <time>2020-07-19T10:20:30Z</time>
      </trkpt>
      <trkpt lat="47.37756" lon="-1.11156">
        <ele>61.573</ele>
        <time>2020-07-19T10:20:31Z</time>
      </trkpt>
      <trkpt lat="47.37751" lon="-1.11155">
        <ele>61.888</ele>
        <time>2020-07-19T10:20:32Z</time>
      </trkpt>
      <trkpt lat="47.37745" lon="-1.11154">
        <ele>62.15</ele>
        <time>2020-07-19T10:20:33Z</time>
      </trkpt>
      <trkpt lat="47.3774" lon="-1.11153">
        <ele>61.715</ele>
        <time>2020-07-19T10:20:34Z</time>
      </trkpt>
      <trkpt lat="47.37735" lon="-1.11153">
        <ele>60.601</ele>
        <time>2020-07-19T10:20:35Z</time>
      </trkpt>
      <trkpt lat="47.3773" lon="-1.11152">
        <ele>60.586</ele>
        <time>2020-07-19T10:20:36Z</time>
      </trkpt>
      <trkpt lat="47.37724" lon="-1.11151">
        <ele>60.761</ele>
        <time>2020-07-19T10:20:37Z</time>
      </trkpt>
      <trkpt lat="47.37719" lon="-1.11149">
        <ele>60.297</ele>
        <time>2020-07-19T10:20:38Z</time>
      </trkpt>
      <trkpt lat="47.37714" lon="-1.11148">
        <ele>60.196</ele>
        <time>2020-07-19T10:20:39Z</time>
      </trkpt>
      <trkpt lat="47.37709" lon="-1.11147">
        <ele>58.747</ele>
        <time>2020-07-19T10:20:40Z</time>
      </trkpt>
      <trkpt lat="47.37704" lon="-1.11148">
        <ele>58.409</ele>
        <time>2020-07-19T10:20:41Z</time>
      </trkpt>
      <trkpt lat="47.37698" lon="-1.11148">
        <ele>57.277</ele>
        <time>2020-07-19T10:20:42Z</time>
      </trkpt>
      <trkpt lat="47.37693" lon="-1.11152">
        <ele>55.699</ele>
        <time>2020-07-19T10:20:43Z</time>
      </trkpt>
      <trkpt lat="47.37687" lon="-1.11156">
        <ele>55.484</ele>
        <time>2020-07-19T10:20:44Z</time>
      </trkpt>
      <trkpt lat="47.37681" lon="-1.11163">
        <ele>55.77</ele>
        <time>2020-07-19T10:20:45Z</time>
      </trkpt>
      <trkpt lat="47.37676" lon="-1.11169">
        <ele>56.086</ele>
        <time>2020-07-19T10:20:46Z</time>
      </trkpt>
      <trkpt lat="47.37672" lon="-1.11176">
        <ele>55.121</ele>
        <time>2020-07-19T10:20:47Z</time>
      </trkpt>
      <trkpt lat="47.37668" lon="-1.11183">
        <ele>54.288</ele>
        <time>2020-07-19T10:20:48Z</time>
      </trkpt>
      <trkpt lat="47.37664" lon="-1.1119">
        <ele>53.835</ele>
        <time>2020-07-19T10:20:49Z</time>
      </trkpt>
      <trkpt lat="47.3766" lon="-1.11196">
        <ele>54.611</ele>
        <time>2020-07-19T10:20:50Z</time>
      </trkpt>
      <trkpt lat="47.37656" lon="-1.11203">
        <ele>54.256</ele>
        <time>2020-07-19T10:20:51Z</time>
      </trkpt>
      <trkpt lat="47.37651" lon="-1.1121">
        <ele>54.354</ele>
        <time>2020-07-19T10:20:52Z</time>
      </trkpt>
      <trkpt lat="47.37647" lon="-1.11216">
        <ele>53.958</ele>
        <time>2020-07-19T10:20:53Z</time>
      </trkpt>
      <trkpt lat="47.37642" lon="-1.11223">
        <ele>53.832</ele>
        <time>2020-07-19T10:20:54Z</time>
      </trkpt>
      <trkpt lat="47.37638" lon="-1.11232">
        <ele>54.584</ele>
        <time>2020-07-19T10:20:55Z</time>
      </trkpt>
      <trkpt lat="47.37634" lon="-1.11239">
        <ele>54.869</ele>
        <time>2020-07-19T10:20:56Z</time>
      </trkpt>
      <trkpt lat="47.3763" lon="-1.11246">
        <ele>55.248</ele>
        <time>2020-07-19T10:20:57Z</time>
      </trkpt>
      <trkpt lat="47.37626" lon="-1.11253">
        <ele>56.187</ele>
        <time>2020-07-19T10:20:58Z</time>
      </trkpt>
      <trkpt lat="47.37622" lon="-1.11261">
        <ele>56.679</ele>
        <time>2020-07-19T10:20:59Z</time>
      </trkpt>
      <trkpt lat="47.37618" lon="-1.11268">
        <ele>56.558</ele>
        <time>2020-07-19T10:21:00Z</time>
      </trkpt>
      <trkpt lat="47.37615" lon="-1.11276">
        <ele>56.636</ele>
        <time>2020-07-19T10:21:01Z</time>
      </trkpt>
      <trkpt lat="47.37612" lon="-1.11284">
        <ele>57.014</ele>
        <time>2020-07-19T10:21:02Z</time>
      </trkpt>
      <trkpt lat="47.37608" lon="-1.11292">
        <ele>56.934</ele>
        <time>2020-07-19T10:21:03Z</time>
      </trkpt>
      <trkpt lat="47.37605" lon="-1.11299">
        <ele>56.853</ele>
        <time>2020-07-19T10:21:04Z</time>
      </trkpt>
      <trkpt lat="47.37603" lon="-1.11307">
        <ele>56.601</ele>
        <time>2020-07-19T10:21:05Z</time>
      </trkpt>
      <trkpt lat="47.376" lon="-1.11315">
        <ele>56.95</ele>
        <time>2020-07-19T10:21:06Z</time>
      </trkpt>
      <trkpt lat="47.37597" lon="-1.11324">
        <ele>57.59</ele>
        <time>2020-07-19T10:21:07Z</time>
      </trkpt>
      <trkpt lat="47.37594" lon="-1.11333">
        <ele>58.104</ele>
        <time>2020-07-19T10:21:08Z</time>
      </trkpt>
      <trkpt lat="47.37591" lon="-1.11341">
        <ele>57.86</ele>
        <time>2020-07-19T10:21:09Z</time>
      </trkpt>
      <trkpt lat="47.37589" lon="-1.11348">
        <ele>57.296</ele>
        <time>2020-07-19T10:21:10Z</time>
      </trkpt>
      <trkpt lat="47.37588" lon="-1.11357">
        <ele>57.323</ele>
        <time>2020-07-19T10:21:11Z</time>
      </trkpt>
      <trkpt lat="47.37585" lon="-1.11366">
        <ele>57.38</ele>
        <time>2020-07-19T10:21:12Z</time>
      </trkpt>
      <trkpt lat="47.37583" lon="-1.11374">
        <ele>57.661</ele>
        <time>2020-07-19T10:21:13Z</time>
      </trkpt>
      <trkpt lat="47.37581" lon="-1.11383">
        <ele>58.886</ele>
        <time>2020-07-19T10:21:14Z</time>
      </trkpt>
      <trkpt lat="47.37578" lon="-1.11391">
        <ele>58.279</ele>
        <time>2020-07-19T10:21:15Z</time>
      </trkpt>
      <trkpt lat="47.37575" lon="-1.11399">
        <ele>58.291</ele>
        <time>2020-07-19T10:21:16Z</time>
      </trkpt>
      <trkpt lat="47.37573" lon="-1.11408">
        <ele>58.437</ele>
        <time>2020-07-19T10:21:17Z</time>
      </trkpt>
      <trkpt lat="47.37571" lon="-1.11417">
        <ele>58.679</ele>
        <time>2020-07-19T10:21:18Z</time>
      </trkpt>
      <trkpt lat="47.37569" lon="-1.11425">
        <ele>58.174</ele>
        <time>2020-07-19T10:21:19Z</time>
      </trkpt>
      <trkpt lat="47.37566" lon="-1.11434">
        <ele>57.924</ele>
        <time>2020-07-19T10:21:20Z</time>
      </trkpt>
      <trkpt lat="47.37564" lon="-1.11442">
        <ele>57.943</ele>
        <time>2020-07-19T10:21:21Z</time>
      </trkpt>
      <trkpt lat="47.37562" lon="-1.1145">
        <ele>58.23</ele>
        <time>2020-07-19T10:21:22Z</time>
      </trkpt>
      <trkpt lat="47.37561" lon="-1.1146">
        <ele>57.45</ele>
        <time>2020-07-19T10:21:23Z</time>
      </trkpt>
      <trkpt lat="47.37561" lon="-1.11468">
        <ele>54.918</ele>
        <time>2020-07-19T10:21:24Z</time>
      </trkpt>
      <trkpt lat="47.3756" lon="-1.11476">
        <ele>55.208</ele>
        <time>2020-07-19T10:21:25Z</time>
      </trkpt>
      <trkpt lat="47.37558" lon="-1.11485">
        <ele>55.346</ele>
        <time>2020-07-19T10:21:26Z</time>
      </trkpt>
      <trkpt lat="47.37557" lon="-1.11494">
        <ele>55.668</ele>
        <time>2020-07-19T10:21:27Z</time>
      </trkpt>
      <trkpt lat="47.37556" lon="-1.11502">
        <ele>55.528</ele>
        <time>2020-07-19T10:21:28Z</time>
      </trkpt>
      <trkpt lat="47.37555" lon="-1.1151">
        <ele>55.915</ele>
        <time>2020-07-19T10:21:29Z</time>
      </trkpt>
      <trkpt lat="47.37554" lon="-1.11518">
        <ele>56.328</ele>
        <time>2020-07-19T10:21:30Z</time>
      </trkpt>
      <trkpt lat="47.37553" lon="-1.11524">
        <ele>56.426</ele>
        <time>2020-07-19T10:21:31Z</time>
      </trkpt>
      <trkpt lat="47.37553" lon="-1.11532">
        <ele>57.032</ele>
        <time>2020-07-19T10:21:32Z</time>
      </trkpt>
      <trkpt lat="47.37553" lon="-1.11539">
        <ele>56.615</ele>
        <time>2020-07-19T10:21:33Z</time>
      </trkpt>
      <trkpt lat="47.37552" lon="-1.11548">
        <ele>56.132</ele>
        <time>2020-07-19T10:21:34Z</time>
      </trkpt>
      <trkpt lat="47.37552" lon="-1.11556">
        <ele>56.921</ele>
        <time>2020-07-19T10:21:35Z</time>
      </trkpt>
      <trkpt lat="47.37551" lon="-1.11565">
        <ele>57.167</ele>
        <time>2020-07-19T10:21:36Z</time>
      </trkpt>
      <trkpt lat="47.3755" lon="-1.11575">
        <ele>58.159</ele>
        <time>2020-07-19T10:21:37Z</time>
      </trkpt>
      <trkpt lat="47.37549" lon="-1.11583">
        <ele>58.325</ele>
        <time>2020-07-19T10:21:38Z</time>
      </trkpt>
      <trkpt lat="47.37548" lon="-1.11592">
        <ele>58.498</ele>
        <time>2020-07-19T10:21:39Z</time>
      </trkpt>
      <trkpt lat="47.37547" lon="-1.116">
        <ele>58.665</ele>
        <time>2020-07-19T10:21:40Z</time>
      </trkpt>
      <trkpt lat="47.37545" lon="-1.11609">
        <ele>58.495</ele>
        <time>2020-07-19T10:21:41Z</time>
      </trkpt>
      <trkpt lat="47.37544" lon="-1.11617">
        <ele>58.369</ele>
        <time>2020-07-19T10:21:42Z</time>
      </trkpt>
      <trkpt lat="47.37544" lon="-1.11626">
        <ele>58.538</ele>
        <time>2020-07-19T10:21:43Z</time>
      </trkpt>
      <trkpt lat="47.37544" lon="-1.11634">
        <ele>57.857</ele>
        <time>2020-07-19T10:21:44Z</time>
      </trkpt>
      <trkpt lat="47.37544" lon="-1.11643">
        <ele>57.864</ele>
        <time>2020-07-19T10:21:45Z</time>
      </trkpt>
      <trkpt lat="47.37543" lon="-1.11651">
        <ele>57.369</ele>
        <time>2020-07-19T10:21:46Z</time>
      </trkpt>
      <trkpt lat="47.37542" lon="-1.11659">
        <ele>57.398</ele>
        <time>2020-07-19T10:21:47Z</time>
      </trkpt>
      <trkpt lat="47.37541" lon="-1.11667">
        <ele>57.475</ele>
        <time>2020-07-19T10:21:48Z</time>
      </trkpt>
      <trkpt lat="47.37541" lon="-1.11674">
        <ele>57.974</ele>
        <time>2020-07-19T10:21:49Z</time>
      </trkpt>
      <trkpt lat="47.3754" lon="-1.11683">
        <ele>58.661</ele>
        <time>2020-07-19T10:21:50Z</time>
      </trkpt>
      <trkpt lat="47.37539" lon="-1.11691">
        <ele>60.372</ele>
        <time>2020-07-19T10:21:51Z</time>
      </trkpt>
      <trkpt lat="47.37538" lon="-1.11699">
        <ele>60.838</ele>
        <time>2020-07-19T10:21:52Z</time>
      </trkpt>
      <trkpt lat="47.37537" lon="-1.11708">
        <ele>61.577</ele>
        <time>2020-07-19T10:21:53Z</time>
      </trkpt>
      <trkpt lat="47.37536" lon="-1.11716">
        <ele>61.924</ele>
        <time>2020-07-19T10:21:54Z</time>
      </trkpt>
      <trkpt lat="47.37535" lon="-1.11724">
        <ele>61.749</ele>
        <time>2020-07-19T10:21:55Z</time>
      </trkpt>
      <trkpt lat="47.37534" lon="-1.11732">
        <ele>62.567</ele>
        <time>2020-07-19T10:21:56Z</time>
      </trkpt>
      <trkpt lat="47.37533" lon="-1.1174">
        <ele>62.887</ele>
        <time>2020-07-19T10:21:57Z</time>
      </trkpt>
      <trkpt lat="47.37532" lon="-1.11748">
        <ele>62.888</ele>
        <time>2020-07-19T10:21:58Z</time>
      </trkpt>
      <trkpt lat="47.37532" lon="-1.11757">
        <ele>62.494</ele>
        <time>2020-07-19T10:21:59Z</time>
      </trkpt>
      <trkpt lat="47.37533" lon="-1.11765">
        <ele>62.835</ele>
        <time>2020-07-19T10:22:00Z</time>
      </trkpt>
      <trkpt lat="47.37533" lon="-1.11773">
        <ele>62.319</ele>
        <time>2020-07-19T10:22:01Z</time>
      </trkpt>
      <trkpt lat="47.37534" lon="-1.11783">
        <ele>62.602</ele>
        <time>2020-07-19T10:22:02Z</time>
      </trkpt>
      <trkpt lat="47.37534" lon="-1.11792">
        <ele>62.9</ele>
        <time>2020-07-19T10:22:03Z</time>
      </trkpt>
      <trkpt lat="47.37534" lon="-1.11802">
        <ele>62.937</ele>
        <time>2020-07-19T10:22:04Z</time>
      </trkpt>
      <trkpt lat="47.37535" lon="-1.11811">
        <ele>62.768</ele>
        <time>2020-07-19T10:22:05Z</time>
      </trkpt>
      <trkpt lat="47.37536" lon="-1.11821">
        <ele>63.19</ele>
        <time>2020-07-19T10:22:06Z</time>
      </trkpt>
      <trkpt lat="47.37536" lon="-1.11831">
        <ele>63.682</ele>
        <time>2020-07-19T10:22:07Z</time>
      </trkpt>
      <trkpt lat="47.37537" lon="-1.1184">
        <ele>63.048</ele>
        <time>2020-07-19T10:22:08Z</time>
      </trkpt>
      <trkpt lat="47.37538" lon="-1.1185">
        <ele>64.123</ele>
        <time>2020-07-19T10:22:09Z</time>
      </trkpt>
      <trkpt lat="47.37538" lon="-1.1186">
        <ele>63.811</ele>
        <time>2020-07-19T10:22:10Z</time>
      </trkpt>
      <trkpt lat="47.37539" lon="-1.1187">
        <ele>63.033</ele>
        <time>2020-07-19T10:22:11Z</time>
      </trkpt>
      <trkpt lat="47.37539" lon="-1.11881">
        <ele>62.688</ele>
        <time>2020-07-19T10:22:12Z</time>
      </trkpt>
      <trkpt lat="47.37539" lon="-1.1189">
        <ele>62.539</ele>
        <time>2020-07-19T10:22:13Z</time>
      </trkpt>
      <trkpt lat="47.37539" lon="-1.11901">
        <ele>62.551</ele>
        <time>2020-07-19T10:22:14Z</time>
      </trkpt>
      <trkpt lat="47.37539" lon="-1.1191">
        <ele>62.281</ele>
        <time>2020-07-19T10:22:15Z</time>
      </trkpt>
      <trkpt lat="47.37539" lon="-1.1192">
        <ele>62.061</ele>
        <time>2020-07-19T10:22:16Z</time>
      </trkpt>
      <trkpt lat="47.37539" lon="-1.1193">
        <ele>62.352</ele>
        <time>2020-07-19T10:22:17Z</time>
      </trkpt>
      <trkpt lat="47.3754" lon="-1.11941">
        <ele>62.792</ele>
        <time>2020-07-19T10:22:18Z</time>
      </trkpt>
      <trkpt lat="47.3754" lon="-1.11951">
        <ele>62.812</ele>
        <time>2020-07-19T10:22:19Z</time>
      </trkpt>
      <trkpt lat="47.37541" lon="-1.11962">
        <ele>62.861</ele>
        <time>2020-07-19T10:22:20Z</time>
      </trkpt>
      <trkpt lat="47.37541" lon="-1.11972">
        <ele>62.767</ele>
        <time>2020-07-19T10:22:21Z</time>
      </trkpt>
      <trkpt lat="47.37542" lon="-1.11983">
        <ele>62.878</ele>
        <time>2020-07-19T10:22:22Z</time>
      </trkpt>
      <trkpt lat="47.37541" lon="-1.11993">
        <ele>62.708</ele>
        <time>2020-07-19T10:22:23Z</time>
      </trkpt>
      <trkpt lat="47.37542" lon="-1.12004">
        <ele>62.789</ele>
        <time>2020-07-19T10:22:24Z</time>
      </trkpt>
      <trkpt lat="47.37542" lon="-1.12014">
        <ele>62.458</ele>
        <time>2020-07-19T10:22:25Z</time>
      </trkpt>
      <trkpt lat="47.37543" lon="-1.12024">
        <ele>62.472</ele>
        <time>2020-07-19T10:22:26Z</time>
      </trkpt>
      <trkpt lat="47.37543" lon="-1.12035">
        <ele>62.347</ele>
        <time>2020-07-19T10:22:27Z</time>
      </trkpt>
      <trkpt lat="47.37544" lon="-1.12046">
        <ele>61.969</ele>
        <time>2020-07-19T10:22:28Z</time>
      </trkpt>
      <trkpt lat="47.37545" lon="-1.12057">
        <ele>61.662</ele>
        <time>2020-07-19T10:22:29Z</time>
      </trkpt>
      <trkpt lat="47.37545" lon="-1.12066">
        <ele>61.033</ele>
        <time>2020-07-19T10:22:30Z</time>
      </trkpt>
      <trkpt lat="47.37545" lon="-1.12077">
        <ele>60.812</ele>
        <time>2020-07-19T10:22:31Z</time>
      </trkpt>
      <trkpt lat="47.37546" lon="-1.12088">
        <ele>60.891</ele>
        <time>2020-07-19T10:22:32Z</time>
      </trkpt>
      <trkpt lat="47.37546" lon="-1.12099">
        <ele>61.049</ele>
        <time>2020-07-19T10:22:33Z</time>
      </trkpt>
      <trkpt lat="47.37547" lon="-1.12109">
        <ele>61.432</ele>
        <time>2020-07-19T10:22:34Z</time>
      </trkpt>
      <trkpt lat="47.37549" lon="-1.12118">
        <ele>62.164</ele>
        <time>2020-07-19T10:22:35Z</time>
      </trkpt>
      <trkpt lat="47.37548" lon="-1.12129">
        <ele>61.06</ele>
        <time>2020-07-19T10:22:36Z</time>
      </trkpt>
      <trkpt lat="47.37548" lon="-1.12138">
        <ele>61.765</ele>
        <time>2020-07-19T10:22:37Z</time>
      </trkpt>
      <trkpt lat="47.37549" lon="-1.12148">
        <ele>62.159</ele>
        <time>2020-07-19T10:22:38Z</time>
      </trkpt>
      <trkpt lat="47.3755" lon="-1.12158">
        <ele>62.852</ele>
        <time>2020-07-19T10:22:39Z</time>
      </trkpt>
      <trkpt lat="47.3755" lon="-1.12168">
        <ele>63.307</ele>
        <time>2020-07-19T10:22:40Z</time>
      </trkpt>
      <trkpt lat="47.3755" lon="-1.12178">
        <ele>64.141</ele>
        <time>2020-07-19T10:22:41Z</time>
      </trkpt>
      <trkpt lat="47.37549" lon="-1.12188">
        <ele>64.47</ele>
        <time>2020-07-19T10:22:42Z</time>
      </trkpt>
      <trkpt lat="47.37549" lon="-1.12199">
        <ele>64.883</ele>
        <time>2020-07-19T10:22:43Z</time>
      </trkpt>
      <trkpt lat="47.37549" lon="-1.12208">
        <ele>65.408</ele>
        <time>2020-07-19T10:22:44Z</time>
      </trkpt>
      <trkpt lat="47.37549" lon="-1.12218">
        <ele>65.026</ele>
        <time>2020-07-19T10:22:45Z</time>
      </trkpt>
      <trkpt lat="47.37549" lon="-1.12228">
        <ele>64.961</ele>
        <time>2020-07-19T10:22:46Z</time>
      </trkpt>
      <trkpt lat="47.37549" lon="-1.12237">
        <ele>64.901</ele>
        <time>2020-07-19T10:22:47Z</time>
      </trkpt>
      <trkpt lat="47.37549" lon="-1.12247">
        <ele>65.33</ele>
        <time>2020-07-19T10:22:48Z</time>
      </trkpt>
      <trkpt lat="47.37549" lon="-1.12256">
        <ele>65.361</ele>
        <time>2020-07-19T10:22:49Z</time>
      </trkpt>
      <trkpt lat="47.37549" lon="-1.12265">
        <ele>64.711</ele>
        <time>2020-07-19T10:22:50Z</time>
      </trkpt>
      <trkpt lat="47.37549" lon="-1.12274">
        <ele>64.99</ele>
        <time>2020-07-19T10:22:51Z</time>
      </trkpt>
      <trkpt lat="47.37549" lon="-1.12284">
        <ele>65.224</ele>
        <time>2020-07-19T10:22:52Z</time>
      </trkpt>
      <trkpt lat="47.37549" lon="-1.12293">
        <ele>65.674</ele>
        <time>2020-07-19T10:22:53Z</time>
      </trkpt>
      <trkpt lat="47.37549" lon="-1.12302">
        <ele>65.177</ele>
        <time>2020-07-19T10:22:54Z</time>
      </trkpt>
      <trkpt lat="47.37549" lon="-1.1231">
        <ele>65.023</ele>
        <time>2020-07-19T10:22:55Z</time>
      </trkpt>
      <trkpt lat="47.37549" lon="-1.12319">
        <ele>64.656</ele>
        <time>2020-07-19T10:22:56Z</time>
      </trkpt>
      <trkpt lat="47.37549" lon="-1.12328">
        <ele>64.607</ele>
        <time>2020-07-19T10:22:57Z</time>
      </trkpt>
      <trkpt lat="47.37549" lon="-1.12338">
        <ele>63.431</ele>
        <time>2020-07-19T10:22:58Z</time>
      </trkpt>
      <trkpt lat="47.3755" lon="-1.12348">
        <ele>63.24</ele>
        <time>2020-07-19T10:22:59Z</time>
      </trkpt>
      <trkpt lat="47.3755" lon="-1.12359">
        <ele>62.953</ele>
        <time>2020-07-19T10:23:00Z</time>
      </trkpt>
      <trkpt lat="47.37551" lon="-1.12369">
        <ele>62.832</ele>
        <time>2020-07-19T10:23:01Z</time>
      </trkpt>
      <trkpt lat="47.37552" lon="-1.12382">
        <ele>62.432</ele>
        <time>2020-07-19T10:23:02Z</time>
      </trkpt>
      <trkpt lat="47.37553" lon="-1.12392">
        <ele>61.893</ele>
        <time>2020-07-19T10:23:03Z</time>
      </trkpt>
      <trkpt lat="47.37555" lon="-1.12404">
        <ele>61.47</ele>
        <time>2020-07-19T10:23:04Z</time>
      </trkpt>
      <trkpt lat="47.37556" lon="-1.12414">
        <ele>61.5</ele>
        <time>2020-07-19T10:23:05Z</time>
      </trkpt>
      <trkpt lat="47.37559" lon="-1.12424">
        <ele>61.284</ele>
        <time>2020-07-19T10:23:06Z</time>
      </trkpt>
      <trkpt lat="47.37561" lon="-1.12434">
        <ele>61.024</ele>
        <time>2020-07-19T10:23:07Z</time>
      </trkpt>
      <trkpt lat="47.37563" lon="-1.12444">
        <ele>60.745</ele>
        <time>2020-07-19T10:23:08Z</time>
      </trkpt>
      <trkpt lat="47.37565" lon="-1.12455">
        <ele>60.809</ele>
        <time>2020-07-19T10:23:09Z</time>
      </trkpt>
      <trkpt lat="47.37567" lon="-1.12464">
        <ele>61.112</ele>
        <time>2020-07-19T10:23:10Z</time>
      </trkpt>
      <trkpt lat="47.37569" lon="-1.12473">
        <ele>61.34</ele>
        <time>2020-07-19T10:23:11Z</time>
      </trkpt>
      <trkpt lat="47.37571" lon="-1.12483">
        <ele>62.147</ele>
        <time>2020-07-19T10:23:12Z</time>
      </trkpt>
      <trkpt lat="47.37572" lon="-1.12492">
        <ele>62.004</ele>
        <time>2020-07-19T10:23:13Z</time>
      </trkpt>
      <trkpt lat="47.37574" lon="-1.125">
        <ele>62.466</ele>
        <time>2020-07-19T10:23:14Z</time>
      </trkpt>
      <trkpt lat="47.37575" lon="-1.12508">
        <ele>62.469</ele>
        <time>2020-07-19T10:23:15Z</time>
      </trkpt>
      <trkpt lat="47.37577" lon="-1.12515">
        <ele>62.031</ele>
        <time>2020-07-19T10:23:16Z</time>
      </trkpt>
      <trkpt lat="47.37578" lon="-1.12522">
        <ele>62.387</ele>
        <time>2020-07-19T10:23:17Z</time>
      </trkpt>
      <trkpt lat="47.3758" lon="-1.1253">
        <ele>62.785</ele>
        <time>2020-07-19T10:23:18Z</time>
      </trkpt>
      <trkpt lat="47.37582" lon="-1.12537">
        <ele>62.901</ele>
        <time>2020-07-19T10:23:19Z</time>
      </trkpt>
      <trkpt lat="47.37582" lon="-1.12542">
        <ele>62.506</ele>
        <time>2020-07-19T10:23:20Z</time>
      </trkpt>
      <trkpt lat="47.37583" lon="-1.12545">
        <ele>63.058</ele>
        <time>2020-07-19T10:23:21Z</time>
      </trkpt>
      <trkpt lat="47.37585" lon="-1.12548">
        <ele>62.941</ele>
        <time>2020-07-19T10:23:22Z</time>
      </trkpt>
      <trkpt lat="47.37587" lon="-1.1255">
        <ele>63.031</ele>
        <time>2020-07-19T10:23:23Z</time>
      </trkpt>
      <trkpt lat="47.37588" lon="-1.12554">
        <ele>62.451</ele>
        <time>2020-07-19T10:23:24Z</time>
      </trkpt>
      <trkpt lat="47.37591" lon="-1.12557">
        <ele>62.265</ele>
        <time>2020-07-19T10:23:25Z</time>
      </trkpt>
      <trkpt lat="47.37594" lon="-1.12558">
        <ele>62.325</ele>
        <time>2020-07-19T10:23:26Z</time>
      </trkpt>
      <trkpt lat="47.37596" lon="-1.12561">
        <ele>62.412</ele>
        <time>2020-07-19T10:23:27Z</time>
      </trkpt>
      <trkpt lat="47.376" lon="-1.12564">
        <ele>62.396</ele>
        <time>2020-07-19T10:23:28Z</time>
      </trkpt>
      <trkpt lat="47.37602" lon="-1.12567">
        <ele>62.106</ele>
        <time>2020-07-19T10:23:29Z</time>
      </trkpt>
      <trkpt lat="47.37604" lon="-1.1257">
        <ele>62.146</ele>
        <time>2020-07-19T10:23:30Z</time>
      </trkpt>
      <trkpt lat="47.37606" lon="-1.12574">
        <ele>62.158</ele>
        <time>2020-07-19T10:23:31Z</time>
      </trkpt>
      <trkpt lat="47.37608" lon="-1.12579">
        <ele>61.666</ele>
        <time>2020-07-19T10:23:32Z</time>
      </trkpt>
      <trkpt lat="47.37609" lon="-1.12584">
        <ele>61.467</ele>
        <time>2020-07-19T10:23:33Z</time>
      </trkpt>
      <trkpt lat="47.37609" lon="-1.1259">
        <ele>60.875</ele>
        <time>2020-07-19T10:23:34Z</time>
      </trkpt>
      <trkpt lat="47.37609" lon="-1.12595">
        <ele>60.999</ele>
        <time>2020-07-19T10:23:35Z</time>
      </trkpt>
      <trkpt lat="47.37609" lon="-1.126">
        <ele>60.815</ele>
        <time>2020-07-19T10:23:36Z</time>
      </trkpt>
      <trkpt lat="47.37609" lon="-1.12605">
        <ele>60.668</ele>
        <time>2020-07-19T10:23:37Z</time>
      </trkpt>
      <trkpt lat="47.3761" lon="-1.12608">
        <ele>61.414</ele>
        <time>2020-07-19T10:23:38Z</time>
      </trkpt>
      <trkpt lat="47.3761" lon="-1.12612">
        <ele>62.637</ele>
        <time>2020-07-19T10:23:39Z</time>
      </trkpt>
      <trkpt lat="47.3761" lon="-1.12617">
        <ele>62.954</ele>
        <time>2020-07-19T10:23:40Z</time>
      </trkpt>
      <trkpt lat="47.3761" lon="-1.12622">
        <ele>62.753</ele>
        <time>2020-07-19T10:23:41Z</time>
      </trkpt>
      <trkpt lat="47.37611" lon="-1.12628">
        <ele>61.96</ele>
        <time>2020-07-19T10:23:42Z</time>
      </trkpt>
      <trkpt lat="47.37611" lon="-1.12634">
        <ele>61.953</ele>
        <time>2020-07-19T10:23:43Z</time>
      </trkpt>
      <trkpt lat="47.37612" lon="-1.1264">
        <ele>61.792</ele>
        <time>2020-07-19T10:23:44Z</time>
      </trkpt>
      <trkpt lat="47.37613" lon="-1.12647">
        <ele>61.688</ele>
        <time>2020-07-19T10:23:45Z</time>
      </trkpt>
      <trkpt lat="47.37613" lon="-1.12653">
        <ele>62.026</ele>
        <time>2020-07-19T10:23:46Z</time>
      </trkpt>
      <trkpt lat="47.37614" lon="-1.12659">
        <ele>61.476</ele>
        <time>2020-07-19T10:23:47Z</time>
      </trkpt>
      <trkpt lat="47.37614" lon="-1.12664">
        <ele>61.352</ele>
        <time>2020-07-19T10:23:48Z</time>
      </trkpt>
      <trkpt lat="47.37614" lon="-1.12668">
        <ele>61.851</ele>
        <time>2020-07-19T10:23:49Z</time>
      </trkpt>
      <trkpt lat="47.37615" lon="-1.12672">
        <ele>60.933</ele>
        <time>2020-07-19T10:23:50Z</time>
      </trkpt>
      <trkpt lat="47.37616" lon="-1.12676">
        <ele>60.413</ele>
        <time>2020-07-19T10:23:51Z</time>
      </trkpt>
      <trkpt lat="47.37616" lon="-1.1268">
        <ele>60.55</ele>
        <time>2020-07-19T10:23:52Z</time>
      </trkpt>
      <trkpt lat="47.37617" lon="-1.12684">
        <ele>60.866</ele>
        <time>2020-07-19T10:23:53Z</time>
      </trkpt>
      <trkpt lat="47.37618" lon="-1.12687">
        <ele>60.416</ele>
        <time>2020-07-19T10:23:54Z</time>
      </trkpt>
      <trkpt lat="47.37619" lon="-1.12691">
        <ele>60.604</ele>
        <time>2020-07-19T10:23:55Z</time>
      </trkpt>
      <trkpt lat="47.37619" lon="-1.12695">
        <ele>60.759</ele>
        <time>2020-07-19T10:23:56Z</time>
      </trkpt>
      <trkpt lat="47.3762" lon="-1.12698">
        <ele>60.959</ele>
        <time>2020-07-19T10:23:57Z</time>
      </trkpt>
      <trkpt lat="47.3762" lon="-1.12701">
        <ele>60.38</ele>
        <time>2020-07-19T10:23:58Z</time>
      </trkpt>
      <trkpt lat="47.3762" lon="-1.12704">
        <ele>60.442</ele>
        <time>2020-07-19T10:23:59Z</time>
      </trkpt>
      <trkpt lat="47.3762" lon="-1.12705">
        <ele>60.484</ele>
        <time>2020-07-19T10:24:00Z</time>
      </trkpt>
      <trkpt lat="47.3762" lon="-1.12706">
        <ele>60.524</ele>
        <time>2020-07-19T10:24:01Z</time>
      </trkpt>
      <trkpt lat="47.3762" lon="-1.12707">
        <ele>60.734</ele>
        <time>2020-07-19T10:24:02Z</time>
      </trkpt>
      <trkpt lat="47.37619" lon="-1.12708">
        <ele>60.015</ele>
        <time>2020-07-19T10:24:03Z</time>
      </trkpt>
      <trkpt lat="47.37617" lon="-1.12707">
        <ele>59.439</ele>
        <time>2020-07-19T10:24:04Z</time>
      </trkpt>
      <trkpt lat="47.37616" lon="-1.12704">
        <ele>60.038</ele>
        <time>2020-07-19T10:24:05Z</time>
      </trkpt>
      <trkpt lat="47.37616" lon="-1.12699">
        <ele>58.903</ele>
        <time>2020-07-19T10:24:06Z</time>
      </trkpt>
      <trkpt lat="47.37616" lon="-1.12693">
        <ele>59.181</ele>
        <time>2020-07-19T10:24:07Z</time>
      </trkpt>
      <trkpt lat="47.37616" lon="-1.12687">
        <ele>59.451</ele>
        <time>2020-07-19T10:24:08Z</time>
      </trkpt>
      <trkpt lat="47.37616" lon="-1.12682">
        <ele>59.11</ele>
        <time>2020-07-19T10:24:09Z</time>
      </trkpt>
      <trkpt lat="47.37616" lon="-1.12676">
        <ele>58.965</ele>
        <time>2020-07-19T10:24:10Z</time>
      </trkpt>
      <trkpt lat="47.37615" lon="-1.12672">
        <ele>59.212</ele>
        <time>2020-07-19T10:24:11Z</time>
      </trkpt>
      <trkpt lat="47.37615" lon="-1.12668">
        <ele>59.38</ele>
        <time>2020-07-19T10:24:12Z</time>
      </trkpt>
      <trkpt lat="47.37615" lon="-1.12664">
        <ele>59.371</ele>
        <time>2020-07-19T10:24:13Z</time>
      </trkpt>
      <trkpt lat="47.37614" lon="-1.1266">
        <ele>59.6</ele>
        <time>2020-07-19T10:24:14Z</time>
      </trkpt>
      <trkpt lat="47.37613" lon="-1.12658">
        <ele>59.617</ele>
        <time>2020-07-19T10:24:15Z</time>
      </trkpt>
      <trkpt lat="47.37613" lon="-1.12658">
        <ele>59.579</ele>
        <time>2020-07-19T10:24:16Z</time>
      </trkpt>
      <trkpt lat="47.37613" lon="-1.12659">
        <ele>59.706</ele>
        <time>2020-07-19T10:24:17Z</time>
      </trkpt>
      <trkpt lat="47.37613" lon="-1.12659">
        <ele>59.57</ele>
        <time>2020-07-19T10:24:18Z</time>
      </trkpt>
      <trkpt lat="47.37613" lon="-1.12659">
        <ele>59.748</ele>
        <time>2020-07-19T10:24:19Z</time>
      </trkpt>
      <trkpt lat="47.37613" lon="-1.12659">
        <ele>59.904</ele>
        <time>2020-07-19T10:24:20Z</time>
      </trkpt>
      <trkpt lat="47.37613" lon="-1.12659">
        <ele>59.995</ele>
        <time>2020-07-19T10:24:21Z</time>
      </trkpt>
      <trkpt lat="47.37613" lon="-1.12659">
        <ele>60.054</ele>
        <time>2020-07-19T10:24:22Z</time>
      </trkpt>
      <trkpt lat="47.37613" lon="-1.12659">
        <ele>59.996</ele>
        <time>2020-07-19T10:24:23Z</time>
      </trkpt>
      <trkpt lat="47.37613" lon="-1.12659">
        <ele>60.025</ele>
        <time>2020-07-19T10:24:24Z</time>
      </trkpt>
      <trkpt lat="47.37613" lon="-1.12659">
        <ele>60.026</ele>
        <time>2020-07-19T10:24:25Z</time>
      </trkpt>
      <trkpt lat="47.37613" lon="-1.12659">
        <ele>59.979</ele>
        <time>2020-07-19T10:24:26Z</time>
      </trkpt>
      <trkpt lat="47.37613" lon="-1.12659">
        <ele>59.955</ele>
        <time>2020-07-19T10:24:27Z</time>
      </trkpt>
      <trkpt lat="47.37614" lon="-1.12659">
        <ele>59.937</ele>
        <time>2020-07-19T10:24:28Z</time>
      </trkpt>
      <trkpt lat="47.37614" lon="-1.12659">
        <ele>59.94</ele>
        <time>2020-07-19T10:24:29Z</time>
      </trkpt>
      <trkpt lat="47.37614" lon="-1.12659">
        <ele>59.94</ele>
        <time>2020-07-19T10:24:30Z</time>
      </trkpt>
      <trkpt lat="47.37614" lon="-1.12659">
        <ele>59.939</ele>
        <time>2020-07-19T10:24:31Z</time>
      </trkpt>
      <trkpt lat="47.37614" lon="-1.12659">
        <ele>59.939</ele>
        <time>2020-07-19T10:24:32Z</time>
      </trkpt>
      <trkpt lat="47.37614" lon="-1.12659">
        <ele>59.939</ele>
        <time>2020-07-19T10:24:33Z</time>
      </trkpt>
      <trkpt lat="47.37614" lon="-1.12659">
        <ele>59.939</ele>
        <time>2020-07-19T10:24:34Z</time>
      </trkpt>
      <trkpt lat="47.37614" lon="-1.12659">
        <ele>59.93</ele>
        <time>2020-07-19T10:24:35Z</time>
      </trkpt>
      <trkpt lat="47.37614" lon="-1.12659">
        <ele>60.001</ele>
        <time>2020-07-19T10:24:36Z</time>
      </trkpt>
      <trkpt lat="47.37614" lon="-1.12659">
        <ele>60.151</ele>
        <time>2020-07-19T10:24:37Z</time>
      </trkpt>
      <trkpt lat="47.37614" lon="-1.12659">
        <ele>60.474</ele>
        <time>2020-07-19T10:24:38Z</time>
      </trkpt>
      <trkpt lat="47.37614" lon="-1.12659">
        <ele>60.689</ele>
        <time>2020-07-19T10:24:39Z</time>
      </trkpt>
      <trkpt lat="47.37614" lon="-1.12659">
        <ele>60.688</ele>
        <time>2020-07-19T10:24:40Z</time>
      </trkpt>
      <trkpt lat="47.37614" lon="-1.12659">
        <ele>61.18</ele>
        <time>2020-07-19T10:24:41Z</time>
      </trkpt>
      <trkpt lat="47.37614" lon="-1.12659">
        <ele>61.612</ele>
        <time>2020-07-19T10:24:42Z</time>
      </trkpt>
      <trkpt lat="47.37614" lon="-1.12659">
        <ele>62.01</ele>
        <time>2020-07-19T10:24:43Z</time>
      </trkpt>
      <trkpt lat="47.37615" lon="-1.12659">
        <ele>62.573</ele>
        <time>2020-07-19T10:24:44Z</time>
      </trkpt>
      <trkpt lat="47.37615" lon="-1.12659">
        <ele>62.381</ele>
        <time>2020-07-19T10:24:45Z</time>
      </trkpt>
      <trkpt lat="47.37615" lon="-1.12659">
        <ele>62.212</ele>
        <time>2020-07-19T10:24:46Z</time>
      </trkpt>
      <trkpt lat="47.37615" lon="-1.12659">
        <ele>62.028</ele>
        <time>2020-07-19T10:24:47Z</time>
      </trkpt>
      <trkpt lat="47.37615" lon="-1.12659">
        <ele>61.839</ele>
        <time>2020-07-19T10:24:48Z</time>
      </trkpt>
      <trkpt lat="47.37615" lon="-1.12659">
        <ele>61.687</ele>
        <time>2020-07-19T10:24:49Z</time>
      </trkpt>
      <trkpt lat="47.37616" lon="-1.12659">
        <ele>61.132</ele>
        <time>2020-07-19T10:24:50Z</time>
      </trkpt>
      <trkpt lat="47.37617" lon="-1.12659">
        <ele>60.789</ele>
        <time>2020-07-19T10:24:51Z</time>
      </trkpt>
      <trkpt lat="47.37618" lon="-1.1266">
        <ele>60.709</ele>
        <time>2020-07-19T10:24:52Z</time>
      </trkpt>
      <trkpt lat="47.37619" lon="-1.1266">
        <ele>60.586</ele>
        <time>2020-07-19T10:24:53Z</time>
      </trkpt>
      <trkpt lat="47.37619" lon="-1.1266">
        <ele>60.862</ele>
        <time>2020-07-19T10:24:54Z</time>
      </trkpt>
      <trkpt lat="47.37618" lon="-1.1266">
        <ele>58.744</ele>
        <time>2020-07-19T10:24:55Z</time>
      </trkpt>
      <trkpt lat="47.37617" lon="-1.12661">
        <ele>58.186</ele>
        <time>2020-07-19T10:24:56Z</time>
      </trkpt>
      <trkpt lat="47.37617" lon="-1.12661">
        <ele>57.926</ele>
        <time>2020-07-19T10:24:57Z</time>
      </trkpt>
      <trkpt lat="47.37617" lon="-1.12661">
        <ele>57.908</ele>
        <time>2020-07-19T10:24:58Z</time>
      </trkpt>
      <trkpt lat="47.37616" lon="-1.12661">
        <ele>57.689</ele>
        <time>2020-07-19T10:24:59Z</time>
      </trkpt>
      <trkpt lat="47.37616" lon="-1.12661">
        <ele>57.69</ele>
        <time>2020-07-19T10:25:00Z</time>
      </trkpt>
      <trkpt lat="47.37616" lon="-1.12661">
        <ele>57.183</ele>
        <time>2020-07-19T10:25:01Z</time>
      </trkpt>
      <trkpt lat="47.37616" lon="-1.12661">
        <ele>56.899</ele>
        <time>2020-07-19T10:25:02Z</time>
      </trkpt>
      <trkpt lat="47.37616" lon="-1.12661">
        <ele>57.302</ele>
        <time>2020-07-19T10:25:03Z</time>
      </trkpt>
      <trkpt lat="47.37616" lon="-1.12661">
        <ele>57.067</ele>
        <time>2020-07-19T10:25:04Z</time>
      </trkpt>
      <trkpt lat="47.37616" lon="-1.12661">
        <ele>57.057</ele>
        <time>2020-07-19T10:25:05Z</time>
      </trkpt>
      <trkpt lat="47.37616" lon="-1.12661">
        <ele>57.129</ele>
        <time>2020-07-19T10:25:06Z</time>
      </trkpt>
      <trkpt lat="47.37616" lon="-1.12661">
        <ele>57.135</ele>
        <time>2020-07-19T10:25:07Z</time>
      </trkpt>
      <trkpt lat="47.37616" lon="-1.12661">
        <ele>57.13</ele>
        <time>2020-07-19T10:25:08Z</time>
      </trkpt>
      <trkpt lat="47.37616" lon="-1.12661">
        <ele>57.131</ele>
        <time>2020-07-19T10:25:09Z</time>
      </trkpt>
      <trkpt lat="47.37616" lon="-1.12661">
        <ele>57.131</ele>
        <time>2020-07-19T10:25:10Z</time>
      </trkpt>
      <trkpt lat="47.37616" lon="-1.12661">
        <ele>57.132</ele>
        <time>2020-07-19T10:25:11Z</time>
      </trkpt>
      <trkpt lat="47.37616" lon="-1.12661">
        <ele>57.142</ele>
        <time>2020-07-19T10:25:12Z</time>
      </trkpt>
      <trkpt lat="47.37616" lon="-1.12661">
        <ele>57.124</ele>
        <time>2020-07-19T10:25:13Z</time>
      </trkpt>
      <trkpt lat="47.37616" lon="-1.12661">
        <ele>57.143</ele>
        <time>2020-07-19T10:25:14Z</time>
      </trkpt>
      <trkpt lat="47.37616" lon="-1.12661">
        <ele>57.146</ele>
        <time>2020-07-19T10:25:15Z</time>
      </trkpt>
      <trkpt lat="47.37616" lon="-1.12661">
        <ele>57.174</ele>
        <time>2020-07-19T10:25:16Z</time>
      </trkpt>
      <trkpt lat="47.37616" lon="-1.12661">
        <ele>57.183</ele>
        <time>2020-07-19T10:25:17Z</time>
      </trkpt>
      <trkpt lat="47.37616" lon="-1.12661">
        <ele>57.193</ele>
        <time>2020-07-19T10:25:18Z</time>
      </trkpt>
      <trkpt lat="47.37616" lon="-1.12661">
        <ele>57.202</ele>
        <time>2020-07-19T10:25:19Z</time>
      </trkpt>
      <trkpt lat="47.37616" lon="-1.12661">
        <ele>57.221</ele>
        <time>2020-07-19T10:25:20Z</time>
      </trkpt>
      <trkpt lat="47.37616" lon="-1.12661">
        <ele>57.247</ele>
        <time>2020-07-19T10:25:21Z</time>
      </trkpt>
      <trkpt lat="47.37616" lon="-1.12661">
        <ele>57.291</ele>
        <time>2020-07-19T10:25:22Z</time>
      </trkpt>
      <trkpt lat="47.37616" lon="-1.12661">
        <ele>57.308</ele>
        <time>2020-07-19T10:25:23Z</time>
      </trkpt>
      <trkpt lat="47.37616" lon="-1.12661">
        <ele>57.322</ele>
        <time>2020-07-19T10:25:24Z</time>
      </trkpt>
      <trkpt lat="47.37616" lon="-1.12661">
        <ele>57.342</ele>
        <time>2020-07-19T10:25:25Z</time>
      </trkpt>
      <trkpt lat="47.37616" lon="-1.12661">
        <ele>57.383</ele>
        <time>2020-07-19T10:25:26Z</time>
      </trkpt>
      <trkpt lat="47.37616" lon="-1.12661">
        <ele>57.382</ele>
        <time>2020-07-19T10:25:27Z</time>
      </trkpt>
      <trkpt lat="47.37616" lon="-1.12661">
        <ele>57.375</ele>
        <time>2020-07-19T10:25:28Z</time>
      </trkpt>
      <trkpt lat="47.37617" lon="-1.1266">
        <ele>58.955</ele>
        <time>2020-07-19T10:25:29Z</time>
      </trkpt>
      <trkpt lat="47.37618" lon="-1.12657">
        <ele>57.923</ele>
        <time>2020-07-19T10:25:30Z</time>
      </trkpt>
      <trkpt lat="47.37619" lon="-1.12653">
        <ele>58.885</ele>
        <time>2020-07-19T10:25:31Z</time>
      </trkpt>
      <trkpt lat="47.37618" lon="-1.12647">
        <ele>58.269</ele>
        <time>2020-07-19T10:25:32Z</time>
      </trkpt>
      <trkpt lat="47.37616" lon="-1.12637">
        <ele>58.44</ele>
        <time>2020-07-19T10:25:33Z</time>
      </trkpt>
      <trkpt lat="47.37615" lon="-1.12629">
        <ele>57.681</ele>
        <time>2020-07-19T10:25:34Z</time>
      </trkpt>
      <trkpt lat="47.37614" lon="-1.12623">
        <ele>57.882</ele>
        <time>2020-07-19T10:25:35Z</time>
      </trkpt>
      <trkpt lat="47.37614" lon="-1.12614">
        <ele>58.867</ele>
        <time>2020-07-19T10:25:36Z</time>
      </trkpt>
      <trkpt lat="47.37613" lon="-1.12607">
        <ele>59.143</ele>
        <time>2020-07-19T10:25:37Z</time>
      </trkpt>
      <trkpt lat="47.37611" lon="-1.126">
        <ele>58.872</ele>
        <time>2020-07-19T10:25:38Z</time>
      </trkpt>
      <trkpt lat="47.3761" lon="-1.12593">
        <ele>59.148</ele>
        <time>2020-07-19T10:25:39Z</time>
      </trkpt>
      <trkpt lat="47.3761" lon="-1.1259">
        <ele>59.69</ele>
        <time>2020-07-19T10:25:40Z</time>
      </trkpt>
      <trkpt lat="47.3761" lon="-1.12589">
        <ele>60.659</ele>
        <time>2020-07-19T10:25:41Z</time>
      </trkpt>
      <trkpt lat="47.3761" lon="-1.12589">
        <ele>60.135</ele>
        <time>2020-07-19T10:25:42Z</time>
      </trkpt>
      <trkpt lat="47.3761" lon="-1.12589">
        <ele>60.033</ele>
        <time>2020-07-19T10:25:43Z</time>
      </trkpt>
      <trkpt lat="47.37611" lon="-1.12589">
        <ele>59.986</ele>
        <time>2020-07-19T10:25:44Z</time>
      </trkpt>
      <trkpt lat="47.3761" lon="-1.12589">
        <ele>60.58</ele>
        <time>2020-07-19T10:25:45Z</time>
      </trkpt>
      <trkpt lat="47.3761" lon="-1.12589">
        <ele>60.92</ele>
        <time>2020-07-19T10:25:46Z</time>
      </trkpt>
      <trkpt lat="47.3761" lon="-1.12589">
        <ele>60.92</ele>
        <time>2020-07-19T10:25:47Z</time>
      </trkpt>
      <trkpt lat="47.3761" lon="-1.12589">
        <ele>61.109</ele>
        <time>2020-07-19T10:25:48Z</time>
      </trkpt>
      <trkpt lat="47.3761" lon="-1.12589">
        <ele>61.397</ele>
        <time>2020-07-19T10:25:49Z</time>
      </trkpt>
      <trkpt lat="47.3761" lon="-1.12589">
        <ele>61.355</ele>
        <time>2020-07-19T10:25:50Z</time>
      </trkpt>
      <trkpt lat="47.3761" lon="-1.12589">
        <ele>61.33</ele>
        <time>2020-07-19T10:25:51Z</time>
      </trkpt>
      <trkpt lat="47.3761" lon="-1.12589">
        <ele>61.294</ele>
        <time>2020-07-19T10:25:52Z</time>
      </trkpt>
      <trkpt lat="47.3761" lon="-1.12589">
        <ele>61.181</ele>
        <time>2020-07-19T10:25:53Z</time>
      </trkpt>
      <trkpt lat="47.3761" lon="-1.12589">
        <ele>61.147</ele>
        <time>2020-07-19T10:25:54Z</time>
      </trkpt>
      <trkpt lat="47.3761" lon="-1.12589">
        <ele>61.142</ele>
        <time>2020-07-19T10:25:55Z</time>
      </trkpt>
      <trkpt lat="47.3761" lon="-1.12589">
        <ele>61.138</ele>
        <time>2020-07-19T10:25:56Z</time>
      </trkpt>
      <trkpt lat="47.3761" lon="-1.12589">
        <ele>61.112</ele>
        <time>2020-07-19T10:25:57Z</time>
      </trkpt>
      <trkpt lat="47.3761" lon="-1.12589">
        <ele>61.096</ele>
        <time>2020-07-19T10:25:58Z</time>
      </trkpt>
      <trkpt lat="47.3761" lon="-1.12589">
        <ele>61.091</ele>
        <time>2020-07-19T10:25:59Z</time>
      </trkpt>
      <trkpt lat="47.3761" lon="-1.12589">
        <ele>61.087</ele>
        <time>2020-07-19T10:26:00Z</time>
      </trkpt>
      <trkpt lat="47.3761" lon="-1.12589">
        <ele>61.087</ele>
        <time>2020-07-19T10:26:01Z</time>
      </trkpt>
      <trkpt lat="47.3761" lon="-1.12589">
        <ele>61.101</ele>
        <time>2020-07-19T10:26:02Z</time>
      </trkpt>
      <trkpt lat="47.3761" lon="-1.12589">
        <ele>61.103</ele>
        <time>2020-07-19T10:26:03Z</time>
      </trkpt>
      <trkpt lat="47.3761" lon="-1.12589">
        <ele>61.092</ele>
        <time>2020-07-19T10:26:04Z</time>
      </trkpt>
      <trkpt lat="47.3761" lon="-1.12589">
        <ele>61.09</ele>
        <time>2020-07-19T10:26:05Z</time>
      </trkpt>
      <trkpt lat="47.3761" lon="-1.12589">
        <ele>61.078</ele>
        <time>2020-07-19T10:26:06Z</time>
      </trkpt>
      <trkpt lat="47.3761" lon="-1.12589">
        <ele>61.082</ele>
        <time>2020-07-19T10:26:07Z</time>
      </trkpt>
      <trkpt lat="47.3761" lon="-1.12589">
        <ele>61.082</ele>
        <time>2020-07-19T10:26:08Z</time>
      </trkpt>
      <trkpt lat="47.3761" lon="-1.12589">
        <ele>61.086</ele>
        <time>2020-07-19T10:26:09Z</time>
      </trkpt>
      <trkpt lat="47.3761" lon="-1.12589">
        <ele>61.096</ele>
        <time>2020-07-19T10:26:10Z</time>
      </trkpt>
      <trkpt lat="47.3761" lon="-1.12589">
        <ele>61.098</ele>
        <time>2020-07-19T10:26:11Z</time>
      </trkpt>
      <trkpt lat="47.3761" lon="-1.12589">
        <ele>61.094</ele>
        <time>2020-07-19T10:26:12Z</time>
      </trkpt>
      <trkpt lat="47.3761" lon="-1.12589">
        <ele>61.102</ele>
        <time>2020-07-19T10:26:13Z</time>
      </trkpt>
      <trkpt lat="47.3761" lon="-1.12589">
        <ele>61.102</ele>
        <time>2020-07-19T10:26:14Z</time>
      </trkpt>
      <trkpt lat="47.3761" lon="-1.12589">
        <ele>61.103</ele>
        <time>2020-07-19T10:26:15Z</time>
      </trkpt>
      <trkpt lat="47.3761" lon="-1.12589">
        <ele>61.102</ele>
        <time>2020-07-19T10:26:16Z</time>
      </trkpt>
      <trkpt lat="47.3761" lon="-1.12589">
        <ele>61.096</ele>
        <time>2020-07-19T10:26:17Z</time>
      </trkpt>
      <trkpt lat="47.3761" lon="-1.12589">
        <ele>61.092</ele>
        <time>2020-07-19T10:26:18Z</time>
      </trkpt>
      <trkpt lat="47.3761" lon="-1.12589">
        <ele>61.088</ele>
        <time>2020-07-19T10:26:19Z</time>
      </trkpt>
      <trkpt lat="47.3761" lon="-1.12589">
        <ele>61.095</ele>
        <time>2020-07-19T10:26:20Z</time>
      </trkpt>
      <trkpt lat="47.3761" lon="-1.12589">
        <ele>61.102</ele>
        <time>2020-07-19T10:26:21Z</time>
      </trkpt>
      <trkpt lat="47.3761" lon="-1.12589">
        <ele>61.103</ele>
        <time>2020-07-19T10:26:22Z</time>
      </trkpt>
      <trkpt lat="47.3761" lon="-1.12589">
        <ele>61.106</ele>
        <time>2020-07-19T10:26:23Z</time>
      </trkpt>
      <trkpt lat="47.3761" lon="-1.12589">
        <ele>61.109</ele>
        <time>2020-07-19T10:26:24Z</time>
      </trkpt>
      <trkpt lat="47.3761" lon="-1.12589">
        <ele>61.102</ele>
        <time>2020-07-19T10:26:25Z</time>
      </trkpt>
      <trkpt lat="47.3761" lon="-1.12589">
        <ele>61.116</ele>
        <time>2020-07-19T10:26:26Z</time>
      </trkpt>
      <trkpt lat="47.3761" lon="-1.12589">
        <ele>61.117</ele>
        <time>2020-07-19T10:26:27Z</time>
      </trkpt>
      <trkpt lat="47.3761" lon="-1.12589">
        <ele>61.117</ele>
        <time>2020-07-19T10:26:28Z</time>
      </trkpt>
      <trkpt lat="47.3761" lon="-1.12589">
        <ele>61.122</ele>
        <time>2020-07-19T10:26:29Z</time>
      </trkpt>
      <trkpt lat="47.3761" lon="-1.12589">
        <ele>61.119</ele>
        <time>2020-07-19T10:26:30Z</time>
      </trkpt>
      <trkpt lat="47.3761" lon="-1.12589">
        <ele>61.12</ele>
        <time>2020-07-19T10:26:31Z</time>
      </trkpt>
      <trkpt lat="47.3761" lon="-1.12589">
        <ele>61.124</ele>
        <time>2020-07-19T10:26:32Z</time>
      </trkpt>
      <trkpt lat="47.3761" lon="-1.12589">
        <ele>61.11</ele>
        <time>2020-07-19T10:26:33Z</time>
      </trkpt>
      <trkpt lat="47.3761" lon="-1.12589">
        <ele>61.114</ele>
        <time>2020-07-19T10:26:34Z</time>
      </trkpt>
      <trkpt lat="47.3761" lon="-1.12589">
        <ele>61.122</ele>
        <time>2020-07-19T10:26:35Z</time>
      </trkpt>
      <trkpt lat="47.3761" lon="-1.12589">
        <ele>61.12</ele>
        <time>2020-07-19T10:26:36Z</time>
      </trkpt>
      <trkpt lat="47.3761" lon="-1.12589">
        <ele>61.127</ele>
        <time>2020-07-19T10:26:37Z</time>
      </trkpt>
      <trkpt lat="47.3761" lon="-1.12589">
        <ele>61.119</ele>
        <time>2020-07-19T10:26:38Z</time>
      </trkpt>
      <trkpt lat="47.3761" lon="-1.12589">
        <ele>61.114</ele>
        <time>2020-07-19T10:26:39Z</time>
      </trkpt>
      <trkpt lat="47.3761" lon="-1.12587">
        <ele>60.718</ele>
        <time>2020-07-19T10:26:40Z</time>
      </trkpt>
      <trkpt lat="47.3761" lon="-1.12586">
        <ele>59.799</ele>
        <time>2020-07-19T10:26:41Z</time>
      </trkpt>
      <trkpt lat="47.37609" lon="-1.12583">
        <ele>59.463</ele>
        <time>2020-07-19T10:26:42Z</time>
      </trkpt>
      <trkpt lat="47.37608" lon="-1.12578">
        <ele>59.118</ele>
        <time>2020-07-19T10:26:43Z</time>
      </trkpt>
      <trkpt lat="47.37539" lon="-1.12582">
        <ele>61.277</ele>
        <time>2020-07-19T10:27:13Z</time>
      </trkpt>
      <trkpt lat="47.37537" lon="-1.12589">
        <ele>59.372</ele>
        <time>2020-07-19T10:27:14Z</time>
      </trkpt>
      <trkpt lat="47.37536" lon="-1.12597">
        <ele>59.954</ele>
        <time>2020-07-19T10:27:15Z</time>
      </trkpt>
      <trkpt lat="47.37535" lon="-1.12605">
        <ele>60.655</ele>
        <time>2020-07-19T10:27:16Z</time>
      </trkpt>
      <trkpt lat="47.37532" lon="-1.12617">
        <ele>60.156</ele>
        <time>2020-07-19T10:27:17Z</time>
      </trkpt>
      <trkpt lat="47.37531" lon="-1.12626">
        <ele>62.125</ele>
        <time>2020-07-19T10:27:18Z</time>
      </trkpt>
      <trkpt lat="47.37532" lon="-1.12632">
        <ele>61.292</ele>
        <time>2020-07-19T10:27:19Z</time>
      </trkpt>
      <trkpt lat="47.37532" lon="-1.1264">
        <ele>60.694</ele>
        <time>2020-07-19T10:27:20Z</time>
      </trkpt>
      <trkpt lat="47.37532" lon="-1.12647">
        <ele>60.826</ele>
        <time>2020-07-19T10:27:21Z</time>
      </trkpt>
      <trkpt lat="47.37532" lon="-1.12656">
        <ele>60.78</ele>
        <time>2020-07-19T10:27:22Z</time>
      </trkpt>
      <trkpt lat="47.3753" lon="-1.12666">
        <ele>62</ele>
        <time>2020-07-19T10:27:23Z</time>
      </trkpt>
      <trkpt lat="47.3753" lon="-1.12674">
        <ele>62.143</ele>
        <time>2020-07-19T10:27:24Z</time>
      </trkpt>
      <trkpt lat="47.37531" lon="-1.12683">
        <ele>61.893</ele>
        <time>2020-07-19T10:27:25Z</time>
      </trkpt>
      <trkpt lat="47.37532" lon="-1.12691">
        <ele>61.378</ele>
        <time>2020-07-19T10:27:26Z</time>
      </trkpt>
      <trkpt lat="47.37532" lon="-1.12701">
        <ele>62.275</ele>
        <time>2020-07-19T10:27:27Z</time>
      </trkpt>
      <trkpt lat="47.37532" lon="-1.1271">
        <ele>62.78</ele>
        <time>2020-07-19T10:27:28Z</time>
      </trkpt>
      <trkpt lat="47.37531" lon="-1.12719">
        <ele>61.905</ele>
        <time>2020-07-19T10:27:29Z</time>
      </trkpt>
      <trkpt lat="47.37531" lon="-1.12728">
        <ele>61.657</ele>
        <time>2020-07-19T10:27:30Z</time>
      </trkpt>
      <trkpt lat="47.37531" lon="-1.12737">
        <ele>61.866</ele>
        <time>2020-07-19T10:27:31Z</time>
      </trkpt>
      <trkpt lat="47.37531" lon="-1.12747">
        <ele>61.479</ele>
        <time>2020-07-19T10:27:32Z</time>
      </trkpt>
      <trkpt lat="47.37532" lon="-1.12755">
        <ele>60.884</ele>
        <time>2020-07-19T10:27:33Z</time>
      </trkpt>
      <trkpt lat="47.37533" lon="-1.12764">
        <ele>60.17</ele>
        <time>2020-07-19T10:27:34Z</time>
      </trkpt>
      <trkpt lat="47.37534" lon="-1.12772">
        <ele>59.957</ele>
        <time>2020-07-19T10:27:35Z</time>
      </trkpt>
      <trkpt lat="47.37533" lon="-1.12782">
        <ele>59.185</ele>
        <time>2020-07-19T10:27:36Z</time>
      </trkpt>
      <trkpt lat="47.37534" lon="-1.12791">
        <ele>59.288</ele>
        <time>2020-07-19T10:27:37Z</time>
      </trkpt>
      <trkpt lat="47.37534" lon="-1.128">
        <ele>58.664</ele>
        <time>2020-07-19T10:27:38Z</time>
      </trkpt>
      <trkpt lat="47.37534" lon="-1.12809">
        <ele>58.299</ele>
        <time>2020-07-19T10:27:39Z</time>
      </trkpt>
      <trkpt lat="47.37534" lon="-1.12819">
        <ele>58.97</ele>
        <time>2020-07-19T10:27:40Z</time>
      </trkpt>
      <trkpt lat="47.37534" lon="-1.12827">
        <ele>58.588</ele>
        <time>2020-07-19T10:27:41Z</time>
      </trkpt>
      <trkpt lat="47.37534" lon="-1.12836">
        <ele>58.168</ele>
        <time>2020-07-19T10:27:42Z</time>
      </trkpt>
      <trkpt lat="47.37534" lon="-1.12845">
        <ele>57.081</ele>
        <time>2020-07-19T10:27:43Z</time>
      </trkpt>
      <trkpt lat="47.37534" lon="-1.12852">
        <ele>56.645</ele>
        <time>2020-07-19T10:27:44Z</time>
      </trkpt>
      <trkpt lat="47.37534" lon="-1.12859">
        <ele>56.643</ele>
        <time>2020-07-19T10:27:45Z</time>
      </trkpt>
      <trkpt lat="47.37533" lon="-1.12864">
        <ele>56.407</ele>
        <time>2020-07-19T10:27:46Z</time>
      </trkpt>
      <trkpt lat="47.37534" lon="-1.12867">
        <ele>56.784</ele>
        <time>2020-07-19T10:27:47Z</time>
      </trkpt>
      <trkpt lat="47.37533" lon="-1.12868">
        <ele>56.981</ele>
        <time>2020-07-19T10:27:48Z</time>
      </trkpt>
      <trkpt lat="47.37534" lon="-1.12869">
        <ele>57.599</ele>
        <time>2020-07-19T10:27:49Z</time>
      </trkpt>
      <trkpt lat="47.37534" lon="-1.12869">
        <ele>57.996</ele>
        <time>2020-07-19T10:27:50Z</time>
      </trkpt>
      <trkpt lat="47.37534" lon="-1.12869">
        <ele>58.253</ele>
        <time>2020-07-19T10:27:51Z</time>
      </trkpt>
      <trkpt lat="47.37534" lon="-1.12869">
        <ele>58.473</ele>
        <time>2020-07-19T10:27:52Z</time>
      </trkpt>
      <trkpt lat="47.37534" lon="-1.12869">
        <ele>58.518</ele>
        <time>2020-07-19T10:27:53Z</time>
      </trkpt>
      <trkpt lat="47.37533" lon="-1.12869">
        <ele>59.051</ele>
        <time>2020-07-19T10:27:54Z</time>
      </trkpt>
      <trkpt lat="47.37533" lon="-1.12869">
        <ele>59.277</ele>
        <time>2020-07-19T10:27:55Z</time>
      </trkpt>
      <trkpt lat="47.37534" lon="-1.12868">
        <ele>59.272</ele>
        <time>2020-07-19T10:27:56Z</time>
      </trkpt>
      <trkpt lat="47.37534" lon="-1.12868">
        <ele>59.516</ele>
        <time>2020-07-19T10:27:57Z</time>
      </trkpt>
      <trkpt lat="47.37534" lon="-1.12869">
        <ele>60.159</ele>
        <time>2020-07-19T10:27:58Z</time>
      </trkpt>
      <trkpt lat="47.37535" lon="-1.12871">
        <ele>60.154</ele>
        <time>2020-07-19T10:27:59Z</time>
      </trkpt>
      <trkpt lat="47.37536" lon="-1.12874">
        <ele>59.556</ele>
        <time>2020-07-19T10:28:00Z</time>
      </trkpt>
      <trkpt lat="47.37537" lon="-1.12877">
        <ele>59.302</ele>
        <time>2020-07-19T10:28:01Z</time>
      </trkpt>
      <trkpt lat="47.37537" lon="-1.12884">
        <ele>58.906</ele>
        <time>2020-07-19T10:28:02Z</time>
      </trkpt>
      <trkpt lat="47.37537" lon="-1.12891">
        <ele>58.206</ele>
        <time>2020-07-19T10:28:03Z</time>
      </trkpt>
      <trkpt lat="47.37537" lon="-1.12897">
        <ele>58.654</ele>
        <time>2020-07-19T10:28:04Z</time>
      </trkpt>
      <trkpt lat="47.37538" lon="-1.12903">
        <ele>58.1</ele>
        <time>2020-07-19T10:28:05Z</time>
      </trkpt>
      <trkpt lat="47.37538" lon="-1.1291">
        <ele>57.971</ele>
        <time>2020-07-19T10:28:06Z</time>
      </trkpt>
      <trkpt lat="47.37537" lon="-1.12917">
        <ele>58.417</ele>
        <time>2020-07-19T10:28:07Z</time>
      </trkpt>
      <trkpt lat="47.37537" lon="-1.12924">
        <ele>57.875</ele>
        <time>2020-07-19T10:28:08Z</time>
      </trkpt>
      <trkpt lat="47.37538" lon="-1.12931">
        <ele>57.463</ele>
        <time>2020-07-19T10:28:09Z</time>
      </trkpt>
      <trkpt lat="47.37537" lon="-1.12939">
        <ele>57.48</ele>
        <time>2020-07-19T10:28:10Z</time>
      </trkpt>
      <trkpt lat="47.37536" lon="-1.12946">
        <ele>57.782</ele>
        <time>2020-07-19T10:28:11Z</time>
      </trkpt>
      <trkpt lat="47.37536" lon="-1.12955">
        <ele>58.022</ele>
        <time>2020-07-19T10:28:12Z</time>
      </trkpt>
      <trkpt lat="47.37536" lon="-1.12963">
        <ele>58.276</ele>
        <time>2020-07-19T10:28:13Z</time>
      </trkpt>
      <trkpt lat="47.37535" lon="-1.12971">
        <ele>57.471</ele>
        <time>2020-07-19T10:28:14Z</time>
      </trkpt>
      <trkpt lat="47.37537" lon="-1.1298">
        <ele>56.106</ele>
        <time>2020-07-19T10:28:15Z</time>
      </trkpt>
      <trkpt lat="47.37537" lon="-1.1299">
        <ele>56.756</ele>
        <time>2020-07-19T10:28:16Z</time>
      </trkpt>
      <trkpt lat="47.37537" lon="-1.12998">
        <ele>57.386</ele>
        <time>2020-07-19T10:28:17Z</time>
      </trkpt>
      <trkpt lat="47.37537" lon="-1.13006">
        <ele>57.393</ele>
        <time>2020-07-19T10:28:18Z</time>
      </trkpt>
      <trkpt lat="47.37537" lon="-1.13014">
        <ele>57.118</ele>
        <time>2020-07-19T10:28:19Z</time>
      </trkpt>
      <trkpt lat="47.37538" lon="-1.13022">
        <ele>57.628</ele>
        <time>2020-07-19T10:28:20Z</time>
      </trkpt>
      <trkpt lat="47.37538" lon="-1.13031">
        <ele>58.234</ele>
        <time>2020-07-19T10:28:21Z</time>
      </trkpt>
      <trkpt lat="47.3754" lon="-1.13039">
        <ele>57.668</ele>
        <time>2020-07-19T10:28:22Z</time>
      </trkpt>
      <trkpt lat="47.3754" lon="-1.13046">
        <ele>57.168</ele>
        <time>2020-07-19T10:28:23Z</time>
      </trkpt>
      <trkpt lat="47.3754" lon="-1.13055">
        <ele>56.863</ele>
        <time>2020-07-19T10:28:24Z</time>
      </trkpt>
      <trkpt lat="47.3754" lon="-1.13064">
        <ele>56.654</ele>
        <time>2020-07-19T10:28:25Z</time>
      </trkpt>
      <trkpt lat="47.3754" lon="-1.13073">
        <ele>57.013</ele>
        <time>2020-07-19T10:28:26Z</time>
      </trkpt>
      <trkpt lat="47.3754" lon="-1.13083">
        <ele>56.506</ele>
        <time>2020-07-19T10:28:27Z</time>
      </trkpt>
      <trkpt lat="47.3754" lon="-1.13092">
        <ele>56.325</ele>
        <time>2020-07-19T10:28:28Z</time>
      </trkpt>
      <trkpt lat="47.37541" lon="-1.13101">
        <ele>56.732</ele>
        <time>2020-07-19T10:28:29Z</time>
      </trkpt>
      <trkpt lat="47.37541" lon="-1.13109">
        <ele>56.115</ele>
        <time>2020-07-19T10:28:30Z</time>
      </trkpt>
      <trkpt lat="47.37541" lon="-1.13118">
        <ele>56.662</ele>
        <time>2020-07-19T10:28:31Z</time>
      </trkpt>
      <trkpt lat="47.37541" lon="-1.13127">
        <ele>56.786</ele>
        <time>2020-07-19T10:28:32Z</time>
      </trkpt>
      <trkpt lat="47.37541" lon="-1.13136">
        <ele>57.538</ele>
        <time>2020-07-19T10:28:33Z</time>
      </trkpt>
      <trkpt lat="47.3754" lon="-1.13146">
        <ele>57.124</ele>
        <time>2020-07-19T10:28:34Z</time>
      </trkpt>
      <trkpt lat="47.3754" lon="-1.13154">
        <ele>56.002</ele>
        <time>2020-07-19T10:28:35Z</time>
      </trkpt>
      <trkpt lat="47.3754" lon="-1.13163">
        <ele>56.063</ele>
        <time>2020-07-19T10:28:36Z</time>
      </trkpt>
      <trkpt lat="47.3754" lon="-1.13172">
        <ele>56.309</ele>
        <time>2020-07-19T10:28:37Z</time>
      </trkpt>
      <trkpt lat="47.3754" lon="-1.13182">
        <ele>56.502</ele>
        <time>2020-07-19T10:28:38Z</time>
      </trkpt>
      <trkpt lat="47.37541" lon="-1.13191">
        <ele>56.788</ele>
        <time>2020-07-19T10:28:39Z</time>
      </trkpt>
      <trkpt lat="47.37542" lon="-1.132">
        <ele>56.97</ele>
        <time>2020-07-19T10:28:40Z</time>
      </trkpt>
      <trkpt lat="47.37541" lon="-1.13211">
        <ele>58.005</ele>
        <time>2020-07-19T10:28:41Z</time>
      </trkpt>
      <trkpt lat="47.37541" lon="-1.1322">
        <ele>58.01</ele>
        <time>2020-07-19T10:28:42Z</time>
      </trkpt>
      <trkpt lat="47.37541" lon="-1.13228">
        <ele>57.478</ele>
        <time>2020-07-19T10:28:43Z</time>
      </trkpt>
      <trkpt lat="47.37541" lon="-1.13237">
        <ele>57.378</ele>
        <time>2020-07-19T10:28:44Z</time>
      </trkpt>
      <trkpt lat="47.37541" lon="-1.13247">
        <ele>57.931</ele>
        <time>2020-07-19T10:28:45Z</time>
      </trkpt>
      <trkpt lat="47.37542" lon="-1.13256">
        <ele>57.945</ele>
        <time>2020-07-19T10:28:46Z</time>
      </trkpt>
      <trkpt lat="47.37543" lon="-1.13266">
        <ele>57.644</ele>
        <time>2020-07-19T10:28:47Z</time>
      </trkpt>
      <trkpt lat="47.37543" lon="-1.13276">
        <ele>57.345</ele>
        <time>2020-07-19T10:28:48Z</time>
      </trkpt>
      <trkpt lat="47.37544" lon="-1.13285">
        <ele>56.881</ele>
        <time>2020-07-19T10:28:49Z</time>
      </trkpt>
      <trkpt lat="47.37544" lon="-1.13297">
        <ele>58.373</ele>
        <time>2020-07-19T10:28:50Z</time>
      </trkpt>
      <trkpt lat="47.37543" lon="-1.13307">
        <ele>59.216</ele>
        <time>2020-07-19T10:28:51Z</time>
      </trkpt>
      <trkpt lat="47.37543" lon="-1.13317">
        <ele>59.263</ele>
        <time>2020-07-19T10:28:52Z</time>
      </trkpt>
      <trkpt lat="47.37543" lon="-1.13326">
        <ele>59.974</ele>
        <time>2020-07-19T10:28:53Z</time>
      </trkpt>
      <trkpt lat="47.37543" lon="-1.13336">
        <ele>59.959</ele>
        <time>2020-07-19T10:28:54Z</time>
      </trkpt>
      <trkpt lat="47.37543" lon="-1.13345">
        <ele>59.786</ele>
        <time>2020-07-19T10:28:55Z</time>
      </trkpt>
      <trkpt lat="47.37543" lon="-1.13354">
        <ele>60.212</ele>
        <time>2020-07-19T10:28:56Z</time>
      </trkpt>
      <trkpt lat="47.37543" lon="-1.13364">
        <ele>60.839</ele>
        <time>2020-07-19T10:28:57Z</time>
      </trkpt>
      <trkpt lat="47.37543" lon="-1.13374">
        <ele>60.241</ele>
        <time>2020-07-19T10:28:58Z</time>
      </trkpt>
      <trkpt lat="47.37543" lon="-1.13385">
        <ele>60.606</ele>
        <time>2020-07-19T10:28:59Z</time>
      </trkpt>
      <trkpt lat="47.37543" lon="-1.13394">
        <ele>60.839</ele>
        <time>2020-07-19T10:29:00Z</time>
      </trkpt>
      <trkpt lat="47.37544" lon="-1.13403">
        <ele>60.865</ele>
        <time>2020-07-19T10:29:01Z</time>
      </trkpt>
      <trkpt lat="47.37544" lon="-1.13413">
        <ele>60.991</ele>
        <time>2020-07-19T10:29:02Z</time>
      </trkpt>
      <trkpt lat="47.37545" lon="-1.13422">
        <ele>60.385</ele>
        <time>2020-07-19T10:29:03Z</time>
      </trkpt>
      <trkpt lat="47.37545" lon="-1.13432">
        <ele>60.395</ele>
        <time>2020-07-19T10:29:04Z</time>
      </trkpt>
      <trkpt lat="47.37544" lon="-1.13442">
        <ele>60.707</ele>
        <time>2020-07-19T10:29:05Z</time>
      </trkpt>
      <trkpt lat="47.37545" lon="-1.1345">
        <ele>59.672</ele>
        <time>2020-07-19T10:29:06Z</time>
      </trkpt>
      <trkpt lat="47.37545" lon="-1.13459">
        <ele>58.531</ele>
        <time>2020-07-19T10:29:07Z</time>
      </trkpt>
      <trkpt lat="47.37546" lon="-1.13469">
        <ele>58.439</ele>
        <time>2020-07-19T10:29:08Z</time>
      </trkpt>
      <trkpt lat="47.37546" lon="-1.13479">
        <ele>58.734</ele>
        <time>2020-07-19T10:29:09Z</time>
      </trkpt>
      <trkpt lat="47.37546" lon="-1.13489">
        <ele>59.068</ele>
        <time>2020-07-19T10:29:10Z</time>
      </trkpt>
      <trkpt lat="47.37547" lon="-1.13497">
        <ele>58.942</ele>
        <time>2020-07-19T10:29:11Z</time>
      </trkpt>
      <trkpt lat="47.37547" lon="-1.13507">
        <ele>59.172</ele>
        <time>2020-07-19T10:29:12Z</time>
      </trkpt>
      <trkpt lat="47.37547" lon="-1.13516">
        <ele>59.779</ele>
        <time>2020-07-19T10:29:13Z</time>
      </trkpt>
      <trkpt lat="47.37548" lon="-1.13525">
        <ele>59.705</ele>
        <time>2020-07-19T10:29:14Z</time>
      </trkpt>
      <trkpt lat="47.37547" lon="-1.13532">
        <ele>59.317</ele>
        <time>2020-07-19T10:29:15Z</time>
      </trkpt>
      <trkpt lat="47.37546" lon="-1.13541">
        <ele>59.229</ele>
        <time>2020-07-19T10:29:16Z</time>
      </trkpt>
      <trkpt lat="47.37546" lon="-1.1355">
        <ele>58.69</ele>
        <time>2020-07-19T10:29:17Z</time>
      </trkpt>
      <trkpt lat="47.37545" lon="-1.13559">
        <ele>58.7</ele>
        <time>2020-07-19T10:29:18Z</time>
      </trkpt>
      <trkpt lat="47.37546" lon="-1.13569">
        <ele>58.646</ele>
        <time>2020-07-19T10:29:19Z</time>
      </trkpt>
      <trkpt lat="47.37547" lon="-1.13578">
        <ele>59.077</ele>
        <time>2020-07-19T10:29:20Z</time>
      </trkpt>
      <trkpt lat="47.37548" lon="-1.13589">
        <ele>59.022</ele>
        <time>2020-07-19T10:29:21Z</time>
      </trkpt>
      <trkpt lat="47.37548" lon="-1.136">
        <ele>59.253</ele>
        <time>2020-07-19T10:29:22Z</time>
      </trkpt>
      <trkpt lat="47.37549" lon="-1.13609">
        <ele>59.407</ele>
        <time>2020-07-19T10:29:23Z</time>
      </trkpt>
      <trkpt lat="47.37549" lon="-1.13619">
        <ele>58.76</ele>
        <time>2020-07-19T10:29:24Z</time>
      </trkpt>
      <trkpt lat="47.37549" lon="-1.13628">
        <ele>59.343</ele>
        <time>2020-07-19T10:29:25Z</time>
      </trkpt>
      <trkpt lat="47.37549" lon="-1.13639">
        <ele>60.571</ele>
        <time>2020-07-19T10:29:26Z</time>
      </trkpt>
      <trkpt lat="47.3755" lon="-1.13648">
        <ele>64.071</ele>
        <time>2020-07-19T10:29:27Z</time>
      </trkpt>
      <trkpt lat="47.3755" lon="-1.13658">
        <ele>62.279</ele>
        <time>2020-07-19T10:29:28Z</time>
      </trkpt>
      <trkpt lat="47.3755" lon="-1.13668">
        <ele>61.96</ele>
        <time>2020-07-19T10:29:29Z</time>
      </trkpt>
      <trkpt lat="47.3755" lon="-1.13678">
        <ele>61.219</ele>
        <time>2020-07-19T10:29:30Z</time>
      </trkpt>
      <trkpt lat="47.37549" lon="-1.13686">
        <ele>60.875</ele>
        <time>2020-07-19T10:29:31Z</time>
      </trkpt>
      <trkpt lat="47.37548" lon="-1.13696">
        <ele>60.587</ele>
        <time>2020-07-19T10:29:32Z</time>
      </trkpt>
      <trkpt lat="47.37546" lon="-1.13706">
        <ele>60.426</ele>
        <time>2020-07-19T10:29:33Z</time>
      </trkpt>
      <trkpt lat="47.37543" lon="-1.13714">
        <ele>60.233</ele>
        <time>2020-07-19T10:29:34Z</time>
      </trkpt>
      <trkpt lat="47.37541" lon="-1.13722">
        <ele>60.287</ele>
        <time>2020-07-19T10:29:35Z</time>
      </trkpt>
      <trkpt lat="47.37538" lon="-1.13729">
        <ele>60.702</ele>
        <time>2020-07-19T10:29:36Z</time>
      </trkpt>
      <trkpt lat="47.37535" lon="-1.13737">
        <ele>60.828</ele>
        <time>2020-07-19T10:29:37Z</time>
      </trkpt>
      <trkpt lat="47.37533" lon="-1.13746">
        <ele>60.57</ele>
        <time>2020-07-19T10:29:38Z</time>
      </trkpt>
      <trkpt lat="47.37531" lon="-1.13754">
        <ele>60.711</ele>
        <time>2020-07-19T10:29:39Z</time>
      </trkpt>
      <trkpt lat="47.37531" lon="-1.13762">
        <ele>61.721</ele>
        <time>2020-07-19T10:29:40Z</time>
      </trkpt>
      <trkpt lat="47.3753" lon="-1.13772">
        <ele>61.676</ele>
        <time>2020-07-19T10:29:41Z</time>
      </trkpt>
      <trkpt lat="47.37529" lon="-1.1378">
        <ele>61.74</ele>
        <time>2020-07-19T10:29:42Z</time>
      </trkpt>
      <trkpt lat="47.37529" lon="-1.13788">
        <ele>61.827</ele>
        <time>2020-07-19T10:29:43Z</time>
      </trkpt>
      <trkpt lat="47.3753" lon="-1.13796">
        <ele>61.345</ele>
        <time>2020-07-19T10:29:44Z</time>
      </trkpt>
      <trkpt lat="47.37531" lon="-1.13802">
        <ele>61.223</ele>
        <time>2020-07-19T10:29:45Z</time>
      </trkpt>
      <trkpt lat="47.37532" lon="-1.1381">
        <ele>61.024</ele>
        <time>2020-07-19T10:29:46Z</time>
      </trkpt>
      <trkpt lat="47.37532" lon="-1.13819">
        <ele>61.404</ele>
        <time>2020-07-19T10:29:47Z</time>
      </trkpt>
      <trkpt lat="47.37533" lon="-1.13825">
        <ele>61.216</ele>
        <time>2020-07-19T10:29:48Z</time>
      </trkpt>
      <trkpt lat="47.37533" lon="-1.13833">
        <ele>61.208</ele>
        <time>2020-07-19T10:29:49Z</time>
      </trkpt>
      <trkpt lat="47.37533" lon="-1.13839">
        <ele>61.521</ele>
        <time>2020-07-19T10:29:50Z</time>
      </trkpt>
      <trkpt lat="47.37534" lon="-1.13847">
        <ele>61.568</ele>
        <time>2020-07-19T10:29:51Z</time>
      </trkpt>
      <trkpt lat="47.37535" lon="-1.13854">
        <ele>61.867</ele>
        <time>2020-07-19T10:29:52Z</time>
      </trkpt>
      <trkpt lat="47.37535" lon="-1.13861">
        <ele>62.445</ele>
        <time>2020-07-19T10:29:53Z</time>
      </trkpt>
      <trkpt lat="47.37535" lon="-1.13869">
        <ele>63.256</ele>
        <time>2020-07-19T10:29:54Z</time>
      </trkpt>
      <trkpt lat="47.37535" lon="-1.13876">
        <ele>62.867</ele>
        <time>2020-07-19T10:29:55Z</time>
      </trkpt>
      <trkpt lat="47.37535" lon="-1.13884">
        <ele>63.118</ele>
        <time>2020-07-19T10:29:56Z</time>
      </trkpt>
      <trkpt lat="47.37534" lon="-1.13891">
        <ele>63.471</ele>
        <time>2020-07-19T10:29:57Z</time>
      </trkpt>
      <trkpt lat="47.37534" lon="-1.13899">
        <ele>62.91</ele>
        <time>2020-07-19T10:29:58Z</time>
      </trkpt>
      <trkpt lat="47.37533" lon="-1.13905">
        <ele>62.904</ele>
        <time>2020-07-19T10:29:59Z</time>
      </trkpt>
      <trkpt lat="47.37533" lon="-1.13913">
        <ele>62.322</ele>
        <time>2020-07-19T10:30:00Z</time>
      </trkpt>
      <trkpt lat="47.37531" lon="-1.1392">
        <ele>62.3</ele>
        <time>2020-07-19T10:30:01Z</time>
      </trkpt>
      <trkpt lat="47.3753" lon="-1.13927">
        <ele>62.38</ele>
        <time>2020-07-19T10:30:02Z</time>
      </trkpt>
      <trkpt lat="47.37529" lon="-1.13936">
        <ele>62.502</ele>
        <time>2020-07-19T10:30:03Z</time>
      </trkpt>
      <trkpt lat="47.37527" lon="-1.13943">
        <ele>62.442</ele>
        <time>2020-07-19T10:30:04Z</time>
      </trkpt>
      <trkpt lat="47.37525" lon="-1.13951">
        <ele>62.284</ele>
        <time>2020-07-19T10:30:05Z</time>
      </trkpt>
      <trkpt lat="47.37524" lon="-1.13959">
        <ele>62.111</ele>
        <time>2020-07-19T10:30:06Z</time>
      </trkpt>
      <trkpt lat="47.37522" lon="-1.13967">
        <ele>61.728</ele>
        <time>2020-07-19T10:30:07Z</time>
      </trkpt>
      <trkpt lat="47.37522" lon="-1.13975">
        <ele>61.117</ele>
        <time>2020-07-19T10:30:08Z</time>
      </trkpt>
      <trkpt lat="47.3752" lon="-1.13984">
        <ele>61.513</ele>
        <time>2020-07-19T10:30:09Z</time>
      </trkpt>
      <trkpt lat="47.37519" lon="-1.13992">
        <ele>61.106</ele>
        <time>2020-07-19T10:30:10Z</time>
      </trkpt>
      <trkpt lat="47.37517" lon="-1.14">
        <ele>61.303</ele>
        <time>2020-07-19T10:30:11Z</time>
      </trkpt>
      <trkpt lat="47.37516" lon="-1.14009">
        <ele>61.437</ele>
        <time>2020-07-19T10:30:12Z</time>
      </trkpt>
      <trkpt lat="47.37515" lon="-1.14018">
        <ele>61.601</ele>
        <time>2020-07-19T10:30:13Z</time>
      </trkpt>
      <trkpt lat="47.37515" lon="-1.14027">
        <ele>61.669</ele>
        <time>2020-07-19T10:30:14Z</time>
      </trkpt>
      <trkpt lat="47.37514" lon="-1.14036">
        <ele>61.062</ele>
        <time>2020-07-19T10:30:15Z</time>
      </trkpt>
      <trkpt lat="47.37514" lon="-1.14043">
        <ele>60.938</ele>
        <time>2020-07-19T10:30:16Z</time>
      </trkpt>
      <trkpt lat="47.37513" lon="-1.14051">
        <ele>60.6</ele>
        <time>2020-07-19T10:30:17Z</time>
      </trkpt>
      <trkpt lat="47.37512" lon="-1.1406">
        <ele>60.305</ele>
        <time>2020-07-19T10:30:18Z</time>
      </trkpt>
      <trkpt lat="47.3751" lon="-1.14067">
        <ele>60.19</ele>
        <time>2020-07-19T10:30:19Z</time>
      </trkpt>
      <trkpt lat="47.3751" lon="-1.14075">
        <ele>60.408</ele>
        <time>2020-07-19T10:30:20Z</time>
      </trkpt>
      <trkpt lat="47.37509" lon="-1.14082">
        <ele>61.334</ele>
        <time>2020-07-19T10:30:21Z</time>
      </trkpt>
      <trkpt lat="47.37509" lon="-1.1409">
        <ele>61.113</ele>
        <time>2020-07-19T10:30:22Z</time>
      </trkpt>
      <trkpt lat="47.37508" lon="-1.141">
        <ele>60.379</ele>
        <time>2020-07-19T10:30:23Z</time>
      </trkpt>
      <trkpt lat="47.37507" lon="-1.1411">
        <ele>59.729</ele>
        <time>2020-07-19T10:30:24Z</time>
      </trkpt>
      <trkpt lat="47.37505" lon="-1.1412">
        <ele>59.624</ele>
        <time>2020-07-19T10:30:25Z</time>
      </trkpt>
      <trkpt lat="47.37503" lon="-1.14129">
        <ele>60.194</ele>
        <time>2020-07-19T10:30:26Z</time>
      </trkpt>
      <trkpt lat="47.37501" lon="-1.14139">
        <ele>58.413</ele>
        <time>2020-07-19T10:30:27Z</time>
      </trkpt>
      <trkpt lat="47.375" lon="-1.14149">
        <ele>57.921</ele>
        <time>2020-07-19T10:30:28Z</time>
      </trkpt>
      <trkpt lat="47.37498" lon="-1.14159">
        <ele>58.012</ele>
        <time>2020-07-19T10:30:29Z</time>
      </trkpt>
      <trkpt lat="47.37497" lon="-1.14169">
        <ele>57.718</ele>
        <time>2020-07-19T10:30:30Z</time>
      </trkpt>
      <trkpt lat="47.37495" lon="-1.14178">
        <ele>57.64</ele>
        <time>2020-07-19T10:30:31Z</time>
      </trkpt>
      <trkpt lat="47.37493" lon="-1.14187">
        <ele>57.329</ele>
        <time>2020-07-19T10:30:32Z</time>
      </trkpt>
      <trkpt lat="47.37492" lon="-1.14195">
        <ele>56.433</ele>
        <time>2020-07-19T10:30:33Z</time>
      </trkpt>
      <trkpt lat="47.37488" lon="-1.14205">
        <ele>55.781</ele>
        <time>2020-07-19T10:30:34Z</time>
      </trkpt>
      <trkpt lat="47.37487" lon="-1.14214">
        <ele>55.86</ele>
        <time>2020-07-19T10:30:35Z</time>
      </trkpt>
      <trkpt lat="47.37484" lon="-1.14223">
        <ele>56.635</ele>
        <time>2020-07-19T10:30:36Z</time>
      </trkpt>
      <trkpt lat="47.37481" lon="-1.14233">
        <ele>56.466</ele>
        <time>2020-07-19T10:30:37Z</time>
      </trkpt>
      <trkpt lat="47.3748" lon="-1.14242">
        <ele>55.59</ele>
        <time>2020-07-19T10:30:38Z</time>
      </trkpt>
      <trkpt lat="47.37477" lon="-1.14251">
        <ele>56.223</ele>
        <time>2020-07-19T10:30:39Z</time>
      </trkpt>
      <trkpt lat="47.37474" lon="-1.14261">
        <ele>56.756</ele>
        <time>2020-07-19T10:30:40Z</time>
      </trkpt>
      <trkpt lat="47.37472" lon="-1.1427">
        <ele>56.753</ele>
        <time>2020-07-19T10:30:41Z</time>
      </trkpt>
      <trkpt lat="47.37469" lon="-1.1428">
        <ele>57.051</ele>
        <time>2020-07-19T10:30:42Z</time>
      </trkpt>
      <trkpt lat="47.37467" lon="-1.1429">
        <ele>56.987</ele>
        <time>2020-07-19T10:30:43Z</time>
      </trkpt>
      <trkpt lat="47.37464" lon="-1.14298">
        <ele>57.387</ele>
        <time>2020-07-19T10:30:44Z</time>
      </trkpt>
      <trkpt lat="47.37462" lon="-1.14308">
        <ele>57.548</ele>
        <time>2020-07-19T10:30:45Z</time>
      </trkpt>
      <trkpt lat="47.37459" lon="-1.14316">
        <ele>57.294</ele>
        <time>2020-07-19T10:30:46Z</time>
      </trkpt>
      <trkpt lat="47.37459" lon="-1.14324">
        <ele>53.09</ele>
        <time>2020-07-19T10:30:47Z</time>
      </trkpt>
      <trkpt lat="47.37456" lon="-1.14332">
        <ele>53.758</ele>
        <time>2020-07-19T10:30:48Z</time>
      </trkpt>
      <trkpt lat="47.37453" lon="-1.14342">
        <ele>53.893</ele>
        <time>2020-07-19T10:30:49Z</time>
      </trkpt>
      <trkpt lat="47.3745" lon="-1.14352">
        <ele>55.221</ele>
        <time>2020-07-19T10:30:50Z</time>
      </trkpt>
      <trkpt lat="47.37448" lon="-1.14362">
        <ele>55.347</ele>
        <time>2020-07-19T10:30:51Z</time>
      </trkpt>
      <trkpt lat="47.37445" lon="-1.14373">
        <ele>55.799</ele>
        <time>2020-07-19T10:30:52Z</time>
      </trkpt>
      <trkpt lat="47.37442" lon="-1.14382">
        <ele>55.905</ele>
        <time>2020-07-19T10:30:53Z</time>
      </trkpt>
      <trkpt lat="47.37438" lon="-1.14391">
        <ele>55.837</ele>
        <time>2020-07-19T10:30:54Z</time>
      </trkpt>
      <trkpt lat="47.37435" lon="-1.144">
        <ele>55.856</ele>
        <time>2020-07-19T10:30:55Z</time>
      </trkpt>
      <trkpt lat="47.37433" lon="-1.1441">
        <ele>55.736</ele>
        <time>2020-07-19T10:30:56Z</time>
      </trkpt>
      <trkpt lat="47.3743" lon="-1.14419">
        <ele>55.088</ele>
        <time>2020-07-19T10:30:57Z</time>
      </trkpt>
      <trkpt lat="47.37427" lon="-1.14428">
        <ele>56.468</ele>
        <time>2020-07-19T10:30:58Z</time>
      </trkpt>
      <trkpt lat="47.37425" lon="-1.14435">
        <ele>57.074</ele>
        <time>2020-07-19T10:30:59Z</time>
      </trkpt>
      <trkpt lat="47.37423" lon="-1.14441">
        <ele>56.585</ele>
        <time>2020-07-19T10:31:00Z</time>
      </trkpt>
      <trkpt lat="47.37421" lon="-1.14448">
        <ele>57.116</ele>
        <time>2020-07-19T10:31:01Z</time>
      </trkpt>
      <trkpt lat="47.3742" lon="-1.14454">
        <ele>56.405</ele>
        <time>2020-07-19T10:31:02Z</time>
      </trkpt>
      <trkpt lat="47.37419" lon="-1.14459">
        <ele>55.978</ele>
        <time>2020-07-19T10:31:03Z</time>
      </trkpt>
      <trkpt lat="47.37419" lon="-1.14463">
        <ele>56.356</ele>
        <time>2020-07-19T10:31:04Z</time>
      </trkpt>
      <trkpt lat="47.37419" lon="-1.14466">
        <ele>56.496</ele>
        <time>2020-07-19T10:31:05Z</time>
      </trkpt>
      <trkpt lat="47.37417" lon="-1.14467">
        <ele>55.995</ele>
        <time>2020-07-19T10:31:06Z</time>
      </trkpt>
      <trkpt lat="47.37416" lon="-1.1447">
        <ele>56.083</ele>
        <time>2020-07-19T10:31:07Z</time>
      </trkpt>
      <trkpt lat="47.37415" lon="-1.14471">
        <ele>56.677</ele>
        <time>2020-07-19T10:31:08Z</time>
      </trkpt>
      <trkpt lat="47.37416" lon="-1.14473">
        <ele>56.155</ele>
        <time>2020-07-19T10:31:09Z</time>
      </trkpt>
      <trkpt lat="47.37416" lon="-1.14476">
        <ele>56.16</ele>
        <time>2020-07-19T10:31:10Z</time>
      </trkpt>
      <trkpt lat="47.37415" lon="-1.1448">
        <ele>57.045</ele>
        <time>2020-07-19T10:31:11Z</time>
      </trkpt>
      <trkpt lat="47.37414" lon="-1.14484">
        <ele>56.933</ele>
        <time>2020-07-19T10:31:12Z</time>
      </trkpt>
      <trkpt lat="47.37413" lon="-1.14489">
        <ele>57.431</ele>
        <time>2020-07-19T10:31:13Z</time>
      </trkpt>
      <trkpt lat="47.37412" lon="-1.14495">
        <ele>58.158</ele>
        <time>2020-07-19T10:31:14Z</time>
      </trkpt>
      <trkpt lat="47.3741" lon="-1.14501">
        <ele>58.361</ele>
        <time>2020-07-19T10:31:15Z</time>
      </trkpt>
      <trkpt lat="47.37408" lon="-1.14508">
        <ele>59.306</ele>
        <time>2020-07-19T10:31:16Z</time>
      </trkpt>
      <trkpt lat="47.37406" lon="-1.14516">
        <ele>59.409</ele>
        <time>2020-07-19T10:31:17Z</time>
      </trkpt>
      <trkpt lat="47.37403" lon="-1.14523">
        <ele>59.899</ele>
        <time>2020-07-19T10:31:18Z</time>
      </trkpt>
      <trkpt lat="47.37401" lon="-1.1453">
        <ele>60.032</ele>
        <time>2020-07-19T10:31:19Z</time>
      </trkpt>
      <trkpt lat="47.37398" lon="-1.14537">
        <ele>60.938</ele>
        <time>2020-07-19T10:31:20Z</time>
      </trkpt>
      <trkpt lat="47.37396" lon="-1.14545">
        <ele>60.87</ele>
        <time>2020-07-19T10:31:21Z</time>
      </trkpt>
      <trkpt lat="47.37393" lon="-1.14554">
        <ele>60.991</ele>
        <time>2020-07-19T10:31:22Z</time>
      </trkpt>
      <trkpt lat="47.37391" lon="-1.14561">
        <ele>61.367</ele>
        <time>2020-07-19T10:31:23Z</time>
      </trkpt>
      <trkpt lat="47.37388" lon="-1.14569">
        <ele>61.26</ele>
        <time>2020-07-19T10:31:24Z</time>
      </trkpt>
      <trkpt lat="47.37386" lon="-1.14577">
        <ele>61.357</ele>
        <time>2020-07-19T10:31:25Z</time>
      </trkpt>
      <trkpt lat="47.37384" lon="-1.14585">
        <ele>62.04</ele>
        <time>2020-07-19T10:31:26Z</time>
      </trkpt>
      <trkpt lat="47.3738" lon="-1.14593">
        <ele>62.612</ele>
        <time>2020-07-19T10:31:27Z</time>
      </trkpt>
      <trkpt lat="47.37378" lon="-1.14602">
        <ele>62.101</ele>
        <time>2020-07-19T10:31:28Z</time>
      </trkpt>
      <trkpt lat="47.37376" lon="-1.1461">
        <ele>62.065</ele>
        <time>2020-07-19T10:31:29Z</time>
      </trkpt>
      <trkpt lat="47.37375" lon="-1.14616">
        <ele>60.284</ele>
        <time>2020-07-19T10:31:30Z</time>
      </trkpt>
      <trkpt lat="47.37374" lon="-1.14623">
        <ele>59.808</ele>
        <time>2020-07-19T10:31:31Z</time>
      </trkpt>
      <trkpt lat="47.37371" lon="-1.14632">
        <ele>59.393</ele>
        <time>2020-07-19T10:31:32Z</time>
      </trkpt>
      <trkpt lat="47.37369" lon="-1.1464">
        <ele>58.916</ele>
        <time>2020-07-19T10:31:33Z</time>
      </trkpt>
      <trkpt lat="47.37366" lon="-1.14648">
        <ele>59.155</ele>
        <time>2020-07-19T10:31:34Z</time>
      </trkpt>
      <trkpt lat="47.37364" lon="-1.14657">
        <ele>59.107</ele>
        <time>2020-07-19T10:31:35Z</time>
      </trkpt>
      <trkpt lat="47.37361" lon="-1.14666">
        <ele>59.278</ele>
        <time>2020-07-19T10:31:36Z</time>
      </trkpt>
      <trkpt lat="47.37358" lon="-1.14674">
        <ele>59.288</ele>
        <time>2020-07-19T10:31:37Z</time>
      </trkpt>
      <trkpt lat="47.37356" lon="-1.14683">
        <ele>59.331</ele>
        <time>2020-07-19T10:31:38Z</time>
      </trkpt>
      <trkpt lat="47.37353" lon="-1.14691">
        <ele>59.062</ele>
        <time>2020-07-19T10:31:39Z</time>
      </trkpt>
      <trkpt lat="47.3735" lon="-1.14699">
        <ele>59.029</ele>
        <time>2020-07-19T10:31:40Z</time>
      </trkpt>
      <trkpt lat="47.37348" lon="-1.14708">
        <ele>58.137</ele>
        <time>2020-07-19T10:31:41Z</time>
      </trkpt>
      <trkpt lat="47.37345" lon="-1.14717">
        <ele>57.727</ele>
        <time>2020-07-19T10:31:42Z</time>
      </trkpt>
      <trkpt lat="47.37342" lon="-1.14726">
        <ele>57.919</ele>
        <time>2020-07-19T10:31:43Z</time>
      </trkpt>
      <trkpt lat="47.37339" lon="-1.14734">
        <ele>58.01</ele>
        <time>2020-07-19T10:31:44Z</time>
      </trkpt>
      <trkpt lat="47.37337" lon="-1.14743">
        <ele>57.768</ele>
        <time>2020-07-19T10:31:45Z</time>
      </trkpt>
      <trkpt lat="47.37333" lon="-1.14751">
        <ele>57.569</ele>
        <time>2020-07-19T10:31:46Z</time>
      </trkpt>
      <trkpt lat="47.3733" lon="-1.1476">
        <ele>57.82</ele>
        <time>2020-07-19T10:31:47Z</time>
      </trkpt>
      <trkpt lat="47.37328" lon="-1.14769">
        <ele>58.291</ele>
        <time>2020-07-19T10:31:48Z</time>
      </trkpt>
      <trkpt lat="47.37325" lon="-1.14778">
        <ele>58.186</ele>
        <time>2020-07-19T10:31:49Z</time>
      </trkpt>
      <trkpt lat="47.37321" lon="-1.14787">
        <ele>59.089</ele>
        <time>2020-07-19T10:31:50Z</time>
      </trkpt>
      <trkpt lat="47.37318" lon="-1.14795">
        <ele>59.41</ele>
        <time>2020-07-19T10:31:51Z</time>
      </trkpt>
      <trkpt lat="47.37315" lon="-1.14804">
        <ele>59.732</ele>
        <time>2020-07-19T10:31:52Z</time>
      </trkpt>
      <trkpt lat="47.37312" lon="-1.14813">
        <ele>59.876</ele>
        <time>2020-07-19T10:31:53Z</time>
      </trkpt>
      <trkpt lat="47.37309" lon="-1.14823">
        <ele>60.319</ele>
        <time>2020-07-19T10:31:54Z</time>
      </trkpt>
      <trkpt lat="47.37307" lon="-1.14831">
        <ele>60.373</ele>
        <time>2020-07-19T10:31:55Z</time>
      </trkpt>
      <trkpt lat="47.37305" lon="-1.14839">
        <ele>60.003</ele>
        <time>2020-07-19T10:31:56Z</time>
      </trkpt>
      <trkpt lat="47.37302" lon="-1.14848">
        <ele>59.031</ele>
        <time>2020-07-19T10:31:57Z</time>
      </trkpt>
      <trkpt lat="47.37299" lon="-1.14856">
        <ele>59.045</ele>
        <time>2020-07-19T10:31:58Z</time>
      </trkpt>
      <trkpt lat="47.37296" lon="-1.14865">
        <ele>59.869</ele>
        <time>2020-07-19T10:31:59Z</time>
      </trkpt>
      <trkpt lat="47.37293" lon="-1.14873">
        <ele>60.095</ele>
        <time>2020-07-19T10:32:00Z</time>
      </trkpt>
      <trkpt lat="47.37291" lon="-1.14883">
        <ele>60.168</ele>
        <time>2020-07-19T10:32:01Z</time>
      </trkpt>
      <trkpt lat="47.3729" lon="-1.1489">
        <ele>58.598</ele>
        <time>2020-07-19T10:32:02Z</time>
      </trkpt>
      <trkpt lat="47.37286" lon="-1.14899">
        <ele>58.837</ele>
        <time>2020-07-19T10:32:03Z</time>
      </trkpt>
      <trkpt lat="47.37284" lon="-1.14907">
        <ele>58.838</ele>
        <time>2020-07-19T10:32:04Z</time>
      </trkpt>
      <trkpt lat="47.37281" lon="-1.14916">
        <ele>58.595</ele>
        <time>2020-07-19T10:32:05Z</time>
      </trkpt>
      <trkpt lat="47.37278" lon="-1.14925">
        <ele>58.301</ele>
        <time>2020-07-19T10:32:06Z</time>
      </trkpt>
      <trkpt lat="47.37276" lon="-1.14934">
        <ele>58.596</ele>
        <time>2020-07-19T10:32:07Z</time>
      </trkpt>
      <trkpt lat="47.37273" lon="-1.14943">
        <ele>58.114</ele>
        <time>2020-07-19T10:32:08Z</time>
      </trkpt>
      <trkpt lat="47.3727" lon="-1.14951">
        <ele>57.795</ele>
        <time>2020-07-19T10:32:09Z</time>
      </trkpt>
      <trkpt lat="47.37268" lon="-1.14961">
        <ele>57.846</ele>
        <time>2020-07-19T10:32:10Z</time>
      </trkpt>
      <trkpt lat="47.37264" lon="-1.1497">
        <ele>58.1</ele>
        <time>2020-07-19T10:32:11Z</time>
      </trkpt>
      <trkpt lat="47.37261" lon="-1.14979">
        <ele>58.148</ele>
        <time>2020-07-19T10:32:12Z</time>
      </trkpt>
      <trkpt lat="47.37259" lon="-1.14987">
        <ele>58.519</ele>
        <time>2020-07-19T10:32:13Z</time>
      </trkpt>
      <trkpt lat="47.37255" lon="-1.14997">
        <ele>58.466</ele>
        <time>2020-07-19T10:32:14Z</time>
      </trkpt>
      <trkpt lat="47.37252" lon="-1.15006">
        <ele>58.044</ele>
        <time>2020-07-19T10:32:15Z</time>
      </trkpt>
      <trkpt lat="47.3725" lon="-1.15015">
        <ele>57.883</ele>
        <time>2020-07-19T10:32:16Z</time>
      </trkpt>
      <trkpt lat="47.37247" lon="-1.15024">
        <ele>57.501</ele>
        <time>2020-07-19T10:32:17Z</time>
      </trkpt>
      <trkpt lat="47.37244" lon="-1.15034">
        <ele>57.553</ele>
        <time>2020-07-19T10:32:18Z</time>
      </trkpt>
      <trkpt lat="47.37241" lon="-1.15043">
        <ele>58.06</ele>
        <time>2020-07-19T10:32:19Z</time>
      </trkpt>
      <trkpt lat="47.37239" lon="-1.15051">
        <ele>57.384</ele>
        <time>2020-07-19T10:32:20Z</time>
      </trkpt>
      <trkpt lat="47.37236" lon="-1.1506">
        <ele>57.574</ele>
        <time>2020-07-19T10:32:21Z</time>
      </trkpt>
      <trkpt lat="47.37233" lon="-1.1507">
        <ele>57.205</ele>
        <time>2020-07-19T10:32:22Z</time>
      </trkpt>
      <trkpt lat="47.37231" lon="-1.15079">
        <ele>56.91</ele>
        <time>2020-07-19T10:32:23Z</time>
      </trkpt>
      <trkpt lat="47.37229" lon="-1.15089">
        <ele>56.622</ele>
        <time>2020-07-19T10:32:24Z</time>
      </trkpt>
      <trkpt lat="47.37227" lon="-1.15098">
        <ele>56.391</ele>
        <time>2020-07-19T10:32:25Z</time>
      </trkpt>
      <trkpt lat="47.37224" lon="-1.15107">
        <ele>56.479</ele>
        <time>2020-07-19T10:32:26Z</time>
      </trkpt>
      <trkpt lat="47.37222" lon="-1.15115">
        <ele>56.577</ele>
        <time>2020-07-19T10:32:27Z</time>
      </trkpt>
      <trkpt lat="47.37219" lon="-1.15124">
        <ele>56.506</ele>
        <time>2020-07-19T10:32:28Z</time>
      </trkpt>
      <trkpt lat="47.37217" lon="-1.15134">
        <ele>56.735</ele>
        <time>2020-07-19T10:32:29Z</time>
      </trkpt>
      <trkpt lat="47.37215" lon="-1.15143">
        <ele>56.78</ele>
        <time>2020-07-19T10:32:30Z</time>
      </trkpt>
      <trkpt lat="47.37213" lon="-1.15152">
        <ele>57.226</ele>
        <time>2020-07-19T10:32:31Z</time>
      </trkpt>
      <trkpt lat="47.37212" lon="-1.1516">
        <ele>57.763</ele>
        <time>2020-07-19T10:32:32Z</time>
      </trkpt>
      <trkpt lat="47.3721" lon="-1.15168">
        <ele>58.694</ele>
        <time>2020-07-19T10:32:33Z</time>
      </trkpt>
      <trkpt lat="47.37209" lon="-1.15175">
        <ele>58.657</ele>
        <time>2020-07-19T10:32:34Z</time>
      </trkpt>
      <trkpt lat="47.37208" lon="-1.15183">
        <ele>58.105</ele>
        <time>2020-07-19T10:32:35Z</time>
      </trkpt>
      <trkpt lat="47.37206" lon="-1.15191">
        <ele>58.113</ele>
        <time>2020-07-19T10:32:36Z</time>
      </trkpt>
      <trkpt lat="47.37203" lon="-1.15199">
        <ele>58.003</ele>
        <time>2020-07-19T10:32:37Z</time>
      </trkpt>
      <trkpt lat="47.372" lon="-1.15207">
        <ele>58.018</ele>
        <time>2020-07-19T10:32:38Z</time>
      </trkpt>
      <trkpt lat="47.37198" lon="-1.15215">
        <ele>58.436</ele>
        <time>2020-07-19T10:32:39Z</time>
      </trkpt>
      <trkpt lat="47.37197" lon="-1.15223">
        <ele>58.187</ele>
        <time>2020-07-19T10:32:40Z</time>
      </trkpt>
      <trkpt lat="47.37195" lon="-1.15232">
        <ele>58.287</ele>
        <time>2020-07-19T10:32:41Z</time>
      </trkpt>
      <trkpt lat="47.37194" lon="-1.1524">
        <ele>58.76</ele>
        <time>2020-07-19T10:32:42Z</time>
      </trkpt>
      <trkpt lat="47.37193" lon="-1.15248">
        <ele>59.157</ele>
        <time>2020-07-19T10:32:43Z</time>
      </trkpt>
      <trkpt lat="47.37192" lon="-1.15257">
        <ele>59.585</ele>
        <time>2020-07-19T10:32:44Z</time>
      </trkpt>
      <trkpt lat="47.3719" lon="-1.15265">
        <ele>59.365</ele>
        <time>2020-07-19T10:32:45Z</time>
      </trkpt>
      <trkpt lat="47.37189" lon="-1.15274">
        <ele>60.249</ele>
        <time>2020-07-19T10:32:46Z</time>
      </trkpt>
      <trkpt lat="47.37187" lon="-1.15282">
        <ele>60.14</ele>
        <time>2020-07-19T10:32:47Z</time>
      </trkpt>
      <trkpt lat="47.37187" lon="-1.15291">
        <ele>60.296</ele>
        <time>2020-07-19T10:32:48Z</time>
      </trkpt>
      <trkpt lat="47.37187" lon="-1.15299">
        <ele>60.34</ele>
        <time>2020-07-19T10:32:49Z</time>
      </trkpt>
      <trkpt lat="47.37186" lon="-1.15308">
        <ele>60.567</ele>
        <time>2020-07-19T10:32:50Z</time>
      </trkpt>
      <trkpt lat="47.37185" lon="-1.15317">
        <ele>60.738</ele>
        <time>2020-07-19T10:32:51Z</time>
      </trkpt>
      <trkpt lat="47.37184" lon="-1.15326">
        <ele>61.568</ele>
        <time>2020-07-19T10:32:52Z</time>
      </trkpt>
      <trkpt lat="47.37183" lon="-1.15335">
        <ele>61.833</ele>
        <time>2020-07-19T10:32:53Z</time>
      </trkpt>
      <trkpt lat="47.37182" lon="-1.15343">
        <ele>61.457</ele>
        <time>2020-07-19T10:32:54Z</time>
      </trkpt>
      <trkpt lat="47.37181" lon="-1.15353">
        <ele>60.957</ele>
        <time>2020-07-19T10:32:55Z</time>
      </trkpt>
      <trkpt lat="47.3718" lon="-1.15361">
        <ele>60.185</ele>
        <time>2020-07-19T10:32:56Z</time>
      </trkpt>
      <trkpt lat="47.37179" lon="-1.1537">
        <ele>60.229</ele>
        <time>2020-07-19T10:32:57Z</time>
      </trkpt>
      <trkpt lat="47.37178" lon="-1.15379">
        <ele>59.82</ele>
        <time>2020-07-19T10:32:58Z</time>
      </trkpt>
      <trkpt lat="47.37178" lon="-1.15388">
        <ele>60.292</ele>
        <time>2020-07-19T10:32:59Z</time>
      </trkpt>
      <trkpt lat="47.37177" lon="-1.15397">
        <ele>59.716</ele>
        <time>2020-07-19T10:33:00Z</time>
      </trkpt>
      <trkpt lat="47.37176" lon="-1.15406">
        <ele>58.868</ele>
        <time>2020-07-19T10:33:01Z</time>
      </trkpt>
      <trkpt lat="47.37174" lon="-1.15415">
        <ele>59.45</ele>
        <time>2020-07-19T10:33:02Z</time>
      </trkpt>
      <trkpt lat="47.37173" lon="-1.15425">
        <ele>59.89</ele>
        <time>2020-07-19T10:33:03Z</time>
      </trkpt>
      <trkpt lat="47.37172" lon="-1.15433">
        <ele>59.202</ele>
        <time>2020-07-19T10:33:04Z</time>
      </trkpt>
      <trkpt lat="47.37171" lon="-1.15441">
        <ele>59.079</ele>
        <time>2020-07-19T10:33:05Z</time>
      </trkpt>
      <trkpt lat="47.37171" lon="-1.1545">
        <ele>58.693</ele>
        <time>2020-07-19T10:33:06Z</time>
      </trkpt>
      <trkpt lat="47.3717" lon="-1.15458">
        <ele>57.94</ele>
        <time>2020-07-19T10:33:07Z</time>
      </trkpt>
      <trkpt lat="47.3717" lon="-1.15467">
        <ele>57.646</ele>
        <time>2020-07-19T10:33:08Z</time>
      </trkpt>
      <trkpt lat="47.3717" lon="-1.15475">
        <ele>58.099</ele>
        <time>2020-07-19T10:33:09Z</time>
      </trkpt>
      <trkpt lat="47.37169" lon="-1.15484">
        <ele>58.221</ele>
        <time>2020-07-19T10:33:10Z</time>
      </trkpt>
      <trkpt lat="47.37168" lon="-1.15493">
        <ele>58.579</ele>
        <time>2020-07-19T10:33:11Z</time>
      </trkpt>
      <trkpt lat="47.37166" lon="-1.15504">
        <ele>59.69</ele>
        <time>2020-07-19T10:33:12Z</time>
      </trkpt>
      <trkpt lat="47.37165" lon="-1.15513">
        <ele>60.089</ele>
        <time>2020-07-19T10:33:13Z</time>
      </trkpt>
      <trkpt lat="47.37165" lon="-1.15521">
        <ele>60.227</ele>
        <time>2020-07-19T10:33:14Z</time>
      </trkpt>
      <trkpt lat="47.37164" lon="-1.1553">
        <ele>60.67</ele>
        <time>2020-07-19T10:33:15Z</time>
      </trkpt>
      <trkpt lat="47.37164" lon="-1.15539">
        <ele>60.737</ele>
        <time>2020-07-19T10:33:16Z</time>
      </trkpt>
      <trkpt lat="47.37164" lon="-1.15549">
        <ele>60.359</ele>
        <time>2020-07-19T10:33:17Z</time>
      </trkpt>
      <trkpt lat="47.37164" lon="-1.15559">
        <ele>59.215</ele>
        <time>2020-07-19T10:33:18Z</time>
      </trkpt>
      <trkpt lat="47.37163" lon="-1.15569">
        <ele>58.166</ele>
        <time>2020-07-19T10:33:19Z</time>
      </trkpt>
      <trkpt lat="47.37163" lon="-1.15579">
        <ele>58.061</ele>
        <time>2020-07-19T10:33:20Z</time>
      </trkpt>
      <trkpt lat="47.37163" lon="-1.1559">
        <ele>57.533</ele>
        <time>2020-07-19T10:33:21Z</time>
      </trkpt>
      <trkpt lat="47.37163" lon="-1.156">
        <ele>57.297</ele>
        <time>2020-07-19T10:33:22Z</time>
      </trkpt>
      <trkpt lat="47.37162" lon="-1.1561">
        <ele>57.151</ele>
        <time>2020-07-19T10:33:23Z</time>
      </trkpt>
      <trkpt lat="47.37162" lon="-1.15619">
        <ele>57.183</ele>
        <time>2020-07-19T10:33:24Z</time>
      </trkpt>
      <trkpt lat="47.37163" lon="-1.15628">
        <ele>57.374</ele>
        <time>2020-07-19T10:33:25Z</time>
      </trkpt>
      <trkpt lat="47.37162" lon="-1.15638">
        <ele>57.505</ele>
        <time>2020-07-19T10:33:26Z</time>
      </trkpt>
      <trkpt lat="47.37161" lon="-1.15647">
        <ele>57.682</ele>
        <time>2020-07-19T10:33:27Z</time>
      </trkpt>
      <trkpt lat="47.3716" lon="-1.15657">
        <ele>58.273</ele>
        <time>2020-07-19T10:33:28Z</time>
      </trkpt>
      <trkpt lat="47.3716" lon="-1.15667">
        <ele>57.721</ele>
        <time>2020-07-19T10:33:29Z</time>
      </trkpt>
      <trkpt lat="47.37159" lon="-1.15678">
        <ele>56.93</ele>
        <time>2020-07-19T10:33:30Z</time>
      </trkpt>
      <trkpt lat="47.37158" lon="-1.15688">
        <ele>56.608</ele>
        <time>2020-07-19T10:33:31Z</time>
      </trkpt>
      <trkpt lat="47.37158" lon="-1.15697">
        <ele>56.05</ele>
        <time>2020-07-19T10:33:32Z</time>
      </trkpt>
      <trkpt lat="47.3716" lon="-1.15707">
        <ele>54.431</ele>
        <time>2020-07-19T10:33:33Z</time>
      </trkpt>
      <trkpt lat="47.3716" lon="-1.15715">
        <ele>54.824</ele>
        <time>2020-07-19T10:33:34Z</time>
      </trkpt>
      <trkpt lat="47.3716" lon="-1.15725">
        <ele>55.658</ele>
        <time>2020-07-19T10:33:35Z</time>
      </trkpt>
      <trkpt lat="47.37159" lon="-1.15734">
        <ele>56.306</ele>
        <time>2020-07-19T10:33:36Z</time>
      </trkpt>
      <trkpt lat="47.37158" lon="-1.15744">
        <ele>56.923</ele>
        <time>2020-07-19T10:33:37Z</time>
      </trkpt>
      <trkpt lat="47.37158" lon="-1.15753">
        <ele>56.653</ele>
        <time>2020-07-19T10:33:38Z</time>
      </trkpt>
      <trkpt lat="47.37157" lon="-1.15764">
        <ele>57.317</ele>
        <time>2020-07-19T10:33:39Z</time>
      </trkpt>
      <trkpt lat="47.37157" lon="-1.15773">
        <ele>56.931</ele>
        <time>2020-07-19T10:33:40Z</time>
      </trkpt>
      <trkpt lat="47.37156" lon="-1.15783">
        <ele>56.945</ele>
        <time>2020-07-19T10:33:41Z</time>
      </trkpt>
      <trkpt lat="47.37156" lon="-1.15792">
        <ele>56.898</ele>
        <time>2020-07-19T10:33:42Z</time>
      </trkpt>
      <trkpt lat="47.37155" lon="-1.15803">
        <ele>58.18</ele>
        <time>2020-07-19T10:33:43Z</time>
      </trkpt>
      <trkpt lat="47.37155" lon="-1.15813">
        <ele>57.534</ele>
        <time>2020-07-19T10:33:44Z</time>
      </trkpt>
      <trkpt lat="47.37155" lon="-1.1582">
        <ele>55.685</ele>
        <time>2020-07-19T10:33:45Z</time>
      </trkpt>
      <trkpt lat="47.37155" lon="-1.15831">
        <ele>55.656</ele>
        <time>2020-07-19T10:33:46Z</time>
      </trkpt>
      <trkpt lat="47.37154" lon="-1.15841">
        <ele>55.802</ele>
        <time>2020-07-19T10:33:47Z</time>
      </trkpt>
      <trkpt lat="47.37155" lon="-1.15849">
        <ele>55.766</ele>
        <time>2020-07-19T10:33:48Z</time>
      </trkpt>
      <trkpt lat="47.37155" lon="-1.15859">
        <ele>56.076</ele>
        <time>2020-07-19T10:33:49Z</time>
      </trkpt>
      <trkpt lat="47.37156" lon="-1.15869">
        <ele>55.549</ele>
        <time>2020-07-19T10:33:50Z</time>
      </trkpt>
      <trkpt lat="47.37156" lon="-1.15879">
        <ele>55.944</ele>
        <time>2020-07-19T10:33:51Z</time>
      </trkpt>
      <trkpt lat="47.37156" lon="-1.15889">
        <ele>57.154</ele>
        <time>2020-07-19T10:33:52Z</time>
      </trkpt>
      <trkpt lat="47.37157" lon="-1.15899">
        <ele>58.28</ele>
        <time>2020-07-19T10:33:53Z</time>
      </trkpt>
      <trkpt lat="47.37157" lon="-1.15909">
        <ele>58.328</ele>
        <time>2020-07-19T10:33:54Z</time>
      </trkpt>
      <trkpt lat="47.37158" lon="-1.1592">
        <ele>57.507</ele>
        <time>2020-07-19T10:33:55Z</time>
      </trkpt>
      <trkpt lat="47.37157" lon="-1.15932">
        <ele>58.335</ele>
        <time>2020-07-19T10:33:56Z</time>
      </trkpt>
      <trkpt lat="47.37156" lon="-1.15942">
        <ele>58.909</ele>
        <time>2020-07-19T10:33:57Z</time>
      </trkpt>
      <trkpt lat="47.37156" lon="-1.15952">
        <ele>59.183</ele>
        <time>2020-07-19T10:33:58Z</time>
      </trkpt>
      <trkpt lat="47.37155" lon="-1.15962">
        <ele>58.994</ele>
        <time>2020-07-19T10:33:59Z</time>
      </trkpt>
      <trkpt lat="47.37156" lon="-1.15971">
        <ele>58.884</ele>
        <time>2020-07-19T10:34:00Z</time>
      </trkpt>
      <trkpt lat="47.37156" lon="-1.15981">
        <ele>57.963</ele>
        <time>2020-07-19T10:34:01Z</time>
      </trkpt>
      <trkpt lat="47.37155" lon="-1.15989">
        <ele>57.862</ele>
        <time>2020-07-19T10:34:02Z</time>
      </trkpt>
      <trkpt lat="47.3716" lon="-1.15994">
        <ele>53.534</ele>
        <time>2020-07-19T10:34:03Z</time>
      </trkpt>
      <trkpt lat="47.37158" lon="-1.16006">
        <ele>53.28</ele>
        <time>2020-07-19T10:34:04Z</time>
      </trkpt>
      <trkpt lat="47.3716" lon="-1.16016">
        <ele>54.076</ele>
        <time>2020-07-19T10:34:05Z</time>
      </trkpt>
      <trkpt lat="47.37158" lon="-1.16026">
        <ele>56.241</ele>
        <time>2020-07-19T10:34:06Z</time>
      </trkpt>
      <trkpt lat="47.37159" lon="-1.16036">
        <ele>56.852</ele>
        <time>2020-07-19T10:34:07Z</time>
      </trkpt>
      <trkpt lat="47.37158" lon="-1.16046">
        <ele>56.32</ele>
        <time>2020-07-19T10:34:08Z</time>
      </trkpt>
      <trkpt lat="47.37156" lon="-1.16058">
        <ele>55.061</ele>
        <time>2020-07-19T10:34:09Z</time>
      </trkpt>
      <trkpt lat="47.37155" lon="-1.16069">
        <ele>56.021</ele>
        <time>2020-07-19T10:34:10Z</time>
      </trkpt>
      <trkpt lat="47.37154" lon="-1.1608">
        <ele>55.986</ele>
        <time>2020-07-19T10:34:11Z</time>
      </trkpt>
      <trkpt lat="47.37153" lon="-1.16093">
        <ele>56.237</ele>
        <time>2020-07-19T10:34:12Z</time>
      </trkpt>
      <trkpt lat="47.37151" lon="-1.16104">
        <ele>56.356</ele>
        <time>2020-07-19T10:34:13Z</time>
      </trkpt>
      <trkpt lat="47.3715" lon="-1.16116">
        <ele>57.852</ele>
        <time>2020-07-19T10:34:14Z</time>
      </trkpt>
      <trkpt lat="47.37149" lon="-1.16128">
        <ele>58.371</ele>
        <time>2020-07-19T10:34:15Z</time>
      </trkpt>
      <trkpt lat="47.37149" lon="-1.1614">
        <ele>58.755</ele>
        <time>2020-07-19T10:34:16Z</time>
      </trkpt>
      <trkpt lat="47.37148" lon="-1.16152">
        <ele>58.907</ele>
        <time>2020-07-19T10:34:17Z</time>
      </trkpt>
      <trkpt lat="47.37147" lon="-1.16163">
        <ele>58.939</ele>
        <time>2020-07-19T10:34:18Z</time>
      </trkpt>
      <trkpt lat="47.37147" lon="-1.16174">
        <ele>59.501</ele>
        <time>2020-07-19T10:34:19Z</time>
      </trkpt>
      <trkpt lat="47.37147" lon="-1.16184">
        <ele>58.564</ele>
        <time>2020-07-19T10:34:20Z</time>
      </trkpt>
      <trkpt lat="47.37145" lon="-1.16196">
        <ele>57.265</ele>
        <time>2020-07-19T10:34:21Z</time>
      </trkpt>
      <trkpt lat="47.37145" lon="-1.16206">
        <ele>57.198</ele>
        <time>2020-07-19T10:34:22Z</time>
      </trkpt>
      <trkpt lat="47.37143" lon="-1.1622">
        <ele>57.027</ele>
        <time>2020-07-19T10:34:23Z</time>
      </trkpt>
      <trkpt lat="47.37142" lon="-1.1623">
        <ele>56.892</ele>
        <time>2020-07-19T10:34:24Z</time>
      </trkpt>
      <trkpt lat="47.37143" lon="-1.1624">
        <ele>55.184</ele>
        <time>2020-07-19T10:34:25Z</time>
      </trkpt>
      <trkpt lat="47.37143" lon="-1.1625">
        <ele>55.961</ele>
        <time>2020-07-19T10:34:26Z</time>
      </trkpt>
      <trkpt lat="47.37144" lon="-1.1626">
        <ele>56.552</ele>
        <time>2020-07-19T10:34:27Z</time>
      </trkpt>
      <trkpt lat="47.37143" lon="-1.16272">
        <ele>55.721</ele>
        <time>2020-07-19T10:34:28Z</time>
      </trkpt>
      <trkpt lat="47.37143" lon="-1.16283">
        <ele>55.718</ele>
        <time>2020-07-19T10:34:29Z</time>
      </trkpt>
      <trkpt lat="47.37143" lon="-1.16295">
        <ele>55.885</ele>
        <time>2020-07-19T10:34:30Z</time>
      </trkpt>
      <trkpt lat="47.37141" lon="-1.16306">
        <ele>55.996</ele>
        <time>2020-07-19T10:34:31Z</time>
      </trkpt>
      <trkpt lat="47.37139" lon="-1.16318">
        <ele>56.117</ele>
        <time>2020-07-19T10:34:32Z</time>
      </trkpt>
      <trkpt lat="47.37138" lon="-1.1633">
        <ele>55.778</ele>
        <time>2020-07-19T10:34:33Z</time>
      </trkpt>
      <trkpt lat="47.37137" lon="-1.16341">
        <ele>56.017</ele>
        <time>2020-07-19T10:34:34Z</time>
      </trkpt>
      <trkpt lat="47.37136" lon="-1.16352">
        <ele>55.932</ele>
        <time>2020-07-19T10:34:35Z</time>
      </trkpt>
      <trkpt lat="47.37136" lon="-1.16364">
        <ele>55.907</ele>
        <time>2020-07-19T10:34:36Z</time>
      </trkpt>
      <trkpt lat="47.37136" lon="-1.16377">
        <ele>55.4</ele>
        <time>2020-07-19T10:34:37Z</time>
      </trkpt>
      <trkpt lat="47.37136" lon="-1.16388">
        <ele>55.228</ele>
        <time>2020-07-19T10:34:38Z</time>
      </trkpt>
      <trkpt lat="47.37135" lon="-1.16399">
        <ele>54.462</ele>
        <time>2020-07-19T10:34:39Z</time>
      </trkpt>
      <trkpt lat="47.37133" lon="-1.16411">
        <ele>54.285</ele>
        <time>2020-07-19T10:34:40Z</time>
      </trkpt>
      <trkpt lat="47.37132" lon="-1.16423">
        <ele>55.165</ele>
        <time>2020-07-19T10:34:41Z</time>
      </trkpt>
      <trkpt lat="47.37132" lon="-1.16435">
        <ele>55.09</ele>
        <time>2020-07-19T10:34:42Z</time>
      </trkpt>
      <trkpt lat="47.37132" lon="-1.16445">
        <ele>55.2</ele>
        <time>2020-07-19T10:34:43Z</time>
      </trkpt>
      <trkpt lat="47.37131" lon="-1.16456">
        <ele>55.381</ele>
        <time>2020-07-19T10:34:44Z</time>
      </trkpt>
      <trkpt lat="47.37131" lon="-1.16466">
        <ele>56.393</ele>
        <time>2020-07-19T10:34:45Z</time>
      </trkpt>
      <trkpt lat="47.37131" lon="-1.16477">
        <ele>57.057</ele>
        <time>2020-07-19T10:34:46Z</time>
      </trkpt>
      <trkpt lat="47.37129" lon="-1.16489">
        <ele>58.409</ele>
        <time>2020-07-19T10:34:47Z</time>
      </trkpt>
      <trkpt lat="47.37129" lon="-1.16501">
        <ele>58.812</ele>
        <time>2020-07-19T10:34:48Z</time>
      </trkpt>
      <trkpt lat="47.37129" lon="-1.16513">
        <ele>59.417</ele>
        <time>2020-07-19T10:34:49Z</time>
      </trkpt>
      <trkpt lat="47.37127" lon="-1.16526">
        <ele>59.188</ele>
        <time>2020-07-19T10:34:50Z</time>
      </trkpt>
      <trkpt lat="47.37126" lon="-1.16538">
        <ele>59.648</ele>
        <time>2020-07-19T10:34:51Z</time>
      </trkpt>
      <trkpt lat="47.37126" lon="-1.1655">
        <ele>58.59</ele>
        <time>2020-07-19T10:34:52Z</time>
      </trkpt>
      <trkpt lat="47.37125" lon="-1.1656">
        <ele>58.223</ele>
        <time>2020-07-19T10:34:53Z</time>
      </trkpt>
      <trkpt lat="47.37124" lon="-1.16572">
        <ele>59.078</ele>
        <time>2020-07-19T10:34:54Z</time>
      </trkpt>
      <trkpt lat="47.37123" lon="-1.16585">
        <ele>59.398</ele>
        <time>2020-07-19T10:34:55Z</time>
      </trkpt>
      <trkpt lat="47.37123" lon="-1.16595">
        <ele>59.181</ele>
        <time>2020-07-19T10:34:56Z</time>
      </trkpt>
      <trkpt lat="47.37123" lon="-1.16606">
        <ele>59.455</ele>
        <time>2020-07-19T10:34:57Z</time>
      </trkpt>
      <trkpt lat="47.37121" lon="-1.16618">
        <ele>58.983</ele>
        <time>2020-07-19T10:34:58Z</time>
      </trkpt>
      <trkpt lat="47.37123" lon="-1.16626">
        <ele>56.348</ele>
        <time>2020-07-19T10:34:59Z</time>
      </trkpt>
      <trkpt lat="47.37122" lon="-1.16636">
        <ele>55.289</ele>
        <time>2020-07-19T10:35:00Z</time>
      </trkpt>
      <trkpt lat="47.37119" lon="-1.16648">
        <ele>55.273</ele>
        <time>2020-07-19T10:35:01Z</time>
      </trkpt>
      <trkpt lat="47.37116" lon="-1.16659">
        <ele>56.925</ele>
        <time>2020-07-19T10:35:02Z</time>
      </trkpt>
      <trkpt lat="47.37113" lon="-1.16668">
        <ele>57.499</ele>
        <time>2020-07-19T10:35:03Z</time>
      </trkpt>
      <trkpt lat="47.37109" lon="-1.16678">
        <ele>58.172</ele>
        <time>2020-07-19T10:35:04Z</time>
      </trkpt>
      <trkpt lat="47.37106" lon="-1.16687">
        <ele>58.828</ele>
        <time>2020-07-19T10:35:05Z</time>
      </trkpt>
      <trkpt lat="47.37102" lon="-1.16695">
        <ele>59.117</ele>
        <time>2020-07-19T10:35:06Z</time>
      </trkpt>
      <trkpt lat="47.37099" lon="-1.16705">
        <ele>58.369</ele>
        <time>2020-07-19T10:35:07Z</time>
      </trkpt>
      <trkpt lat="47.37095" lon="-1.16711">
        <ele>58.936</ele>
        <time>2020-07-19T10:35:08Z</time>
      </trkpt>
      <trkpt lat="47.37093" lon="-1.16718">
        <ele>58.52</ele>
        <time>2020-07-19T10:35:09Z</time>
      </trkpt>
      <trkpt lat="47.37089" lon="-1.16725">
        <ele>58.669</ele>
        <time>2020-07-19T10:35:10Z</time>
      </trkpt>
      <trkpt lat="47.37084" lon="-1.16731">
        <ele>58.526</ele>
        <time>2020-07-19T10:35:11Z</time>
      </trkpt>
      <trkpt lat="47.37081" lon="-1.16737">
        <ele>59.242</ele>
        <time>2020-07-19T10:35:12Z</time>
      </trkpt>
      <trkpt lat="47.37077" lon="-1.16741">
        <ele>58.841</ele>
        <time>2020-07-19T10:35:13Z</time>
      </trkpt>
      <trkpt lat="47.37072" lon="-1.16748">
        <ele>59.462</ele>
        <time>2020-07-19T10:35:14Z</time>
      </trkpt>
      <trkpt lat="47.37069" lon="-1.16755">
        <ele>58.486</ele>
        <time>2020-07-19T10:35:15Z</time>
      </trkpt>
      <trkpt lat="47.37065" lon="-1.16763">
        <ele>57.859</ele>
        <time>2020-07-19T10:35:16Z</time>
      </trkpt>
      <trkpt lat="47.37062" lon="-1.1677">
        <ele>57.216</ele>
        <time>2020-07-19T10:35:17Z</time>
      </trkpt>
      <trkpt lat="47.37059" lon="-1.16776">
        <ele>57.356</ele>
        <time>2020-07-19T10:35:18Z</time>
      </trkpt>
      <trkpt lat="47.37056" lon="-1.16783">
        <ele>57.526</ele>
        <time>2020-07-19T10:35:19Z</time>
      </trkpt>
      <trkpt lat="47.37053" lon="-1.1679">
        <ele>57.366</ele>
        <time>2020-07-19T10:35:20Z</time>
      </trkpt>
      <trkpt lat="47.37051" lon="-1.16796">
        <ele>56.901</ele>
        <time>2020-07-19T10:35:21Z</time>
      </trkpt>
      <trkpt lat="47.37049" lon="-1.16803">
        <ele>56.796</ele>
        <time>2020-07-19T10:35:22Z</time>
      </trkpt>
      <trkpt lat="47.37046" lon="-1.1681">
        <ele>56.065</ele>
        <time>2020-07-19T10:35:23Z</time>
      </trkpt>
      <trkpt lat="47.37043" lon="-1.16817">
        <ele>60.559</ele>
        <time>2020-07-19T10:35:24Z</time>
      </trkpt>
      <trkpt lat="47.37042" lon="-1.16822">
        <ele>59.851</ele>
        <time>2020-07-19T10:35:25Z</time>
      </trkpt>
      <trkpt lat="47.3704" lon="-1.16828">
        <ele>58.644</ele>
        <time>2020-07-19T10:35:26Z</time>
      </trkpt>
      <trkpt lat="47.37036" lon="-1.16835">
        <ele>57.768</ele>
        <time>2020-07-19T10:35:27Z</time>
      </trkpt>
      <trkpt lat="47.37033" lon="-1.16842">
        <ele>57.602</ele>
        <time>2020-07-19T10:35:28Z</time>
      </trkpt>
      <trkpt lat="47.3703" lon="-1.16848">
        <ele>56.609</ele>
        <time>2020-07-19T10:35:29Z</time>
      </trkpt>
      <trkpt lat="47.37028" lon="-1.16854">
        <ele>56.736</ele>
        <time>2020-07-19T10:35:30Z</time>
      </trkpt>
      <trkpt lat="47.37026" lon="-1.16862">
        <ele>57.03</ele>
        <time>2020-07-19T10:35:31Z</time>
      </trkpt>
      <trkpt lat="47.37024" lon="-1.16868">
        <ele>57.255</ele>
        <time>2020-07-19T10:35:32Z</time>
      </trkpt>
      <trkpt lat="47.37023" lon="-1.16876">
        <ele>57.257</ele>
        <time>2020-07-19T10:35:33Z</time>
      </trkpt>
      <trkpt lat="47.37023" lon="-1.16883">
        <ele>56.417</ele>
        <time>2020-07-19T10:35:34Z</time>
      </trkpt>
      <trkpt lat="47.37024" lon="-1.16891">
        <ele>55.596</ele>
        <time>2020-07-19T10:35:35Z</time>
      </trkpt>
      <trkpt lat="47.37025" lon="-1.16898">
        <ele>55.923</ele>
        <time>2020-07-19T10:35:36Z</time>
      </trkpt>
      <trkpt lat="47.37025" lon="-1.16903">
        <ele>57.461</ele>
        <time>2020-07-19T10:35:37Z</time>
      </trkpt>
      <trkpt lat="47.37025" lon="-1.1691">
        <ele>57.751</ele>
        <time>2020-07-19T10:35:38Z</time>
      </trkpt>
      <trkpt lat="47.37026" lon="-1.16915">
        <ele>53.973</ele>
        <time>2020-07-19T10:35:39Z</time>
      </trkpt>
      <trkpt lat="47.37025" lon="-1.16922">
        <ele>53.97</ele>
        <time>2020-07-19T10:35:40Z</time>
      </trkpt>
      <trkpt lat="47.37024" lon="-1.1693">
        <ele>53.288</ele>
        <time>2020-07-19T10:35:41Z</time>
      </trkpt>
      <trkpt lat="47.37021" lon="-1.16937">
        <ele>53.252</ele>
        <time>2020-07-19T10:35:42Z</time>
      </trkpt>
      <trkpt lat="47.37018" lon="-1.16944">
        <ele>53.307</ele>
        <time>2020-07-19T10:35:43Z</time>
      </trkpt>
      <trkpt lat="47.37014" lon="-1.16951">
        <ele>53.106</ele>
        <time>2020-07-19T10:35:44Z</time>
      </trkpt>
      <trkpt lat="47.37009" lon="-1.16958">
        <ele>54.781</ele>
        <time>2020-07-19T10:35:45Z</time>
      </trkpt>
      <trkpt lat="47.37006" lon="-1.16963">
        <ele>53.017</ele>
        <time>2020-07-19T10:35:46Z</time>
      </trkpt>
      <trkpt lat="47.37002" lon="-1.16969">
        <ele>53.534</ele>
        <time>2020-07-19T10:35:47Z</time>
      </trkpt>
      <trkpt lat="47.36997" lon="-1.16975">
        <ele>52.469</ele>
        <time>2020-07-19T10:35:48Z</time>
      </trkpt>
      <trkpt lat="47.36992" lon="-1.16981">
        <ele>52.575</ele>
        <time>2020-07-19T10:35:49Z</time>
      </trkpt>
      <trkpt lat="47.36987" lon="-1.16987">
        <ele>54.477</ele>
        <time>2020-07-19T10:35:50Z</time>
      </trkpt>
      <trkpt lat="47.36982" lon="-1.16992">
        <ele>54.542</ele>
        <time>2020-07-19T10:35:51Z</time>
      </trkpt>
      <trkpt lat="47.36979" lon="-1.16998">
        <ele>53.318</ele>
        <time>2020-07-19T10:35:52Z</time>
      </trkpt>
      <trkpt lat="47.36974" lon="-1.17004">
        <ele>53.115</ele>
        <time>2020-07-19T10:35:53Z</time>
      </trkpt>
      <trkpt lat="47.36969" lon="-1.17009">
        <ele>53.378</ele>
        <time>2020-07-19T10:35:54Z</time>
      </trkpt>
      <trkpt lat="47.36964" lon="-1.17014">
        <ele>53.758</ele>
        <time>2020-07-19T10:35:55Z</time>
      </trkpt>
      <trkpt lat="47.3696" lon="-1.1702">
        <ele>53.557</ele>
        <time>2020-07-19T10:35:56Z</time>
      </trkpt>
      <trkpt lat="47.36956" lon="-1.17026">
        <ele>54.095</ele>
        <time>2020-07-19T10:35:57Z</time>
      </trkpt>
      <trkpt lat="47.36951" lon="-1.17033">
        <ele>53.097</ele>
        <time>2020-07-19T10:35:58Z</time>
      </trkpt>
      <trkpt lat="47.36947" lon="-1.17043">
        <ele>51.384</ele>
        <time>2020-07-19T10:35:59Z</time>
      </trkpt>
      <trkpt lat="47.36943" lon="-1.17047">
        <ele>50.693</ele>
        <time>2020-07-19T10:36:00Z</time>
      </trkpt>
      <trkpt lat="47.36938" lon="-1.17053">
        <ele>51.632</ele>
        <time>2020-07-19T10:36:01Z</time>
      </trkpt>
      <trkpt lat="47.36934" lon="-1.17059">
        <ele>51.812</ele>
        <time>2020-07-19T10:36:02Z</time>
      </trkpt>
      <trkpt lat="47.36929" lon="-1.17065">
        <ele>51.915</ele>
        <time>2020-07-19T10:36:03Z</time>
      </trkpt>
      <trkpt lat="47.36924" lon="-1.1707">
        <ele>51.765</ele>
        <time>2020-07-19T10:36:04Z</time>
      </trkpt>
      <trkpt lat="47.3692" lon="-1.17075">
        <ele>52.495</ele>
        <time>2020-07-19T10:36:05Z</time>
      </trkpt>
      <trkpt lat="47.36916" lon="-1.17081">
        <ele>52.257</ele>
        <time>2020-07-19T10:36:06Z</time>
      </trkpt>
      <trkpt lat="47.36912" lon="-1.17087">
        <ele>52.564</ele>
        <time>2020-07-19T10:36:07Z</time>
      </trkpt>
      <trkpt lat="47.36908" lon="-1.17093">
        <ele>52.906</ele>
        <time>2020-07-19T10:36:08Z</time>
      </trkpt>
      <trkpt lat="47.36904" lon="-1.17099">
        <ele>52.214</ele>
        <time>2020-07-19T10:36:09Z</time>
      </trkpt>
      <trkpt lat="47.36899" lon="-1.17104">
        <ele>52.029</ele>
        <time>2020-07-19T10:36:10Z</time>
      </trkpt>
      <trkpt lat="47.36895" lon="-1.17111">
        <ele>51.788</ele>
        <time>2020-07-19T10:36:11Z</time>
      </trkpt>
      <trkpt lat="47.36891" lon="-1.17117">
        <ele>52.086</ele>
        <time>2020-07-19T10:36:12Z</time>
      </trkpt>
      <trkpt lat="47.36885" lon="-1.17121">
        <ele>52.591</ele>
        <time>2020-07-19T10:36:13Z</time>
      </trkpt>
      <trkpt lat="47.3688" lon="-1.17122">
        <ele>53.124</ele>
        <time>2020-07-19T10:36:14Z</time>
      </trkpt>
      <trkpt lat="47.36874" lon="-1.17121">
        <ele>52.508</ele>
        <time>2020-07-19T10:36:15Z</time>
      </trkpt>
      <trkpt lat="47.36868" lon="-1.17123">
        <ele>52.881</ele>
        <time>2020-07-19T10:36:16Z</time>
      </trkpt>
      <trkpt lat="47.36863" lon="-1.17126">
        <ele>53.689</ele>
        <time>2020-07-19T10:36:17Z</time>
      </trkpt>
      <trkpt lat="47.36858" lon="-1.17131">
        <ele>54.454</ele>
        <time>2020-07-19T10:36:18Z</time>
      </trkpt>
      <trkpt lat="47.36853" lon="-1.17136">
        <ele>55.418</ele>
        <time>2020-07-19T10:36:19Z</time>
      </trkpt>
      <trkpt lat="47.36848" lon="-1.17141">
        <ele>56.612</ele>
        <time>2020-07-19T10:36:20Z</time>
      </trkpt>
      <trkpt lat="47.36843" lon="-1.17147">
        <ele>56.637</ele>
        <time>2020-07-19T10:36:21Z</time>
      </trkpt>
      <trkpt lat="47.36838" lon="-1.17152">
        <ele>57.488</ele>
        <time>2020-07-19T10:36:22Z</time>
      </trkpt>
      <trkpt lat="47.36834" lon="-1.17157">
        <ele>58.246</ele>
        <time>2020-07-19T10:36:23Z</time>
      </trkpt>
      <trkpt lat="47.3683" lon="-1.17162">
        <ele>58.106</ele>
        <time>2020-07-19T10:36:24Z</time>
      </trkpt>
      <trkpt lat="47.36825" lon="-1.17166">
        <ele>57.578</ele>
        <time>2020-07-19T10:36:25Z</time>
      </trkpt>
      <trkpt lat="47.3682" lon="-1.17171">
        <ele>57.409</ele>
        <time>2020-07-19T10:36:26Z</time>
      </trkpt>
      <trkpt lat="47.36814" lon="-1.17177">
        <ele>56.985</ele>
        <time>2020-07-19T10:36:27Z</time>
      </trkpt>
      <trkpt lat="47.36807" lon="-1.17182">
        <ele>56.49</ele>
        <time>2020-07-19T10:36:28Z</time>
      </trkpt>
      <trkpt lat="47.368" lon="-1.17187">
        <ele>55.296</ele>
        <time>2020-07-19T10:36:29Z</time>
      </trkpt>
      <trkpt lat="47.36793" lon="-1.17192">
        <ele>55.096</ele>
        <time>2020-07-19T10:36:30Z</time>
      </trkpt>
      <trkpt lat="47.36785" lon="-1.17201">
        <ele>54.393</ele>
        <time>2020-07-19T10:36:31Z</time>
      </trkpt>
      <trkpt lat="47.36778" lon="-1.17208">
        <ele>54.119</ele>
        <time>2020-07-19T10:36:32Z</time>
      </trkpt>
      <trkpt lat="47.36771" lon="-1.17216">
        <ele>54.495</ele>
        <time>2020-07-19T10:36:33Z</time>
      </trkpt>
      <trkpt lat="47.36764" lon="-1.17223">
        <ele>54.551</ele>
        <time>2020-07-19T10:36:34Z</time>
      </trkpt>
      <trkpt lat="47.36758" lon="-1.17229">
        <ele>55.38</ele>
        <time>2020-07-19T10:36:35Z</time>
      </trkpt>
      <trkpt lat="47.36752" lon="-1.17236">
        <ele>55.459</ele>
        <time>2020-07-19T10:36:36Z</time>
      </trkpt>
      <trkpt lat="47.36746" lon="-1.17242">
        <ele>55.505</ele>
        <time>2020-07-19T10:36:37Z</time>
      </trkpt>
      <trkpt lat="47.3674" lon="-1.17249">
        <ele>55.672</ele>
        <time>2020-07-19T10:36:38Z</time>
      </trkpt>
      <trkpt lat="47.36734" lon="-1.17255">
        <ele>55.422</ele>
        <time>2020-07-19T10:36:39Z</time>
      </trkpt>
      <trkpt lat="47.36729" lon="-1.17262">
        <ele>55.546</ele>
        <time>2020-07-19T10:36:40Z</time>
      </trkpt>
      <trkpt lat="47.36724" lon="-1.17268">
        <ele>56.645</ele>
        <time>2020-07-19T10:36:41Z</time>
      </trkpt>
      <trkpt lat="47.36719" lon="-1.17274">
        <ele>56.771</ele>
        <time>2020-07-19T10:36:42Z</time>
      </trkpt>
      <trkpt lat="47.36715" lon="-1.1728">
        <ele>55.751</ele>
        <time>2020-07-19T10:36:43Z</time>
      </trkpt>
      <trkpt lat="47.36711" lon="-1.17287">
        <ele>56.279</ele>
        <time>2020-07-19T10:36:44Z</time>
      </trkpt>
      <trkpt lat="47.36707" lon="-1.17293">
        <ele>55.342</ele>
        <time>2020-07-19T10:36:45Z</time>
      </trkpt>
      <trkpt lat="47.36703" lon="-1.17299">
        <ele>55.633</ele>
        <time>2020-07-19T10:36:46Z</time>
      </trkpt>
      <trkpt lat="47.36699" lon="-1.17305">
        <ele>55.581</ele>
        <time>2020-07-19T10:36:47Z</time>
      </trkpt>
      <trkpt lat="47.36696" lon="-1.17311">
        <ele>55.718</ele>
        <time>2020-07-19T10:36:48Z</time>
      </trkpt>
      <trkpt lat="47.36692" lon="-1.17317">
        <ele>55.476</ele>
        <time>2020-07-19T10:36:49Z</time>
      </trkpt>
      <trkpt lat="47.36688" lon="-1.17322">
        <ele>54.426</ele>
        <time>2020-07-19T10:36:50Z</time>
      </trkpt>
      <trkpt lat="47.36684" lon="-1.17329">
        <ele>54.826</ele>
        <time>2020-07-19T10:36:51Z</time>
      </trkpt>
      <trkpt lat="47.36682" lon="-1.17336">
        <ele>55.748</ele>
        <time>2020-07-19T10:36:52Z</time>
      </trkpt>
      <trkpt lat="47.36683" lon="-1.17342">
        <ele>57.244</ele>
        <time>2020-07-19T10:36:53Z</time>
      </trkpt>
      <trkpt lat="47.36685" lon="-1.17346">
        <ele>57.164</ele>
        <time>2020-07-19T10:36:54Z</time>
      </trkpt>
      <trkpt lat="47.36687" lon="-1.17351">
        <ele>57.771</ele>
        <time>2020-07-19T10:36:55Z</time>
      </trkpt>
      <trkpt lat="47.36689" lon="-1.17355">
        <ele>58.452</ele>
        <time>2020-07-19T10:36:56Z</time>
      </trkpt>
      <trkpt lat="47.36691" lon="-1.1736">
        <ele>59.384</ele>
        <time>2020-07-19T10:36:57Z</time>
      </trkpt>
      <trkpt lat="47.36693" lon="-1.17364">
        <ele>59.946</ele>
        <time>2020-07-19T10:36:58Z</time>
      </trkpt>
      <trkpt lat="47.36694" lon="-1.17369">
        <ele>59.922</ele>
        <time>2020-07-19T10:36:59Z</time>
      </trkpt>
      <trkpt lat="47.36693" lon="-1.17373">
        <ele>60.139</ele>
        <time>2020-07-19T10:37:00Z</time>
      </trkpt>
      <trkpt lat="47.3669" lon="-1.17376">
        <ele>60.918</ele>
        <time>2020-07-19T10:37:01Z</time>
      </trkpt>
      <trkpt lat="47.36687" lon="-1.17379">
        <ele>61.121</ele>
        <time>2020-07-19T10:37:02Z</time>
      </trkpt>
      <trkpt lat="47.36684" lon="-1.17382">
        <ele>61.249</ele>
        <time>2020-07-19T10:37:03Z</time>
      </trkpt>
      <trkpt lat="47.36681" lon="-1.17385">
        <ele>61.49</ele>
        <time>2020-07-19T10:37:04Z</time>
      </trkpt>
      <trkpt lat="47.36677" lon="-1.17388">
        <ele>60.284</ele>
        <time>2020-07-19T10:37:05Z</time>
      </trkpt>
      <trkpt lat="47.36674" lon="-1.17391">
        <ele>59.956</ele>
        <time>2020-07-19T10:37:06Z</time>
      </trkpt>
      <trkpt lat="47.3667" lon="-1.17393">
        <ele>59.867</ele>
        <time>2020-07-19T10:37:07Z</time>
      </trkpt>
      <trkpt lat="47.36666" lon="-1.17397">
        <ele>60.137</ele>
        <time>2020-07-19T10:37:08Z</time>
      </trkpt>
      <trkpt lat="47.36662" lon="-1.174">
        <ele>59.927</ele>
        <time>2020-07-19T10:37:09Z</time>
      </trkpt>
      <trkpt lat="47.36658" lon="-1.17403">
        <ele>60.191</ele>
        <time>2020-07-19T10:37:10Z</time>
      </trkpt>
      <trkpt lat="47.36654" lon="-1.17405">
        <ele>60.754</ele>
        <time>2020-07-19T10:37:11Z</time>
      </trkpt>
      <trkpt lat="47.3665" lon="-1.17407">
        <ele>60.694</ele>
        <time>2020-07-19T10:37:12Z</time>
      </trkpt>
      <trkpt lat="47.36647" lon="-1.17409">
        <ele>58.925</ele>
        <time>2020-07-19T10:37:13Z</time>
      </trkpt>
      <trkpt lat="47.36644" lon="-1.17412">
        <ele>59.155</ele>
        <time>2020-07-19T10:37:14Z</time>
      </trkpt>
      <trkpt lat="47.3664" lon="-1.17416">
        <ele>59.701</ele>
        <time>2020-07-19T10:37:15Z</time>
      </trkpt>
      <trkpt lat="47.36637" lon="-1.1742">
        <ele>58.991</ele>
        <time>2020-07-19T10:37:16Z</time>
      </trkpt>
      <trkpt lat="47.36632" lon="-1.17426">
        <ele>59.441</ele>
        <time>2020-07-19T10:37:17Z</time>
      </trkpt>
      <trkpt lat="47.36626" lon="-1.17429">
        <ele>58.818</ele>
        <time>2020-07-19T10:37:18Z</time>
      </trkpt>
      <trkpt lat="47.36622" lon="-1.17432">
        <ele>58.828</ele>
        <time>2020-07-19T10:37:19Z</time>
      </trkpt>
      <trkpt lat="47.36618" lon="-1.17434">
        <ele>57.899</ele>
        <time>2020-07-19T10:37:20Z</time>
      </trkpt>
      <trkpt lat="47.36612" lon="-1.17437">
        <ele>58.631</ele>
        <time>2020-07-19T10:37:21Z</time>
      </trkpt>
      <trkpt lat="47.36607" lon="-1.1744">
        <ele>58.682</ele>
        <time>2020-07-19T10:37:22Z</time>
      </trkpt>
      <trkpt lat="47.36602" lon="-1.17443">
        <ele>58.623</ele>
        <time>2020-07-19T10:37:23Z</time>
      </trkpt>
      <trkpt lat="47.36598" lon="-1.17447">
        <ele>58.489</ele>
        <time>2020-07-19T10:37:24Z</time>
      </trkpt>
      <trkpt lat="47.36592" lon="-1.17452">
        <ele>58.645</ele>
        <time>2020-07-19T10:37:25Z</time>
      </trkpt>
      <trkpt lat="47.36587" lon="-1.17456">
        <ele>58.664</ele>
        <time>2020-07-19T10:37:26Z</time>
      </trkpt>
      <trkpt lat="47.36582" lon="-1.17459">
        <ele>57.871</ele>
        <time>2020-07-19T10:37:27Z</time>
      </trkpt>
      <trkpt lat="47.36577" lon="-1.17463">
        <ele>58.367</ele>
        <time>2020-07-19T10:37:28Z</time>
      </trkpt>
      <trkpt lat="47.36572" lon="-1.17466">
        <ele>57.891</ele>
        <time>2020-07-19T10:37:29Z</time>
      </trkpt>
      <trkpt lat="47.36566" lon="-1.17471">
        <ele>57.77</ele>
        <time>2020-07-19T10:37:30Z</time>
      </trkpt>
      <trkpt lat="47.36561" lon="-1.17476">
        <ele>57.676</ele>
        <time>2020-07-19T10:37:31Z</time>
      </trkpt>
      <trkpt lat="47.36557" lon="-1.17482">
        <ele>58.95</ele>
        <time>2020-07-19T10:37:32Z</time>
      </trkpt>
      <trkpt lat="47.36552" lon="-1.17488">
        <ele>59.028</ele>
        <time>2020-07-19T10:37:33Z</time>
      </trkpt>
      <trkpt lat="47.36548" lon="-1.17493">
        <ele>58.519</ele>
        <time>2020-07-19T10:37:34Z</time>
      </trkpt>
      <trkpt lat="47.36544" lon="-1.17498">
        <ele>58.209</ele>
        <time>2020-07-19T10:37:35Z</time>
      </trkpt>
      <trkpt lat="47.3654" lon="-1.17504">
        <ele>58.553</ele>
        <time>2020-07-19T10:37:36Z</time>
      </trkpt>
      <trkpt lat="47.36536" lon="-1.17511">
        <ele>58.079</ele>
        <time>2020-07-19T10:37:37Z</time>
      </trkpt>
      <trkpt lat="47.36532" lon="-1.17517">
        <ele>57.493</ele>
        <time>2020-07-19T10:37:38Z</time>
      </trkpt>
      <trkpt lat="47.36528" lon="-1.17523">
        <ele>56.124</ele>
        <time>2020-07-19T10:37:39Z</time>
      </trkpt>
      <trkpt lat="47.36524" lon="-1.17529">
        <ele>56.399</ele>
        <time>2020-07-19T10:37:40Z</time>
      </trkpt>
      <trkpt lat="47.36519" lon="-1.17534">
        <ele>58.34</ele>
        <time>2020-07-19T10:37:41Z</time>
      </trkpt>
      <trkpt lat="47.36515" lon="-1.17539">
        <ele>57.952</ele>
        <time>2020-07-19T10:37:42Z</time>
      </trkpt>
      <trkpt lat="47.3651" lon="-1.17545">
        <ele>57.868</ele>
        <time>2020-07-19T10:37:43Z</time>
      </trkpt>
      <trkpt lat="47.36506" lon="-1.1755">
        <ele>57.928</ele>
        <time>2020-07-19T10:37:44Z</time>
      </trkpt>
      <trkpt lat="47.36501" lon="-1.17556">
        <ele>57.781</ele>
        <time>2020-07-19T10:37:45Z</time>
      </trkpt>
      <trkpt lat="47.36496" lon="-1.17562">
        <ele>56.699</ele>
        <time>2020-07-19T10:37:46Z</time>
      </trkpt>
      <trkpt lat="47.36491" lon="-1.17567">
        <ele>56.368</ele>
        <time>2020-07-19T10:37:47Z</time>
      </trkpt>
      <trkpt lat="47.36487" lon="-1.17573">
        <ele>56.436</ele>
        <time>2020-07-19T10:37:48Z</time>
      </trkpt>
      <trkpt lat="47.36482" lon="-1.17578">
        <ele>55.84</ele>
        <time>2020-07-19T10:37:49Z</time>
      </trkpt>
      <trkpt lat="47.36478" lon="-1.17583">
        <ele>54.969</ele>
        <time>2020-07-19T10:37:50Z</time>
      </trkpt>
      <trkpt lat="47.36473" lon="-1.17588">
        <ele>54.923</ele>
        <time>2020-07-19T10:37:51Z</time>
      </trkpt>
      <trkpt lat="47.36468" lon="-1.17594">
        <ele>54.092</ele>
        <time>2020-07-19T10:37:52Z</time>
      </trkpt>
      <trkpt lat="47.36464" lon="-1.176">
        <ele>54.378</ele>
        <time>2020-07-19T10:37:53Z</time>
      </trkpt>
      <trkpt lat="47.3646" lon="-1.17605">
        <ele>54.328</ele>
        <time>2020-07-19T10:37:54Z</time>
      </trkpt>
      <trkpt lat="47.36455" lon="-1.1761">
        <ele>53.679</ele>
        <time>2020-07-19T10:37:55Z</time>
      </trkpt>
      <trkpt lat="47.3645" lon="-1.17616">
        <ele>53.622</ele>
        <time>2020-07-19T10:37:56Z</time>
      </trkpt>
      <trkpt lat="47.36445" lon="-1.17621">
        <ele>52.574</ele>
        <time>2020-07-19T10:37:57Z</time>
      </trkpt>
      <trkpt lat="47.36441" lon="-1.17626">
        <ele>54.701</ele>
        <time>2020-07-19T10:37:58Z</time>
      </trkpt>
      <trkpt lat="47.36436" lon="-1.17632">
        <ele>54.052</ele>
        <time>2020-07-19T10:37:59Z</time>
      </trkpt>
      <trkpt lat="47.36431" lon="-1.17638">
        <ele>54.069</ele>
        <time>2020-07-19T10:38:00Z</time>
      </trkpt>
      <trkpt lat="47.36426" lon="-1.17644">
        <ele>53.618</ele>
        <time>2020-07-19T10:38:01Z</time>
      </trkpt>
      <trkpt lat="47.36422" lon="-1.17652">
        <ele>59.494</ele>
        <time>2020-07-19T10:38:02Z</time>
      </trkpt>
      <trkpt lat="47.36417" lon="-1.17657">
        <ele>57.232</ele>
        <time>2020-07-19T10:38:03Z</time>
      </trkpt>
      <trkpt lat="47.36413" lon="-1.17664">
        <ele>55.212</ele>
        <time>2020-07-19T10:38:04Z</time>
      </trkpt>
      <trkpt lat="47.36408" lon="-1.17669">
        <ele>54.462</ele>
        <time>2020-07-19T10:38:05Z</time>
      </trkpt>
      <trkpt lat="47.36403" lon="-1.17675">
        <ele>53.012</ele>
        <time>2020-07-19T10:38:06Z</time>
      </trkpt>
      <trkpt lat="47.36399" lon="-1.17681">
        <ele>52.307</ele>
        <time>2020-07-19T10:38:07Z</time>
      </trkpt>
      <trkpt lat="47.36396" lon="-1.17686">
        <ele>51.688</ele>
        <time>2020-07-19T10:38:08Z</time>
      </trkpt>
      <trkpt lat="47.36392" lon="-1.17691">
        <ele>51.455</ele>
        <time>2020-07-19T10:38:09Z</time>
      </trkpt>
      <trkpt lat="47.36387" lon="-1.17696">
        <ele>51.715</ele>
        <time>2020-07-19T10:38:10Z</time>
      </trkpt>
      <trkpt lat="47.36384" lon="-1.177">
        <ele>52.627</ele>
        <time>2020-07-19T10:38:11Z</time>
      </trkpt>
      <trkpt lat="47.36383" lon="-1.17707">
        <ele>53.2</ele>
        <time>2020-07-19T10:38:12Z</time>
      </trkpt>
      <trkpt lat="47.36381" lon="-1.17712">
        <ele>54.236</ele>
        <time>2020-07-19T10:38:13Z</time>
      </trkpt>
      <trkpt lat="47.3638" lon="-1.17717">
        <ele>55.503</ele>
        <time>2020-07-19T10:38:14Z</time>
      </trkpt>
      <trkpt lat="47.36379" lon="-1.17723">
        <ele>56.317</ele>
        <time>2020-07-19T10:38:15Z</time>
      </trkpt>
      <trkpt lat="47.36378" lon="-1.17728">
        <ele>56.786</ele>
        <time>2020-07-19T10:38:16Z</time>
      </trkpt>
      <trkpt lat="47.36377" lon="-1.17733">
        <ele>56.941</ele>
        <time>2020-07-19T10:38:17Z</time>
      </trkpt>
      <trkpt lat="47.36374" lon="-1.17738">
        <ele>57.812</ele>
        <time>2020-07-19T10:38:18Z</time>
      </trkpt>
      <trkpt lat="47.36372" lon="-1.17743">
        <ele>58.503</ele>
        <time>2020-07-19T10:38:19Z</time>
      </trkpt>
      <trkpt lat="47.3637" lon="-1.17746">
        <ele>56.597</ele>
        <time>2020-07-19T10:38:20Z</time>
      </trkpt>
      <trkpt lat="47.36367" lon="-1.17749">
        <ele>56.261</ele>
        <time>2020-07-19T10:38:21Z</time>
      </trkpt>
      <trkpt lat="47.36364" lon="-1.17752">
        <ele>58.104</ele>
        <time>2020-07-19T10:38:22Z</time>
      </trkpt>
      <trkpt lat="47.36361" lon="-1.17755">
        <ele>58.132</ele>
        <time>2020-07-19T10:38:23Z</time>
      </trkpt>
      <trkpt lat="47.36359" lon="-1.1776">
        <ele>57.774</ele>
        <time>2020-07-19T10:38:24Z</time>
      </trkpt>
      <trkpt lat="47.36357" lon="-1.17768">
        <ele>57.758</ele>
        <time>2020-07-19T10:38:25Z</time>
      </trkpt>
      <trkpt lat="47.36355" lon="-1.17774">
        <ele>57.882</ele>
        <time>2020-07-19T10:38:26Z</time>
      </trkpt>
      <trkpt lat="47.36353" lon="-1.1778">
        <ele>57.605</ele>
        <time>2020-07-19T10:38:27Z</time>
      </trkpt>
      <trkpt lat="47.36353" lon="-1.17786">
        <ele>57.597</ele>
        <time>2020-07-19T10:38:28Z</time>
      </trkpt>
      <trkpt lat="47.36351" lon="-1.17792">
        <ele>57.974</ele>
        <time>2020-07-19T10:38:29Z</time>
      </trkpt>
      <trkpt lat="47.3635" lon="-1.17797">
        <ele>57.846</ele>
        <time>2020-07-19T10:38:30Z</time>
      </trkpt>
      <trkpt lat="47.36348" lon="-1.17802">
        <ele>57.617</ele>
        <time>2020-07-19T10:38:31Z</time>
      </trkpt>
      <trkpt lat="47.36346" lon="-1.17807">
        <ele>56.917</ele>
        <time>2020-07-19T10:38:32Z</time>
      </trkpt>
      <trkpt lat="47.36345" lon="-1.17812">
        <ele>57.052</ele>
        <time>2020-07-19T10:38:33Z</time>
      </trkpt>
      <trkpt lat="47.36344" lon="-1.17817">
        <ele>57.084</ele>
        <time>2020-07-19T10:38:34Z</time>
      </trkpt>
      <trkpt lat="47.36342" lon="-1.17821">
        <ele>57.636</ele>
        <time>2020-07-19T10:38:35Z</time>
      </trkpt>
      <trkpt lat="47.36341" lon="-1.17825">
        <ele>58.17</ele>
        <time>2020-07-19T10:38:36Z</time>
      </trkpt>
      <trkpt lat="47.3634" lon="-1.17829">
        <ele>57.678</ele>
        <time>2020-07-19T10:38:37Z</time>
      </trkpt>
      <trkpt lat="47.36338" lon="-1.17833">
        <ele>58.125</ele>
        <time>2020-07-19T10:38:38Z</time>
      </trkpt>
      <trkpt lat="47.36337" lon="-1.17837">
        <ele>58.994</ele>
        <time>2020-07-19T10:38:39Z</time>
      </trkpt>
      <trkpt lat="47.36337" lon="-1.17841">
        <ele>58.425</ele>
        <time>2020-07-19T10:38:40Z</time>
      </trkpt>
      <trkpt lat="47.36336" lon="-1.17844">
        <ele>58.795</ele>
        <time>2020-07-19T10:38:41Z</time>
      </trkpt>
      <trkpt lat="47.36336" lon="-1.17848">
        <ele>59.249</ele>
        <time>2020-07-19T10:38:42Z</time>
      </trkpt>
      <trkpt lat="47.36335" lon="-1.17852">
        <ele>58.869</ele>
        <time>2020-07-19T10:38:43Z</time>
      </trkpt>
      <trkpt lat="47.36335" lon="-1.17855">
        <ele>58.799</ele>
        <time>2020-07-19T10:38:44Z</time>
      </trkpt>
      <trkpt lat="47.36334" lon="-1.17858">
        <ele>58.428</ele>
        <time>2020-07-19T10:38:45Z</time>
      </trkpt>
      <trkpt lat="47.36334" lon="-1.17862">
        <ele>58.784</ele>
        <time>2020-07-19T10:38:46Z</time>
      </trkpt>
      <trkpt lat="47.36333" lon="-1.17866">
        <ele>59.101</ele>
        <time>2020-07-19T10:38:47Z</time>
      </trkpt>
      <trkpt lat="47.36333" lon="-1.1787">
        <ele>58.576</ele>
        <time>2020-07-19T10:38:48Z</time>
      </trkpt>
      <trkpt lat="47.36332" lon="-1.17874">
        <ele>58.823</ele>
        <time>2020-07-19T10:38:49Z</time>
      </trkpt>
      <trkpt lat="47.36331" lon="-1.17878">
        <ele>58.643</ele>
        <time>2020-07-19T10:38:50Z</time>
      </trkpt>
      <trkpt lat="47.36331" lon="-1.17881">
        <ele>58.53</ele>
        <time>2020-07-19T10:38:51Z</time>
      </trkpt>
      <trkpt lat="47.3633" lon="-1.17884">
        <ele>59.137</ele>
        <time>2020-07-19T10:38:52Z</time>
      </trkpt>
      <trkpt lat="47.3633" lon="-1.17886">
        <ele>58.225</ele>
        <time>2020-07-19T10:38:53Z</time>
      </trkpt>
      <trkpt lat="47.36329" lon="-1.17888">
        <ele>58.305</ele>
        <time>2020-07-19T10:38:54Z</time>
      </trkpt>
      <trkpt lat="47.36328" lon="-1.17887">
        <ele>58.494</ele>
        <time>2020-07-19T10:38:55Z</time>
      </trkpt>
      <trkpt lat="47.36326" lon="-1.17885">
        <ele>58.703</ele>
        <time>2020-07-19T10:38:56Z</time>
      </trkpt>
      <trkpt lat="47.36326" lon="-1.17882">
        <ele>57.392</ele>
        <time>2020-07-19T10:38:57Z</time>
      </trkpt>
      <trkpt lat="47.36327" lon="-1.17878">
        <ele>58.381</ele>
        <time>2020-07-19T10:38:58Z</time>
      </trkpt>
      <trkpt lat="47.36329" lon="-1.17875">
        <ele>57.343</ele>
        <time>2020-07-19T10:38:59Z</time>
      </trkpt>
      <trkpt lat="47.3633" lon="-1.17871">
        <ele>57.156</ele>
        <time>2020-07-19T10:39:00Z</time>
      </trkpt>
      <trkpt lat="47.3633" lon="-1.17868">
        <ele>57.813</ele>
        <time>2020-07-19T10:39:01Z</time>
      </trkpt>
      <trkpt lat="47.36331" lon="-1.17866">
        <ele>58.484</ele>
        <time>2020-07-19T10:39:02Z</time>
      </trkpt>
      <trkpt lat="47.36332" lon="-1.17864">
        <ele>58.949</ele>
        <time>2020-07-19T10:39:03Z</time>
      </trkpt>
      <trkpt lat="47.36335" lon="-1.17863">
        <ele>58.65</ele>
        <time>2020-07-19T10:39:04Z</time>
      </trkpt>
      <trkpt lat="47.36338" lon="-1.17863">
        <ele>58.843</ele>
        <time>2020-07-19T10:39:05Z</time>
      </trkpt>
      <trkpt lat="47.3634" lon="-1.17863">
        <ele>56.853</ele>
        <time>2020-07-19T10:39:06Z</time>
      </trkpt>
      <trkpt lat="47.36341" lon="-1.17862">
        <ele>56.67</ele>
        <time>2020-07-19T10:39:07Z</time>
      </trkpt>
      <trkpt lat="47.36341" lon="-1.17862">
        <ele>56.527</ele>
        <time>2020-07-19T10:39:08Z</time>
      </trkpt>
      <trkpt lat="47.36341" lon="-1.17862">
        <ele>56.172</ele>
        <time>2020-07-19T10:39:09Z</time>
      </trkpt>
      <trkpt lat="47.36341" lon="-1.17863">
        <ele>56.049</ele>
        <time>2020-07-19T10:39:10Z</time>
      </trkpt>
      <trkpt lat="47.36342" lon="-1.17862">
        <ele>55.838</ele>
        <time>2020-07-19T10:39:11Z</time>
      </trkpt>
      <trkpt lat="47.36341" lon="-1.17862">
        <ele>55.161</ele>
        <time>2020-07-19T10:39:12Z</time>
      </trkpt>
      <trkpt lat="47.36341" lon="-1.17862">
        <ele>54.693</ele>
        <time>2020-07-19T10:39:13Z</time>
      </trkpt>
      <trkpt lat="47.36341" lon="-1.17862">
        <ele>54.398</ele>
        <time>2020-07-19T10:39:14Z</time>
      </trkpt>
      <trkpt lat="47.36341" lon="-1.17862">
        <ele>54.167</ele>
        <time>2020-07-19T10:39:15Z</time>
      </trkpt>
      <trkpt lat="47.36341" lon="-1.17862">
        <ele>53.791</ele>
        <time>2020-07-19T10:39:16Z</time>
      </trkpt>
      <trkpt lat="47.36341" lon="-1.17862">
        <ele>54.254</ele>
        <time>2020-07-19T10:39:17Z</time>
      </trkpt>
      <trkpt lat="47.36341" lon="-1.17862">
        <ele>54.861</ele>
        <time>2020-07-19T10:39:18Z</time>
      </trkpt>
      <trkpt lat="47.36341" lon="-1.17862">
        <ele>54.824</ele>
        <time>2020-07-19T10:39:19Z</time>
      </trkpt>
      <trkpt lat="47.36342" lon="-1.17862">
        <ele>54.562</ele>
        <time>2020-07-19T10:39:20Z</time>
      </trkpt>
      <trkpt lat="47.36342" lon="-1.17862">
        <ele>54.789</ele>
        <time>2020-07-19T10:39:21Z</time>
      </trkpt>
      <trkpt lat="47.36342" lon="-1.17862">
        <ele>54.984</ele>
        <time>2020-07-19T10:39:22Z</time>
      </trkpt>
      <trkpt lat="47.36342" lon="-1.17862">
        <ele>58.429</ele>
        <time>2020-07-19T10:39:23Z</time>
      </trkpt>
      <trkpt lat="47.36342" lon="-1.17862">
        <ele>57.667</ele>
        <time>2020-07-19T10:39:24Z</time>
      </trkpt>
      <trkpt lat="47.36342" lon="-1.17862">
        <ele>57.061</ele>
        <time>2020-07-19T10:39:25Z</time>
      </trkpt>
      <trkpt lat="47.36342" lon="-1.17862">
        <ele>56.643</ele>
        <time>2020-07-19T10:39:26Z</time>
      </trkpt>
      <trkpt lat="47.36342" lon="-1.17862">
        <ele>56.383</ele>
        <time>2020-07-19T10:39:27Z</time>
      </trkpt>
      <trkpt lat="47.36342" lon="-1.17862">
        <ele>56.042</ele>
        <time>2020-07-19T10:39:28Z</time>
      </trkpt>
      <trkpt lat="47.36342" lon="-1.17862">
        <ele>55.84</ele>
        <time>2020-07-19T10:39:29Z</time>
      </trkpt>
      <trkpt lat="47.36342" lon="-1.17862">
        <ele>55.727</ele>
        <time>2020-07-19T10:39:30Z</time>
      </trkpt>
      <trkpt lat="47.36342" lon="-1.17862">
        <ele>55.616</ele>
        <time>2020-07-19T10:39:31Z</time>
      </trkpt>
      <trkpt lat="47.36342" lon="-1.17862">
        <ele>55.503</ele>
        <time>2020-07-19T10:39:32Z</time>
      </trkpt>
      <trkpt lat="47.36342" lon="-1.17862">
        <ele>55.431</ele>
        <time>2020-07-19T10:39:33Z</time>
      </trkpt>
      <trkpt lat="47.36342" lon="-1.17862">
        <ele>55.401</ele>
        <time>2020-07-19T10:39:34Z</time>
      </trkpt>
      <trkpt lat="47.36342" lon="-1.17862">
        <ele>55.348</ele>
        <time>2020-07-19T10:39:35Z</time>
      </trkpt>
      <trkpt lat="47.36342" lon="-1.17862">
        <ele>55.307</ele>
        <time>2020-07-19T10:39:36Z</time>
      </trkpt>
      <trkpt lat="47.36342" lon="-1.17862">
        <ele>55.296</ele>
        <time>2020-07-19T10:39:37Z</time>
      </trkpt>
      <trkpt lat="47.36342" lon="-1.17862">
        <ele>55.242</ele>
        <time>2020-07-19T10:39:38Z</time>
      </trkpt>
      <trkpt lat="47.36342" lon="-1.17862">
        <ele>55.257</ele>
        <time>2020-07-19T10:39:39Z</time>
      </trkpt>
      <trkpt lat="47.36342" lon="-1.17862">
        <ele>55.275</ele>
        <time>2020-07-19T10:39:40Z</time>
      </trkpt>
      <trkpt lat="47.36342" lon="-1.17862">
        <ele>55.261</ele>
        <time>2020-07-19T10:39:41Z</time>
      </trkpt>
      <trkpt lat="47.36342" lon="-1.17862">
        <ele>55.236</ele>
        <time>2020-07-19T10:39:42Z</time>
      </trkpt>
      <trkpt lat="47.36342" lon="-1.17862">
        <ele>58.357</ele>
        <time>2020-07-19T10:39:43Z</time>
      </trkpt>
      <trkpt lat="47.36342" lon="-1.17862">
        <ele>57.67</ele>
        <time>2020-07-19T10:39:44Z</time>
      </trkpt>
      <trkpt lat="47.36342" lon="-1.17862">
        <ele>57.034</ele>
        <time>2020-07-19T10:39:45Z</time>
      </trkpt>
      <trkpt lat="47.36342" lon="-1.17862">
        <ele>56.483</ele>
        <time>2020-07-19T10:39:46Z</time>
      </trkpt>
      <trkpt lat="47.36342" lon="-1.17862">
        <ele>56.083</ele>
        <time>2020-07-19T10:39:47Z</time>
      </trkpt>
      <trkpt lat="47.36342" lon="-1.17862">
        <ele>55.902</ele>
        <time>2020-07-19T10:39:48Z</time>
      </trkpt>
      <trkpt lat="47.36342" lon="-1.17862">
        <ele>55.684</ele>
        <time>2020-07-19T10:39:49Z</time>
      </trkpt>
      <trkpt lat="47.36342" lon="-1.17862">
        <ele>55.501</ele>
        <time>2020-07-19T10:39:50Z</time>
      </trkpt>
      <trkpt lat="47.36342" lon="-1.17862">
        <ele>55.437</ele>
        <time>2020-07-19T10:39:51Z</time>
      </trkpt>
      <trkpt lat="47.36342" lon="-1.17862">
        <ele>55.386</ele>
        <time>2020-07-19T10:39:52Z</time>
      </trkpt>
      <trkpt lat="47.36342" lon="-1.17862">
        <ele>55.319</ele>
        <time>2020-07-19T10:39:53Z</time>
      </trkpt>
      <trkpt lat="47.36342" lon="-1.17862">
        <ele>55.298</ele>
        <time>2020-07-19T10:39:54Z</time>
      </trkpt>
      <trkpt lat="47.36342" lon="-1.17862">
        <ele>55.265</ele>
        <time>2020-07-19T10:39:55Z</time>
      </trkpt>
      <trkpt lat="47.36342" lon="-1.17862">
        <ele>55.253</ele>
        <time>2020-07-19T10:39:56Z</time>
      </trkpt>
      <trkpt lat="47.36342" lon="-1.17862">
        <ele>55.262</ele>
        <time>2020-07-19T10:39:57Z</time>
      </trkpt>
      <trkpt lat="47.36342" lon="-1.17862">
        <ele>55.264</ele>
        <time>2020-07-19T10:39:58Z</time>
      </trkpt>
      <trkpt lat="47.36342" lon="-1.17862">
        <ele>55.247</ele>
        <time>2020-07-19T10:39:59Z</time>
      </trkpt>
      <trkpt lat="47.36342" lon="-1.17862">
        <ele>55.226</ele>
        <time>2020-07-19T10:40:00Z</time>
      </trkpt>
      <trkpt lat="47.36342" lon="-1.17862">
        <ele>55.228</ele>
        <time>2020-07-19T10:40:01Z</time>
      </trkpt>
      <trkpt lat="47.36342" lon="-1.17862">
        <ele>55.235</ele>
        <time>2020-07-19T10:40:02Z</time>
      </trkpt>
      <trkpt lat="47.36342" lon="-1.17862">
        <ele>55.23</ele>
        <time>2020-07-19T10:40:03Z</time>
      </trkpt>
      <trkpt lat="47.36342" lon="-1.17862">
        <ele>58.593</ele>
        <time>2020-07-19T10:40:04Z</time>
      </trkpt>
      <trkpt lat="47.36342" lon="-1.17862">
        <ele>58.03</ele>
        <time>2020-07-19T10:40:05Z</time>
      </trkpt>
      <trkpt lat="47.36342" lon="-1.17862">
        <ele>57.283</ele>
        <time>2020-07-19T10:40:06Z</time>
      </trkpt>
      <trkpt lat="47.36342" lon="-1.17862">
        <ele>56.881</ele>
        <time>2020-07-19T10:40:07Z</time>
      </trkpt>
      <trkpt lat="47.36342" lon="-1.17862">
        <ele>56.688</ele>
        <time>2020-07-19T10:40:10Z</time>
      </trkpt>
      <trkpt lat="47.36342" lon="-1.17862">
        <ele>56.41</ele>
        <time>2020-07-19T10:40:10Z</time>
      </trkpt>
      <trkpt lat="47.36342" lon="-1.17862">
        <ele>56.251</ele>
        <time>2020-07-19T10:40:10Z</time>
      </trkpt>
      <trkpt lat="47.36342" lon="-1.17862">
        <ele>56.079</ele>
        <time>2020-07-19T10:40:11Z</time>
      </trkpt>
      <trkpt lat="47.36342" lon="-1.17862">
        <ele>55.895</ele>
        <time>2020-07-19T10:40:12Z</time>
      </trkpt>
      <trkpt lat="47.36342" lon="-1.17862">
        <ele>55.813</ele>
        <time>2020-07-19T10:40:13Z</time>
      </trkpt>
      <trkpt lat="47.36342" lon="-1.17862">
        <ele>55.772</ele>
        <time>2020-07-19T10:40:14Z</time>
      </trkpt>
      <trkpt lat="47.36342" lon="-1.17862">
        <ele>55.681</ele>
        <time>2020-07-19T10:40:15Z</time>
      </trkpt>
      <trkpt lat="47.36342" lon="-1.17862">
        <ele>55.568</ele>
        <time>2020-07-19T10:40:16Z</time>
      </trkpt>
      <trkpt lat="47.36342" lon="-1.17862">
        <ele>55.526</ele>
        <time>2020-07-19T10:40:17Z</time>
      </trkpt>
      <trkpt lat="47.36342" lon="-1.17862">
        <ele>55.485</ele>
        <time>2020-07-19T10:40:18Z</time>
      </trkpt>
      <trkpt lat="47.36342" lon="-1.17862">
        <ele>55.488</ele>
        <time>2020-07-19T10:40:19Z</time>
      </trkpt>
      <trkpt lat="47.36342" lon="-1.17862">
        <ele>55.463</ele>
        <time>2020-07-19T10:40:20Z</time>
      </trkpt>
      <trkpt lat="47.36342" lon="-1.17862">
        <ele>55.465</ele>
        <time>2020-07-19T10:40:21Z</time>
      </trkpt>
      <trkpt lat="47.36342" lon="-1.17862">
        <ele>55.419</ele>
        <time>2020-07-19T10:40:22Z</time>
      </trkpt>
      <trkpt lat="47.36342" lon="-1.17862">
        <ele>55.394</ele>
        <time>2020-07-19T10:40:23Z</time>
      </trkpt>
      <trkpt lat="47.36342" lon="-1.17862">
        <ele>55.369</ele>
        <time>2020-07-19T10:40:24Z</time>
      </trkpt>
      <trkpt lat="47.36342" lon="-1.17862">
        <ele>55.613</ele>
        <time>2020-07-19T10:40:26Z</time>
      </trkpt>
      <trkpt lat="47.36342" lon="-1.17863">
        <ele>58.038</ele>
        <time>2020-07-19T10:40:26Z</time>
      </trkpt>
      <trkpt lat="47.36341" lon="-1.17864">
        <ele>58.047</ele>
        <time>2020-07-19T10:40:27Z</time>
      </trkpt>
      <trkpt lat="47.3634" lon="-1.17864">
        <ele>55.819</ele>
        <time>2020-07-19T10:40:28Z</time>
      </trkpt>
      <trkpt lat="47.36339" lon="-1.17865">
        <ele>55.787</ele>
        <time>2020-07-19T10:40:29Z</time>
      </trkpt>
      <trkpt lat="47.36338" lon="-1.17865">
        <ele>55.158</ele>
        <time>2020-07-19T10:40:30Z</time>
      </trkpt>
      <trkpt lat="47.36338" lon="-1.17865">
        <ele>55.542</ele>
        <time>2020-07-19T10:40:31Z</time>
      </trkpt>
      <trkpt lat="47.36339" lon="-1.17866">
        <ele>53.522</ele>
        <time>2020-07-19T10:40:32Z</time>
      </trkpt>
      <trkpt lat="47.3634" lon="-1.17866">
        <ele>54.356</ele>
        <time>2020-07-19T10:40:33Z</time>
      </trkpt>
      <trkpt lat="47.36341" lon="-1.17867">
        <ele>52.826</ele>
        <time>2020-07-19T10:40:34Z</time>
      </trkpt>
      <trkpt lat="47.36343" lon="-1.17867">
        <ele>53.52</ele>
        <time>2020-07-19T10:40:35Z</time>
      </trkpt>
      <trkpt lat="47.36344" lon="-1.17867">
        <ele>53.26</ele>
        <time>2020-07-19T10:40:36Z</time>
      </trkpt>
      <trkpt lat="47.36344" lon="-1.17867">
        <ele>53.126</ele>
        <time>2020-07-19T10:40:37Z</time>
      </trkpt>
      <trkpt lat="47.36345" lon="-1.17868">
        <ele>52.612</ele>
        <time>2020-07-19T10:40:38Z</time>
      </trkpt>
      <trkpt lat="47.36346" lon="-1.17868">
        <ele>52.197</ele>
        <time>2020-07-19T10:40:39Z</time>
      </trkpt>
      <trkpt lat="47.36347" lon="-1.17868">
        <ele>52.357</ele>
        <time>2020-07-19T10:40:40Z</time>
      </trkpt>
      <trkpt lat="47.36347" lon="-1.17868">
        <ele>51.8</ele>
        <time>2020-07-19T10:40:41Z</time>
      </trkpt>
      <trkpt lat="47.36348" lon="-1.17868">
        <ele>51.793</ele>
        <time>2020-07-19T10:40:42Z</time>
      </trkpt>
      <trkpt lat="47.36348" lon="-1.17868">
        <ele>51.412</ele>
        <time>2020-07-19T10:40:43Z</time>
      </trkpt>
      <trkpt lat="47.36349" lon="-1.17868">
        <ele>51.645</ele>
        <time>2020-07-19T10:40:44Z</time>
      </trkpt>
      <trkpt lat="47.36349" lon="-1.17868">
        <ele>51.638</ele>
        <time>2020-07-19T10:40:45Z</time>
      </trkpt>
      <trkpt lat="47.36349" lon="-1.17868">
        <ele>51.896</ele>
        <time>2020-07-19T10:40:46Z</time>
      </trkpt>
      <trkpt lat="47.36349" lon="-1.17868">
        <ele>51.81</ele>
        <time>2020-07-19T10:40:47Z</time>
      </trkpt>
      <trkpt lat="47.36349" lon="-1.17868">
        <ele>52.04</ele>
        <time>2020-07-19T10:40:48Z</time>
      </trkpt>
      <trkpt lat="47.36349" lon="-1.17868">
        <ele>52.192</ele>
        <time>2020-07-19T10:40:49Z</time>
      </trkpt>
      <trkpt lat="47.36349" lon="-1.17868">
        <ele>52.063</ele>
        <time>2020-07-19T10:40:50Z</time>
      </trkpt>
      <trkpt lat="47.36349" lon="-1.17868">
        <ele>52.082</ele>
        <time>2020-07-19T10:40:51Z</time>
      </trkpt>
      <trkpt lat="47.36349" lon="-1.17868">
        <ele>52.122</ele>
        <time>2020-07-19T10:40:52Z</time>
      </trkpt>
      <trkpt lat="47.36349" lon="-1.17868">
        <ele>52.053</ele>
        <time>2020-07-19T10:40:53Z</time>
      </trkpt>
      <trkpt lat="47.36349" lon="-1.17868">
        <ele>52.033</ele>
        <time>2020-07-19T10:40:54Z</time>
      </trkpt>
      <trkpt lat="47.36349" lon="-1.17868">
        <ele>52.005</ele>
        <time>2020-07-19T10:40:55Z</time>
      </trkpt>
      <trkpt lat="47.36349" lon="-1.17868">
        <ele>51.986</ele>
        <time>2020-07-19T10:40:56Z</time>
      </trkpt>
      <trkpt lat="47.3635" lon="-1.17869">
        <ele>50.706</ele>
        <time>2020-07-19T10:40:57Z</time>
      </trkpt>
      <trkpt lat="47.3635" lon="-1.17869">
        <ele>50.709</ele>
        <time>2020-07-19T10:40:58Z</time>
      </trkpt>
      <trkpt lat="47.3635" lon="-1.17869">
        <ele>50.719</ele>
        <time>2020-07-19T10:40:59Z</time>
      </trkpt>
      <trkpt lat="47.3635" lon="-1.17869">
        <ele>50.716</ele>
        <time>2020-07-19T10:41:00Z</time>
      </trkpt>
      <trkpt lat="47.3635" lon="-1.17869">
        <ele>50.978</ele>
        <time>2020-07-19T10:41:01Z</time>
      </trkpt>
      <trkpt lat="47.36351" lon="-1.17873">
        <ele>52.598</ele>
        <time>2020-07-19T10:41:02Z</time>
      </trkpt>
      <trkpt lat="47.36352" lon="-1.17878">
        <ele>52.761</ele>
        <time>2020-07-19T10:41:03Z</time>
      </trkpt>
      <trkpt lat="47.36352" lon="-1.1788">
        <ele>53.275</ele>
        <time>2020-07-19T10:41:04Z</time>
      </trkpt>
      <trkpt lat="47.36353" lon="-1.17881">
        <ele>54.547</ele>
        <time>2020-07-19T10:41:05Z</time>
      </trkpt>
      <trkpt lat="47.36352" lon="-1.17877">
        <ele>54.412</ele>
        <time>2020-07-19T10:41:06Z</time>
      </trkpt>
      <trkpt lat="47.36352" lon="-1.17875">
        <ele>55.747</ele>
        <time>2020-07-19T10:41:07Z</time>
      </trkpt>
      <trkpt lat="47.36352" lon="-1.17874">
        <ele>55.421</ele>
        <time>2020-07-19T10:41:08Z</time>
      </trkpt>
      <trkpt lat="47.36352" lon="-1.17875">
        <ele>55.292</ele>
        <time>2020-07-19T10:41:09Z</time>
      </trkpt>
      <trkpt lat="47.36352" lon="-1.17876">
        <ele>55.388</ele>
        <time>2020-07-19T10:41:10Z</time>
      </trkpt>
      <trkpt lat="47.36352" lon="-1.17876">
        <ele>55.114</ele>
        <time>2020-07-19T10:41:11Z</time>
      </trkpt>
      <trkpt lat="47.36352" lon="-1.17876">
        <ele>55.648</ele>
        <time>2020-07-19T10:41:12Z</time>
      </trkpt>
      <trkpt lat="47.36352" lon="-1.17875">
        <ele>56.266</ele>
        <time>2020-07-19T10:41:13Z</time>
      </trkpt>
      <trkpt lat="47.36352" lon="-1.17874">
        <ele>56.474</ele>
        <time>2020-07-19T10:41:14Z</time>
      </trkpt>
      <trkpt lat="47.36352" lon="-1.17874">
        <ele>56.733</ele>
        <time>2020-07-19T10:41:16Z</time>
      </trkpt>
      <trkpt lat="47.36352" lon="-1.17873">
        <ele>56.51</ele>
        <time>2020-07-19T10:41:16Z</time>
      </trkpt>
      <trkpt lat="47.36352" lon="-1.17872">
        <ele>56.325</ele>
        <time>2020-07-19T10:41:17Z</time>
      </trkpt>
      <trkpt lat="47.36352" lon="-1.1788">
        <ele>55.424</ele>
        <time>2020-07-19T10:43:15Z</time>
      </trkpt>
      <trkpt lat="47.36352" lon="-1.17879">
        <ele>55.091</ele>
        <time>2020-07-19T10:43:16Z</time>
      </trkpt>
      <trkpt lat="47.36352" lon="-1.17879">
        <ele>54.802</ele>
        <time>2020-07-19T10:43:17Z</time>
      </trkpt>
      <trkpt lat="47.36352" lon="-1.17878">
        <ele>58.462</ele>
        <time>2020-07-19T10:43:19Z</time>
      </trkpt>
      <trkpt lat="47.36351" lon="-1.17878">
        <ele>57.484</ele>
        <time>2020-07-19T10:43:20Z</time>
      </trkpt>
      <trkpt lat="47.36351" lon="-1.17878">
        <ele>56.87</ele>
        <time>2020-07-19T10:43:21Z</time>
      </trkpt>
      <trkpt lat="47.36351" lon="-1.17878">
        <ele>56.42</ele>
        <time>2020-07-19T10:43:22Z</time>
      </trkpt>
      <trkpt lat="47.36351" lon="-1.17878">
        <ele>56.219</ele>
        <time>2020-07-19T10:43:23Z</time>
      </trkpt>
      <trkpt lat="47.36351" lon="-1.17878">
        <ele>55.838</ele>
        <time>2020-07-19T10:43:24Z</time>
      </trkpt>
      <trkpt lat="47.36351" lon="-1.17878">
        <ele>56.062</ele>
        <time>2020-07-19T10:43:25Z</time>
      </trkpt>
      <trkpt lat="47.36351" lon="-1.17878">
        <ele>55.8</ele>
        <time>2020-07-19T10:43:26Z</time>
      </trkpt>
      <trkpt lat="47.36351" lon="-1.17877">
        <ele>55.541</ele>
        <time>2020-07-19T10:43:27Z</time>
      </trkpt>
      <trkpt lat="47.36351" lon="-1.17877">
        <ele>55.225</ele>
        <time>2020-07-19T10:43:28Z</time>
      </trkpt>
      <trkpt lat="47.36351" lon="-1.17877">
        <ele>55.155</ele>
        <time>2020-07-19T10:43:29Z</time>
      </trkpt>
      <trkpt lat="47.36351" lon="-1.17877">
        <ele>55.012</ele>
        <time>2020-07-19T10:43:30Z</time>
      </trkpt>
      <trkpt lat="47.36351" lon="-1.17877">
        <ele>54.877</ele>
        <time>2020-07-19T10:43:31Z</time>
      </trkpt>
      <trkpt lat="47.36351" lon="-1.17877">
        <ele>54.639</ele>
        <time>2020-07-19T10:43:32Z</time>
      </trkpt>
      <trkpt lat="47.36351" lon="-1.17877">
        <ele>54.52</ele>
        <time>2020-07-19T10:43:33Z</time>
      </trkpt>
      <trkpt lat="47.36351" lon="-1.17877">
        <ele>54.396</ele>
        <time>2020-07-19T10:43:34Z</time>
      </trkpt>
      <trkpt lat="47.36351" lon="-1.17877">
        <ele>54.403</ele>
        <time>2020-07-19T10:43:35Z</time>
      </trkpt>
      <trkpt lat="47.36351" lon="-1.17877">
        <ele>54.403</ele>
        <time>2020-07-19T10:43:36Z</time>
      </trkpt>
      <trkpt lat="47.36351" lon="-1.17877">
        <ele>54.233</ele>
        <time>2020-07-19T10:43:37Z</time>
      </trkpt>
      <trkpt lat="47.36351" lon="-1.17877">
        <ele>59.049</ele>
        <time>2020-07-19T10:43:38Z</time>
      </trkpt>
      <trkpt lat="47.36351" lon="-1.17876">
        <ele>58.465</ele>
        <time>2020-07-19T10:43:39Z</time>
      </trkpt>
      <trkpt lat="47.36351" lon="-1.17876">
        <ele>57.852</ele>
        <time>2020-07-19T10:43:40Z</time>
      </trkpt>
      <trkpt lat="47.36351" lon="-1.17876">
        <ele>57.034</ele>
        <time>2020-07-19T10:43:41Z</time>
      </trkpt>
      <trkpt lat="47.36351" lon="-1.17876">
        <ele>56.669</ele>
        <time>2020-07-19T10:43:42Z</time>
      </trkpt>
      <trkpt lat="47.36351" lon="-1.17876">
        <ele>56.446</ele>
        <time>2020-07-19T10:43:43Z</time>
      </trkpt>
      <trkpt lat="47.36351" lon="-1.17876">
        <ele>56.299</ele>
        <time>2020-07-19T10:43:44Z</time>
      </trkpt>
      <trkpt lat="47.36351" lon="-1.17876">
        <ele>56.127</ele>
        <time>2020-07-19T10:43:45Z</time>
      </trkpt>
      <trkpt lat="47.36351" lon="-1.17876">
        <ele>56.001</ele>
        <time>2020-07-19T10:43:46Z</time>
      </trkpt>
      <trkpt lat="47.36351" lon="-1.17876">
        <ele>55.922</ele>
        <time>2020-07-19T10:43:47Z</time>
      </trkpt>
      <trkpt lat="47.36351" lon="-1.17876">
        <ele>55.895</ele>
        <time>2020-07-19T10:43:48Z</time>
      </trkpt>
      <trkpt lat="47.36351" lon="-1.17876">
        <ele>55.803</ele>
        <time>2020-07-19T10:43:49Z</time>
      </trkpt>
      <trkpt lat="47.36351" lon="-1.17876">
        <ele>55.676</ele>
        <time>2020-07-19T10:43:50Z</time>
      </trkpt>
      <trkpt lat="47.36351" lon="-1.17876">
        <ele>55.676</ele>
        <time>2020-07-19T10:43:51Z</time>
      </trkpt>
      <trkpt lat="47.36351" lon="-1.17876">
        <ele>55.393</ele>
        <time>2020-07-19T10:43:52Z</time>
      </trkpt>
      <trkpt lat="47.36351" lon="-1.17876">
        <ele>55.225</ele>
        <time>2020-07-19T10:43:53Z</time>
      </trkpt>
      <trkpt lat="47.36351" lon="-1.17876">
        <ele>54.993</ele>
        <time>2020-07-19T10:43:54Z</time>
      </trkpt>
      <trkpt lat="47.36351" lon="-1.17876">
        <ele>54.769</ele>
        <time>2020-07-19T10:43:55Z</time>
      </trkpt>
      <trkpt lat="47.36351" lon="-1.17876">
        <ele>54.63</ele>
        <time>2020-07-19T10:43:56Z</time>
      </trkpt>
      <trkpt lat="47.36351" lon="-1.17876">
        <ele>59.808</ele>
        <time>2020-07-19T10:43:57Z</time>
      </trkpt>
      <trkpt lat="47.36351" lon="-1.17876">
        <ele>59.329</ele>
        <time>2020-07-19T10:43:58Z</time>
      </trkpt>
      <trkpt lat="47.36351" lon="-1.17875">
        <ele>58.728</ele>
        <time>2020-07-19T10:43:59Z</time>
      </trkpt>
      <trkpt lat="47.36351" lon="-1.17875">
        <ele>58.386</ele>
        <time>2020-07-19T10:44:00Z</time>
      </trkpt>
      <trkpt lat="47.36351" lon="-1.17875">
        <ele>58.172</ele>
        <time>2020-07-19T10:44:01Z</time>
      </trkpt>
      <trkpt lat="47.36351" lon="-1.17875">
        <ele>58.022</ele>
        <time>2020-07-19T10:44:02Z</time>
      </trkpt>
      <trkpt lat="47.36351" lon="-1.17875">
        <ele>57.741</ele>
        <time>2020-07-19T10:44:03Z</time>
      </trkpt>
      <trkpt lat="47.36351" lon="-1.17875">
        <ele>57.271</ele>
        <time>2020-07-19T10:44:04Z</time>
      </trkpt>
      <trkpt lat="47.36351" lon="-1.17875">
        <ele>56.893</ele>
        <time>2020-07-19T10:44:05Z</time>
      </trkpt>
      <trkpt lat="47.36351" lon="-1.17875">
        <ele>56.532</ele>
        <time>2020-07-19T10:44:06Z</time>
      </trkpt>
      <trkpt lat="47.36351" lon="-1.17875">
        <ele>56.075</ele>
        <time>2020-07-19T10:44:07Z</time>
      </trkpt>
      <trkpt lat="47.36351" lon="-1.17875">
        <ele>55.923</ele>
        <time>2020-07-19T10:44:08Z</time>
      </trkpt>
      <trkpt lat="47.36351" lon="-1.17875">
        <ele>55.629</ele>
        <time>2020-07-19T10:44:09Z</time>
      </trkpt>
      <trkpt lat="47.36351" lon="-1.17875">
        <ele>55.598</ele>
        <time>2020-07-19T10:44:10Z</time>
      </trkpt>
      <trkpt lat="47.36351" lon="-1.17875">
        <ele>55.94</ele>
        <time>2020-07-19T10:44:11Z</time>
      </trkpt>
      <trkpt lat="47.36351" lon="-1.17875">
        <ele>56.256</ele>
        <time>2020-07-19T10:44:12Z</time>
      </trkpt>
      <trkpt lat="47.36351" lon="-1.17875">
        <ele>56.535</ele>
        <time>2020-07-19T10:44:13Z</time>
      </trkpt>
      <trkpt lat="47.36351" lon="-1.17875">
        <ele>56.336</ele>
        <time>2020-07-19T10:44:15Z</time>
      </trkpt>
      <trkpt lat="47.36351" lon="-1.17875">
        <ele>56.145</ele>
        <time>2020-07-19T10:44:15Z</time>
      </trkpt>
      <trkpt lat="47.36349" lon="-1.17873">
        <ele>59.453</ele>
        <time>2020-07-19T10:44:16Z</time>
      </trkpt>
      <trkpt lat="47.36311" lon="-1.17834">
        <ele>54.245</ele>
        <time>2020-07-19T10:44:24Z</time>
      </trkpt>
      <trkpt lat="47.36311" lon="-1.17833">
        <ele>52.951</ele>
        <time>2020-07-19T10:44:25Z</time>
      </trkpt>
      <trkpt lat="47.36312" lon="-1.17834">
        <ele>52.775</ele>
        <time>2020-07-19T10:44:26Z</time>
      </trkpt>
      <trkpt lat="47.36311" lon="-1.17831">
        <ele>52.567</ele>
        <time>2020-07-19T10:44:27Z</time>
      </trkpt>
      <trkpt lat="47.3631" lon="-1.17826">
        <ele>51.882</ele>
        <time>2020-07-19T10:44:28Z</time>
      </trkpt>
      <trkpt lat="47.36308" lon="-1.17822">
        <ele>51.771</ele>
        <time>2020-07-19T10:44:29Z</time>
      </trkpt>
      <trkpt lat="47.36307" lon="-1.17819">
        <ele>50.371</ele>
        <time>2020-07-19T10:44:30Z</time>
      </trkpt>
      <trkpt lat="47.36307" lon="-1.17816">
        <ele>50.252</ele>
        <time>2020-07-19T10:44:31Z</time>
      </trkpt>
      <trkpt lat="47.36307" lon="-1.17816">
        <ele>49.549</ele>
        <time>2020-07-19T10:44:32Z</time>
      </trkpt>
      <trkpt lat="47.36318" lon="-1.17836">
        <ele>50.537</ele>
        <time>2020-07-19T10:44:33Z</time>
      </trkpt>
      <trkpt lat="47.36337" lon="-1.17865">
        <ele>53.687</ele>
        <time>2020-07-19T10:44:34Z</time>
      </trkpt>
      <trkpt lat="47.36337" lon="-1.17865">
        <ele>54.023</ele>
        <time>2020-07-19T10:44:35Z</time>
      </trkpt>
      <trkpt lat="47.3634" lon="-1.17872">
        <ele>55.143</ele>
        <time>2020-07-19T10:44:36Z</time>
      </trkpt>
      <trkpt lat="47.36359" lon="-1.17901">
        <ele>60.006</ele>
        <time>2020-07-19T10:44:37Z</time>
      </trkpt>
      <trkpt lat="47.36362" lon="-1.17905">
        <ele>60.674</ele>
        <time>2020-07-19T10:44:38Z</time>
      </trkpt>
      <trkpt lat="47.36362" lon="-1.17905">
        <ele>61.655</ele>
        <time>2020-07-19T10:44:39Z</time>
      </trkpt>
      <trkpt lat="47.36363" lon="-1.17907">
        <ele>61.572</ele>
        <time>2020-07-19T10:44:40Z</time>
      </trkpt>
      <trkpt lat="47.36364" lon="-1.17907">
        <ele>61.489</ele>
        <time>2020-07-19T10:44:41Z</time>
      </trkpt>
      <trkpt lat="47.36364" lon="-1.17908">
        <ele>61.724</ele>
        <time>2020-07-19T10:44:42Z</time>
      </trkpt>
      <trkpt lat="47.36364" lon="-1.17908">
        <ele>60.878</ele>
        <time>2020-07-19T10:44:43Z</time>
      </trkpt>
      <trkpt lat="47.36352" lon="-1.17884">
        <ele>61.734</ele>
        <time>2020-07-19T10:44:44Z</time>
      </trkpt>
      <trkpt lat="47.3635" lon="-1.1788">
        <ele>62.162</ele>
        <time>2020-07-19T10:44:45Z</time>
      </trkpt>
      <trkpt lat="47.3635" lon="-1.1788">
        <ele>62.418</ele>
        <time>2020-07-19T10:44:46Z</time>
      </trkpt>
      <trkpt lat="47.3635" lon="-1.1788">
        <ele>63.04</ele>
        <time>2020-07-19T10:44:47Z</time>
      </trkpt>
      <trkpt lat="47.3635" lon="-1.17881">
        <ele>63.583</ele>
        <time>2020-07-19T10:44:48Z</time>
      </trkpt>
      <trkpt lat="47.36351" lon="-1.17882">
        <ele>63.062</ele>
        <time>2020-07-19T10:44:49Z</time>
      </trkpt>
      <trkpt lat="47.36351" lon="-1.17882">
        <ele>61.111</ele>
        <time>2020-07-19T10:44:50Z</time>
      </trkpt>
      <trkpt lat="47.36351" lon="-1.17882">
        <ele>60.404</ele>
        <time>2020-07-19T10:44:51Z</time>
      </trkpt>
      <trkpt lat="47.36351" lon="-1.17882">
        <ele>59.647</ele>
        <time>2020-07-19T10:44:52Z</time>
      </trkpt>
      <trkpt lat="47.36351" lon="-1.17882">
        <ele>60.867</ele>
        <time>2020-07-19T10:44:53Z</time>
      </trkpt>
      <trkpt lat="47.3635" lon="-1.17882">
        <ele>61.233</ele>
        <time>2020-07-19T10:44:54Z</time>
      </trkpt>
      <trkpt lat="47.36349" lon="-1.17881">
        <ele>60.341</ele>
        <time>2020-07-19T10:44:55Z</time>
      </trkpt>
      <trkpt lat="47.36348" lon="-1.17881">
        <ele>59.096</ele>
        <time>2020-07-19T10:44:56Z</time>
      </trkpt>
      <trkpt lat="47.36348" lon="-1.17881">
        <ele>59.338</ele>
        <time>2020-07-19T10:44:57Z</time>
      </trkpt>
      <trkpt lat="47.36347" lon="-1.1788">
        <ele>59.183</ele>
        <time>2020-07-19T10:44:58Z</time>
      </trkpt>
      <trkpt lat="47.36346" lon="-1.1788">
        <ele>57.854</ele>
        <time>2020-07-19T10:44:59Z</time>
      </trkpt>
      <trkpt lat="47.36346" lon="-1.17881">
        <ele>60.938</ele>
        <time>2020-07-19T10:45:00Z</time>
      </trkpt>
      <trkpt lat="47.36347" lon="-1.17882">
        <ele>60.923</ele>
        <time>2020-07-19T10:45:01Z</time>
      </trkpt>
      <trkpt lat="47.36346" lon="-1.17882">
        <ele>60.154</ele>
        <time>2020-07-19T10:45:02Z</time>
      </trkpt>
      <trkpt lat="47.36346" lon="-1.17882">
        <ele>60.194</ele>
        <time>2020-07-19T10:45:03Z</time>
      </trkpt>
      <trkpt lat="47.36346" lon="-1.17881">
        <ele>59.876</ele>
        <time>2020-07-19T10:45:04Z</time>
      </trkpt>
      <trkpt lat="47.36345" lon="-1.1788">
        <ele>59.475</ele>
        <time>2020-07-19T10:45:05Z</time>
      </trkpt>
      <trkpt lat="47.36343" lon="-1.17879">
        <ele>59.078</ele>
        <time>2020-07-19T10:45:06Z</time>
      </trkpt>
      <trkpt lat="47.36342" lon="-1.17879">
        <ele>59.601</ele>
        <time>2020-07-19T10:45:07Z</time>
      </trkpt>
      <trkpt lat="47.36341" lon="-1.17878">
        <ele>59.397</ele>
        <time>2020-07-19T10:45:08Z</time>
      </trkpt>
      <trkpt lat="47.36341" lon="-1.17878">
        <ele>59.162</ele>
        <time>2020-07-19T10:45:09Z</time>
      </trkpt>
      <trkpt lat="47.3634" lon="-1.17877">
        <ele>58.519</ele>
        <time>2020-07-19T10:45:10Z</time>
      </trkpt>
      <trkpt lat="47.36339" lon="-1.17876">
        <ele>58.254</ele>
        <time>2020-07-19T10:45:11Z</time>
      </trkpt>
      <trkpt lat="47.36339" lon="-1.17875">
        <ele>58.366</ele>
        <time>2020-07-19T10:45:12Z</time>
      </trkpt>
      <trkpt lat="47.36338" lon="-1.17874">
        <ele>57.218</ele>
        <time>2020-07-19T10:45:13Z</time>
      </trkpt>
      <trkpt lat="47.36337" lon="-1.17873">
        <ele>56.657</ele>
        <time>2020-07-19T10:45:14Z</time>
      </trkpt>
      <trkpt lat="47.36337" lon="-1.17872">
        <ele>56.124</ele>
        <time>2020-07-19T10:45:15Z</time>
      </trkpt>
      <trkpt lat="47.36336" lon="-1.17871">
        <ele>55.69</ele>
        <time>2020-07-19T10:45:16Z</time>
      </trkpt>
      <trkpt lat="47.36336" lon="-1.17871">
        <ele>55.338</ele>
        <time>2020-07-19T10:45:17Z</time>
      </trkpt>
      <trkpt lat="47.36336" lon="-1.17871">
        <ele>54.747</ele>
        <time>2020-07-19T10:45:18Z</time>
      </trkpt>
      <trkpt lat="47.36336" lon="-1.17871">
        <ele>54.523</ele>
        <time>2020-07-19T10:45:19Z</time>
      </trkpt>
      <trkpt lat="47.36337" lon="-1.17871">
        <ele>54.13</ele>
        <time>2020-07-19T10:45:20Z</time>
      </trkpt>
      <trkpt lat="47.36336" lon="-1.17871">
        <ele>54.481</ele>
        <time>2020-07-19T10:45:21Z</time>
      </trkpt>
      <trkpt lat="47.36336" lon="-1.17871">
        <ele>53.75</ele>
        <time>2020-07-19T10:45:22Z</time>
      </trkpt>
      <trkpt lat="47.36336" lon="-1.17871">
        <ele>54.001</ele>
        <time>2020-07-19T10:45:23Z</time>
      </trkpt>
      <trkpt lat="47.36337" lon="-1.17871">
        <ele>53.975</ele>
        <time>2020-07-19T10:45:24Z</time>
      </trkpt>
      <trkpt lat="47.36337" lon="-1.17871">
        <ele>53.997</ele>
        <time>2020-07-19T10:45:25Z</time>
      </trkpt>
      <trkpt lat="47.36337" lon="-1.17871">
        <ele>53.997</ele>
        <time>2020-07-19T10:45:26Z</time>
      </trkpt>
      <trkpt lat="47.36337" lon="-1.17871">
        <ele>53.963</ele>
        <time>2020-07-19T10:45:27Z</time>
      </trkpt>
      <trkpt lat="47.36337" lon="-1.17871">
        <ele>54.041</ele>
        <time>2020-07-19T10:45:28Z</time>
      </trkpt>
      <trkpt lat="47.36337" lon="-1.17871">
        <ele>54.045</ele>
        <time>2020-07-19T10:45:29Z</time>
      </trkpt>
      <trkpt lat="47.36337" lon="-1.17871">
        <ele>54.026</ele>
        <time>2020-07-19T10:45:30Z</time>
      </trkpt>
      <trkpt lat="47.36337" lon="-1.17871">
        <ele>53.838</ele>
        <time>2020-07-19T10:45:31Z</time>
      </trkpt>
      <trkpt lat="47.36336" lon="-1.17871">
        <ele>52.977</ele>
        <time>2020-07-19T10:45:32Z</time>
      </trkpt>
      <trkpt lat="47.36336" lon="-1.17871">
        <ele>52.803</ele>
        <time>2020-07-19T10:45:33Z</time>
      </trkpt>
      <trkpt lat="47.36336" lon="-1.17871">
        <ele>52.677</ele>
        <time>2020-07-19T10:45:34Z</time>
      </trkpt>
      <trkpt lat="47.36336" lon="-1.17871">
        <ele>52.636</ele>
        <time>2020-07-19T10:45:35Z</time>
      </trkpt>
      <trkpt lat="47.36336" lon="-1.1787">
        <ele>52.84</ele>
        <time>2020-07-19T10:45:36Z</time>
      </trkpt>
      <trkpt lat="47.36335" lon="-1.1787">
        <ele>52.961</ele>
        <time>2020-07-19T10:45:37Z</time>
      </trkpt>
      <trkpt lat="47.36335" lon="-1.1787">
        <ele>52.955</ele>
        <time>2020-07-19T10:45:38Z</time>
      </trkpt>
      <trkpt lat="47.36335" lon="-1.1787">
        <ele>52.923</ele>
        <time>2020-07-19T10:45:39Z</time>
      </trkpt>
      <trkpt lat="47.36335" lon="-1.17869">
        <ele>52.966</ele>
        <time>2020-07-19T10:45:40Z</time>
      </trkpt>
      <trkpt lat="47.36335" lon="-1.17869">
        <ele>52.939</ele>
        <time>2020-07-19T10:45:41Z</time>
      </trkpt>
      <trkpt lat="47.36335" lon="-1.17869">
        <ele>52.916</ele>
        <time>2020-07-19T10:45:42Z</time>
      </trkpt>
      <trkpt lat="47.36335" lon="-1.17869">
        <ele>52.915</ele>
        <time>2020-07-19T10:45:43Z</time>
      </trkpt>
      <trkpt lat="47.36335" lon="-1.17869">
        <ele>52.903</ele>
        <time>2020-07-19T10:45:44Z</time>
      </trkpt>
      <trkpt lat="47.36335" lon="-1.17869">
        <ele>52.911</ele>
        <time>2020-07-19T10:45:45Z</time>
      </trkpt>
      <trkpt lat="47.36335" lon="-1.17869">
        <ele>52.918</ele>
        <time>2020-07-19T10:45:46Z</time>
      </trkpt>
      <trkpt lat="47.36335" lon="-1.17869">
        <ele>52.917</ele>
        <time>2020-07-19T10:45:47Z</time>
      </trkpt>
      <trkpt lat="47.36335" lon="-1.17869">
        <ele>52.935</ele>
        <time>2020-07-19T10:45:48Z</time>
      </trkpt>
      <trkpt lat="47.36335" lon="-1.17869">
        <ele>52.938</ele>
        <time>2020-07-19T10:45:49Z</time>
      </trkpt>
      <trkpt lat="47.36335" lon="-1.17869">
        <ele>52.975</ele>
        <time>2020-07-19T10:45:50Z</time>
      </trkpt>
      <trkpt lat="47.36335" lon="-1.17869">
        <ele>52.985</ele>
        <time>2020-07-19T10:45:51Z</time>
      </trkpt>
      <trkpt lat="47.36335" lon="-1.17869">
        <ele>52.96</ele>
        <time>2020-07-19T10:45:52Z</time>
      </trkpt>
      <trkpt lat="47.36335" lon="-1.17869">
        <ele>52.938</ele>
        <time>2020-07-19T10:45:53Z</time>
      </trkpt>
      <trkpt lat="47.36335" lon="-1.17869">
        <ele>52.902</ele>
        <time>2020-07-19T10:45:54Z</time>
      </trkpt>
      <trkpt lat="47.36335" lon="-1.17869">
        <ele>52.877</ele>
        <time>2020-07-19T10:45:55Z</time>
      </trkpt>
      <trkpt lat="47.36335" lon="-1.17869">
        <ele>52.869</ele>
        <time>2020-07-19T10:45:56Z</time>
      </trkpt>
      <trkpt lat="47.36335" lon="-1.17869">
        <ele>52.89</ele>
        <time>2020-07-19T10:45:57Z</time>
      </trkpt>
      <trkpt lat="47.36335" lon="-1.17869">
        <ele>52.918</ele>
        <time>2020-07-19T10:45:58Z</time>
      </trkpt>
      <trkpt lat="47.36335" lon="-1.17869">
        <ele>52.978</ele>
        <time>2020-07-19T10:45:59Z</time>
      </trkpt>
      <trkpt lat="47.36335" lon="-1.17869">
        <ele>52.981</ele>
        <time>2020-07-19T10:46:00Z</time>
      </trkpt>
      <trkpt lat="47.36335" lon="-1.17869">
        <ele>52.97</ele>
        <time>2020-07-19T10:46:03Z</time>
      </trkpt>
      <trkpt lat="47.36351" lon="-1.17859">
        <ele>60</ele>
        <time>2020-07-19T11:21:00Z</time>
      </trkpt>
      <trkpt lat="47.36351" lon="-1.17859">
        <ele>60</ele>
        <time>2020-07-19T11:21:00Z</time>
      </trkpt>
      <trkpt lat="47.36357" lon="-1.17852">
        <ele>66.616</ele>
        <time>2020-07-19T11:21:03Z</time>
      </trkpt>
      <trkpt lat="47.36357" lon="-1.17851">
        <ele>65.982</ele>
        <time>2020-07-19T11:21:04Z</time>
      </trkpt>
      <trkpt lat="47.36356" lon="-1.17851">
        <ele>64.166</ele>
        <time>2020-07-19T11:21:05Z</time>
      </trkpt>
      <trkpt lat="47.36355" lon="-1.17853">
        <ele>64.122</ele>
        <time>2020-07-19T11:21:06Z</time>
      </trkpt>
      <trkpt lat="47.36354" lon="-1.17853">
        <ele>63.385</ele>
        <time>2020-07-19T11:21:07Z</time>
      </trkpt>
      <trkpt lat="47.36355" lon="-1.17854">
        <ele>62.14</ele>
        <time>2020-07-19T11:21:08Z</time>
      </trkpt>
      <trkpt lat="47.36355" lon="-1.17855">
        <ele>61.655</ele>
        <time>2020-07-19T11:21:09Z</time>
      </trkpt>
      <trkpt lat="47.36356" lon="-1.17855">
        <ele>61.565</ele>
        <time>2020-07-19T11:21:10Z</time>
      </trkpt>
      <trkpt lat="47.36356" lon="-1.17855">
        <ele>62.115</ele>
        <time>2020-07-19T11:21:11Z</time>
      </trkpt>
      <trkpt lat="47.36356" lon="-1.17855">
        <ele>61.962</ele>
        <time>2020-07-19T11:21:12Z</time>
      </trkpt>
      <trkpt lat="47.36355" lon="-1.17854">
        <ele>62.312</ele>
        <time>2020-07-19T11:21:13Z</time>
      </trkpt>
      <trkpt lat="47.36355" lon="-1.17854">
        <ele>61.995</ele>
        <time>2020-07-19T11:21:14Z</time>
      </trkpt>
      <trkpt lat="47.36354" lon="-1.17855">
        <ele>62.67</ele>
        <time>2020-07-19T11:21:15Z</time>
      </trkpt>
      <trkpt lat="47.36354" lon="-1.17854">
        <ele>63.556</ele>
        <time>2020-07-19T11:21:16Z</time>
      </trkpt>
      <trkpt lat="47.36355" lon="-1.17854">
        <ele>63.777</ele>
        <time>2020-07-19T11:21:17Z</time>
      </trkpt>
      <trkpt lat="47.36354" lon="-1.17854">
        <ele>63.822</ele>
        <time>2020-07-19T11:21:18Z</time>
      </trkpt>
      <trkpt lat="47.36354" lon="-1.17854">
        <ele>63.673</ele>
        <time>2020-07-19T11:21:19Z</time>
      </trkpt>
      <trkpt lat="47.36354" lon="-1.17854">
        <ele>63.151</ele>
        <time>2020-07-19T11:21:20Z</time>
      </trkpt>
      <trkpt lat="47.36354" lon="-1.17854">
        <ele>63.003</ele>
        <time>2020-07-19T11:21:21Z</time>
      </trkpt>
      <trkpt lat="47.36352" lon="-1.17856">
        <ele>60.504</ele>
        <time>2020-07-19T11:21:22Z</time>
      </trkpt>
      <trkpt lat="47.36351" lon="-1.17858">
        <ele>59.784</ele>
        <time>2020-07-19T11:21:24Z</time>
      </trkpt>
      <trkpt lat="47.36351" lon="-1.17859">
        <ele>60.064</ele>
        <time>2020-07-19T11:21:25Z</time>
      </trkpt>
      <trkpt lat="47.36351" lon="-1.1786">
        <ele>60.803</ele>
        <time>2020-07-19T11:21:26Z</time>
      </trkpt>
      <trkpt lat="47.3635" lon="-1.1786">
        <ele>61.569</ele>
        <time>2020-07-19T11:21:27Z</time>
      </trkpt>
      <trkpt lat="47.36351" lon="-1.1786">
        <ele>61.583</ele>
        <time>2020-07-19T11:21:28Z</time>
      </trkpt>
      <trkpt lat="47.36351" lon="-1.17861">
        <ele>62.501</ele>
        <time>2020-07-19T11:21:29Z</time>
      </trkpt>
      <trkpt lat="47.36351" lon="-1.17862">
        <ele>62.99</ele>
        <time>2020-07-19T11:21:30Z</time>
      </trkpt>
      <trkpt lat="47.3635" lon="-1.17861">
        <ele>62.545</ele>
        <time>2020-07-19T11:21:31Z</time>
      </trkpt>
      <trkpt lat="47.36351" lon="-1.17861">
        <ele>63.244</ele>
        <time>2020-07-19T11:21:32Z</time>
      </trkpt>
      <trkpt lat="47.36351" lon="-1.17861">
        <ele>63.215</ele>
        <time>2020-07-19T11:21:33Z</time>
      </trkpt>
      <trkpt lat="47.36351" lon="-1.17862">
        <ele>62.999</ele>
        <time>2020-07-19T11:21:34Z</time>
      </trkpt>
      <trkpt lat="47.36351" lon="-1.17862">
        <ele>62.866</ele>
        <time>2020-07-19T11:21:35Z</time>
      </trkpt>
      <trkpt lat="47.36351" lon="-1.17862">
        <ele>62.87</ele>
        <time>2020-07-19T11:21:36Z</time>
      </trkpt>
      <trkpt lat="47.36348" lon="-1.17862">
        <ele>63.057</ele>
        <time>2020-07-19T11:21:37Z</time>
      </trkpt>
      <trkpt lat="47.36346" lon="-1.17864">
        <ele>62.94</ele>
        <time>2020-07-19T11:21:38Z</time>
      </trkpt>
      <trkpt lat="47.36344" lon="-1.17867">
        <ele>61.036</ele>
        <time>2020-07-19T11:21:39Z</time>
      </trkpt>
      <trkpt lat="47.36341" lon="-1.17866">
        <ele>60.201</ele>
        <time>2020-07-19T11:21:40Z</time>
      </trkpt>
      <trkpt lat="47.36338" lon="-1.17865">
        <ele>61.698</ele>
        <time>2020-07-19T11:21:41Z</time>
      </trkpt>
      <trkpt lat="47.36336" lon="-1.17865">
        <ele>61.333</ele>
        <time>2020-07-19T11:21:42Z</time>
      </trkpt>
      <trkpt lat="47.36334" lon="-1.17864">
        <ele>62.6</ele>
        <time>2020-07-19T11:21:43Z</time>
      </trkpt>
      <trkpt lat="47.36331" lon="-1.17864">
        <ele>63.166</ele>
        <time>2020-07-19T11:21:44Z</time>
      </trkpt>
      <trkpt lat="47.36328" lon="-1.17866">
        <ele>62.28</ele>
        <time>2020-07-19T11:21:45Z</time>
      </trkpt>
      <trkpt lat="47.36327" lon="-1.17869">
        <ele>62.042</ele>
        <time>2020-07-19T11:21:46Z</time>
      </trkpt>
      <trkpt lat="47.36325" lon="-1.17873">
        <ele>61.628</ele>
        <time>2020-07-19T11:21:47Z</time>
      </trkpt>
      <trkpt lat="47.36323" lon="-1.17875">
        <ele>60.611</ele>
        <time>2020-07-19T11:21:48Z</time>
      </trkpt>
      <trkpt lat="47.36321" lon="-1.17876">
        <ele>59.659</ele>
        <time>2020-07-19T11:21:49Z</time>
      </trkpt>
      <trkpt lat="47.36317" lon="-1.17876">
        <ele>60.089</ele>
        <time>2020-07-19T11:21:50Z</time>
      </trkpt>
      <trkpt lat="47.36313" lon="-1.17876">
        <ele>59.713</ele>
        <time>2020-07-19T11:21:51Z</time>
      </trkpt>
      <trkpt lat="47.3631" lon="-1.17875">
        <ele>58.464</ele>
        <time>2020-07-19T11:21:52Z</time>
      </trkpt>
      <trkpt lat="47.36307" lon="-1.17874">
        <ele>58.824</ele>
        <time>2020-07-19T11:21:53Z</time>
      </trkpt>
      <trkpt lat="47.36304" lon="-1.17874">
        <ele>59.189</ele>
        <time>2020-07-19T11:21:54Z</time>
      </trkpt>
      <trkpt lat="47.363" lon="-1.17874">
        <ele>59.304</ele>
        <time>2020-07-19T11:21:55Z</time>
      </trkpt>
      <trkpt lat="47.36297" lon="-1.17874">
        <ele>58.475</ele>
        <time>2020-07-19T11:21:56Z</time>
      </trkpt>
      <trkpt lat="47.36294" lon="-1.17874">
        <ele>59.335</ele>
        <time>2020-07-19T11:21:57Z</time>
      </trkpt>
      <trkpt lat="47.36292" lon="-1.17874">
        <ele>58.666</ele>
        <time>2020-07-19T11:21:58Z</time>
      </trkpt>
      <trkpt lat="47.36289" lon="-1.17876">
        <ele>58.907</ele>
        <time>2020-07-19T11:21:59Z</time>
      </trkpt>
      <trkpt lat="47.36287" lon="-1.17879">
        <ele>58.143</ele>
        <time>2020-07-19T11:22:00Z</time>
      </trkpt>
      <trkpt lat="47.36286" lon="-1.17883">
        <ele>57.176</ele>
        <time>2020-07-19T11:22:01Z</time>
      </trkpt>
      <trkpt lat="47.36285" lon="-1.17887">
        <ele>55.406</ele>
        <time>2020-07-19T11:22:02Z</time>
      </trkpt>
      <trkpt lat="47.36284" lon="-1.17891">
        <ele>56.095</ele>
        <time>2020-07-19T11:22:03Z</time>
      </trkpt>
      <trkpt lat="47.36284" lon="-1.17895">
        <ele>54.827</ele>
        <time>2020-07-19T11:22:04Z</time>
      </trkpt>
      <trkpt lat="47.36284" lon="-1.17899">
        <ele>54.281</ele>
        <time>2020-07-19T11:22:05Z</time>
      </trkpt>
      <trkpt lat="47.36283" lon="-1.17903">
        <ele>53.389</ele>
        <time>2020-07-19T11:22:06Z</time>
      </trkpt>
      <trkpt lat="47.36283" lon="-1.17907">
        <ele>53.764</ele>
        <time>2020-07-19T11:22:07Z</time>
      </trkpt>
      <trkpt lat="47.36282" lon="-1.17911">
        <ele>53.13</ele>
        <time>2020-07-19T11:22:08Z</time>
      </trkpt>
      <trkpt lat="47.36282" lon="-1.17915">
        <ele>53.656</ele>
        <time>2020-07-19T11:22:09Z</time>
      </trkpt>
      <trkpt lat="47.36282" lon="-1.1792">
        <ele>53.401</ele>
        <time>2020-07-19T11:22:10Z</time>
      </trkpt>
      <trkpt lat="47.36281" lon="-1.17924">
        <ele>53.577</ele>
        <time>2020-07-19T11:22:11Z</time>
      </trkpt>
      <trkpt lat="47.36281" lon="-1.17929">
        <ele>54.003</ele>
        <time>2020-07-19T11:22:12Z</time>
      </trkpt>
      <trkpt lat="47.3628" lon="-1.17934">
        <ele>54.07</ele>
        <time>2020-07-19T11:22:13Z</time>
      </trkpt>
      <trkpt lat="47.3628" lon="-1.17938">
        <ele>54.138</ele>
        <time>2020-07-19T11:22:14Z</time>
      </trkpt>
      <trkpt lat="47.36279" lon="-1.17943">
        <ele>53.52</ele>
        <time>2020-07-19T11:22:15Z</time>
      </trkpt>
      <trkpt lat="47.36279" lon="-1.17948">
        <ele>53.651</ele>
        <time>2020-07-19T11:22:16Z</time>
      </trkpt>
      <trkpt lat="47.36278" lon="-1.17952">
        <ele>53.064</ele>
        <time>2020-07-19T11:22:17Z</time>
      </trkpt>
      <trkpt lat="47.36278" lon="-1.17957">
        <ele>52.926</ele>
        <time>2020-07-19T11:22:18Z</time>
      </trkpt>
      <trkpt lat="47.36277" lon="-1.17962">
        <ele>52.992</ele>
        <time>2020-07-19T11:22:19Z</time>
      </trkpt>
      <trkpt lat="47.36277" lon="-1.17967">
        <ele>53.293</ele>
        <time>2020-07-19T11:22:20Z</time>
      </trkpt>
      <trkpt lat="47.36276" lon="-1.17972">
        <ele>53.351</ele>
        <time>2020-07-19T11:22:21Z</time>
      </trkpt>
      <trkpt lat="47.36276" lon="-1.17977">
        <ele>53.207</ele>
        <time>2020-07-19T11:22:22Z</time>
      </trkpt>
      <trkpt lat="47.36276" lon="-1.17981">
        <ele>53.311</ele>
        <time>2020-07-19T11:22:23Z</time>
      </trkpt>
      <trkpt lat="47.36276" lon="-1.17986">
        <ele>55.406</ele>
        <time>2020-07-19T11:22:24Z</time>
      </trkpt>
      <trkpt lat="47.36277" lon="-1.17989">
        <ele>53.933</ele>
        <time>2020-07-19T11:22:25Z</time>
      </trkpt>
      <trkpt lat="47.36279" lon="-1.17992">
        <ele>54.063</ele>
        <time>2020-07-19T11:22:26Z</time>
      </trkpt>
      <trkpt lat="47.36281" lon="-1.17992">
        <ele>54.394</ele>
        <time>2020-07-19T11:22:27Z</time>
      </trkpt>
      <trkpt lat="47.36284" lon="-1.17989">
        <ele>54.667</ele>
        <time>2020-07-19T11:22:28Z</time>
      </trkpt>
      <trkpt lat="47.36286" lon="-1.17984">
        <ele>54.605</ele>
        <time>2020-07-19T11:22:29Z</time>
      </trkpt>
      <trkpt lat="47.36288" lon="-1.17979">
        <ele>54.433</ele>
        <time>2020-07-19T11:22:30Z</time>
      </trkpt>
      <trkpt lat="47.3629" lon="-1.17973">
        <ele>54.707</ele>
        <time>2020-07-19T11:22:31Z</time>
      </trkpt>
      <trkpt lat="47.36291" lon="-1.17967">
        <ele>54.859</ele>
        <time>2020-07-19T11:22:32Z</time>
      </trkpt>
      <trkpt lat="47.36293" lon="-1.17961">
        <ele>54.617</ele>
        <time>2020-07-19T11:22:33Z</time>
      </trkpt>
      <trkpt lat="47.36296" lon="-1.17956">
        <ele>55.11</ele>
        <time>2020-07-19T11:22:34Z</time>
      </trkpt>
      <trkpt lat="47.36298" lon="-1.17951">
        <ele>55.716</ele>
        <time>2020-07-19T11:22:35Z</time>
      </trkpt>
      <trkpt lat="47.36301" lon="-1.17947">
        <ele>56.627</ele>
        <time>2020-07-19T11:22:36Z</time>
      </trkpt>
      <trkpt lat="47.36304" lon="-1.17944">
        <ele>55.915</ele>
        <time>2020-07-19T11:22:37Z</time>
      </trkpt>
      <trkpt lat="47.36306" lon="-1.1794">
        <ele>55.527</ele>
        <time>2020-07-19T11:22:38Z</time>
      </trkpt>
      <trkpt lat="47.36309" lon="-1.17935">
        <ele>55.257</ele>
        <time>2020-07-19T11:22:39Z</time>
      </trkpt>
      <trkpt lat="47.3631" lon="-1.17929">
        <ele>55.587</ele>
        <time>2020-07-19T11:22:40Z</time>
      </trkpt>
      <trkpt lat="47.3631" lon="-1.17923">
        <ele>54.66</ele>
        <time>2020-07-19T11:22:41Z</time>
      </trkpt>
      <trkpt lat="47.36309" lon="-1.17916">
        <ele>54.706</ele>
        <time>2020-07-19T11:22:42Z</time>
      </trkpt>
      <trkpt lat="47.36308" lon="-1.1791">
        <ele>55.545</ele>
        <time>2020-07-19T11:22:43Z</time>
      </trkpt>
      <trkpt lat="47.36306" lon="-1.17904">
        <ele>56.334</ele>
        <time>2020-07-19T11:22:44Z</time>
      </trkpt>
      <trkpt lat="47.36304" lon="-1.17897">
        <ele>56.574</ele>
        <time>2020-07-19T11:22:45Z</time>
      </trkpt>
      <trkpt lat="47.36303" lon="-1.17891">
        <ele>55.988</ele>
        <time>2020-07-19T11:22:46Z</time>
      </trkpt>
      <trkpt lat="47.36303" lon="-1.17884">
        <ele>56.201</ele>
        <time>2020-07-19T11:22:47Z</time>
      </trkpt>
      <trkpt lat="47.36303" lon="-1.17878">
        <ele>55.364</ele>
        <time>2020-07-19T11:22:48Z</time>
      </trkpt>
      <trkpt lat="47.36304" lon="-1.17873">
        <ele>55.514</ele>
        <time>2020-07-19T11:22:49Z</time>
      </trkpt>
      <trkpt lat="47.36307" lon="-1.1787">
        <ele>55.851</ele>
        <time>2020-07-19T11:22:50Z</time>
      </trkpt>
      <trkpt lat="47.3631" lon="-1.17869">
        <ele>56.093</ele>
        <time>2020-07-19T11:22:51Z</time>
      </trkpt>
      <trkpt lat="47.36314" lon="-1.17869">
        <ele>56.164</ele>
        <time>2020-07-19T11:22:52Z</time>
      </trkpt>
      <trkpt lat="47.36317" lon="-1.17868">
        <ele>55.865</ele>
        <time>2020-07-19T11:22:53Z</time>
      </trkpt>
      <trkpt lat="47.36319" lon="-1.17866">
        <ele>55.961</ele>
        <time>2020-07-19T11:22:54Z</time>
      </trkpt>
      <trkpt lat="47.36321" lon="-1.17863">
        <ele>56.747</ele>
        <time>2020-07-19T11:22:55Z</time>
      </trkpt>
      <trkpt lat="47.36322" lon="-1.17859">
        <ele>56.447</ele>
        <time>2020-07-19T11:22:56Z</time>
      </trkpt>
      <trkpt lat="47.36322" lon="-1.17857">
        <ele>57.16</ele>
        <time>2020-07-19T11:22:57Z</time>
      </trkpt>
      <trkpt lat="47.36321" lon="-1.17856">
        <ele>57.439</ele>
        <time>2020-07-19T11:22:58Z</time>
      </trkpt>
      <trkpt lat="47.36321" lon="-1.17856">
        <ele>57.227</ele>
        <time>2020-07-19T11:22:59Z</time>
      </trkpt>
      <trkpt lat="47.36321" lon="-1.17855">
        <ele>56.5</ele>
        <time>2020-07-19T11:23:00Z</time>
      </trkpt>
      <trkpt lat="47.36321" lon="-1.17853">
        <ele>56.343</ele>
        <time>2020-07-19T11:23:01Z</time>
      </trkpt>
      <trkpt lat="47.36322" lon="-1.17851">
        <ele>56.661</ele>
        <time>2020-07-19T11:23:02Z</time>
      </trkpt>
      <trkpt lat="47.36322" lon="-1.1785">
        <ele>56.98</ele>
        <time>2020-07-19T11:23:03Z</time>
      </trkpt>
      <trkpt lat="47.36323" lon="-1.17848">
        <ele>57.735</ele>
        <time>2020-07-19T11:23:04Z</time>
      </trkpt>
      <trkpt lat="47.36323" lon="-1.17847">
        <ele>57.829</ele>
        <time>2020-07-19T11:23:05Z</time>
      </trkpt>
      <trkpt lat="47.36324" lon="-1.17846">
        <ele>58.033</ele>
        <time>2020-07-19T11:23:06Z</time>
      </trkpt>
      <trkpt lat="47.36325" lon="-1.17846">
        <ele>57.961</ele>
        <time>2020-07-19T11:23:07Z</time>
      </trkpt>
      <trkpt lat="47.36325" lon="-1.17846">
        <ele>58.32</ele>
        <time>2020-07-19T11:23:08Z</time>
      </trkpt>
      <trkpt lat="47.36325" lon="-1.17846">
        <ele>57.869</ele>
        <time>2020-07-19T11:23:10Z</time>
      </trkpt>
      <trkpt lat="47.36325" lon="-1.17845">
        <ele>57.526</ele>
        <time>2020-07-19T11:23:11Z</time>
      </trkpt>
      <trkpt lat="47.36325" lon="-1.17845">
        <ele>58.303</ele>
        <time>2020-07-19T11:23:12Z</time>
      </trkpt>
      <trkpt lat="47.36325" lon="-1.17845">
        <ele>58.454</ele>
        <time>2020-07-19T11:23:13Z</time>
      </trkpt>
      <trkpt lat="47.36325" lon="-1.17844">
        <ele>58.19</ele>
        <time>2020-07-19T11:23:14Z</time>
      </trkpt>
      <trkpt lat="47.36325" lon="-1.17845">
        <ele>58.657</ele>
        <time>2020-07-19T11:23:15Z</time>
      </trkpt>
      <trkpt lat="47.36325" lon="-1.17844">
        <ele>57.669</ele>
        <time>2020-07-19T11:23:16Z</time>
      </trkpt>
      <trkpt lat="47.36325" lon="-1.17844">
        <ele>57.195</ele>
        <time>2020-07-19T11:23:17Z</time>
      </trkpt>
      <trkpt lat="47.36325" lon="-1.17844">
        <ele>57.271</ele>
        <time>2020-07-19T11:23:18Z</time>
      </trkpt>
      <trkpt lat="47.36325" lon="-1.17844">
        <ele>57.347</ele>
        <time>2020-07-19T11:23:19Z</time>
      </trkpt>
      <trkpt lat="47.36325" lon="-1.17844">
        <ele>57.439</ele>
        <time>2020-07-19T11:23:20Z</time>
      </trkpt>
      <trkpt lat="47.36325" lon="-1.17844">
        <ele>57.517</ele>
        <time>2020-07-19T11:23:21Z</time>
      </trkpt>
      <trkpt lat="47.36325" lon="-1.17844">
        <ele>58.116</ele>
        <time>2020-07-19T11:23:22Z</time>
      </trkpt>
      <trkpt lat="47.36325" lon="-1.17843">
        <ele>58.778</ele>
        <time>2020-07-19T11:23:23Z</time>
      </trkpt>
      <trkpt lat="47.36325" lon="-1.17842">
        <ele>58.953</ele>
        <time>2020-07-19T11:23:24Z</time>
      </trkpt>
      <trkpt lat="47.36326" lon="-1.17839">
        <ele>59.208</ele>
        <time>2020-07-19T11:23:25Z</time>
      </trkpt>
      <trkpt lat="47.36328" lon="-1.17836">
        <ele>59.527</ele>
        <time>2020-07-19T11:23:26Z</time>
      </trkpt>
      <trkpt lat="47.36329" lon="-1.17832">
        <ele>59.651</ele>
        <time>2020-07-19T11:23:27Z</time>
      </trkpt>
      <trkpt lat="47.36331" lon="-1.17827">
        <ele>58.591</ele>
        <time>2020-07-19T11:23:28Z</time>
      </trkpt>
      <trkpt lat="47.36332" lon="-1.17821">
        <ele>58.913</ele>
        <time>2020-07-19T11:23:29Z</time>
      </trkpt>
      <trkpt lat="47.36333" lon="-1.17816">
        <ele>58.71</ele>
        <time>2020-07-19T11:23:30Z</time>
      </trkpt>
      <trkpt lat="47.36334" lon="-1.17811">
        <ele>59.43</ele>
        <time>2020-07-19T11:23:31Z</time>
      </trkpt>
      <trkpt lat="47.36335" lon="-1.17805">
        <ele>59.3</ele>
        <time>2020-07-19T11:23:32Z</time>
      </trkpt>
      <trkpt lat="47.36336" lon="-1.178">
        <ele>59.342</ele>
        <time>2020-07-19T11:23:33Z</time>
      </trkpt>
      <trkpt lat="47.36338" lon="-1.17794">
        <ele>58.651</ele>
        <time>2020-07-19T11:23:34Z</time>
      </trkpt>
      <trkpt lat="47.3634" lon="-1.17789">
        <ele>57.961</ele>
        <time>2020-07-19T11:23:35Z</time>
      </trkpt>
      <trkpt lat="47.36342" lon="-1.17784">
        <ele>57.658</ele>
        <time>2020-07-19T11:23:36Z</time>
      </trkpt>
      <trkpt lat="47.36344" lon="-1.17778">
        <ele>58.624</ele>
        <time>2020-07-19T11:23:37Z</time>
      </trkpt>
      <trkpt lat="47.36345" lon="-1.17773">
        <ele>58.872</ele>
        <time>2020-07-19T11:23:38Z</time>
      </trkpt>
      <trkpt lat="47.36346" lon="-1.17768">
        <ele>59.719</ele>
        <time>2020-07-19T11:23:39Z</time>
      </trkpt>
      <trkpt lat="47.36347" lon="-1.17763">
        <ele>60.537</ele>
        <time>2020-07-19T11:23:40Z</time>
      </trkpt>
      <trkpt lat="47.36348" lon="-1.17757">
        <ele>61.887</ele>
        <time>2020-07-19T11:23:41Z</time>
      </trkpt>
      <trkpt lat="47.36349" lon="-1.17753">
        <ele>61.834</ele>
        <time>2020-07-19T11:23:42Z</time>
      </trkpt>
      <trkpt lat="47.36351" lon="-1.17748">
        <ele>63.149</ele>
        <time>2020-07-19T11:23:43Z</time>
      </trkpt>
      <trkpt lat="47.36352" lon="-1.17743">
        <ele>62.801</ele>
        <time>2020-07-19T11:23:44Z</time>
      </trkpt>
      <trkpt lat="47.36352" lon="-1.17738">
        <ele>62.97</ele>
        <time>2020-07-19T11:23:45Z</time>
      </trkpt>
      <trkpt lat="47.36352" lon="-1.17734">
        <ele>63.596</ele>
        <time>2020-07-19T11:23:46Z</time>
      </trkpt>
      <trkpt lat="47.36349" lon="-1.1773">
        <ele>62.314</ele>
        <time>2020-07-19T11:23:47Z</time>
      </trkpt>
      <trkpt lat="47.36345" lon="-1.17728">
        <ele>61.916</ele>
        <time>2020-07-19T11:23:48Z</time>
      </trkpt>
      <trkpt lat="47.36343" lon="-1.17728">
        <ele>62.063</ele>
        <time>2020-07-19T11:23:49Z</time>
      </trkpt>
      <trkpt lat="47.36342" lon="-1.17729">
        <ele>60.746</ele>
        <time>2020-07-19T11:23:50Z</time>
      </trkpt>
      <trkpt lat="47.36341" lon="-1.17731">
        <ele>59.433</ele>
        <time>2020-07-19T11:23:51Z</time>
      </trkpt>
      <trkpt lat="47.36342" lon="-1.17733">
        <ele>59.553</ele>
        <time>2020-07-19T11:23:52Z</time>
      </trkpt>
      <trkpt lat="47.36341" lon="-1.17735">
        <ele>59.557</ele>
        <time>2020-07-19T11:23:53Z</time>
      </trkpt>
      <trkpt lat="47.36341" lon="-1.17735">
        <ele>59.006</ele>
        <time>2020-07-19T11:23:54Z</time>
      </trkpt>
      <trkpt lat="47.36339" lon="-1.17735">
        <ele>59.107</ele>
        <time>2020-07-19T11:23:55Z</time>
      </trkpt>
      <trkpt lat="47.36337" lon="-1.17735">
        <ele>57.204</ele>
        <time>2020-07-19T11:23:56Z</time>
      </trkpt>
      <trkpt lat="47.36334" lon="-1.17733">
        <ele>56.88</ele>
        <time>2020-07-19T11:23:57Z</time>
      </trkpt>
      <trkpt lat="47.36331" lon="-1.17732">
        <ele>56.595</ele>
        <time>2020-07-19T11:23:58Z</time>
      </trkpt>
      <trkpt lat="47.36328" lon="-1.1773">
        <ele>56.684</ele>
        <time>2020-07-19T11:23:59Z</time>
      </trkpt>
      <trkpt lat="47.36325" lon="-1.17728">
        <ele>56.165</ele>
        <time>2020-07-19T11:24:00Z</time>
      </trkpt>
      <trkpt lat="47.36322" lon="-1.17726">
        <ele>56.271</ele>
        <time>2020-07-19T11:24:01Z</time>
      </trkpt>
      <trkpt lat="47.36318" lon="-1.17724">
        <ele>56.897</ele>
        <time>2020-07-19T11:24:02Z</time>
      </trkpt>
      <trkpt lat="47.36315" lon="-1.17722">
        <ele>57.447</ele>
        <time>2020-07-19T11:24:03Z</time>
      </trkpt>
      <trkpt lat="47.36312" lon="-1.1772">
        <ele>57.961</ele>
        <time>2020-07-19T11:24:04Z</time>
      </trkpt>
      <trkpt lat="47.36309" lon="-1.17718">
        <ele>58.327</ele>
        <time>2020-07-19T11:24:05Z</time>
      </trkpt>
      <trkpt lat="47.36305" lon="-1.17716">
        <ele>58.021</ele>
        <time>2020-07-19T11:24:06Z</time>
      </trkpt>
      <trkpt lat="47.36302" lon="-1.17714">
        <ele>58.282</ele>
        <time>2020-07-19T11:24:07Z</time>
      </trkpt>
      <trkpt lat="47.36298" lon="-1.17713">
        <ele>58.656</ele>
        <time>2020-07-19T11:24:08Z</time>
      </trkpt>
      <trkpt lat="47.36295" lon="-1.17711">
        <ele>58.703</ele>
        <time>2020-07-19T11:24:09Z</time>
      </trkpt>
      <trkpt lat="47.36291" lon="-1.17709">
        <ele>58.547</ele>
        <time>2020-07-19T11:24:10Z</time>
      </trkpt>
      <trkpt lat="47.36287" lon="-1.17707">
        <ele>58.72</ele>
        <time>2020-07-19T11:24:11Z</time>
      </trkpt>
      <trkpt lat="47.36284" lon="-1.17705">
        <ele>58.418</ele>
        <time>2020-07-19T11:24:12Z</time>
      </trkpt>
      <trkpt lat="47.3628" lon="-1.17703">
        <ele>58.64</ele>
        <time>2020-07-19T11:24:13Z</time>
      </trkpt>
      <trkpt lat="47.36277" lon="-1.17701">
        <ele>59.256</ele>
        <time>2020-07-19T11:24:14Z</time>
      </trkpt>
      <trkpt lat="47.36273" lon="-1.17699">
        <ele>58.731</ele>
        <time>2020-07-19T11:24:15Z</time>
      </trkpt>
      <trkpt lat="47.36269" lon="-1.17697">
        <ele>58.248</ele>
        <time>2020-07-19T11:24:16Z</time>
      </trkpt>
      <trkpt lat="47.36266" lon="-1.17694">
        <ele>57.127</ele>
        <time>2020-07-19T11:24:17Z</time>
      </trkpt>
      <trkpt lat="47.36262" lon="-1.17692">
        <ele>56.836</ele>
        <time>2020-07-19T11:24:18Z</time>
      </trkpt>
      <trkpt lat="47.36259" lon="-1.1769">
        <ele>56.736</ele>
        <time>2020-07-19T11:24:19Z</time>
      </trkpt>
      <trkpt lat="47.36256" lon="-1.17688">
        <ele>56.698</ele>
        <time>2020-07-19T11:24:20Z</time>
      </trkpt>
      <trkpt lat="47.36252" lon="-1.17687">
        <ele>56.716</ele>
        <time>2020-07-19T11:24:21Z</time>
      </trkpt>
      <trkpt lat="47.36249" lon="-1.17684">
        <ele>56.503</ele>
        <time>2020-07-19T11:24:22Z</time>
      </trkpt>
      <trkpt lat="47.36245" lon="-1.17682">
        <ele>55.681</ele>
        <time>2020-07-19T11:24:23Z</time>
      </trkpt>
      <trkpt lat="47.36241" lon="-1.1768">
        <ele>55.842</ele>
        <time>2020-07-19T11:24:24Z</time>
      </trkpt>
      <trkpt lat="47.36238" lon="-1.17678">
        <ele>56.331</ele>
        <time>2020-07-19T11:24:25Z</time>
      </trkpt>
      <trkpt lat="47.36234" lon="-1.17676">
        <ele>55.799</ele>
        <time>2020-07-19T11:24:26Z</time>
      </trkpt>
      <trkpt lat="47.3623" lon="-1.17675">
        <ele>55.048</ele>
        <time>2020-07-19T11:24:27Z</time>
      </trkpt>
      <trkpt lat="47.36227" lon="-1.17673">
        <ele>55.272</ele>
        <time>2020-07-19T11:24:28Z</time>
      </trkpt>
      <trkpt lat="47.36222" lon="-1.1767">
        <ele>55.295</ele>
        <time>2020-07-19T11:24:29Z</time>
      </trkpt>
      <trkpt lat="47.36218" lon="-1.17668">
        <ele>56.212</ele>
        <time>2020-07-19T11:24:30Z</time>
      </trkpt>
      <trkpt lat="47.36214" lon="-1.17666">
        <ele>56.531</ele>
        <time>2020-07-19T11:24:31Z</time>
      </trkpt>
      <trkpt lat="47.3621" lon="-1.17664">
        <ele>56.74</ele>
        <time>2020-07-19T11:24:32Z</time>
      </trkpt>
      <trkpt lat="47.36205" lon="-1.17662">
        <ele>56.686</ele>
        <time>2020-07-19T11:24:33Z</time>
      </trkpt>
      <trkpt lat="47.36201" lon="-1.17659">
        <ele>56.576</ele>
        <time>2020-07-19T11:24:34Z</time>
      </trkpt>
      <trkpt lat="47.36198" lon="-1.17658">
        <ele>56.79</ele>
        <time>2020-07-19T11:24:35Z</time>
      </trkpt>
      <trkpt lat="47.36192" lon="-1.17656">
        <ele>57.065</ele>
        <time>2020-07-19T11:24:36Z</time>
      </trkpt>
      <trkpt lat="47.36188" lon="-1.17654">
        <ele>57.222</ele>
        <time>2020-07-19T11:24:37Z</time>
      </trkpt>
      <trkpt lat="47.36184" lon="-1.17651">
        <ele>55.741</ele>
        <time>2020-07-19T11:24:38Z</time>
      </trkpt>
      <trkpt lat="47.3618" lon="-1.1765">
        <ele>55.835</ele>
        <time>2020-07-19T11:24:39Z</time>
      </trkpt>
      <trkpt lat="47.36175" lon="-1.17648">
        <ele>56.142</ele>
        <time>2020-07-19T11:24:40Z</time>
      </trkpt>
      <trkpt lat="47.3617" lon="-1.17645">
        <ele>57.22</ele>
        <time>2020-07-19T11:24:41Z</time>
      </trkpt>
      <trkpt lat="47.36165" lon="-1.17643">
        <ele>57.691</ele>
        <time>2020-07-19T11:24:42Z</time>
      </trkpt>
      <trkpt lat="47.36161" lon="-1.1764">
        <ele>57.777</ele>
        <time>2020-07-19T11:24:43Z</time>
      </trkpt>
      <trkpt lat="47.36156" lon="-1.17637">
        <ele>57.841</ele>
        <time>2020-07-19T11:24:44Z</time>
      </trkpt>
      <trkpt lat="47.36152" lon="-1.17636">
        <ele>58.453</ele>
        <time>2020-07-19T11:24:45Z</time>
      </trkpt>
      <trkpt lat="47.36147" lon="-1.17633">
        <ele>58.34</ele>
        <time>2020-07-19T11:24:46Z</time>
      </trkpt>
      <trkpt lat="47.36142" lon="-1.1763">
        <ele>58.735</ele>
        <time>2020-07-19T11:24:47Z</time>
      </trkpt>
      <trkpt lat="47.36137" lon="-1.17627">
        <ele>58.998</ele>
        <time>2020-07-19T11:24:48Z</time>
      </trkpt>
      <trkpt lat="47.36133" lon="-1.17625">
        <ele>59.001</ele>
        <time>2020-07-19T11:24:49Z</time>
      </trkpt>
      <trkpt lat="47.36128" lon="-1.17624">
        <ele>59.34</ele>
        <time>2020-07-19T11:24:50Z</time>
      </trkpt>
      <trkpt lat="47.36123" lon="-1.17621">
        <ele>59.03</ele>
        <time>2020-07-19T11:24:51Z</time>
      </trkpt>
      <trkpt lat="47.36119" lon="-1.17619">
        <ele>59.113</ele>
        <time>2020-07-19T11:24:52Z</time>
      </trkpt>
      <trkpt lat="47.36115" lon="-1.17616">
        <ele>59.051</ele>
        <time>2020-07-19T11:24:53Z</time>
      </trkpt>
      <trkpt lat="47.3611" lon="-1.17612">
        <ele>59.258</ele>
        <time>2020-07-19T11:24:54Z</time>
      </trkpt>
      <trkpt lat="47.36106" lon="-1.17609">
        <ele>57.589</ele>
        <time>2020-07-19T11:24:55Z</time>
      </trkpt>
      <trkpt lat="47.36101" lon="-1.17607">
        <ele>57.851</ele>
        <time>2020-07-19T11:24:56Z</time>
      </trkpt>
      <trkpt lat="47.36096" lon="-1.17604">
        <ele>57.757</ele>
        <time>2020-07-19T11:24:57Z</time>
      </trkpt>
      <trkpt lat="47.36092" lon="-1.17601">
        <ele>57.886</ele>
        <time>2020-07-19T11:24:58Z</time>
      </trkpt>
      <trkpt lat="47.36088" lon="-1.17599">
        <ele>58.358</ele>
        <time>2020-07-19T11:24:59Z</time>
      </trkpt>
      <trkpt lat="47.36083" lon="-1.17596">
        <ele>57.738</ele>
        <time>2020-07-19T11:25:00Z</time>
      </trkpt>
      <trkpt lat="47.36078" lon="-1.17593">
        <ele>57.735</ele>
        <time>2020-07-19T11:25:01Z</time>
      </trkpt>
      <trkpt lat="47.36074" lon="-1.1759">
        <ele>57.717</ele>
        <time>2020-07-19T11:25:02Z</time>
      </trkpt>
      <trkpt lat="47.3607" lon="-1.17589">
        <ele>58.491</ele>
        <time>2020-07-19T11:25:03Z</time>
      </trkpt>
      <trkpt lat="47.36067" lon="-1.17587">
        <ele>58.225</ele>
        <time>2020-07-19T11:25:04Z</time>
      </trkpt>
      <trkpt lat="47.36062" lon="-1.17583">
        <ele>58.907</ele>
        <time>2020-07-19T11:25:05Z</time>
      </trkpt>
      <trkpt lat="47.36057" lon="-1.17581">
        <ele>60.032</ele>
        <time>2020-07-19T11:25:06Z</time>
      </trkpt>
      <trkpt lat="47.36053" lon="-1.17578">
        <ele>61.121</ele>
        <time>2020-07-19T11:25:07Z</time>
      </trkpt>
      <trkpt lat="47.36048" lon="-1.17575">
        <ele>61.428</ele>
        <time>2020-07-19T11:25:08Z</time>
      </trkpt>
      <trkpt lat="47.36043" lon="-1.17572">
        <ele>60.194</ele>
        <time>2020-07-19T11:25:09Z</time>
      </trkpt>
      <trkpt lat="47.36038" lon="-1.17569">
        <ele>60.903</ele>
        <time>2020-07-19T11:25:10Z</time>
      </trkpt>
      <trkpt lat="47.36032" lon="-1.17566">
        <ele>61.672</ele>
        <time>2020-07-19T11:25:11Z</time>
      </trkpt>
      <trkpt lat="47.36027" lon="-1.17563">
        <ele>61.345</ele>
        <time>2020-07-19T11:25:12Z</time>
      </trkpt>
      <trkpt lat="47.36022" lon="-1.1756">
        <ele>61.415</ele>
        <time>2020-07-19T11:25:13Z</time>
      </trkpt>
      <trkpt lat="47.36016" lon="-1.17558">
        <ele>60.483</ele>
        <time>2020-07-19T11:25:14Z</time>
      </trkpt>
      <trkpt lat="47.36011" lon="-1.17554">
        <ele>60.386</ele>
        <time>2020-07-19T11:25:15Z</time>
      </trkpt>
      <trkpt lat="47.36006" lon="-1.17551">
        <ele>60.618</ele>
        <time>2020-07-19T11:25:16Z</time>
      </trkpt>
      <trkpt lat="47.36002" lon="-1.17548">
        <ele>60.172</ele>
        <time>2020-07-19T11:25:17Z</time>
      </trkpt>
      <trkpt lat="47.35997" lon="-1.17545">
        <ele>59.769</ele>
        <time>2020-07-19T11:25:18Z</time>
      </trkpt>
      <trkpt lat="47.35992" lon="-1.17543">
        <ele>59.836</ele>
        <time>2020-07-19T11:25:19Z</time>
      </trkpt>
      <trkpt lat="47.35987" lon="-1.17541">
        <ele>60.452</ele>
        <time>2020-07-19T11:25:20Z</time>
      </trkpt>
      <trkpt lat="47.35982" lon="-1.1754">
        <ele>59.93</ele>
        <time>2020-07-19T11:25:21Z</time>
      </trkpt>
      <trkpt lat="47.35976" lon="-1.17538">
        <ele>60.37</ele>
        <time>2020-07-19T11:25:22Z</time>
      </trkpt>
      <trkpt lat="47.35971" lon="-1.17535">
        <ele>60.767</ele>
        <time>2020-07-19T11:25:23Z</time>
      </trkpt>
      <trkpt lat="47.35966" lon="-1.17532">
        <ele>60.974</ele>
        <time>2020-07-19T11:25:24Z</time>
      </trkpt>
      <trkpt lat="47.3596" lon="-1.17529">
        <ele>60.734</ele>
        <time>2020-07-19T11:25:25Z</time>
      </trkpt>
      <trkpt lat="47.35955" lon="-1.17528">
        <ele>60.339</ele>
        <time>2020-07-19T11:25:26Z</time>
      </trkpt>
      <trkpt lat="47.3595" lon="-1.17526">
        <ele>60.22</ele>
        <time>2020-07-19T11:25:27Z</time>
      </trkpt>
      <trkpt lat="47.35945" lon="-1.17523">
        <ele>60.255</ele>
        <time>2020-07-19T11:25:28Z</time>
      </trkpt>
      <trkpt lat="47.35939" lon="-1.17521">
        <ele>60.429</ele>
        <time>2020-07-19T11:25:29Z</time>
      </trkpt>
      <trkpt lat="47.35935" lon="-1.17518">
        <ele>59.989</ele>
        <time>2020-07-19T11:25:30Z</time>
      </trkpt>
      <trkpt lat="47.35929" lon="-1.17519">
        <ele>58.687</ele>
        <time>2020-07-19T11:25:31Z</time>
      </trkpt>
      <trkpt lat="47.35923" lon="-1.17516">
        <ele>58.102</ele>
        <time>2020-07-19T11:25:32Z</time>
      </trkpt>
      <trkpt lat="47.35918" lon="-1.17512">
        <ele>58.385</ele>
        <time>2020-07-19T11:25:33Z</time>
      </trkpt>
      <trkpt lat="47.35912" lon="-1.1751">
        <ele>58.276</ele>
        <time>2020-07-19T11:25:34Z</time>
      </trkpt>
      <trkpt lat="47.35907" lon="-1.17507">
        <ele>58.3</ele>
        <time>2020-07-19T11:25:35Z</time>
      </trkpt>
      <trkpt lat="47.35901" lon="-1.17504">
        <ele>58.384</ele>
        <time>2020-07-19T11:25:36Z</time>
      </trkpt>
      <trkpt lat="47.35895" lon="-1.17502">
        <ele>58.374</ele>
        <time>2020-07-19T11:25:37Z</time>
      </trkpt>
      <trkpt lat="47.35889" lon="-1.17499">
        <ele>58.736</ele>
        <time>2020-07-19T11:25:38Z</time>
      </trkpt>
      <trkpt lat="47.35884" lon="-1.17496">
        <ele>58.217</ele>
        <time>2020-07-19T11:25:39Z</time>
      </trkpt>
      <trkpt lat="47.35878" lon="-1.17491">
        <ele>58.156</ele>
        <time>2020-07-19T11:25:40Z</time>
      </trkpt>
      <trkpt lat="47.35872" lon="-1.17489">
        <ele>58.184</ele>
        <time>2020-07-19T11:25:41Z</time>
      </trkpt>
      <trkpt lat="47.35867" lon="-1.17484">
        <ele>56.047</ele>
        <time>2020-07-19T11:25:42Z</time>
      </trkpt>
      <trkpt lat="47.35861" lon="-1.17481">
        <ele>56.122</ele>
        <time>2020-07-19T11:25:43Z</time>
      </trkpt>
      <trkpt lat="47.35855" lon="-1.17479">
        <ele>56.339</ele>
        <time>2020-07-19T11:25:44Z</time>
      </trkpt>
      <trkpt lat="47.35849" lon="-1.17476">
        <ele>55.977</ele>
        <time>2020-07-19T11:25:45Z</time>
      </trkpt>
      <trkpt lat="47.35844" lon="-1.17474">
        <ele>56.071</ele>
        <time>2020-07-19T11:25:46Z</time>
      </trkpt>
      <trkpt lat="47.35838" lon="-1.17471">
        <ele>55.929</ele>
        <time>2020-07-19T11:25:47Z</time>
      </trkpt>
      <trkpt lat="47.35833" lon="-1.17469">
        <ele>56.27</ele>
        <time>2020-07-19T11:25:48Z</time>
      </trkpt>
      <trkpt lat="47.35827" lon="-1.17466">
        <ele>56.742</ele>
        <time>2020-07-19T11:25:49Z</time>
      </trkpt>
      <trkpt lat="47.35821" lon="-1.17463">
        <ele>56.983</ele>
        <time>2020-07-19T11:25:50Z</time>
      </trkpt>
      <trkpt lat="47.35817" lon="-1.1746">
        <ele>55.86</ele>
        <time>2020-07-19T11:25:51Z</time>
      </trkpt>
      <trkpt lat="47.3581" lon="-1.17457">
        <ele>54.852</ele>
        <time>2020-07-19T11:25:52Z</time>
      </trkpt>
      <trkpt lat="47.35805" lon="-1.17454">
        <ele>54.999</ele>
        <time>2020-07-19T11:25:53Z</time>
      </trkpt>
      <trkpt lat="47.35801" lon="-1.17453">
        <ele>54.282</ele>
        <time>2020-07-19T11:25:54Z</time>
      </trkpt>
      <trkpt lat="47.35795" lon="-1.1745">
        <ele>53.743</ele>
        <time>2020-07-19T11:25:55Z</time>
      </trkpt>
      <trkpt lat="47.3579" lon="-1.17448">
        <ele>53.47</ele>
        <time>2020-07-19T11:25:56Z</time>
      </trkpt>
      <trkpt lat="47.35786" lon="-1.17446">
        <ele>53.19</ele>
        <time>2020-07-19T11:25:57Z</time>
      </trkpt>
      <trkpt lat="47.35781" lon="-1.17443">
        <ele>53.305</ele>
        <time>2020-07-19T11:25:58Z</time>
      </trkpt>
      <trkpt lat="47.35777" lon="-1.17441">
        <ele>54.283</ele>
        <time>2020-07-19T11:25:59Z</time>
      </trkpt>
      <trkpt lat="47.35772" lon="-1.17439">
        <ele>53.776</ele>
        <time>2020-07-19T11:26:00Z</time>
      </trkpt>
      <trkpt lat="47.35768" lon="-1.17437">
        <ele>53.56</ele>
        <time>2020-07-19T11:26:01Z</time>
      </trkpt>
      <trkpt lat="47.35765" lon="-1.17433">
        <ele>52.674</ele>
        <time>2020-07-19T11:26:02Z</time>
      </trkpt>
      <trkpt lat="47.35761" lon="-1.17431">
        <ele>53.058</ele>
        <time>2020-07-19T11:26:03Z</time>
      </trkpt>
      <trkpt lat="47.35757" lon="-1.17428">
        <ele>52.796</ele>
        <time>2020-07-19T11:26:04Z</time>
      </trkpt>
      <trkpt lat="47.35754" lon="-1.17426">
        <ele>53.297</ele>
        <time>2020-07-19T11:26:05Z</time>
      </trkpt>
      <trkpt lat="47.35752" lon="-1.17424">
        <ele>52.47</ele>
        <time>2020-07-19T11:26:06Z</time>
      </trkpt>
      <trkpt lat="47.35749" lon="-1.17423">
        <ele>53.102</ele>
        <time>2020-07-19T11:26:07Z</time>
      </trkpt>
      <trkpt lat="47.35748" lon="-1.17418">
        <ele>53.337</ele>
        <time>2020-07-19T11:26:08Z</time>
      </trkpt>
      <trkpt lat="47.35749" lon="-1.17412">
        <ele>53.412</ele>
        <time>2020-07-19T11:26:09Z</time>
      </trkpt>
      <trkpt lat="47.35751" lon="-1.17407">
        <ele>52.974</ele>
        <time>2020-07-19T11:26:10Z</time>
      </trkpt>
      <trkpt lat="47.35753" lon="-1.17403">
        <ele>52.887</ele>
        <time>2020-07-19T11:26:11Z</time>
      </trkpt>
      <trkpt lat="47.35756" lon="-1.17397">
        <ele>52.368</ele>
        <time>2020-07-19T11:26:12Z</time>
      </trkpt>
      <trkpt lat="47.35758" lon="-1.17389">
        <ele>52.071</ele>
        <time>2020-07-19T11:26:13Z</time>
      </trkpt>
      <trkpt lat="47.35761" lon="-1.17382">
        <ele>51.84</ele>
        <time>2020-07-19T11:26:14Z</time>
      </trkpt>
      <trkpt lat="47.35765" lon="-1.17374">
        <ele>52.27</ele>
        <time>2020-07-19T11:26:15Z</time>
      </trkpt>
      <trkpt lat="47.35769" lon="-1.17366">
        <ele>52.03</ele>
        <time>2020-07-19T11:26:16Z</time>
      </trkpt>
      <trkpt lat="47.35772" lon="-1.17359">
        <ele>51.933</ele>
        <time>2020-07-19T11:26:17Z</time>
      </trkpt>
      <trkpt lat="47.35775" lon="-1.17353">
        <ele>51.799</ele>
        <time>2020-07-19T11:26:18Z</time>
      </trkpt>
      <trkpt lat="47.35779" lon="-1.17345">
        <ele>51.795</ele>
        <time>2020-07-19T11:26:19Z</time>
      </trkpt>
      <trkpt lat="47.35782" lon="-1.17337">
        <ele>52.229</ele>
        <time>2020-07-19T11:26:20Z</time>
      </trkpt>
      <trkpt lat="47.35785" lon="-1.1733">
        <ele>51.941</ele>
        <time>2020-07-19T11:26:21Z</time>
      </trkpt>
      <trkpt lat="47.35786" lon="-1.17324">
        <ele>51.76</ele>
        <time>2020-07-19T11:26:22Z</time>
      </trkpt>
      <trkpt lat="47.35788" lon="-1.17319">
        <ele>52.731</ele>
        <time>2020-07-19T11:26:23Z</time>
      </trkpt>
      <trkpt lat="47.35791" lon="-1.17314">
        <ele>52.405</ele>
        <time>2020-07-19T11:26:24Z</time>
      </trkpt>
      <trkpt lat="47.35794" lon="-1.17309">
        <ele>52.439</ele>
        <time>2020-07-19T11:26:25Z</time>
      </trkpt>
      <trkpt lat="47.35797" lon="-1.17304">
        <ele>52.283</ele>
        <time>2020-07-19T11:26:26Z</time>
      </trkpt>
      <trkpt lat="47.358" lon="-1.17299">
        <ele>52.357</ele>
        <time>2020-07-19T11:26:27Z</time>
      </trkpt>
      <trkpt lat="47.35803" lon="-1.17293">
        <ele>52.539</ele>
        <time>2020-07-19T11:26:28Z</time>
      </trkpt>
      <trkpt lat="47.35804" lon="-1.17287">
        <ele>52.925</ele>
        <time>2020-07-19T11:26:29Z</time>
      </trkpt>
      <trkpt lat="47.35806" lon="-1.17282">
        <ele>53.245</ele>
        <time>2020-07-19T11:26:30Z</time>
      </trkpt>
      <trkpt lat="47.35808" lon="-1.17276">
        <ele>53.131</ele>
        <time>2020-07-19T11:26:31Z</time>
      </trkpt>
      <trkpt lat="47.3581" lon="-1.17271">
        <ele>53.168</ele>
        <time>2020-07-19T11:26:32Z</time>
      </trkpt>
      <trkpt lat="47.35813" lon="-1.17265">
        <ele>53.468</ele>
        <time>2020-07-19T11:26:33Z</time>
      </trkpt>
      <trkpt lat="47.35816" lon="-1.1726">
        <ele>53.127</ele>
        <time>2020-07-19T11:26:34Z</time>
      </trkpt>
      <trkpt lat="47.35819" lon="-1.17255">
        <ele>52.931</ele>
        <time>2020-07-19T11:26:35Z</time>
      </trkpt>
      <trkpt lat="47.35822" lon="-1.17249">
        <ele>53.031</ele>
        <time>2020-07-19T11:26:36Z</time>
      </trkpt>
      <trkpt lat="47.35826" lon="-1.17244">
        <ele>53.388</ele>
        <time>2020-07-19T11:26:37Z</time>
      </trkpt>
      <trkpt lat="47.35829" lon="-1.17238">
        <ele>53.976</ele>
        <time>2020-07-19T11:26:38Z</time>
      </trkpt>
      <trkpt lat="47.35833" lon="-1.17232">
        <ele>54.394</ele>
        <time>2020-07-19T11:26:39Z</time>
      </trkpt>
      <trkpt lat="47.35836" lon="-1.17227">
        <ele>54.392</ele>
        <time>2020-07-19T11:26:40Z</time>
      </trkpt>
      <trkpt lat="47.3584" lon="-1.17221">
        <ele>54.647</ele>
        <time>2020-07-19T11:26:41Z</time>
      </trkpt>
      <trkpt lat="47.35844" lon="-1.17217">
        <ele>54.407</ele>
        <time>2020-07-19T11:26:42Z</time>
      </trkpt>
      <trkpt lat="47.35848" lon="-1.17212">
        <ele>54.534</ele>
        <time>2020-07-19T11:26:43Z</time>
      </trkpt>
      <trkpt lat="47.35852" lon="-1.17208">
        <ele>54.462</ele>
        <time>2020-07-19T11:26:44Z</time>
      </trkpt>
      <trkpt lat="47.35856" lon="-1.17203">
        <ele>54.599</ele>
        <time>2020-07-19T11:26:45Z</time>
      </trkpt>
      <trkpt lat="47.35861" lon="-1.17199">
        <ele>54.909</ele>
        <time>2020-07-19T11:26:46Z</time>
      </trkpt>
      <trkpt lat="47.35867" lon="-1.17194">
        <ele>55.224</ele>
        <time>2020-07-19T11:26:47Z</time>
      </trkpt>
      <trkpt lat="47.35871" lon="-1.1719">
        <ele>55.295</ele>
        <time>2020-07-19T11:26:48Z</time>
      </trkpt>
      <trkpt lat="47.35877" lon="-1.17185">
        <ele>55.752</ele>
        <time>2020-07-19T11:26:49Z</time>
      </trkpt>
      <trkpt lat="47.35882" lon="-1.17181">
        <ele>56.116</ele>
        <time>2020-07-19T11:26:50Z</time>
      </trkpt>
      <trkpt lat="47.35887" lon="-1.17177">
        <ele>55.919</ele>
        <time>2020-07-19T11:26:51Z</time>
      </trkpt>
      <trkpt lat="47.35893" lon="-1.17173">
        <ele>55.912</ele>
        <time>2020-07-19T11:26:52Z</time>
      </trkpt>
      <trkpt lat="47.35897" lon="-1.17168">
        <ele>55.668</ele>
        <time>2020-07-19T11:26:53Z</time>
      </trkpt>
      <trkpt lat="47.35902" lon="-1.17164">
        <ele>55.407</ele>
        <time>2020-07-19T11:26:54Z</time>
      </trkpt>
      <trkpt lat="47.35907" lon="-1.17159">
        <ele>55.595</ele>
        <time>2020-07-19T11:26:55Z</time>
      </trkpt>
      <trkpt lat="47.35912" lon="-1.17155">
        <ele>55.904</ele>
        <time>2020-07-19T11:26:56Z</time>
      </trkpt>
      <trkpt lat="47.35917" lon="-1.1715">
        <ele>56.099</ele>
        <time>2020-07-19T11:26:57Z</time>
      </trkpt>
      <trkpt lat="47.35921" lon="-1.17145">
        <ele>56.15</ele>
        <time>2020-07-19T11:26:58Z</time>
      </trkpt>
      <trkpt lat="47.35926" lon="-1.1714">
        <ele>56.177</ele>
        <time>2020-07-19T11:26:59Z</time>
      </trkpt>
      <trkpt lat="47.35931" lon="-1.17134">
        <ele>56.044</ele>
        <time>2020-07-19T11:27:00Z</time>
      </trkpt>
      <trkpt lat="47.35934" lon="-1.17128">
        <ele>56.101</ele>
        <time>2020-07-19T11:27:01Z</time>
      </trkpt>
      <trkpt lat="47.35938" lon="-1.17121">
        <ele>56.239</ele>
        <time>2020-07-19T11:27:02Z</time>
      </trkpt>
      <trkpt lat="47.35941" lon="-1.17114">
        <ele>56.325</ele>
        <time>2020-07-19T11:27:03Z</time>
      </trkpt>
      <trkpt lat="47.35945" lon="-1.17107">
        <ele>56.445</ele>
        <time>2020-07-19T11:27:04Z</time>
      </trkpt>
      <trkpt lat="47.35948" lon="-1.17099">
        <ele>56.716</ele>
        <time>2020-07-19T11:27:05Z</time>
      </trkpt>
      <trkpt lat="47.3595" lon="-1.17092">
        <ele>56.708</ele>
        <time>2020-07-19T11:27:06Z</time>
      </trkpt>
      <trkpt lat="47.35952" lon="-1.17084">
        <ele>56.71</ele>
        <time>2020-07-19T11:27:07Z</time>
      </trkpt>
      <trkpt lat="47.35954" lon="-1.17076">
        <ele>56.958</ele>
        <time>2020-07-19T11:27:08Z</time>
      </trkpt>
      <trkpt lat="47.35956" lon="-1.17068">
        <ele>57.047</ele>
        <time>2020-07-19T11:27:09Z</time>
      </trkpt>
      <trkpt lat="47.35958" lon="-1.17059">
        <ele>57.397</ele>
        <time>2020-07-19T11:27:10Z</time>
      </trkpt>
      <trkpt lat="47.3596" lon="-1.17051">
        <ele>57.233</ele>
        <time>2020-07-19T11:27:11Z</time>
      </trkpt>
      <trkpt lat="47.35962" lon="-1.17043">
        <ele>57.421</ele>
        <time>2020-07-19T11:27:12Z</time>
      </trkpt>
      <trkpt lat="47.35963" lon="-1.17035">
        <ele>57.685</ele>
        <time>2020-07-19T11:27:13Z</time>
      </trkpt>
      <trkpt lat="47.35965" lon="-1.17027">
        <ele>57.758</ele>
        <time>2020-07-19T11:27:14Z</time>
      </trkpt>
      <trkpt lat="47.35968" lon="-1.17019">
        <ele>57.346</ele>
        <time>2020-07-19T11:27:15Z</time>
      </trkpt>
      <trkpt lat="47.3597" lon="-1.17012">
        <ele>57.568</ele>
        <time>2020-07-19T11:27:16Z</time>
      </trkpt>
      <trkpt lat="47.35972" lon="-1.17004">
        <ele>57.803</ele>
        <time>2020-07-19T11:27:17Z</time>
      </trkpt>
      <trkpt lat="47.35974" lon="-1.16996">
        <ele>57.89</ele>
        <time>2020-07-19T11:27:18Z</time>
      </trkpt>
      <trkpt lat="47.35975" lon="-1.16988">
        <ele>57.784</ele>
        <time>2020-07-19T11:27:19Z</time>
      </trkpt>
      <trkpt lat="47.35977" lon="-1.1698">
        <ele>57.876</ele>
        <time>2020-07-19T11:27:20Z</time>
      </trkpt>
      <trkpt lat="47.35979" lon="-1.16972">
        <ele>57.908</ele>
        <time>2020-07-19T11:27:21Z</time>
      </trkpt>
      <trkpt lat="47.3598" lon="-1.16963">
        <ele>57.797</ele>
        <time>2020-07-19T11:27:22Z</time>
      </trkpt>
      <trkpt lat="47.35982" lon="-1.16955">
        <ele>57.454</ele>
        <time>2020-07-19T11:27:23Z</time>
      </trkpt>
      <trkpt lat="47.35984" lon="-1.16946">
        <ele>57.438</ele>
        <time>2020-07-19T11:27:24Z</time>
      </trkpt>
      <trkpt lat="47.35985" lon="-1.16938">
        <ele>57.216</ele>
        <time>2020-07-19T11:27:25Z</time>
      </trkpt>
      <trkpt lat="47.35986" lon="-1.16929">
        <ele>56.528</ele>
        <time>2020-07-19T11:27:26Z</time>
      </trkpt>
      <trkpt lat="47.35988" lon="-1.16921">
        <ele>56.599</ele>
        <time>2020-07-19T11:27:27Z</time>
      </trkpt>
      <trkpt lat="47.3599" lon="-1.16913">
        <ele>56.392</ele>
        <time>2020-07-19T11:27:28Z</time>
      </trkpt>
      <trkpt lat="47.35992" lon="-1.16905">
        <ele>56.986</ele>
        <time>2020-07-19T11:27:29Z</time>
      </trkpt>
      <trkpt lat="47.35995" lon="-1.16897">
        <ele>57.114</ele>
        <time>2020-07-19T11:27:30Z</time>
      </trkpt>
      <trkpt lat="47.35998" lon="-1.16889">
        <ele>57.235</ele>
        <time>2020-07-19T11:27:31Z</time>
      </trkpt>
      <trkpt lat="47.36001" lon="-1.16882">
        <ele>57.504</ele>
        <time>2020-07-19T11:27:32Z</time>
      </trkpt>
      <trkpt lat="47.36004" lon="-1.16875">
        <ele>57.449</ele>
        <time>2020-07-19T11:27:33Z</time>
      </trkpt>
      <trkpt lat="47.36008" lon="-1.16869">
        <ele>57.927</ele>
        <time>2020-07-19T11:27:34Z</time>
      </trkpt>
      <trkpt lat="47.36011" lon="-1.16863">
        <ele>57.215</ele>
        <time>2020-07-19T11:27:35Z</time>
      </trkpt>
      <trkpt lat="47.36016" lon="-1.16856">
        <ele>57.425</ele>
        <time>2020-07-19T11:27:36Z</time>
      </trkpt>
      <trkpt lat="47.36019" lon="-1.1685">
        <ele>57.325</ele>
        <time>2020-07-19T11:27:37Z</time>
      </trkpt>
      <trkpt lat="47.36023" lon="-1.16842">
        <ele>56.326</ele>
        <time>2020-07-19T11:27:38Z</time>
      </trkpt>
      <trkpt lat="47.36027" lon="-1.16835">
        <ele>56.211</ele>
        <time>2020-07-19T11:27:39Z</time>
      </trkpt>
      <trkpt lat="47.36031" lon="-1.16828">
        <ele>55.675</ele>
        <time>2020-07-19T11:27:40Z</time>
      </trkpt>
      <trkpt lat="47.36035" lon="-1.16822">
        <ele>55.943</ele>
        <time>2020-07-19T11:27:41Z</time>
      </trkpt>
      <trkpt lat="47.36039" lon="-1.16817">
        <ele>56.616</ele>
        <time>2020-07-19T11:27:42Z</time>
      </trkpt>
      <trkpt lat="47.36044" lon="-1.16811">
        <ele>56.088</ele>
        <time>2020-07-19T11:27:43Z</time>
      </trkpt>
      <trkpt lat="47.36048" lon="-1.16806">
        <ele>55.69</ele>
        <time>2020-07-19T11:27:44Z</time>
      </trkpt>
      <trkpt lat="47.36053" lon="-1.16799">
        <ele>54.926</ele>
        <time>2020-07-19T11:27:45Z</time>
      </trkpt>
      <trkpt lat="47.36057" lon="-1.16793">
        <ele>54.612</ele>
        <time>2020-07-19T11:27:46Z</time>
      </trkpt>
      <trkpt lat="47.36062" lon="-1.16787">
        <ele>54.412</ele>
        <time>2020-07-19T11:27:47Z</time>
      </trkpt>
      <trkpt lat="47.36067" lon="-1.16781">
        <ele>55.351</ele>
        <time>2020-07-19T11:27:48Z</time>
      </trkpt>
      <trkpt lat="47.36072" lon="-1.16775">
        <ele>55.697</ele>
        <time>2020-07-19T11:27:49Z</time>
      </trkpt>
      <trkpt lat="47.36077" lon="-1.16769">
        <ele>55.909</ele>
        <time>2020-07-19T11:27:50Z</time>
      </trkpt>
      <trkpt lat="47.36081" lon="-1.16764">
        <ele>55.657</ele>
        <time>2020-07-19T11:27:51Z</time>
      </trkpt>
      <trkpt lat="47.36086" lon="-1.16758">
        <ele>55.684</ele>
        <time>2020-07-19T11:27:52Z</time>
      </trkpt>
      <trkpt lat="47.3609" lon="-1.16752">
        <ele>55.01</ele>
        <time>2020-07-19T11:27:53Z</time>
      </trkpt>
      <trkpt lat="47.36095" lon="-1.16747">
        <ele>55.475</ele>
        <time>2020-07-19T11:27:54Z</time>
      </trkpt>
      <trkpt lat="47.361" lon="-1.16741">
        <ele>56.062</ele>
        <time>2020-07-19T11:27:55Z</time>
      </trkpt>
      <trkpt lat="47.36105" lon="-1.16735">
        <ele>56.403</ele>
        <time>2020-07-19T11:27:56Z</time>
      </trkpt>
      <trkpt lat="47.3611" lon="-1.1673">
        <ele>56.642</ele>
        <time>2020-07-19T11:27:57Z</time>
      </trkpt>
      <trkpt lat="47.36115" lon="-1.16724">
        <ele>56.905</ele>
        <time>2020-07-19T11:27:58Z</time>
      </trkpt>
      <trkpt lat="47.3612" lon="-1.16718">
        <ele>56.833</ele>
        <time>2020-07-19T11:27:59Z</time>
      </trkpt>
      <trkpt lat="47.36126" lon="-1.16713">
        <ele>56.838</ele>
        <time>2020-07-19T11:28:00Z</time>
      </trkpt>
      <trkpt lat="47.36129" lon="-1.16707">
        <ele>56.376</ele>
        <time>2020-07-19T11:28:01Z</time>
      </trkpt>
      <trkpt lat="47.36135" lon="-1.16701">
        <ele>56.199</ele>
        <time>2020-07-19T11:28:02Z</time>
      </trkpt>
      <trkpt lat="47.36139" lon="-1.16695">
        <ele>55.84</ele>
        <time>2020-07-19T11:28:03Z</time>
      </trkpt>
      <trkpt lat="47.36144" lon="-1.16689">
        <ele>55.869</ele>
        <time>2020-07-19T11:28:04Z</time>
      </trkpt>
      <trkpt lat="47.36148" lon="-1.16683">
        <ele>55.723</ele>
        <time>2020-07-19T11:28:05Z</time>
      </trkpt>
      <trkpt lat="47.36152" lon="-1.16678">
        <ele>56.088</ele>
        <time>2020-07-19T11:28:06Z</time>
      </trkpt>
      <trkpt lat="47.36157" lon="-1.16672">
        <ele>56.256</ele>
        <time>2020-07-19T11:28:07Z</time>
      </trkpt>
      <trkpt lat="47.36162" lon="-1.16666">
        <ele>56.382</ele>
        <time>2020-07-19T11:28:08Z</time>
      </trkpt>
      <trkpt lat="47.36168" lon="-1.1666">
        <ele>54.958</ele>
        <time>2020-07-19T11:28:09Z</time>
      </trkpt>
      <trkpt lat="47.36173" lon="-1.16655">
        <ele>54.556</ele>
        <time>2020-07-19T11:28:10Z</time>
      </trkpt>
      <trkpt lat="47.36177" lon="-1.1665">
        <ele>55.413</ele>
        <time>2020-07-19T11:28:11Z</time>
      </trkpt>
      <trkpt lat="47.36182" lon="-1.16643">
        <ele>54.542</ele>
        <time>2020-07-19T11:28:12Z</time>
      </trkpt>
      <trkpt lat="47.36187" lon="-1.16637">
        <ele>54.709</ele>
        <time>2020-07-19T11:28:13Z</time>
      </trkpt>
      <trkpt lat="47.36192" lon="-1.1663">
        <ele>54.706</ele>
        <time>2020-07-19T11:28:14Z</time>
      </trkpt>
      <trkpt lat="47.36197" lon="-1.16625">
        <ele>54.492</ele>
        <time>2020-07-19T11:28:15Z</time>
      </trkpt>
      <trkpt lat="47.36201" lon="-1.16619">
        <ele>54.638</ele>
        <time>2020-07-19T11:28:16Z</time>
      </trkpt>
      <trkpt lat="47.36207" lon="-1.16614">
        <ele>54.595</ele>
        <time>2020-07-19T11:28:17Z</time>
      </trkpt>
      <trkpt lat="47.36211" lon="-1.1661">
        <ele>54.241</ele>
        <time>2020-07-19T11:28:18Z</time>
      </trkpt>
      <trkpt lat="47.36216" lon="-1.16603">
        <ele>54.28</ele>
        <time>2020-07-19T11:28:19Z</time>
      </trkpt>
      <trkpt lat="47.36221" lon="-1.16598">
        <ele>54.819</ele>
        <time>2020-07-19T11:28:20Z</time>
      </trkpt>
      <trkpt lat="47.36225" lon="-1.16593">
        <ele>54.599</ele>
        <time>2020-07-19T11:28:21Z</time>
      </trkpt>
      <trkpt lat="47.3623" lon="-1.16587">
        <ele>54.236</ele>
        <time>2020-07-19T11:28:22Z</time>
      </trkpt>
      <trkpt lat="47.36234" lon="-1.16581">
        <ele>54.498</ele>
        <time>2020-07-19T11:28:23Z</time>
      </trkpt>
      <trkpt lat="47.36239" lon="-1.16576">
        <ele>54.668</ele>
        <time>2020-07-19T11:28:24Z</time>
      </trkpt>
      <trkpt lat="47.36245" lon="-1.16571">
        <ele>54.63</ele>
        <time>2020-07-19T11:28:25Z</time>
      </trkpt>
      <trkpt lat="47.3625" lon="-1.16566">
        <ele>54.541</ele>
        <time>2020-07-19T11:28:26Z</time>
      </trkpt>
      <trkpt lat="47.36254" lon="-1.16562">
        <ele>55.526</ele>
        <time>2020-07-19T11:28:27Z</time>
      </trkpt>
      <trkpt lat="47.36259" lon="-1.16558">
        <ele>55.835</ele>
        <time>2020-07-19T11:28:28Z</time>
      </trkpt>
      <trkpt lat="47.36265" lon="-1.16554">
        <ele>56.199</ele>
        <time>2020-07-19T11:28:29Z</time>
      </trkpt>
      <trkpt lat="47.3627" lon="-1.16549">
        <ele>56.503</ele>
        <time>2020-07-19T11:28:30Z</time>
      </trkpt>
      <trkpt lat="47.36275" lon="-1.16545">
        <ele>55.614</ele>
        <time>2020-07-19T11:28:31Z</time>
      </trkpt>
      <trkpt lat="47.36281" lon="-1.16541">
        <ele>56.799</ele>
        <time>2020-07-19T11:28:32Z</time>
      </trkpt>
      <trkpt lat="47.36287" lon="-1.16536">
        <ele>55.798</ele>
        <time>2020-07-19T11:28:33Z</time>
      </trkpt>
      <trkpt lat="47.36292" lon="-1.1653">
        <ele>56.457</ele>
        <time>2020-07-19T11:28:34Z</time>
      </trkpt>
      <trkpt lat="47.36297" lon="-1.16523">
        <ele>56.491</ele>
        <time>2020-07-19T11:28:35Z</time>
      </trkpt>
      <trkpt lat="47.363" lon="-1.16516">
        <ele>55.884</ele>
        <time>2020-07-19T11:28:36Z</time>
      </trkpt>
      <trkpt lat="47.36304" lon="-1.16508">
        <ele>56.031</ele>
        <time>2020-07-19T11:28:37Z</time>
      </trkpt>
      <trkpt lat="47.36307" lon="-1.16499">
        <ele>55.714</ele>
        <time>2020-07-19T11:28:38Z</time>
      </trkpt>
      <trkpt lat="47.36309" lon="-1.1649">
        <ele>55.904</ele>
        <time>2020-07-19T11:28:39Z</time>
      </trkpt>
      <trkpt lat="47.36312" lon="-1.16482">
        <ele>55.728</ele>
        <time>2020-07-19T11:28:40Z</time>
      </trkpt>
      <trkpt lat="47.36316" lon="-1.16474">
        <ele>56.258</ele>
        <time>2020-07-19T11:28:41Z</time>
      </trkpt>
      <trkpt lat="47.36319" lon="-1.16466">
        <ele>56.126</ele>
        <time>2020-07-19T11:28:42Z</time>
      </trkpt>
      <trkpt lat="47.36322" lon="-1.16458">
        <ele>56.162</ele>
        <time>2020-07-19T11:28:43Z</time>
      </trkpt>
      <trkpt lat="47.36325" lon="-1.16451">
        <ele>55.419</ele>
        <time>2020-07-19T11:28:44Z</time>
      </trkpt>
      <trkpt lat="47.36329" lon="-1.16445">
        <ele>55.576</ele>
        <time>2020-07-19T11:28:45Z</time>
      </trkpt>
      <trkpt lat="47.36332" lon="-1.16439">
        <ele>55.759</ele>
        <time>2020-07-19T11:28:46Z</time>
      </trkpt>
      <trkpt lat="47.36336" lon="-1.16432">
        <ele>55.129</ele>
        <time>2020-07-19T11:28:47Z</time>
      </trkpt>
      <trkpt lat="47.3634" lon="-1.16425">
        <ele>55.655</ele>
        <time>2020-07-19T11:28:48Z</time>
      </trkpt>
      <trkpt lat="47.36345" lon="-1.16419">
        <ele>55.935</ele>
        <time>2020-07-19T11:28:49Z</time>
      </trkpt>
      <trkpt lat="47.36349" lon="-1.16412">
        <ele>54.775</ele>
        <time>2020-07-19T11:28:50Z</time>
      </trkpt>
      <trkpt lat="47.36355" lon="-1.16405">
        <ele>54.739</ele>
        <time>2020-07-19T11:28:51Z</time>
      </trkpt>
      <trkpt lat="47.36359" lon="-1.16399">
        <ele>54.232</ele>
        <time>2020-07-19T11:28:52Z</time>
      </trkpt>
      <trkpt lat="47.36362" lon="-1.16393">
        <ele>54.431</ele>
        <time>2020-07-19T11:28:53Z</time>
      </trkpt>
      <trkpt lat="47.36367" lon="-1.16386">
        <ele>53.846</ele>
        <time>2020-07-19T11:28:54Z</time>
      </trkpt>
      <trkpt lat="47.36372" lon="-1.1638">
        <ele>53.156</ele>
        <time>2020-07-19T11:28:55Z</time>
      </trkpt>
      <trkpt lat="47.36375" lon="-1.16374">
        <ele>53.52</ele>
        <time>2020-07-19T11:28:56Z</time>
      </trkpt>
      <trkpt lat="47.3638" lon="-1.16366">
        <ele>53.179</ele>
        <time>2020-07-19T11:28:57Z</time>
      </trkpt>
      <trkpt lat="47.36384" lon="-1.16361">
        <ele>52.854</ele>
        <time>2020-07-19T11:28:58Z</time>
      </trkpt>
      <trkpt lat="47.36389" lon="-1.16354">
        <ele>53.407</ele>
        <time>2020-07-19T11:28:59Z</time>
      </trkpt>
      <trkpt lat="47.36393" lon="-1.16347">
        <ele>53.481</ele>
        <time>2020-07-19T11:29:00Z</time>
      </trkpt>
      <trkpt lat="47.36397" lon="-1.16341">
        <ele>53.865</ele>
        <time>2020-07-19T11:29:01Z</time>
      </trkpt>
      <trkpt lat="47.36401" lon="-1.16333">
        <ele>54.335</ele>
        <time>2020-07-19T11:29:02Z</time>
      </trkpt>
      <trkpt lat="47.36404" lon="-1.16325">
        <ele>55.243</ele>
        <time>2020-07-19T11:29:03Z</time>
      </trkpt>
      <trkpt lat="47.36407" lon="-1.16317">
        <ele>55.811</ele>
        <time>2020-07-19T11:29:04Z</time>
      </trkpt>
      <trkpt lat="47.3641" lon="-1.16309">
        <ele>55.985</ele>
        <time>2020-07-19T11:29:05Z</time>
      </trkpt>
      <trkpt lat="47.36412" lon="-1.163">
        <ele>56.295</ele>
        <time>2020-07-19T11:29:06Z</time>
      </trkpt>
      <trkpt lat="47.36413" lon="-1.1629">
        <ele>56.061</ele>
        <time>2020-07-19T11:29:07Z</time>
      </trkpt>
      <trkpt lat="47.36415" lon="-1.16281">
        <ele>56.813</ele>
        <time>2020-07-19T11:29:08Z</time>
      </trkpt>
      <trkpt lat="47.36417" lon="-1.16272">
        <ele>56.939</ele>
        <time>2020-07-19T11:29:09Z</time>
      </trkpt>
      <trkpt lat="47.36419" lon="-1.16263">
        <ele>57.212</ele>
        <time>2020-07-19T11:29:10Z</time>
      </trkpt>
      <trkpt lat="47.3642" lon="-1.16255">
        <ele>57.368</ele>
        <time>2020-07-19T11:29:11Z</time>
      </trkpt>
      <trkpt lat="47.36422" lon="-1.16245">
        <ele>56.287</ele>
        <time>2020-07-19T11:29:12Z</time>
      </trkpt>
      <trkpt lat="47.36424" lon="-1.16236">
        <ele>56.33</ele>
        <time>2020-07-19T11:29:13Z</time>
      </trkpt>
      <trkpt lat="47.36425" lon="-1.16227">
        <ele>56.603</ele>
        <time>2020-07-19T11:29:14Z</time>
      </trkpt>
      <trkpt lat="47.36426" lon="-1.16218">
        <ele>56.623</ele>
        <time>2020-07-19T11:29:15Z</time>
      </trkpt>
      <trkpt lat="47.36428" lon="-1.16209">
        <ele>56.697</ele>
        <time>2020-07-19T11:29:16Z</time>
      </trkpt>
      <trkpt lat="47.3643" lon="-1.162">
        <ele>56.297</ele>
        <time>2020-07-19T11:29:17Z</time>
      </trkpt>
      <trkpt lat="47.36432" lon="-1.16191">
        <ele>56.672</ele>
        <time>2020-07-19T11:29:18Z</time>
      </trkpt>
      <trkpt lat="47.36434" lon="-1.16182">
        <ele>56.49</ele>
        <time>2020-07-19T11:29:19Z</time>
      </trkpt>
      <trkpt lat="47.36436" lon="-1.16173">
        <ele>57.039</ele>
        <time>2020-07-19T11:29:20Z</time>
      </trkpt>
      <trkpt lat="47.36437" lon="-1.16166">
        <ele>56.018</ele>
        <time>2020-07-19T11:29:21Z</time>
      </trkpt>
      <trkpt lat="47.36438" lon="-1.16156">
        <ele>56.71</ele>
        <time>2020-07-19T11:29:22Z</time>
      </trkpt>
      <trkpt lat="47.36439" lon="-1.16146">
        <ele>56.539</ele>
        <time>2020-07-19T11:29:23Z</time>
      </trkpt>
      <trkpt lat="47.3644" lon="-1.16137">
        <ele>56.25</ele>
        <time>2020-07-19T11:29:24Z</time>
      </trkpt>
      <trkpt lat="47.36442" lon="-1.1613">
        <ele>56.253</ele>
        <time>2020-07-19T11:29:25Z</time>
      </trkpt>
      <trkpt lat="47.36444" lon="-1.16121">
        <ele>56.749</ele>
        <time>2020-07-19T11:29:26Z</time>
      </trkpt>
      <trkpt lat="47.36446" lon="-1.16112">
        <ele>56.511</ele>
        <time>2020-07-19T11:29:27Z</time>
      </trkpt>
      <trkpt lat="47.36449" lon="-1.16103">
        <ele>56.34</ele>
        <time>2020-07-19T11:29:28Z</time>
      </trkpt>
      <trkpt lat="47.3645" lon="-1.16093">
        <ele>57.337</ele>
        <time>2020-07-19T11:29:29Z</time>
      </trkpt>
      <trkpt lat="47.36451" lon="-1.16084">
        <ele>58.247</ele>
        <time>2020-07-19T11:29:30Z</time>
      </trkpt>
      <trkpt lat="47.36452" lon="-1.16075">
        <ele>58.454</ele>
        <time>2020-07-19T11:29:31Z</time>
      </trkpt>
      <trkpt lat="47.36454" lon="-1.16067">
        <ele>58.83</ele>
        <time>2020-07-19T11:29:32Z</time>
      </trkpt>
      <trkpt lat="47.36456" lon="-1.16058">
        <ele>59.07</ele>
        <time>2020-07-19T11:29:33Z</time>
      </trkpt>
      <trkpt lat="47.36457" lon="-1.1605">
        <ele>58.525</ele>
        <time>2020-07-19T11:29:34Z</time>
      </trkpt>
      <trkpt lat="47.36459" lon="-1.16042">
        <ele>58.662</ele>
        <time>2020-07-19T11:29:35Z</time>
      </trkpt>
      <trkpt lat="47.36458" lon="-1.16033">
        <ele>58.018</ele>
        <time>2020-07-19T11:29:36Z</time>
      </trkpt>
      <trkpt lat="47.3646" lon="-1.16024">
        <ele>58.363</ele>
        <time>2020-07-19T11:29:37Z</time>
      </trkpt>
      <trkpt lat="47.36462" lon="-1.16015">
        <ele>58.04</ele>
        <time>2020-07-19T11:29:38Z</time>
      </trkpt>
      <trkpt lat="47.36464" lon="-1.16007">
        <ele>57.687</ele>
        <time>2020-07-19T11:29:39Z</time>
      </trkpt>
      <trkpt lat="47.36465" lon="-1.15998">
        <ele>58.432</ele>
        <time>2020-07-19T11:29:40Z</time>
      </trkpt>
      <trkpt lat="47.36467" lon="-1.1599">
        <ele>59.133</ele>
        <time>2020-07-19T11:29:41Z</time>
      </trkpt>
      <trkpt lat="47.36468" lon="-1.1598">
        <ele>59.4</ele>
        <time>2020-07-19T11:29:42Z</time>
      </trkpt>
      <trkpt lat="47.3647" lon="-1.1597">
        <ele>58.992</ele>
        <time>2020-07-19T11:29:43Z</time>
      </trkpt>
      <trkpt lat="47.36472" lon="-1.15962">
        <ele>59.298</ele>
        <time>2020-07-19T11:29:44Z</time>
      </trkpt>
      <trkpt lat="47.36474" lon="-1.15952">
        <ele>59.303</ele>
        <time>2020-07-19T11:29:45Z</time>
      </trkpt>
      <trkpt lat="47.36475" lon="-1.15944">
        <ele>60.151</ele>
        <time>2020-07-19T11:29:46Z</time>
      </trkpt>
      <trkpt lat="47.36474" lon="-1.15936">
        <ele>57.215</ele>
        <time>2020-07-19T11:29:47Z</time>
      </trkpt>
      <trkpt lat="47.36476" lon="-1.15927">
        <ele>57.087</ele>
        <time>2020-07-19T11:29:48Z</time>
      </trkpt>
      <trkpt lat="47.36477" lon="-1.15918">
        <ele>57.069</ele>
        <time>2020-07-19T11:29:49Z</time>
      </trkpt>
      <trkpt lat="47.36479" lon="-1.15909">
        <ele>56.761</ele>
        <time>2020-07-19T11:29:50Z</time>
      </trkpt>
      <trkpt lat="47.3648" lon="-1.159">
        <ele>56.032</ele>
        <time>2020-07-19T11:29:51Z</time>
      </trkpt>
      <trkpt lat="47.36481" lon="-1.15892">
        <ele>55.706</ele>
        <time>2020-07-19T11:29:52Z</time>
      </trkpt>
      <trkpt lat="47.36483" lon="-1.15885">
        <ele>56.324</ele>
        <time>2020-07-19T11:29:53Z</time>
      </trkpt>
      <trkpt lat="47.36485" lon="-1.15876">
        <ele>56.549</ele>
        <time>2020-07-19T11:29:54Z</time>
      </trkpt>
      <trkpt lat="47.36484" lon="-1.15866">
        <ele>57.05</ele>
        <time>2020-07-19T11:29:55Z</time>
      </trkpt>
      <trkpt lat="47.36482" lon="-1.15859">
        <ele>54.549</ele>
        <time>2020-07-19T11:29:56Z</time>
      </trkpt>
      <trkpt lat="47.36479" lon="-1.1585">
        <ele>50.995</ele>
        <time>2020-07-19T11:29:57Z</time>
      </trkpt>
      <trkpt lat="47.3648" lon="-1.15841">
        <ele>51.16</ele>
        <time>2020-07-19T11:29:58Z</time>
      </trkpt>
      <trkpt lat="47.36482" lon="-1.15833">
        <ele>51.416</ele>
        <time>2020-07-19T11:29:59Z</time>
      </trkpt>
      <trkpt lat="47.36484" lon="-1.15824">
        <ele>52.257</ele>
        <time>2020-07-19T11:30:00Z</time>
      </trkpt>
      <trkpt lat="47.36485" lon="-1.15815">
        <ele>51.577</ele>
        <time>2020-07-19T11:30:01Z</time>
      </trkpt>
      <trkpt lat="47.36488" lon="-1.15806">
        <ele>50.981</ele>
        <time>2020-07-19T11:30:02Z</time>
      </trkpt>
      <trkpt lat="47.36492" lon="-1.15798">
        <ele>49.172</ele>
        <time>2020-07-19T11:30:03Z</time>
      </trkpt>
      <trkpt lat="47.36494" lon="-1.1579">
        <ele>48.576</ele>
        <time>2020-07-19T11:30:04Z</time>
      </trkpt>
      <trkpt lat="47.36495" lon="-1.15782">
        <ele>48.855</ele>
        <time>2020-07-19T11:30:05Z</time>
      </trkpt>
      <trkpt lat="47.36496" lon="-1.15774">
        <ele>48.886</ele>
        <time>2020-07-19T11:30:06Z</time>
      </trkpt>
      <trkpt lat="47.36498" lon="-1.15766">
        <ele>50.196</ele>
        <time>2020-07-19T11:30:07Z</time>
      </trkpt>
      <trkpt lat="47.36499" lon="-1.15757">
        <ele>49.53</ele>
        <time>2020-07-19T11:30:08Z</time>
      </trkpt>
      <trkpt lat="47.36502" lon="-1.15749">
        <ele>50.305</ele>
        <time>2020-07-19T11:30:09Z</time>
      </trkpt>
      <trkpt lat="47.36502" lon="-1.15741">
        <ele>50.698</ele>
        <time>2020-07-19T11:30:10Z</time>
      </trkpt>
      <trkpt lat="47.36503" lon="-1.15733">
        <ele>51.075</ele>
        <time>2020-07-19T11:30:11Z</time>
      </trkpt>
      <trkpt lat="47.36504" lon="-1.15725">
        <ele>49.861</ele>
        <time>2020-07-19T11:30:12Z</time>
      </trkpt>
      <trkpt lat="47.36505" lon="-1.15716">
        <ele>50.735</ele>
        <time>2020-07-19T11:30:13Z</time>
      </trkpt>
      <trkpt lat="47.36506" lon="-1.15708">
        <ele>50.475</ele>
        <time>2020-07-19T11:30:14Z</time>
      </trkpt>
      <trkpt lat="47.36508" lon="-1.15701">
        <ele>51.327</ele>
        <time>2020-07-19T11:30:15Z</time>
      </trkpt>
      <trkpt lat="47.36509" lon="-1.15693">
        <ele>52.246</ele>
        <time>2020-07-19T11:30:16Z</time>
      </trkpt>
      <trkpt lat="47.36511" lon="-1.15684">
        <ele>51.644</ele>
        <time>2020-07-19T11:30:17Z</time>
      </trkpt>
      <trkpt lat="47.36513" lon="-1.15676">
        <ele>51.302</ele>
        <time>2020-07-19T11:30:18Z</time>
      </trkpt>
      <trkpt lat="47.36514" lon="-1.15668">
        <ele>51.831</ele>
        <time>2020-07-19T11:30:19Z</time>
      </trkpt>
      <trkpt lat="47.36517" lon="-1.1566">
        <ele>52.937</ele>
        <time>2020-07-19T11:30:20Z</time>
      </trkpt>
      <trkpt lat="47.36519" lon="-1.15653">
        <ele>52.993</ele>
        <time>2020-07-19T11:30:21Z</time>
      </trkpt>
      <trkpt lat="47.36522" lon="-1.15647">
        <ele>50.995</ele>
        <time>2020-07-19T11:30:22Z</time>
      </trkpt>
      <trkpt lat="47.36519" lon="-1.1564">
        <ele>49.775</ele>
        <time>2020-07-19T11:30:23Z</time>
      </trkpt>
      <trkpt lat="47.36521" lon="-1.15632">
        <ele>50.034</ele>
        <time>2020-07-19T11:30:24Z</time>
      </trkpt>
      <trkpt lat="47.36522" lon="-1.15625">
        <ele>50.636</ele>
        <time>2020-07-19T11:30:25Z</time>
      </trkpt>
      <trkpt lat="47.36519" lon="-1.15618">
        <ele>47</ele>
        <time>2020-07-19T11:30:26Z</time>
      </trkpt>
      <trkpt lat="47.3652" lon="-1.1561">
        <ele>47.24</ele>
        <time>2020-07-19T11:30:27Z</time>
      </trkpt>
      <trkpt lat="47.36521" lon="-1.156">
        <ele>48.829</ele>
        <time>2020-07-19T11:30:28Z</time>
      </trkpt>
      <trkpt lat="47.36522" lon="-1.15592">
        <ele>49.641</ele>
        <time>2020-07-19T11:30:29Z</time>
      </trkpt>
      <trkpt lat="47.36523" lon="-1.15584">
        <ele>49.316</ele>
        <time>2020-07-19T11:30:30Z</time>
      </trkpt>
      <trkpt lat="47.36525" lon="-1.15576">
        <ele>49.526</ele>
        <time>2020-07-19T11:30:31Z</time>
      </trkpt>
      <trkpt lat="47.36526" lon="-1.15567">
        <ele>49.169</ele>
        <time>2020-07-19T11:30:32Z</time>
      </trkpt>
      <trkpt lat="47.36527" lon="-1.15558">
        <ele>49.428</ele>
        <time>2020-07-19T11:30:33Z</time>
      </trkpt>
      <trkpt lat="47.36528" lon="-1.1555">
        <ele>50.011</ele>
        <time>2020-07-19T11:30:34Z</time>
      </trkpt>
      <trkpt lat="47.36529" lon="-1.15541">
        <ele>50.045</ele>
        <time>2020-07-19T11:30:35Z</time>
      </trkpt>
      <trkpt lat="47.3653" lon="-1.15532">
        <ele>50.965</ele>
        <time>2020-07-19T11:30:36Z</time>
      </trkpt>
      <trkpt lat="47.36532" lon="-1.15522">
        <ele>51.125</ele>
        <time>2020-07-19T11:30:37Z</time>
      </trkpt>
      <trkpt lat="47.36533" lon="-1.15513">
        <ele>51.219</ele>
        <time>2020-07-19T11:30:38Z</time>
      </trkpt>
      <trkpt lat="47.36533" lon="-1.15504">
        <ele>51.028</ele>
        <time>2020-07-19T11:30:39Z</time>
      </trkpt>
      <trkpt lat="47.36534" lon="-1.15495">
        <ele>51.561</ele>
        <time>2020-07-19T11:30:40Z</time>
      </trkpt>
      <trkpt lat="47.36536" lon="-1.15486">
        <ele>52.305</ele>
        <time>2020-07-19T11:30:41Z</time>
      </trkpt>
      <trkpt lat="47.36537" lon="-1.15477">
        <ele>52.912</ele>
        <time>2020-07-19T11:30:42Z</time>
      </trkpt>
      <trkpt lat="47.36538" lon="-1.15468">
        <ele>52.074</ele>
        <time>2020-07-19T11:30:43Z</time>
      </trkpt>
      <trkpt lat="47.36538" lon="-1.15459">
        <ele>52.114</ele>
        <time>2020-07-19T11:30:44Z</time>
      </trkpt>
      <trkpt lat="47.3654" lon="-1.15451">
        <ele>52.074</ele>
        <time>2020-07-19T11:30:45Z</time>
      </trkpt>
      <trkpt lat="47.36541" lon="-1.15442">
        <ele>52.106</ele>
        <time>2020-07-19T11:30:46Z</time>
      </trkpt>
      <trkpt lat="47.36543" lon="-1.15432">
        <ele>53.207</ele>
        <time>2020-07-19T11:30:47Z</time>
      </trkpt>
      <trkpt lat="47.36545" lon="-1.15423">
        <ele>54.369</ele>
        <time>2020-07-19T11:30:48Z</time>
      </trkpt>
      <trkpt lat="47.36546" lon="-1.15414">
        <ele>54.329</ele>
        <time>2020-07-19T11:30:49Z</time>
      </trkpt>
      <trkpt lat="47.36547" lon="-1.15405">
        <ele>56.487</ele>
        <time>2020-07-19T11:30:50Z</time>
      </trkpt>
      <trkpt lat="47.36548" lon="-1.15395">
        <ele>56.08</ele>
        <time>2020-07-19T11:30:51Z</time>
      </trkpt>
      <trkpt lat="47.3655" lon="-1.15385">
        <ele>56.585</ele>
        <time>2020-07-19T11:30:52Z</time>
      </trkpt>
      <trkpt lat="47.36552" lon="-1.15376">
        <ele>55.569</ele>
        <time>2020-07-19T11:30:53Z</time>
      </trkpt>
      <trkpt lat="47.36553" lon="-1.15366">
        <ele>55.338</ele>
        <time>2020-07-19T11:30:54Z</time>
      </trkpt>
      <trkpt lat="47.36553" lon="-1.15357">
        <ele>55.34</ele>
        <time>2020-07-19T11:30:55Z</time>
      </trkpt>
      <trkpt lat="47.36554" lon="-1.15348">
        <ele>55.465</ele>
        <time>2020-07-19T11:30:56Z</time>
      </trkpt>
      <trkpt lat="47.36554" lon="-1.1534">
        <ele>53.811</ele>
        <time>2020-07-19T11:30:57Z</time>
      </trkpt>
      <trkpt lat="47.36557" lon="-1.15331">
        <ele>53.866</ele>
        <time>2020-07-19T11:30:58Z</time>
      </trkpt>
      <trkpt lat="47.36559" lon="-1.15322">
        <ele>54.097</ele>
        <time>2020-07-19T11:30:59Z</time>
      </trkpt>
      <trkpt lat="47.3656" lon="-1.15313">
        <ele>54.842</ele>
        <time>2020-07-19T11:31:00Z</time>
      </trkpt>
      <trkpt lat="47.36561" lon="-1.15304">
        <ele>55.369</ele>
        <time>2020-07-19T11:31:01Z</time>
      </trkpt>
      <trkpt lat="47.36561" lon="-1.15294">
        <ele>54.834</ele>
        <time>2020-07-19T11:31:02Z</time>
      </trkpt>
      <trkpt lat="47.36563" lon="-1.15285">
        <ele>55.136</ele>
        <time>2020-07-19T11:31:03Z</time>
      </trkpt>
      <trkpt lat="47.36562" lon="-1.15276">
        <ele>55.494</ele>
        <time>2020-07-19T11:31:04Z</time>
      </trkpt>
      <trkpt lat="47.36565" lon="-1.15267">
        <ele>54.279</ele>
        <time>2020-07-19T11:31:05Z</time>
      </trkpt>
      <trkpt lat="47.36566" lon="-1.15257">
        <ele>53.334</ele>
        <time>2020-07-19T11:31:06Z</time>
      </trkpt>
      <trkpt lat="47.3657" lon="-1.15248">
        <ele>51.197</ele>
        <time>2020-07-19T11:31:07Z</time>
      </trkpt>
      <trkpt lat="47.36572" lon="-1.15239">
        <ele>51.581</ele>
        <time>2020-07-19T11:31:08Z</time>
      </trkpt>
      <trkpt lat="47.36573" lon="-1.1523">
        <ele>50.794</ele>
        <time>2020-07-19T11:31:09Z</time>
      </trkpt>
      <trkpt lat="47.36574" lon="-1.15221">
        <ele>49.745</ele>
        <time>2020-07-19T11:31:10Z</time>
      </trkpt>
      <trkpt lat="47.36577" lon="-1.15211">
        <ele>48.253</ele>
        <time>2020-07-19T11:31:11Z</time>
      </trkpt>
      <trkpt lat="47.36579" lon="-1.15202">
        <ele>48</ele>
        <time>2020-07-19T11:31:12Z</time>
      </trkpt>
      <trkpt lat="47.3658" lon="-1.15192">
        <ele>48.196</ele>
        <time>2020-07-19T11:31:13Z</time>
      </trkpt>
      <trkpt lat="47.36581" lon="-1.15183">
        <ele>49.062</ele>
        <time>2020-07-19T11:31:14Z</time>
      </trkpt>
      <trkpt lat="47.36582" lon="-1.15172">
        <ele>49.022</ele>
        <time>2020-07-19T11:31:15Z</time>
      </trkpt>
      <trkpt lat="47.36584" lon="-1.15164">
        <ele>47.938</ele>
        <time>2020-07-19T11:31:16Z</time>
      </trkpt>
      <trkpt lat="47.36586" lon="-1.15155">
        <ele>48.224</ele>
        <time>2020-07-19T11:31:17Z</time>
      </trkpt>
      <trkpt lat="47.36588" lon="-1.15145">
        <ele>48.99</ele>
        <time>2020-07-19T11:31:18Z</time>
      </trkpt>
      <trkpt lat="47.36589" lon="-1.15135">
        <ele>49.168</ele>
        <time>2020-07-19T11:31:19Z</time>
      </trkpt>
      <trkpt lat="47.3659" lon="-1.15125">
        <ele>48.584</ele>
        <time>2020-07-19T11:31:20Z</time>
      </trkpt>
      <trkpt lat="47.36591" lon="-1.15115">
        <ele>48.65</ele>
        <time>2020-07-19T11:31:21Z</time>
      </trkpt>
      <trkpt lat="47.36591" lon="-1.15106">
        <ele>49.093</ele>
        <time>2020-07-19T11:31:22Z</time>
      </trkpt>
      <trkpt lat="47.36592" lon="-1.15097">
        <ele>49.152</ele>
        <time>2020-07-19T11:31:23Z</time>
      </trkpt>
      <trkpt lat="47.36593" lon="-1.15087">
        <ele>49.349</ele>
        <time>2020-07-19T11:31:24Z</time>
      </trkpt>
      <trkpt lat="47.36594" lon="-1.15077">
        <ele>49.777</ele>
        <time>2020-07-19T11:31:25Z</time>
      </trkpt>
      <trkpt lat="47.36595" lon="-1.15067">
        <ele>50.374</ele>
        <time>2020-07-19T11:31:26Z</time>
      </trkpt>
      <trkpt lat="47.36596" lon="-1.15058">
        <ele>50.675</ele>
        <time>2020-07-19T11:31:27Z</time>
      </trkpt>
      <trkpt lat="47.36596" lon="-1.1505">
        <ele>50.721</ele>
        <time>2020-07-19T11:31:28Z</time>
      </trkpt>
      <trkpt lat="47.36597" lon="-1.15041">
        <ele>50.075</ele>
        <time>2020-07-19T11:31:29Z</time>
      </trkpt>
      <trkpt lat="47.36597" lon="-1.15031">
        <ele>48.398</ele>
        <time>2020-07-19T11:31:30Z</time>
      </trkpt>
      <trkpt lat="47.36599" lon="-1.15021">
        <ele>47.613</ele>
        <time>2020-07-19T11:31:31Z</time>
      </trkpt>
      <trkpt lat="47.36599" lon="-1.15012">
        <ele>46.138</ele>
        <time>2020-07-19T11:31:32Z</time>
      </trkpt>
      <trkpt lat="47.36598" lon="-1.15003">
        <ele>46.066</ele>
        <time>2020-07-19T11:31:33Z</time>
      </trkpt>
      <trkpt lat="47.36599" lon="-1.14994">
        <ele>45.353</ele>
        <time>2020-07-19T11:31:34Z</time>
      </trkpt>
      <trkpt lat="47.36599" lon="-1.14984">
        <ele>44.871</ele>
        <time>2020-07-19T11:31:35Z</time>
      </trkpt>
      <trkpt lat="47.366" lon="-1.14975">
        <ele>45.31</ele>
        <time>2020-07-19T11:31:36Z</time>
      </trkpt>
      <trkpt lat="47.36601" lon="-1.14965">
        <ele>46.443</ele>
        <time>2020-07-19T11:31:37Z</time>
      </trkpt>
      <trkpt lat="47.366" lon="-1.14955">
        <ele>48.304</ele>
        <time>2020-07-19T11:31:38Z</time>
      </trkpt>
      <trkpt lat="47.36602" lon="-1.14945">
        <ele>47.951</ele>
        <time>2020-07-19T11:31:39Z</time>
      </trkpt>
      <trkpt lat="47.36602" lon="-1.14937">
        <ele>48.974</ele>
        <time>2020-07-19T11:31:40Z</time>
      </trkpt>
      <trkpt lat="47.36602" lon="-1.14928">
        <ele>49.328</ele>
        <time>2020-07-19T11:31:41Z</time>
      </trkpt>
      <trkpt lat="47.36604" lon="-1.14918">
        <ele>49.975</ele>
        <time>2020-07-19T11:31:42Z</time>
      </trkpt>
      <trkpt lat="47.36601" lon="-1.14908">
        <ele>47.558</ele>
        <time>2020-07-19T11:31:43Z</time>
      </trkpt>
      <trkpt lat="47.36601" lon="-1.14898">
        <ele>46.981</ele>
        <time>2020-07-19T11:31:44Z</time>
      </trkpt>
      <trkpt lat="47.36602" lon="-1.14887">
        <ele>47.244</ele>
        <time>2020-07-19T11:31:45Z</time>
      </trkpt>
      <trkpt lat="47.36602" lon="-1.14877">
        <ele>47.584</ele>
        <time>2020-07-19T11:31:46Z</time>
      </trkpt>
      <trkpt lat="47.36604" lon="-1.14866">
        <ele>48.657</ele>
        <time>2020-07-19T11:31:47Z</time>
      </trkpt>
      <trkpt lat="47.36605" lon="-1.14856">
        <ele>48.569</ele>
        <time>2020-07-19T11:31:48Z</time>
      </trkpt>
      <trkpt lat="47.36606" lon="-1.14846">
        <ele>48.619</ele>
        <time>2020-07-19T11:31:49Z</time>
      </trkpt>
      <trkpt lat="47.36605" lon="-1.14835">
        <ele>49.505</ele>
        <time>2020-07-19T11:31:50Z</time>
      </trkpt>
      <trkpt lat="47.36606" lon="-1.14826">
        <ele>49.52</ele>
        <time>2020-07-19T11:31:51Z</time>
      </trkpt>
      <trkpt lat="47.36606" lon="-1.14816">
        <ele>49.888</ele>
        <time>2020-07-19T11:31:52Z</time>
      </trkpt>
      <trkpt lat="47.36607" lon="-1.14806">
        <ele>50.226</ele>
        <time>2020-07-19T11:31:53Z</time>
      </trkpt>
      <trkpt lat="47.36607" lon="-1.14797">
        <ele>49.813</ele>
        <time>2020-07-19T11:31:54Z</time>
      </trkpt>
      <trkpt lat="47.36607" lon="-1.14787">
        <ele>50.245</ele>
        <time>2020-07-19T11:31:55Z</time>
      </trkpt>
      <trkpt lat="47.36606" lon="-1.14778">
        <ele>49.959</ele>
        <time>2020-07-19T11:31:56Z</time>
      </trkpt>
      <trkpt lat="47.36604" lon="-1.1477">
        <ele>49.475</ele>
        <time>2020-07-19T11:31:57Z</time>
      </trkpt>
      <trkpt lat="47.36604" lon="-1.1476">
        <ele>50.365</ele>
        <time>2020-07-19T11:31:58Z</time>
      </trkpt>
      <trkpt lat="47.36604" lon="-1.14752">
        <ele>49.417</ele>
        <time>2020-07-19T11:31:59Z</time>
      </trkpt>
      <trkpt lat="47.36602" lon="-1.14744">
        <ele>49.886</ele>
        <time>2020-07-19T11:32:00Z</time>
      </trkpt>
      <trkpt lat="47.36601" lon="-1.14734">
        <ele>50.182</ele>
        <time>2020-07-19T11:32:01Z</time>
      </trkpt>
      <trkpt lat="47.366" lon="-1.14726">
        <ele>50.285</ele>
        <time>2020-07-19T11:32:02Z</time>
      </trkpt>
      <trkpt lat="47.36598" lon="-1.14717">
        <ele>50.733</ele>
        <time>2020-07-19T11:32:03Z</time>
      </trkpt>
      <trkpt lat="47.36597" lon="-1.1471">
        <ele>49.799</ele>
        <time>2020-07-19T11:32:04Z</time>
      </trkpt>
      <trkpt lat="47.36596" lon="-1.14702">
        <ele>50.167</ele>
        <time>2020-07-19T11:32:05Z</time>
      </trkpt>
      <trkpt lat="47.36594" lon="-1.14693">
        <ele>50.047</ele>
        <time>2020-07-19T11:32:06Z</time>
      </trkpt>
      <trkpt lat="47.36592" lon="-1.14684">
        <ele>49.445</ele>
        <time>2020-07-19T11:32:07Z</time>
      </trkpt>
      <trkpt lat="47.36591" lon="-1.14676">
        <ele>49.844</ele>
        <time>2020-07-19T11:32:08Z</time>
      </trkpt>
      <trkpt lat="47.36589" lon="-1.14667">
        <ele>49.566</ele>
        <time>2020-07-19T11:32:09Z</time>
      </trkpt>
      <trkpt lat="47.36587" lon="-1.14658">
        <ele>49.75</ele>
        <time>2020-07-19T11:32:10Z</time>
      </trkpt>
      <trkpt lat="47.36586" lon="-1.14649">
        <ele>50.136</ele>
        <time>2020-07-19T11:32:11Z</time>
      </trkpt>
      <trkpt lat="47.36583" lon="-1.1464">
        <ele>49.35</ele>
        <time>2020-07-19T11:32:12Z</time>
      </trkpt>
      <trkpt lat="47.36582" lon="-1.14631">
        <ele>49.687</ele>
        <time>2020-07-19T11:32:13Z</time>
      </trkpt>
      <trkpt lat="47.36581" lon="-1.14622">
        <ele>49.314</ele>
        <time>2020-07-19T11:32:14Z</time>
      </trkpt>
      <trkpt lat="47.3658" lon="-1.14614">
        <ele>49.965</ele>
        <time>2020-07-19T11:32:15Z</time>
      </trkpt>
      <trkpt lat="47.3658" lon="-1.14606">
        <ele>50.343</ele>
        <time>2020-07-19T11:32:16Z</time>
      </trkpt>
      <trkpt lat="47.36574" lon="-1.14598">
        <ele>46.426</ele>
        <time>2020-07-19T11:32:17Z</time>
      </trkpt>
      <trkpt lat="47.36573" lon="-1.14588">
        <ele>45.358</ele>
        <time>2020-07-19T11:32:18Z</time>
      </trkpt>
      <trkpt lat="47.36571" lon="-1.14579">
        <ele>44.188</ele>
        <time>2020-07-19T11:32:19Z</time>
      </trkpt>
      <trkpt lat="47.36572" lon="-1.14571">
        <ele>43.52</ele>
        <time>2020-07-19T11:32:20Z</time>
      </trkpt>
      <trkpt lat="47.36572" lon="-1.14563">
        <ele>43.485</ele>
        <time>2020-07-19T11:32:21Z</time>
      </trkpt>
      <trkpt lat="47.36572" lon="-1.14554">
        <ele>43.592</ele>
        <time>2020-07-19T11:32:22Z</time>
      </trkpt>
      <trkpt lat="47.36573" lon="-1.14545">
        <ele>44.036</ele>
        <time>2020-07-19T11:32:23Z</time>
      </trkpt>
      <trkpt lat="47.36573" lon="-1.14536">
        <ele>44.221</ele>
        <time>2020-07-19T11:32:24Z</time>
      </trkpt>
      <trkpt lat="47.36573" lon="-1.14527">
        <ele>44.325</ele>
        <time>2020-07-19T11:32:25Z</time>
      </trkpt>
      <trkpt lat="47.36572" lon="-1.14518">
        <ele>43.589</ele>
        <time>2020-07-19T11:32:26Z</time>
      </trkpt>
      <trkpt lat="47.36573" lon="-1.14509">
        <ele>43.806</ele>
        <time>2020-07-19T11:32:27Z</time>
      </trkpt>
      <trkpt lat="47.36574" lon="-1.145">
        <ele>43.163</ele>
        <time>2020-07-19T11:32:28Z</time>
      </trkpt>
      <trkpt lat="47.36576" lon="-1.1449">
        <ele>43.369</ele>
        <time>2020-07-19T11:32:29Z</time>
      </trkpt>
      <trkpt lat="47.36576" lon="-1.14481">
        <ele>43.67</ele>
        <time>2020-07-19T11:32:30Z</time>
      </trkpt>
      <trkpt lat="47.36575" lon="-1.14472">
        <ele>43.766</ele>
        <time>2020-07-19T11:32:31Z</time>
      </trkpt>
      <trkpt lat="47.36577" lon="-1.14464">
        <ele>41.968</ele>
        <time>2020-07-19T11:32:32Z</time>
      </trkpt>
      <trkpt lat="47.36577" lon="-1.14455">
        <ele>42.12</ele>
        <time>2020-07-19T11:32:33Z</time>
      </trkpt>
      <trkpt lat="47.36577" lon="-1.14447">
        <ele>41.082</ele>
        <time>2020-07-19T11:32:34Z</time>
      </trkpt>
      <trkpt lat="47.36578" lon="-1.14438">
        <ele>41.207</ele>
        <time>2020-07-19T11:32:35Z</time>
      </trkpt>
      <trkpt lat="47.36578" lon="-1.14428">
        <ele>41.031</ele>
        <time>2020-07-19T11:32:36Z</time>
      </trkpt>
      <trkpt lat="47.36581" lon="-1.14417">
        <ele>41.236</ele>
        <time>2020-07-19T11:32:37Z</time>
      </trkpt>
      <trkpt lat="47.36581" lon="-1.14408">
        <ele>41.555</ele>
        <time>2020-07-19T11:32:38Z</time>
      </trkpt>
      <trkpt lat="47.36582" lon="-1.14398">
        <ele>42.18</ele>
        <time>2020-07-19T11:32:39Z</time>
      </trkpt>
      <trkpt lat="47.36583" lon="-1.14388">
        <ele>42.639</ele>
        <time>2020-07-19T11:32:40Z</time>
      </trkpt>
      <trkpt lat="47.36584" lon="-1.14379">
        <ele>42.935</ele>
        <time>2020-07-19T11:32:41Z</time>
      </trkpt>
      <trkpt lat="47.36585" lon="-1.1437">
        <ele>42.006</ele>
        <time>2020-07-19T11:32:42Z</time>
      </trkpt>
      <trkpt lat="47.36583" lon="-1.14361">
        <ele>39.965</ele>
        <time>2020-07-19T11:32:43Z</time>
      </trkpt>
      <trkpt lat="47.36585" lon="-1.14352">
        <ele>39.009</ele>
        <time>2020-07-19T11:32:44Z</time>
      </trkpt>
      <trkpt lat="47.36585" lon="-1.14343">
        <ele>38.704</ele>
        <time>2020-07-19T11:32:45Z</time>
      </trkpt>
      <trkpt lat="47.36584" lon="-1.14334">
        <ele>39.272</ele>
        <time>2020-07-19T11:32:46Z</time>
      </trkpt>
      <trkpt lat="47.36583" lon="-1.14325">
        <ele>39.505</ele>
        <time>2020-07-19T11:32:47Z</time>
      </trkpt>
      <trkpt lat="47.3658" lon="-1.14315">
        <ele>38.398</ele>
        <time>2020-07-19T11:32:48Z</time>
      </trkpt>
      <trkpt lat="47.36578" lon="-1.14307">
        <ele>39.623</ele>
        <time>2020-07-19T11:32:49Z</time>
      </trkpt>
      <trkpt lat="47.36577" lon="-1.14297">
        <ele>39.791</ele>
        <time>2020-07-19T11:32:50Z</time>
      </trkpt>
      <trkpt lat="47.36576" lon="-1.14288">
        <ele>40.094</ele>
        <time>2020-07-19T11:32:51Z</time>
      </trkpt>
      <trkpt lat="47.36575" lon="-1.14279">
        <ele>40.028</ele>
        <time>2020-07-19T11:32:52Z</time>
      </trkpt>
      <trkpt lat="47.36574" lon="-1.1427">
        <ele>40.084</ele>
        <time>2020-07-19T11:32:53Z</time>
      </trkpt>
      <trkpt lat="47.36573" lon="-1.1426">
        <ele>40.032</ele>
        <time>2020-07-19T11:32:54Z</time>
      </trkpt>
      <trkpt lat="47.36572" lon="-1.14251">
        <ele>40.459</ele>
        <time>2020-07-19T11:32:55Z</time>
      </trkpt>
      <trkpt lat="47.36572" lon="-1.14241">
        <ele>39.901</ele>
        <time>2020-07-19T11:32:56Z</time>
      </trkpt>
      <trkpt lat="47.36572" lon="-1.14232">
        <ele>40.154</ele>
        <time>2020-07-19T11:32:57Z</time>
      </trkpt>
      <trkpt lat="47.36572" lon="-1.14222">
        <ele>40.167</ele>
        <time>2020-07-19T11:32:58Z</time>
      </trkpt>
      <trkpt lat="47.36572" lon="-1.14212">
        <ele>40.047</ele>
        <time>2020-07-19T11:32:59Z</time>
      </trkpt>
      <trkpt lat="47.36572" lon="-1.14203">
        <ele>40.14</ele>
        <time>2020-07-19T11:33:00Z</time>
      </trkpt>
      <trkpt lat="47.36573" lon="-1.14193">
        <ele>39.001</ele>
        <time>2020-07-19T11:33:01Z</time>
      </trkpt>
      <trkpt lat="47.36573" lon="-1.14184">
        <ele>38.507</ele>
        <time>2020-07-19T11:33:02Z</time>
      </trkpt>
      <trkpt lat="47.3657" lon="-1.14174">
        <ele>37.254</ele>
        <time>2020-07-19T11:33:03Z</time>
      </trkpt>
      <trkpt lat="47.3657" lon="-1.14164">
        <ele>37.548</ele>
        <time>2020-07-19T11:33:04Z</time>
      </trkpt>
      <trkpt lat="47.36571" lon="-1.14155">
        <ele>37.865</ele>
        <time>2020-07-19T11:33:05Z</time>
      </trkpt>
      <trkpt lat="47.36573" lon="-1.14143">
        <ele>39.159</ele>
        <time>2020-07-19T11:33:06Z</time>
      </trkpt>
      <trkpt lat="47.36574" lon="-1.14134">
        <ele>39.593</ele>
        <time>2020-07-19T11:33:07Z</time>
      </trkpt>
      <trkpt lat="47.36576" lon="-1.14123">
        <ele>41.323</ele>
        <time>2020-07-19T11:33:08Z</time>
      </trkpt>
      <trkpt lat="47.36579" lon="-1.14114">
        <ele>42.464</ele>
        <time>2020-07-19T11:33:09Z</time>
      </trkpt>
      <trkpt lat="47.36582" lon="-1.14107">
        <ele>43.596</ele>
        <time>2020-07-19T11:33:10Z</time>
      </trkpt>
      <trkpt lat="47.36587" lon="-1.14098">
        <ele>43.942</ele>
        <time>2020-07-19T11:33:11Z</time>
      </trkpt>
      <trkpt lat="47.3659" lon="-1.1409">
        <ele>44.935</ele>
        <time>2020-07-19T11:33:12Z</time>
      </trkpt>
      <trkpt lat="47.36595" lon="-1.14082">
        <ele>45.562</ele>
        <time>2020-07-19T11:33:13Z</time>
      </trkpt>
      <trkpt lat="47.366" lon="-1.14075">
        <ele>44.868</ele>
        <time>2020-07-19T11:33:14Z</time>
      </trkpt>
      <trkpt lat="47.36603" lon="-1.14068">
        <ele>44.125</ele>
        <time>2020-07-19T11:33:15Z</time>
      </trkpt>
      <trkpt lat="47.36607" lon="-1.1406">
        <ele>42.593</ele>
        <time>2020-07-19T11:33:16Z</time>
      </trkpt>
      <trkpt lat="47.3661" lon="-1.14051">
        <ele>42.014</ele>
        <time>2020-07-19T11:33:17Z</time>
      </trkpt>
      <trkpt lat="47.36613" lon="-1.14042">
        <ele>42.872</ele>
        <time>2020-07-19T11:33:18Z</time>
      </trkpt>
      <trkpt lat="47.36615" lon="-1.14032">
        <ele>43.122</ele>
        <time>2020-07-19T11:33:19Z</time>
      </trkpt>
      <trkpt lat="47.36618" lon="-1.14023">
        <ele>43.349</ele>
        <time>2020-07-19T11:33:20Z</time>
      </trkpt>
      <trkpt lat="47.36619" lon="-1.14014">
        <ele>43.854</ele>
        <time>2020-07-19T11:33:21Z</time>
      </trkpt>
      <trkpt lat="47.36621" lon="-1.14006">
        <ele>42.544</ele>
        <time>2020-07-19T11:33:22Z</time>
      </trkpt>
      <trkpt lat="47.36622" lon="-1.13997">
        <ele>42.064</ele>
        <time>2020-07-19T11:33:23Z</time>
      </trkpt>
      <trkpt lat="47.36622" lon="-1.13986">
        <ele>42.257</ele>
        <time>2020-07-19T11:33:24Z</time>
      </trkpt>
      <trkpt lat="47.3662" lon="-1.13976">
        <ele>41.673</ele>
        <time>2020-07-19T11:33:25Z</time>
      </trkpt>
      <trkpt lat="47.36622" lon="-1.13967">
        <ele>41.666</ele>
        <time>2020-07-19T11:33:26Z</time>
      </trkpt>
      <trkpt lat="47.36622" lon="-1.13956">
        <ele>42.33</ele>
        <time>2020-07-19T11:33:27Z</time>
      </trkpt>
      <trkpt lat="47.36622" lon="-1.13947">
        <ele>42.763</ele>
        <time>2020-07-19T11:33:28Z</time>
      </trkpt>
      <trkpt lat="47.36622" lon="-1.13936">
        <ele>42.453</ele>
        <time>2020-07-19T11:33:29Z</time>
      </trkpt>
      <trkpt lat="47.36621" lon="-1.13925">
        <ele>41.678</ele>
        <time>2020-07-19T11:33:30Z</time>
      </trkpt>
      <trkpt lat="47.3662" lon="-1.13915">
        <ele>39.873</ele>
        <time>2020-07-19T11:33:31Z</time>
      </trkpt>
      <trkpt lat="47.3662" lon="-1.13905">
        <ele>39.744</ele>
        <time>2020-07-19T11:33:32Z</time>
      </trkpt>
      <trkpt lat="47.36619" lon="-1.13895">
        <ele>39.995</ele>
        <time>2020-07-19T11:33:33Z</time>
      </trkpt>
      <trkpt lat="47.36618" lon="-1.13885">
        <ele>40.042</ele>
        <time>2020-07-19T11:33:34Z</time>
      </trkpt>
      <trkpt lat="47.36617" lon="-1.13875">
        <ele>39.999</ele>
        <time>2020-07-19T11:33:35Z</time>
      </trkpt>
      <trkpt lat="47.36616" lon="-1.13865">
        <ele>40.344</ele>
        <time>2020-07-19T11:33:36Z</time>
      </trkpt>
      <trkpt lat="47.36617" lon="-1.13853">
        <ele>42.279</ele>
        <time>2020-07-19T11:33:37Z</time>
      </trkpt>
      <trkpt lat="47.36616" lon="-1.13843">
        <ele>42.829</ele>
        <time>2020-07-19T11:33:38Z</time>
      </trkpt>
      <trkpt lat="47.36616" lon="-1.13833">
        <ele>43.095</ele>
        <time>2020-07-19T11:33:39Z</time>
      </trkpt>
      <trkpt lat="47.36616" lon="-1.13824">
        <ele>43.426</ele>
        <time>2020-07-19T11:33:40Z</time>
      </trkpt>
      <trkpt lat="47.36615" lon="-1.13815">
        <ele>41.995</ele>
        <time>2020-07-19T11:33:41Z</time>
      </trkpt>
      <trkpt lat="47.36615" lon="-1.13804">
        <ele>41.702</ele>
        <time>2020-07-19T11:33:42Z</time>
      </trkpt>
      <trkpt lat="47.36614" lon="-1.13794">
        <ele>42.17</ele>
        <time>2020-07-19T11:33:43Z</time>
      </trkpt>
      <trkpt lat="47.36614" lon="-1.13783">
        <ele>42.86</ele>
        <time>2020-07-19T11:33:44Z</time>
      </trkpt>
      <trkpt lat="47.36611" lon="-1.13773">
        <ele>40.356</ele>
        <time>2020-07-19T11:33:45Z</time>
      </trkpt>
      <trkpt lat="47.3661" lon="-1.13762">
        <ele>40.069</ele>
        <time>2020-07-19T11:33:46Z</time>
      </trkpt>
      <trkpt lat="47.36609" lon="-1.13752">
        <ele>45.838</ele>
        <time>2020-07-19T11:33:47Z</time>
      </trkpt>
      <trkpt lat="47.36608" lon="-1.13743">
        <ele>45.562</ele>
        <time>2020-07-19T11:33:48Z</time>
      </trkpt>
      <trkpt lat="47.36607" lon="-1.13733">
        <ele>45.651</ele>
        <time>2020-07-19T11:33:49Z</time>
      </trkpt>
      <trkpt lat="47.36606" lon="-1.13721">
        <ele>44.946</ele>
        <time>2020-07-19T11:33:50Z</time>
      </trkpt>
      <trkpt lat="47.36606" lon="-1.13712">
        <ele>44.556</ele>
        <time>2020-07-19T11:33:51Z</time>
      </trkpt>
      <trkpt lat="47.36606" lon="-1.13703">
        <ele>43.446</ele>
        <time>2020-07-19T11:33:52Z</time>
      </trkpt>
      <trkpt lat="47.36605" lon="-1.13695">
        <ele>41.459</ele>
        <time>2020-07-19T11:33:53Z</time>
      </trkpt>
      <trkpt lat="47.36606" lon="-1.13684">
        <ele>40.771</ele>
        <time>2020-07-19T11:33:54Z</time>
      </trkpt>
      <trkpt lat="47.36605" lon="-1.13673">
        <ele>41.95</ele>
        <time>2020-07-19T11:33:55Z</time>
      </trkpt>
      <trkpt lat="47.36604" lon="-1.13662">
        <ele>40.914</ele>
        <time>2020-07-19T11:33:56Z</time>
      </trkpt>
      <trkpt lat="47.36604" lon="-1.13652">
        <ele>41.316</ele>
        <time>2020-07-19T11:33:57Z</time>
      </trkpt>
      <trkpt lat="47.36603" lon="-1.13642">
        <ele>41.396</ele>
        <time>2020-07-19T11:33:58Z</time>
      </trkpt>
      <trkpt lat="47.36602" lon="-1.13631">
        <ele>41.477</ele>
        <time>2020-07-19T11:33:59Z</time>
      </trkpt>
      <trkpt lat="47.36602" lon="-1.1362">
        <ele>41.972</ele>
        <time>2020-07-19T11:34:00Z</time>
      </trkpt>
      <trkpt lat="47.366" lon="-1.13612">
        <ele>41.114</ele>
        <time>2020-07-19T11:34:01Z</time>
      </trkpt>
      <trkpt lat="47.36599" lon="-1.13601">
        <ele>42.066</ele>
        <time>2020-07-19T11:34:02Z</time>
      </trkpt>
      <trkpt lat="47.36599" lon="-1.13591">
        <ele>42.174</ele>
        <time>2020-07-19T11:34:03Z</time>
      </trkpt>
      <trkpt lat="47.36599" lon="-1.13582">
        <ele>41.593</ele>
        <time>2020-07-19T11:34:04Z</time>
      </trkpt>
      <trkpt lat="47.36598" lon="-1.13572">
        <ele>41.708</ele>
        <time>2020-07-19T11:34:05Z</time>
      </trkpt>
      <trkpt lat="47.36597" lon="-1.13562">
        <ele>41.96</ele>
        <time>2020-07-19T11:34:06Z</time>
      </trkpt>
      <trkpt lat="47.36596" lon="-1.13552">
        <ele>41.983</ele>
        <time>2020-07-19T11:34:07Z</time>
      </trkpt>
      <trkpt lat="47.36595" lon="-1.13542">
        <ele>42.138</ele>
        <time>2020-07-19T11:34:08Z</time>
      </trkpt>
      <trkpt lat="47.36595" lon="-1.13532">
        <ele>42.282</ele>
        <time>2020-07-19T11:34:09Z</time>
      </trkpt>
      <trkpt lat="47.36593" lon="-1.13522">
        <ele>42.117</ele>
        <time>2020-07-19T11:34:10Z</time>
      </trkpt>
      <trkpt lat="47.36593" lon="-1.13513">
        <ele>41.37</ele>
        <time>2020-07-19T11:34:11Z</time>
      </trkpt>
      <trkpt lat="47.36592" lon="-1.13503">
        <ele>42.362</ele>
        <time>2020-07-19T11:34:12Z</time>
      </trkpt>
      <trkpt lat="47.36592" lon="-1.13493">
        <ele>42.575</ele>
        <time>2020-07-19T11:34:13Z</time>
      </trkpt>
      <trkpt lat="47.3659" lon="-1.13483">
        <ele>42.136</ele>
        <time>2020-07-19T11:34:14Z</time>
      </trkpt>
      <trkpt lat="47.3659" lon="-1.13473">
        <ele>42.636</ele>
        <time>2020-07-19T11:34:15Z</time>
      </trkpt>
      <trkpt lat="47.3659" lon="-1.13463">
        <ele>42.8</ele>
        <time>2020-07-19T11:34:16Z</time>
      </trkpt>
      <trkpt lat="47.36591" lon="-1.13453">
        <ele>43.481</ele>
        <time>2020-07-19T11:34:17Z</time>
      </trkpt>
      <trkpt lat="47.36592" lon="-1.13443">
        <ele>43.9</ele>
        <time>2020-07-19T11:34:18Z</time>
      </trkpt>
      <trkpt lat="47.36593" lon="-1.13432">
        <ele>44.828</ele>
        <time>2020-07-19T11:34:19Z</time>
      </trkpt>
      <trkpt lat="47.36593" lon="-1.13422">
        <ele>45.505</ele>
        <time>2020-07-19T11:34:20Z</time>
      </trkpt>
      <trkpt lat="47.36594" lon="-1.13412">
        <ele>46.291</ele>
        <time>2020-07-19T11:34:21Z</time>
      </trkpt>
      <trkpt lat="47.36594" lon="-1.13402">
        <ele>45.928</ele>
        <time>2020-07-19T11:34:22Z</time>
      </trkpt>
      <trkpt lat="47.36595" lon="-1.13392">
        <ele>46.424</ele>
        <time>2020-07-19T11:34:23Z</time>
      </trkpt>
      <trkpt lat="47.36596" lon="-1.13382">
        <ele>46.943</ele>
        <time>2020-07-19T11:34:24Z</time>
      </trkpt>
      <trkpt lat="47.36596" lon="-1.13371">
        <ele>46.39</ele>
        <time>2020-07-19T11:34:25Z</time>
      </trkpt>
      <trkpt lat="47.36597" lon="-1.13362">
        <ele>46.49</ele>
        <time>2020-07-19T11:34:26Z</time>
      </trkpt>
      <trkpt lat="47.36597" lon="-1.13351">
        <ele>46.921</ele>
        <time>2020-07-19T11:34:27Z</time>
      </trkpt>
      <trkpt lat="47.36598" lon="-1.13342">
        <ele>46.958</ele>
        <time>2020-07-19T11:34:28Z</time>
      </trkpt>
      <trkpt lat="47.36598" lon="-1.13332">
        <ele>46.855</ele>
        <time>2020-07-19T11:34:29Z</time>
      </trkpt>
      <trkpt lat="47.36599" lon="-1.13322">
        <ele>47.317</ele>
        <time>2020-07-19T11:34:30Z</time>
      </trkpt>
      <trkpt lat="47.366" lon="-1.13313">
        <ele>47.426</ele>
        <time>2020-07-19T11:34:31Z</time>
      </trkpt>
      <trkpt lat="47.36601" lon="-1.13304">
        <ele>47.761</ele>
        <time>2020-07-19T11:34:32Z</time>
      </trkpt>
      <trkpt lat="47.36601" lon="-1.13294">
        <ele>48.069</ele>
        <time>2020-07-19T11:34:33Z</time>
      </trkpt>
      <trkpt lat="47.36601" lon="-1.13285">
        <ele>48.545</ele>
        <time>2020-07-19T11:34:34Z</time>
      </trkpt>
      <trkpt lat="47.36602" lon="-1.13276">
        <ele>48.81</ele>
        <time>2020-07-19T11:34:35Z</time>
      </trkpt>
      <trkpt lat="47.36602" lon="-1.13266">
        <ele>49.022</ele>
        <time>2020-07-19T11:34:36Z</time>
      </trkpt>
      <trkpt lat="47.36602" lon="-1.13257">
        <ele>49.156</ele>
        <time>2020-07-19T11:34:37Z</time>
      </trkpt>
      <trkpt lat="47.36603" lon="-1.13248">
        <ele>50.238</ele>
        <time>2020-07-19T11:34:38Z</time>
      </trkpt>
      <trkpt lat="47.36602" lon="-1.13239">
        <ele>51.135</ele>
        <time>2020-07-19T11:34:39Z</time>
      </trkpt>
      <trkpt lat="47.36603" lon="-1.1323">
        <ele>51.224</ele>
        <time>2020-07-19T11:34:40Z</time>
      </trkpt>
      <trkpt lat="47.36603" lon="-1.13221">
        <ele>51.618</ele>
        <time>2020-07-19T11:34:41Z</time>
      </trkpt>
      <trkpt lat="47.36603" lon="-1.13212">
        <ele>51.78</ele>
        <time>2020-07-19T11:34:42Z</time>
      </trkpt>
      <trkpt lat="47.36603" lon="-1.13203">
        <ele>51.357</ele>
        <time>2020-07-19T11:34:43Z</time>
      </trkpt>
      <trkpt lat="47.36604" lon="-1.13195">
        <ele>51.716</ele>
        <time>2020-07-19T11:34:44Z</time>
      </trkpt>
      <trkpt lat="47.36604" lon="-1.13185">
        <ele>51.999</ele>
        <time>2020-07-19T11:34:45Z</time>
      </trkpt>
      <trkpt lat="47.36602" lon="-1.13175">
        <ele>52.701</ele>
        <time>2020-07-19T11:34:46Z</time>
      </trkpt>
      <trkpt lat="47.36602" lon="-1.13166">
        <ele>52.8</ele>
        <time>2020-07-19T11:34:47Z</time>
      </trkpt>
      <trkpt lat="47.36603" lon="-1.13156">
        <ele>53.091</ele>
        <time>2020-07-19T11:34:48Z</time>
      </trkpt>
      <trkpt lat="47.36602" lon="-1.13146">
        <ele>53.417</ele>
        <time>2020-07-19T11:34:49Z</time>
      </trkpt>
      <trkpt lat="47.36601" lon="-1.13137">
        <ele>53.002</ele>
        <time>2020-07-19T11:34:50Z</time>
      </trkpt>
      <trkpt lat="47.366" lon="-1.13127">
        <ele>53.683</ele>
        <time>2020-07-19T11:34:51Z</time>
      </trkpt>
      <trkpt lat="47.36598" lon="-1.13118">
        <ele>53.735</ele>
        <time>2020-07-19T11:34:52Z</time>
      </trkpt>
      <trkpt lat="47.36597" lon="-1.13109">
        <ele>54</ele>
        <time>2020-07-19T11:34:53Z</time>
      </trkpt>
      <trkpt lat="47.36596" lon="-1.13099">
        <ele>52.481</ele>
        <time>2020-07-19T11:34:54Z</time>
      </trkpt>
      <trkpt lat="47.36597" lon="-1.13091">
        <ele>52.497</ele>
        <time>2020-07-19T11:34:55Z</time>
      </trkpt>
      <trkpt lat="47.36595" lon="-1.13082">
        <ele>51.28</ele>
        <time>2020-07-19T11:34:56Z</time>
      </trkpt>
      <trkpt lat="47.36594" lon="-1.13073">
        <ele>52.686</ele>
        <time>2020-07-19T11:34:57Z</time>
      </trkpt>
      <trkpt lat="47.36594" lon="-1.13063">
        <ele>53.331</ele>
        <time>2020-07-19T11:34:58Z</time>
      </trkpt>
      <trkpt lat="47.36592" lon="-1.13053">
        <ele>53.802</ele>
        <time>2020-07-19T11:34:59Z</time>
      </trkpt>
      <trkpt lat="47.36591" lon="-1.13044">
        <ele>53.838</ele>
        <time>2020-07-19T11:35:00Z</time>
      </trkpt>
      <trkpt lat="47.3659" lon="-1.13035">
        <ele>52.951</ele>
        <time>2020-07-19T11:35:01Z</time>
      </trkpt>
      <trkpt lat="47.36589" lon="-1.13026">
        <ele>53.261</ele>
        <time>2020-07-19T11:35:02Z</time>
      </trkpt>
      <trkpt lat="47.36589" lon="-1.13015">
        <ele>53.916</ele>
        <time>2020-07-19T11:35:03Z</time>
      </trkpt>
      <trkpt lat="47.36586" lon="-1.13006">
        <ele>53.454</ele>
        <time>2020-07-19T11:35:04Z</time>
      </trkpt>
      <trkpt lat="47.36585" lon="-1.12996">
        <ele>53.286</ele>
        <time>2020-07-19T11:35:05Z</time>
      </trkpt>
      <trkpt lat="47.36584" lon="-1.12989">
        <ele>52.288</ele>
        <time>2020-07-19T11:35:06Z</time>
      </trkpt>
      <trkpt lat="47.36583" lon="-1.12979">
        <ele>51.985</ele>
        <time>2020-07-19T11:35:07Z</time>
      </trkpt>
      <trkpt lat="47.3658" lon="-1.12969">
        <ele>50.696</ele>
        <time>2020-07-19T11:35:08Z</time>
      </trkpt>
      <trkpt lat="47.36581" lon="-1.1296">
        <ele>49.981</ele>
        <time>2020-07-19T11:35:09Z</time>
      </trkpt>
      <trkpt lat="47.36579" lon="-1.12951">
        <ele>49.517</ele>
        <time>2020-07-19T11:35:10Z</time>
      </trkpt>
      <trkpt lat="47.36579" lon="-1.12944">
        <ele>47.249</ele>
        <time>2020-07-19T11:35:11Z</time>
      </trkpt>
      <trkpt lat="47.36578" lon="-1.12935">
        <ele>47.21</ele>
        <time>2020-07-19T11:35:12Z</time>
      </trkpt>
      <trkpt lat="47.36578" lon="-1.12926">
        <ele>46.771</ele>
        <time>2020-07-19T11:35:13Z</time>
      </trkpt>
      <trkpt lat="47.36576" lon="-1.12917">
        <ele>46.1</ele>
        <time>2020-07-19T11:35:14Z</time>
      </trkpt>
      <trkpt lat="47.36575" lon="-1.12907">
        <ele>45.044</ele>
        <time>2020-07-19T11:35:15Z</time>
      </trkpt>
      <trkpt lat="47.36575" lon="-1.12898">
        <ele>45.171</ele>
        <time>2020-07-19T11:35:16Z</time>
      </trkpt>
      <trkpt lat="47.36575" lon="-1.12889">
        <ele>45.415</ele>
        <time>2020-07-19T11:35:17Z</time>
      </trkpt>
      <trkpt lat="47.36574" lon="-1.1288">
        <ele>45.311</ele>
        <time>2020-07-19T11:35:18Z</time>
      </trkpt>
      <trkpt lat="47.36574" lon="-1.12871">
        <ele>45.668</ele>
        <time>2020-07-19T11:35:19Z</time>
      </trkpt>
      <trkpt lat="47.36574" lon="-1.12862">
        <ele>45.264</ele>
        <time>2020-07-19T11:35:20Z</time>
      </trkpt>
      <trkpt lat="47.36575" lon="-1.12854">
        <ele>44.683</ele>
        <time>2020-07-19T11:35:21Z</time>
      </trkpt>
      <trkpt lat="47.36576" lon="-1.12844">
        <ele>45.19</ele>
        <time>2020-07-19T11:35:22Z</time>
      </trkpt>
      <trkpt lat="47.36577" lon="-1.12837">
        <ele>44.118</ele>
        <time>2020-07-19T11:35:23Z</time>
      </trkpt>
      <trkpt lat="47.36576" lon="-1.12828">
        <ele>44.354</ele>
        <time>2020-07-19T11:35:24Z</time>
      </trkpt>
      <trkpt lat="47.36576" lon="-1.12819">
        <ele>43.111</ele>
        <time>2020-07-19T11:35:25Z</time>
      </trkpt>
      <trkpt lat="47.36576" lon="-1.12809">
        <ele>44.15</ele>
        <time>2020-07-19T11:35:26Z</time>
      </trkpt>
      <trkpt lat="47.36576" lon="-1.128">
        <ele>44.429</ele>
        <time>2020-07-19T11:35:27Z</time>
      </trkpt>
      <trkpt lat="47.36576" lon="-1.12791">
        <ele>44.505</ele>
        <time>2020-07-19T11:35:28Z</time>
      </trkpt>
      <trkpt lat="47.36575" lon="-1.12781">
        <ele>44.941</ele>
        <time>2020-07-19T11:35:29Z</time>
      </trkpt>
      <trkpt lat="47.36576" lon="-1.12773">
        <ele>45.27</ele>
        <time>2020-07-19T11:35:30Z</time>
      </trkpt>
      <trkpt lat="47.36576" lon="-1.12763">
        <ele>44.935</ele>
        <time>2020-07-19T11:35:31Z</time>
      </trkpt>
      <trkpt lat="47.36576" lon="-1.12754">
        <ele>45.09</ele>
        <time>2020-07-19T11:35:32Z</time>
      </trkpt>
      <trkpt lat="47.36577" lon="-1.12744">
        <ele>45.239</ele>
        <time>2020-07-19T11:35:33Z</time>
      </trkpt>
      <trkpt lat="47.36577" lon="-1.12734">
        <ele>45.236</ele>
        <time>2020-07-19T11:35:34Z</time>
      </trkpt>
      <trkpt lat="47.36577" lon="-1.12723">
        <ele>45.349</ele>
        <time>2020-07-19T11:35:35Z</time>
      </trkpt>
      <trkpt lat="47.36577" lon="-1.12716">
        <ele>42.906</ele>
        <time>2020-07-19T11:35:36Z</time>
      </trkpt>
      <trkpt lat="47.36577" lon="-1.12706">
        <ele>42.467</ele>
        <time>2020-07-19T11:35:37Z</time>
      </trkpt>
      <trkpt lat="47.36578" lon="-1.12696">
        <ele>42.95</ele>
        <time>2020-07-19T11:35:38Z</time>
      </trkpt>
      <trkpt lat="47.36578" lon="-1.12687">
        <ele>43.596</ele>
        <time>2020-07-19T11:35:39Z</time>
      </trkpt>
      <trkpt lat="47.36579" lon="-1.12677">
        <ele>43.841</ele>
        <time>2020-07-19T11:35:40Z</time>
      </trkpt>
      <trkpt lat="47.36579" lon="-1.12667">
        <ele>43.67</ele>
        <time>2020-07-19T11:35:41Z</time>
      </trkpt>
      <trkpt lat="47.36578" lon="-1.12658">
        <ele>43.078</ele>
        <time>2020-07-19T11:35:42Z</time>
      </trkpt>
      <trkpt lat="47.36579" lon="-1.12649">
        <ele>41.68</ele>
        <time>2020-07-19T11:35:43Z</time>
      </trkpt>
      <trkpt lat="47.36579" lon="-1.12639">
        <ele>42.005</ele>
        <time>2020-07-19T11:35:44Z</time>
      </trkpt>
      <trkpt lat="47.3658" lon="-1.1263">
        <ele>42.131</ele>
        <time>2020-07-19T11:35:45Z</time>
      </trkpt>
      <trkpt lat="47.36578" lon="-1.1262">
        <ele>40.177</ele>
        <time>2020-07-19T11:35:46Z</time>
      </trkpt>
      <trkpt lat="47.36577" lon="-1.12613">
        <ele>39.811</ele>
        <time>2020-07-19T11:35:47Z</time>
      </trkpt>
      <trkpt lat="47.36578" lon="-1.12603">
        <ele>40.636</ele>
        <time>2020-07-19T11:35:48Z</time>
      </trkpt>
      <trkpt lat="47.36577" lon="-1.12593">
        <ele>40.975</ele>
        <time>2020-07-19T11:35:49Z</time>
      </trkpt>
      <trkpt lat="47.36577" lon="-1.12584">
        <ele>41.668</ele>
        <time>2020-07-19T11:35:50Z</time>
      </trkpt>
      <trkpt lat="47.36577" lon="-1.12575">
        <ele>42.737</ele>
        <time>2020-07-19T11:35:51Z</time>
      </trkpt>
      <trkpt lat="47.36578" lon="-1.12565">
        <ele>44.073</ele>
        <time>2020-07-19T11:35:52Z</time>
      </trkpt>
      <trkpt lat="47.36579" lon="-1.12557">
        <ele>43.509</ele>
        <time>2020-07-19T11:35:53Z</time>
      </trkpt>
      <trkpt lat="47.36579" lon="-1.12547">
        <ele>42.964</ele>
        <time>2020-07-19T11:35:54Z</time>
      </trkpt>
      <trkpt lat="47.36579" lon="-1.12538">
        <ele>44.002</ele>
        <time>2020-07-19T11:35:55Z</time>
      </trkpt>
      <trkpt lat="47.3658" lon="-1.12529">
        <ele>43.345</ele>
        <time>2020-07-19T11:35:56Z</time>
      </trkpt>
      <trkpt lat="47.36581" lon="-1.12521">
        <ele>43.589</ele>
        <time>2020-07-19T11:35:57Z</time>
      </trkpt>
      <trkpt lat="47.36581" lon="-1.12512">
        <ele>43.534</ele>
        <time>2020-07-19T11:35:58Z</time>
      </trkpt>
      <trkpt lat="47.36584" lon="-1.12503">
        <ele>52.102</ele>
        <time>2020-07-19T11:35:59Z</time>
      </trkpt>
      <trkpt lat="47.36585" lon="-1.12495">
        <ele>50.064</ele>
        <time>2020-07-19T11:36:00Z</time>
      </trkpt>
      <trkpt lat="47.36586" lon="-1.12487">
        <ele>49.558</ele>
        <time>2020-07-19T11:36:01Z</time>
      </trkpt>
      <trkpt lat="47.36586" lon="-1.1248">
        <ele>49.341</ele>
        <time>2020-07-19T11:36:02Z</time>
      </trkpt>
      <trkpt lat="47.36587" lon="-1.12473">
        <ele>49.675</ele>
        <time>2020-07-19T11:36:03Z</time>
      </trkpt>
      <trkpt lat="47.36587" lon="-1.12466">
        <ele>49.115</ele>
        <time>2020-07-19T11:36:04Z</time>
      </trkpt>
      <trkpt lat="47.36587" lon="-1.1246">
        <ele>48.985</ele>
        <time>2020-07-19T11:36:05Z</time>
      </trkpt>
      <trkpt lat="47.36589" lon="-1.12455">
        <ele>49.111</ele>
        <time>2020-07-19T11:36:06Z</time>
      </trkpt>
      <trkpt lat="47.36589" lon="-1.12447">
        <ele>48.968</ele>
        <time>2020-07-19T11:36:07Z</time>
      </trkpt>
      <trkpt lat="47.3659" lon="-1.12441">
        <ele>48.956</ele>
        <time>2020-07-19T11:36:08Z</time>
      </trkpt>
      <trkpt lat="47.3659" lon="-1.12434">
        <ele>49.008</ele>
        <time>2020-07-19T11:36:09Z</time>
      </trkpt>
      <trkpt lat="47.3659" lon="-1.12427">
        <ele>49.18</ele>
        <time>2020-07-19T11:36:10Z</time>
      </trkpt>
      <trkpt lat="47.36591" lon="-1.1242">
        <ele>49.519</ele>
        <time>2020-07-19T11:36:11Z</time>
      </trkpt>
      <trkpt lat="47.36591" lon="-1.12414">
        <ele>50.077</ele>
        <time>2020-07-19T11:36:12Z</time>
      </trkpt>
      <trkpt lat="47.36591" lon="-1.12407">
        <ele>50.208</ele>
        <time>2020-07-19T11:36:13Z</time>
      </trkpt>
      <trkpt lat="47.36592" lon="-1.124">
        <ele>49.549</ele>
        <time>2020-07-19T11:36:14Z</time>
      </trkpt>
      <trkpt lat="47.36594" lon="-1.12395">
        <ele>50.783</ele>
        <time>2020-07-19T11:36:15Z</time>
      </trkpt>
      <trkpt lat="47.36595" lon="-1.12388">
        <ele>50.667</ele>
        <time>2020-07-19T11:36:16Z</time>
      </trkpt>
      <trkpt lat="47.36593" lon="-1.12385">
        <ele>47.279</ele>
        <time>2020-07-19T11:36:17Z</time>
      </trkpt>
      <trkpt lat="47.36595" lon="-1.12379">
        <ele>47.716</ele>
        <time>2020-07-19T11:36:18Z</time>
      </trkpt>
      <trkpt lat="47.36596" lon="-1.12373">
        <ele>48.097</ele>
        <time>2020-07-19T11:36:19Z</time>
      </trkpt>
      <trkpt lat="47.36597" lon="-1.12368">
        <ele>48.551</ele>
        <time>2020-07-19T11:36:20Z</time>
      </trkpt>
      <trkpt lat="47.36598" lon="-1.12363">
        <ele>48.628</ele>
        <time>2020-07-19T11:36:21Z</time>
      </trkpt>
      <trkpt lat="47.36599" lon="-1.12357">
        <ele>48.985</ele>
        <time>2020-07-19T11:36:22Z</time>
      </trkpt>
      <trkpt lat="47.36599" lon="-1.12353">
        <ele>49.021</ele>
        <time>2020-07-19T11:36:23Z</time>
      </trkpt>
      <trkpt lat="47.36599" lon="-1.12348">
        <ele>50.108</ele>
        <time>2020-07-19T11:36:24Z</time>
      </trkpt>
      <trkpt lat="47.36601" lon="-1.12343">
        <ele>51.15</ele>
        <time>2020-07-19T11:36:25Z</time>
      </trkpt>
      <trkpt lat="47.36601" lon="-1.12338">
        <ele>50.313</ele>
        <time>2020-07-19T11:36:26Z</time>
      </trkpt>
      <trkpt lat="47.36602" lon="-1.12333">
        <ele>50.447</ele>
        <time>2020-07-19T11:36:27Z</time>
      </trkpt>
      <trkpt lat="47.36602" lon="-1.12327">
        <ele>50.702</ele>
        <time>2020-07-19T11:36:28Z</time>
      </trkpt>
      <trkpt lat="47.36602" lon="-1.12321">
        <ele>51.247</ele>
        <time>2020-07-19T11:36:29Z</time>
      </trkpt>
      <trkpt lat="47.36602" lon="-1.12315">
        <ele>51.746</ele>
        <time>2020-07-19T11:36:30Z</time>
      </trkpt>
      <trkpt lat="47.366" lon="-1.12307">
        <ele>51.789</ele>
        <time>2020-07-19T11:36:31Z</time>
      </trkpt>
      <trkpt lat="47.36601" lon="-1.123">
        <ele>51.852</ele>
        <time>2020-07-19T11:36:32Z</time>
      </trkpt>
      <trkpt lat="47.36601" lon="-1.12292">
        <ele>51.128</ele>
        <time>2020-07-19T11:36:33Z</time>
      </trkpt>
      <trkpt lat="47.36601" lon="-1.12284">
        <ele>51.22</ele>
        <time>2020-07-19T11:36:34Z</time>
      </trkpt>
      <trkpt lat="47.36601" lon="-1.12277">
        <ele>51.62</ele>
        <time>2020-07-19T11:36:35Z</time>
      </trkpt>
      <trkpt lat="47.36601" lon="-1.1227">
        <ele>52.22</ele>
        <time>2020-07-19T11:36:36Z</time>
      </trkpt>
      <trkpt lat="47.36601" lon="-1.12263">
        <ele>52.257</ele>
        <time>2020-07-19T11:36:37Z</time>
      </trkpt>
      <trkpt lat="47.36601" lon="-1.12255">
        <ele>52.124</ele>
        <time>2020-07-19T11:36:38Z</time>
      </trkpt>
      <trkpt lat="47.366" lon="-1.12248">
        <ele>52.243</ele>
        <time>2020-07-19T11:36:39Z</time>
      </trkpt>
      <trkpt lat="47.366" lon="-1.12241">
        <ele>52.611</ele>
        <time>2020-07-19T11:36:40Z</time>
      </trkpt>
      <trkpt lat="47.366" lon="-1.12233">
        <ele>52.111</ele>
        <time>2020-07-19T11:36:41Z</time>
      </trkpt>
      <trkpt lat="47.36599" lon="-1.12225">
        <ele>51.686</ele>
        <time>2020-07-19T11:36:42Z</time>
      </trkpt>
      <trkpt lat="47.36599" lon="-1.12218">
        <ele>52.212</ele>
        <time>2020-07-19T11:36:43Z</time>
      </trkpt>
      <trkpt lat="47.36598" lon="-1.1221">
        <ele>52.166</ele>
        <time>2020-07-19T11:36:44Z</time>
      </trkpt>
      <trkpt lat="47.36598" lon="-1.12202">
        <ele>52.503</ele>
        <time>2020-07-19T11:36:45Z</time>
      </trkpt>
      <trkpt lat="47.36597" lon="-1.12195">
        <ele>52.752</ele>
        <time>2020-07-19T11:36:46Z</time>
      </trkpt>
      <trkpt lat="47.36597" lon="-1.12187">
        <ele>52.99</ele>
        <time>2020-07-19T11:36:47Z</time>
      </trkpt>
      <trkpt lat="47.36597" lon="-1.12181">
        <ele>52.724</ele>
        <time>2020-07-19T11:36:48Z</time>
      </trkpt>
      <trkpt lat="47.36598" lon="-1.12173">
        <ele>52.993</ele>
        <time>2020-07-19T11:36:49Z</time>
      </trkpt>
      <trkpt lat="47.36598" lon="-1.12166">
        <ele>52.788</ele>
        <time>2020-07-19T11:36:50Z</time>
      </trkpt>
      <trkpt lat="47.36598" lon="-1.12158">
        <ele>52.955</ele>
        <time>2020-07-19T11:36:51Z</time>
      </trkpt>
      <trkpt lat="47.36598" lon="-1.12151">
        <ele>52.641</ele>
        <time>2020-07-19T11:36:52Z</time>
      </trkpt>
      <trkpt lat="47.36598" lon="-1.12143">
        <ele>55.223</ele>
        <time>2020-07-19T11:36:53Z</time>
      </trkpt>
      <trkpt lat="47.36599" lon="-1.12136">
        <ele>54.232</ele>
        <time>2020-07-19T11:36:54Z</time>
      </trkpt>
      <trkpt lat="47.36599" lon="-1.12128">
        <ele>54.524</ele>
        <time>2020-07-19T11:36:55Z</time>
      </trkpt>
      <trkpt lat="47.36599" lon="-1.1212">
        <ele>55.013</ele>
        <time>2020-07-19T11:36:56Z</time>
      </trkpt>
      <trkpt lat="47.36599" lon="-1.12113">
        <ele>55.101</ele>
        <time>2020-07-19T11:36:57Z</time>
      </trkpt>
      <trkpt lat="47.36599" lon="-1.12104">
        <ele>54.559</ele>
        <time>2020-07-19T11:36:58Z</time>
      </trkpt>
      <trkpt lat="47.36599" lon="-1.12096">
        <ele>54.659</ele>
        <time>2020-07-19T11:36:59Z</time>
      </trkpt>
      <trkpt lat="47.36599" lon="-1.12088">
        <ele>54.634</ele>
        <time>2020-07-19T11:37:00Z</time>
      </trkpt>
      <trkpt lat="47.36599" lon="-1.1208">
        <ele>54.948</ele>
        <time>2020-07-19T11:37:01Z</time>
      </trkpt>
      <trkpt lat="47.36599" lon="-1.12072">
        <ele>55.234</ele>
        <time>2020-07-19T11:37:02Z</time>
      </trkpt>
      <trkpt lat="47.36598" lon="-1.12064">
        <ele>54.088</ele>
        <time>2020-07-19T11:37:03Z</time>
      </trkpt>
      <trkpt lat="47.36598" lon="-1.12056">
        <ele>54.275</ele>
        <time>2020-07-19T11:37:04Z</time>
      </trkpt>
      <trkpt lat="47.36598" lon="-1.12047">
        <ele>54.436</ele>
        <time>2020-07-19T11:37:05Z</time>
      </trkpt>
      <trkpt lat="47.36598" lon="-1.12039">
        <ele>54.521</ele>
        <time>2020-07-19T11:37:06Z</time>
      </trkpt>
      <trkpt lat="47.36598" lon="-1.12031">
        <ele>53.985</ele>
        <time>2020-07-19T11:37:07Z</time>
      </trkpt>
      <trkpt lat="47.36597" lon="-1.12023">
        <ele>53.944</ele>
        <time>2020-07-19T11:37:08Z</time>
      </trkpt>
      <trkpt lat="47.36597" lon="-1.12015">
        <ele>54.421</ele>
        <time>2020-07-19T11:37:09Z</time>
      </trkpt>
      <trkpt lat="47.36597" lon="-1.12007">
        <ele>54.138</ele>
        <time>2020-07-19T11:37:10Z</time>
      </trkpt>
      <trkpt lat="47.36595" lon="-1.11999">
        <ele>52.954</ele>
        <time>2020-07-19T11:37:11Z</time>
      </trkpt>
      <trkpt lat="47.36596" lon="-1.1199">
        <ele>53.255</ele>
        <time>2020-07-19T11:37:12Z</time>
      </trkpt>
      <trkpt lat="47.36595" lon="-1.11982">
        <ele>52.792</ele>
        <time>2020-07-19T11:37:13Z</time>
      </trkpt>
      <trkpt lat="47.36595" lon="-1.11972">
        <ele>53.487</ele>
        <time>2020-07-19T11:37:14Z</time>
      </trkpt>
      <trkpt lat="47.36596" lon="-1.11964">
        <ele>53.356</ele>
        <time>2020-07-19T11:37:15Z</time>
      </trkpt>
      <trkpt lat="47.36595" lon="-1.11954">
        <ele>51.353</ele>
        <time>2020-07-19T11:37:16Z</time>
      </trkpt>
      <trkpt lat="47.36594" lon="-1.11948">
        <ele>52.456</ele>
        <time>2020-07-19T11:37:17Z</time>
      </trkpt>
      <trkpt lat="47.36592" lon="-1.11941">
        <ele>52.28</ele>
        <time>2020-07-19T11:37:18Z</time>
      </trkpt>
      <trkpt lat="47.36591" lon="-1.11934">
        <ele>52.823</ele>
        <time>2020-07-19T11:37:19Z</time>
      </trkpt>
      <trkpt lat="47.3659" lon="-1.11928">
        <ele>52.582</ele>
        <time>2020-07-19T11:37:20Z</time>
      </trkpt>
      <trkpt lat="47.36588" lon="-1.11921">
        <ele>53.369</ele>
        <time>2020-07-19T11:37:21Z</time>
      </trkpt>
      <trkpt lat="47.36587" lon="-1.11913">
        <ele>53.487</ele>
        <time>2020-07-19T11:37:22Z</time>
      </trkpt>
      <trkpt lat="47.36587" lon="-1.11908">
        <ele>53.896</ele>
        <time>2020-07-19T11:37:23Z</time>
      </trkpt>
      <trkpt lat="47.36589" lon="-1.11904">
        <ele>51.239</ele>
        <time>2020-07-19T11:37:24Z</time>
      </trkpt>
      <trkpt lat="47.36591" lon="-1.11897">
        <ele>52.577</ele>
        <time>2020-07-19T11:37:25Z</time>
      </trkpt>
      <trkpt lat="47.36592" lon="-1.11891">
        <ele>53.911</ele>
        <time>2020-07-19T11:37:26Z</time>
      </trkpt>
      <trkpt lat="47.36591" lon="-1.11885">
        <ele>53.327</ele>
        <time>2020-07-19T11:37:27Z</time>
      </trkpt>
      <trkpt lat="47.36592" lon="-1.11879">
        <ele>53.702</ele>
        <time>2020-07-19T11:37:28Z</time>
      </trkpt>
      <trkpt lat="47.36593" lon="-1.11872">
        <ele>53.904</ele>
        <time>2020-07-19T11:37:29Z</time>
      </trkpt>
      <trkpt lat="47.36593" lon="-1.11865">
        <ele>54.574</ele>
        <time>2020-07-19T11:37:30Z</time>
      </trkpt>
      <trkpt lat="47.36593" lon="-1.11858">
        <ele>54.196</ele>
        <time>2020-07-19T11:37:31Z</time>
      </trkpt>
      <trkpt lat="47.36593" lon="-1.11852">
        <ele>54.512</ele>
        <time>2020-07-19T11:37:32Z</time>
      </trkpt>
      <trkpt lat="47.36592" lon="-1.11844">
        <ele>54.38</ele>
        <time>2020-07-19T11:37:33Z</time>
      </trkpt>
      <trkpt lat="47.36592" lon="-1.11838">
        <ele>54.075</ele>
        <time>2020-07-19T11:37:34Z</time>
      </trkpt>
      <trkpt lat="47.36593" lon="-1.11833">
        <ele>52.244</ele>
        <time>2020-07-19T11:37:35Z</time>
      </trkpt>
      <trkpt lat="47.36593" lon="-1.11825">
        <ele>52.218</ele>
        <time>2020-07-19T11:37:36Z</time>
      </trkpt>
      <trkpt lat="47.36593" lon="-1.11817">
        <ele>52.574</ele>
        <time>2020-07-19T11:37:37Z</time>
      </trkpt>
      <trkpt lat="47.36593" lon="-1.11809">
        <ele>52.335</ele>
        <time>2020-07-19T11:37:38Z</time>
      </trkpt>
      <trkpt lat="47.36593" lon="-1.11802">
        <ele>52.627</ele>
        <time>2020-07-19T11:37:39Z</time>
      </trkpt>
      <trkpt lat="47.36592" lon="-1.11795">
        <ele>51.777</ele>
        <time>2020-07-19T11:37:40Z</time>
      </trkpt>
      <trkpt lat="47.3659" lon="-1.11789">
        <ele>51.408</ele>
        <time>2020-07-19T11:37:41Z</time>
      </trkpt>
      <trkpt lat="47.36588" lon="-1.11781">
        <ele>51.046</ele>
        <time>2020-07-19T11:37:42Z</time>
      </trkpt>
      <trkpt lat="47.36587" lon="-1.11773">
        <ele>50.435</ele>
        <time>2020-07-19T11:37:43Z</time>
      </trkpt>
      <trkpt lat="47.36587" lon="-1.11765">
        <ele>50.231</ele>
        <time>2020-07-19T11:37:44Z</time>
      </trkpt>
      <trkpt lat="47.36585" lon="-1.11757">
        <ele>48.582</ele>
        <time>2020-07-19T11:37:45Z</time>
      </trkpt>
      <trkpt lat="47.36585" lon="-1.11749">
        <ele>48.427</ele>
        <time>2020-07-19T11:37:46Z</time>
      </trkpt>
      <trkpt lat="47.36586" lon="-1.1174">
        <ele>47.367</ele>
        <time>2020-07-19T11:37:47Z</time>
      </trkpt>
      <trkpt lat="47.36585" lon="-1.11732">
        <ele>47.629</ele>
        <time>2020-07-19T11:37:48Z</time>
      </trkpt>
      <trkpt lat="47.36585" lon="-1.11724">
        <ele>47.735</ele>
        <time>2020-07-19T11:37:49Z</time>
      </trkpt>
      <trkpt lat="47.36584" lon="-1.11714">
        <ele>46.716</ele>
        <time>2020-07-19T11:37:50Z</time>
      </trkpt>
      <trkpt lat="47.36584" lon="-1.11706">
        <ele>46.476</ele>
        <time>2020-07-19T11:37:51Z</time>
      </trkpt>
      <trkpt lat="47.36582" lon="-1.11697">
        <ele>46.232</ele>
        <time>2020-07-19T11:37:52Z</time>
      </trkpt>
      <trkpt lat="47.36582" lon="-1.11689">
        <ele>44.205</ele>
        <time>2020-07-19T11:37:53Z</time>
      </trkpt>
      <trkpt lat="47.36582" lon="-1.1168">
        <ele>44.238</ele>
        <time>2020-07-19T11:37:54Z</time>
      </trkpt>
      <trkpt lat="47.36581" lon="-1.11671">
        <ele>43.441</ele>
        <time>2020-07-19T11:37:55Z</time>
      </trkpt>
      <trkpt lat="47.3658" lon="-1.11663">
        <ele>43.715</ele>
        <time>2020-07-19T11:37:56Z</time>
      </trkpt>
      <trkpt lat="47.36579" lon="-1.11654">
        <ele>43.837</ele>
        <time>2020-07-19T11:37:57Z</time>
      </trkpt>
      <trkpt lat="47.36578" lon="-1.11647">
        <ele>43.3</ele>
        <time>2020-07-19T11:37:58Z</time>
      </trkpt>
      <trkpt lat="47.36578" lon="-1.1164">
        <ele>43.682</ele>
        <time>2020-07-19T11:37:59Z</time>
      </trkpt>
      <trkpt lat="47.36577" lon="-1.11632">
        <ele>43.496</ele>
        <time>2020-07-19T11:38:00Z</time>
      </trkpt>
      <trkpt lat="47.36575" lon="-1.11624">
        <ele>43.026</ele>
        <time>2020-07-19T11:38:01Z</time>
      </trkpt>
      <trkpt lat="47.36574" lon="-1.11617">
        <ele>39.632</ele>
        <time>2020-07-19T11:38:02Z</time>
      </trkpt>
      <trkpt lat="47.36573" lon="-1.1161">
        <ele>40.199</ele>
        <time>2020-07-19T11:38:03Z</time>
      </trkpt>
      <trkpt lat="47.36572" lon="-1.11601">
        <ele>41.702</ele>
        <time>2020-07-19T11:38:04Z</time>
      </trkpt>
      <trkpt lat="47.36572" lon="-1.11593">
        <ele>41.441</ele>
        <time>2020-07-19T11:38:05Z</time>
      </trkpt>
      <trkpt lat="47.36572" lon="-1.11585">
        <ele>41.3</ele>
        <time>2020-07-19T11:38:06Z</time>
      </trkpt>
      <trkpt lat="47.3657" lon="-1.11576">
        <ele>41.873</ele>
        <time>2020-07-19T11:38:07Z</time>
      </trkpt>
      <trkpt lat="47.36569" lon="-1.11567">
        <ele>41.414</ele>
        <time>2020-07-19T11:38:08Z</time>
      </trkpt>
      <trkpt lat="47.36568" lon="-1.11557">
        <ele>41.23</ele>
        <time>2020-07-19T11:38:09Z</time>
      </trkpt>
      <trkpt lat="47.36566" lon="-1.11548">
        <ele>42.647</ele>
        <time>2020-07-19T11:38:10Z</time>
      </trkpt>
      <trkpt lat="47.36566" lon="-1.11538">
        <ele>43.815</ele>
        <time>2020-07-19T11:38:11Z</time>
      </trkpt>
      <trkpt lat="47.36566" lon="-1.11528">
        <ele>43.786</ele>
        <time>2020-07-19T11:38:12Z</time>
      </trkpt>
      <trkpt lat="47.36566" lon="-1.1152">
        <ele>45.228</ele>
        <time>2020-07-19T11:38:13Z</time>
      </trkpt>
      <trkpt lat="47.36565" lon="-1.11511">
        <ele>44.812</ele>
        <time>2020-07-19T11:38:14Z</time>
      </trkpt>
      <trkpt lat="47.36565" lon="-1.11502">
        <ele>44.341</ele>
        <time>2020-07-19T11:38:15Z</time>
      </trkpt>
      <trkpt lat="47.36565" lon="-1.11493">
        <ele>44.494</ele>
        <time>2020-07-19T11:38:16Z</time>
      </trkpt>
      <trkpt lat="47.36565" lon="-1.11486">
        <ele>43.335</ele>
        <time>2020-07-19T11:38:17Z</time>
      </trkpt>
      <trkpt lat="47.36563" lon="-1.11476">
        <ele>42.974</ele>
        <time>2020-07-19T11:38:18Z</time>
      </trkpt>
      <trkpt lat="47.36562" lon="-1.11468">
        <ele>41.459</ele>
        <time>2020-07-19T11:38:19Z</time>
      </trkpt>
      <trkpt lat="47.36562" lon="-1.1146">
        <ele>42.166</ele>
        <time>2020-07-19T11:38:20Z</time>
      </trkpt>
      <trkpt lat="47.36562" lon="-1.11452">
        <ele>42.415</ele>
        <time>2020-07-19T11:38:21Z</time>
      </trkpt>
      <trkpt lat="47.36562" lon="-1.11444">
        <ele>42.673</ele>
        <time>2020-07-19T11:38:22Z</time>
      </trkpt>
      <trkpt lat="47.36562" lon="-1.11437">
        <ele>43.558</ele>
        <time>2020-07-19T11:38:23Z</time>
      </trkpt>
      <trkpt lat="47.36563" lon="-1.11432">
        <ele>43.747</ele>
        <time>2020-07-19T11:38:24Z</time>
      </trkpt>
      <trkpt lat="47.36563" lon="-1.11424">
        <ele>44.042</ele>
        <time>2020-07-19T11:38:25Z</time>
      </trkpt>
      <trkpt lat="47.36563" lon="-1.11415">
        <ele>42.903</ele>
        <time>2020-07-19T11:38:26Z</time>
      </trkpt>
      <trkpt lat="47.36563" lon="-1.11406">
        <ele>41.249</ele>
        <time>2020-07-19T11:38:27Z</time>
      </trkpt>
      <trkpt lat="47.36562" lon="-1.114">
        <ele>40.383</ele>
        <time>2020-07-19T11:38:28Z</time>
      </trkpt>
      <trkpt lat="47.36562" lon="-1.11392">
        <ele>41.162</ele>
        <time>2020-07-19T11:38:29Z</time>
      </trkpt>
      <trkpt lat="47.36563" lon="-1.11384">
        <ele>40.784</ele>
        <time>2020-07-19T11:38:30Z</time>
      </trkpt>
      <trkpt lat="47.36563" lon="-1.11376">
        <ele>41.024</ele>
        <time>2020-07-19T11:38:31Z</time>
      </trkpt>
      <trkpt lat="47.36565" lon="-1.11367">
        <ele>41.476</ele>
        <time>2020-07-19T11:38:32Z</time>
      </trkpt>
      <trkpt lat="47.36566" lon="-1.1136">
        <ele>40.391</ele>
        <time>2020-07-19T11:38:33Z</time>
      </trkpt>
      <trkpt lat="47.36567" lon="-1.11352">
        <ele>41.394</ele>
        <time>2020-07-19T11:38:34Z</time>
      </trkpt>
      <trkpt lat="47.36567" lon="-1.11344">
        <ele>42.086</ele>
        <time>2020-07-19T11:38:35Z</time>
      </trkpt>
      <trkpt lat="47.36567" lon="-1.11336">
        <ele>42.579</ele>
        <time>2020-07-19T11:38:36Z</time>
      </trkpt>
      <trkpt lat="47.36567" lon="-1.11327">
        <ele>43.931</ele>
        <time>2020-07-19T11:38:37Z</time>
      </trkpt>
      <trkpt lat="47.36568" lon="-1.11319">
        <ele>44.448</ele>
        <time>2020-07-19T11:38:38Z</time>
      </trkpt>
      <trkpt lat="47.36567" lon="-1.1131">
        <ele>44.498</ele>
        <time>2020-07-19T11:38:39Z</time>
      </trkpt>
      <trkpt lat="47.36566" lon="-1.11302">
        <ele>44.118</ele>
        <time>2020-07-19T11:38:40Z</time>
      </trkpt>
      <trkpt lat="47.36565" lon="-1.11293">
        <ele>43.949</ele>
        <time>2020-07-19T11:38:41Z</time>
      </trkpt>
      <trkpt lat="47.36564" lon="-1.11284">
        <ele>43.618</ele>
        <time>2020-07-19T11:38:42Z</time>
      </trkpt>
      <trkpt lat="47.36563" lon="-1.11276">
        <ele>44.151</ele>
        <time>2020-07-19T11:38:43Z</time>
      </trkpt>
      <trkpt lat="47.36563" lon="-1.11267">
        <ele>43.857</ele>
        <time>2020-07-19T11:38:44Z</time>
      </trkpt>
      <trkpt lat="47.3656" lon="-1.11258">
        <ele>43.168</ele>
        <time>2020-07-19T11:38:45Z</time>
      </trkpt>
      <trkpt lat="47.36561" lon="-1.1125">
        <ele>42.867</ele>
        <time>2020-07-19T11:38:46Z</time>
      </trkpt>
      <trkpt lat="47.3656" lon="-1.1124">
        <ele>42.808</ele>
        <time>2020-07-19T11:38:47Z</time>
      </trkpt>
      <trkpt lat="47.36559" lon="-1.1123">
        <ele>44.031</ele>
        <time>2020-07-19T11:38:48Z</time>
      </trkpt>
      <trkpt lat="47.36558" lon="-1.11223">
        <ele>43.408</ele>
        <time>2020-07-19T11:38:49Z</time>
      </trkpt>
      <trkpt lat="47.36557" lon="-1.11215">
        <ele>44.735</ele>
        <time>2020-07-19T11:38:50Z</time>
      </trkpt>
      <trkpt lat="47.36557" lon="-1.11206">
        <ele>44.5</ele>
        <time>2020-07-19T11:38:51Z</time>
      </trkpt>
      <trkpt lat="47.36557" lon="-1.11198">
        <ele>45.117</ele>
        <time>2020-07-19T11:38:52Z</time>
      </trkpt>
      <trkpt lat="47.36556" lon="-1.11188">
        <ele>40.945</ele>
        <time>2020-07-19T11:38:53Z</time>
      </trkpt>
      <trkpt lat="47.36555" lon="-1.1118">
        <ele>41.005</ele>
        <time>2020-07-19T11:38:54Z</time>
      </trkpt>
      <trkpt lat="47.36555" lon="-1.11172">
        <ele>52.638</ele>
        <time>2020-07-19T11:38:55Z</time>
      </trkpt>
      <trkpt lat="47.36555" lon="-1.11164">
        <ele>50.667</ele>
        <time>2020-07-19T11:38:56Z</time>
      </trkpt>
      <trkpt lat="47.36555" lon="-1.11156">
        <ele>49.019</ele>
        <time>2020-07-19T11:38:57Z</time>
      </trkpt>
      <trkpt lat="47.36554" lon="-1.11149">
        <ele>46.869</ele>
        <time>2020-07-19T11:38:58Z</time>
      </trkpt>
      <trkpt lat="47.36554" lon="-1.1114">
        <ele>46.143</ele>
        <time>2020-07-19T11:38:59Z</time>
      </trkpt>
      <trkpt lat="47.36554" lon="-1.11131">
        <ele>45.974</ele>
        <time>2020-07-19T11:39:00Z</time>
      </trkpt>
      <trkpt lat="47.36554" lon="-1.11121">
        <ele>45.887</ele>
        <time>2020-07-19T11:39:01Z</time>
      </trkpt>
      <trkpt lat="47.36556" lon="-1.11113">
        <ele>44.485</ele>
        <time>2020-07-19T11:39:02Z</time>
      </trkpt>
      <trkpt lat="47.36556" lon="-1.11105">
        <ele>44.975</ele>
        <time>2020-07-19T11:39:03Z</time>
      </trkpt>
      <trkpt lat="47.36556" lon="-1.11096">
        <ele>44.599</ele>
        <time>2020-07-19T11:39:04Z</time>
      </trkpt>
      <trkpt lat="47.36557" lon="-1.11086">
        <ele>45.256</ele>
        <time>2020-07-19T11:39:05Z</time>
      </trkpt>
      <trkpt lat="47.36557" lon="-1.11076">
        <ele>45.545</ele>
        <time>2020-07-19T11:39:06Z</time>
      </trkpt>
      <trkpt lat="47.36557" lon="-1.11068">
        <ele>45.808</ele>
        <time>2020-07-19T11:39:07Z</time>
      </trkpt>
      <trkpt lat="47.36556" lon="-1.11059">
        <ele>46.241</ele>
        <time>2020-07-19T11:39:08Z</time>
      </trkpt>
      <trkpt lat="47.36555" lon="-1.11049">
        <ele>46.832</ele>
        <time>2020-07-19T11:39:09Z</time>
      </trkpt>
      <trkpt lat="47.36555" lon="-1.11039">
        <ele>45.407</ele>
        <time>2020-07-19T11:39:10Z</time>
      </trkpt>
      <trkpt lat="47.36554" lon="-1.1103">
        <ele>45.58</ele>
        <time>2020-07-19T11:39:11Z</time>
      </trkpt>
      <trkpt lat="47.36553" lon="-1.1102">
        <ele>45.739</ele>
        <time>2020-07-19T11:39:12Z</time>
      </trkpt>
      <trkpt lat="47.36552" lon="-1.11011">
        <ele>46.241</ele>
        <time>2020-07-19T11:39:13Z</time>
      </trkpt>
      <trkpt lat="47.36549" lon="-1.11002">
        <ele>45.85</ele>
        <time>2020-07-19T11:39:14Z</time>
      </trkpt>
      <trkpt lat="47.36546" lon="-1.10994">
        <ele>46.09</ele>
        <time>2020-07-19T11:39:15Z</time>
      </trkpt>
      <trkpt lat="47.36544" lon="-1.10985">
        <ele>46.256</ele>
        <time>2020-07-19T11:39:16Z</time>
      </trkpt>
      <trkpt lat="47.36544" lon="-1.10976">
        <ele>47.513</ele>
        <time>2020-07-19T11:39:17Z</time>
      </trkpt>
      <trkpt lat="47.36543" lon="-1.10967">
        <ele>47.973</ele>
        <time>2020-07-19T11:39:18Z</time>
      </trkpt>
      <trkpt lat="47.36544" lon="-1.10959">
        <ele>48.49</ele>
        <time>2020-07-19T11:39:19Z</time>
      </trkpt>
      <trkpt lat="47.36543" lon="-1.1095">
        <ele>47.343</ele>
        <time>2020-07-19T11:39:20Z</time>
      </trkpt>
      <trkpt lat="47.36541" lon="-1.10941">
        <ele>46.002</ele>
        <time>2020-07-19T11:39:21Z</time>
      </trkpt>
      <trkpt lat="47.3654" lon="-1.10934">
        <ele>46.401</ele>
        <time>2020-07-19T11:39:22Z</time>
      </trkpt>
      <trkpt lat="47.3654" lon="-1.10927">
        <ele>45.755</ele>
        <time>2020-07-19T11:39:23Z</time>
      </trkpt>
      <trkpt lat="47.36541" lon="-1.10922">
        <ele>44.599</ele>
        <time>2020-07-19T11:39:24Z</time>
      </trkpt>
      <trkpt lat="47.36539" lon="-1.10916">
        <ele>44.099</ele>
        <time>2020-07-19T11:39:25Z</time>
      </trkpt>
      <trkpt lat="47.36539" lon="-1.10909">
        <ele>44.7</ele>
        <time>2020-07-19T11:39:26Z</time>
      </trkpt>
      <trkpt lat="47.36538" lon="-1.10902">
        <ele>44.942</ele>
        <time>2020-07-19T11:39:27Z</time>
      </trkpt>
      <trkpt lat="47.36537" lon="-1.10895">
        <ele>44.481</ele>
        <time>2020-07-19T11:39:28Z</time>
      </trkpt>
      <trkpt lat="47.36536" lon="-1.10887">
        <ele>44.557</ele>
        <time>2020-07-19T11:39:29Z</time>
      </trkpt>
      <trkpt lat="47.36535" lon="-1.10879">
        <ele>44.777</ele>
        <time>2020-07-19T11:39:30Z</time>
      </trkpt>
      <trkpt lat="47.36534" lon="-1.10873">
        <ele>45.127</ele>
        <time>2020-07-19T11:39:31Z</time>
      </trkpt>
      <trkpt lat="47.36534" lon="-1.10865">
        <ele>46.848</ele>
        <time>2020-07-19T11:39:32Z</time>
      </trkpt>
      <trkpt lat="47.36534" lon="-1.10859">
        <ele>45.651</ele>
        <time>2020-07-19T11:39:33Z</time>
      </trkpt>
      <trkpt lat="47.36533" lon="-1.10852">
        <ele>46.415</ele>
        <time>2020-07-19T11:39:34Z</time>
      </trkpt>
      <trkpt lat="47.36534" lon="-1.10845">
        <ele>47.672</ele>
        <time>2020-07-19T11:39:35Z</time>
      </trkpt>
      <trkpt lat="47.36533" lon="-1.10838">
        <ele>48.644</ele>
        <time>2020-07-19T11:39:36Z</time>
      </trkpt>
      <trkpt lat="47.36533" lon="-1.10832">
        <ele>47.521</ele>
        <time>2020-07-19T11:39:37Z</time>
      </trkpt>
      <trkpt lat="47.36533" lon="-1.10825">
        <ele>47.51</ele>
        <time>2020-07-19T11:39:38Z</time>
      </trkpt>
      <trkpt lat="47.36533" lon="-1.10817">
        <ele>47.8</ele>
        <time>2020-07-19T11:39:39Z</time>
      </trkpt>
      <trkpt lat="47.36532" lon="-1.1081">
        <ele>48.196</ele>
        <time>2020-07-19T11:39:40Z</time>
      </trkpt>
      <trkpt lat="47.36531" lon="-1.10802">
        <ele>48.468</ele>
        <time>2020-07-19T11:39:41Z</time>
      </trkpt>
      <trkpt lat="47.36533" lon="-1.10793">
        <ele>50.339</ele>
        <time>2020-07-19T11:39:42Z</time>
      </trkpt>
      <trkpt lat="47.36532" lon="-1.10785">
        <ele>51.117</ele>
        <time>2020-07-19T11:39:43Z</time>
      </trkpt>
      <trkpt lat="47.36533" lon="-1.10776">
        <ele>51.597</ele>
        <time>2020-07-19T11:39:44Z</time>
      </trkpt>
      <trkpt lat="47.3653" lon="-1.10769">
        <ele>48.206</ele>
        <time>2020-07-19T11:39:45Z</time>
      </trkpt>
      <trkpt lat="47.36531" lon="-1.10761">
        <ele>46.258</ele>
        <time>2020-07-19T11:39:46Z</time>
      </trkpt>
      <trkpt lat="47.36532" lon="-1.10753">
        <ele>45.753</ele>
        <time>2020-07-19T11:39:47Z</time>
      </trkpt>
      <trkpt lat="47.36531" lon="-1.10744">
        <ele>44.98</ele>
        <time>2020-07-19T11:39:48Z</time>
      </trkpt>
      <trkpt lat="47.36532" lon="-1.10737">
        <ele>45.802</ele>
        <time>2020-07-19T11:39:49Z</time>
      </trkpt>
      <trkpt lat="47.36531" lon="-1.10729">
        <ele>44.261</ele>
        <time>2020-07-19T11:39:50Z</time>
      </trkpt>
      <trkpt lat="47.36532" lon="-1.10722">
        <ele>44.684</ele>
        <time>2020-07-19T11:39:51Z</time>
      </trkpt>
      <trkpt lat="47.36532" lon="-1.10715">
        <ele>44.767</ele>
        <time>2020-07-19T11:39:52Z</time>
      </trkpt>
      <trkpt lat="47.36533" lon="-1.10709">
        <ele>45.005</ele>
        <time>2020-07-19T11:39:53Z</time>
      </trkpt>
      <trkpt lat="47.36533" lon="-1.10701">
        <ele>45.497</ele>
        <time>2020-07-19T11:39:54Z</time>
      </trkpt>
      <trkpt lat="47.36531" lon="-1.10696">
        <ele>45.29</ele>
        <time>2020-07-19T11:39:55Z</time>
      </trkpt>
      <trkpt lat="47.36529" lon="-1.10691">
        <ele>43.417</ele>
        <time>2020-07-19T11:39:56Z</time>
      </trkpt>
      <trkpt lat="47.36529" lon="-1.10684">
        <ele>42.665</ele>
        <time>2020-07-19T11:39:57Z</time>
      </trkpt>
      <trkpt lat="47.36527" lon="-1.10678">
        <ele>38.656</ele>
        <time>2020-07-19T11:39:58Z</time>
      </trkpt>
      <trkpt lat="47.36527" lon="-1.10671">
        <ele>38.943</ele>
        <time>2020-07-19T11:39:59Z</time>
      </trkpt>
      <trkpt lat="47.36527" lon="-1.10666">
        <ele>39.474</ele>
        <time>2020-07-19T11:40:00Z</time>
      </trkpt>
      <trkpt lat="47.36526" lon="-1.10659">
        <ele>39.534</ele>
        <time>2020-07-19T11:40:01Z</time>
      </trkpt>
      <trkpt lat="47.36524" lon="-1.10654">
        <ele>39.425</ele>
        <time>2020-07-19T11:40:02Z</time>
      </trkpt>
      <trkpt lat="47.36525" lon="-1.10648">
        <ele>40.513</ele>
        <time>2020-07-19T11:40:03Z</time>
      </trkpt>
      <trkpt lat="47.36525" lon="-1.10643">
        <ele>40.826</ele>
        <time>2020-07-19T11:40:04Z</time>
      </trkpt>
      <trkpt lat="47.36524" lon="-1.10637">
        <ele>41.272</ele>
        <time>2020-07-19T11:40:05Z</time>
      </trkpt>
      <trkpt lat="47.36521" lon="-1.1063">
        <ele>39.082</ele>
        <time>2020-07-19T11:40:06Z</time>
      </trkpt>
      <trkpt lat="47.36519" lon="-1.10625">
        <ele>36.99</ele>
        <time>2020-07-19T11:40:07Z</time>
      </trkpt>
      <trkpt lat="47.36519" lon="-1.10618">
        <ele>37.464</ele>
        <time>2020-07-19T11:40:08Z</time>
      </trkpt>
      <trkpt lat="47.36521" lon="-1.1061">
        <ele>35.249</ele>
        <time>2020-07-19T11:40:09Z</time>
      </trkpt>
      <trkpt lat="47.36521" lon="-1.10603">
        <ele>34.888</ele>
        <time>2020-07-19T11:40:10Z</time>
      </trkpt>
      <trkpt lat="47.36519" lon="-1.10597">
        <ele>34.813</ele>
        <time>2020-07-19T11:40:11Z</time>
      </trkpt>
      <trkpt lat="47.36518" lon="-1.10589">
        <ele>34.997</ele>
        <time>2020-07-19T11:40:12Z</time>
      </trkpt>
      <trkpt lat="47.36518" lon="-1.10582">
        <ele>35.224</ele>
        <time>2020-07-19T11:40:13Z</time>
      </trkpt>
      <trkpt lat="47.36518" lon="-1.10574">
        <ele>36.345</ele>
        <time>2020-07-19T11:40:14Z</time>
      </trkpt>
      <trkpt lat="47.36519" lon="-1.10565">
        <ele>39.476</ele>
        <time>2020-07-19T11:40:15Z</time>
      </trkpt>
      <trkpt lat="47.36519" lon="-1.10558">
        <ele>39.113</ele>
        <time>2020-07-19T11:40:16Z</time>
      </trkpt>
      <trkpt lat="47.36518" lon="-1.10551">
        <ele>41.15</ele>
        <time>2020-07-19T11:40:17Z</time>
      </trkpt>
      <trkpt lat="47.36518" lon="-1.10541">
        <ele>43.93</ele>
        <time>2020-07-19T11:40:18Z</time>
      </trkpt>
      <trkpt lat="47.36518" lon="-1.10534">
        <ele>44.825</ele>
        <time>2020-07-19T11:40:19Z</time>
      </trkpt>
      <trkpt lat="47.36518" lon="-1.10525">
        <ele>45.107</ele>
        <time>2020-07-19T11:40:20Z</time>
      </trkpt>
      <trkpt lat="47.36519" lon="-1.10516">
        <ele>45.095</ele>
        <time>2020-07-19T11:40:21Z</time>
      </trkpt>
      <trkpt lat="47.36519" lon="-1.1051">
        <ele>44.015</ele>
        <time>2020-07-19T11:40:22Z</time>
      </trkpt>
      <trkpt lat="47.36516" lon="-1.10501">
        <ele>41.298</ele>
        <time>2020-07-19T11:40:23Z</time>
      </trkpt>
      <trkpt lat="47.36516" lon="-1.10492">
        <ele>40.651</ele>
        <time>2020-07-19T11:40:24Z</time>
      </trkpt>
      <trkpt lat="47.36516" lon="-1.10482">
        <ele>40.496</ele>
        <time>2020-07-19T11:40:25Z</time>
      </trkpt>
      <trkpt lat="47.36516" lon="-1.10473">
        <ele>40.653</ele>
        <time>2020-07-19T11:40:26Z</time>
      </trkpt>
      <trkpt lat="47.36516" lon="-1.10464">
        <ele>39.91</ele>
        <time>2020-07-19T11:40:27Z</time>
      </trkpt>
      <trkpt lat="47.36516" lon="-1.10456">
        <ele>40.81</ele>
        <time>2020-07-19T11:40:28Z</time>
      </trkpt>
      <trkpt lat="47.36517" lon="-1.10446">
        <ele>39.656</ele>
        <time>2020-07-19T11:40:29Z</time>
      </trkpt>
      <trkpt lat="47.36517" lon="-1.10436">
        <ele>39.71</ele>
        <time>2020-07-19T11:40:30Z</time>
      </trkpt>
      <trkpt lat="47.36518" lon="-1.10429">
        <ele>39.273</ele>
        <time>2020-07-19T11:40:31Z</time>
      </trkpt>
      <trkpt lat="47.36516" lon="-1.10418">
        <ele>39.519</ele>
        <time>2020-07-19T11:40:32Z</time>
      </trkpt>
      <trkpt lat="47.36516" lon="-1.10409">
        <ele>40.778</ele>
        <time>2020-07-19T11:40:33Z</time>
      </trkpt>
      <trkpt lat="47.36515" lon="-1.104">
        <ele>42.027</ele>
        <time>2020-07-19T11:40:34Z</time>
      </trkpt>
      <trkpt lat="47.36515" lon="-1.1039">
        <ele>42.796</ele>
        <time>2020-07-19T11:40:35Z</time>
      </trkpt>
      <trkpt lat="47.36515" lon="-1.1038">
        <ele>44.115</ele>
        <time>2020-07-19T11:40:36Z</time>
      </trkpt>
      <trkpt lat="47.36516" lon="-1.1037">
        <ele>43.912</ele>
        <time>2020-07-19T11:40:37Z</time>
      </trkpt>
      <trkpt lat="47.36518" lon="-1.10361">
        <ele>45.183</ele>
        <time>2020-07-19T11:40:38Z</time>
      </trkpt>
      <trkpt lat="47.36519" lon="-1.10355">
        <ele>45.646</ele>
        <time>2020-07-19T11:40:39Z</time>
      </trkpt>
      <trkpt lat="47.3652" lon="-1.10348">
        <ele>47.654</ele>
        <time>2020-07-19T11:40:40Z</time>
      </trkpt>
      <trkpt lat="47.3652" lon="-1.10339">
        <ele>47.203</ele>
        <time>2020-07-19T11:40:41Z</time>
      </trkpt>
      <trkpt lat="47.36519" lon="-1.10333">
        <ele>47.147</ele>
        <time>2020-07-19T11:40:42Z</time>
      </trkpt>
      <trkpt lat="47.36519" lon="-1.10325">
        <ele>47.645</ele>
        <time>2020-07-19T11:40:43Z</time>
      </trkpt>
      <trkpt lat="47.36518" lon="-1.10316">
        <ele>48.184</ele>
        <time>2020-07-19T11:40:44Z</time>
      </trkpt>
      <trkpt lat="47.36517" lon="-1.10307">
        <ele>48.33</ele>
        <time>2020-07-19T11:40:45Z</time>
      </trkpt>
      <trkpt lat="47.36516" lon="-1.10297">
        <ele>48.455</ele>
        <time>2020-07-19T11:40:46Z</time>
      </trkpt>
      <trkpt lat="47.36515" lon="-1.10289">
        <ele>49.433</ele>
        <time>2020-07-19T11:40:47Z</time>
      </trkpt>
      <trkpt lat="47.36512" lon="-1.1028">
        <ele>47.189</ele>
        <time>2020-07-19T11:40:48Z</time>
      </trkpt>
      <trkpt lat="47.36513" lon="-1.10272">
        <ele>45.938</ele>
        <time>2020-07-19T11:40:49Z</time>
      </trkpt>
      <trkpt lat="47.36513" lon="-1.10264">
        <ele>44.772</ele>
        <time>2020-07-19T11:40:50Z</time>
      </trkpt>
      <trkpt lat="47.36511" lon="-1.10257">
        <ele>44.868</ele>
        <time>2020-07-19T11:40:51Z</time>
      </trkpt>
      <trkpt lat="47.3651" lon="-1.10249">
        <ele>45.069</ele>
        <time>2020-07-19T11:40:52Z</time>
      </trkpt>
      <trkpt lat="47.36508" lon="-1.10242">
        <ele>45.373</ele>
        <time>2020-07-19T11:40:53Z</time>
      </trkpt>
      <trkpt lat="47.36505" lon="-1.10235">
        <ele>44.805</ele>
        <time>2020-07-19T11:40:54Z</time>
      </trkpt>
      <trkpt lat="47.36501" lon="-1.10229">
        <ele>44.569</ele>
        <time>2020-07-19T11:40:55Z</time>
      </trkpt>
      <trkpt lat="47.36499" lon="-1.10222">
        <ele>45.41</ele>
        <time>2020-07-19T11:40:56Z</time>
      </trkpt>
      <trkpt lat="47.36496" lon="-1.10216">
        <ele>42.617</ele>
        <time>2020-07-19T11:40:57Z</time>
      </trkpt>
      <trkpt lat="47.36496" lon="-1.10208">
        <ele>43.617</ele>
        <time>2020-07-19T11:40:58Z</time>
      </trkpt>
      <trkpt lat="47.36497" lon="-1.102">
        <ele>43.885</ele>
        <time>2020-07-19T11:40:59Z</time>
      </trkpt>
      <trkpt lat="47.36498" lon="-1.10191">
        <ele>44.731</ele>
        <time>2020-07-19T11:41:00Z</time>
      </trkpt>
      <trkpt lat="47.36499" lon="-1.10184">
        <ele>43.69</ele>
        <time>2020-07-19T11:41:01Z</time>
      </trkpt>
      <trkpt lat="47.36499" lon="-1.10175">
        <ele>43.294</ele>
        <time>2020-07-19T11:41:02Z</time>
      </trkpt>
      <trkpt lat="47.365" lon="-1.10167">
        <ele>42.843</ele>
        <time>2020-07-19T11:41:03Z</time>
      </trkpt>
      <trkpt lat="47.36501" lon="-1.10159">
        <ele>44.256</ele>
        <time>2020-07-19T11:41:04Z</time>
      </trkpt>
      <trkpt lat="47.36502" lon="-1.10151">
        <ele>44.036</ele>
        <time>2020-07-19T11:41:05Z</time>
      </trkpt>
      <trkpt lat="47.36502" lon="-1.10142">
        <ele>43.661</ele>
        <time>2020-07-19T11:41:06Z</time>
      </trkpt>
      <trkpt lat="47.36502" lon="-1.10134">
        <ele>44.232</ele>
        <time>2020-07-19T11:41:07Z</time>
      </trkpt>
      <trkpt lat="47.365" lon="-1.10126">
        <ele>43.041</ele>
        <time>2020-07-19T11:41:08Z</time>
      </trkpt>
      <trkpt lat="47.36497" lon="-1.10118">
        <ele>42.286</ele>
        <time>2020-07-19T11:41:09Z</time>
      </trkpt>
      <trkpt lat="47.36495" lon="-1.10111">
        <ele>41.717</ele>
        <time>2020-07-19T11:41:10Z</time>
      </trkpt>
      <trkpt lat="47.36495" lon="-1.10105">
        <ele>41.598</ele>
        <time>2020-07-19T11:41:11Z</time>
      </trkpt>
      <trkpt lat="47.36493" lon="-1.10097">
        <ele>55.429</ele>
        <time>2020-07-19T11:41:12Z</time>
      </trkpt>
      <trkpt lat="47.36493" lon="-1.1009">
        <ele>53.034</ele>
        <time>2020-07-19T11:41:13Z</time>
      </trkpt>
      <trkpt lat="47.36493" lon="-1.10082">
        <ele>51.174</ele>
        <time>2020-07-19T11:41:14Z</time>
      </trkpt>
      <trkpt lat="47.36492" lon="-1.10075">
        <ele>50.217</ele>
        <time>2020-07-19T11:41:15Z</time>
      </trkpt>
      <trkpt lat="47.36491" lon="-1.10069">
        <ele>48.063</ele>
        <time>2020-07-19T11:41:16Z</time>
      </trkpt>
      <trkpt lat="47.3649" lon="-1.10062">
        <ele>47.688</ele>
        <time>2020-07-19T11:41:17Z</time>
      </trkpt>
      <trkpt lat="47.3649" lon="-1.10057">
        <ele>47.232</ele>
        <time>2020-07-19T11:41:18Z</time>
      </trkpt>
      <trkpt lat="47.3649" lon="-1.10054">
        <ele>45.877</ele>
        <time>2020-07-19T11:41:19Z</time>
      </trkpt>
      <trkpt lat="47.36495" lon="-1.1005">
        <ele>44.995</ele>
        <time>2020-07-19T11:41:20Z</time>
      </trkpt>
      <trkpt lat="47.365" lon="-1.10049">
        <ele>44.683</ele>
        <time>2020-07-19T11:41:21Z</time>
      </trkpt>
      <trkpt lat="47.36505" lon="-1.10049">
        <ele>44.993</ele>
        <time>2020-07-19T11:41:22Z</time>
      </trkpt>
      <trkpt lat="47.36512" lon="-1.10048">
        <ele>45.849</ele>
        <time>2020-07-19T11:41:23Z</time>
      </trkpt>
      <trkpt lat="47.36518" lon="-1.10047">
        <ele>44.555</ele>
        <time>2020-07-19T11:41:24Z</time>
      </trkpt>
      <trkpt lat="47.36523" lon="-1.10048">
        <ele>45.376</ele>
        <time>2020-07-19T11:41:25Z</time>
      </trkpt>
      <trkpt lat="47.36529" lon="-1.10048">
        <ele>45.665</ele>
        <time>2020-07-19T11:41:26Z</time>
      </trkpt>
      <trkpt lat="47.36534" lon="-1.10048">
        <ele>45.544</ele>
        <time>2020-07-19T11:41:27Z</time>
      </trkpt>
      <trkpt lat="47.3654" lon="-1.10048">
        <ele>46.383</ele>
        <time>2020-07-19T11:41:28Z</time>
      </trkpt>
      <trkpt lat="47.36545" lon="-1.10049">
        <ele>46.787</ele>
        <time>2020-07-19T11:41:29Z</time>
      </trkpt>
      <trkpt lat="47.36551" lon="-1.10052">
        <ele>47.619</ele>
        <time>2020-07-19T11:41:30Z</time>
      </trkpt>
      <trkpt lat="47.36558" lon="-1.10052">
        <ele>46.982</ele>
        <time>2020-07-19T11:41:31Z</time>
      </trkpt>
      <trkpt lat="47.36564" lon="-1.1005">
        <ele>47.059</ele>
        <time>2020-07-19T11:41:32Z</time>
      </trkpt>
      <trkpt lat="47.36569" lon="-1.10053">
        <ele>48.916</ele>
        <time>2020-07-19T11:41:33Z</time>
      </trkpt>
      <trkpt lat="47.36573" lon="-1.10054">
        <ele>48.446</ele>
        <time>2020-07-19T11:41:34Z</time>
      </trkpt>
      <trkpt lat="47.36577" lon="-1.10054">
        <ele>47.844</ele>
        <time>2020-07-19T11:41:35Z</time>
      </trkpt>
      <trkpt lat="47.36583" lon="-1.10055">
        <ele>46.885</ele>
        <time>2020-07-19T11:41:36Z</time>
      </trkpt>
      <trkpt lat="47.36588" lon="-1.10056">
        <ele>47.001</ele>
        <time>2020-07-19T11:41:37Z</time>
      </trkpt>
      <trkpt lat="47.36594" lon="-1.10057">
        <ele>48.133</ele>
        <time>2020-07-19T11:41:38Z</time>
      </trkpt>
      <trkpt lat="47.366" lon="-1.10059">
        <ele>48.748</ele>
        <time>2020-07-19T11:41:39Z</time>
      </trkpt>
      <trkpt lat="47.36605" lon="-1.10063">
        <ele>50.187</ele>
        <time>2020-07-19T11:41:40Z</time>
      </trkpt>
      <trkpt lat="47.3661" lon="-1.10065">
        <ele>51.61</ele>
        <time>2020-07-19T11:41:41Z</time>
      </trkpt>
      <trkpt lat="47.36616" lon="-1.10068">
        <ele>51.72</ele>
        <time>2020-07-19T11:41:42Z</time>
      </trkpt>
      <trkpt lat="47.3662" lon="-1.1007">
        <ele>50.809</ele>
        <time>2020-07-19T11:41:43Z</time>
      </trkpt>
      <trkpt lat="47.36625" lon="-1.10071">
        <ele>51.132</ele>
        <time>2020-07-19T11:41:44Z</time>
      </trkpt>
      <trkpt lat="47.3663" lon="-1.10072">
        <ele>50.907</ele>
        <time>2020-07-19T11:41:45Z</time>
      </trkpt>
      <trkpt lat="47.36636" lon="-1.10072">
        <ele>50.848</ele>
        <time>2020-07-19T11:41:46Z</time>
      </trkpt>
      <trkpt lat="47.3664" lon="-1.1007">
        <ele>51.046</ele>
        <time>2020-07-19T11:41:47Z</time>
      </trkpt>
      <trkpt lat="47.36643" lon="-1.10066">
        <ele>51.799</ele>
        <time>2020-07-19T11:41:48Z</time>
      </trkpt>
      <trkpt lat="47.36647" lon="-1.10059">
        <ele>52.754</ele>
        <time>2020-07-19T11:41:49Z</time>
      </trkpt>
      <trkpt lat="47.36649" lon="-1.10052">
        <ele>52.864</ele>
        <time>2020-07-19T11:41:50Z</time>
      </trkpt>
      <trkpt lat="47.36649" lon="-1.10044">
        <ele>52.411</ele>
        <time>2020-07-19T11:41:51Z</time>
      </trkpt>
      <trkpt lat="47.3665" lon="-1.10035">
        <ele>52.543</ele>
        <time>2020-07-19T11:41:52Z</time>
      </trkpt>
      <trkpt lat="47.36651" lon="-1.10029">
        <ele>50.401</ele>
        <time>2020-07-19T11:41:53Z</time>
      </trkpt>
      <trkpt lat="47.36652" lon="-1.10021">
        <ele>50.414</ele>
        <time>2020-07-19T11:41:54Z</time>
      </trkpt>
      <trkpt lat="47.36652" lon="-1.10013">
        <ele>50.714</ele>
        <time>2020-07-19T11:41:55Z</time>
      </trkpt>
      <trkpt lat="47.3665" lon="-1.10005">
        <ele>49.196</ele>
        <time>2020-07-19T11:41:56Z</time>
      </trkpt>
      <trkpt lat="47.36651" lon="-1.09998">
        <ele>48.268</ele>
        <time>2020-07-19T11:41:57Z</time>
      </trkpt>
      <trkpt lat="47.36651" lon="-1.0999">
        <ele>47.937</ele>
        <time>2020-07-19T11:41:58Z</time>
      </trkpt>
      <trkpt lat="47.36652" lon="-1.09982">
        <ele>48.301</ele>
        <time>2020-07-19T11:41:59Z</time>
      </trkpt>
      <trkpt lat="47.36653" lon="-1.09974">
        <ele>47.885</ele>
        <time>2020-07-19T11:42:00Z</time>
      </trkpt>
      <trkpt lat="47.36655" lon="-1.09965">
        <ele>48.548</ele>
        <time>2020-07-19T11:42:01Z</time>
      </trkpt>
      <trkpt lat="47.36656" lon="-1.09957">
        <ele>49.232</ele>
        <time>2020-07-19T11:42:02Z</time>
      </trkpt>
      <trkpt lat="47.36657" lon="-1.09949">
        <ele>50.091</ele>
        <time>2020-07-19T11:42:03Z</time>
      </trkpt>
      <trkpt lat="47.36656" lon="-1.09941">
        <ele>48.697</ele>
        <time>2020-07-19T11:42:04Z</time>
      </trkpt>
      <trkpt lat="47.36656" lon="-1.09933">
        <ele>49.116</ele>
        <time>2020-07-19T11:42:05Z</time>
      </trkpt>
      <trkpt lat="47.36656" lon="-1.09925">
        <ele>48.014</ele>
        <time>2020-07-19T11:42:06Z</time>
      </trkpt>
      <trkpt lat="47.36657" lon="-1.09916">
        <ele>48.889</ele>
        <time>2020-07-19T11:42:07Z</time>
      </trkpt>
      <trkpt lat="47.36657" lon="-1.09908">
        <ele>48.629</ele>
        <time>2020-07-19T11:42:08Z</time>
      </trkpt>
      <trkpt lat="47.36658" lon="-1.099">
        <ele>48.761</ele>
        <time>2020-07-19T11:42:09Z</time>
      </trkpt>
      <trkpt lat="47.36658" lon="-1.09891">
        <ele>48.266</ele>
        <time>2020-07-19T11:42:10Z</time>
      </trkpt>
      <trkpt lat="47.36657" lon="-1.09881">
        <ele>46.119</ele>
        <time>2020-07-19T11:42:11Z</time>
      </trkpt>
      <trkpt lat="47.36658" lon="-1.09872">
        <ele>47.438</ele>
        <time>2020-07-19T11:42:12Z</time>
      </trkpt>
      <trkpt lat="47.3666" lon="-1.09863">
        <ele>47.526</ele>
        <time>2020-07-19T11:42:13Z</time>
      </trkpt>
      <trkpt lat="47.36662" lon="-1.09854">
        <ele>50.627</ele>
        <time>2020-07-19T11:42:14Z</time>
      </trkpt>
      <trkpt lat="47.36663" lon="-1.09847">
        <ele>49.949</ele>
        <time>2020-07-19T11:42:15Z</time>
      </trkpt>
      <trkpt lat="47.36665" lon="-1.09839">
        <ele>49.377</ele>
        <time>2020-07-19T11:42:16Z</time>
      </trkpt>
      <trkpt lat="47.36666" lon="-1.0983">
        <ele>48.878</ele>
        <time>2020-07-19T11:42:17Z</time>
      </trkpt>
      <trkpt lat="47.36667" lon="-1.09823">
        <ele>48.759</ele>
        <time>2020-07-19T11:42:18Z</time>
      </trkpt>
      <trkpt lat="47.36669" lon="-1.09816">
        <ele>49.107</ele>
        <time>2020-07-19T11:42:19Z</time>
      </trkpt>
      <trkpt lat="47.36672" lon="-1.09808">
        <ele>47.743</ele>
        <time>2020-07-19T11:42:20Z</time>
      </trkpt>
      <trkpt lat="47.36674" lon="-1.09799">
        <ele>46.564</ele>
        <time>2020-07-19T11:42:21Z</time>
      </trkpt>
      <trkpt lat="47.36675" lon="-1.0979">
        <ele>46.298</ele>
        <time>2020-07-19T11:42:22Z</time>
      </trkpt>
      <trkpt lat="47.36675" lon="-1.09781">
        <ele>45.142</ele>
        <time>2020-07-19T11:42:23Z</time>
      </trkpt>
      <trkpt lat="47.36677" lon="-1.09773">
        <ele>45.091</ele>
        <time>2020-07-19T11:42:24Z</time>
      </trkpt>
      <trkpt lat="47.36677" lon="-1.09765">
        <ele>45.377</ele>
        <time>2020-07-19T11:42:25Z</time>
      </trkpt>
      <trkpt lat="47.36678" lon="-1.09758">
        <ele>45.708</ele>
        <time>2020-07-19T11:42:26Z</time>
      </trkpt>
      <trkpt lat="47.36679" lon="-1.0975">
        <ele>45.477</ele>
        <time>2020-07-19T11:42:27Z</time>
      </trkpt>
      <trkpt lat="47.36681" lon="-1.0974">
        <ele>45.311</ele>
        <time>2020-07-19T11:42:28Z</time>
      </trkpt>
      <trkpt lat="47.36682" lon="-1.09732">
        <ele>45.868</ele>
        <time>2020-07-19T11:42:29Z</time>
      </trkpt>
      <trkpt lat="47.36683" lon="-1.09724">
        <ele>45.772</ele>
        <time>2020-07-19T11:42:30Z</time>
      </trkpt>
      <trkpt lat="47.36686" lon="-1.09714">
        <ele>47.483</ele>
        <time>2020-07-19T11:42:31Z</time>
      </trkpt>
      <trkpt lat="47.36686" lon="-1.09707">
        <ele>46.542</ele>
        <time>2020-07-19T11:42:32Z</time>
      </trkpt>
      <trkpt lat="47.36688" lon="-1.09699">
        <ele>46.49</ele>
        <time>2020-07-19T11:42:33Z</time>
      </trkpt>
      <trkpt lat="47.3669" lon="-1.09691">
        <ele>47.214</ele>
        <time>2020-07-19T11:42:34Z</time>
      </trkpt>
      <trkpt lat="47.36692" lon="-1.09682">
        <ele>47.596</ele>
        <time>2020-07-19T11:42:35Z</time>
      </trkpt>
      <trkpt lat="47.36692" lon="-1.09673">
        <ele>47.9</ele>
        <time>2020-07-19T11:42:36Z</time>
      </trkpt>
      <trkpt lat="47.36692" lon="-1.09665">
        <ele>46.403</ele>
        <time>2020-07-19T11:42:37Z</time>
      </trkpt>
      <trkpt lat="47.36692" lon="-1.09658">
        <ele>45.693</ele>
        <time>2020-07-19T11:42:38Z</time>
      </trkpt>
      <trkpt lat="47.36693" lon="-1.0965">
        <ele>46.537</ele>
        <time>2020-07-19T11:42:39Z</time>
      </trkpt>
      <trkpt lat="47.36691" lon="-1.09643">
        <ele>45.14</ele>
        <time>2020-07-19T11:42:40Z</time>
      </trkpt>
      <trkpt lat="47.36692" lon="-1.09636">
        <ele>46.515</ele>
        <time>2020-07-19T11:42:41Z</time>
      </trkpt>
      <trkpt lat="47.36691" lon="-1.0963">
        <ele>46.588</ele>
        <time>2020-07-19T11:42:42Z</time>
      </trkpt>
      <trkpt lat="47.36692" lon="-1.09623">
        <ele>46.435</ele>
        <time>2020-07-19T11:42:43Z</time>
      </trkpt>
      <trkpt lat="47.36692" lon="-1.09615">
        <ele>46.028</ele>
        <time>2020-07-19T11:42:44Z</time>
      </trkpt>
      <trkpt lat="47.36692" lon="-1.09608">
        <ele>46.099</ele>
        <time>2020-07-19T11:42:45Z</time>
      </trkpt>
      <trkpt lat="47.36692" lon="-1.09605">
        <ele>45.302</ele>
        <time>2020-07-19T11:42:46Z</time>
      </trkpt>
      <trkpt lat="47.36693" lon="-1.09599">
        <ele>43.619</ele>
        <time>2020-07-19T11:42:47Z</time>
      </trkpt>
      <trkpt lat="47.36694" lon="-1.09594">
        <ele>45.188</ele>
        <time>2020-07-19T11:42:48Z</time>
      </trkpt>
      <trkpt lat="47.36696" lon="-1.0959">
        <ele>45.872</ele>
        <time>2020-07-19T11:42:49Z</time>
      </trkpt>
      <trkpt lat="47.36697" lon="-1.09582">
        <ele>45.636</ele>
        <time>2020-07-19T11:42:50Z</time>
      </trkpt>
      <trkpt lat="47.36698" lon="-1.09577">
        <ele>45.47</ele>
        <time>2020-07-19T11:42:51Z</time>
      </trkpt>
      <trkpt lat="47.36697" lon="-1.09569">
        <ele>44.744</ele>
        <time>2020-07-19T11:42:52Z</time>
      </trkpt>
      <trkpt lat="47.36697" lon="-1.09561">
        <ele>42.422</ele>
        <time>2020-07-19T11:42:53Z</time>
      </trkpt>
      <trkpt lat="47.36697" lon="-1.09554">
        <ele>42.024</ele>
        <time>2020-07-19T11:42:54Z</time>
      </trkpt>
      <trkpt lat="47.36699" lon="-1.09546">
        <ele>43.545</ele>
        <time>2020-07-19T11:42:55Z</time>
      </trkpt>
      <trkpt lat="47.367" lon="-1.09545">
        <ele>42.044</ele>
        <time>2020-07-19T11:42:56Z</time>
      </trkpt>
      <trkpt lat="47.36701" lon="-1.09541">
        <ele>41.843</ele>
        <time>2020-07-19T11:42:57Z</time>
      </trkpt>
      <trkpt lat="47.36702" lon="-1.09539">
        <ele>39.896</ele>
        <time>2020-07-19T11:42:58Z</time>
      </trkpt>
      <trkpt lat="47.36702" lon="-1.09534">
        <ele>39.4</ele>
        <time>2020-07-19T11:42:59Z</time>
      </trkpt>
      <trkpt lat="47.36704" lon="-1.0953">
        <ele>39.546</ele>
        <time>2020-07-19T11:43:00Z</time>
      </trkpt>
      <trkpt lat="47.36703" lon="-1.09525">
        <ele>40.953</ele>
        <time>2020-07-19T11:43:01Z</time>
      </trkpt>
      <trkpt lat="47.36703" lon="-1.0952">
        <ele>43.397</ele>
        <time>2020-07-19T11:43:02Z</time>
      </trkpt>
      <trkpt lat="47.36705" lon="-1.09515">
        <ele>42.919</ele>
        <time>2020-07-19T11:43:03Z</time>
      </trkpt>
      <trkpt lat="47.36708" lon="-1.09509">
        <ele>43.256</ele>
        <time>2020-07-19T11:43:04Z</time>
      </trkpt>
      <trkpt lat="47.36709" lon="-1.09502">
        <ele>43.759</ele>
        <time>2020-07-19T11:43:05Z</time>
      </trkpt>
      <trkpt lat="47.36708" lon="-1.09496">
        <ele>43.383</ele>
        <time>2020-07-19T11:43:06Z</time>
      </trkpt>
      <trkpt lat="47.36709" lon="-1.09489">
        <ele>43.119</ele>
        <time>2020-07-19T11:43:07Z</time>
      </trkpt>
      <trkpt lat="47.36709" lon="-1.09482">
        <ele>43.801</ele>
        <time>2020-07-19T11:43:08Z</time>
      </trkpt>
      <trkpt lat="47.36709" lon="-1.09474">
        <ele>43.92</ele>
        <time>2020-07-19T11:43:09Z</time>
      </trkpt>
      <trkpt lat="47.36706" lon="-1.09466">
        <ele>40.588</ele>
        <time>2020-07-19T11:43:10Z</time>
      </trkpt>
      <trkpt lat="47.36704" lon="-1.09459">
        <ele>39.547</ele>
        <time>2020-07-19T11:43:11Z</time>
      </trkpt>
      <trkpt lat="47.36704" lon="-1.09451">
        <ele>40.505</ele>
        <time>2020-07-19T11:43:12Z</time>
      </trkpt>
      <trkpt lat="47.36704" lon="-1.09442">
        <ele>41.917</ele>
        <time>2020-07-19T11:43:13Z</time>
      </trkpt>
      <trkpt lat="47.36704" lon="-1.09436">
        <ele>42.929</ele>
        <time>2020-07-19T11:43:14Z</time>
      </trkpt>
      <trkpt lat="47.36705" lon="-1.09429">
        <ele>43.029</ele>
        <time>2020-07-19T11:43:15Z</time>
      </trkpt>
      <trkpt lat="47.36707" lon="-1.09421">
        <ele>41.799</ele>
        <time>2020-07-19T11:43:16Z</time>
      </trkpt>
      <trkpt lat="47.36709" lon="-1.09414">
        <ele>41.601</ele>
        <time>2020-07-19T11:43:17Z</time>
      </trkpt>
      <trkpt lat="47.36709" lon="-1.09408">
        <ele>42.504</ele>
        <time>2020-07-19T11:43:18Z</time>
      </trkpt>
      <trkpt lat="47.36709" lon="-1.094">
        <ele>42.963</ele>
        <time>2020-07-19T11:43:19Z</time>
      </trkpt>
      <trkpt lat="47.36711" lon="-1.09391">
        <ele>43.718</ele>
        <time>2020-07-19T11:43:20Z</time>
      </trkpt>
      <trkpt lat="47.36712" lon="-1.09384">
        <ele>43.718</ele>
        <time>2020-07-19T11:43:21Z</time>
      </trkpt>
      <trkpt lat="47.36712" lon="-1.09376">
        <ele>45.395</ele>
        <time>2020-07-19T11:43:22Z</time>
      </trkpt>
      <trkpt lat="47.36713" lon="-1.09369">
        <ele>43.33</ele>
        <time>2020-07-19T11:43:23Z</time>
      </trkpt>
      <trkpt lat="47.36714" lon="-1.09361">
        <ele>42.424</ele>
        <time>2020-07-19T11:43:24Z</time>
      </trkpt>
      <trkpt lat="47.36713" lon="-1.09355">
        <ele>42.32</ele>
        <time>2020-07-19T11:43:25Z</time>
      </trkpt>
      <trkpt lat="47.36711" lon="-1.09348">
        <ele>43.551</ele>
        <time>2020-07-19T11:43:26Z</time>
      </trkpt>
      <trkpt lat="47.3671" lon="-1.09341">
        <ele>42.967</ele>
        <time>2020-07-19T11:43:27Z</time>
      </trkpt>
      <trkpt lat="47.36713" lon="-1.09334">
        <ele>41.599</ele>
        <time>2020-07-19T11:43:28Z</time>
      </trkpt>
      <trkpt lat="47.36715" lon="-1.09329">
        <ele>43.144</ele>
        <time>2020-07-19T11:43:29Z</time>
      </trkpt>
      <trkpt lat="47.36717" lon="-1.09322">
        <ele>43.212</ele>
        <time>2020-07-19T11:43:30Z</time>
      </trkpt>
      <trkpt lat="47.36718" lon="-1.09315">
        <ele>41.443</ele>
        <time>2020-07-19T11:43:31Z</time>
      </trkpt>
      <trkpt lat="47.36719" lon="-1.09304">
        <ele>41.224</ele>
        <time>2020-07-19T11:43:32Z</time>
      </trkpt>
      <trkpt lat="47.3672" lon="-1.09295">
        <ele>42.275</ele>
        <time>2020-07-19T11:43:33Z</time>
      </trkpt>
      <trkpt lat="47.3672" lon="-1.09286">
        <ele>41.224</ele>
        <time>2020-07-19T11:43:34Z</time>
      </trkpt>
      <trkpt lat="47.36723" lon="-1.09279">
        <ele>40.915</ele>
        <time>2020-07-19T11:43:35Z</time>
      </trkpt>
      <trkpt lat="47.36725" lon="-1.09271">
        <ele>40.805</ele>
        <time>2020-07-19T11:43:36Z</time>
      </trkpt>
      <trkpt lat="47.36726" lon="-1.09262">
        <ele>42.13</ele>
        <time>2020-07-19T11:43:37Z</time>
      </trkpt>
      <trkpt lat="47.36727" lon="-1.09253">
        <ele>43.154</ele>
        <time>2020-07-19T11:43:38Z</time>
      </trkpt>
      <trkpt lat="47.36727" lon="-1.09245">
        <ele>44.765</ele>
        <time>2020-07-19T11:43:39Z</time>
      </trkpt>
      <trkpt lat="47.36727" lon="-1.09236">
        <ele>44.223</ele>
        <time>2020-07-19T11:43:40Z</time>
      </trkpt>
      <trkpt lat="47.36728" lon="-1.09226">
        <ele>46.005</ele>
        <time>2020-07-19T11:43:41Z</time>
      </trkpt>
      <trkpt lat="47.36729" lon="-1.09217">
        <ele>47.247</ele>
        <time>2020-07-19T11:43:42Z</time>
      </trkpt>
      <trkpt lat="47.36729" lon="-1.09209">
        <ele>46.139</ele>
        <time>2020-07-19T11:43:43Z</time>
      </trkpt>
      <trkpt lat="47.3673" lon="-1.09199">
        <ele>45.727</ele>
        <time>2020-07-19T11:43:44Z</time>
      </trkpt>
      <trkpt lat="47.36731" lon="-1.0919">
        <ele>46.135</ele>
        <time>2020-07-19T11:43:45Z</time>
      </trkpt>
      <trkpt lat="47.36732" lon="-1.09181">
        <ele>46.398</ele>
        <time>2020-07-19T11:43:46Z</time>
      </trkpt>
      <trkpt lat="47.36733" lon="-1.09172">
        <ele>47.804</ele>
        <time>2020-07-19T11:43:47Z</time>
      </trkpt>
      <trkpt lat="47.36735" lon="-1.09163">
        <ele>46.465</ele>
        <time>2020-07-19T11:43:48Z</time>
      </trkpt>
      <trkpt lat="47.36736" lon="-1.09153">
        <ele>48.529</ele>
        <time>2020-07-19T11:43:49Z</time>
      </trkpt>
      <trkpt lat="47.36738" lon="-1.09144">
        <ele>46.931</ele>
        <time>2020-07-19T11:43:50Z</time>
      </trkpt>
      <trkpt lat="47.36739" lon="-1.09139">
        <ele>45.816</ele>
        <time>2020-07-19T11:43:51Z</time>
      </trkpt>
      <trkpt lat="47.36741" lon="-1.09129">
        <ele>45.982</ele>
        <time>2020-07-19T11:43:52Z</time>
      </trkpt>
      <trkpt lat="47.36742" lon="-1.0912">
        <ele>46.688</ele>
        <time>2020-07-19T11:43:53Z</time>
      </trkpt>
      <trkpt lat="47.36743" lon="-1.09111">
        <ele>46.844</ele>
        <time>2020-07-19T11:43:54Z</time>
      </trkpt>
      <trkpt lat="47.36745" lon="-1.09103">
        <ele>48.802</ele>
        <time>2020-07-19T11:43:55Z</time>
      </trkpt>
      <trkpt lat="47.36744" lon="-1.09094">
        <ele>47.895</ele>
        <time>2020-07-19T11:43:56Z</time>
      </trkpt>
      <trkpt lat="47.36745" lon="-1.09086">
        <ele>48.514</ele>
        <time>2020-07-19T11:43:57Z</time>
      </trkpt>
      <trkpt lat="47.36745" lon="-1.09078">
        <ele>48.502</ele>
        <time>2020-07-19T11:43:58Z</time>
      </trkpt>
      <trkpt lat="47.36746" lon="-1.09069">
        <ele>48.174</ele>
        <time>2020-07-19T11:43:59Z</time>
      </trkpt>
      <trkpt lat="47.36746" lon="-1.09065">
        <ele>49.315</ele>
        <time>2020-07-19T11:44:00Z</time>
      </trkpt>
      <trkpt lat="47.36748" lon="-1.09059">
        <ele>47.109</ele>
        <time>2020-07-19T11:44:01Z</time>
      </trkpt>
      <trkpt lat="47.36749" lon="-1.09055">
        <ele>47.294</ele>
        <time>2020-07-19T11:44:02Z</time>
      </trkpt>
      <trkpt lat="47.36749" lon="-1.09054">
        <ele>47.558</ele>
        <time>2020-07-19T11:44:03Z</time>
      </trkpt>
      <trkpt lat="47.36749" lon="-1.09051">
        <ele>48.126</ele>
        <time>2020-07-19T11:44:04Z</time>
      </trkpt>
      <trkpt lat="47.36751" lon="-1.09046">
        <ele>48.341</ele>
        <time>2020-07-19T11:44:05Z</time>
      </trkpt>
      <trkpt lat="47.36752" lon="-1.09042">
        <ele>47.601</ele>
        <time>2020-07-19T11:44:06Z</time>
      </trkpt>
      <trkpt lat="47.36752" lon="-1.09038">
        <ele>48.222</ele>
        <time>2020-07-19T11:44:07Z</time>
      </trkpt>
      <trkpt lat="47.36752" lon="-1.09032">
        <ele>48.196</ele>
        <time>2020-07-19T11:44:08Z</time>
      </trkpt>
      <trkpt lat="47.36752" lon="-1.09025">
        <ele>47.281</ele>
        <time>2020-07-19T11:44:09Z</time>
      </trkpt>
      <trkpt lat="47.36752" lon="-1.09019">
        <ele>45.867</ele>
        <time>2020-07-19T11:44:10Z</time>
      </trkpt>
      <trkpt lat="47.36753" lon="-1.09013">
        <ele>46.641</ele>
        <time>2020-07-19T11:44:11Z</time>
      </trkpt>
      <trkpt lat="47.36754" lon="-1.09007">
        <ele>48.055</ele>
        <time>2020-07-19T11:44:12Z</time>
      </trkpt>
      <trkpt lat="47.36754" lon="-1.09001">
        <ele>48.438</ele>
        <time>2020-07-19T11:44:13Z</time>
      </trkpt>
      <trkpt lat="47.36755" lon="-1.08996">
        <ele>48.904</ele>
        <time>2020-07-19T11:44:14Z</time>
      </trkpt>
      <trkpt lat="47.36756" lon="-1.0899">
        <ele>48.913</ele>
        <time>2020-07-19T11:44:15Z</time>
      </trkpt>
      <trkpt lat="47.36757" lon="-1.08984">
        <ele>47.576</ele>
        <time>2020-07-19T11:44:16Z</time>
      </trkpt>
      <trkpt lat="47.36758" lon="-1.08979">
        <ele>47.407</ele>
        <time>2020-07-19T11:44:17Z</time>
      </trkpt>
      <trkpt lat="47.36759" lon="-1.08973">
        <ele>46.195</ele>
        <time>2020-07-19T11:44:18Z</time>
      </trkpt>
      <trkpt lat="47.3676" lon="-1.08967">
        <ele>46.076</ele>
        <time>2020-07-19T11:44:19Z</time>
      </trkpt>
      <trkpt lat="47.3676" lon="-1.08961">
        <ele>46.393</ele>
        <time>2020-07-19T11:44:20Z</time>
      </trkpt>
      <trkpt lat="47.3676" lon="-1.08954">
        <ele>47.757</ele>
        <time>2020-07-19T11:44:21Z</time>
      </trkpt>
      <trkpt lat="47.3676" lon="-1.08948">
        <ele>47.827</ele>
        <time>2020-07-19T11:44:22Z</time>
      </trkpt>
      <trkpt lat="47.3676" lon="-1.08941">
        <ele>47.446</ele>
        <time>2020-07-19T11:44:23Z</time>
      </trkpt>
      <trkpt lat="47.3676" lon="-1.08935">
        <ele>47.964</ele>
        <time>2020-07-19T11:44:24Z</time>
      </trkpt>
      <trkpt lat="47.3676" lon="-1.08929">
        <ele>47.956</ele>
        <time>2020-07-19T11:44:25Z</time>
      </trkpt>
      <trkpt lat="47.3676" lon="-1.08925">
        <ele>49.227</ele>
        <time>2020-07-19T11:44:26Z</time>
      </trkpt>
      <trkpt lat="47.36761" lon="-1.08918">
        <ele>48.619</ele>
        <time>2020-07-19T11:44:27Z</time>
      </trkpt>
      <trkpt lat="47.36762" lon="-1.08911">
        <ele>47.223</ele>
        <time>2020-07-19T11:44:28Z</time>
      </trkpt>
      <trkpt lat="47.36761" lon="-1.08904">
        <ele>45.393</ele>
        <time>2020-07-19T11:44:29Z</time>
      </trkpt>
      <trkpt lat="47.36763" lon="-1.08896">
        <ele>44.953</ele>
        <time>2020-07-19T11:44:30Z</time>
      </trkpt>
      <trkpt lat="47.36763" lon="-1.08888">
        <ele>43.944</ele>
        <time>2020-07-19T11:44:31Z</time>
      </trkpt>
      <trkpt lat="47.36763" lon="-1.08882">
        <ele>42.544</ele>
        <time>2020-07-19T11:44:32Z</time>
      </trkpt>
      <trkpt lat="47.36763" lon="-1.08875">
        <ele>42.908</ele>
        <time>2020-07-19T11:44:33Z</time>
      </trkpt>
      <trkpt lat="47.36763" lon="-1.08868">
        <ele>42.718</ele>
        <time>2020-07-19T11:44:34Z</time>
      </trkpt>
      <trkpt lat="47.36762" lon="-1.08863">
        <ele>42.77</ele>
        <time>2020-07-19T11:44:35Z</time>
      </trkpt>
      <trkpt lat="47.36762" lon="-1.08859">
        <ele>41.954</ele>
        <time>2020-07-19T11:44:36Z</time>
      </trkpt>
      <trkpt lat="47.36763" lon="-1.08854">
        <ele>42.347</ele>
        <time>2020-07-19T11:44:37Z</time>
      </trkpt>
      <trkpt lat="47.36764" lon="-1.08851">
        <ele>42.129</ele>
        <time>2020-07-19T11:44:38Z</time>
      </trkpt>
      <trkpt lat="47.36766" lon="-1.08847">
        <ele>42.927</ele>
        <time>2020-07-19T11:44:39Z</time>
      </trkpt>
      <trkpt lat="47.36768" lon="-1.08843">
        <ele>43.135</ele>
        <time>2020-07-19T11:44:40Z</time>
      </trkpt>
      <trkpt lat="47.3677" lon="-1.08837">
        <ele>41.96</ele>
        <time>2020-07-19T11:44:41Z</time>
      </trkpt>
      <trkpt lat="47.36772" lon="-1.08831">
        <ele>42.776</ele>
        <time>2020-07-19T11:44:42Z</time>
      </trkpt>
      <trkpt lat="47.36774" lon="-1.08826">
        <ele>42.384</ele>
        <time>2020-07-19T11:44:43Z</time>
      </trkpt>
      <trkpt lat="47.36776" lon="-1.0882">
        <ele>42.348</ele>
        <time>2020-07-19T11:44:44Z</time>
      </trkpt>
      <trkpt lat="47.36777" lon="-1.08814">
        <ele>44.268</ele>
        <time>2020-07-19T11:44:45Z</time>
      </trkpt>
      <trkpt lat="47.36778" lon="-1.08808">
        <ele>44.492</ele>
        <time>2020-07-19T11:44:46Z</time>
      </trkpt>
      <trkpt lat="47.36779" lon="-1.08803">
        <ele>44.676</ele>
        <time>2020-07-19T11:44:47Z</time>
      </trkpt>
      <trkpt lat="47.3678" lon="-1.08797">
        <ele>45.548</ele>
        <time>2020-07-19T11:44:48Z</time>
      </trkpt>
      <trkpt lat="47.36782" lon="-1.08791">
        <ele>46.025</ele>
        <time>2020-07-19T11:44:49Z</time>
      </trkpt>
      <trkpt lat="47.36783" lon="-1.08785">
        <ele>45.332</ele>
        <time>2020-07-19T11:44:50Z</time>
      </trkpt>
      <trkpt lat="47.36787" lon="-1.08775">
        <ele>45.354</ele>
        <time>2020-07-19T11:44:51Z</time>
      </trkpt>
      <trkpt lat="47.36787" lon="-1.08769">
        <ele>46.318</ele>
        <time>2020-07-19T11:44:52Z</time>
      </trkpt>
      <trkpt lat="47.3679" lon="-1.0876">
        <ele>46.333</ele>
        <time>2020-07-19T11:44:53Z</time>
      </trkpt>
      <trkpt lat="47.3679" lon="-1.08755">
        <ele>47.263</ele>
        <time>2020-07-19T11:44:54Z</time>
      </trkpt>
      <trkpt lat="47.36792" lon="-1.08749">
        <ele>46.96</ele>
        <time>2020-07-19T11:44:55Z</time>
      </trkpt>
      <trkpt lat="47.36794" lon="-1.08744">
        <ele>46.181</ele>
        <time>2020-07-19T11:44:56Z</time>
      </trkpt>
      <trkpt lat="47.36793" lon="-1.08737">
        <ele>47.496</ele>
        <time>2020-07-19T11:44:57Z</time>
      </trkpt>
      <trkpt lat="47.36794" lon="-1.0873">
        <ele>47.481</ele>
        <time>2020-07-19T11:44:58Z</time>
      </trkpt>
      <trkpt lat="47.36795" lon="-1.08721">
        <ele>48.556</ele>
        <time>2020-07-19T11:44:59Z</time>
      </trkpt>
      <trkpt lat="47.36796" lon="-1.08713">
        <ele>48.938</ele>
        <time>2020-07-19T11:45:00Z</time>
      </trkpt>
      <trkpt lat="47.36796" lon="-1.08705">
        <ele>49.03</ele>
        <time>2020-07-19T11:45:01Z</time>
      </trkpt>
      <trkpt lat="47.36797" lon="-1.08701">
        <ele>49.558</ele>
        <time>2020-07-19T11:45:02Z</time>
      </trkpt>
      <trkpt lat="47.36798" lon="-1.08704">
        <ele>50.257</ele>
        <time>2020-07-19T11:45:03Z</time>
      </trkpt>
      <trkpt lat="47.36799" lon="-1.08704">
        <ele>50.802</ele>
        <time>2020-07-19T11:45:04Z</time>
      </trkpt>
      <trkpt lat="47.36799" lon="-1.08703">
        <ele>51.3</ele>
        <time>2020-07-19T11:45:05Z</time>
      </trkpt>
      <trkpt lat="47.36799" lon="-1.08703">
        <ele>51.087</ele>
        <time>2020-07-19T11:45:06Z</time>
      </trkpt>
      <trkpt lat="47.36799" lon="-1.08704">
        <ele>51.007</ele>
        <time>2020-07-19T11:45:07Z</time>
      </trkpt>
      <trkpt lat="47.36799" lon="-1.08704">
        <ele>52.121</ele>
        <time>2020-07-19T11:45:08Z</time>
      </trkpt>
      <trkpt lat="47.36798" lon="-1.08703">
        <ele>50.585</ele>
        <time>2020-07-19T11:45:09Z</time>
      </trkpt>
      <trkpt lat="47.36798" lon="-1.08703">
        <ele>50.747</ele>
        <time>2020-07-19T11:45:10Z</time>
      </trkpt>
      <trkpt lat="47.36798" lon="-1.08702">
        <ele>55.565</ele>
        <time>2020-07-19T11:45:11Z</time>
      </trkpt>
      <trkpt lat="47.36797" lon="-1.08702">
        <ele>54.533</ele>
        <time>2020-07-19T11:45:12Z</time>
      </trkpt>
      <trkpt lat="47.36797" lon="-1.08703">
        <ele>53.926</ele>
        <time>2020-07-19T11:45:13Z</time>
      </trkpt>
      <trkpt lat="47.36798" lon="-1.08703">
        <ele>53.367</ele>
        <time>2020-07-19T11:45:14Z</time>
      </trkpt>
      <trkpt lat="47.36798" lon="-1.08702">
        <ele>52.993</ele>
        <time>2020-07-19T11:45:15Z</time>
      </trkpt>
      <trkpt lat="47.36798" lon="-1.08702">
        <ele>52.527</ele>
        <time>2020-07-19T11:45:16Z</time>
      </trkpt>
      <trkpt lat="47.36798" lon="-1.08702">
        <ele>52.2</ele>
        <time>2020-07-19T11:45:17Z</time>
      </trkpt>
      <trkpt lat="47.36798" lon="-1.08702">
        <ele>51.949</ele>
        <time>2020-07-19T11:45:18Z</time>
      </trkpt>
      <trkpt lat="47.36798" lon="-1.08702">
        <ele>51.799</ele>
        <time>2020-07-19T11:45:19Z</time>
      </trkpt>
      <trkpt lat="47.36798" lon="-1.08702">
        <ele>51.706</ele>
        <time>2020-07-19T11:45:20Z</time>
      </trkpt>
      <trkpt lat="47.36798" lon="-1.08702">
        <ele>51.624</ele>
        <time>2020-07-19T11:45:21Z</time>
      </trkpt>
      <trkpt lat="47.36797" lon="-1.08702">
        <ele>51.797</ele>
        <time>2020-07-19T11:45:22Z</time>
      </trkpt>
      <trkpt lat="47.36798" lon="-1.08701">
        <ele>52.972</ele>
        <time>2020-07-19T11:45:25Z</time>
      </trkpt>
      <trkpt lat="47.36798" lon="-1.087">
        <ele>53.614</ele>
        <time>2020-07-19T11:45:26Z</time>
      </trkpt>
      <trkpt lat="47.36797" lon="-1.087">
        <ele>53.859</ele>
        <time>2020-07-19T11:45:27Z</time>
      </trkpt>
      <trkpt lat="47.36797" lon="-1.08698">
        <ele>54.791</ele>
        <time>2020-07-19T11:45:28Z</time>
      </trkpt>
      <trkpt lat="47.36797" lon="-1.08697">
        <ele>54.682</ele>
        <time>2020-07-19T11:45:29Z</time>
      </trkpt>
      <trkpt lat="47.36798" lon="-1.08697">
        <ele>54.708</ele>
        <time>2020-07-19T11:45:30Z</time>
      </trkpt>
      <trkpt lat="47.36798" lon="-1.08697">
        <ele>55.111</ele>
        <time>2020-07-19T11:45:31Z</time>
      </trkpt>
      <trkpt lat="47.36798" lon="-1.08696">
        <ele>55.314</ele>
        <time>2020-07-19T11:45:32Z</time>
      </trkpt>
      <trkpt lat="47.36797" lon="-1.08696">
        <ele>55.252</ele>
        <time>2020-07-19T11:45:33Z</time>
      </trkpt>
      <trkpt lat="47.36797" lon="-1.08695">
        <ele>55.374</ele>
        <time>2020-07-19T11:45:34Z</time>
      </trkpt>
      <trkpt lat="47.36798" lon="-1.08693">
        <ele>54.952</ele>
        <time>2020-07-19T11:45:35Z</time>
      </trkpt>
      <trkpt lat="47.36797" lon="-1.0869">
        <ele>56.041</ele>
        <time>2020-07-19T11:45:36Z</time>
      </trkpt>
      <trkpt lat="47.36794" lon="-1.08688">
        <ele>56.246</ele>
        <time>2020-07-19T11:45:37Z</time>
      </trkpt>
      <trkpt lat="47.36794" lon="-1.08686">
        <ele>55.705</ele>
        <time>2020-07-19T11:45:38Z</time>
      </trkpt>
      <trkpt lat="47.36794" lon="-1.08682">
        <ele>55.315</ele>
        <time>2020-07-19T11:45:39Z</time>
      </trkpt>
      <trkpt lat="47.36794" lon="-1.0868">
        <ele>53.623</ele>
        <time>2020-07-19T11:45:40Z</time>
      </trkpt>
      <trkpt lat="47.36795" lon="-1.08678">
        <ele>52.498</ele>
        <time>2020-07-19T11:45:41Z</time>
      </trkpt>
      <trkpt lat="47.36795" lon="-1.08677">
        <ele>52.261</ele>
        <time>2020-07-19T11:45:42Z</time>
      </trkpt>
      <trkpt lat="47.36795" lon="-1.08676">
        <ele>52.053</ele>
        <time>2020-07-19T11:45:43Z</time>
      </trkpt>
      <trkpt lat="47.36795" lon="-1.08677">
        <ele>52.059</ele>
        <time>2020-07-19T11:45:44Z</time>
      </trkpt>
      <trkpt lat="47.36795" lon="-1.08677">
        <ele>51.491</ele>
        <time>2020-07-19T11:45:45Z</time>
      </trkpt>
      <trkpt lat="47.36796" lon="-1.08677">
        <ele>51.533</ele>
        <time>2020-07-19T11:45:46Z</time>
      </trkpt>
      <trkpt lat="47.36796" lon="-1.08676">
        <ele>50.736</ele>
        <time>2020-07-19T11:45:47Z</time>
      </trkpt>
      <trkpt lat="47.36796" lon="-1.08677">
        <ele>50.756</ele>
        <time>2020-07-19T11:45:48Z</time>
      </trkpt>
      <trkpt lat="47.36797" lon="-1.08677">
        <ele>49.784</ele>
        <time>2020-07-19T11:45:49Z</time>
      </trkpt>
      <trkpt lat="47.36797" lon="-1.08677">
        <ele>48.782</ele>
        <time>2020-07-19T11:45:50Z</time>
      </trkpt>
      <trkpt lat="47.36797" lon="-1.08677">
        <ele>48.681</ele>
        <time>2020-07-19T11:45:51Z</time>
      </trkpt>
      <trkpt lat="47.36797" lon="-1.08677">
        <ele>48.249</ele>
        <time>2020-07-19T11:45:52Z</time>
      </trkpt>
      <trkpt lat="47.36797" lon="-1.08677">
        <ele>48.545</ele>
        <time>2020-07-19T11:45:53Z</time>
      </trkpt>
      <trkpt lat="47.36797" lon="-1.08677">
        <ele>47.949</ele>
        <time>2020-07-19T11:45:54Z</time>
      </trkpt>
      <trkpt lat="47.36798" lon="-1.08677">
        <ele>47.967</ele>
        <time>2020-07-19T11:45:55Z</time>
      </trkpt>
      <trkpt lat="47.36798" lon="-1.08677">
        <ele>48.139</ele>
        <time>2020-07-19T11:45:56Z</time>
      </trkpt>
      <trkpt lat="47.36798" lon="-1.08677">
        <ele>48.113</ele>
        <time>2020-07-19T11:45:57Z</time>
      </trkpt>
      <trkpt lat="47.36798" lon="-1.08677">
        <ele>48.128</ele>
        <time>2020-07-19T11:45:58Z</time>
      </trkpt>
      <trkpt lat="47.36798" lon="-1.08677">
        <ele>48.087</ele>
        <time>2020-07-19T11:45:59Z</time>
      </trkpt>
      <trkpt lat="47.36798" lon="-1.08676">
        <ele>49.531</ele>
        <time>2020-07-19T11:46:00Z</time>
      </trkpt>
      <trkpt lat="47.36799" lon="-1.08674">
        <ele>50.217</ele>
        <time>2020-07-19T11:46:01Z</time>
      </trkpt>
      <trkpt lat="47.36799" lon="-1.08672">
        <ele>49.437</ele>
        <time>2020-07-19T11:46:02Z</time>
      </trkpt>
      <trkpt lat="47.36799" lon="-1.0867">
        <ele>48.376</ele>
        <time>2020-07-19T11:46:03Z</time>
      </trkpt>
      <trkpt lat="47.368" lon="-1.08668">
        <ele>48.319</ele>
        <time>2020-07-19T11:46:04Z</time>
      </trkpt>
      <trkpt lat="47.368" lon="-1.08664">
        <ele>48.467</ele>
        <time>2020-07-19T11:46:05Z</time>
      </trkpt>
      <trkpt lat="47.368" lon="-1.0866">
        <ele>48.919</ele>
        <time>2020-07-19T11:46:06Z</time>
      </trkpt>
      <trkpt lat="47.368" lon="-1.08657">
        <ele>47.815</ele>
        <time>2020-07-19T11:46:07Z</time>
      </trkpt>
      <trkpt lat="47.36799" lon="-1.08653">
        <ele>46.938</ele>
        <time>2020-07-19T11:46:08Z</time>
      </trkpt>
      <trkpt lat="47.36799" lon="-1.08648">
        <ele>46.839</ele>
        <time>2020-07-19T11:46:09Z</time>
      </trkpt>
      <trkpt lat="47.368" lon="-1.08644">
        <ele>48.526</ele>
        <time>2020-07-19T11:46:10Z</time>
      </trkpt>
      <trkpt lat="47.368" lon="-1.0864">
        <ele>48.974</ele>
        <time>2020-07-19T11:46:11Z</time>
      </trkpt>
      <trkpt lat="47.36799" lon="-1.08639">
        <ele>48.132</ele>
        <time>2020-07-19T11:46:12Z</time>
      </trkpt>
      <trkpt lat="47.36799" lon="-1.08637">
        <ele>48.172</ele>
        <time>2020-07-19T11:46:13Z</time>
      </trkpt>
      <trkpt lat="47.36799" lon="-1.08637">
        <ele>48.549</ele>
        <time>2020-07-19T11:46:14Z</time>
      </trkpt>
      <trkpt lat="47.36799" lon="-1.08636">
        <ele>54.923</ele>
        <time>2020-07-19T11:46:15Z</time>
      </trkpt>
      <trkpt lat="47.36799" lon="-1.08636">
        <ele>53.033</ele>
        <time>2020-07-19T11:46:16Z</time>
      </trkpt>
      <trkpt lat="47.36799" lon="-1.08636">
        <ele>52.05</ele>
        <time>2020-07-19T11:46:17Z</time>
      </trkpt>
      <trkpt lat="47.36799" lon="-1.08634">
        <ele>50.437</ele>
        <time>2020-07-19T11:46:18Z</time>
      </trkpt>
      <trkpt lat="47.36799" lon="-1.0863">
        <ele>50.031</ele>
        <time>2020-07-19T11:46:19Z</time>
      </trkpt>
      <trkpt lat="47.36799" lon="-1.08626">
        <ele>54.487</ele>
        <time>2020-07-19T11:46:20Z</time>
      </trkpt>
      <trkpt lat="47.368" lon="-1.08621">
        <ele>52.758</ele>
        <time>2020-07-19T11:46:21Z</time>
      </trkpt>
      <trkpt lat="47.36801" lon="-1.08614">
        <ele>51.43</ele>
        <time>2020-07-19T11:46:22Z</time>
      </trkpt>
      <trkpt lat="47.36802" lon="-1.08607">
        <ele>50.915</ele>
        <time>2020-07-19T11:46:23Z</time>
      </trkpt>
      <trkpt lat="47.36803" lon="-1.08601">
        <ele>51.25</ele>
        <time>2020-07-19T11:46:24Z</time>
      </trkpt>
      <trkpt lat="47.36804" lon="-1.08594">
        <ele>50.68</ele>
        <time>2020-07-19T11:46:25Z</time>
      </trkpt>
      <trkpt lat="47.36806" lon="-1.08585">
        <ele>49.988</ele>
        <time>2020-07-19T11:46:26Z</time>
      </trkpt>
      <trkpt lat="47.36807" lon="-1.08578">
        <ele>49.487</ele>
        <time>2020-07-19T11:46:27Z</time>
      </trkpt>
      <trkpt lat="47.36808" lon="-1.0857">
        <ele>49.54</ele>
        <time>2020-07-19T11:46:28Z</time>
      </trkpt>
      <trkpt lat="47.36809" lon="-1.08563">
        <ele>49.368</ele>
        <time>2020-07-19T11:46:29Z</time>
      </trkpt>
      <trkpt lat="47.36809" lon="-1.08558">
        <ele>49.289</ele>
        <time>2020-07-19T11:46:30Z</time>
      </trkpt>
      <trkpt lat="47.36809" lon="-1.08551">
        <ele>49.985</ele>
        <time>2020-07-19T11:46:31Z</time>
      </trkpt>
      <trkpt lat="47.36809" lon="-1.08543">
        <ele>50.512</ele>
        <time>2020-07-19T11:46:32Z</time>
      </trkpt>
      <trkpt lat="47.3681" lon="-1.08537">
        <ele>49.899</ele>
        <time>2020-07-19T11:46:33Z</time>
      </trkpt>
      <trkpt lat="47.3681" lon="-1.0853">
        <ele>50.019</ele>
        <time>2020-07-19T11:46:34Z</time>
      </trkpt>
      <trkpt lat="47.36809" lon="-1.08523">
        <ele>50.46</ele>
        <time>2020-07-19T11:46:35Z</time>
      </trkpt>
      <trkpt lat="47.36813" lon="-1.08517">
        <ele>49.447</ele>
        <time>2020-07-19T11:46:36Z</time>
      </trkpt>
      <trkpt lat="47.36814" lon="-1.08509">
        <ele>49.356</ele>
        <time>2020-07-19T11:46:37Z</time>
      </trkpt>
      <trkpt lat="47.36816" lon="-1.08501">
        <ele>48.583</ele>
        <time>2020-07-19T11:46:38Z</time>
      </trkpt>
      <trkpt lat="47.36815" lon="-1.08495">
        <ele>48.381</ele>
        <time>2020-07-19T11:46:39Z</time>
      </trkpt>
      <trkpt lat="47.36816" lon="-1.08486">
        <ele>48.187</ele>
        <time>2020-07-19T11:46:40Z</time>
      </trkpt>
      <trkpt lat="47.36816" lon="-1.08478">
        <ele>48.061</ele>
        <time>2020-07-19T11:46:41Z</time>
      </trkpt>
      <trkpt lat="47.36816" lon="-1.08468">
        <ele>48.623</ele>
        <time>2020-07-19T11:46:42Z</time>
      </trkpt>
      <trkpt lat="47.36817" lon="-1.08461">
        <ele>47.553</ele>
        <time>2020-07-19T11:46:43Z</time>
      </trkpt>
      <trkpt lat="47.36815" lon="-1.08454">
        <ele>47.262</ele>
        <time>2020-07-19T11:46:44Z</time>
      </trkpt>
      <trkpt lat="47.36817" lon="-1.08443">
        <ele>45.251</ele>
        <time>2020-07-19T11:46:45Z</time>
      </trkpt>
      <trkpt lat="47.36817" lon="-1.08436">
        <ele>44.955</ele>
        <time>2020-07-19T11:46:46Z</time>
      </trkpt>
      <trkpt lat="47.36819" lon="-1.0843">
        <ele>46.863</ele>
        <time>2020-07-19T11:46:47Z</time>
      </trkpt>
      <trkpt lat="47.36819" lon="-1.0842">
        <ele>55.475</ele>
        <time>2020-07-19T11:46:48Z</time>
      </trkpt>
      <trkpt lat="47.36816" lon="-1.08415">
        <ele>54.039</ele>
        <time>2020-07-19T11:46:49Z</time>
      </trkpt>
      <trkpt lat="47.36818" lon="-1.08407">
        <ele>52.438</ele>
        <time>2020-07-19T11:46:50Z</time>
      </trkpt>
      <trkpt lat="47.36818" lon="-1.08399">
        <ele>51.656</ele>
        <time>2020-07-19T11:46:51Z</time>
      </trkpt>
      <trkpt lat="47.36816" lon="-1.0839">
        <ele>50.197</ele>
        <time>2020-07-19T11:46:52Z</time>
      </trkpt>
      <trkpt lat="47.36816" lon="-1.08382">
        <ele>49.423</ele>
        <time>2020-07-19T11:46:53Z</time>
      </trkpt>
      <trkpt lat="47.36818" lon="-1.08372">
        <ele>49.097</ele>
        <time>2020-07-19T11:46:54Z</time>
      </trkpt>
      <trkpt lat="47.36817" lon="-1.08363">
        <ele>48.223</ele>
        <time>2020-07-19T11:46:55Z</time>
      </trkpt>
      <trkpt lat="47.36817" lon="-1.08354">
        <ele>47.9</ele>
        <time>2020-07-19T11:46:56Z</time>
      </trkpt>
      <trkpt lat="47.36818" lon="-1.08345">
        <ele>47.984</ele>
        <time>2020-07-19T11:46:57Z</time>
      </trkpt>
      <trkpt lat="47.3682" lon="-1.08335">
        <ele>48.6</ele>
        <time>2020-07-19T11:46:58Z</time>
      </trkpt>
      <trkpt lat="47.36823" lon="-1.08326">
        <ele>49.291</ele>
        <time>2020-07-19T11:46:59Z</time>
      </trkpt>
      <trkpt lat="47.36823" lon="-1.08318">
        <ele>50.818</ele>
        <time>2020-07-19T11:47:00Z</time>
      </trkpt>
      <trkpt lat="47.36826" lon="-1.08312">
        <ele>51.045</ele>
        <time>2020-07-19T11:47:01Z</time>
      </trkpt>
      <trkpt lat="47.36829" lon="-1.08305">
        <ele>50.664</ele>
        <time>2020-07-19T11:47:02Z</time>
      </trkpt>
      <trkpt lat="47.36829" lon="-1.08296">
        <ele>50.066</ele>
        <time>2020-07-19T11:47:03Z</time>
      </trkpt>
      <trkpt lat="47.36829" lon="-1.08288">
        <ele>50.552</ele>
        <time>2020-07-19T11:47:04Z</time>
      </trkpt>
      <trkpt lat="47.36829" lon="-1.08281">
        <ele>50.933</ele>
        <time>2020-07-19T11:47:05Z</time>
      </trkpt>
      <trkpt lat="47.36828" lon="-1.08273">
        <ele>51.14</ele>
        <time>2020-07-19T11:47:06Z</time>
      </trkpt>
      <trkpt lat="47.36827" lon="-1.08268">
        <ele>50.65</ele>
        <time>2020-07-19T11:47:07Z</time>
      </trkpt>
      <trkpt lat="47.36827" lon="-1.08259">
        <ele>50.631</ele>
        <time>2020-07-19T11:47:08Z</time>
      </trkpt>
      <trkpt lat="47.36827" lon="-1.08251">
        <ele>50.231</ele>
        <time>2020-07-19T11:47:09Z</time>
      </trkpt>
      <trkpt lat="47.36823" lon="-1.08245">
        <ele>49.091</ele>
        <time>2020-07-19T11:47:10Z</time>
      </trkpt>
      <trkpt lat="47.36822" lon="-1.08236">
        <ele>49.413</ele>
        <time>2020-07-19T11:47:11Z</time>
      </trkpt>
      <trkpt lat="47.36819" lon="-1.08231">
        <ele>49.109</ele>
        <time>2020-07-19T11:47:12Z</time>
      </trkpt>
      <trkpt lat="47.3682" lon="-1.08224">
        <ele>49.019</ele>
        <time>2020-07-19T11:47:13Z</time>
      </trkpt>
      <trkpt lat="47.36822" lon="-1.08214">
        <ele>49.112</ele>
        <time>2020-07-19T11:47:14Z</time>
      </trkpt>
      <trkpt lat="47.36823" lon="-1.0821">
        <ele>51.009</ele>
        <time>2020-07-19T11:47:15Z</time>
      </trkpt>
      <trkpt lat="47.36823" lon="-1.08203">
        <ele>49.814</ele>
        <time>2020-07-19T11:47:16Z</time>
      </trkpt>
      <trkpt lat="47.36823" lon="-1.08196">
        <ele>50.989</ele>
        <time>2020-07-19T11:47:17Z</time>
      </trkpt>
      <trkpt lat="47.36825" lon="-1.08189">
        <ele>51.051</ele>
        <time>2020-07-19T11:47:18Z</time>
      </trkpt>
      <trkpt lat="47.36824" lon="-1.08183">
        <ele>50.268</ele>
        <time>2020-07-19T11:47:19Z</time>
      </trkpt>
      <trkpt lat="47.36825" lon="-1.08177">
        <ele>50.919</ele>
        <time>2020-07-19T11:47:20Z</time>
      </trkpt>
      <trkpt lat="47.36824" lon="-1.08172">
        <ele>51.633</ele>
        <time>2020-07-19T11:47:21Z</time>
      </trkpt>
      <trkpt lat="47.36826" lon="-1.08166">
        <ele>49.136</ele>
        <time>2020-07-19T11:47:22Z</time>
      </trkpt>
      <trkpt lat="47.36824" lon="-1.08159">
        <ele>48.22</ele>
        <time>2020-07-19T11:47:23Z</time>
      </trkpt>
      <trkpt lat="47.36824" lon="-1.08152">
        <ele>48.798</ele>
        <time>2020-07-19T11:47:24Z</time>
      </trkpt>
      <trkpt lat="47.36824" lon="-1.08144">
        <ele>49.965</ele>
        <time>2020-07-19T11:47:25Z</time>
      </trkpt>
      <trkpt lat="47.36825" lon="-1.08134">
        <ele>49.572</ele>
        <time>2020-07-19T11:47:26Z</time>
      </trkpt>
      <trkpt lat="47.36825" lon="-1.08126">
        <ele>49.195</ele>
        <time>2020-07-19T11:47:27Z</time>
      </trkpt>
      <trkpt lat="47.36827" lon="-1.08118">
        <ele>47.39</ele>
        <time>2020-07-19T11:47:28Z</time>
      </trkpt>
      <trkpt lat="47.36828" lon="-1.08114">
        <ele>47.541</ele>
        <time>2020-07-19T11:47:29Z</time>
      </trkpt>
      <trkpt lat="47.36829" lon="-1.08109">
        <ele>46.458</ele>
        <time>2020-07-19T11:47:30Z</time>
      </trkpt>
      <trkpt lat="47.36831" lon="-1.08105">
        <ele>44.479</ele>
        <time>2020-07-19T11:47:31Z</time>
      </trkpt>
      <trkpt lat="47.3683" lon="-1.08103">
        <ele>45.818</ele>
        <time>2020-07-19T11:47:32Z</time>
      </trkpt>
      <trkpt lat="47.36831" lon="-1.08101">
        <ele>46.818</ele>
        <time>2020-07-19T11:47:33Z</time>
      </trkpt>
      <trkpt lat="47.36831" lon="-1.081">
        <ele>46.294</ele>
        <time>2020-07-19T11:47:34Z</time>
      </trkpt>
      <trkpt lat="47.36831" lon="-1.081">
        <ele>47.487</ele>
        <time>2020-07-19T11:47:35Z</time>
      </trkpt>
      <trkpt lat="47.36831" lon="-1.081">
        <ele>48.205</ele>
        <time>2020-07-19T11:47:36Z</time>
      </trkpt>
      <trkpt lat="47.36831" lon="-1.081">
        <ele>47.943</ele>
        <time>2020-07-19T11:47:37Z</time>
      </trkpt>
      <trkpt lat="47.36831" lon="-1.081">
        <ele>48.123</ele>
        <time>2020-07-19T11:47:38Z</time>
      </trkpt>
      <trkpt lat="47.36831" lon="-1.081">
        <ele>48.281</ele>
        <time>2020-07-19T11:47:39Z</time>
      </trkpt>
      <trkpt lat="47.36831" lon="-1.081">
        <ele>48.505</ele>
        <time>2020-07-19T11:47:40Z</time>
      </trkpt>
      <trkpt lat="47.36832" lon="-1.081">
        <ele>47.881</ele>
        <time>2020-07-19T11:47:41Z</time>
      </trkpt>
      <trkpt lat="47.36832" lon="-1.081">
        <ele>47.809</ele>
        <time>2020-07-19T11:47:42Z</time>
      </trkpt>
      <trkpt lat="47.36832" lon="-1.08101">
        <ele>47.941</ele>
        <time>2020-07-19T11:47:43Z</time>
      </trkpt>
      <trkpt lat="47.36832" lon="-1.08101">
        <ele>47.971</ele>
        <time>2020-07-19T11:47:44Z</time>
      </trkpt>
      <trkpt lat="47.36832" lon="-1.08101">
        <ele>47.969</ele>
        <time>2020-07-19T11:47:45Z</time>
      </trkpt>
      <trkpt lat="47.36832" lon="-1.08101">
        <ele>47.843</ele>
        <time>2020-07-19T11:47:46Z</time>
      </trkpt>
      <trkpt lat="47.36833" lon="-1.08101">
        <ele>48.344</ele>
        <time>2020-07-19T11:47:47Z</time>
      </trkpt>
      <trkpt lat="47.36833" lon="-1.08101">
        <ele>48.431</ele>
        <time>2020-07-19T11:47:48Z</time>
      </trkpt>
      <trkpt lat="47.36833" lon="-1.08101">
        <ele>48.405</ele>
        <time>2020-07-19T11:47:49Z</time>
      </trkpt>
      <trkpt lat="47.36833" lon="-1.08101">
        <ele>48.432</ele>
        <time>2020-07-19T11:47:50Z</time>
      </trkpt>
      <trkpt lat="47.36833" lon="-1.08101">
        <ele>48.509</ele>
        <time>2020-07-19T11:47:51Z</time>
      </trkpt>
      <trkpt lat="47.36833" lon="-1.08101">
        <ele>48.508</ele>
        <time>2020-07-19T11:47:52Z</time>
      </trkpt>
      <trkpt lat="47.36833" lon="-1.08101">
        <ele>48.568</ele>
        <time>2020-07-19T11:47:53Z</time>
      </trkpt>
      <trkpt lat="47.36833" lon="-1.08101">
        <ele>48.521</ele>
        <time>2020-07-19T11:47:54Z</time>
      </trkpt>
      <trkpt lat="47.36833" lon="-1.08101">
        <ele>48.523</ele>
        <time>2020-07-19T11:47:55Z</time>
      </trkpt>
      <trkpt lat="47.36833" lon="-1.08101">
        <ele>48.524</ele>
        <time>2020-07-19T11:47:56Z</time>
      </trkpt>
      <trkpt lat="47.36833" lon="-1.081">
        <ele>48.504</ele>
        <time>2020-07-19T11:47:57Z</time>
      </trkpt>
      <trkpt lat="47.36833" lon="-1.081">
        <ele>48.536</ele>
        <time>2020-07-19T11:47:58Z</time>
      </trkpt>
      <trkpt lat="47.36833" lon="-1.08098">
        <ele>48.995</ele>
        <time>2020-07-19T11:47:59Z</time>
      </trkpt>
      <trkpt lat="47.36832" lon="-1.08096">
        <ele>49.934</ele>
        <time>2020-07-19T11:48:00Z</time>
      </trkpt>
      <trkpt lat="47.36834" lon="-1.08096">
        <ele>52.091</ele>
        <time>2020-07-19T11:48:03Z</time>
      </trkpt>
      <trkpt lat="47.36834" lon="-1.08095">
        <ele>51.896</ele>
        <time>2020-07-19T11:48:04Z</time>
      </trkpt>
      <trkpt lat="47.36834" lon="-1.08094">
        <ele>51.618</ele>
        <time>2020-07-19T11:48:05Z</time>
      </trkpt>
      <trkpt lat="47.36835" lon="-1.08094">
        <ele>52.341</ele>
        <time>2020-07-19T11:48:06Z</time>
      </trkpt>
      <trkpt lat="47.36836" lon="-1.08085">
        <ele>53.042</ele>
        <time>2020-07-19T11:48:07Z</time>
      </trkpt>
      <trkpt lat="47.36837" lon="-1.08078">
        <ele>53.765</ele>
        <time>2020-07-19T11:48:08Z</time>
      </trkpt>
      <trkpt lat="47.36838" lon="-1.0807">
        <ele>54.291</ele>
        <time>2020-07-19T11:48:09Z</time>
      </trkpt>
      <trkpt lat="47.36838" lon="-1.08063">
        <ele>53.917</ele>
        <time>2020-07-19T11:48:10Z</time>
      </trkpt>
      <trkpt lat="47.36839" lon="-1.08057">
        <ele>55.721</ele>
        <time>2020-07-19T11:48:11Z</time>
      </trkpt>
      <trkpt lat="47.36839" lon="-1.0805">
        <ele>55.116</ele>
        <time>2020-07-19T11:48:12Z</time>
      </trkpt>
      <trkpt lat="47.36839" lon="-1.08043">
        <ele>55.827</ele>
        <time>2020-07-19T11:48:13Z</time>
      </trkpt>
      <trkpt lat="47.36835" lon="-1.08034">
        <ele>56.927</ele>
        <time>2020-07-19T11:48:14Z</time>
      </trkpt>
      <trkpt lat="47.36834" lon="-1.08027">
        <ele>56.951</ele>
        <time>2020-07-19T11:48:15Z</time>
      </trkpt>
      <trkpt lat="47.36838" lon="-1.08018">
        <ele>55.047</ele>
        <time>2020-07-19T11:48:16Z</time>
      </trkpt>
      <trkpt lat="47.36837" lon="-1.08008">
        <ele>55.837</ele>
        <time>2020-07-19T11:48:17Z</time>
      </trkpt>
      <trkpt lat="47.36839" lon="-1.08001">
        <ele>55.061</ele>
        <time>2020-07-19T11:48:18Z</time>
      </trkpt>
      <trkpt lat="47.36841" lon="-1.07993">
        <ele>53.909</ele>
        <time>2020-07-19T11:48:19Z</time>
      </trkpt>
      <trkpt lat="47.36843" lon="-1.07989">
        <ele>53.721</ele>
        <time>2020-07-19T11:48:20Z</time>
      </trkpt>
      <trkpt lat="47.36844" lon="-1.07981">
        <ele>54.536</ele>
        <time>2020-07-19T11:48:21Z</time>
      </trkpt>
      <trkpt lat="47.36843" lon="-1.07972">
        <ele>55.082</ele>
        <time>2020-07-19T11:48:22Z</time>
      </trkpt>
      <trkpt lat="47.36846" lon="-1.07965">
        <ele>54.621</ele>
        <time>2020-07-19T11:48:23Z</time>
      </trkpt>
      <trkpt lat="47.36849" lon="-1.07959">
        <ele>54.197</ele>
        <time>2020-07-19T11:48:24Z</time>
      </trkpt>
      <trkpt lat="47.36849" lon="-1.07952">
        <ele>54.027</ele>
        <time>2020-07-19T11:48:25Z</time>
      </trkpt>
      <trkpt lat="47.36848" lon="-1.07945">
        <ele>53.297</ele>
        <time>2020-07-19T11:48:26Z</time>
      </trkpt>
      <trkpt lat="47.3685" lon="-1.07938">
        <ele>53.454</ele>
        <time>2020-07-19T11:48:27Z</time>
      </trkpt>
      <trkpt lat="47.3685" lon="-1.07932">
        <ele>52.588</ele>
        <time>2020-07-19T11:48:28Z</time>
      </trkpt>
      <trkpt lat="47.3685" lon="-1.07927">
        <ele>52.32</ele>
        <time>2020-07-19T11:48:29Z</time>
      </trkpt>
      <trkpt lat="47.3685" lon="-1.07921">
        <ele>52.681</ele>
        <time>2020-07-19T11:48:30Z</time>
      </trkpt>
      <trkpt lat="47.3685" lon="-1.07918">
        <ele>52.426</ele>
        <time>2020-07-19T11:48:31Z</time>
      </trkpt>
      <trkpt lat="47.3685" lon="-1.07915">
        <ele>51.928</ele>
        <time>2020-07-19T11:48:32Z</time>
      </trkpt>
      <trkpt lat="47.36849" lon="-1.07911">
        <ele>52.281</ele>
        <time>2020-07-19T11:48:33Z</time>
      </trkpt>
      <trkpt lat="47.3685" lon="-1.07906">
        <ele>52.813</ele>
        <time>2020-07-19T11:48:34Z</time>
      </trkpt>
      <trkpt lat="47.36849" lon="-1.07899">
        <ele>51.33</ele>
        <time>2020-07-19T11:48:35Z</time>
      </trkpt>
      <trkpt lat="47.36849" lon="-1.07894">
        <ele>51.037</ele>
        <time>2020-07-19T11:48:36Z</time>
      </trkpt>
      <trkpt lat="47.3685" lon="-1.07889">
        <ele>49.49</ele>
        <time>2020-07-19T11:48:37Z</time>
      </trkpt>
      <trkpt lat="47.3685" lon="-1.07881">
        <ele>50.262</ele>
        <time>2020-07-19T11:48:38Z</time>
      </trkpt>
      <trkpt lat="47.36851" lon="-1.07875">
        <ele>49.676</ele>
        <time>2020-07-19T11:48:39Z</time>
      </trkpt>
      <trkpt lat="47.36852" lon="-1.07868">
        <ele>50.315</ele>
        <time>2020-07-19T11:48:40Z</time>
      </trkpt>
      <trkpt lat="47.36851" lon="-1.07861">
        <ele>50.234</ele>
        <time>2020-07-19T11:48:41Z</time>
      </trkpt>
      <trkpt lat="47.36852" lon="-1.07853">
        <ele>51.579</ele>
        <time>2020-07-19T11:48:42Z</time>
      </trkpt>
      <trkpt lat="47.36854" lon="-1.07845">
        <ele>50.676</ele>
        <time>2020-07-19T11:48:43Z</time>
      </trkpt>
      <trkpt lat="47.36854" lon="-1.07837">
        <ele>50.997</ele>
        <time>2020-07-19T11:48:44Z</time>
      </trkpt>
      <trkpt lat="47.36855" lon="-1.07828">
        <ele>49.938</ele>
        <time>2020-07-19T11:48:45Z</time>
      </trkpt>
      <trkpt lat="47.36853" lon="-1.0782">
        <ele>49.465</ele>
        <time>2020-07-19T11:48:46Z</time>
      </trkpt>
      <trkpt lat="47.36856" lon="-1.07813">
        <ele>49.734</ele>
        <time>2020-07-19T11:48:47Z</time>
      </trkpt>
      <trkpt lat="47.36855" lon="-1.07807">
        <ele>49.271</ele>
        <time>2020-07-19T11:48:48Z</time>
      </trkpt>
      <trkpt lat="47.36856" lon="-1.07801">
        <ele>46.627</ele>
        <time>2020-07-19T11:48:49Z</time>
      </trkpt>
      <trkpt lat="47.36856" lon="-1.07791">
        <ele>45.834</ele>
        <time>2020-07-19T11:48:50Z</time>
      </trkpt>
      <trkpt lat="47.36856" lon="-1.07783">
        <ele>46.453</ele>
        <time>2020-07-19T11:48:51Z</time>
      </trkpt>
      <trkpt lat="47.36858" lon="-1.07774">
        <ele>45.91</ele>
        <time>2020-07-19T11:48:52Z</time>
      </trkpt>
      <trkpt lat="47.36858" lon="-1.07766">
        <ele>45.908</ele>
        <time>2020-07-19T11:48:53Z</time>
      </trkpt>
      <trkpt lat="47.36858" lon="-1.07759">
        <ele>46.068</ele>
        <time>2020-07-19T11:48:54Z</time>
      </trkpt>
      <trkpt lat="47.3686" lon="-1.07753">
        <ele>44.694</ele>
        <time>2020-07-19T11:48:55Z</time>
      </trkpt>
      <trkpt lat="47.36858" lon="-1.07745">
        <ele>43.866</ele>
        <time>2020-07-19T11:48:56Z</time>
      </trkpt>
      <trkpt lat="47.36857" lon="-1.07737">
        <ele>45.104</ele>
        <time>2020-07-19T11:48:57Z</time>
      </trkpt>
      <trkpt lat="47.36856" lon="-1.0773">
        <ele>44.279</ele>
        <time>2020-07-19T11:48:58Z</time>
      </trkpt>
      <trkpt lat="47.36855" lon="-1.07722">
        <ele>43.574</ele>
        <time>2020-07-19T11:48:59Z</time>
      </trkpt>
      <trkpt lat="47.36856" lon="-1.07714">
        <ele>43.187</ele>
        <time>2020-07-19T11:49:00Z</time>
      </trkpt>
      <trkpt lat="47.36855" lon="-1.07706">
        <ele>43.529</ele>
        <time>2020-07-19T11:49:01Z</time>
      </trkpt>
      <trkpt lat="47.36855" lon="-1.07698">
        <ele>44.135</ele>
        <time>2020-07-19T11:49:02Z</time>
      </trkpt>
      <trkpt lat="47.36856" lon="-1.07691">
        <ele>44.622</ele>
        <time>2020-07-19T11:49:03Z</time>
      </trkpt>
      <trkpt lat="47.36856" lon="-1.07684">
        <ele>45.034</ele>
        <time>2020-07-19T11:49:04Z</time>
      </trkpt>
      <trkpt lat="47.36856" lon="-1.07678">
        <ele>45.522</ele>
        <time>2020-07-19T11:49:05Z</time>
      </trkpt>
      <trkpt lat="47.36855" lon="-1.07672">
        <ele>45.522</ele>
        <time>2020-07-19T11:49:06Z</time>
      </trkpt>
      <trkpt lat="47.36854" lon="-1.07666">
        <ele>45.868</ele>
        <time>2020-07-19T11:49:07Z</time>
      </trkpt>
      <trkpt lat="47.36853" lon="-1.0766">
        <ele>47.122</ele>
        <time>2020-07-19T11:49:08Z</time>
      </trkpt>
      <trkpt lat="47.36853" lon="-1.07655">
        <ele>47.37</ele>
        <time>2020-07-19T11:49:09Z</time>
      </trkpt>
      <trkpt lat="47.36855" lon="-1.07653">
        <ele>47.846</ele>
        <time>2020-07-19T11:49:10Z</time>
      </trkpt>
      <trkpt lat="47.36856" lon="-1.07652">
        <ele>47.971</ele>
        <time>2020-07-19T11:49:11Z</time>
      </trkpt>
      <trkpt lat="47.36858" lon="-1.07653">
        <ele>48.053</ele>
        <time>2020-07-19T11:49:12Z</time>
      </trkpt>
      <trkpt lat="47.36859" lon="-1.07652">
        <ele>48.185</ele>
        <time>2020-07-19T11:49:13Z</time>
      </trkpt>
      <trkpt lat="47.3686" lon="-1.07651">
        <ele>48.312</ele>
        <time>2020-07-19T11:49:14Z</time>
      </trkpt>
      <trkpt lat="47.36859" lon="-1.07651">
        <ele>48.076</ele>
        <time>2020-07-19T11:49:15Z</time>
      </trkpt>
      <trkpt lat="47.36859" lon="-1.07651">
        <ele>46.942</ele>
        <time>2020-07-19T11:49:16Z</time>
      </trkpt>
      <trkpt lat="47.36859" lon="-1.07651">
        <ele>48.014</ele>
        <time>2020-07-19T11:49:17Z</time>
      </trkpt>
      <trkpt lat="47.36858" lon="-1.07651">
        <ele>48.345</ele>
        <time>2020-07-19T11:49:18Z</time>
      </trkpt>
      <trkpt lat="47.36857" lon="-1.07651">
        <ele>48.15</ele>
        <time>2020-07-19T11:49:19Z</time>
      </trkpt>
      <trkpt lat="47.36857" lon="-1.07651">
        <ele>49.271</ele>
        <time>2020-07-19T11:49:20Z</time>
      </trkpt>
      <trkpt lat="47.36857" lon="-1.0765">
        <ele>49.435</ele>
        <time>2020-07-19T11:49:21Z</time>
      </trkpt>
      <trkpt lat="47.36858" lon="-1.07648">
        <ele>51.116</ele>
        <time>2020-07-19T11:49:22Z</time>
      </trkpt>
      <trkpt lat="47.36858" lon="-1.07645">
        <ele>50.606</ele>
        <time>2020-07-19T11:49:23Z</time>
      </trkpt>
      <trkpt lat="47.36859" lon="-1.07641">
        <ele>49.471</ele>
        <time>2020-07-19T11:49:24Z</time>
      </trkpt>
      <trkpt lat="47.36859" lon="-1.07637">
        <ele>47.441</ele>
        <time>2020-07-19T11:49:25Z</time>
      </trkpt>
      <trkpt lat="47.36859" lon="-1.07633">
        <ele>47.369</ele>
        <time>2020-07-19T11:49:26Z</time>
      </trkpt>
      <trkpt lat="47.36858" lon="-1.0763">
        <ele>46.946</ele>
        <time>2020-07-19T11:49:27Z</time>
      </trkpt>
      <trkpt lat="47.36858" lon="-1.07626">
        <ele>47.475</ele>
        <time>2020-07-19T11:49:28Z</time>
      </trkpt>
      <trkpt lat="47.36857" lon="-1.07621">
        <ele>47.813</ele>
        <time>2020-07-19T11:49:29Z</time>
      </trkpt>
      <trkpt lat="47.36857" lon="-1.07615">
        <ele>47.9</ele>
        <time>2020-07-19T11:49:30Z</time>
      </trkpt>
      <trkpt lat="47.36857" lon="-1.07609">
        <ele>47.923</ele>
        <time>2020-07-19T11:49:31Z</time>
      </trkpt>
      <trkpt lat="47.36858" lon="-1.076">
        <ele>48.003</ele>
        <time>2020-07-19T11:49:32Z</time>
      </trkpt>
      <trkpt lat="47.36859" lon="-1.07594">
        <ele>48.296</ele>
        <time>2020-07-19T11:49:33Z</time>
      </trkpt>
      <trkpt lat="47.36859" lon="-1.0759">
        <ele>47.691</ele>
        <time>2020-07-19T11:49:34Z</time>
      </trkpt>
      <trkpt lat="47.3686" lon="-1.07586">
        <ele>48.855</ele>
        <time>2020-07-19T11:49:35Z</time>
      </trkpt>
      <trkpt lat="47.3686" lon="-1.07577">
        <ele>46.658</ele>
        <time>2020-07-19T11:49:36Z</time>
      </trkpt>
      <trkpt lat="47.3686" lon="-1.07569">
        <ele>47.99</ele>
        <time>2020-07-19T11:49:37Z</time>
      </trkpt>
      <trkpt lat="47.3686" lon="-1.07562">
        <ele>49.624</ele>
        <time>2020-07-19T11:49:38Z</time>
      </trkpt>
      <trkpt lat="47.36861" lon="-1.07556">
        <ele>50.449</ele>
        <time>2020-07-19T11:49:39Z</time>
      </trkpt>
      <trkpt lat="47.36861" lon="-1.07549">
        <ele>50.652</ele>
        <time>2020-07-19T11:49:40Z</time>
      </trkpt>
      <trkpt lat="47.36862" lon="-1.07539">
        <ele>49.21</ele>
        <time>2020-07-19T11:49:41Z</time>
      </trkpt>
      <trkpt lat="47.36862" lon="-1.0753">
        <ele>56.671</ele>
        <time>2020-07-19T11:49:42Z</time>
      </trkpt>
      <trkpt lat="47.36863" lon="-1.07525">
        <ele>52.981</ele>
        <time>2020-07-19T11:49:43Z</time>
      </trkpt>
      <trkpt lat="47.36862" lon="-1.07518">
        <ele>51.799</ele>
        <time>2020-07-19T11:49:44Z</time>
      </trkpt>
      <trkpt lat="47.36863" lon="-1.07513">
        <ele>49.809</ele>
        <time>2020-07-19T11:49:45Z</time>
      </trkpt>
      <trkpt lat="47.36865" lon="-1.07507">
        <ele>48.053</ele>
        <time>2020-07-19T11:49:46Z</time>
      </trkpt>
      <trkpt lat="47.36866" lon="-1.07499">
        <ele>46.695</ele>
        <time>2020-07-19T11:49:47Z</time>
      </trkpt>
      <trkpt lat="47.36867" lon="-1.07492">
        <ele>46.344</ele>
        <time>2020-07-19T11:49:48Z</time>
      </trkpt>
      <trkpt lat="47.36867" lon="-1.07484">
        <ele>45.796</ele>
        <time>2020-07-19T11:49:49Z</time>
      </trkpt>
      <trkpt lat="47.36869" lon="-1.07475">
        <ele>45.196</ele>
        <time>2020-07-19T11:49:50Z</time>
      </trkpt>
      <trkpt lat="47.36869" lon="-1.07467">
        <ele>44.747</ele>
        <time>2020-07-19T11:49:51Z</time>
      </trkpt>
      <trkpt lat="47.36868" lon="-1.07459">
        <ele>43.566</ele>
        <time>2020-07-19T11:49:52Z</time>
      </trkpt>
      <trkpt lat="47.36867" lon="-1.07451">
        <ele>42.768</ele>
        <time>2020-07-19T11:49:53Z</time>
      </trkpt>
      <trkpt lat="47.36866" lon="-1.07447">
        <ele>41.304</ele>
        <time>2020-07-19T11:49:54Z</time>
      </trkpt>
      <trkpt lat="47.36865" lon="-1.07441">
        <ele>41.144</ele>
        <time>2020-07-19T11:49:55Z</time>
      </trkpt>
      <trkpt lat="47.36865" lon="-1.07433">
        <ele>39.234</ele>
        <time>2020-07-19T11:49:56Z</time>
      </trkpt>
      <trkpt lat="47.36867" lon="-1.07425">
        <ele>36.533</ele>
        <time>2020-07-19T11:49:57Z</time>
      </trkpt>
      <trkpt lat="47.36868" lon="-1.07418">
        <ele>39.421</ele>
        <time>2020-07-19T11:49:58Z</time>
      </trkpt>
      <trkpt lat="47.36867" lon="-1.07412">
        <ele>39.681</ele>
        <time>2020-07-19T11:49:59Z</time>
      </trkpt>
      <trkpt lat="47.36867" lon="-1.07405">
        <ele>40.581</ele>
        <time>2020-07-19T11:50:00Z</time>
      </trkpt>
      <trkpt lat="47.36867" lon="-1.07397">
        <ele>41.092</ele>
        <time>2020-07-19T11:50:01Z</time>
      </trkpt>
      <trkpt lat="47.36868" lon="-1.07389">
        <ele>40.526</ele>
        <time>2020-07-19T11:50:02Z</time>
      </trkpt>
      <trkpt lat="47.36868" lon="-1.07379">
        <ele>41.749</ele>
        <time>2020-07-19T11:50:03Z</time>
      </trkpt>
      <trkpt lat="47.36867" lon="-1.07372">
        <ele>40.855</ele>
        <time>2020-07-19T11:50:04Z</time>
      </trkpt>
      <trkpt lat="47.36865" lon="-1.07364">
        <ele>41.186</ele>
        <time>2020-07-19T11:50:05Z</time>
      </trkpt>
      <trkpt lat="47.36864" lon="-1.07352">
        <ele>56.433</ele>
        <time>2020-07-19T11:50:06Z</time>
      </trkpt>
      <trkpt lat="47.36864" lon="-1.07344">
        <ele>54.116</ele>
        <time>2020-07-19T11:50:07Z</time>
      </trkpt>
      <trkpt lat="47.36862" lon="-1.07334">
        <ele>50.715</ele>
        <time>2020-07-19T11:50:08Z</time>
      </trkpt>
      <trkpt lat="47.36862" lon="-1.07329">
        <ele>48.545</ele>
        <time>2020-07-19T11:50:09Z</time>
      </trkpt>
      <trkpt lat="47.36864" lon="-1.07321">
        <ele>47.622</ele>
        <time>2020-07-19T11:50:10Z</time>
      </trkpt>
      <trkpt lat="47.36862" lon="-1.07314">
        <ele>45.519</ele>
        <time>2020-07-19T11:50:11Z</time>
      </trkpt>
      <trkpt lat="47.36862" lon="-1.07304">
        <ele>44.388</ele>
        <time>2020-07-19T11:50:12Z</time>
      </trkpt>
      <trkpt lat="47.36861" lon="-1.07294">
        <ele>43.672</ele>
        <time>2020-07-19T11:50:13Z</time>
      </trkpt>
      <trkpt lat="47.36862" lon="-1.07285">
        <ele>43.141</ele>
        <time>2020-07-19T11:50:14Z</time>
      </trkpt>
      <trkpt lat="47.36864" lon="-1.07276">
        <ele>42.842</ele>
        <time>2020-07-19T11:50:15Z</time>
      </trkpt>
      <trkpt lat="47.36864" lon="-1.0727">
        <ele>41.871</ele>
        <time>2020-07-19T11:50:16Z</time>
      </trkpt>
      <trkpt lat="47.36865" lon="-1.07262">
        <ele>42.318</ele>
        <time>2020-07-19T11:50:17Z</time>
      </trkpt>
      <trkpt lat="47.36866" lon="-1.07255">
        <ele>43.785</ele>
        <time>2020-07-19T11:50:18Z</time>
      </trkpt>
      <trkpt lat="47.36866" lon="-1.07249">
        <ele>45.256</ele>
        <time>2020-07-19T11:50:19Z</time>
      </trkpt>
      <trkpt lat="47.36864" lon="-1.07242">
        <ele>45.428</ele>
        <time>2020-07-19T11:50:20Z</time>
      </trkpt>
      <trkpt lat="47.36863" lon="-1.07235">
        <ele>47.329</ele>
        <time>2020-07-19T11:50:21Z</time>
      </trkpt>
      <trkpt lat="47.36864" lon="-1.07228">
        <ele>46.883</ele>
        <time>2020-07-19T11:50:22Z</time>
      </trkpt>
      <trkpt lat="47.36866" lon="-1.0722">
        <ele>47.705</ele>
        <time>2020-07-19T11:50:23Z</time>
      </trkpt>
      <trkpt lat="47.36865" lon="-1.07213">
        <ele>46.817</ele>
        <time>2020-07-19T11:50:24Z</time>
      </trkpt>
      <trkpt lat="47.36865" lon="-1.07205">
        <ele>47.474</ele>
        <time>2020-07-19T11:50:25Z</time>
      </trkpt>
      <trkpt lat="47.36866" lon="-1.07196">
        <ele>47.208</ele>
        <time>2020-07-19T11:50:26Z</time>
      </trkpt>
      <trkpt lat="47.36868" lon="-1.07187">
        <ele>46.689</ele>
        <time>2020-07-19T11:50:27Z</time>
      </trkpt>
      <trkpt lat="47.36868" lon="-1.07179">
        <ele>46.501</ele>
        <time>2020-07-19T11:50:28Z</time>
      </trkpt>
      <trkpt lat="47.36867" lon="-1.07171">
        <ele>46.557</ele>
        <time>2020-07-19T11:50:29Z</time>
      </trkpt>
      <trkpt lat="47.36866" lon="-1.07161">
        <ele>46.846</ele>
        <time>2020-07-19T11:50:30Z</time>
      </trkpt>
      <trkpt lat="47.36865" lon="-1.07151">
        <ele>47.987</ele>
        <time>2020-07-19T11:50:31Z</time>
      </trkpt>
      <trkpt lat="47.36864" lon="-1.07143">
        <ele>50.114</ele>
        <time>2020-07-19T11:50:32Z</time>
      </trkpt>
      <trkpt lat="47.36863" lon="-1.07135">
        <ele>49.4</ele>
        <time>2020-07-19T11:50:33Z</time>
      </trkpt>
      <trkpt lat="47.36864" lon="-1.07128">
        <ele>48.064</ele>
        <time>2020-07-19T11:50:34Z</time>
      </trkpt>
      <trkpt lat="47.36863" lon="-1.07119">
        <ele>48.165</ele>
        <time>2020-07-19T11:50:35Z</time>
      </trkpt>
      <trkpt lat="47.36863" lon="-1.07109">
        <ele>48.142</ele>
        <time>2020-07-19T11:50:36Z</time>
      </trkpt>
      <trkpt lat="47.36861" lon="-1.071">
        <ele>47.404</ele>
        <time>2020-07-19T11:50:37Z</time>
      </trkpt>
      <trkpt lat="47.3686" lon="-1.07091">
        <ele>46.764</ele>
        <time>2020-07-19T11:50:38Z</time>
      </trkpt>
      <trkpt lat="47.3686" lon="-1.07081">
        <ele>45.535</ele>
        <time>2020-07-19T11:50:39Z</time>
      </trkpt>
      <trkpt lat="47.36861" lon="-1.07072">
        <ele>46.128</ele>
        <time>2020-07-19T11:50:40Z</time>
      </trkpt>
      <trkpt lat="47.36862" lon="-1.07063">
        <ele>46.142</ele>
        <time>2020-07-19T11:50:41Z</time>
      </trkpt>
      <trkpt lat="47.36863" lon="-1.07052">
        <ele>46.301</ele>
        <time>2020-07-19T11:50:42Z</time>
      </trkpt>
      <trkpt lat="47.36862" lon="-1.07044">
        <ele>46.249</ele>
        <time>2020-07-19T11:50:43Z</time>
      </trkpt>
      <trkpt lat="47.36863" lon="-1.07034">
        <ele>46.122</ele>
        <time>2020-07-19T11:50:44Z</time>
      </trkpt>
      <trkpt lat="47.36864" lon="-1.07025">
        <ele>46.527</ele>
        <time>2020-07-19T11:50:45Z</time>
      </trkpt>
      <trkpt lat="47.36864" lon="-1.07016">
        <ele>47.28</ele>
        <time>2020-07-19T11:50:46Z</time>
      </trkpt>
      <trkpt lat="47.36862" lon="-1.07007">
        <ele>47.02</ele>
        <time>2020-07-19T11:50:47Z</time>
      </trkpt>
      <trkpt lat="47.3686" lon="-1.06998">
        <ele>46.716</ele>
        <time>2020-07-19T11:50:48Z</time>
      </trkpt>
      <trkpt lat="47.36862" lon="-1.06989">
        <ele>45.825</ele>
        <time>2020-07-19T11:50:49Z</time>
      </trkpt>
      <trkpt lat="47.36864" lon="-1.0698">
        <ele>45.025</ele>
        <time>2020-07-19T11:50:50Z</time>
      </trkpt>
      <trkpt lat="47.36864" lon="-1.06971">
        <ele>45.324</ele>
        <time>2020-07-19T11:50:51Z</time>
      </trkpt>
      <trkpt lat="47.36863" lon="-1.06962">
        <ele>45.53</ele>
        <time>2020-07-19T11:50:52Z</time>
      </trkpt>
      <trkpt lat="47.36863" lon="-1.06952">
        <ele>46.265</ele>
        <time>2020-07-19T11:50:53Z</time>
      </trkpt>
      <trkpt lat="47.36863" lon="-1.06943">
        <ele>46.73</ele>
        <time>2020-07-19T11:50:54Z</time>
      </trkpt>
      <trkpt lat="47.36862" lon="-1.06934">
        <ele>47.511</ele>
        <time>2020-07-19T11:50:55Z</time>
      </trkpt>
      <trkpt lat="47.36863" lon="-1.06925">
        <ele>47.576</ele>
        <time>2020-07-19T11:50:56Z</time>
      </trkpt>
      <trkpt lat="47.36862" lon="-1.06916">
        <ele>48.696</ele>
        <time>2020-07-19T11:50:57Z</time>
      </trkpt>
      <trkpt lat="47.36862" lon="-1.06908">
        <ele>50.494</ele>
        <time>2020-07-19T11:50:58Z</time>
      </trkpt>
      <trkpt lat="47.36862" lon="-1.06902">
        <ele>51.449</ele>
        <time>2020-07-19T11:50:59Z</time>
      </trkpt>
      <trkpt lat="47.36864" lon="-1.06897">
        <ele>49.405</ele>
        <time>2020-07-19T11:51:00Z</time>
      </trkpt>
      <trkpt lat="47.36864" lon="-1.06896">
        <ele>50.776</ele>
        <time>2020-07-19T11:51:01Z</time>
      </trkpt>
      <trkpt lat="47.36864" lon="-1.06896">
        <ele>50.898</ele>
        <time>2020-07-19T11:51:02Z</time>
      </trkpt>
      <trkpt lat="47.36865" lon="-1.06896">
        <ele>51.476</ele>
        <time>2020-07-19T11:51:03Z</time>
      </trkpt>
      <trkpt lat="47.36864" lon="-1.06895">
        <ele>51.587</ele>
        <time>2020-07-19T11:51:04Z</time>
      </trkpt>
      <trkpt lat="47.36864" lon="-1.06895">
        <ele>52.414</ele>
        <time>2020-07-19T11:51:05Z</time>
      </trkpt>
      <trkpt lat="47.36864" lon="-1.06895">
        <ele>52.437</ele>
        <time>2020-07-19T11:51:06Z</time>
      </trkpt>
      <trkpt lat="47.36864" lon="-1.06896">
        <ele>52.644</ele>
        <time>2020-07-19T11:51:07Z</time>
      </trkpt>
      <trkpt lat="47.36864" lon="-1.06896">
        <ele>52.546</ele>
        <time>2020-07-19T11:51:08Z</time>
      </trkpt>
      <trkpt lat="47.36864" lon="-1.06896">
        <ele>52.806</ele>
        <time>2020-07-19T11:51:09Z</time>
      </trkpt>
      <trkpt lat="47.36864" lon="-1.06896">
        <ele>53.131</ele>
        <time>2020-07-19T11:51:10Z</time>
      </trkpt>
      <trkpt lat="47.36864" lon="-1.06896">
        <ele>53.26</ele>
        <time>2020-07-19T11:51:11Z</time>
      </trkpt>
      <trkpt lat="47.36864" lon="-1.06896">
        <ele>53.289</ele>
        <time>2020-07-19T11:51:12Z</time>
      </trkpt>
      <trkpt lat="47.36864" lon="-1.06896">
        <ele>53.338</ele>
        <time>2020-07-19T11:51:13Z</time>
      </trkpt>
      <trkpt lat="47.36864" lon="-1.06896">
        <ele>53.348</ele>
        <time>2020-07-19T11:51:14Z</time>
      </trkpt>
      <trkpt lat="47.36864" lon="-1.06896">
        <ele>53.359</ele>
        <time>2020-07-19T11:51:15Z</time>
      </trkpt>
      <trkpt lat="47.36864" lon="-1.06896">
        <ele>53.365</ele>
        <time>2020-07-19T11:51:16Z</time>
      </trkpt>
      <trkpt lat="47.36864" lon="-1.06896">
        <ele>53.369</ele>
        <time>2020-07-19T11:51:17Z</time>
      </trkpt>
      <trkpt lat="47.36864" lon="-1.06896">
        <ele>53.369</ele>
        <time>2020-07-19T11:51:18Z</time>
      </trkpt>
      <trkpt lat="47.36864" lon="-1.06896">
        <ele>53.369</ele>
        <time>2020-07-19T11:51:19Z</time>
      </trkpt>
      <trkpt lat="47.36864" lon="-1.06896">
        <ele>53.371</ele>
        <time>2020-07-19T11:51:20Z</time>
      </trkpt>
      <trkpt lat="47.36864" lon="-1.06896">
        <ele>53.376</ele>
        <time>2020-07-19T11:51:21Z</time>
      </trkpt>
      <trkpt lat="47.36864" lon="-1.06896">
        <ele>53.377</ele>
        <time>2020-07-19T11:51:22Z</time>
      </trkpt>
      <trkpt lat="47.36864" lon="-1.06896">
        <ele>53.375</ele>
        <time>2020-07-19T11:51:23Z</time>
      </trkpt>
      <trkpt lat="47.36864" lon="-1.06896">
        <ele>53.378</ele>
        <time>2020-07-19T11:51:24Z</time>
      </trkpt>
      <trkpt lat="47.36864" lon="-1.06896">
        <ele>53.385</ele>
        <time>2020-07-19T11:51:25Z</time>
      </trkpt>
      <trkpt lat="47.36864" lon="-1.06896">
        <ele>53.386</ele>
        <time>2020-07-19T11:51:26Z</time>
      </trkpt>
      <trkpt lat="47.36864" lon="-1.06896">
        <ele>53.388</ele>
        <time>2020-07-19T11:51:27Z</time>
      </trkpt>
      <trkpt lat="47.36864" lon="-1.06896">
        <ele>53.389</ele>
        <time>2020-07-19T11:51:28Z</time>
      </trkpt>
      <trkpt lat="47.36864" lon="-1.06896">
        <ele>53.391</ele>
        <time>2020-07-19T11:51:29Z</time>
      </trkpt>
      <trkpt lat="47.36864" lon="-1.06896">
        <ele>53.389</ele>
        <time>2020-07-19T11:51:30Z</time>
      </trkpt>
      <trkpt lat="47.36864" lon="-1.06896">
        <ele>53.39</ele>
        <time>2020-07-19T11:51:31Z</time>
      </trkpt>
      <trkpt lat="47.36864" lon="-1.06896">
        <ele>53.389</ele>
        <time>2020-07-19T11:51:32Z</time>
      </trkpt>
      <trkpt lat="47.36864" lon="-1.06896">
        <ele>53.389</ele>
        <time>2020-07-19T11:51:33Z</time>
      </trkpt>
      <trkpt lat="47.36864" lon="-1.06896">
        <ele>53.393</ele>
        <time>2020-07-19T11:51:34Z</time>
      </trkpt>
      <trkpt lat="47.36864" lon="-1.06896">
        <ele>53.399</ele>
        <time>2020-07-19T11:51:35Z</time>
      </trkpt>
      <trkpt lat="47.36864" lon="-1.06896">
        <ele>53.336</ele>
        <time>2020-07-19T11:51:36Z</time>
      </trkpt>
      <trkpt lat="47.36864" lon="-1.06896">
        <ele>53.315</ele>
        <time>2020-07-19T11:51:37Z</time>
      </trkpt>
      <trkpt lat="47.36864" lon="-1.06896">
        <ele>53.294</ele>
        <time>2020-07-19T11:51:38Z</time>
      </trkpt>
      <trkpt lat="47.36864" lon="-1.06896">
        <ele>53.344</ele>
        <time>2020-07-19T11:51:39Z</time>
      </trkpt>
      <trkpt lat="47.36864" lon="-1.06896">
        <ele>53.329</ele>
        <time>2020-07-19T11:51:40Z</time>
      </trkpt>
      <trkpt lat="47.36864" lon="-1.06896">
        <ele>53.326</ele>
        <time>2020-07-19T11:51:41Z</time>
      </trkpt>
      <trkpt lat="47.36864" lon="-1.06895">
        <ele>52.564</ele>
        <time>2020-07-19T11:51:42Z</time>
      </trkpt>
      <trkpt lat="47.36865" lon="-1.06895">
        <ele>53.681</ele>
        <time>2020-07-19T11:51:43Z</time>
      </trkpt>
      <trkpt lat="47.36865" lon="-1.06896">
        <ele>54.756</ele>
        <time>2020-07-19T11:51:44Z</time>
      </trkpt>
      <trkpt lat="47.36866" lon="-1.06896">
        <ele>55.193</ele>
        <time>2020-07-19T11:51:45Z</time>
      </trkpt>
      <trkpt lat="47.36866" lon="-1.06896">
        <ele>55.139</ele>
        <time>2020-07-19T11:51:46Z</time>
      </trkpt>
      <trkpt lat="47.36866" lon="-1.06896">
        <ele>55.409</ele>
        <time>2020-07-19T11:51:47Z</time>
      </trkpt>
      <trkpt lat="47.36866" lon="-1.06896">
        <ele>55.672</ele>
        <time>2020-07-19T11:51:48Z</time>
      </trkpt>
      <trkpt lat="47.36866" lon="-1.06896">
        <ele>55.156</ele>
        <time>2020-07-19T11:51:49Z</time>
      </trkpt>
      <trkpt lat="47.36865" lon="-1.06895">
        <ele>55.413</ele>
        <time>2020-07-19T11:51:50Z</time>
      </trkpt>
      <trkpt lat="47.36865" lon="-1.06895">
        <ele>55.386</ele>
        <time>2020-07-19T11:51:51Z</time>
      </trkpt>
      <trkpt lat="47.36865" lon="-1.06895">
        <ele>55.254</ele>
        <time>2020-07-19T11:51:52Z</time>
      </trkpt>
      <trkpt lat="47.36865" lon="-1.06895">
        <ele>55.221</ele>
        <time>2020-07-19T11:51:53Z</time>
      </trkpt>
      <trkpt lat="47.36865" lon="-1.06895">
        <ele>55.441</ele>
        <time>2020-07-19T11:51:54Z</time>
      </trkpt>
      <trkpt lat="47.36865" lon="-1.06895">
        <ele>55.353</ele>
        <time>2020-07-19T11:51:55Z</time>
      </trkpt>
      <trkpt lat="47.36865" lon="-1.06895">
        <ele>55.522</ele>
        <time>2020-07-19T11:51:56Z</time>
      </trkpt>
      <trkpt lat="47.36864" lon="-1.06892">
        <ele>55.145</ele>
        <time>2020-07-19T11:51:57Z</time>
      </trkpt>
      <trkpt lat="47.36863" lon="-1.06888">
        <ele>53.69</ele>
        <time>2020-07-19T11:51:58Z</time>
      </trkpt>
      <trkpt lat="47.36864" lon="-1.06885">
        <ele>52.785</ele>
        <time>2020-07-19T11:51:59Z</time>
      </trkpt>
      <trkpt lat="47.36864" lon="-1.06882">
        <ele>53.617</ele>
        <time>2020-07-19T11:52:00Z</time>
      </trkpt>
      <trkpt lat="47.36864" lon="-1.06877">
        <ele>53.023</ele>
        <time>2020-07-19T11:52:01Z</time>
      </trkpt>
      <trkpt lat="47.36864" lon="-1.06874">
        <ele>53.281</ele>
        <time>2020-07-19T11:52:02Z</time>
      </trkpt>
      <trkpt lat="47.36864" lon="-1.06869">
        <ele>51.392</ele>
        <time>2020-07-19T11:52:03Z</time>
      </trkpt>
      <trkpt lat="47.36864" lon="-1.06864">
        <ele>50.832</ele>
        <time>2020-07-19T11:52:04Z</time>
      </trkpt>
      <trkpt lat="47.36864" lon="-1.06859">
        <ele>50.291</ele>
        <time>2020-07-19T11:52:05Z</time>
      </trkpt>
      <trkpt lat="47.36864" lon="-1.06853">
        <ele>49.515</ele>
        <time>2020-07-19T11:52:06Z</time>
      </trkpt>
      <trkpt lat="47.36863" lon="-1.06847">
        <ele>48.665</ele>
        <time>2020-07-19T11:52:07Z</time>
      </trkpt>
      <trkpt lat="47.36863" lon="-1.06841">
        <ele>48.501</ele>
        <time>2020-07-19T11:52:08Z</time>
      </trkpt>
      <trkpt lat="47.36863" lon="-1.06835">
        <ele>48.383</ele>
        <time>2020-07-19T11:52:09Z</time>
      </trkpt>
      <trkpt lat="47.36863" lon="-1.06828">
        <ele>48.259</ele>
        <time>2020-07-19T11:52:10Z</time>
      </trkpt>
      <trkpt lat="47.36863" lon="-1.06823">
        <ele>49.633</ele>
        <time>2020-07-19T11:52:11Z</time>
      </trkpt>
      <trkpt lat="47.36863" lon="-1.06817">
        <ele>50.142</ele>
        <time>2020-07-19T11:52:12Z</time>
      </trkpt>
      <trkpt lat="47.36864" lon="-1.06811">
        <ele>50.16</ele>
        <time>2020-07-19T11:52:13Z</time>
      </trkpt>
      <trkpt lat="47.36865" lon="-1.06805">
        <ele>51.036</ele>
        <time>2020-07-19T11:52:14Z</time>
      </trkpt>
      <trkpt lat="47.36866" lon="-1.06797">
        <ele>50.483</ele>
        <time>2020-07-19T11:52:15Z</time>
      </trkpt>
      <trkpt lat="47.36866" lon="-1.06789">
        <ele>50.53</ele>
        <time>2020-07-19T11:52:16Z</time>
      </trkpt>
      <trkpt lat="47.36865" lon="-1.06782">
        <ele>50.535</ele>
        <time>2020-07-19T11:52:17Z</time>
      </trkpt>
      <trkpt lat="47.36865" lon="-1.06775">
        <ele>50.114</ele>
        <time>2020-07-19T11:52:18Z</time>
      </trkpt>
      <trkpt lat="47.36864" lon="-1.06769">
        <ele>50.085</ele>
        <time>2020-07-19T11:52:19Z</time>
      </trkpt>
      <trkpt lat="47.36862" lon="-1.06762">
        <ele>50.81</ele>
        <time>2020-07-19T11:52:20Z</time>
      </trkpt>
      <trkpt lat="47.36861" lon="-1.06757">
        <ele>50.566</ele>
        <time>2020-07-19T11:52:21Z</time>
      </trkpt>
      <trkpt lat="47.36859" lon="-1.06751">
        <ele>50.999</ele>
        <time>2020-07-19T11:52:22Z</time>
      </trkpt>
      <trkpt lat="47.36856" lon="-1.06745">
        <ele>50.575</ele>
        <time>2020-07-19T11:52:23Z</time>
      </trkpt>
      <trkpt lat="47.36855" lon="-1.06737">
        <ele>50.749</ele>
        <time>2020-07-19T11:52:24Z</time>
      </trkpt>
      <trkpt lat="47.36854" lon="-1.06731">
        <ele>49.7</ele>
        <time>2020-07-19T11:52:25Z</time>
      </trkpt>
      <trkpt lat="47.36852" lon="-1.06723">
        <ele>49.065</ele>
        <time>2020-07-19T11:52:26Z</time>
      </trkpt>
      <trkpt lat="47.3685" lon="-1.06716">
        <ele>48.293</ele>
        <time>2020-07-19T11:52:27Z</time>
      </trkpt>
      <trkpt lat="47.36848" lon="-1.06709">
        <ele>49.316</ele>
        <time>2020-07-19T11:52:28Z</time>
      </trkpt>
      <trkpt lat="47.36847" lon="-1.06703">
        <ele>49.066</ele>
        <time>2020-07-19T11:52:29Z</time>
      </trkpt>
      <trkpt lat="47.36847" lon="-1.067">
        <ele>47.22</ele>
        <time>2020-07-19T11:52:30Z</time>
      </trkpt>
      <trkpt lat="47.36846" lon="-1.06693">
        <ele>47.046</ele>
        <time>2020-07-19T11:52:31Z</time>
      </trkpt>
      <trkpt lat="47.36846" lon="-1.06686">
        <ele>46.881</ele>
        <time>2020-07-19T11:52:32Z</time>
      </trkpt>
      <trkpt lat="47.36845" lon="-1.06679">
        <ele>45.81</ele>
        <time>2020-07-19T11:52:33Z</time>
      </trkpt>
      <trkpt lat="47.36845" lon="-1.06672">
        <ele>46.036</ele>
        <time>2020-07-19T11:52:34Z</time>
      </trkpt>
      <trkpt lat="47.36845" lon="-1.06665">
        <ele>47.459</ele>
        <time>2020-07-19T11:52:35Z</time>
      </trkpt>
      <trkpt lat="47.36844" lon="-1.06657">
        <ele>47.434</ele>
        <time>2020-07-19T11:52:36Z</time>
      </trkpt>
      <trkpt lat="47.36843" lon="-1.0665">
        <ele>47.854</ele>
        <time>2020-07-19T11:52:37Z</time>
      </trkpt>
      <trkpt lat="47.36844" lon="-1.06643">
        <ele>49.179</ele>
        <time>2020-07-19T11:52:38Z</time>
      </trkpt>
      <trkpt lat="47.3684" lon="-1.06634">
        <ele>46.59</ele>
        <time>2020-07-19T11:52:39Z</time>
      </trkpt>
      <trkpt lat="47.36841" lon="-1.06627">
        <ele>46.86</ele>
        <time>2020-07-19T11:52:40Z</time>
      </trkpt>
      <trkpt lat="47.3684" lon="-1.06621">
        <ele>45.446</ele>
        <time>2020-07-19T11:52:41Z</time>
      </trkpt>
      <trkpt lat="47.36841" lon="-1.06615">
        <ele>44.613</ele>
        <time>2020-07-19T11:52:42Z</time>
      </trkpt>
      <trkpt lat="47.3684" lon="-1.06607">
        <ele>44.556</ele>
        <time>2020-07-19T11:52:43Z</time>
      </trkpt>
      <trkpt lat="47.36839" lon="-1.06599">
        <ele>43.504</ele>
        <time>2020-07-19T11:52:44Z</time>
      </trkpt>
      <trkpt lat="47.36839" lon="-1.06593">
        <ele>44.552</ele>
        <time>2020-07-19T11:52:45Z</time>
      </trkpt>
      <trkpt lat="47.36838" lon="-1.06586">
        <ele>44.732</ele>
        <time>2020-07-19T11:52:46Z</time>
      </trkpt>
      <trkpt lat="47.36839" lon="-1.06579">
        <ele>43.771</ele>
        <time>2020-07-19T11:52:47Z</time>
      </trkpt>
      <trkpt lat="47.36838" lon="-1.06572">
        <ele>43.094</ele>
        <time>2020-07-19T11:52:48Z</time>
      </trkpt>
      <trkpt lat="47.36838" lon="-1.06564">
        <ele>45.693</ele>
        <time>2020-07-19T11:52:49Z</time>
      </trkpt>
      <trkpt lat="47.36838" lon="-1.06555">
        <ele>46.254</ele>
        <time>2020-07-19T11:52:50Z</time>
      </trkpt>
      <trkpt lat="47.36837" lon="-1.06546">
        <ele>45.646</ele>
        <time>2020-07-19T11:52:51Z</time>
      </trkpt>
      <trkpt lat="47.36837" lon="-1.06539">
        <ele>45.863</ele>
        <time>2020-07-19T11:52:52Z</time>
      </trkpt>
      <trkpt lat="47.36836" lon="-1.0653">
        <ele>46.899</ele>
        <time>2020-07-19T11:52:53Z</time>
      </trkpt>
      <trkpt lat="47.36836" lon="-1.06522">
        <ele>47.554</ele>
        <time>2020-07-19T11:52:54Z</time>
      </trkpt>
      <trkpt lat="47.36836" lon="-1.06515">
        <ele>48.03</ele>
        <time>2020-07-19T11:52:55Z</time>
      </trkpt>
      <trkpt lat="47.36836" lon="-1.06506">
        <ele>48.236</ele>
        <time>2020-07-19T11:52:56Z</time>
      </trkpt>
      <trkpt lat="47.36835" lon="-1.06498">
        <ele>48.291</ele>
        <time>2020-07-19T11:52:57Z</time>
      </trkpt>
      <trkpt lat="47.36834" lon="-1.06491">
        <ele>47.134</ele>
        <time>2020-07-19T11:52:58Z</time>
      </trkpt>
      <trkpt lat="47.3683" lon="-1.06486">
        <ele>44.874</ele>
        <time>2020-07-19T11:52:59Z</time>
      </trkpt>
      <trkpt lat="47.36828" lon="-1.06478">
        <ele>46.117</ele>
        <time>2020-07-19T11:53:00Z</time>
      </trkpt>
      <trkpt lat="47.36825" lon="-1.06471">
        <ele>46.352</ele>
        <time>2020-07-19T11:53:01Z</time>
      </trkpt>
      <trkpt lat="47.36823" lon="-1.06466">
        <ele>47.285</ele>
        <time>2020-07-19T11:53:02Z</time>
      </trkpt>
      <trkpt lat="47.36819" lon="-1.06461">
        <ele>48.344</ele>
        <time>2020-07-19T11:53:03Z</time>
      </trkpt>
      <trkpt lat="47.36814" lon="-1.06456">
        <ele>48.622</ele>
        <time>2020-07-19T11:53:04Z</time>
      </trkpt>
      <trkpt lat="47.36811" lon="-1.06451">
        <ele>48.046</ele>
        <time>2020-07-19T11:53:05Z</time>
      </trkpt>
      <trkpt lat="47.36807" lon="-1.06446">
        <ele>48.476</ele>
        <time>2020-07-19T11:53:06Z</time>
      </trkpt>
      <trkpt lat="47.36805" lon="-1.0644">
        <ele>48.973</ele>
        <time>2020-07-19T11:53:07Z</time>
      </trkpt>
      <trkpt lat="47.36802" lon="-1.06438">
        <ele>49.798</ele>
        <time>2020-07-19T11:53:08Z</time>
      </trkpt>
      <trkpt lat="47.368" lon="-1.06435">
        <ele>50.133</ele>
        <time>2020-07-19T11:53:09Z</time>
      </trkpt>
      <trkpt lat="47.36797" lon="-1.06431">
        <ele>50.512</ele>
        <time>2020-07-19T11:53:10Z</time>
      </trkpt>
      <trkpt lat="47.36794" lon="-1.06427">
        <ele>50.896</ele>
        <time>2020-07-19T11:53:11Z</time>
      </trkpt>
      <trkpt lat="47.36791" lon="-1.06421">
        <ele>50.047</ele>
        <time>2020-07-19T11:53:12Z</time>
      </trkpt>
      <trkpt lat="47.36788" lon="-1.06414">
        <ele>50.799</ele>
        <time>2020-07-19T11:53:13Z</time>
      </trkpt>
      <trkpt lat="47.36785" lon="-1.06408">
        <ele>50.664</ele>
        <time>2020-07-19T11:53:14Z</time>
      </trkpt>
      <trkpt lat="47.36783" lon="-1.06401">
        <ele>52.162</ele>
        <time>2020-07-19T11:53:15Z</time>
      </trkpt>
      <trkpt lat="47.36782" lon="-1.06395">
        <ele>51.762</ele>
        <time>2020-07-19T11:53:16Z</time>
      </trkpt>
      <trkpt lat="47.3678" lon="-1.06387">
        <ele>51.945</ele>
        <time>2020-07-19T11:53:17Z</time>
      </trkpt>
      <trkpt lat="47.36777" lon="-1.06381">
        <ele>53.594</ele>
        <time>2020-07-19T11:53:18Z</time>
      </trkpt>
      <trkpt lat="47.36775" lon="-1.06374">
        <ele>53.457</ele>
        <time>2020-07-19T11:53:19Z</time>
      </trkpt>
      <trkpt lat="47.36773" lon="-1.06368">
        <ele>53.086</ele>
        <time>2020-07-19T11:53:20Z</time>
      </trkpt>
      <trkpt lat="47.3677" lon="-1.0636">
        <ele>53.571</ele>
        <time>2020-07-19T11:53:21Z</time>
      </trkpt>
      <trkpt lat="47.36768" lon="-1.06352">
        <ele>53.463</ele>
        <time>2020-07-19T11:53:22Z</time>
      </trkpt>
      <trkpt lat="47.36765" lon="-1.06343">
        <ele>52.339</ele>
        <time>2020-07-19T11:53:23Z</time>
      </trkpt>
      <trkpt lat="47.36764" lon="-1.06335">
        <ele>52.534</ele>
        <time>2020-07-19T11:53:24Z</time>
      </trkpt>
      <trkpt lat="47.36763" lon="-1.06328">
        <ele>52.108</ele>
        <time>2020-07-19T11:53:25Z</time>
      </trkpt>
      <trkpt lat="47.36762" lon="-1.06319">
        <ele>51.894</ele>
        <time>2020-07-19T11:53:26Z</time>
      </trkpt>
      <trkpt lat="47.36762" lon="-1.06311">
        <ele>51.395</ele>
        <time>2020-07-19T11:53:27Z</time>
      </trkpt>
      <trkpt lat="47.36759" lon="-1.06302">
        <ele>50.622</ele>
        <time>2020-07-19T11:53:28Z</time>
      </trkpt>
      <trkpt lat="47.36759" lon="-1.06292">
        <ele>51.421</ele>
        <time>2020-07-19T11:53:29Z</time>
      </trkpt>
      <trkpt lat="47.36757" lon="-1.06283">
        <ele>52.044</ele>
        <time>2020-07-19T11:53:30Z</time>
      </trkpt>
      <trkpt lat="47.36755" lon="-1.06273">
        <ele>51.909</ele>
        <time>2020-07-19T11:53:31Z</time>
      </trkpt>
      <trkpt lat="47.36753" lon="-1.06264">
        <ele>52.452</ele>
        <time>2020-07-19T11:53:32Z</time>
      </trkpt>
      <trkpt lat="47.36751" lon="-1.06256">
        <ele>52.587</ele>
        <time>2020-07-19T11:53:33Z</time>
      </trkpt>
      <trkpt lat="47.3675" lon="-1.06247">
        <ele>51.601</ele>
        <time>2020-07-19T11:53:34Z</time>
      </trkpt>
      <trkpt lat="47.36749" lon="-1.06239">
        <ele>51.515</ele>
        <time>2020-07-19T11:53:35Z</time>
      </trkpt>
      <trkpt lat="47.36749" lon="-1.06229">
        <ele>52.593</ele>
        <time>2020-07-19T11:53:36Z</time>
      </trkpt>
      <trkpt lat="47.36748" lon="-1.0622">
        <ele>52.745</ele>
        <time>2020-07-19T11:53:37Z</time>
      </trkpt>
      <trkpt lat="47.36747" lon="-1.06211">
        <ele>52.162</ele>
        <time>2020-07-19T11:53:38Z</time>
      </trkpt>
      <trkpt lat="47.36746" lon="-1.06203">
        <ele>51.197</ele>
        <time>2020-07-19T11:53:39Z</time>
      </trkpt>
      <trkpt lat="47.36745" lon="-1.06193">
        <ele>51.221</ele>
        <time>2020-07-19T11:53:40Z</time>
      </trkpt>
      <trkpt lat="47.36744" lon="-1.06184">
        <ele>51.794</ele>
        <time>2020-07-19T11:53:41Z</time>
      </trkpt>
      <trkpt lat="47.36743" lon="-1.06175">
        <ele>51.782</ele>
        <time>2020-07-19T11:53:42Z</time>
      </trkpt>
      <trkpt lat="47.36743" lon="-1.06165">
        <ele>51.39</ele>
        <time>2020-07-19T11:53:43Z</time>
      </trkpt>
      <trkpt lat="47.36742" lon="-1.06156">
        <ele>51.222</ele>
        <time>2020-07-19T11:53:44Z</time>
      </trkpt>
      <trkpt lat="47.3674" lon="-1.06146">
        <ele>50.777</ele>
        <time>2020-07-19T11:53:45Z</time>
      </trkpt>
      <trkpt lat="47.36739" lon="-1.06137">
        <ele>50.893</ele>
        <time>2020-07-19T11:53:46Z</time>
      </trkpt>
      <trkpt lat="47.36739" lon="-1.06129">
        <ele>50.825</ele>
        <time>2020-07-19T11:53:47Z</time>
      </trkpt>
      <trkpt lat="47.36739" lon="-1.06119">
        <ele>51.038</ele>
        <time>2020-07-19T11:53:48Z</time>
      </trkpt>
      <trkpt lat="47.36737" lon="-1.0611">
        <ele>51.409</ele>
        <time>2020-07-19T11:53:49Z</time>
      </trkpt>
      <trkpt lat="47.36735" lon="-1.06103">
        <ele>52.188</ele>
        <time>2020-07-19T11:53:50Z</time>
      </trkpt>
      <trkpt lat="47.36732" lon="-1.06095">
        <ele>53.636</ele>
        <time>2020-07-19T11:53:51Z</time>
      </trkpt>
      <trkpt lat="47.36729" lon="-1.06088">
        <ele>53.179</ele>
        <time>2020-07-19T11:53:52Z</time>
      </trkpt>
      <trkpt lat="47.36728" lon="-1.06081">
        <ele>50.97</ele>
        <time>2020-07-19T11:53:53Z</time>
      </trkpt>
      <trkpt lat="47.36728" lon="-1.06072">
        <ele>50.907</ele>
        <time>2020-07-19T11:53:54Z</time>
      </trkpt>
      <trkpt lat="47.36728" lon="-1.06064">
        <ele>50.351</ele>
        <time>2020-07-19T11:53:55Z</time>
      </trkpt>
      <trkpt lat="47.36728" lon="-1.06055">
        <ele>50.65</ele>
        <time>2020-07-19T11:53:56Z</time>
      </trkpt>
      <trkpt lat="47.36727" lon="-1.06048">
        <ele>48.195</ele>
        <time>2020-07-19T11:53:57Z</time>
      </trkpt>
      <trkpt lat="47.36728" lon="-1.0604">
        <ele>47.745</ele>
        <time>2020-07-19T11:53:58Z</time>
      </trkpt>
      <trkpt lat="47.36729" lon="-1.0603">
        <ele>46.129</ele>
        <time>2020-07-19T11:53:59Z</time>
      </trkpt>
      <trkpt lat="47.36728" lon="-1.06021">
        <ele>47.862</ele>
        <time>2020-07-19T11:54:00Z</time>
      </trkpt>
      <trkpt lat="47.36727" lon="-1.06013">
        <ele>46.929</ele>
        <time>2020-07-19T11:54:01Z</time>
      </trkpt>
      <trkpt lat="47.36726" lon="-1.06005">
        <ele>47.738</ele>
        <time>2020-07-19T11:54:02Z</time>
      </trkpt>
      <trkpt lat="47.36725" lon="-1.05996">
        <ele>47.275</ele>
        <time>2020-07-19T11:54:03Z</time>
      </trkpt>
      <trkpt lat="47.36724" lon="-1.05989">
        <ele>46.151</ele>
        <time>2020-07-19T11:54:04Z</time>
      </trkpt>
      <trkpt lat="47.36723" lon="-1.05981">
        <ele>46.489</ele>
        <time>2020-07-19T11:54:05Z</time>
      </trkpt>
      <trkpt lat="47.36723" lon="-1.0597">
        <ele>46.983</ele>
        <time>2020-07-19T11:54:06Z</time>
      </trkpt>
      <trkpt lat="47.36725" lon="-1.05961">
        <ele>44.499</ele>
        <time>2020-07-19T11:54:07Z</time>
      </trkpt>
      <trkpt lat="47.36723" lon="-1.05953">
        <ele>44.685</ele>
        <time>2020-07-19T11:54:08Z</time>
      </trkpt>
      <trkpt lat="47.36723" lon="-1.05946">
        <ele>41.817</ele>
        <time>2020-07-19T11:54:09Z</time>
      </trkpt>
      <trkpt lat="47.36722" lon="-1.05937">
        <ele>39.623</ele>
        <time>2020-07-19T11:54:10Z</time>
      </trkpt>
      <trkpt lat="47.36721" lon="-1.05928">
        <ele>39.99</ele>
        <time>2020-07-19T11:54:11Z</time>
      </trkpt>
      <trkpt lat="47.36722" lon="-1.05917">
        <ele>40.972</ele>
        <time>2020-07-19T11:54:12Z</time>
      </trkpt>
      <trkpt lat="47.36721" lon="-1.05909">
        <ele>40.945</ele>
        <time>2020-07-19T11:54:13Z</time>
      </trkpt>
      <trkpt lat="47.3672" lon="-1.05901">
        <ele>39.795</ele>
        <time>2020-07-19T11:54:14Z</time>
      </trkpt>
      <trkpt lat="47.36718" lon="-1.05892">
        <ele>38.507</ele>
        <time>2020-07-19T11:54:15Z</time>
      </trkpt>
      <trkpt lat="47.36718" lon="-1.05883">
        <ele>37.733</ele>
        <time>2020-07-19T11:54:16Z</time>
      </trkpt>
      <trkpt lat="47.36716" lon="-1.05874">
        <ele>37.567</ele>
        <time>2020-07-19T11:54:17Z</time>
      </trkpt>
      <trkpt lat="47.36714" lon="-1.05864">
        <ele>37.986</ele>
        <time>2020-07-19T11:54:18Z</time>
      </trkpt>
      <trkpt lat="47.36711" lon="-1.05855">
        <ele>38.289</ele>
        <time>2020-07-19T11:54:19Z</time>
      </trkpt>
      <trkpt lat="47.36707" lon="-1.05847">
        <ele>39.648</ele>
        <time>2020-07-19T11:54:20Z</time>
      </trkpt>
      <trkpt lat="47.36705" lon="-1.05839">
        <ele>38.916</ele>
        <time>2020-07-19T11:54:21Z</time>
      </trkpt>
      <trkpt lat="47.36701" lon="-1.05831">
        <ele>39.011</ele>
        <time>2020-07-19T11:54:22Z</time>
      </trkpt>
      <trkpt lat="47.36698" lon="-1.05823">
        <ele>40.129</ele>
        <time>2020-07-19T11:54:23Z</time>
      </trkpt>
      <trkpt lat="47.36695" lon="-1.05815">
        <ele>40.422</ele>
        <time>2020-07-19T11:54:24Z</time>
      </trkpt>
      <trkpt lat="47.36692" lon="-1.05806">
        <ele>41.253</ele>
        <time>2020-07-19T11:54:25Z</time>
      </trkpt>
      <trkpt lat="47.36689" lon="-1.05798">
        <ele>41.783</ele>
        <time>2020-07-19T11:54:26Z</time>
      </trkpt>
      <trkpt lat="47.36685" lon="-1.0579">
        <ele>41.98</ele>
        <time>2020-07-19T11:54:27Z</time>
      </trkpt>
      <trkpt lat="47.36682" lon="-1.05782">
        <ele>42.688</ele>
        <time>2020-07-19T11:54:28Z</time>
      </trkpt>
      <trkpt lat="47.36679" lon="-1.05773">
        <ele>42.927</ele>
        <time>2020-07-19T11:54:29Z</time>
      </trkpt>
      <trkpt lat="47.36678" lon="-1.05764">
        <ele>43.265</ele>
        <time>2020-07-19T11:54:30Z</time>
      </trkpt>
      <trkpt lat="47.36677" lon="-1.05754">
        <ele>43.353</ele>
        <time>2020-07-19T11:54:31Z</time>
      </trkpt>
      <trkpt lat="47.36676" lon="-1.05746">
        <ele>42.785</ele>
        <time>2020-07-19T11:54:32Z</time>
      </trkpt>
      <trkpt lat="47.36675" lon="-1.05738">
        <ele>41.913</ele>
        <time>2020-07-19T11:54:33Z</time>
      </trkpt>
      <trkpt lat="47.36673" lon="-1.05728">
        <ele>41.262</ele>
        <time>2020-07-19T11:54:34Z</time>
      </trkpt>
      <trkpt lat="47.36672" lon="-1.0572">
        <ele>41.393</ele>
        <time>2020-07-19T11:54:35Z</time>
      </trkpt>
      <trkpt lat="47.36671" lon="-1.05712">
        <ele>42.647</ele>
        <time>2020-07-19T11:54:36Z</time>
      </trkpt>
      <trkpt lat="47.36672" lon="-1.05706">
        <ele>44.219</ele>
        <time>2020-07-19T11:54:37Z</time>
      </trkpt>
      <trkpt lat="47.36673" lon="-1.05699">
        <ele>44.986</ele>
        <time>2020-07-19T11:54:38Z</time>
      </trkpt>
      <trkpt lat="47.36669" lon="-1.05693">
        <ele>45.11</ele>
        <time>2020-07-19T11:54:39Z</time>
      </trkpt>
      <trkpt lat="47.36666" lon="-1.05688">
        <ele>47.075</ele>
        <time>2020-07-19T11:54:40Z</time>
      </trkpt>
      <trkpt lat="47.36664" lon="-1.0568">
        <ele>47.246</ele>
        <time>2020-07-19T11:54:41Z</time>
      </trkpt>
      <trkpt lat="47.36662" lon="-1.05673">
        <ele>47.877</ele>
        <time>2020-07-19T11:54:42Z</time>
      </trkpt>
      <trkpt lat="47.3666" lon="-1.05668">
        <ele>50.564</ele>
        <time>2020-07-19T11:54:43Z</time>
      </trkpt>
      <trkpt lat="47.36657" lon="-1.05661">
        <ele>51.257</ele>
        <time>2020-07-19T11:54:44Z</time>
      </trkpt>
      <trkpt lat="47.36654" lon="-1.05653">
        <ele>50.839</ele>
        <time>2020-07-19T11:54:45Z</time>
      </trkpt>
      <trkpt lat="47.36652" lon="-1.05646">
        <ele>50.066</ele>
        <time>2020-07-19T11:54:46Z</time>
      </trkpt>
      <trkpt lat="47.36651" lon="-1.05639">
        <ele>51.147</ele>
        <time>2020-07-19T11:54:47Z</time>
      </trkpt>
      <trkpt lat="47.3665" lon="-1.0563">
        <ele>52.766</ele>
        <time>2020-07-19T11:54:48Z</time>
      </trkpt>
      <trkpt lat="47.36646" lon="-1.05624">
        <ele>52.948</ele>
        <time>2020-07-19T11:54:49Z</time>
      </trkpt>
      <trkpt lat="47.36645" lon="-1.05616">
        <ele>54.138</ele>
        <time>2020-07-19T11:54:50Z</time>
      </trkpt>
      <trkpt lat="47.36643" lon="-1.05608">
        <ele>55.761</ele>
        <time>2020-07-19T11:54:51Z</time>
      </trkpt>
      <trkpt lat="47.3664" lon="-1.05601">
        <ele>56.382</ele>
        <time>2020-07-19T11:54:52Z</time>
      </trkpt>
      <trkpt lat="47.36637" lon="-1.05592">
        <ele>56.163</ele>
        <time>2020-07-19T11:54:53Z</time>
      </trkpt>
      <trkpt lat="47.36635" lon="-1.05582">
        <ele>56.52</ele>
        <time>2020-07-19T11:54:54Z</time>
      </trkpt>
      <trkpt lat="47.36633" lon="-1.05574">
        <ele>56.073</ele>
        <time>2020-07-19T11:54:55Z</time>
      </trkpt>
      <trkpt lat="47.36631" lon="-1.05565">
        <ele>56.537</ele>
        <time>2020-07-19T11:54:56Z</time>
      </trkpt>
      <trkpt lat="47.36629" lon="-1.05555">
        <ele>57.582</ele>
        <time>2020-07-19T11:54:57Z</time>
      </trkpt>
      <trkpt lat="47.36627" lon="-1.0555">
        <ele>55.303</ele>
        <time>2020-07-19T11:54:58Z</time>
      </trkpt>
      <trkpt lat="47.36627" lon="-1.05541">
        <ele>54.369</ele>
        <time>2020-07-19T11:54:59Z</time>
      </trkpt>
      <trkpt lat="47.36626" lon="-1.05532">
        <ele>54.827</ele>
        <time>2020-07-19T11:55:00Z</time>
      </trkpt>
      <trkpt lat="47.36623" lon="-1.05527">
        <ele>54.883</ele>
        <time>2020-07-19T11:55:01Z</time>
      </trkpt>
      <trkpt lat="47.36618" lon="-1.05524">
        <ele>56.137</ele>
        <time>2020-07-19T11:55:02Z</time>
      </trkpt>
      <trkpt lat="47.36613" lon="-1.05521">
        <ele>56.402</ele>
        <time>2020-07-19T11:55:03Z</time>
      </trkpt>
      <trkpt lat="47.3661" lon="-1.05517">
        <ele>55.3</ele>
        <time>2020-07-19T11:55:04Z</time>
      </trkpt>
      <trkpt lat="47.36607" lon="-1.05512">
        <ele>55.147</ele>
        <time>2020-07-19T11:55:05Z</time>
      </trkpt>
      <trkpt lat="47.36603" lon="-1.05505">
        <ele>55.341</ele>
        <time>2020-07-19T11:55:06Z</time>
      </trkpt>
      <trkpt lat="47.366" lon="-1.055">
        <ele>53.735</ele>
        <time>2020-07-19T11:55:07Z</time>
      </trkpt>
      <trkpt lat="47.36599" lon="-1.05496">
        <ele>53.278</ele>
        <time>2020-07-19T11:55:08Z</time>
      </trkpt>
      <trkpt lat="47.36597" lon="-1.05489">
        <ele>52.731</ele>
        <time>2020-07-19T11:55:09Z</time>
      </trkpt>
      <trkpt lat="47.36595" lon="-1.05482">
        <ele>53.045</ele>
        <time>2020-07-19T11:55:10Z</time>
      </trkpt>
      <trkpt lat="47.36592" lon="-1.05476">
        <ele>53.713</ele>
        <time>2020-07-19T11:55:11Z</time>
      </trkpt>
      <trkpt lat="47.36589" lon="-1.05469">
        <ele>53.945</ele>
        <time>2020-07-19T11:55:12Z</time>
      </trkpt>
      <trkpt lat="47.36586" lon="-1.05463">
        <ele>53.603</ele>
        <time>2020-07-19T11:55:13Z</time>
      </trkpt>
      <trkpt lat="47.36582" lon="-1.05458">
        <ele>53.835</ele>
        <time>2020-07-19T11:55:14Z</time>
      </trkpt>
      <trkpt lat="47.3658" lon="-1.05452">
        <ele>55.401</ele>
        <time>2020-07-19T11:55:15Z</time>
      </trkpt>
      <trkpt lat="47.36578" lon="-1.05447">
        <ele>55.549</ele>
        <time>2020-07-19T11:55:16Z</time>
      </trkpt>
      <trkpt lat="47.36577" lon="-1.05441">
        <ele>55.984</ele>
        <time>2020-07-19T11:55:17Z</time>
      </trkpt>
      <trkpt lat="47.36575" lon="-1.05434">
        <ele>55.668</ele>
        <time>2020-07-19T11:55:18Z</time>
      </trkpt>
      <trkpt lat="47.36573" lon="-1.05427">
        <ele>53.831</ele>
        <time>2020-07-19T11:55:19Z</time>
      </trkpt>
      <trkpt lat="47.36572" lon="-1.05418">
        <ele>53.886</ele>
        <time>2020-07-19T11:55:20Z</time>
      </trkpt>
      <trkpt lat="47.36568" lon="-1.0541">
        <ele>52.655</ele>
        <time>2020-07-19T11:55:21Z</time>
      </trkpt>
      <trkpt lat="47.36565" lon="-1.05403">
        <ele>52.846</ele>
        <time>2020-07-19T11:55:22Z</time>
      </trkpt>
      <trkpt lat="47.36562" lon="-1.05396">
        <ele>53.602</ele>
        <time>2020-07-19T11:55:23Z</time>
      </trkpt>
      <trkpt lat="47.36559" lon="-1.0539">
        <ele>53.505</ele>
        <time>2020-07-19T11:55:24Z</time>
      </trkpt>
      <trkpt lat="47.36557" lon="-1.05383">
        <ele>53.121</ele>
        <time>2020-07-19T11:55:25Z</time>
      </trkpt>
      <trkpt lat="47.36555" lon="-1.05376">
        <ele>52.14</ele>
        <time>2020-07-19T11:55:26Z</time>
      </trkpt>
      <trkpt lat="47.36552" lon="-1.05371">
        <ele>51.589</ele>
        <time>2020-07-19T11:55:27Z</time>
      </trkpt>
      <trkpt lat="47.36549" lon="-1.05366">
        <ele>51.175</ele>
        <time>2020-07-19T11:55:28Z</time>
      </trkpt>
      <trkpt lat="47.36547" lon="-1.05361">
        <ele>51.237</ele>
        <time>2020-07-19T11:55:29Z</time>
      </trkpt>
      <trkpt lat="47.36546" lon="-1.05355">
        <ele>52.648</ele>
        <time>2020-07-19T11:55:30Z</time>
      </trkpt>
      <trkpt lat="47.36543" lon="-1.05351">
        <ele>52.235</ele>
        <time>2020-07-19T11:55:31Z</time>
      </trkpt>
      <trkpt lat="47.36541" lon="-1.05345">
        <ele>52.004</ele>
        <time>2020-07-19T11:55:32Z</time>
      </trkpt>
      <trkpt lat="47.36539" lon="-1.05337">
        <ele>51.534</ele>
        <time>2020-07-19T11:55:33Z</time>
      </trkpt>
      <trkpt lat="47.36538" lon="-1.05331">
        <ele>51.416</ele>
        <time>2020-07-19T11:55:34Z</time>
      </trkpt>
      <trkpt lat="47.36537" lon="-1.05324">
        <ele>51.949</ele>
        <time>2020-07-19T11:55:35Z</time>
      </trkpt>
      <trkpt lat="47.36535" lon="-1.0532">
        <ele>52.278</ele>
        <time>2020-07-19T11:55:36Z</time>
      </trkpt>
      <trkpt lat="47.36535" lon="-1.05319">
        <ele>52.345</ele>
        <time>2020-07-19T11:55:37Z</time>
      </trkpt>
      <trkpt lat="47.36534" lon="-1.05318">
        <ele>52.364</ele>
        <time>2020-07-19T11:55:38Z</time>
      </trkpt>
      <trkpt lat="47.36535" lon="-1.05317">
        <ele>52.238</ele>
        <time>2020-07-19T11:55:39Z</time>
      </trkpt>
      <trkpt lat="47.36534" lon="-1.05318">
        <ele>52.194</ele>
        <time>2020-07-19T11:55:40Z</time>
      </trkpt>
      <trkpt lat="47.36534" lon="-1.05316">
        <ele>51.484</ele>
        <time>2020-07-19T11:55:41Z</time>
      </trkpt>
      <trkpt lat="47.36533" lon="-1.05313">
        <ele>51.741</ele>
        <time>2020-07-19T11:55:42Z</time>
      </trkpt>
      <trkpt lat="47.3653" lon="-1.0531">
        <ele>50.696</ele>
        <time>2020-07-19T11:55:43Z</time>
      </trkpt>
      <trkpt lat="47.36526" lon="-1.05308">
        <ele>48.861</ele>
        <time>2020-07-19T11:55:44Z</time>
      </trkpt>
      <trkpt lat="47.36524" lon="-1.05303">
        <ele>48.744</ele>
        <time>2020-07-19T11:55:45Z</time>
      </trkpt>
      <trkpt lat="47.36524" lon="-1.053">
        <ele>47.832</ele>
        <time>2020-07-19T11:55:46Z</time>
      </trkpt>
      <trkpt lat="47.36522" lon="-1.05294">
        <ele>47.138</ele>
        <time>2020-07-19T11:55:47Z</time>
      </trkpt>
      <trkpt lat="47.3652" lon="-1.05289">
        <ele>46.221</ele>
        <time>2020-07-19T11:55:48Z</time>
      </trkpt>
      <trkpt lat="47.36519" lon="-1.05283">
        <ele>46.449</ele>
        <time>2020-07-19T11:55:49Z</time>
      </trkpt>
      <trkpt lat="47.36518" lon="-1.05277">
        <ele>45.631</ele>
        <time>2020-07-19T11:55:50Z</time>
      </trkpt>
      <trkpt lat="47.36517" lon="-1.05271">
        <ele>47.068</ele>
        <time>2020-07-19T11:55:51Z</time>
      </trkpt>
      <trkpt lat="47.36516" lon="-1.05266">
        <ele>46.719</ele>
        <time>2020-07-19T11:55:52Z</time>
      </trkpt>
      <trkpt lat="47.36517" lon="-1.0526">
        <ele>45.889</ele>
        <time>2020-07-19T11:55:53Z</time>
      </trkpt>
      <trkpt lat="47.36518" lon="-1.05254">
        <ele>45.735</ele>
        <time>2020-07-19T11:55:54Z</time>
      </trkpt>
      <trkpt lat="47.36519" lon="-1.05247">
        <ele>46.408</ele>
        <time>2020-07-19T11:55:55Z</time>
      </trkpt>
      <trkpt lat="47.36521" lon="-1.05241">
        <ele>47.042</ele>
        <time>2020-07-19T11:55:56Z</time>
      </trkpt>
      <trkpt lat="47.36525" lon="-1.05234">
        <ele>46.181</ele>
        <time>2020-07-19T11:55:57Z</time>
      </trkpt>
      <trkpt lat="47.36526" lon="-1.05227">
        <ele>46.205</ele>
        <time>2020-07-19T11:55:58Z</time>
      </trkpt>
      <trkpt lat="47.36527" lon="-1.0522">
        <ele>46.075</ele>
        <time>2020-07-19T11:55:59Z</time>
      </trkpt>
      <trkpt lat="47.36525" lon="-1.05214">
        <ele>45.633</ele>
        <time>2020-07-19T11:56:00Z</time>
      </trkpt>
      <trkpt lat="47.36523" lon="-1.05208">
        <ele>43.944</ele>
        <time>2020-07-19T11:56:01Z</time>
      </trkpt>
      <trkpt lat="47.36521" lon="-1.05203">
        <ele>43.809</ele>
        <time>2020-07-19T11:56:02Z</time>
      </trkpt>
      <trkpt lat="47.3652" lon="-1.05197">
        <ele>43.878</ele>
        <time>2020-07-19T11:56:03Z</time>
      </trkpt>
      <trkpt lat="47.3652" lon="-1.05193">
        <ele>45.521</ele>
        <time>2020-07-19T11:56:04Z</time>
      </trkpt>
      <trkpt lat="47.3652" lon="-1.05186">
        <ele>45.925</ele>
        <time>2020-07-19T11:56:05Z</time>
      </trkpt>
      <trkpt lat="47.36518" lon="-1.0518">
        <ele>45.89</ele>
        <time>2020-07-19T11:56:06Z</time>
      </trkpt>
      <trkpt lat="47.36515" lon="-1.05173">
        <ele>43.671</ele>
        <time>2020-07-19T11:56:07Z</time>
      </trkpt>
      <trkpt lat="47.36513" lon="-1.05165">
        <ele>44.045</ele>
        <time>2020-07-19T11:56:08Z</time>
      </trkpt>
      <trkpt lat="47.36513" lon="-1.05157">
        <ele>45.289</ele>
        <time>2020-07-19T11:56:09Z</time>
      </trkpt>
      <trkpt lat="47.36511" lon="-1.05155">
        <ele>44.661</ele>
        <time>2020-07-19T11:56:10Z</time>
      </trkpt>
      <trkpt lat="47.36511" lon="-1.05149">
        <ele>43.385</ele>
        <time>2020-07-19T11:56:11Z</time>
      </trkpt>
      <trkpt lat="47.3651" lon="-1.05144">
        <ele>43.141</ele>
        <time>2020-07-19T11:56:12Z</time>
      </trkpt>
      <trkpt lat="47.36507" lon="-1.05135">
        <ele>42.84</ele>
        <time>2020-07-19T11:56:13Z</time>
      </trkpt>
      <trkpt lat="47.36507" lon="-1.05128">
        <ele>42.5</ele>
        <time>2020-07-19T11:56:14Z</time>
      </trkpt>
      <trkpt lat="47.36505" lon="-1.0512">
        <ele>43.081</ele>
        <time>2020-07-19T11:56:15Z</time>
      </trkpt>
      <trkpt lat="47.36505" lon="-1.05112">
        <ele>42.828</ele>
        <time>2020-07-19T11:56:16Z</time>
      </trkpt>
      <trkpt lat="47.36503" lon="-1.05104">
        <ele>43.453</ele>
        <time>2020-07-19T11:56:17Z</time>
      </trkpt>
      <trkpt lat="47.36501" lon="-1.05096">
        <ele>44.874</ele>
        <time>2020-07-19T11:56:18Z</time>
      </trkpt>
      <trkpt lat="47.365" lon="-1.05087">
        <ele>45.376</ele>
        <time>2020-07-19T11:56:19Z</time>
      </trkpt>
      <trkpt lat="47.36499" lon="-1.05077">
        <ele>46.341</ele>
        <time>2020-07-19T11:56:20Z</time>
      </trkpt>
      <trkpt lat="47.36497" lon="-1.0507">
        <ele>46.937</ele>
        <time>2020-07-19T11:56:21Z</time>
      </trkpt>
      <trkpt lat="47.36496" lon="-1.05061">
        <ele>47.321</ele>
        <time>2020-07-19T11:56:22Z</time>
      </trkpt>
      <trkpt lat="47.36496" lon="-1.05053">
        <ele>46.698</ele>
        <time>2020-07-19T11:56:23Z</time>
      </trkpt>
      <trkpt lat="47.36493" lon="-1.05047">
        <ele>46.868</ele>
        <time>2020-07-19T11:56:24Z</time>
      </trkpt>
      <trkpt lat="47.3649" lon="-1.05042">
        <ele>46.846</ele>
        <time>2020-07-19T11:56:25Z</time>
      </trkpt>
      <trkpt lat="47.36489" lon="-1.05035">
        <ele>47.422</ele>
        <time>2020-07-19T11:56:26Z</time>
      </trkpt>
      <trkpt lat="47.36487" lon="-1.05028">
        <ele>47.55</ele>
        <time>2020-07-19T11:56:27Z</time>
      </trkpt>
      <trkpt lat="47.36485" lon="-1.05021">
        <ele>48.214</ele>
        <time>2020-07-19T11:56:28Z</time>
      </trkpt>
      <trkpt lat="47.36482" lon="-1.05015">
        <ele>48.936</ele>
        <time>2020-07-19T11:56:29Z</time>
      </trkpt>
      <trkpt lat="47.36479" lon="-1.05007">
        <ele>50.056</ele>
        <time>2020-07-19T11:56:30Z</time>
      </trkpt>
      <trkpt lat="47.36477" lon="-1.05">
        <ele>49.032</ele>
        <time>2020-07-19T11:56:31Z</time>
      </trkpt>
      <trkpt lat="47.36475" lon="-1.04992">
        <ele>49.101</ele>
        <time>2020-07-19T11:56:32Z</time>
      </trkpt>
      <trkpt lat="47.36474" lon="-1.04985">
        <ele>48.067</ele>
        <time>2020-07-19T11:56:33Z</time>
      </trkpt>
      <trkpt lat="47.36471" lon="-1.04977">
        <ele>48.109</ele>
        <time>2020-07-19T11:56:34Z</time>
      </trkpt>
      <trkpt lat="47.36469" lon="-1.04971">
        <ele>48.716</ele>
        <time>2020-07-19T11:56:35Z</time>
      </trkpt>
      <trkpt lat="47.36468" lon="-1.04965">
        <ele>47.988</ele>
        <time>2020-07-19T11:56:36Z</time>
      </trkpt>
      <trkpt lat="47.36467" lon="-1.04959">
        <ele>47.024</ele>
        <time>2020-07-19T11:56:37Z</time>
      </trkpt>
      <trkpt lat="47.36463" lon="-1.04953">
        <ele>44.715</ele>
        <time>2020-07-19T11:56:38Z</time>
      </trkpt>
      <trkpt lat="47.36458" lon="-1.04945">
        <ele>44.553</ele>
        <time>2020-07-19T11:56:39Z</time>
      </trkpt>
      <trkpt lat="47.36456" lon="-1.04939">
        <ele>45.599</ele>
        <time>2020-07-19T11:56:40Z</time>
      </trkpt>
      <trkpt lat="47.36455" lon="-1.0493">
        <ele>45.804</ele>
        <time>2020-07-19T11:56:41Z</time>
      </trkpt>
      <trkpt lat="47.36452" lon="-1.04923">
        <ele>45.62</ele>
        <time>2020-07-19T11:56:42Z</time>
      </trkpt>
      <trkpt lat="47.36449" lon="-1.04915">
        <ele>45.848</ele>
        <time>2020-07-19T11:56:43Z</time>
      </trkpt>
      <trkpt lat="47.36446" lon="-1.04907">
        <ele>45.572</ele>
        <time>2020-07-19T11:56:44Z</time>
      </trkpt>
      <trkpt lat="47.36444" lon="-1.04901">
        <ele>46.868</ele>
        <time>2020-07-19T11:56:45Z</time>
      </trkpt>
      <trkpt lat="47.36441" lon="-1.04894">
        <ele>48.496</ele>
        <time>2020-07-19T11:56:46Z</time>
      </trkpt>
      <trkpt lat="47.3644" lon="-1.0489">
        <ele>49.296</ele>
        <time>2020-07-19T11:56:47Z</time>
      </trkpt>
      <trkpt lat="47.36437" lon="-1.04884">
        <ele>49.474</ele>
        <time>2020-07-19T11:56:48Z</time>
      </trkpt>
      <trkpt lat="47.36434" lon="-1.04881">
        <ele>51.273</ele>
        <time>2020-07-19T11:56:49Z</time>
      </trkpt>
      <trkpt lat="47.36432" lon="-1.04875">
        <ele>51.221</ele>
        <time>2020-07-19T11:56:50Z</time>
      </trkpt>
      <trkpt lat="47.36432" lon="-1.0487">
        <ele>52.843</ele>
        <time>2020-07-19T11:56:51Z</time>
      </trkpt>
      <trkpt lat="47.36427" lon="-1.04865">
        <ele>51.553</ele>
        <time>2020-07-19T11:56:52Z</time>
      </trkpt>
      <trkpt lat="47.36425" lon="-1.0486">
        <ele>51.942</ele>
        <time>2020-07-19T11:56:53Z</time>
      </trkpt>
      <trkpt lat="47.36424" lon="-1.04856">
        <ele>52.707</ele>
        <time>2020-07-19T11:56:54Z</time>
      </trkpt>
      <trkpt lat="47.36424" lon="-1.0485">
        <ele>52.64</ele>
        <time>2020-07-19T11:56:55Z</time>
      </trkpt>
      <trkpt lat="47.36425" lon="-1.04844">
        <ele>52.175</ele>
        <time>2020-07-19T11:56:56Z</time>
      </trkpt>
      <trkpt lat="47.36426" lon="-1.04834">
        <ele>52.801</ele>
        <time>2020-07-19T11:56:57Z</time>
      </trkpt>
      <trkpt lat="47.36425" lon="-1.04825">
        <ele>53.01</ele>
        <time>2020-07-19T11:56:58Z</time>
      </trkpt>
      <trkpt lat="47.36424" lon="-1.04817">
        <ele>51.646</ele>
        <time>2020-07-19T11:56:59Z</time>
      </trkpt>
      <trkpt lat="47.36423" lon="-1.04809">
        <ele>52.664</ele>
        <time>2020-07-19T11:57:00Z</time>
      </trkpt>
      <trkpt lat="47.36421" lon="-1.04799">
        <ele>52.678</ele>
        <time>2020-07-19T11:57:01Z</time>
      </trkpt>
      <trkpt lat="47.36421" lon="-1.04792">
        <ele>50.487</ele>
        <time>2020-07-19T11:57:02Z</time>
      </trkpt>
      <trkpt lat="47.36419" lon="-1.04783">
        <ele>49.596</ele>
        <time>2020-07-19T11:57:03Z</time>
      </trkpt>
      <trkpt lat="47.36418" lon="-1.04774">
        <ele>49.169</ele>
        <time>2020-07-19T11:57:04Z</time>
      </trkpt>
      <trkpt lat="47.36417" lon="-1.04765">
        <ele>49.385</ele>
        <time>2020-07-19T11:57:05Z</time>
      </trkpt>
      <trkpt lat="47.36415" lon="-1.04756">
        <ele>50.207</ele>
        <time>2020-07-19T11:57:06Z</time>
      </trkpt>
      <trkpt lat="47.36413" lon="-1.04748">
        <ele>49.442</ele>
        <time>2020-07-19T11:57:07Z</time>
      </trkpt>
      <trkpt lat="47.36411" lon="-1.04738">
        <ele>49.776</ele>
        <time>2020-07-19T11:57:08Z</time>
      </trkpt>
      <trkpt lat="47.3641" lon="-1.0473">
        <ele>49.969</ele>
        <time>2020-07-19T11:57:09Z</time>
      </trkpt>
      <trkpt lat="47.36409" lon="-1.04722">
        <ele>50.086</ele>
        <time>2020-07-19T11:57:10Z</time>
      </trkpt>
      <trkpt lat="47.36406" lon="-1.04714">
        <ele>47.455</ele>
        <time>2020-07-19T11:57:11Z</time>
      </trkpt>
      <trkpt lat="47.36405" lon="-1.04705">
        <ele>48.148</ele>
        <time>2020-07-19T11:57:12Z</time>
      </trkpt>
      <trkpt lat="47.36405" lon="-1.04697">
        <ele>47.762</ele>
        <time>2020-07-19T11:57:13Z</time>
      </trkpt>
      <trkpt lat="47.36404" lon="-1.0469">
        <ele>50.372</ele>
        <time>2020-07-19T11:57:14Z</time>
      </trkpt>
      <trkpt lat="47.36402" lon="-1.04684">
        <ele>48.746</ele>
        <time>2020-07-19T11:57:15Z</time>
      </trkpt>
      <trkpt lat="47.36402" lon="-1.0468">
        <ele>47.622</ele>
        <time>2020-07-19T11:57:16Z</time>
      </trkpt>
      <trkpt lat="47.36399" lon="-1.04675">
        <ele>47.368</ele>
        <time>2020-07-19T11:57:17Z</time>
      </trkpt>
      <trkpt lat="47.36399" lon="-1.0467">
        <ele>48.06</ele>
        <time>2020-07-19T11:57:18Z</time>
      </trkpt>
      <trkpt lat="47.36396" lon="-1.04665">
        <ele>46.473</ele>
        <time>2020-07-19T11:57:19Z</time>
      </trkpt>
      <trkpt lat="47.36396" lon="-1.04659">
        <ele>46.763</ele>
        <time>2020-07-19T11:57:20Z</time>
      </trkpt>
      <trkpt lat="47.36396" lon="-1.04655">
        <ele>46.46</ele>
        <time>2020-07-19T11:57:21Z</time>
      </trkpt>
      <trkpt lat="47.36396" lon="-1.04648">
        <ele>46.196</ele>
        <time>2020-07-19T11:57:22Z</time>
      </trkpt>
      <trkpt lat="47.36394" lon="-1.0464">
        <ele>46.129</ele>
        <time>2020-07-19T11:57:23Z</time>
      </trkpt>
      <trkpt lat="47.36394" lon="-1.04628">
        <ele>46.098</ele>
        <time>2020-07-19T11:57:24Z</time>
      </trkpt>
      <trkpt lat="47.36394" lon="-1.0462">
        <ele>46.466</ele>
        <time>2020-07-19T11:57:25Z</time>
      </trkpt>
      <trkpt lat="47.36394" lon="-1.04615">
        <ele>45.074</ele>
        <time>2020-07-19T11:57:26Z</time>
      </trkpt>
      <trkpt lat="47.36391" lon="-1.04607">
        <ele>44.218</ele>
        <time>2020-07-19T11:57:27Z</time>
      </trkpt>
      <trkpt lat="47.3639" lon="-1.04601">
        <ele>43.94</ele>
        <time>2020-07-19T11:57:28Z</time>
      </trkpt>
      <trkpt lat="47.36387" lon="-1.04592">
        <ele>43.52</ele>
        <time>2020-07-19T11:57:29Z</time>
      </trkpt>
      <trkpt lat="47.36387" lon="-1.04583">
        <ele>43.806</ele>
        <time>2020-07-19T11:57:30Z</time>
      </trkpt>
      <trkpt lat="47.36385" lon="-1.04577">
        <ele>42.752</ele>
        <time>2020-07-19T11:57:31Z</time>
      </trkpt>
      <trkpt lat="47.36384" lon="-1.04572">
        <ele>44.461</ele>
        <time>2020-07-19T11:57:32Z</time>
      </trkpt>
      <trkpt lat="47.36382" lon="-1.04564">
        <ele>43.073</ele>
        <time>2020-07-19T11:57:33Z</time>
      </trkpt>
      <trkpt lat="47.36382" lon="-1.04557">
        <ele>42.186</ele>
        <time>2020-07-19T11:57:34Z</time>
      </trkpt>
      <trkpt lat="47.36381" lon="-1.04553">
        <ele>41.571</ele>
        <time>2020-07-19T11:57:35Z</time>
      </trkpt>
      <trkpt lat="47.36382" lon="-1.04546">
        <ele>42.714</ele>
        <time>2020-07-19T11:57:36Z</time>
      </trkpt>
      <trkpt lat="47.36379" lon="-1.04539">
        <ele>42.108</ele>
        <time>2020-07-19T11:57:37Z</time>
      </trkpt>
      <trkpt lat="47.36381" lon="-1.04533">
        <ele>41.346</ele>
        <time>2020-07-19T11:57:38Z</time>
      </trkpt>
      <trkpt lat="47.36382" lon="-1.04526">
        <ele>40.111</ele>
        <time>2020-07-19T11:57:39Z</time>
      </trkpt>
      <trkpt lat="47.36382" lon="-1.04517">
        <ele>41.258</ele>
        <time>2020-07-19T11:57:40Z</time>
      </trkpt>
      <trkpt lat="47.36383" lon="-1.04509">
        <ele>40.922</ele>
        <time>2020-07-19T11:57:41Z</time>
      </trkpt>
      <trkpt lat="47.36383" lon="-1.04502">
        <ele>39.61</ele>
        <time>2020-07-19T11:57:42Z</time>
      </trkpt>
      <trkpt lat="47.36381" lon="-1.04494">
        <ele>38.046</ele>
        <time>2020-07-19T11:57:43Z</time>
      </trkpt>
      <trkpt lat="47.3638" lon="-1.04486">
        <ele>38.916</ele>
        <time>2020-07-19T11:57:44Z</time>
      </trkpt>
      <trkpt lat="47.3638" lon="-1.04477">
        <ele>39.437</ele>
        <time>2020-07-19T11:57:45Z</time>
      </trkpt>
      <trkpt lat="47.36378" lon="-1.0447">
        <ele>38.018</ele>
        <time>2020-07-19T11:57:46Z</time>
      </trkpt>
      <trkpt lat="47.36376" lon="-1.04464">
        <ele>37.013</ele>
        <time>2020-07-19T11:57:47Z</time>
      </trkpt>
      <trkpt lat="47.36375" lon="-1.04456">
        <ele>36.397</ele>
        <time>2020-07-19T11:57:48Z</time>
      </trkpt>
      <trkpt lat="47.36374" lon="-1.04447">
        <ele>36.2</ele>
        <time>2020-07-19T11:57:49Z</time>
      </trkpt>
      <trkpt lat="47.36372" lon="-1.0444">
        <ele>37.359</ele>
        <time>2020-07-19T11:57:50Z</time>
      </trkpt>
      <trkpt lat="47.36371" lon="-1.04433">
        <ele>38.063</ele>
        <time>2020-07-19T11:57:51Z</time>
      </trkpt>
      <trkpt lat="47.3637" lon="-1.04427">
        <ele>39.009</ele>
        <time>2020-07-19T11:57:52Z</time>
      </trkpt>
      <trkpt lat="47.3637" lon="-1.0442">
        <ele>40.56</ele>
        <time>2020-07-19T11:57:53Z</time>
      </trkpt>
      <trkpt lat="47.36369" lon="-1.04414">
        <ele>40.374</ele>
        <time>2020-07-19T11:57:54Z</time>
      </trkpt>
      <trkpt lat="47.36371" lon="-1.04409">
        <ele>40.649</ele>
        <time>2020-07-19T11:57:55Z</time>
      </trkpt>
      <trkpt lat="47.36369" lon="-1.04404">
        <ele>39.298</ele>
        <time>2020-07-19T11:57:56Z</time>
      </trkpt>
      <trkpt lat="47.36369" lon="-1.04399">
        <ele>39.285</ele>
        <time>2020-07-19T11:57:57Z</time>
      </trkpt>
      <trkpt lat="47.36368" lon="-1.04391">
        <ele>40.402</ele>
        <time>2020-07-19T11:57:58Z</time>
      </trkpt>
      <trkpt lat="47.36368" lon="-1.04382">
        <ele>39.934</ele>
        <time>2020-07-19T11:57:59Z</time>
      </trkpt>
      <trkpt lat="47.36366" lon="-1.04375">
        <ele>38.544</ele>
        <time>2020-07-19T11:58:00Z</time>
      </trkpt>
      <trkpt lat="47.36365" lon="-1.04368">
        <ele>39.981</ele>
        <time>2020-07-19T11:58:01Z</time>
      </trkpt>
      <trkpt lat="47.36365" lon="-1.04363">
        <ele>41.145</ele>
        <time>2020-07-19T11:58:02Z</time>
      </trkpt>
      <trkpt lat="47.36363" lon="-1.04358">
        <ele>40.736</ele>
        <time>2020-07-19T11:58:03Z</time>
      </trkpt>
      <trkpt lat="47.36362" lon="-1.04354">
        <ele>41.536</ele>
        <time>2020-07-19T11:58:04Z</time>
      </trkpt>
      <trkpt lat="47.36362" lon="-1.0435">
        <ele>40.239</ele>
        <time>2020-07-19T11:58:05Z</time>
      </trkpt>
      <trkpt lat="47.36361" lon="-1.04344">
        <ele>41.21</ele>
        <time>2020-07-19T11:58:06Z</time>
      </trkpt>
      <trkpt lat="47.36361" lon="-1.04334">
        <ele>42.144</ele>
        <time>2020-07-19T11:58:07Z</time>
      </trkpt>
      <trkpt lat="47.36358" lon="-1.04328">
        <ele>40.793</ele>
        <time>2020-07-19T11:58:08Z</time>
      </trkpt>
      <trkpt lat="47.36359" lon="-1.0432">
        <ele>42.168</ele>
        <time>2020-07-19T11:58:09Z</time>
      </trkpt>
      <trkpt lat="47.36359" lon="-1.04312">
        <ele>42.204</ele>
        <time>2020-07-19T11:58:10Z</time>
      </trkpt>
      <trkpt lat="47.36359" lon="-1.04304">
        <ele>42.208</ele>
        <time>2020-07-19T11:58:11Z</time>
      </trkpt>
      <trkpt lat="47.36361" lon="-1.04294">
        <ele>39.393</ele>
        <time>2020-07-19T11:58:12Z</time>
      </trkpt>
      <trkpt lat="47.36362" lon="-1.04286">
        <ele>40.537</ele>
        <time>2020-07-19T11:58:13Z</time>
      </trkpt>
      <trkpt lat="47.36362" lon="-1.04277">
        <ele>41.289</ele>
        <time>2020-07-19T11:58:14Z</time>
      </trkpt>
      <trkpt lat="47.36364" lon="-1.04268">
        <ele>42.839</ele>
        <time>2020-07-19T11:58:15Z</time>
      </trkpt>
      <trkpt lat="47.36362" lon="-1.0426">
        <ele>42.538</ele>
        <time>2020-07-19T11:58:16Z</time>
      </trkpt>
      <trkpt lat="47.36362" lon="-1.04252">
        <ele>43.502</ele>
        <time>2020-07-19T11:58:17Z</time>
      </trkpt>
      <trkpt lat="47.36361" lon="-1.04242">
        <ele>41.62</ele>
        <time>2020-07-19T11:58:18Z</time>
      </trkpt>
      <trkpt lat="47.36359" lon="-1.04235">
        <ele>40.051</ele>
        <time>2020-07-19T11:58:19Z</time>
      </trkpt>
      <trkpt lat="47.36358" lon="-1.04226">
        <ele>38.872</ele>
        <time>2020-07-19T11:58:20Z</time>
      </trkpt>
      <trkpt lat="47.36356" lon="-1.04219">
        <ele>38.925</ele>
        <time>2020-07-19T11:58:21Z</time>
      </trkpt>
      <trkpt lat="47.36355" lon="-1.04211">
        <ele>39.176</ele>
        <time>2020-07-19T11:58:22Z</time>
      </trkpt>
      <trkpt lat="47.36352" lon="-1.04202">
        <ele>39.016</ele>
        <time>2020-07-19T11:58:23Z</time>
      </trkpt>
      <trkpt lat="47.3635" lon="-1.04193">
        <ele>39.044</ele>
        <time>2020-07-19T11:58:24Z</time>
      </trkpt>
      <trkpt lat="47.36348" lon="-1.04185">
        <ele>39.889</ele>
        <time>2020-07-19T11:58:25Z</time>
      </trkpt>
      <trkpt lat="47.36346" lon="-1.04176">
        <ele>40.86</ele>
        <time>2020-07-19T11:58:26Z</time>
      </trkpt>
      <trkpt lat="47.36344" lon="-1.04168">
        <ele>40.656</ele>
        <time>2020-07-19T11:58:27Z</time>
      </trkpt>
      <trkpt lat="47.36341" lon="-1.04161">
        <ele>41.524</ele>
        <time>2020-07-19T11:58:28Z</time>
      </trkpt>
      <trkpt lat="47.3634" lon="-1.04156">
        <ele>42.54</ele>
        <time>2020-07-19T11:58:29Z</time>
      </trkpt>
      <trkpt lat="47.3634" lon="-1.04151">
        <ele>40.695</ele>
        <time>2020-07-19T11:58:30Z</time>
      </trkpt>
      <trkpt lat="47.36339" lon="-1.04143">
        <ele>40.686</ele>
        <time>2020-07-19T11:58:31Z</time>
      </trkpt>
      <trkpt lat="47.36337" lon="-1.04134">
        <ele>42.143</ele>
        <time>2020-07-19T11:58:32Z</time>
      </trkpt>
      <trkpt lat="47.36336" lon="-1.04129">
        <ele>43.141</ele>
        <time>2020-07-19T11:58:33Z</time>
      </trkpt>
      <trkpt lat="47.36335" lon="-1.04122">
        <ele>44.349</ele>
        <time>2020-07-19T11:58:34Z</time>
      </trkpt>
      <trkpt lat="47.36334" lon="-1.04116">
        <ele>45.278</ele>
        <time>2020-07-19T11:58:35Z</time>
      </trkpt>
      <trkpt lat="47.36332" lon="-1.0411">
        <ele>43.061</ele>
        <time>2020-07-19T11:58:36Z</time>
      </trkpt>
      <trkpt lat="47.3633" lon="-1.04103">
        <ele>43.346</ele>
        <time>2020-07-19T11:58:37Z</time>
      </trkpt>
      <trkpt lat="47.3633" lon="-1.04095">
        <ele>44.48</ele>
        <time>2020-07-19T11:58:38Z</time>
      </trkpt>
      <trkpt lat="47.36327" lon="-1.04088">
        <ele>44.448</ele>
        <time>2020-07-19T11:58:39Z</time>
      </trkpt>
      <trkpt lat="47.36324" lon="-1.04079">
        <ele>43.903</ele>
        <time>2020-07-19T11:58:40Z</time>
      </trkpt>
      <trkpt lat="47.36322" lon="-1.0407">
        <ele>44.526</ele>
        <time>2020-07-19T11:58:41Z</time>
      </trkpt>
      <trkpt lat="47.36321" lon="-1.04062">
        <ele>44.143</ele>
        <time>2020-07-19T11:58:42Z</time>
      </trkpt>
      <trkpt lat="47.36313" lon="-1.04054">
        <ele>41.305</ele>
        <time>2020-07-19T11:58:43Z</time>
      </trkpt>
      <trkpt lat="47.3631" lon="-1.04046">
        <ele>41.797</ele>
        <time>2020-07-19T11:58:44Z</time>
      </trkpt>
      <trkpt lat="47.36307" lon="-1.04039">
        <ele>41.908</ele>
        <time>2020-07-19T11:58:45Z</time>
      </trkpt>
      <trkpt lat="47.36305" lon="-1.04032">
        <ele>43.62</ele>
        <time>2020-07-19T11:58:46Z</time>
      </trkpt>
      <trkpt lat="47.36302" lon="-1.04025">
        <ele>40.625</ele>
        <time>2020-07-19T11:58:47Z</time>
      </trkpt>
      <trkpt lat="47.36298" lon="-1.04018">
        <ele>42.148</ele>
        <time>2020-07-19T11:58:48Z</time>
      </trkpt>
      <trkpt lat="47.36294" lon="-1.04011">
        <ele>42.458</ele>
        <time>2020-07-19T11:58:49Z</time>
      </trkpt>
      <trkpt lat="47.3629" lon="-1.04005">
        <ele>43.718</ele>
        <time>2020-07-19T11:58:50Z</time>
      </trkpt>
      <trkpt lat="47.36286" lon="-1.03999">
        <ele>44.599</ele>
        <time>2020-07-19T11:58:51Z</time>
      </trkpt>
      <trkpt lat="47.36281" lon="-1.03993">
        <ele>44.826</ele>
        <time>2020-07-19T11:58:52Z</time>
      </trkpt>
      <trkpt lat="47.36277" lon="-1.0399">
        <ele>44.052</ele>
        <time>2020-07-19T11:58:53Z</time>
      </trkpt>
      <trkpt lat="47.36272" lon="-1.03989">
        <ele>43.108</ele>
        <time>2020-07-19T11:58:54Z</time>
      </trkpt>
      <trkpt lat="47.36268" lon="-1.03985">
        <ele>42.369</ele>
        <time>2020-07-19T11:58:55Z</time>
      </trkpt>
      <trkpt lat="47.36264" lon="-1.0398">
        <ele>43.682</ele>
        <time>2020-07-19T11:58:56Z</time>
      </trkpt>
      <trkpt lat="47.36259" lon="-1.03975">
        <ele>44.247</ele>
        <time>2020-07-19T11:58:57Z</time>
      </trkpt>
      <trkpt lat="47.36255" lon="-1.03971">
        <ele>45.457</ele>
        <time>2020-07-19T11:58:58Z</time>
      </trkpt>
      <trkpt lat="47.36251" lon="-1.03966">
        <ele>47.787</ele>
        <time>2020-07-19T11:58:59Z</time>
      </trkpt>
      <trkpt lat="47.36247" lon="-1.03963">
        <ele>48.169</ele>
        <time>2020-07-19T11:59:00Z</time>
      </trkpt>
      <trkpt lat="47.36243" lon="-1.03957">
        <ele>49.222</ele>
        <time>2020-07-19T11:59:01Z</time>
      </trkpt>
      <trkpt lat="47.36238" lon="-1.03954">
        <ele>47.83</ele>
        <time>2020-07-19T11:59:02Z</time>
      </trkpt>
      <trkpt lat="47.36232" lon="-1.03947">
        <ele>47.302</ele>
        <time>2020-07-19T11:59:03Z</time>
      </trkpt>
      <trkpt lat="47.36227" lon="-1.03944">
        <ele>43.897</ele>
        <time>2020-07-19T11:59:04Z</time>
      </trkpt>
      <trkpt lat="47.36222" lon="-1.03938">
        <ele>43.885</ele>
        <time>2020-07-19T11:59:05Z</time>
      </trkpt>
      <trkpt lat="47.36219" lon="-1.03934">
        <ele>44.14</ele>
        <time>2020-07-19T11:59:06Z</time>
      </trkpt>
      <trkpt lat="47.36214" lon="-1.03928">
        <ele>44.392</ele>
        <time>2020-07-19T11:59:07Z</time>
      </trkpt>
      <trkpt lat="47.36209" lon="-1.03922">
        <ele>44.362</ele>
        <time>2020-07-19T11:59:08Z</time>
      </trkpt>
      <trkpt lat="47.36204" lon="-1.03918">
        <ele>44.846</ele>
        <time>2020-07-19T11:59:09Z</time>
      </trkpt>
      <trkpt lat="47.36201" lon="-1.03914">
        <ele>45.594</ele>
        <time>2020-07-19T11:59:10Z</time>
      </trkpt>
      <trkpt lat="47.36198" lon="-1.03908">
        <ele>45.055</ele>
        <time>2020-07-19T11:59:11Z</time>
      </trkpt>
      <trkpt lat="47.36194" lon="-1.03901">
        <ele>44.283</ele>
        <time>2020-07-19T11:59:12Z</time>
      </trkpt>
      <trkpt lat="47.36191" lon="-1.03894">
        <ele>43.894</ele>
        <time>2020-07-19T11:59:13Z</time>
      </trkpt>
      <trkpt lat="47.36187" lon="-1.03888">
        <ele>42.66</ele>
        <time>2020-07-19T11:59:14Z</time>
      </trkpt>
      <trkpt lat="47.36184" lon="-1.03879">
        <ele>42.606</ele>
        <time>2020-07-19T11:59:15Z</time>
      </trkpt>
      <trkpt lat="47.36181" lon="-1.03871">
        <ele>43.162</ele>
        <time>2020-07-19T11:59:16Z</time>
      </trkpt>
      <trkpt lat="47.36179" lon="-1.03865">
        <ele>41.465</ele>
        <time>2020-07-19T11:59:17Z</time>
      </trkpt>
      <trkpt lat="47.36178" lon="-1.03862">
        <ele>39.428</ele>
        <time>2020-07-19T11:59:18Z</time>
      </trkpt>
      <trkpt lat="47.36173" lon="-1.03855">
        <ele>37.633</ele>
        <time>2020-07-19T11:59:19Z</time>
      </trkpt>
      <trkpt lat="47.36171" lon="-1.03848">
        <ele>38.123</ele>
        <time>2020-07-19T11:59:20Z</time>
      </trkpt>
      <trkpt lat="47.3617" lon="-1.03843">
        <ele>37.846</ele>
        <time>2020-07-19T11:59:21Z</time>
      </trkpt>
      <trkpt lat="47.36166" lon="-1.03836">
        <ele>37.608</ele>
        <time>2020-07-19T11:59:22Z</time>
      </trkpt>
      <trkpt lat="47.36164" lon="-1.03828">
        <ele>37.861</ele>
        <time>2020-07-19T11:59:23Z</time>
      </trkpt>
      <trkpt lat="47.36162" lon="-1.03823">
        <ele>37.104</ele>
        <time>2020-07-19T11:59:24Z</time>
      </trkpt>
      <trkpt lat="47.36159" lon="-1.03816">
        <ele>36.439</ele>
        <time>2020-07-19T11:59:25Z</time>
      </trkpt>
      <trkpt lat="47.36156" lon="-1.03807">
        <ele>36.544</ele>
        <time>2020-07-19T11:59:26Z</time>
      </trkpt>
      <trkpt lat="47.36154" lon="-1.03799">
        <ele>35.863</ele>
        <time>2020-07-19T11:59:27Z</time>
      </trkpt>
      <trkpt lat="47.3615" lon="-1.03794">
        <ele>36.862</ele>
        <time>2020-07-19T11:59:28Z</time>
      </trkpt>
      <trkpt lat="47.36148" lon="-1.03788">
        <ele>35.299</ele>
        <time>2020-07-19T11:59:29Z</time>
      </trkpt>
      <trkpt lat="47.36145" lon="-1.03783">
        <ele>35.047</ele>
        <time>2020-07-19T11:59:30Z</time>
      </trkpt>
      <trkpt lat="47.36141" lon="-1.03778">
        <ele>35.808</ele>
        <time>2020-07-19T11:59:31Z</time>
      </trkpt>
      <trkpt lat="47.36133" lon="-1.03773">
        <ele>35.885</ele>
        <time>2020-07-19T11:59:32Z</time>
      </trkpt>
      <trkpt lat="47.36128" lon="-1.03771">
        <ele>37.243</ele>
        <time>2020-07-19T11:59:33Z</time>
      </trkpt>
      <trkpt lat="47.36121" lon="-1.03765">
        <ele>37.416</ele>
        <time>2020-07-19T11:59:34Z</time>
      </trkpt>
      <trkpt lat="47.36115" lon="-1.03761">
        <ele>37.982</ele>
        <time>2020-07-19T11:59:35Z</time>
      </trkpt>
      <trkpt lat="47.36107" lon="-1.03754">
        <ele>38.268</ele>
        <time>2020-07-19T11:59:36Z</time>
      </trkpt>
      <trkpt lat="47.36101" lon="-1.03747">
        <ele>38.697</ele>
        <time>2020-07-19T11:59:37Z</time>
      </trkpt>
      <trkpt lat="47.36097" lon="-1.03746">
        <ele>39.823</ele>
        <time>2020-07-19T11:59:38Z</time>
      </trkpt>
      <trkpt lat="47.36093" lon="-1.03745">
        <ele>40.859</ele>
        <time>2020-07-19T11:59:39Z</time>
      </trkpt>
      <trkpt lat="47.36088" lon="-1.03742">
        <ele>42.168</ele>
        <time>2020-07-19T11:59:40Z</time>
      </trkpt>
      <trkpt lat="47.36084" lon="-1.03741">
        <ele>41.734</ele>
        <time>2020-07-19T11:59:41Z</time>
      </trkpt>
      <trkpt lat="47.36081" lon="-1.03738">
        <ele>42.597</ele>
        <time>2020-07-19T11:59:42Z</time>
      </trkpt>
      <trkpt lat="47.36077" lon="-1.03737">
        <ele>44.141</ele>
        <time>2020-07-19T11:59:43Z</time>
      </trkpt>
      <trkpt lat="47.36074" lon="-1.03736">
        <ele>45.876</ele>
        <time>2020-07-19T11:59:44Z</time>
      </trkpt>
      <trkpt lat="47.36074" lon="-1.03735">
        <ele>45.112</ele>
        <time>2020-07-19T11:59:45Z</time>
      </trkpt>
      <trkpt lat="47.36073" lon="-1.03734">
        <ele>44.55</ele>
        <time>2020-07-19T11:59:46Z</time>
      </trkpt>
      <trkpt lat="47.36073" lon="-1.03734">
        <ele>44.253</ele>
        <time>2020-07-19T11:59:47Z</time>
      </trkpt>
      <trkpt lat="47.36073" lon="-1.03734">
        <ele>44.178</ele>
        <time>2020-07-19T11:59:48Z</time>
      </trkpt>
      <trkpt lat="47.36073" lon="-1.03734">
        <ele>44.947</ele>
        <time>2020-07-19T11:59:49Z</time>
      </trkpt>
      <trkpt lat="47.36073" lon="-1.03734">
        <ele>45.669</ele>
        <time>2020-07-19T11:59:50Z</time>
      </trkpt>
      <trkpt lat="47.36073" lon="-1.03734">
        <ele>46.647</ele>
        <time>2020-07-19T11:59:51Z</time>
      </trkpt>
      <trkpt lat="47.36073" lon="-1.03734">
        <ele>46.153</ele>
        <time>2020-07-19T11:59:52Z</time>
      </trkpt>
      <trkpt lat="47.36073" lon="-1.03734">
        <ele>45.978</ele>
        <time>2020-07-19T11:59:53Z</time>
      </trkpt>
      <trkpt lat="47.36073" lon="-1.03734">
        <ele>46.68</ele>
        <time>2020-07-19T11:59:55Z</time>
      </trkpt>
      <trkpt lat="47.36073" lon="-1.03735">
        <ele>45.604</ele>
        <time>2020-07-19T11:59:56Z</time>
      </trkpt>
      <trkpt lat="47.36074" lon="-1.03735">
        <ele>103.123</ele>
        <time>2020-07-19T11:59:57Z</time>
      </trkpt>
      <trkpt lat="47.36074" lon="-1.03735">
        <ele>88.317</ele>
        <time>2020-07-19T11:59:58Z</time>
      </trkpt>
      <trkpt lat="47.36074" lon="-1.03735">
        <ele>77.872</ele>
        <time>2020-07-19T11:59:59Z</time>
      </trkpt>
      <trkpt lat="47.36074" lon="-1.03736">
        <ele>68.769</ele>
        <time>2020-07-19T12:00:00Z</time>
      </trkpt>
      <trkpt lat="47.36074" lon="-1.03736">
        <ele>64.067</ele>
        <time>2020-07-19T12:00:01Z</time>
      </trkpt>
      <trkpt lat="47.36074" lon="-1.03736">
        <ele>59.204</ele>
        <time>2020-07-19T12:00:02Z</time>
      </trkpt>
      <trkpt lat="47.36074" lon="-1.03736">
        <ele>57.346</ele>
        <time>2020-07-19T12:00:03Z</time>
      </trkpt>
      <trkpt lat="47.36074" lon="-1.03736">
        <ele>55.704</ele>
        <time>2020-07-19T12:00:04Z</time>
      </trkpt>
      <trkpt lat="47.36074" lon="-1.03737">
        <ele>53.754</ele>
        <time>2020-07-19T12:00:05Z</time>
      </trkpt>
      <trkpt lat="47.36074" lon="-1.03737">
        <ele>52.614</ele>
        <time>2020-07-19T12:00:06Z</time>
      </trkpt>
      <trkpt lat="47.36074" lon="-1.03737">
        <ele>52.031</ele>
        <time>2020-07-19T12:00:07Z</time>
      </trkpt>
      <trkpt lat="47.36074" lon="-1.03737">
        <ele>51.575</ele>
        <time>2020-07-19T12:00:08Z</time>
      </trkpt>
      <trkpt lat="47.36074" lon="-1.03737">
        <ele>50.292</ele>
        <time>2020-07-19T12:00:09Z</time>
      </trkpt>
      <trkpt lat="47.36074" lon="-1.03737">
        <ele>50.112</ele>
        <time>2020-07-19T12:00:10Z</time>
      </trkpt>
      <trkpt lat="47.36074" lon="-1.03737">
        <ele>49.725</ele>
        <time>2020-07-19T12:00:11Z</time>
      </trkpt>
      <trkpt lat="47.36074" lon="-1.03737">
        <ele>49.876</ele>
        <time>2020-07-19T12:00:12Z</time>
      </trkpt>
      <trkpt lat="47.36074" lon="-1.03737">
        <ele>49.545</ele>
        <time>2020-07-19T12:00:13Z</time>
      </trkpt>
      <trkpt lat="47.36074" lon="-1.03737">
        <ele>49.106</ele>
        <time>2020-07-19T12:00:14Z</time>
      </trkpt>
      <trkpt lat="47.36074" lon="-1.03737">
        <ele>48.715</ele>
        <time>2020-07-19T12:00:15Z</time>
      </trkpt>
      <trkpt lat="47.36074" lon="-1.03737">
        <ele>48.401</ele>
        <time>2020-07-19T12:00:16Z</time>
      </trkpt>
      <trkpt lat="47.36074" lon="-1.03737">
        <ele>48.028</ele>
        <time>2020-07-19T12:00:17Z</time>
      </trkpt>
      <trkpt lat="47.36074" lon="-1.03737">
        <ele>47.669</ele>
        <time>2020-07-19T12:00:18Z</time>
      </trkpt>
      <trkpt lat="47.36074" lon="-1.03737">
        <ele>47.61</ele>
        <time>2020-07-19T12:00:19Z</time>
      </trkpt>
      <trkpt lat="47.36074" lon="-1.03737">
        <ele>47.378</ele>
        <time>2020-07-19T12:00:20Z</time>
      </trkpt>
      <trkpt lat="47.36074" lon="-1.03737">
        <ele>47.356</ele>
        <time>2020-07-19T12:00:21Z</time>
      </trkpt>
      <trkpt lat="47.36074" lon="-1.03737">
        <ele>47.325</ele>
        <time>2020-07-19T12:00:22Z</time>
      </trkpt>
      <trkpt lat="47.36074" lon="-1.03737">
        <ele>47.202</ele>
        <time>2020-07-19T12:00:23Z</time>
      </trkpt>
      <trkpt lat="47.36074" lon="-1.03737">
        <ele>47.114</ele>
        <time>2020-07-19T12:00:24Z</time>
      </trkpt>
      <trkpt lat="47.36074" lon="-1.03737">
        <ele>47.06</ele>
        <time>2020-07-19T12:00:25Z</time>
      </trkpt>
      <trkpt lat="47.36074" lon="-1.03737">
        <ele>47.012</ele>
        <time>2020-07-19T12:00:26Z</time>
      </trkpt>
      <trkpt lat="47.36074" lon="-1.03737">
        <ele>46.908</ele>
        <time>2020-07-19T12:00:27Z</time>
      </trkpt>
      <trkpt lat="47.36074" lon="-1.03737">
        <ele>46.817</ele>
        <time>2020-07-19T12:00:28Z</time>
      </trkpt>
      <trkpt lat="47.36074" lon="-1.03737">
        <ele>46.81</ele>
        <time>2020-07-19T12:00:29Z</time>
      </trkpt>
      <trkpt lat="47.36074" lon="-1.03737">
        <ele>46.723</ele>
        <time>2020-07-19T12:00:30Z</time>
      </trkpt>
      <trkpt lat="47.36075" lon="-1.03737">
        <ele>46.777</ele>
        <time>2020-07-19T12:00:33Z</time>
      </trkpt>
      <trkpt lat="47.36075" lon="-1.03737">
        <ele>46.181</ele>
        <time>2020-07-19T12:00:33Z</time>
      </trkpt>
      <trkpt lat="47.36075" lon="-1.03738">
        <ele>46.274</ele>
        <time>2020-07-19T12:00:34Z</time>
      </trkpt>
      <trkpt lat="47.36074" lon="-1.03738">
        <ele>46.97</ele>
        <time>2020-07-19T12:00:35Z</time>
      </trkpt>
      <trkpt lat="47.36074" lon="-1.03737">
        <ele>47.541</ele>
        <time>2020-07-19T12:00:36Z</time>
      </trkpt>
      <trkpt lat="47.36073" lon="-1.03737">
        <ele>48.014</ele>
        <time>2020-07-19T12:00:37Z</time>
      </trkpt>
      <trkpt lat="47.36073" lon="-1.03737">
        <ele>48.202</ele>
        <time>2020-07-19T12:00:38Z</time>
      </trkpt>
      <trkpt lat="47.36074" lon="-1.03737">
        <ele>48.704</ele>
        <time>2020-07-19T12:00:39Z</time>
      </trkpt>
      <trkpt lat="47.36075" lon="-1.03738">
        <ele>48.98</ele>
        <time>2020-07-19T12:00:40Z</time>
      </trkpt>
      <trkpt lat="47.36076" lon="-1.03738">
        <ele>48.778</ele>
        <time>2020-07-19T12:00:41Z</time>
      </trkpt>
      <trkpt lat="47.36077" lon="-1.03739">
        <ele>49.088</ele>
        <time>2020-07-19T12:00:42Z</time>
      </trkpt>
      <trkpt lat="47.36079" lon="-1.03739">
        <ele>49.887</ele>
        <time>2020-07-19T12:00:43Z</time>
      </trkpt>
      <trkpt lat="47.3608" lon="-1.0374">
        <ele>49.538</ele>
        <time>2020-07-19T12:00:44Z</time>
      </trkpt>
      <trkpt lat="47.36081" lon="-1.03741">
        <ele>50.312</ele>
        <time>2020-07-19T12:00:45Z</time>
      </trkpt>
      <trkpt lat="47.36082" lon="-1.03741">
        <ele>49.64</ele>
        <time>2020-07-19T12:00:46Z</time>
      </trkpt>
      <trkpt lat="47.36083" lon="-1.03742">
        <ele>49.61</ele>
        <time>2020-07-19T12:00:47Z</time>
      </trkpt>
      <trkpt lat="47.36084" lon="-1.03742">
        <ele>48.224</ele>
        <time>2020-07-19T12:00:48Z</time>
      </trkpt>
      <trkpt lat="47.36085" lon="-1.03742">
        <ele>48.284</ele>
        <time>2020-07-19T12:00:49Z</time>
      </trkpt>
      <trkpt lat="47.36086" lon="-1.03743">
        <ele>48.602</ele>
        <time>2020-07-19T12:00:50Z</time>
      </trkpt>
      <trkpt lat="47.36088" lon="-1.03743">
        <ele>48.994</ele>
        <time>2020-07-19T12:00:51Z</time>
      </trkpt>
      <trkpt lat="47.36089" lon="-1.03744">
        <ele>50.414</ele>
        <time>2020-07-19T12:00:52Z</time>
      </trkpt>
      <trkpt lat="47.3609" lon="-1.03745">
        <ele>50.937</ele>
        <time>2020-07-19T12:00:53Z</time>
      </trkpt>
      <trkpt lat="47.36091" lon="-1.03746">
        <ele>50.877</ele>
        <time>2020-07-19T12:00:54Z</time>
      </trkpt>
      <trkpt lat="47.36091" lon="-1.03746">
        <ele>51.03</ele>
        <time>2020-07-19T12:00:55Z</time>
      </trkpt>
      <trkpt lat="47.36092" lon="-1.03746">
        <ele>50.927</ele>
        <time>2020-07-19T12:00:56Z</time>
      </trkpt>
      <trkpt lat="47.36092" lon="-1.03746">
        <ele>51.221</ele>
        <time>2020-07-19T12:00:57Z</time>
      </trkpt>
      <trkpt lat="47.36092" lon="-1.03746">
        <ele>51.152</ele>
        <time>2020-07-19T12:00:58Z</time>
      </trkpt>
      <trkpt lat="47.36092" lon="-1.03746">
        <ele>51.055</ele>
        <time>2020-07-19T12:00:59Z</time>
      </trkpt>
      <trkpt lat="47.36092" lon="-1.03746">
        <ele>51.059</ele>
        <time>2020-07-19T12:01:00Z</time>
      </trkpt>
      <trkpt lat="47.36093" lon="-1.03745">
        <ele>50.97</ele>
        <time>2020-07-19T12:01:01Z</time>
      </trkpt>
      <trkpt lat="47.36093" lon="-1.03743">
        <ele>50.675</ele>
        <time>2020-07-19T12:01:02Z</time>
      </trkpt>
      <trkpt lat="47.36093" lon="-1.03742">
        <ele>50.702</ele>
        <time>2020-07-19T12:01:03Z</time>
      </trkpt>
      <trkpt lat="47.36093" lon="-1.03741">
        <ele>50.089</ele>
        <time>2020-07-19T12:01:04Z</time>
      </trkpt>
      <trkpt lat="47.36092" lon="-1.03739">
        <ele>49.431</ele>
        <time>2020-07-19T12:01:05Z</time>
      </trkpt>
      <trkpt lat="47.36091" lon="-1.03738">
        <ele>49.448</ele>
        <time>2020-07-19T12:01:06Z</time>
      </trkpt>
      <trkpt lat="47.36091" lon="-1.03737">
        <ele>49.433</ele>
        <time>2020-07-19T12:01:07Z</time>
      </trkpt>
      <trkpt lat="47.36091" lon="-1.03737">
        <ele>49.476</ele>
        <time>2020-07-19T12:01:08Z</time>
      </trkpt>
      <trkpt lat="47.36091" lon="-1.03736">
        <ele>48.407</ele>
        <time>2020-07-19T12:01:09Z</time>
      </trkpt>
      <trkpt lat="47.36091" lon="-1.03735">
        <ele>48.43</ele>
        <time>2020-07-19T12:01:10Z</time>
      </trkpt>
      <trkpt lat="47.36091" lon="-1.03735">
        <ele>48.431</ele>
        <time>2020-07-19T12:01:12Z</time>
      </trkpt>
      <trkpt lat="47.3609" lon="-1.03735">
        <ele>48.767</ele>
        <time>2020-07-19T12:01:13Z</time>
      </trkpt>
      <trkpt lat="47.3609" lon="-1.03735">
        <ele>48.81</ele>
        <time>2020-07-19T12:01:13Z</time>
      </trkpt>
      <trkpt lat="47.3609" lon="-1.03735">
        <ele>48.632</ele>
        <time>2020-07-19T12:01:14Z</time>
      </trkpt>
      <trkpt lat="47.36091" lon="-1.03734">
        <ele>49.236</ele>
        <time>2020-07-19T12:01:15Z</time>
      </trkpt>
      <trkpt lat="47.36091" lon="-1.03732">
        <ele>49.025</ele>
        <time>2020-07-19T12:01:16Z</time>
      </trkpt>
      <trkpt lat="47.36092" lon="-1.03731">
        <ele>49.488</ele>
        <time>2020-07-19T12:01:17Z</time>
      </trkpt>
      <trkpt lat="47.36092" lon="-1.0373">
        <ele>48.489</ele>
        <time>2020-07-19T12:01:18Z</time>
      </trkpt>
      <trkpt lat="47.36093" lon="-1.03729">
        <ele>46.72</ele>
        <time>2020-07-19T12:01:19Z</time>
      </trkpt>
      <trkpt lat="47.36094" lon="-1.03728">
        <ele>46.916</ele>
        <time>2020-07-19T12:01:20Z</time>
      </trkpt>
      <trkpt lat="47.36094" lon="-1.03726">
        <ele>45.765</ele>
        <time>2020-07-19T12:01:21Z</time>
      </trkpt>
      <trkpt lat="47.36094" lon="-1.03724">
        <ele>45.555</ele>
        <time>2020-07-19T12:01:22Z</time>
      </trkpt>
      <trkpt lat="47.36094" lon="-1.03722">
        <ele>45.513</ele>
        <time>2020-07-19T12:01:23Z</time>
      </trkpt>
      <trkpt lat="47.36095" lon="-1.03721">
        <ele>45.849</ele>
        <time>2020-07-19T12:01:24Z</time>
      </trkpt>
      <trkpt lat="47.36095" lon="-1.03719">
        <ele>47.116</ele>
        <time>2020-07-19T12:01:25Z</time>
      </trkpt>
      <trkpt lat="47.36095" lon="-1.03717">
        <ele>47.762</ele>
        <time>2020-07-19T12:01:26Z</time>
      </trkpt>
      <trkpt lat="47.36095" lon="-1.03716">
        <ele>47.875</ele>
        <time>2020-07-19T12:01:27Z</time>
      </trkpt>
      <trkpt lat="47.36095" lon="-1.03716">
        <ele>48.766</ele>
        <time>2020-07-19T12:01:28Z</time>
      </trkpt>
      <trkpt lat="47.36096" lon="-1.03715">
        <ele>48.566</ele>
        <time>2020-07-19T12:01:29Z</time>
      </trkpt>
      <trkpt lat="47.36096" lon="-1.03715">
        <ele>48.137</ele>
        <time>2020-07-19T12:01:30Z</time>
      </trkpt>
      <trkpt lat="47.36096" lon="-1.03715">
        <ele>48.541</ele>
        <time>2020-07-19T12:01:31Z</time>
      </trkpt>
      <trkpt lat="47.36096" lon="-1.03714">
        <ele>47.501</ele>
        <time>2020-07-19T12:01:32Z</time>
      </trkpt>
      <trkpt lat="47.36097" lon="-1.03713">
        <ele>47.579</ele>
        <time>2020-07-19T12:01:33Z</time>
      </trkpt>
      <trkpt lat="47.36098" lon="-1.0371">
        <ele>49.234</ele>
        <time>2020-07-19T12:01:34Z</time>
      </trkpt>
      <trkpt lat="47.36099" lon="-1.03708">
        <ele>49.739</ele>
        <time>2020-07-19T12:01:35Z</time>
      </trkpt>
      <trkpt lat="47.361" lon="-1.03707">
        <ele>49.14</ele>
        <time>2020-07-19T12:01:36Z</time>
      </trkpt>
      <trkpt lat="47.361" lon="-1.03707">
        <ele>48.654</ele>
        <time>2020-07-19T12:01:37Z</time>
      </trkpt>
      <trkpt lat="47.361" lon="-1.03707">
        <ele>48.217</ele>
        <time>2020-07-19T12:01:38Z</time>
      </trkpt>
      <trkpt lat="47.361" lon="-1.03705">
        <ele>49.299</ele>
        <time>2020-07-19T12:01:39Z</time>
      </trkpt>
      <trkpt lat="47.36101" lon="-1.03704">
        <ele>48.946</ele>
        <time>2020-07-19T12:01:40Z</time>
      </trkpt>
      <trkpt lat="47.36102" lon="-1.03703">
        <ele>48.63</ele>
        <time>2020-07-19T12:01:41Z</time>
      </trkpt>
      <trkpt lat="47.36102" lon="-1.03703">
        <ele>49.143</ele>
        <time>2020-07-19T12:01:42Z</time>
      </trkpt>
      <trkpt lat="47.36102" lon="-1.03703">
        <ele>48.947</ele>
        <time>2020-07-19T12:01:43Z</time>
      </trkpt>
      <trkpt lat="47.36102" lon="-1.03703">
        <ele>49.964</ele>
        <time>2020-07-19T12:01:44Z</time>
      </trkpt>
      <trkpt lat="47.36102" lon="-1.03703">
        <ele>49.594</ele>
        <time>2020-07-19T12:01:45Z</time>
      </trkpt>
      <trkpt lat="47.36102" lon="-1.03703">
        <ele>49.91</ele>
        <time>2020-07-19T12:01:46Z</time>
      </trkpt>
      <trkpt lat="47.36103" lon="-1.03703">
        <ele>52.362</ele>
        <time>2020-07-19T12:01:47Z</time>
      </trkpt>
      <trkpt lat="47.36103" lon="-1.03706">
        <ele>52.834</ele>
        <time>2020-07-19T12:01:48Z</time>
      </trkpt>
      <trkpt lat="47.36103" lon="-1.03709">
        <ele>53.012</ele>
        <time>2020-07-19T12:01:49Z</time>
      </trkpt>
      <trkpt lat="47.36102" lon="-1.03711">
        <ele>51.203</ele>
        <time>2020-07-19T12:01:50Z</time>
      </trkpt>
      <trkpt lat="47.36101" lon="-1.03711">
        <ele>51.148</ele>
        <time>2020-07-19T12:01:51Z</time>
      </trkpt>
      <trkpt lat="47.36101" lon="-1.03712">
        <ele>50.584</ele>
        <time>2020-07-19T12:01:52Z</time>
      </trkpt>
      <trkpt lat="47.36101" lon="-1.03714">
        <ele>49.662</ele>
        <time>2020-07-19T12:01:53Z</time>
      </trkpt>
      <trkpt lat="47.361" lon="-1.03716">
        <ele>49.935</ele>
        <time>2020-07-19T12:01:54Z</time>
      </trkpt>
      <trkpt lat="47.361" lon="-1.03717">
        <ele>50.046</ele>
        <time>2020-07-19T12:01:55Z</time>
      </trkpt>
      <trkpt lat="47.361" lon="-1.03718">
        <ele>48.978</ele>
        <time>2020-07-19T12:01:56Z</time>
      </trkpt>
      <trkpt lat="47.361" lon="-1.03718">
        <ele>49.983</ele>
        <time>2020-07-19T12:01:57Z</time>
      </trkpt>
      <trkpt lat="47.36099" lon="-1.03718">
        <ele>49.567</ele>
        <time>2020-07-19T12:01:58Z</time>
      </trkpt>
      <trkpt lat="47.36099" lon="-1.03719">
        <ele>49.871</ele>
        <time>2020-07-19T12:01:59Z</time>
      </trkpt>
      <trkpt lat="47.36098" lon="-1.0372">
        <ele>50.673</ele>
        <time>2020-07-19T12:02:00Z</time>
      </trkpt>
      <trkpt lat="47.36098" lon="-1.03721">
        <ele>49.611</ele>
        <time>2020-07-19T12:02:01Z</time>
      </trkpt>
      <trkpt lat="47.36098" lon="-1.03723">
        <ele>49.884</ele>
        <time>2020-07-19T12:02:02Z</time>
      </trkpt>
      <trkpt lat="47.36098" lon="-1.03724">
        <ele>50.641</ele>
        <time>2020-07-19T12:02:03Z</time>
      </trkpt>
      <trkpt lat="47.36097" lon="-1.03725">
        <ele>50.058</ele>
        <time>2020-07-19T12:02:04Z</time>
      </trkpt>
      <trkpt lat="47.36097" lon="-1.03728">
        <ele>49.37</ele>
        <time>2020-07-19T12:02:05Z</time>
      </trkpt>
      <trkpt lat="47.36097" lon="-1.0373">
        <ele>48.901</ele>
        <time>2020-07-19T12:02:06Z</time>
      </trkpt>
      <trkpt lat="47.36097" lon="-1.03731">
        <ele>49.198</ele>
        <time>2020-07-19T12:02:07Z</time>
      </trkpt>
      <trkpt lat="47.36097" lon="-1.03732">
        <ele>48.936</ele>
        <time>2020-07-19T12:02:08Z</time>
      </trkpt>
      <trkpt lat="47.36097" lon="-1.03733">
        <ele>49.448</ele>
        <time>2020-07-19T12:02:09Z</time>
      </trkpt>
      <trkpt lat="47.36096" lon="-1.03734">
        <ele>50.57</ele>
        <time>2020-07-19T12:02:10Z</time>
      </trkpt>
      <trkpt lat="47.36096" lon="-1.03736">
        <ele>51.626</ele>
        <time>2020-07-19T12:02:11Z</time>
      </trkpt>
      <trkpt lat="47.36095" lon="-1.03736">
        <ele>51.75</ele>
        <time>2020-07-19T12:02:12Z</time>
      </trkpt>
      <trkpt lat="47.36095" lon="-1.03736">
        <ele>51.16</ele>
        <time>2020-07-19T12:02:13Z</time>
      </trkpt>
      <trkpt lat="47.36096" lon="-1.03735">
        <ele>51.633</ele>
        <time>2020-07-19T12:02:14Z</time>
      </trkpt>
      <trkpt lat="47.36096" lon="-1.03735">
        <ele>52.068</ele>
        <time>2020-07-19T12:02:15Z</time>
      </trkpt>
      <trkpt lat="47.36007" lon="-1.03721">
        <ele>51.185</ele>
        <time>2020-07-19T12:06:15Z</time>
      </trkpt>
      <trkpt lat="47.36007" lon="-1.03721">
        <ele>50.948</ele>
        <time>2020-07-19T12:06:17Z</time>
      </trkpt>
      <trkpt lat="47.36007" lon="-1.03721">
        <ele>50.768</ele>
        <time>2020-07-19T12:06:18Z</time>
      </trkpt>
      <trkpt lat="47.36006" lon="-1.03721">
        <ele>50.492</ele>
        <time>2020-07-19T12:06:19Z</time>
      </trkpt>
      <trkpt lat="47.36006" lon="-1.03721">
        <ele>50.416</ele>
        <time>2020-07-19T12:06:20Z</time>
      </trkpt>
      <trkpt lat="47.36005" lon="-1.03721">
        <ele>50.071</ele>
        <time>2020-07-19T12:06:21Z</time>
      </trkpt>
      <trkpt lat="47.36005" lon="-1.03721">
        <ele>49.915</ele>
        <time>2020-07-19T12:06:22Z</time>
      </trkpt>
      <trkpt lat="47.36005" lon="-1.03721">
        <ele>49.783</ele>
        <time>2020-07-19T12:06:23Z</time>
      </trkpt>
      <trkpt lat="47.36005" lon="-1.03721">
        <ele>49.423</ele>
        <time>2020-07-19T12:06:24Z</time>
      </trkpt>
      <trkpt lat="47.36005" lon="-1.0372">
        <ele>49.367</ele>
        <time>2020-07-19T12:06:25Z</time>
      </trkpt>
      <trkpt lat="47.36005" lon="-1.0372">
        <ele>49.359</ele>
        <time>2020-07-19T12:06:26Z</time>
      </trkpt>
      <trkpt lat="47.36005" lon="-1.0372">
        <ele>49.358</ele>
        <time>2020-07-19T12:06:27Z</time>
      </trkpt>
      <trkpt lat="47.36005" lon="-1.0372">
        <ele>49.346</ele>
        <time>2020-07-19T12:06:28Z</time>
      </trkpt>
      <trkpt lat="47.36005" lon="-1.0372">
        <ele>49.357</ele>
        <time>2020-07-19T12:06:29Z</time>
      </trkpt>
      <trkpt lat="47.36004" lon="-1.0372">
        <ele>49.769</ele>
        <time>2020-07-19T12:06:31Z</time>
      </trkpt>
      <trkpt lat="47.36004" lon="-1.0372">
        <ele>49.814</ele>
        <time>2020-07-19T12:06:32Z</time>
      </trkpt>
      <trkpt lat="47.36004" lon="-1.0372">
        <ele>49.664</ele>
        <time>2020-07-19T12:06:33Z</time>
      </trkpt>
      <trkpt lat="47.36004" lon="-1.0372">
        <ele>49.785</ele>
        <time>2020-07-19T12:06:34Z</time>
      </trkpt>
      <trkpt lat="47.36004" lon="-1.0372">
        <ele>49.754</ele>
        <time>2020-07-19T12:06:35Z</time>
      </trkpt>
      <trkpt lat="47.36004" lon="-1.0372">
        <ele>49.751</ele>
        <time>2020-07-19T12:06:36Z</time>
      </trkpt>
      <trkpt lat="47.36004" lon="-1.0372">
        <ele>49.748</ele>
        <time>2020-07-19T12:06:37Z</time>
      </trkpt>
      <trkpt lat="47.36004" lon="-1.0372">
        <ele>49.793</ele>
        <time>2020-07-19T12:06:38Z</time>
      </trkpt>
      <trkpt lat="47.36004" lon="-1.0372">
        <ele>49.786</ele>
        <time>2020-07-19T12:06:39Z</time>
      </trkpt>
      <trkpt lat="47.36004" lon="-1.0372">
        <ele>49.802</ele>
        <time>2020-07-19T12:06:40Z</time>
      </trkpt>
      <trkpt lat="47.36004" lon="-1.0372">
        <ele>49.917</ele>
        <time>2020-07-19T12:06:41Z</time>
      </trkpt>
      <trkpt lat="47.36004" lon="-1.0372">
        <ele>49.954</ele>
        <time>2020-07-19T12:06:42Z</time>
      </trkpt>
      <trkpt lat="47.36004" lon="-1.0372">
        <ele>50.021</ele>
        <time>2020-07-19T12:06:43Z</time>
      </trkpt>
      <trkpt lat="47.36004" lon="-1.0372">
        <ele>50.021</ele>
        <time>2020-07-19T12:06:44Z</time>
      </trkpt>
      <trkpt lat="47.36004" lon="-1.0372">
        <ele>49.641</ele>
        <time>2020-07-19T12:06:45Z</time>
      </trkpt>
      <trkpt lat="47.36003" lon="-1.03721">
        <ele>50.229</ele>
        <time>2020-07-19T12:06:46Z</time>
      </trkpt>
      <trkpt lat="47.36002" lon="-1.03721">
        <ele>50.764</ele>
        <time>2020-07-19T12:06:47Z</time>
      </trkpt>
      <trkpt lat="47.36001" lon="-1.03723">
        <ele>50.175</ele>
        <time>2020-07-19T12:06:48Z</time>
      </trkpt>
      <trkpt lat="47.36001" lon="-1.03724">
        <ele>50.325</ele>
        <time>2020-07-19T12:06:49Z</time>
      </trkpt>
      <trkpt lat="47.36002" lon="-1.03725">
        <ele>50.111</ele>
        <time>2020-07-19T12:06:50Z</time>
      </trkpt>
      <trkpt lat="47.36002" lon="-1.03725">
        <ele>50.418</ele>
        <time>2020-07-19T12:06:51Z</time>
      </trkpt>
      <trkpt lat="47.36003" lon="-1.03725">
        <ele>51.082</ele>
        <time>2020-07-19T12:06:52Z</time>
      </trkpt>
      <trkpt lat="47.36004" lon="-1.03725">
        <ele>50.155</ele>
        <time>2020-07-19T12:06:53Z</time>
      </trkpt>
      <trkpt lat="47.36005" lon="-1.03724">
        <ele>48.807</ele>
        <time>2020-07-19T12:06:54Z</time>
      </trkpt>
      <trkpt lat="47.36006" lon="-1.03724">
        <ele>51.481</ele>
        <time>2020-07-19T12:06:55Z</time>
      </trkpt>
      <trkpt lat="47.36008" lon="-1.03724">
        <ele>51.965</ele>
        <time>2020-07-19T12:06:56Z</time>
      </trkpt>
      <trkpt lat="47.36009" lon="-1.03725">
        <ele>52.859</ele>
        <time>2020-07-19T12:06:57Z</time>
      </trkpt>
      <trkpt lat="47.36011" lon="-1.03726">
        <ele>52.639</ele>
        <time>2020-07-19T12:06:58Z</time>
      </trkpt>
      <trkpt lat="47.36012" lon="-1.03726">
        <ele>52.21</ele>
        <time>2020-07-19T12:06:59Z</time>
      </trkpt>
      <trkpt lat="47.36013" lon="-1.03727">
        <ele>53.47</ele>
        <time>2020-07-19T12:07:00Z</time>
      </trkpt>
      <trkpt lat="47.36013" lon="-1.03727">
        <ele>53.431</ele>
        <time>2020-07-19T12:07:01Z</time>
      </trkpt>
      <trkpt lat="47.36013" lon="-1.03727">
        <ele>53.839</ele>
        <time>2020-07-19T12:07:02Z</time>
      </trkpt>
      <trkpt lat="47.36013" lon="-1.03727">
        <ele>53.769</ele>
        <time>2020-07-19T12:07:03Z</time>
      </trkpt>
      <trkpt lat="47.36013" lon="-1.03727">
        <ele>54.426</ele>
        <time>2020-07-19T12:07:04Z</time>
      </trkpt>
      <trkpt lat="47.36013" lon="-1.03726">
        <ele>54.746</ele>
        <time>2020-07-19T12:07:05Z</time>
      </trkpt>
      <trkpt lat="47.36014" lon="-1.03725">
        <ele>53.576</ele>
        <time>2020-07-19T12:07:06Z</time>
      </trkpt>
      <trkpt lat="47.36016" lon="-1.03724">
        <ele>52.67</ele>
        <time>2020-07-19T12:07:07Z</time>
      </trkpt>
      <trkpt lat="47.36017" lon="-1.03722">
        <ele>52.871</ele>
        <time>2020-07-19T12:07:08Z</time>
      </trkpt>
      <trkpt lat="47.36018" lon="-1.0372">
        <ele>52.518</ele>
        <time>2020-07-19T12:07:09Z</time>
      </trkpt>
      <trkpt lat="47.36019" lon="-1.03718">
        <ele>51.897</ele>
        <time>2020-07-19T12:07:10Z</time>
      </trkpt>
      <trkpt lat="47.3602" lon="-1.03717">
        <ele>50.931</ele>
        <time>2020-07-19T12:07:11Z</time>
      </trkpt>
      <trkpt lat="47.36022" lon="-1.03715">
        <ele>50.04</ele>
        <time>2020-07-19T12:07:12Z</time>
      </trkpt>
      <trkpt lat="47.36023" lon="-1.03714">
        <ele>50.408</ele>
        <time>2020-07-19T12:07:13Z</time>
      </trkpt>
      <trkpt lat="47.36024" lon="-1.03713">
        <ele>51.613</ele>
        <time>2020-07-19T12:07:14Z</time>
      </trkpt>
      <trkpt lat="47.36025" lon="-1.03711">
        <ele>50.344</ele>
        <time>2020-07-19T12:07:15Z</time>
      </trkpt>
      <trkpt lat="47.36026" lon="-1.03711">
        <ele>48.792</ele>
        <time>2020-07-19T12:07:16Z</time>
      </trkpt>
      <trkpt lat="47.36027" lon="-1.0371">
        <ele>48.326</ele>
        <time>2020-07-19T12:07:17Z</time>
      </trkpt>
      <trkpt lat="47.36028" lon="-1.03711">
        <ele>48.482</ele>
        <time>2020-07-19T12:07:18Z</time>
      </trkpt>
      <trkpt lat="47.3603" lon="-1.03712">
        <ele>48.629</ele>
        <time>2020-07-19T12:07:19Z</time>
      </trkpt>
      <trkpt lat="47.36031" lon="-1.03713">
        <ele>48.153</ele>
        <time>2020-07-19T12:07:20Z</time>
      </trkpt>
      <trkpt lat="47.36031" lon="-1.03713">
        <ele>48.423</ele>
        <time>2020-07-19T12:07:21Z</time>
      </trkpt>
      <trkpt lat="47.36031" lon="-1.03714">
        <ele>48.724</ele>
        <time>2020-07-19T12:07:22Z</time>
      </trkpt>
      <trkpt lat="47.36031" lon="-1.03714">
        <ele>49.121</ele>
        <time>2020-07-19T12:07:23Z</time>
      </trkpt>
      <trkpt lat="47.36031" lon="-1.03714">
        <ele>49.474</ele>
        <time>2020-07-19T12:07:24Z</time>
      </trkpt>
      <trkpt lat="47.36031" lon="-1.03714">
        <ele>49.63</ele>
        <time>2020-07-19T12:07:25Z</time>
      </trkpt>
      <trkpt lat="47.36031" lon="-1.03714">
        <ele>49.622</ele>
        <time>2020-07-19T12:07:26Z</time>
      </trkpt>
      <trkpt lat="47.36031" lon="-1.03715">
        <ele>49.344</ele>
        <time>2020-07-19T12:07:27Z</time>
      </trkpt>
      <trkpt lat="47.36031" lon="-1.03715">
        <ele>49.67</ele>
        <time>2020-07-19T12:07:28Z</time>
      </trkpt>
      <trkpt lat="47.36031" lon="-1.03715">
        <ele>50.092</ele>
        <time>2020-07-19T12:07:29Z</time>
      </trkpt>
      <trkpt lat="47.36031" lon="-1.03715">
        <ele>50.248</ele>
        <time>2020-07-19T12:07:30Z</time>
      </trkpt>
      <trkpt lat="47.36031" lon="-1.03715">
        <ele>50.397</ele>
        <time>2020-07-19T12:07:31Z</time>
      </trkpt>
      <trkpt lat="47.36031" lon="-1.03715">
        <ele>50.442</ele>
        <time>2020-07-19T12:07:32Z</time>
      </trkpt>
      <trkpt lat="47.36031" lon="-1.03715">
        <ele>50.481</ele>
        <time>2020-07-19T12:07:33Z</time>
      </trkpt>
      <trkpt lat="47.36031" lon="-1.03715">
        <ele>49.975</ele>
        <time>2020-07-19T12:07:34Z</time>
      </trkpt>
      <trkpt lat="47.36031" lon="-1.03715">
        <ele>50.19</ele>
        <time>2020-07-19T12:07:35Z</time>
      </trkpt>
      <trkpt lat="47.36031" lon="-1.03715">
        <ele>50.27</ele>
        <time>2020-07-19T12:07:36Z</time>
      </trkpt>
      <trkpt lat="47.36031" lon="-1.03715">
        <ele>50.301</ele>
        <time>2020-07-19T12:07:37Z</time>
      </trkpt>
      <trkpt lat="47.36113" lon="-1.03523">
        <ele>64.819</ele>
        <time>2020-07-19T12:08:53Z</time>
      </trkpt>
      <trkpt lat="47.36112" lon="-1.03523">
        <ele>62.167</ele>
        <time>2020-07-19T12:08:54Z</time>
      </trkpt>
      <trkpt lat="47.36111" lon="-1.03523">
        <ele>60.894</ele>
        <time>2020-07-19T12:08:55Z</time>
      </trkpt>
      <trkpt lat="47.3611" lon="-1.03523">
        <ele>60.071</ele>
        <time>2020-07-19T12:08:56Z</time>
      </trkpt>
      <trkpt lat="47.3611" lon="-1.03523">
        <ele>60.07</ele>
        <time>2020-07-19T12:08:57Z</time>
      </trkpt>
      <trkpt lat="47.3611" lon="-1.03523">
        <ele>59.802</ele>
        <time>2020-07-19T12:08:58Z</time>
      </trkpt>
      <trkpt lat="47.3611" lon="-1.03523">
        <ele>59.659</ele>
        <time>2020-07-19T12:08:59Z</time>
      </trkpt>
      <trkpt lat="47.36109" lon="-1.03523">
        <ele>59.55</ele>
        <time>2020-07-19T12:09:00Z</time>
      </trkpt>
      <trkpt lat="47.36109" lon="-1.03523">
        <ele>59.458</ele>
        <time>2020-07-19T12:09:01Z</time>
      </trkpt>
      <trkpt lat="47.36109" lon="-1.03523">
        <ele>59.625</ele>
        <time>2020-07-19T12:09:02Z</time>
      </trkpt>
      <trkpt lat="47.3611" lon="-1.03523">
        <ele>59.671</ele>
        <time>2020-07-19T12:09:03Z</time>
      </trkpt>
      <trkpt lat="47.3611" lon="-1.03523">
        <ele>59.719</ele>
        <time>2020-07-19T12:09:04Z</time>
      </trkpt>
      <trkpt lat="47.3611" lon="-1.03523">
        <ele>59.789</ele>
        <time>2020-07-19T12:09:05Z</time>
      </trkpt>
      <trkpt lat="47.3611" lon="-1.03523">
        <ele>60.383</ele>
        <time>2020-07-19T12:09:06Z</time>
      </trkpt>
      <trkpt lat="47.3611" lon="-1.03523">
        <ele>60.303</ele>
        <time>2020-07-19T12:09:07Z</time>
      </trkpt>
      <trkpt lat="47.3611" lon="-1.03523">
        <ele>60.273</ele>
        <time>2020-07-19T12:09:08Z</time>
      </trkpt>
      <trkpt lat="47.3611" lon="-1.03523">
        <ele>60.21</ele>
        <time>2020-07-19T12:09:09Z</time>
      </trkpt>
      <trkpt lat="47.3611" lon="-1.03523">
        <ele>60.172</ele>
        <time>2020-07-19T12:09:10Z</time>
      </trkpt>
      <trkpt lat="47.3611" lon="-1.03523">
        <ele>60.142</ele>
        <time>2020-07-19T12:09:11Z</time>
      </trkpt>
      <trkpt lat="47.3611" lon="-1.03523">
        <ele>60.145</ele>
        <time>2020-07-19T12:09:12Z</time>
      </trkpt>
      <trkpt lat="47.3611" lon="-1.03523">
        <ele>60.12</ele>
        <time>2020-07-19T12:09:13Z</time>
      </trkpt>
      <trkpt lat="47.3611" lon="-1.03523">
        <ele>60.267</ele>
        <time>2020-07-19T12:09:14Z</time>
      </trkpt>
      <trkpt lat="47.3611" lon="-1.03523">
        <ele>60.236</ele>
        <time>2020-07-19T12:09:15Z</time>
      </trkpt>
      <trkpt lat="47.3611" lon="-1.03523">
        <ele>60.215</ele>
        <time>2020-07-19T12:09:16Z</time>
      </trkpt>
      <trkpt lat="47.3611" lon="-1.03523">
        <ele>60.205</ele>
        <time>2020-07-19T12:09:17Z</time>
      </trkpt>
      <trkpt lat="47.3611" lon="-1.03523">
        <ele>60.209</ele>
        <time>2020-07-19T12:09:18Z</time>
      </trkpt>
      <trkpt lat="47.3611" lon="-1.03523">
        <ele>60.221</ele>
        <time>2020-07-19T12:09:19Z</time>
      </trkpt>
      <trkpt lat="47.3611" lon="-1.03523">
        <ele>60.19</ele>
        <time>2020-07-19T12:09:20Z</time>
      </trkpt>
      <trkpt lat="47.3611" lon="-1.03523">
        <ele>58.761</ele>
        <time>2020-07-19T12:09:21Z</time>
      </trkpt>
      <trkpt lat="47.3611" lon="-1.03522">
        <ele>58.542</ele>
        <time>2020-07-19T12:09:22Z</time>
      </trkpt>
      <trkpt lat="47.36109" lon="-1.03522">
        <ele>57.317</ele>
        <time>2020-07-19T12:09:23Z</time>
      </trkpt>
      <trkpt lat="47.36113" lon="-1.03525">
        <ele>57.86</ele>
        <time>2020-07-19T12:09:24Z</time>
      </trkpt>
      <trkpt lat="47.36113" lon="-1.03526">
        <ele>56.688</ele>
        <time>2020-07-19T12:09:25Z</time>
      </trkpt>
      <trkpt lat="47.36112" lon="-1.03528">
        <ele>58.018</ele>
        <time>2020-07-19T12:09:26Z</time>
      </trkpt>
      <trkpt lat="47.36111" lon="-1.03531">
        <ele>58.193</ele>
        <time>2020-07-19T12:09:27Z</time>
      </trkpt>
      <trkpt lat="47.3611" lon="-1.03533">
        <ele>57.475</ele>
        <time>2020-07-19T12:09:28Z</time>
      </trkpt>
      <trkpt lat="47.3611" lon="-1.03535">
        <ele>57.452</ele>
        <time>2020-07-19T12:09:29Z</time>
      </trkpt>
      <trkpt lat="47.36111" lon="-1.03536">
        <ele>56.524</ele>
        <time>2020-07-19T12:09:30Z</time>
      </trkpt>
      <trkpt lat="47.36113" lon="-1.03537">
        <ele>56.295</ele>
        <time>2020-07-19T12:09:31Z</time>
      </trkpt>
      <trkpt lat="47.36115" lon="-1.03536">
        <ele>56.94</ele>
        <time>2020-07-19T12:09:32Z</time>
      </trkpt>
      <trkpt lat="47.36117" lon="-1.03534">
        <ele>56.948</ele>
        <time>2020-07-19T12:09:33Z</time>
      </trkpt>
      <trkpt lat="47.3612" lon="-1.03532">
        <ele>54.925</ele>
        <time>2020-07-19T12:09:34Z</time>
      </trkpt>
      <trkpt lat="47.36123" lon="-1.03531">
        <ele>53.793</ele>
        <time>2020-07-19T12:09:35Z</time>
      </trkpt>
      <trkpt lat="47.36125" lon="-1.03529">
        <ele>53.251</ele>
        <time>2020-07-19T12:09:36Z</time>
      </trkpt>
      <trkpt lat="47.36128" lon="-1.03526">
        <ele>52.457</ele>
        <time>2020-07-19T12:09:37Z</time>
      </trkpt>
      <trkpt lat="47.36131" lon="-1.03523">
        <ele>51.913</ele>
        <time>2020-07-19T12:09:38Z</time>
      </trkpt>
      <trkpt lat="47.36135" lon="-1.0352">
        <ele>51.732</ele>
        <time>2020-07-19T12:09:39Z</time>
      </trkpt>
      <trkpt lat="47.36138" lon="-1.03518">
        <ele>50.961</ele>
        <time>2020-07-19T12:09:40Z</time>
      </trkpt>
      <trkpt lat="47.36142" lon="-1.03514">
        <ele>51.282</ele>
        <time>2020-07-19T12:09:41Z</time>
      </trkpt>
      <trkpt lat="47.36145" lon="-1.0351">
        <ele>51.391</ele>
        <time>2020-07-19T12:09:42Z</time>
      </trkpt>
      <trkpt lat="47.36148" lon="-1.03506">
        <ele>51.496</ele>
        <time>2020-07-19T12:09:43Z</time>
      </trkpt>
      <trkpt lat="47.36151" lon="-1.03502">
        <ele>50.833</ele>
        <time>2020-07-19T12:09:44Z</time>
      </trkpt>
      <trkpt lat="47.36153" lon="-1.03497">
        <ele>50.83</ele>
        <time>2020-07-19T12:09:45Z</time>
      </trkpt>
      <trkpt lat="47.36156" lon="-1.03492">
        <ele>51.531</ele>
        <time>2020-07-19T12:09:46Z</time>
      </trkpt>
      <trkpt lat="47.36157" lon="-1.03487">
        <ele>51.085</ele>
        <time>2020-07-19T12:09:47Z</time>
      </trkpt>
      <trkpt lat="47.36159" lon="-1.03481">
        <ele>50.634</ele>
        <time>2020-07-19T12:09:48Z</time>
      </trkpt>
      <trkpt lat="47.3616" lon="-1.03475">
        <ele>50.884</ele>
        <time>2020-07-19T12:09:49Z</time>
      </trkpt>
      <trkpt lat="47.36161" lon="-1.0347">
        <ele>51.084</ele>
        <time>2020-07-19T12:09:50Z</time>
      </trkpt>
      <trkpt lat="47.36162" lon="-1.03464">
        <ele>50.775</ele>
        <time>2020-07-19T12:09:51Z</time>
      </trkpt>
      <trkpt lat="47.36163" lon="-1.03458">
        <ele>48.518</ele>
        <time>2020-07-19T12:09:52Z</time>
      </trkpt>
      <trkpt lat="47.36164" lon="-1.03453">
        <ele>49.043</ele>
        <time>2020-07-19T12:09:53Z</time>
      </trkpt>
      <trkpt lat="47.36165" lon="-1.03448">
        <ele>49.312</ele>
        <time>2020-07-19T12:09:54Z</time>
      </trkpt>
      <trkpt lat="47.36165" lon="-1.03443">
        <ele>49.187</ele>
        <time>2020-07-19T12:09:55Z</time>
      </trkpt>
      <trkpt lat="47.36167" lon="-1.03437">
        <ele>49.103</ele>
        <time>2020-07-19T12:09:56Z</time>
      </trkpt>
      <trkpt lat="47.36168" lon="-1.03432">
        <ele>48.829</ele>
        <time>2020-07-19T12:09:57Z</time>
      </trkpt>
      <trkpt lat="47.3617" lon="-1.03427">
        <ele>49.428</ele>
        <time>2020-07-19T12:09:58Z</time>
      </trkpt>
      <trkpt lat="47.36172" lon="-1.03422">
        <ele>49.492</ele>
        <time>2020-07-19T12:09:59Z</time>
      </trkpt>
      <trkpt lat="47.36175" lon="-1.03417">
        <ele>49.216</ele>
        <time>2020-07-19T12:10:00Z</time>
      </trkpt>
      <trkpt lat="47.36178" lon="-1.03412">
        <ele>49.809</ele>
        <time>2020-07-19T12:10:01Z</time>
      </trkpt>
      <trkpt lat="47.3618" lon="-1.03408">
        <ele>49.167</ele>
        <time>2020-07-19T12:10:02Z</time>
      </trkpt>
      <trkpt lat="47.36183" lon="-1.03404">
        <ele>49.317</ele>
        <time>2020-07-19T12:10:03Z</time>
      </trkpt>
      <trkpt lat="47.36185" lon="-1.03399">
        <ele>49.572</ele>
        <time>2020-07-19T12:10:04Z</time>
      </trkpt>
      <trkpt lat="47.36187" lon="-1.03394">
        <ele>50.13</ele>
        <time>2020-07-19T12:10:05Z</time>
      </trkpt>
      <trkpt lat="47.36188" lon="-1.03389">
        <ele>50.402</ele>
        <time>2020-07-19T12:10:06Z</time>
      </trkpt>
      <trkpt lat="47.36188" lon="-1.03383">
        <ele>55.961</ele>
        <time>2020-07-19T12:10:07Z</time>
      </trkpt>
      <trkpt lat="47.36189" lon="-1.03378">
        <ele>54.719</ele>
        <time>2020-07-19T12:10:08Z</time>
      </trkpt>
      <trkpt lat="47.36189" lon="-1.03374">
        <ele>53.698</ele>
        <time>2020-07-19T12:10:09Z</time>
      </trkpt>
      <trkpt lat="47.3619" lon="-1.03374">
        <ele>53.045</ele>
        <time>2020-07-19T12:10:10Z</time>
      </trkpt>
      <trkpt lat="47.36191" lon="-1.03375">
        <ele>52.798</ele>
        <time>2020-07-19T12:10:11Z</time>
      </trkpt>
      <trkpt lat="47.36192" lon="-1.03376">
        <ele>52.712</ele>
        <time>2020-07-19T12:10:12Z</time>
      </trkpt>
      <trkpt lat="47.36192" lon="-1.03378">
        <ele>53.195</ele>
        <time>2020-07-19T12:10:13Z</time>
      </trkpt>
      <trkpt lat="47.36191" lon="-1.03383">
        <ele>52.954</ele>
        <time>2020-07-19T12:10:14Z</time>
      </trkpt>
      <trkpt lat="47.3619" lon="-1.03388">
        <ele>53.351</ele>
        <time>2020-07-19T12:10:15Z</time>
      </trkpt>
      <trkpt lat="47.36189" lon="-1.03393">
        <ele>53.113</ele>
        <time>2020-07-19T12:10:16Z</time>
      </trkpt>
      <trkpt lat="47.36188" lon="-1.03397">
        <ele>53.276</ele>
        <time>2020-07-19T12:10:17Z</time>
      </trkpt>
      <trkpt lat="47.36187" lon="-1.03402">
        <ele>53.146</ele>
        <time>2020-07-19T12:10:18Z</time>
      </trkpt>
      <trkpt lat="47.36186" lon="-1.03406">
        <ele>53.114</ele>
        <time>2020-07-19T12:10:19Z</time>
      </trkpt>
      <trkpt lat="47.36185" lon="-1.0341">
        <ele>52.038</ele>
        <time>2020-07-19T12:10:20Z</time>
      </trkpt>
      <trkpt lat="47.36185" lon="-1.03413">
        <ele>51.497</ele>
        <time>2020-07-19T12:10:21Z</time>
      </trkpt>
      <trkpt lat="47.36185" lon="-1.03414">
        <ele>51.655</ele>
        <time>2020-07-19T12:10:22Z</time>
      </trkpt>
      <trkpt lat="47.36185" lon="-1.03415">
        <ele>52.471</ele>
        <time>2020-07-19T12:10:23Z</time>
      </trkpt>
      <trkpt lat="47.36185" lon="-1.03415">
        <ele>52.394</ele>
        <time>2020-07-19T12:10:24Z</time>
      </trkpt>
      <trkpt lat="47.36185" lon="-1.03414">
        <ele>52.462</ele>
        <time>2020-07-19T12:10:25Z</time>
      </trkpt>
      <trkpt lat="47.36185" lon="-1.03414">
        <ele>52.162</ele>
        <time>2020-07-19T12:10:26Z</time>
      </trkpt>
      <trkpt lat="47.36185" lon="-1.03414">
        <ele>55.887</ele>
        <time>2020-07-19T12:10:27Z</time>
      </trkpt>
      <trkpt lat="47.36185" lon="-1.03414">
        <ele>55.235</ele>
        <time>2020-07-19T12:10:28Z</time>
      </trkpt>
      <trkpt lat="47.36185" lon="-1.03414">
        <ele>54.267</ele>
        <time>2020-07-19T12:10:29Z</time>
      </trkpt>
      <trkpt lat="47.36186" lon="-1.03414">
        <ele>53.665</ele>
        <time>2020-07-19T12:10:30Z</time>
      </trkpt>
      <trkpt lat="47.36186" lon="-1.03414">
        <ele>53.158</ele>
        <time>2020-07-19T12:10:31Z</time>
      </trkpt>
      <trkpt lat="47.36186" lon="-1.03414">
        <ele>53.032</ele>
        <time>2020-07-19T12:10:32Z</time>
      </trkpt>
      <trkpt lat="47.36186" lon="-1.03414">
        <ele>52.685</ele>
        <time>2020-07-19T12:10:33Z</time>
      </trkpt>
      <trkpt lat="47.36186" lon="-1.03414">
        <ele>52.605</ele>
        <time>2020-07-19T12:10:34Z</time>
      </trkpt>
      <trkpt lat="47.36186" lon="-1.03414">
        <ele>52.461</ele>
        <time>2020-07-19T12:10:35Z</time>
      </trkpt>
      <trkpt lat="47.36186" lon="-1.03414">
        <ele>52.291</ele>
        <time>2020-07-19T12:10:36Z</time>
      </trkpt>
      <trkpt lat="47.36186" lon="-1.03414">
        <ele>52.389</ele>
        <time>2020-07-19T12:10:37Z</time>
      </trkpt>
      <trkpt lat="47.36186" lon="-1.03414">
        <ele>52.246</ele>
        <time>2020-07-19T12:10:38Z</time>
      </trkpt>
      <trkpt lat="47.36186" lon="-1.03414">
        <ele>52.159</ele>
        <time>2020-07-19T12:10:39Z</time>
      </trkpt>
      <trkpt lat="47.36187" lon="-1.03414">
        <ele>52.145</ele>
        <time>2020-07-19T12:10:40Z</time>
      </trkpt>
      <trkpt lat="47.36187" lon="-1.03414">
        <ele>52.099</ele>
        <time>2020-07-19T12:10:41Z</time>
      </trkpt>
      <trkpt lat="47.36187" lon="-1.03414">
        <ele>52.079</ele>
        <time>2020-07-19T12:10:42Z</time>
      </trkpt>
      <trkpt lat="47.36187" lon="-1.03414">
        <ele>52.005</ele>
        <time>2020-07-19T12:10:43Z</time>
      </trkpt>
      <trkpt lat="47.36187" lon="-1.03414">
        <ele>55.92</ele>
        <time>2020-07-19T12:10:44Z</time>
      </trkpt>
      <trkpt lat="47.36187" lon="-1.03414">
        <ele>54.885</ele>
        <time>2020-07-19T12:10:45Z</time>
      </trkpt>
      <trkpt lat="47.36187" lon="-1.03414">
        <ele>54.131</ele>
        <time>2020-07-19T12:10:46Z</time>
      </trkpt>
      <trkpt lat="47.36187" lon="-1.03415">
        <ele>53.482</ele>
        <time>2020-07-19T12:10:47Z</time>
      </trkpt>
      <trkpt lat="47.36187" lon="-1.03415">
        <ele>54.425</ele>
        <time>2020-07-19T12:10:48Z</time>
      </trkpt>
      <trkpt lat="47.36187" lon="-1.03416">
        <ele>54.719</ele>
        <time>2020-07-19T12:10:49Z</time>
      </trkpt>
      <trkpt lat="47.36188" lon="-1.03415">
        <ele>55.885</ele>
        <time>2020-07-19T12:10:50Z</time>
      </trkpt>
      <trkpt lat="47.36188" lon="-1.03414">
        <ele>56.422</ele>
        <time>2020-07-19T12:10:51Z</time>
      </trkpt>
      <trkpt lat="47.36187" lon="-1.03413">
        <ele>58.32</ele>
        <time>2020-07-19T12:10:52Z</time>
      </trkpt>
      <trkpt lat="47.36187" lon="-1.03413">
        <ele>58.031</ele>
        <time>2020-07-19T12:10:53Z</time>
      </trkpt>
      <trkpt lat="47.36187" lon="-1.03414">
        <ele>56.326</ele>
        <time>2020-07-19T12:10:54Z</time>
      </trkpt>
      <trkpt lat="47.36187" lon="-1.03414">
        <ele>56.021</ele>
        <time>2020-07-19T12:10:55Z</time>
      </trkpt>
      <trkpt lat="47.36187" lon="-1.03414">
        <ele>56.149</ele>
        <time>2020-07-19T12:10:56Z</time>
      </trkpt>
      <trkpt lat="47.36187" lon="-1.03415">
        <ele>55.625</ele>
        <time>2020-07-19T12:10:57Z</time>
      </trkpt>
      <trkpt lat="47.36187" lon="-1.03417">
        <ele>55.893</ele>
        <time>2020-07-19T12:10:58Z</time>
      </trkpt>
      <trkpt lat="47.36186" lon="-1.03418">
        <ele>56.739</ele>
        <time>2020-07-19T12:10:59Z</time>
      </trkpt>
      <trkpt lat="47.36186" lon="-1.03417">
        <ele>56.645</ele>
        <time>2020-07-19T12:11:00Z</time>
      </trkpt>
      <trkpt lat="47.36186" lon="-1.03416">
        <ele>56.509</ele>
        <time>2020-07-19T12:11:01Z</time>
      </trkpt>
      <trkpt lat="47.36186" lon="-1.03413">
        <ele>57.52</ele>
        <time>2020-07-19T12:11:02Z</time>
      </trkpt>
      <trkpt lat="47.36188" lon="-1.03409">
        <ele>57.594</ele>
        <time>2020-07-19T12:11:03Z</time>
      </trkpt>
      <trkpt lat="47.3619" lon="-1.03406">
        <ele>59.032</ele>
        <time>2020-07-19T12:11:04Z</time>
      </trkpt>
      <trkpt lat="47.36192" lon="-1.03402">
        <ele>59.08</ele>
        <time>2020-07-19T12:11:05Z</time>
      </trkpt>
      <trkpt lat="47.36193" lon="-1.03397">
        <ele>58.617</ele>
        <time>2020-07-19T12:11:06Z</time>
      </trkpt>
      <trkpt lat="47.36194" lon="-1.03392">
        <ele>58.676</ele>
        <time>2020-07-19T12:11:07Z</time>
      </trkpt>
      <trkpt lat="47.36195" lon="-1.03387">
        <ele>57.784</ele>
        <time>2020-07-19T12:11:08Z</time>
      </trkpt>
      <trkpt lat="47.36195" lon="-1.03381">
        <ele>57.553</ele>
        <time>2020-07-19T12:11:09Z</time>
      </trkpt>
      <trkpt lat="47.36196" lon="-1.03376">
        <ele>57.633</ele>
        <time>2020-07-19T12:11:10Z</time>
      </trkpt>
      <trkpt lat="47.36197" lon="-1.0337">
        <ele>56.616</ele>
        <time>2020-07-19T12:11:11Z</time>
      </trkpt>
      <trkpt lat="47.36198" lon="-1.03364">
        <ele>56.534</ele>
        <time>2020-07-19T12:11:12Z</time>
      </trkpt>
      <trkpt lat="47.36199" lon="-1.03358">
        <ele>55.75</ele>
        <time>2020-07-19T12:11:13Z</time>
      </trkpt>
      <trkpt lat="47.362" lon="-1.03352">
        <ele>53.196</ele>
        <time>2020-07-19T12:11:14Z</time>
      </trkpt>
      <trkpt lat="47.362" lon="-1.03347">
        <ele>52.922</ele>
        <time>2020-07-19T12:11:15Z</time>
      </trkpt>
      <trkpt lat="47.36201" lon="-1.03341">
        <ele>52.667</ele>
        <time>2020-07-19T12:11:16Z</time>
      </trkpt>
      <trkpt lat="47.36201" lon="-1.03334">
        <ele>53.174</ele>
        <time>2020-07-19T12:11:17Z</time>
      </trkpt>
      <trkpt lat="47.36202" lon="-1.03328">
        <ele>52.662</ele>
        <time>2020-07-19T12:11:18Z</time>
      </trkpt>
      <trkpt lat="47.36203" lon="-1.03323">
        <ele>51.139</ele>
        <time>2020-07-19T12:11:19Z</time>
      </trkpt>
      <trkpt lat="47.36204" lon="-1.03317">
        <ele>50.42</ele>
        <time>2020-07-19T12:11:20Z</time>
      </trkpt>
      <trkpt lat="47.36204" lon="-1.03311">
        <ele>49.313</ele>
        <time>2020-07-19T12:11:21Z</time>
      </trkpt>
      <trkpt lat="47.36205" lon="-1.03305">
        <ele>49.078</ele>
        <time>2020-07-19T12:11:22Z</time>
      </trkpt>
      <trkpt lat="47.36206" lon="-1.03299">
        <ele>50.203</ele>
        <time>2020-07-19T12:11:23Z</time>
      </trkpt>
      <trkpt lat="47.36206" lon="-1.03294">
        <ele>52.228</ele>
        <time>2020-07-19T12:11:24Z</time>
      </trkpt>
      <trkpt lat="47.36207" lon="-1.03288">
        <ele>52.201</ele>
        <time>2020-07-19T12:11:25Z</time>
      </trkpt>
      <trkpt lat="47.36208" lon="-1.03282">
        <ele>52.208</ele>
        <time>2020-07-19T12:11:26Z</time>
      </trkpt>
      <trkpt lat="47.36209" lon="-1.03276">
        <ele>52.099</ele>
        <time>2020-07-19T12:11:27Z</time>
      </trkpt>
      <trkpt lat="47.3621" lon="-1.03269">
        <ele>53.36</ele>
        <time>2020-07-19T12:11:28Z</time>
      </trkpt>
      <trkpt lat="47.36211" lon="-1.03263">
        <ele>54.174</ele>
        <time>2020-07-19T12:11:29Z</time>
      </trkpt>
      <trkpt lat="47.36212" lon="-1.03257">
        <ele>54.552</ele>
        <time>2020-07-19T12:11:30Z</time>
      </trkpt>
      <trkpt lat="47.36213" lon="-1.0325">
        <ele>55.294</ele>
        <time>2020-07-19T12:11:31Z</time>
      </trkpt>
      <trkpt lat="47.36213" lon="-1.03244">
        <ele>55.444</ele>
        <time>2020-07-19T12:11:32Z</time>
      </trkpt>
      <trkpt lat="47.36214" lon="-1.03238">
        <ele>55.197</ele>
        <time>2020-07-19T12:11:33Z</time>
      </trkpt>
      <trkpt lat="47.36215" lon="-1.03232">
        <ele>54.848</ele>
        <time>2020-07-19T12:11:34Z</time>
      </trkpt>
      <trkpt lat="47.36217" lon="-1.03225">
        <ele>55.5</ele>
        <time>2020-07-19T12:11:35Z</time>
      </trkpt>
      <trkpt lat="47.36218" lon="-1.0322">
        <ele>54.868</ele>
        <time>2020-07-19T12:11:36Z</time>
      </trkpt>
      <trkpt lat="47.3622" lon="-1.03214">
        <ele>54.858</ele>
        <time>2020-07-19T12:11:37Z</time>
      </trkpt>
      <trkpt lat="47.36222" lon="-1.03209">
        <ele>53.533</ele>
        <time>2020-07-19T12:11:38Z</time>
      </trkpt>
      <trkpt lat="47.36223" lon="-1.03204">
        <ele>53.819</ele>
        <time>2020-07-19T12:11:39Z</time>
      </trkpt>
      <trkpt lat="47.36225" lon="-1.032">
        <ele>53.332</ele>
        <time>2020-07-19T12:11:40Z</time>
      </trkpt>
      <trkpt lat="47.36226" lon="-1.03195">
        <ele>53.282</ele>
        <time>2020-07-19T12:11:41Z</time>
      </trkpt>
      <trkpt lat="47.36227" lon="-1.03191">
        <ele>54.028</ele>
        <time>2020-07-19T12:11:42Z</time>
      </trkpt>
      <trkpt lat="47.36229" lon="-1.03187">
        <ele>54.293</ele>
        <time>2020-07-19T12:11:43Z</time>
      </trkpt>
      <trkpt lat="47.36232" lon="-1.0314">
        <ele>48.007</ele>
        <time>2020-07-19T12:11:53Z</time>
      </trkpt>
      <trkpt lat="47.36234" lon="-1.03139">
        <ele>49.612</ele>
        <time>2020-07-19T12:11:54Z</time>
      </trkpt>
      <trkpt lat="47.36236" lon="-1.03137">
        <ele>50.712</ele>
        <time>2020-07-19T12:11:55Z</time>
      </trkpt>
      <trkpt lat="47.36237" lon="-1.03135">
        <ele>49.161</ele>
        <time>2020-07-19T12:11:56Z</time>
      </trkpt>
      <trkpt lat="47.36239" lon="-1.03132">
        <ele>48.572</ele>
        <time>2020-07-19T12:11:57Z</time>
      </trkpt>
      <trkpt lat="47.3624" lon="-1.0313">
        <ele>48.956</ele>
        <time>2020-07-19T12:11:58Z</time>
      </trkpt>
      <trkpt lat="47.36241" lon="-1.03127">
        <ele>49.406</ele>
        <time>2020-07-19T12:11:59Z</time>
      </trkpt>
      <trkpt lat="47.36242" lon="-1.03125">
        <ele>49.458</ele>
        <time>2020-07-19T12:12:00Z</time>
      </trkpt>
      <trkpt lat="47.36244" lon="-1.03124">
        <ele>49.289</ele>
        <time>2020-07-19T12:12:01Z</time>
      </trkpt>
      <trkpt lat="47.36248" lon="-1.03125">
        <ele>50.345</ele>
        <time>2020-07-19T12:12:02Z</time>
      </trkpt>
      <trkpt lat="47.36252" lon="-1.03128">
        <ele>50.143</ele>
        <time>2020-07-19T12:12:03Z</time>
      </trkpt>
      <trkpt lat="47.36256" lon="-1.03132">
        <ele>50.403</ele>
        <time>2020-07-19T12:12:04Z</time>
      </trkpt>
      <trkpt lat="47.36261" lon="-1.03137">
        <ele>49.367</ele>
        <time>2020-07-19T12:12:05Z</time>
      </trkpt>
      <trkpt lat="47.36264" lon="-1.03151">
        <ele>48.009</ele>
        <time>2020-07-19T12:12:06Z</time>
      </trkpt>
      <trkpt lat="47.36268" lon="-1.03154">
        <ele>48.347</ele>
        <time>2020-07-19T12:12:07Z</time>
      </trkpt>
      <trkpt lat="47.36272" lon="-1.0316">
        <ele>47.295</ele>
        <time>2020-07-19T12:12:08Z</time>
      </trkpt>
      <trkpt lat="47.36277" lon="-1.03166">
        <ele>47.13</ele>
        <time>2020-07-19T12:12:09Z</time>
      </trkpt>
      <trkpt lat="47.36283" lon="-1.03171">
        <ele>46.482</ele>
        <time>2020-07-19T12:12:10Z</time>
      </trkpt>
      <trkpt lat="47.36289" lon="-1.03172">
        <ele>45.165</ele>
        <time>2020-07-19T12:12:11Z</time>
      </trkpt>
      <trkpt lat="47.36294" lon="-1.0317">
        <ele>45.324</ele>
        <time>2020-07-19T12:12:12Z</time>
      </trkpt>
      <trkpt lat="47.36299" lon="-1.03164">
        <ele>45.925</ele>
        <time>2020-07-19T12:12:13Z</time>
      </trkpt>
      <trkpt lat="47.36299" lon="-1.03156">
        <ele>46.176</ele>
        <time>2020-07-19T12:12:14Z</time>
      </trkpt>
      <trkpt lat="47.36301" lon="-1.03149">
        <ele>46.519</ele>
        <time>2020-07-19T12:12:15Z</time>
      </trkpt>
      <trkpt lat="47.36303" lon="-1.03141">
        <ele>46.261</ele>
        <time>2020-07-19T12:12:16Z</time>
      </trkpt>
      <trkpt lat="47.36305" lon="-1.03134">
        <ele>46.806</ele>
        <time>2020-07-19T12:12:17Z</time>
      </trkpt>
      <trkpt lat="47.36307" lon="-1.03126">
        <ele>47.293</ele>
        <time>2020-07-19T12:12:18Z</time>
      </trkpt>
      <trkpt lat="47.36309" lon="-1.03117">
        <ele>47.672</ele>
        <time>2020-07-19T12:12:19Z</time>
      </trkpt>
      <trkpt lat="47.3631" lon="-1.03109">
        <ele>47.19</ele>
        <time>2020-07-19T12:12:20Z</time>
      </trkpt>
      <trkpt lat="47.36312" lon="-1.03101">
        <ele>46.784</ele>
        <time>2020-07-19T12:12:21Z</time>
      </trkpt>
      <trkpt lat="47.36315" lon="-1.03093">
        <ele>46.358</ele>
        <time>2020-07-19T12:12:22Z</time>
      </trkpt>
      <trkpt lat="47.36317" lon="-1.03084">
        <ele>46.153</ele>
        <time>2020-07-19T12:12:23Z</time>
      </trkpt>
      <trkpt lat="47.36319" lon="-1.03076">
        <ele>46.641</ele>
        <time>2020-07-19T12:12:24Z</time>
      </trkpt>
      <trkpt lat="47.36322" lon="-1.03068">
        <ele>46.693</ele>
        <time>2020-07-19T12:12:25Z</time>
      </trkpt>
      <trkpt lat="47.36323" lon="-1.03059">
        <ele>47.177</ele>
        <time>2020-07-19T12:12:26Z</time>
      </trkpt>
      <trkpt lat="47.36325" lon="-1.0305">
        <ele>46.494</ele>
        <time>2020-07-19T12:12:27Z</time>
      </trkpt>
      <trkpt lat="47.36327" lon="-1.03042">
        <ele>46.292</ele>
        <time>2020-07-19T12:12:28Z</time>
      </trkpt>
      <trkpt lat="47.36328" lon="-1.03033">
        <ele>46.929</ele>
        <time>2020-07-19T12:12:29Z</time>
      </trkpt>
      <trkpt lat="47.3633" lon="-1.03024">
        <ele>46.482</ele>
        <time>2020-07-19T12:12:30Z</time>
      </trkpt>
      <trkpt lat="47.36332" lon="-1.03016">
        <ele>45.436</ele>
        <time>2020-07-19T12:12:31Z</time>
      </trkpt>
      <trkpt lat="47.36337" lon="-1.03009">
        <ele>45.949</ele>
        <time>2020-07-19T12:12:32Z</time>
      </trkpt>
      <trkpt lat="47.36341" lon="-1.03001">
        <ele>47.029</ele>
        <time>2020-07-19T12:12:33Z</time>
      </trkpt>
      <trkpt lat="47.36345" lon="-1.02993">
        <ele>46.95</ele>
        <time>2020-07-19T12:12:34Z</time>
      </trkpt>
      <trkpt lat="47.36349" lon="-1.02986">
        <ele>47.687</ele>
        <time>2020-07-19T12:12:35Z</time>
      </trkpt>
      <trkpt lat="47.36353" lon="-1.02979">
        <ele>48.953</ele>
        <time>2020-07-19T12:12:36Z</time>
      </trkpt>
      <trkpt lat="47.36358" lon="-1.02973">
        <ele>47.511</ele>
        <time>2020-07-19T12:12:37Z</time>
      </trkpt>
      <trkpt lat="47.36362" lon="-1.02967">
        <ele>47.574</ele>
        <time>2020-07-19T12:12:38Z</time>
      </trkpt>
      <trkpt lat="47.36367" lon="-1.02961">
        <ele>47.482</ele>
        <time>2020-07-19T12:12:39Z</time>
      </trkpt>
      <trkpt lat="47.36372" lon="-1.02956">
        <ele>47.777</ele>
        <time>2020-07-19T12:12:40Z</time>
      </trkpt>
      <trkpt lat="47.36378" lon="-1.02951">
        <ele>48.003</ele>
        <time>2020-07-19T12:12:41Z</time>
      </trkpt>
      <trkpt lat="47.36383" lon="-1.02946">
        <ele>47.853</ele>
        <time>2020-07-19T12:12:42Z</time>
      </trkpt>
      <trkpt lat="47.36388" lon="-1.02941">
        <ele>48.365</ele>
        <time>2020-07-19T12:12:43Z</time>
      </trkpt>
      <trkpt lat="47.36393" lon="-1.02936">
        <ele>48.227</ele>
        <time>2020-07-19T12:12:44Z</time>
      </trkpt>
      <trkpt lat="47.36398" lon="-1.0293">
        <ele>48.432</ele>
        <time>2020-07-19T12:12:45Z</time>
      </trkpt>
      <trkpt lat="47.36402" lon="-1.02923">
        <ele>48.958</ele>
        <time>2020-07-19T12:12:46Z</time>
      </trkpt>
      <trkpt lat="47.36404" lon="-1.02916">
        <ele>48.148</ele>
        <time>2020-07-19T12:12:47Z</time>
      </trkpt>
      <trkpt lat="47.36406" lon="-1.02908">
        <ele>48.474</ele>
        <time>2020-07-19T12:12:48Z</time>
      </trkpt>
      <trkpt lat="47.36407" lon="-1.02899">
        <ele>48.358</ele>
        <time>2020-07-19T12:12:49Z</time>
      </trkpt>
      <trkpt lat="47.36406" lon="-1.0289">
        <ele>48.466</ele>
        <time>2020-07-19T12:12:50Z</time>
      </trkpt>
      <trkpt lat="47.36405" lon="-1.02881">
        <ele>47.741</ele>
        <time>2020-07-19T12:12:51Z</time>
      </trkpt>
      <trkpt lat="47.36404" lon="-1.02873">
        <ele>47.89</ele>
        <time>2020-07-19T12:12:52Z</time>
      </trkpt>
      <trkpt lat="47.36403" lon="-1.02864">
        <ele>48.649</ele>
        <time>2020-07-19T12:12:53Z</time>
      </trkpt>
      <trkpt lat="47.36401" lon="-1.02855">
        <ele>49.018</ele>
        <time>2020-07-19T12:12:54Z</time>
      </trkpt>
      <trkpt lat="47.364" lon="-1.02846">
        <ele>49.09</ele>
        <time>2020-07-19T12:12:55Z</time>
      </trkpt>
      <trkpt lat="47.364" lon="-1.02837">
        <ele>49.796</ele>
        <time>2020-07-19T12:12:56Z</time>
      </trkpt>
      <trkpt lat="47.364" lon="-1.02829">
        <ele>49.897</ele>
        <time>2020-07-19T12:12:57Z</time>
      </trkpt>
      <trkpt lat="47.36399" lon="-1.02819">
        <ele>50.015</ele>
        <time>2020-07-19T12:12:58Z</time>
      </trkpt>
      <trkpt lat="47.364" lon="-1.0281">
        <ele>51.317</ele>
        <time>2020-07-19T12:12:59Z</time>
      </trkpt>
      <trkpt lat="47.36399" lon="-1.02801">
        <ele>51.998</ele>
        <time>2020-07-19T12:13:00Z</time>
      </trkpt>
      <trkpt lat="47.36398" lon="-1.02793">
        <ele>51.732</ele>
        <time>2020-07-19T12:13:01Z</time>
      </trkpt>
      <trkpt lat="47.36397" lon="-1.02783">
        <ele>52.246</ele>
        <time>2020-07-19T12:13:02Z</time>
      </trkpt>
      <trkpt lat="47.36395" lon="-1.02774">
        <ele>51.797</ele>
        <time>2020-07-19T12:13:03Z</time>
      </trkpt>
      <trkpt lat="47.36395" lon="-1.02766">
        <ele>52.194</ele>
        <time>2020-07-19T12:13:04Z</time>
      </trkpt>
      <trkpt lat="47.36393" lon="-1.02757">
        <ele>52.34</ele>
        <time>2020-07-19T12:13:05Z</time>
      </trkpt>
      <trkpt lat="47.36391" lon="-1.02751">
        <ele>52.266</ele>
        <time>2020-07-19T12:13:06Z</time>
      </trkpt>
      <trkpt lat="47.36389" lon="-1.02745">
        <ele>52.857</ele>
        <time>2020-07-19T12:13:07Z</time>
      </trkpt>
      <trkpt lat="47.36387" lon="-1.02737">
        <ele>52.409</ele>
        <time>2020-07-19T12:13:08Z</time>
      </trkpt>
      <trkpt lat="47.36386" lon="-1.0273">
        <ele>52.898</ele>
        <time>2020-07-19T12:13:09Z</time>
      </trkpt>
      <trkpt lat="47.36384" lon="-1.02722">
        <ele>52.538</ele>
        <time>2020-07-19T12:13:10Z</time>
      </trkpt>
      <trkpt lat="47.36383" lon="-1.02715">
        <ele>52.592</ele>
        <time>2020-07-19T12:13:11Z</time>
      </trkpt>
      <trkpt lat="47.36382" lon="-1.02708">
        <ele>53.185</ele>
        <time>2020-07-19T12:13:12Z</time>
      </trkpt>
      <trkpt lat="47.36382" lon="-1.027">
        <ele>53.559</ele>
        <time>2020-07-19T12:13:13Z</time>
      </trkpt>
      <trkpt lat="47.36381" lon="-1.02692">
        <ele>53.363</ele>
        <time>2020-07-19T12:13:14Z</time>
      </trkpt>
      <trkpt lat="47.36381" lon="-1.02682">
        <ele>54.184</ele>
        <time>2020-07-19T12:13:15Z</time>
      </trkpt>
      <trkpt lat="47.36381" lon="-1.02674">
        <ele>54.022</ele>
        <time>2020-07-19T12:13:16Z</time>
      </trkpt>
      <trkpt lat="47.36381" lon="-1.02666">
        <ele>54.781</ele>
        <time>2020-07-19T12:13:17Z</time>
      </trkpt>
      <trkpt lat="47.36381" lon="-1.02656">
        <ele>55.596</ele>
        <time>2020-07-19T12:13:18Z</time>
      </trkpt>
      <trkpt lat="47.36381" lon="-1.02647">
        <ele>55.557</ele>
        <time>2020-07-19T12:13:19Z</time>
      </trkpt>
      <trkpt lat="47.36382" lon="-1.02639">
        <ele>55.452</ele>
        <time>2020-07-19T12:13:20Z</time>
      </trkpt>
      <trkpt lat="47.36384" lon="-1.02632">
        <ele>55.89</ele>
        <time>2020-07-19T12:13:21Z</time>
      </trkpt>
      <trkpt lat="47.36385" lon="-1.02625">
        <ele>56.38</ele>
        <time>2020-07-19T12:13:22Z</time>
      </trkpt>
      <trkpt lat="47.36392" lon="-1.02622">
        <ele>56.025</ele>
        <time>2020-07-19T12:13:23Z</time>
      </trkpt>
      <trkpt lat="47.36397" lon="-1.02619">
        <ele>55.591</ele>
        <time>2020-07-19T12:13:24Z</time>
      </trkpt>
      <trkpt lat="47.36403" lon="-1.02616">
        <ele>54.917</ele>
        <time>2020-07-19T12:13:25Z</time>
      </trkpt>
      <trkpt lat="47.36407" lon="-1.02609">
        <ele>55.026</ele>
        <time>2020-07-19T12:13:26Z</time>
      </trkpt>
      <trkpt lat="47.3641" lon="-1.02602">
        <ele>55.533</ele>
        <time>2020-07-19T12:13:27Z</time>
      </trkpt>
      <trkpt lat="47.36412" lon="-1.02594">
        <ele>56.021</ele>
        <time>2020-07-19T12:13:28Z</time>
      </trkpt>
      <trkpt lat="47.36414" lon="-1.02586">
        <ele>56.321</ele>
        <time>2020-07-19T12:13:29Z</time>
      </trkpt>
      <trkpt lat="47.36415" lon="-1.02578">
        <ele>55.876</ele>
        <time>2020-07-19T12:13:30Z</time>
      </trkpt>
      <trkpt lat="47.36416" lon="-1.02569">
        <ele>55.829</ele>
        <time>2020-07-19T12:13:31Z</time>
      </trkpt>
      <trkpt lat="47.36416" lon="-1.02561">
        <ele>54.978</ele>
        <time>2020-07-19T12:13:32Z</time>
      </trkpt>
      <trkpt lat="47.36417" lon="-1.02552">
        <ele>54.914</ele>
        <time>2020-07-19T12:13:33Z</time>
      </trkpt>
      <trkpt lat="47.36418" lon="-1.02543">
        <ele>55.009</ele>
        <time>2020-07-19T12:13:34Z</time>
      </trkpt>
      <trkpt lat="47.36419" lon="-1.02535">
        <ele>52.669</ele>
        <time>2020-07-19T12:13:35Z</time>
      </trkpt>
      <trkpt lat="47.3642" lon="-1.02524">
        <ele>52.429</ele>
        <time>2020-07-19T12:13:36Z</time>
      </trkpt>
      <trkpt lat="47.36421" lon="-1.02513">
        <ele>52.6</ele>
        <time>2020-07-19T12:13:37Z</time>
      </trkpt>
      <trkpt lat="47.36422" lon="-1.02501">
        <ele>52.35</ele>
        <time>2020-07-19T12:13:38Z</time>
      </trkpt>
      <trkpt lat="47.36422" lon="-1.02489">
        <ele>52.42</ele>
        <time>2020-07-19T12:13:39Z</time>
      </trkpt>
      <trkpt lat="47.36422" lon="-1.02478">
        <ele>52.17</ele>
        <time>2020-07-19T12:13:40Z</time>
      </trkpt>
      <trkpt lat="47.36422" lon="-1.02467">
        <ele>51.194</ele>
        <time>2020-07-19T12:13:41Z</time>
      </trkpt>
      <trkpt lat="47.36422" lon="-1.02457">
        <ele>50.957</ele>
        <time>2020-07-19T12:13:42Z</time>
      </trkpt>
      <trkpt lat="47.36422" lon="-1.02446">
        <ele>49.966</ele>
        <time>2020-07-19T12:13:43Z</time>
      </trkpt>
      <trkpt lat="47.36422" lon="-1.02435">
        <ele>48.96</ele>
        <time>2020-07-19T12:13:44Z</time>
      </trkpt>
      <trkpt lat="47.36423" lon="-1.02423">
        <ele>48.723</ele>
        <time>2020-07-19T12:13:45Z</time>
      </trkpt>
      <trkpt lat="47.36424" lon="-1.02411">
        <ele>48.547</ele>
        <time>2020-07-19T12:13:46Z</time>
      </trkpt>
      <trkpt lat="47.36425" lon="-1.024">
        <ele>48.303</ele>
        <time>2020-07-19T12:13:47Z</time>
      </trkpt>
      <trkpt lat="47.36426" lon="-1.02389">
        <ele>48.799</ele>
        <time>2020-07-19T12:13:48Z</time>
      </trkpt>
      <trkpt lat="47.36428" lon="-1.02378">
        <ele>49.086</ele>
        <time>2020-07-19T12:13:49Z</time>
      </trkpt>
      <trkpt lat="47.36428" lon="-1.02366">
        <ele>48.058</ele>
        <time>2020-07-19T12:13:50Z</time>
      </trkpt>
      <trkpt lat="47.36429" lon="-1.02354">
        <ele>48.255</ele>
        <time>2020-07-19T12:13:51Z</time>
      </trkpt>
      <trkpt lat="47.3643" lon="-1.02343">
        <ele>48.556</ele>
        <time>2020-07-19T12:13:52Z</time>
      </trkpt>
      <trkpt lat="47.36431" lon="-1.02333">
        <ele>46.868</ele>
        <time>2020-07-19T12:13:53Z</time>
      </trkpt>
      <trkpt lat="47.36433" lon="-1.02322">
        <ele>46.566</ele>
        <time>2020-07-19T12:13:54Z</time>
      </trkpt>
      <trkpt lat="47.36434" lon="-1.02311">
        <ele>46.454</ele>
        <time>2020-07-19T12:13:55Z</time>
      </trkpt>
      <trkpt lat="47.36435" lon="-1.023">
        <ele>46.554</ele>
        <time>2020-07-19T12:13:56Z</time>
      </trkpt>
      <trkpt lat="47.36436" lon="-1.02289">
        <ele>46.412</ele>
        <time>2020-07-19T12:13:57Z</time>
      </trkpt>
      <trkpt lat="47.36436" lon="-1.02278">
        <ele>45.885</ele>
        <time>2020-07-19T12:13:58Z</time>
      </trkpt>
      <trkpt lat="47.36437" lon="-1.02267">
        <ele>45.81</ele>
        <time>2020-07-19T12:13:59Z</time>
      </trkpt>
      <trkpt lat="47.36439" lon="-1.02257">
        <ele>45.901</ele>
        <time>2020-07-19T12:14:00Z</time>
      </trkpt>
      <trkpt lat="47.3644" lon="-1.02246">
        <ele>45.609</ele>
        <time>2020-07-19T12:14:01Z</time>
      </trkpt>
      <trkpt lat="47.3644" lon="-1.02234">
        <ele>45.998</ele>
        <time>2020-07-19T12:14:02Z</time>
      </trkpt>
      <trkpt lat="47.36442" lon="-1.02223">
        <ele>46.457</ele>
        <time>2020-07-19T12:14:03Z</time>
      </trkpt>
      <trkpt lat="47.36444" lon="-1.02213">
        <ele>45.316</ele>
        <time>2020-07-19T12:14:04Z</time>
      </trkpt>
      <trkpt lat="47.36447" lon="-1.02202">
        <ele>45.531</ele>
        <time>2020-07-19T12:14:05Z</time>
      </trkpt>
      <trkpt lat="47.36449" lon="-1.02192">
        <ele>44.721</ele>
        <time>2020-07-19T12:14:06Z</time>
      </trkpt>
      <trkpt lat="47.36452" lon="-1.02181">
        <ele>45.02</ele>
        <time>2020-07-19T12:14:07Z</time>
      </trkpt>
      <trkpt lat="47.36455" lon="-1.02171">
        <ele>45.918</ele>
        <time>2020-07-19T12:14:08Z</time>
      </trkpt>
      <trkpt lat="47.36456" lon="-1.0216">
        <ele>46.909</ele>
        <time>2020-07-19T12:14:09Z</time>
      </trkpt>
      <trkpt lat="47.36456" lon="-1.02149">
        <ele>46.722</ele>
        <time>2020-07-19T12:14:10Z</time>
      </trkpt>
      <trkpt lat="47.36455" lon="-1.02138">
        <ele>46.171</ele>
        <time>2020-07-19T12:14:11Z</time>
      </trkpt>
      <trkpt lat="47.36454" lon="-1.02128">
        <ele>45.738</ele>
        <time>2020-07-19T12:14:12Z</time>
      </trkpt>
      <trkpt lat="47.36453" lon="-1.02119">
        <ele>46.057</ele>
        <time>2020-07-19T12:14:13Z</time>
      </trkpt>
      <trkpt lat="47.36454" lon="-1.02109">
        <ele>46.587</ele>
        <time>2020-07-19T12:14:14Z</time>
      </trkpt>
      <trkpt lat="47.36454" lon="-1.021">
        <ele>46.12</ele>
        <time>2020-07-19T12:14:15Z</time>
      </trkpt>
      <trkpt lat="47.36453" lon="-1.02092">
        <ele>44.862</ele>
        <time>2020-07-19T12:14:16Z</time>
      </trkpt>
      <trkpt lat="47.36453" lon="-1.02082">
        <ele>44.39</ele>
        <time>2020-07-19T12:14:17Z</time>
      </trkpt>
      <trkpt lat="47.36454" lon="-1.02073">
        <ele>44.502</ele>
        <time>2020-07-19T12:14:18Z</time>
      </trkpt>
      <trkpt lat="47.36455" lon="-1.02064">
        <ele>44.41</ele>
        <time>2020-07-19T12:14:19Z</time>
      </trkpt>
      <trkpt lat="47.36456" lon="-1.02054">
        <ele>44.476</ele>
        <time>2020-07-19T12:14:20Z</time>
      </trkpt>
      <trkpt lat="47.36457" lon="-1.02045">
        <ele>44.887</ele>
        <time>2020-07-19T12:14:21Z</time>
      </trkpt>
      <trkpt lat="47.36458" lon="-1.02036">
        <ele>45.236</ele>
        <time>2020-07-19T12:14:22Z</time>
      </trkpt>
      <trkpt lat="47.36458" lon="-1.02026">
        <ele>45.764</ele>
        <time>2020-07-19T12:14:23Z</time>
      </trkpt>
      <trkpt lat="47.36459" lon="-1.02016">
        <ele>45.54</ele>
        <time>2020-07-19T12:14:24Z</time>
      </trkpt>
      <trkpt lat="47.36459" lon="-1.02006">
        <ele>45.338</ele>
        <time>2020-07-19T12:14:25Z</time>
      </trkpt>
      <trkpt lat="47.36459" lon="-1.01998">
        <ele>46.069</ele>
        <time>2020-07-19T12:14:26Z</time>
      </trkpt>
      <trkpt lat="47.3646" lon="-1.01988">
        <ele>46.813</ele>
        <time>2020-07-19T12:14:27Z</time>
      </trkpt>
      <trkpt lat="47.36459" lon="-1.01978">
        <ele>47.537</ele>
        <time>2020-07-19T12:14:28Z</time>
      </trkpt>
      <trkpt lat="47.36459" lon="-1.01967">
        <ele>47.373</ele>
        <time>2020-07-19T12:14:29Z</time>
      </trkpt>
      <trkpt lat="47.36459" lon="-1.01957">
        <ele>47.219</ele>
        <time>2020-07-19T12:14:30Z</time>
      </trkpt>
      <trkpt lat="47.3646" lon="-1.01947">
        <ele>45.806</ele>
        <time>2020-07-19T12:14:31Z</time>
      </trkpt>
      <trkpt lat="47.3646" lon="-1.01937">
        <ele>45.571</ele>
        <time>2020-07-19T12:14:32Z</time>
      </trkpt>
      <trkpt lat="47.36461" lon="-1.01926">
        <ele>45.924</ele>
        <time>2020-07-19T12:14:33Z</time>
      </trkpt>
      <trkpt lat="47.3646" lon="-1.01916">
        <ele>46.183</ele>
        <time>2020-07-19T12:14:34Z</time>
      </trkpt>
      <trkpt lat="47.3646" lon="-1.01906">
        <ele>46.415</ele>
        <time>2020-07-19T12:14:35Z</time>
      </trkpt>
      <trkpt lat="47.36459" lon="-1.01896">
        <ele>46.669</ele>
        <time>2020-07-19T12:14:36Z</time>
      </trkpt>
      <trkpt lat="47.36458" lon="-1.01886">
        <ele>47.121</ele>
        <time>2020-07-19T12:14:37Z</time>
      </trkpt>
      <trkpt lat="47.36458" lon="-1.01876">
        <ele>47.263</ele>
        <time>2020-07-19T12:14:38Z</time>
      </trkpt>
      <trkpt lat="47.36458" lon="-1.01866">
        <ele>47.797</ele>
        <time>2020-07-19T12:14:39Z</time>
      </trkpt>
      <trkpt lat="47.36457" lon="-1.01857">
        <ele>48.158</ele>
        <time>2020-07-19T12:14:40Z</time>
      </trkpt>
      <trkpt lat="47.36455" lon="-1.01848">
        <ele>47.73</ele>
        <time>2020-07-19T12:14:41Z</time>
      </trkpt>
      <trkpt lat="47.36454" lon="-1.01838">
        <ele>48.044</ele>
        <time>2020-07-19T12:14:42Z</time>
      </trkpt>
      <trkpt lat="47.36453" lon="-1.01829">
        <ele>47.59</ele>
        <time>2020-07-19T12:14:43Z</time>
      </trkpt>
      <trkpt lat="47.36452" lon="-1.01819">
        <ele>48.219</ele>
        <time>2020-07-19T12:14:44Z</time>
      </trkpt>
      <trkpt lat="47.36451" lon="-1.01809">
        <ele>48.472</ele>
        <time>2020-07-19T12:14:45Z</time>
      </trkpt>
      <trkpt lat="47.3645" lon="-1.01799">
        <ele>48.691</ele>
        <time>2020-07-19T12:14:46Z</time>
      </trkpt>
      <trkpt lat="47.36449" lon="-1.01788">
        <ele>49.067</ele>
        <time>2020-07-19T12:14:47Z</time>
      </trkpt>
      <trkpt lat="47.36448" lon="-1.01778">
        <ele>48.922</ele>
        <time>2020-07-19T12:14:48Z</time>
      </trkpt>
      <trkpt lat="47.36446" lon="-1.01768">
        <ele>47.713</ele>
        <time>2020-07-19T12:14:49Z</time>
      </trkpt>
      <trkpt lat="47.36444" lon="-1.01758">
        <ele>46.859</ele>
        <time>2020-07-19T12:14:50Z</time>
      </trkpt>
      <trkpt lat="47.36442" lon="-1.01747">
        <ele>46.124</ele>
        <time>2020-07-19T12:14:51Z</time>
      </trkpt>
      <trkpt lat="47.36441" lon="-1.01736">
        <ele>47.111</ele>
        <time>2020-07-19T12:14:52Z</time>
      </trkpt>
      <trkpt lat="47.3644" lon="-1.01726">
        <ele>47.225</ele>
        <time>2020-07-19T12:14:53Z</time>
      </trkpt>
      <trkpt lat="47.36438" lon="-1.01715">
        <ele>46.825</ele>
        <time>2020-07-19T12:14:54Z</time>
      </trkpt>
      <trkpt lat="47.36436" lon="-1.01704">
        <ele>46.655</ele>
        <time>2020-07-19T12:14:55Z</time>
      </trkpt>
      <trkpt lat="47.36435" lon="-1.01694">
        <ele>46.272</ele>
        <time>2020-07-19T12:14:56Z</time>
      </trkpt>
      <trkpt lat="47.36434" lon="-1.01684">
        <ele>46.197</ele>
        <time>2020-07-19T12:14:57Z</time>
      </trkpt>
      <trkpt lat="47.36432" lon="-1.01673">
        <ele>45.853</ele>
        <time>2020-07-19T12:14:58Z</time>
      </trkpt>
      <trkpt lat="47.36431" lon="-1.01662">
        <ele>45.587</ele>
        <time>2020-07-19T12:14:59Z</time>
      </trkpt>
      <trkpt lat="47.3643" lon="-1.01651">
        <ele>45.378</ele>
        <time>2020-07-19T12:15:00Z</time>
      </trkpt>
      <trkpt lat="47.36429" lon="-1.01641">
        <ele>44.783</ele>
        <time>2020-07-19T12:15:01Z</time>
      </trkpt>
      <trkpt lat="47.36428" lon="-1.01631">
        <ele>44.886</ele>
        <time>2020-07-19T12:15:02Z</time>
      </trkpt>
      <trkpt lat="47.36428" lon="-1.01619">
        <ele>45.373</ele>
        <time>2020-07-19T12:15:03Z</time>
      </trkpt>
      <trkpt lat="47.36427" lon="-1.01609">
        <ele>45.446</ele>
        <time>2020-07-19T12:15:04Z</time>
      </trkpt>
      <trkpt lat="47.36425" lon="-1.01599">
        <ele>45.7</ele>
        <time>2020-07-19T12:15:05Z</time>
      </trkpt>
      <trkpt lat="47.36423" lon="-1.0159">
        <ele>46.03</ele>
        <time>2020-07-19T12:15:06Z</time>
      </trkpt>
      <trkpt lat="47.36421" lon="-1.0158">
        <ele>46.538</ele>
        <time>2020-07-19T12:15:07Z</time>
      </trkpt>
      <trkpt lat="47.36418" lon="-1.01571">
        <ele>46.502</ele>
        <time>2020-07-19T12:15:08Z</time>
      </trkpt>
      <trkpt lat="47.36416" lon="-1.01564">
        <ele>46.605</ele>
        <time>2020-07-19T12:15:09Z</time>
      </trkpt>
      <trkpt lat="47.36415" lon="-1.01555">
        <ele>47.137</ele>
        <time>2020-07-19T12:15:10Z</time>
      </trkpt>
      <trkpt lat="47.36413" lon="-1.01548">
        <ele>46.911</ele>
        <time>2020-07-19T12:15:11Z</time>
      </trkpt>
      <trkpt lat="47.36413" lon="-1.0154">
        <ele>47.215</ele>
        <time>2020-07-19T12:15:12Z</time>
      </trkpt>
      <trkpt lat="47.36412" lon="-1.01531">
        <ele>47.784</ele>
        <time>2020-07-19T12:15:13Z</time>
      </trkpt>
      <trkpt lat="47.36413" lon="-1.01526">
        <ele>47.533</ele>
        <time>2020-07-19T12:15:14Z</time>
      </trkpt>
      <trkpt lat="47.36413" lon="-1.01518">
        <ele>47.293</ele>
        <time>2020-07-19T12:15:15Z</time>
      </trkpt>
      <trkpt lat="47.36414" lon="-1.01511">
        <ele>46.701</ele>
        <time>2020-07-19T12:15:16Z</time>
      </trkpt>
      <trkpt lat="47.36414" lon="-1.01505">
        <ele>46.258</ele>
        <time>2020-07-19T12:15:17Z</time>
      </trkpt>
      <trkpt lat="47.36415" lon="-1.01499">
        <ele>46.174</ele>
        <time>2020-07-19T12:15:18Z</time>
      </trkpt>
      <trkpt lat="47.36416" lon="-1.01494">
        <ele>45.918</ele>
        <time>2020-07-19T12:15:19Z</time>
      </trkpt>
      <trkpt lat="47.36417" lon="-1.01488">
        <ele>45.642</ele>
        <time>2020-07-19T12:15:20Z</time>
      </trkpt>
      <trkpt lat="47.3642" lon="-1.01483">
        <ele>46.114</ele>
        <time>2020-07-19T12:15:21Z</time>
      </trkpt>
      <trkpt lat="47.36421" lon="-1.01478">
        <ele>46.338</ele>
        <time>2020-07-19T12:15:22Z</time>
      </trkpt>
      <trkpt lat="47.36421" lon="-1.01473">
        <ele>46.079</ele>
        <time>2020-07-19T12:15:23Z</time>
      </trkpt>
      <trkpt lat="47.36421" lon="-1.01467">
        <ele>46.167</ele>
        <time>2020-07-19T12:15:24Z</time>
      </trkpt>
      <trkpt lat="47.36421" lon="-1.01462">
        <ele>45.905</ele>
        <time>2020-07-19T12:15:25Z</time>
      </trkpt>
      <trkpt lat="47.36421" lon="-1.01457">
        <ele>46.341</ele>
        <time>2020-07-19T12:15:26Z</time>
      </trkpt>
      <trkpt lat="47.36421" lon="-1.01453">
        <ele>45.766</ele>
        <time>2020-07-19T12:15:27Z</time>
      </trkpt>
      <trkpt lat="47.3642" lon="-1.01447">
        <ele>45.662</ele>
        <time>2020-07-19T12:15:28Z</time>
      </trkpt>
      <trkpt lat="47.36419" lon="-1.01442">
        <ele>46.093</ele>
        <time>2020-07-19T12:15:29Z</time>
      </trkpt>
      <trkpt lat="47.36414" lon="-1.01434">
        <ele>47.736</ele>
        <time>2020-07-19T12:15:30Z</time>
      </trkpt>
      <trkpt lat="47.36412" lon="-1.01429">
        <ele>48.928</ele>
        <time>2020-07-19T12:15:31Z</time>
      </trkpt>
      <trkpt lat="47.36407" lon="-1.01424">
        <ele>49.405</ele>
        <time>2020-07-19T12:15:32Z</time>
      </trkpt>
      <trkpt lat="47.36404" lon="-1.0142">
        <ele>50.252</ele>
        <time>2020-07-19T12:15:33Z</time>
      </trkpt>
      <trkpt lat="47.364" lon="-1.01416">
        <ele>50.659</ele>
        <time>2020-07-19T12:15:34Z</time>
      </trkpt>
      <trkpt lat="47.36396" lon="-1.01412">
        <ele>51.341</ele>
        <time>2020-07-19T12:15:35Z</time>
      </trkpt>
      <trkpt lat="47.36392" lon="-1.01412">
        <ele>52.217</ele>
        <time>2020-07-19T12:15:36Z</time>
      </trkpt>
      <trkpt lat="47.36388" lon="-1.01413">
        <ele>54.458</ele>
        <time>2020-07-19T12:15:37Z</time>
      </trkpt>
      <trkpt lat="47.36386" lon="-1.0142">
        <ele>55.571</ele>
        <time>2020-07-19T12:15:38Z</time>
      </trkpt>
      <trkpt lat="47.36385" lon="-1.01427">
        <ele>55.599</ele>
        <time>2020-07-19T12:15:39Z</time>
      </trkpt>
      <trkpt lat="47.36386" lon="-1.01433">
        <ele>55.812</ele>
        <time>2020-07-19T12:15:40Z</time>
      </trkpt>
      <trkpt lat="47.36387" lon="-1.01438">
        <ele>56.204</ele>
        <time>2020-07-19T12:15:41Z</time>
      </trkpt>
      <trkpt lat="47.36387" lon="-1.01442">
        <ele>56.221</ele>
        <time>2020-07-19T12:15:42Z</time>
      </trkpt>
      <trkpt lat="47.36388" lon="-1.01446">
        <ele>56.27</ele>
        <time>2020-07-19T12:15:43Z</time>
      </trkpt>
      <trkpt lat="47.36389" lon="-1.0145">
        <ele>55.331</ele>
        <time>2020-07-19T12:15:44Z</time>
      </trkpt>
      <trkpt lat="47.36388" lon="-1.01454">
        <ele>55.703</ele>
        <time>2020-07-19T12:15:45Z</time>
      </trkpt>
      <trkpt lat="47.36385" lon="-1.01458">
        <ele>55.725</ele>
        <time>2020-07-19T12:15:46Z</time>
      </trkpt>
      <trkpt lat="47.36382" lon="-1.01462">
        <ele>55.361</ele>
        <time>2020-07-19T12:15:47Z</time>
      </trkpt>
      <trkpt lat="47.36377" lon="-1.01465">
        <ele>55.186</ele>
        <time>2020-07-19T12:15:48Z</time>
      </trkpt>
      <trkpt lat="47.36373" lon="-1.01469">
        <ele>55.678</ele>
        <time>2020-07-19T12:15:49Z</time>
      </trkpt>
      <trkpt lat="47.36368" lon="-1.01471">
        <ele>55.746</ele>
        <time>2020-07-19T12:15:50Z</time>
      </trkpt>
      <trkpt lat="47.36365" lon="-1.01472">
        <ele>55.066</ele>
        <time>2020-07-19T12:15:51Z</time>
      </trkpt>
      <trkpt lat="47.36361" lon="-1.01472">
        <ele>55.526</ele>
        <time>2020-07-19T12:15:52Z</time>
      </trkpt>
      <trkpt lat="47.3636" lon="-1.01463">
        <ele>55.926</ele>
        <time>2020-07-19T12:15:53Z</time>
      </trkpt>
      <trkpt lat="47.36358" lon="-1.01457">
        <ele>56.086</ele>
        <time>2020-07-19T12:15:54Z</time>
      </trkpt>
      <trkpt lat="47.36356" lon="-1.01452">
        <ele>55.792</ele>
        <time>2020-07-19T12:15:55Z</time>
      </trkpt>
      <trkpt lat="47.36353" lon="-1.01448">
        <ele>55.851</ele>
        <time>2020-07-19T12:15:56Z</time>
      </trkpt>
      <trkpt lat="47.36351" lon="-1.01443">
        <ele>58.093</ele>
        <time>2020-07-19T12:15:57Z</time>
      </trkpt>
      <trkpt lat="47.36349" lon="-1.01441">
        <ele>57.979</ele>
        <time>2020-07-19T12:15:58Z</time>
      </trkpt>
      <trkpt lat="47.36341" lon="-1.01444">
        <ele>57.934</ele>
        <time>2020-07-19T12:15:59Z</time>
      </trkpt>
      <trkpt lat="47.36339" lon="-1.01444">
        <ele>59.775</ele>
        <time>2020-07-19T12:16:00Z</time>
      </trkpt>
      <trkpt lat="47.36333" lon="-1.01447">
        <ele>58.662</ele>
        <time>2020-07-19T12:16:01Z</time>
      </trkpt>
      <trkpt lat="47.36329" lon="-1.01448">
        <ele>59.301</ele>
        <time>2020-07-19T12:16:02Z</time>
      </trkpt>
      <trkpt lat="47.36323" lon="-1.01449">
        <ele>59.243</ele>
        <time>2020-07-19T12:16:03Z</time>
      </trkpt>
      <trkpt lat="47.36319" lon="-1.01449">
        <ele>60.472</ele>
        <time>2020-07-19T12:16:04Z</time>
      </trkpt>
      <trkpt lat="47.36315" lon="-1.0145">
        <ele>58.323</ele>
        <time>2020-07-19T12:16:05Z</time>
      </trkpt>
      <trkpt lat="47.36309" lon="-1.01453">
        <ele>57.915</ele>
        <time>2020-07-19T12:16:06Z</time>
      </trkpt>
      <trkpt lat="47.36305" lon="-1.01455">
        <ele>57.218</ele>
        <time>2020-07-19T12:16:07Z</time>
      </trkpt>
      <trkpt lat="47.36302" lon="-1.01458">
        <ele>56.212</ele>
        <time>2020-07-19T12:16:08Z</time>
      </trkpt>
      <trkpt lat="47.36297" lon="-1.01461">
        <ele>56.622</ele>
        <time>2020-07-19T12:16:09Z</time>
      </trkpt>
      <trkpt lat="47.36293" lon="-1.01462">
        <ele>56.622</ele>
        <time>2020-07-19T12:16:10Z</time>
      </trkpt>
      <trkpt lat="47.36288" lon="-1.01463">
        <ele>55.497</ele>
        <time>2020-07-19T12:16:11Z</time>
      </trkpt>
      <trkpt lat="47.36283" lon="-1.01465">
        <ele>55.634</ele>
        <time>2020-07-19T12:16:12Z</time>
      </trkpt>
      <trkpt lat="47.36279" lon="-1.01467">
        <ele>58.108</ele>
        <time>2020-07-19T12:16:13Z</time>
      </trkpt>
      <trkpt lat="47.36274" lon="-1.01469">
        <ele>58.51</ele>
        <time>2020-07-19T12:16:14Z</time>
      </trkpt>
      <trkpt lat="47.3627" lon="-1.01473">
        <ele>59.81</ele>
        <time>2020-07-19T12:16:15Z</time>
      </trkpt>
      <trkpt lat="47.36265" lon="-1.01477">
        <ele>59.077</ele>
        <time>2020-07-19T12:16:16Z</time>
      </trkpt>
      <trkpt lat="47.3626" lon="-1.01481">
        <ele>59.72</ele>
        <time>2020-07-19T12:16:17Z</time>
      </trkpt>
      <trkpt lat="47.36256" lon="-1.01485">
        <ele>61.832</ele>
        <time>2020-07-19T12:16:18Z</time>
      </trkpt>
      <trkpt lat="47.36251" lon="-1.01489">
        <ele>61.2</ele>
        <time>2020-07-19T12:16:19Z</time>
      </trkpt>
      <trkpt lat="47.36247" lon="-1.01495">
        <ele>61.975</ele>
        <time>2020-07-19T12:16:20Z</time>
      </trkpt>
      <trkpt lat="47.36243" lon="-1.01499">
        <ele>62.084</ele>
        <time>2020-07-19T12:16:21Z</time>
      </trkpt>
      <trkpt lat="47.36239" lon="-1.01504">
        <ele>62.295</ele>
        <time>2020-07-19T12:16:22Z</time>
      </trkpt>
      <trkpt lat="47.36236" lon="-1.01508">
        <ele>62.024</ele>
        <time>2020-07-19T12:16:23Z</time>
      </trkpt>
      <trkpt lat="47.36232" lon="-1.01512">
        <ele>62.269</ele>
        <time>2020-07-19T12:16:24Z</time>
      </trkpt>
      <trkpt lat="47.36228" lon="-1.01516">
        <ele>62.744</ele>
        <time>2020-07-19T12:16:25Z</time>
      </trkpt>
      <trkpt lat="47.36225" lon="-1.0152">
        <ele>63.285</ele>
        <time>2020-07-19T12:16:26Z</time>
      </trkpt>
      <trkpt lat="47.36221" lon="-1.01523">
        <ele>64.313</ele>
        <time>2020-07-19T12:16:27Z</time>
      </trkpt>
      <trkpt lat="47.36218" lon="-1.01527">
        <ele>64.28</ele>
        <time>2020-07-19T12:16:28Z</time>
      </trkpt>
      <trkpt lat="47.36214" lon="-1.01531">
        <ele>64.181</ele>
        <time>2020-07-19T12:16:29Z</time>
      </trkpt>
      <trkpt lat="47.36212" lon="-1.01535">
        <ele>64.07</ele>
        <time>2020-07-19T12:16:30Z</time>
      </trkpt>
      <trkpt lat="47.36208" lon="-1.01539">
        <ele>65.259</ele>
        <time>2020-07-19T12:16:31Z</time>
      </trkpt>
      <trkpt lat="47.36205" lon="-1.01544">
        <ele>65.194</ele>
        <time>2020-07-19T12:16:32Z</time>
      </trkpt>
      <trkpt lat="47.36202" lon="-1.01548">
        <ele>65.082</ele>
        <time>2020-07-19T12:16:33Z</time>
      </trkpt>
      <trkpt lat="47.36197" lon="-1.01551">
        <ele>65.369</ele>
        <time>2020-07-19T12:16:34Z</time>
      </trkpt>
      <trkpt lat="47.36193" lon="-1.01554">
        <ele>65.775</ele>
        <time>2020-07-19T12:16:35Z</time>
      </trkpt>
      <trkpt lat="47.36189" lon="-1.01555">
        <ele>66.059</ele>
        <time>2020-07-19T12:16:36Z</time>
      </trkpt>
      <trkpt lat="47.36185" lon="-1.01559">
        <ele>64.969</ele>
        <time>2020-07-19T12:16:37Z</time>
      </trkpt>
      <trkpt lat="47.36181" lon="-1.01561">
        <ele>66.644</ele>
        <time>2020-07-19T12:16:38Z</time>
      </trkpt>
      <trkpt lat="47.36179" lon="-1.01563">
        <ele>64.855</ele>
        <time>2020-07-19T12:16:39Z</time>
      </trkpt>
      <trkpt lat="47.36176" lon="-1.01565">
        <ele>63.879</ele>
        <time>2020-07-19T12:16:40Z</time>
      </trkpt>
      <trkpt lat="47.36173" lon="-1.01566">
        <ele>62.923</ele>
        <time>2020-07-19T12:16:41Z</time>
      </trkpt>
      <trkpt lat="47.3617" lon="-1.01566">
        <ele>62.455</ele>
        <time>2020-07-19T12:16:42Z</time>
      </trkpt>
      <trkpt lat="47.36168" lon="-1.01564">
        <ele>61.708</ele>
        <time>2020-07-19T12:16:43Z</time>
      </trkpt>
      <trkpt lat="47.36164" lon="-1.01562">
        <ele>60.624</ele>
        <time>2020-07-19T12:16:44Z</time>
      </trkpt>
      <trkpt lat="47.36161" lon="-1.0156">
        <ele>60.536</ele>
        <time>2020-07-19T12:16:45Z</time>
      </trkpt>
      <trkpt lat="47.36156" lon="-1.01557">
        <ele>61.535</ele>
        <time>2020-07-19T12:16:46Z</time>
      </trkpt>
      <trkpt lat="47.36152" lon="-1.01554">
        <ele>62.164</ele>
        <time>2020-07-19T12:16:47Z</time>
      </trkpt>
      <trkpt lat="47.36148" lon="-1.01551">
        <ele>62.466</ele>
        <time>2020-07-19T12:16:48Z</time>
      </trkpt>
      <trkpt lat="47.36143" lon="-1.01546">
        <ele>62.947</ele>
        <time>2020-07-19T12:16:49Z</time>
      </trkpt>
      <trkpt lat="47.3614" lon="-1.01544">
        <ele>63.657</ele>
        <time>2020-07-19T12:16:50Z</time>
      </trkpt>
      <trkpt lat="47.36136" lon="-1.01545">
        <ele>63.612</ele>
        <time>2020-07-19T12:16:51Z</time>
      </trkpt>
      <trkpt lat="47.36132" lon="-1.01546">
        <ele>64.387</ele>
        <time>2020-07-19T12:16:52Z</time>
      </trkpt>
      <trkpt lat="47.36128" lon="-1.01547">
        <ele>64.732</ele>
        <time>2020-07-19T12:16:53Z</time>
      </trkpt>
      <trkpt lat="47.36124" lon="-1.01549">
        <ele>63.989</ele>
        <time>2020-07-19T12:16:54Z</time>
      </trkpt>
      <trkpt lat="47.36121" lon="-1.0155">
        <ele>64.559</ele>
        <time>2020-07-19T12:16:55Z</time>
      </trkpt>
      <trkpt lat="47.36118" lon="-1.01552">
        <ele>64.832</ele>
        <time>2020-07-19T12:16:56Z</time>
      </trkpt>
      <trkpt lat="47.36115" lon="-1.01555">
        <ele>64.605</ele>
        <time>2020-07-19T12:16:57Z</time>
      </trkpt>
      <trkpt lat="47.36112" lon="-1.01557">
        <ele>66.595</ele>
        <time>2020-07-19T12:16:58Z</time>
      </trkpt>
      <trkpt lat="47.3611" lon="-1.01561">
        <ele>65.914</ele>
        <time>2020-07-19T12:16:59Z</time>
      </trkpt>
      <trkpt lat="47.3611" lon="-1.01566">
        <ele>64.99</ele>
        <time>2020-07-19T12:17:00Z</time>
      </trkpt>
      <trkpt lat="47.36111" lon="-1.0157">
        <ele>65.106</ele>
        <time>2020-07-19T12:17:01Z</time>
      </trkpt>
      <trkpt lat="47.36113" lon="-1.01573">
        <ele>65.421</ele>
        <time>2020-07-19T12:17:02Z</time>
      </trkpt>
      <trkpt lat="47.36115" lon="-1.01577">
        <ele>65.948</ele>
        <time>2020-07-19T12:17:03Z</time>
      </trkpt>
      <trkpt lat="47.3612" lon="-1.01582">
        <ele>66.444</ele>
        <time>2020-07-19T12:17:06Z</time>
      </trkpt>
      <trkpt lat="47.36122" lon="-1.01584">
        <ele>66.872</ele>
        <time>2020-07-19T12:17:06Z</time>
      </trkpt>
      <trkpt lat="47.36124" lon="-1.01585">
        <ele>67.406</ele>
        <time>2020-07-19T12:17:07Z</time>
      </trkpt>
      <trkpt lat="47.36124" lon="-1.01585">
        <ele>66.599</ele>
        <time>2020-07-19T12:17:08Z</time>
      </trkpt>
      <trkpt lat="47.36124" lon="-1.01584">
        <ele>68.551</ele>
        <time>2020-07-19T12:17:09Z</time>
      </trkpt>
      <trkpt lat="47.36124" lon="-1.01584">
        <ele>67.225</ele>
        <time>2020-07-19T12:17:11Z</time>
      </trkpt>
      <trkpt lat="47.36124" lon="-1.01584">
        <ele>66.822</ele>
        <time>2020-07-19T12:17:12Z</time>
      </trkpt>
      <trkpt lat="47.36124" lon="-1.01584">
        <ele>66.65</ele>
        <time>2020-07-19T12:17:13Z</time>
      </trkpt>
      <trkpt lat="47.36124" lon="-1.01584">
        <ele>66.466</ele>
        <time>2020-07-19T12:17:14Z</time>
      </trkpt>
      <trkpt lat="47.36124" lon="-1.01584">
        <ele>66.218</ele>
        <time>2020-07-19T12:17:15Z</time>
      </trkpt>
      <trkpt lat="47.36124" lon="-1.01584">
        <ele>66.076</ele>
        <time>2020-07-19T12:17:16Z</time>
      </trkpt>
      <trkpt lat="47.36124" lon="-1.01584">
        <ele>65.883</ele>
        <time>2020-07-19T12:17:17Z</time>
      </trkpt>
      <trkpt lat="47.36124" lon="-1.01584">
        <ele>65.329</ele>
        <time>2020-07-19T12:17:18Z</time>
      </trkpt>
      <trkpt lat="47.36124" lon="-1.01583">
        <ele>65.128</ele>
        <time>2020-07-19T12:17:19Z</time>
      </trkpt>
      <trkpt lat="47.36124" lon="-1.01583">
        <ele>64.884</ele>
        <time>2020-07-19T12:17:20Z</time>
      </trkpt>
      <trkpt lat="47.36124" lon="-1.01583">
        <ele>64.955</ele>
        <time>2020-07-19T12:17:21Z</time>
      </trkpt>
      <trkpt lat="47.36124" lon="-1.01583">
        <ele>65.076</ele>
        <time>2020-07-19T12:17:22Z</time>
      </trkpt>
      <trkpt lat="47.36124" lon="-1.01583">
        <ele>65.485</ele>
        <time>2020-07-19T12:17:23Z</time>
      </trkpt>
      <trkpt lat="47.36124" lon="-1.01583">
        <ele>68.098</ele>
        <time>2020-07-19T12:17:24Z</time>
      </trkpt>
      <trkpt lat="47.36123" lon="-1.01583">
        <ele>67.273</ele>
        <time>2020-07-19T12:17:25Z</time>
      </trkpt>
      <trkpt lat="47.36123" lon="-1.01583">
        <ele>67.177</ele>
        <time>2020-07-19T12:17:26Z</time>
      </trkpt>
      <trkpt lat="47.36123" lon="-1.01582">
        <ele>67.146</ele>
        <time>2020-07-19T12:17:27Z</time>
      </trkpt>
      <trkpt lat="47.36123" lon="-1.01583">
        <ele>67.019</ele>
        <time>2020-07-19T12:17:28Z</time>
      </trkpt>
      <trkpt lat="47.36123" lon="-1.01583">
        <ele>66.854</ele>
        <time>2020-07-19T12:17:29Z</time>
      </trkpt>
      <trkpt lat="47.36123" lon="-1.01583">
        <ele>67.258</ele>
        <time>2020-07-19T12:17:30Z</time>
      </trkpt>
      <trkpt lat="47.36123" lon="-1.01583">
        <ele>65.228</ele>
        <time>2020-07-19T12:17:31Z</time>
      </trkpt>
      <trkpt lat="47.36123" lon="-1.01583">
        <ele>64.734</ele>
        <time>2020-07-19T12:17:32Z</time>
      </trkpt>
      <trkpt lat="47.36122" lon="-1.01584">
        <ele>64.826</ele>
        <time>2020-07-19T12:17:33Z</time>
      </trkpt>
      <trkpt lat="47.36122" lon="-1.01584">
        <ele>65.866</ele>
        <time>2020-07-19T12:17:34Z</time>
      </trkpt>
      <trkpt lat="47.36122" lon="-1.01585">
        <ele>66.077</ele>
        <time>2020-07-19T12:17:35Z</time>
      </trkpt>
    </trkseg>
  </trk>
</gpx>